<?xml version="1.0" encoding="UTF-8" standalone="no" ?>
<gpx xmlns="http://www.topografix.com/GPX/1/1" xmlns:xsi="http://www.w3.org/2001/XMLSchema-instance" xsi:schemaLocation="http://www.topografix.com/GPX/1/1 http://www.topografix.com/GPX/1/1/gpx.xsd" version="1.1" creator="VisuGPX - https://www.visugpx.com">
  <metadata>
    <name>335KM 6h00 du 26_03_2022</name>
  </metadata>
  <trk>
    <name><![CDATA[335KM 6h00 du 26_03_2022]]></name>
    <trkseg>
      <trkpt lat="45.30518" lon="4.11475">
        <ele>448.55</ele>
        <time>2022-03-21T07:31:15Z</time>
      </trkpt>
      <trkpt lat="45.30409" lon="4.11518">
        <ele>447.09</ele>
        <time>2022-03-21T07:31:25Z</time>
      </trkpt>
      <trkpt lat="45.30379" lon="4.11527">
        <ele>447.05</ele>
        <time>2022-03-21T07:31:35Z</time>
      </trkpt>
      <trkpt lat="45.3001" lon="4.11546">
        <ele>450.99</ele>
        <time>2022-03-21T07:31:44Z</time>
      </trkpt>
      <trkpt lat="45.29923" lon="4.11564">
        <ele>453.42</ele>
        <time>2022-03-21T07:31:54Z</time>
      </trkpt>
      <trkpt lat="45.29849" lon="4.11587">
        <ele>454.58</ele>
        <time>2022-03-21T07:32:04Z</time>
      </trkpt>
      <trkpt lat="45.29741" lon="4.11615">
        <ele>450.06</ele>
        <time>2022-03-21T07:32:14Z</time>
      </trkpt>
      <trkpt lat="45.29716" lon="4.11626">
        <ele>450.46</ele>
        <time>2022-03-21T07:32:23Z</time>
      </trkpt>
      <trkpt lat="45.29653" lon="4.11672">
        <ele>453.52</ele>
        <time>2022-03-21T07:32:33Z</time>
      </trkpt>
      <trkpt lat="45.29606" lon="4.11702">
        <ele>452.54</ele>
        <time>2022-03-21T07:32:43Z</time>
      </trkpt>
      <trkpt lat="45.29591" lon="4.11717">
        <ele>449.83</ele>
        <time>2022-03-21T07:32:53Z</time>
      </trkpt>
      <trkpt lat="45.29584" lon="4.11708">
        <ele>451.95</ele>
        <time>2022-03-21T07:32:55Z</time>
      </trkpt>
      <trkpt lat="45.29575" lon="4.11706">
        <ele>452.89</ele>
        <time>2022-03-21T07:32:57Z</time>
      </trkpt>
      <trkpt lat="45.29564" lon="4.11708">
        <ele>452.8</ele>
        <time>2022-03-21T07:32:59Z</time>
      </trkpt>
      <trkpt lat="45.29516" lon="4.11726">
        <ele>449.91</ele>
        <time>2022-03-21T07:33:02Z</time>
      </trkpt>
      <trkpt lat="45.29503" lon="4.11732">
        <ele>448.65</ele>
        <time>2022-03-21T07:33:04Z</time>
      </trkpt>
      <trkpt lat="45.29467" lon="4.11735">
        <ele>448.99</ele>
        <time>2022-03-21T07:33:06Z</time>
      </trkpt>
      <trkpt lat="45.2942" lon="4.11725">
        <ele>453.38</ele>
        <time>2022-03-21T07:33:09Z</time>
      </trkpt>
      <trkpt lat="45.29388" lon="4.11724">
        <ele>456.94</ele>
        <time>2022-03-21T07:33:11Z</time>
      </trkpt>
      <trkpt lat="45.29346" lon="4.11741">
        <ele>457.1</ele>
        <time>2022-03-21T07:33:13Z</time>
      </trkpt>
      <trkpt lat="45.29305" lon="4.1175">
        <ele>459.24</ele>
        <time>2022-03-21T07:33:15Z</time>
      </trkpt>
      <trkpt lat="45.29193" lon="4.11766">
        <ele>462.79</ele>
        <time>2022-03-21T07:33:18Z</time>
      </trkpt>
      <trkpt lat="45.29172" lon="4.11762">
        <ele>464.41</ele>
        <time>2022-03-21T07:33:20Z</time>
      </trkpt>
      <trkpt lat="45.29149" lon="4.11747">
        <ele>467.37</ele>
        <time>2022-03-21T07:33:22Z</time>
      </trkpt>
      <trkpt lat="45.29135" lon="4.11734">
        <ele>468.02</ele>
        <time>2022-03-21T07:33:25Z</time>
      </trkpt>
      <trkpt lat="45.29113" lon="4.11687">
        <ele>470.08</ele>
        <time>2022-03-21T07:33:27Z</time>
      </trkpt>
      <trkpt lat="45.29101" lon="4.11652">
        <ele>471.42</ele>
        <time>2022-03-21T07:33:29Z</time>
      </trkpt>
      <trkpt lat="45.2909" lon="4.11603">
        <ele>474.43</ele>
        <time>2022-03-21T07:33:31Z</time>
      </trkpt>
      <trkpt lat="45.2909" lon="4.1158">
        <ele>475.54</ele>
        <time>2022-03-21T07:33:34Z</time>
      </trkpt>
      <trkpt lat="45.29094" lon="4.11575">
        <ele>475.94</ele>
        <time>2022-03-21T07:33:38Z</time>
      </trkpt>
      <trkpt lat="45.29096" lon="4.11566">
        <ele>476.25</ele>
        <time>2022-03-21T07:33:42Z</time>
      </trkpt>
      <trkpt lat="45.29095" lon="4.11551">
        <ele>476.52</ele>
        <time>2022-03-21T07:33:46Z</time>
      </trkpt>
      <trkpt lat="45.29088" lon="4.11539">
        <ele>476.67</ele>
        <time>2022-03-21T07:33:51Z</time>
      </trkpt>
      <trkpt lat="45.29078" lon="4.11535">
        <ele>476.52</ele>
        <time>2022-03-21T07:33:55Z</time>
      </trkpt>
      <trkpt lat="45.29071" lon="4.11537">
        <ele>476.06</ele>
        <time>2022-03-21T07:33:59Z</time>
      </trkpt>
      <trkpt lat="45.29056" lon="4.11533">
        <ele>475.68</ele>
        <time>2022-03-21T07:34:03Z</time>
      </trkpt>
      <trkpt lat="45.29011" lon="4.11506">
        <ele>475.11</ele>
        <time>2022-03-21T07:34:07Z</time>
      </trkpt>
      <trkpt lat="45.28666" lon="4.11375">
        <ele>462.34</ele>
        <time>2022-03-21T07:34:12Z</time>
      </trkpt>
      <trkpt lat="45.28652" lon="4.11371">
        <ele>460.49</ele>
        <time>2022-03-21T07:34:16Z</time>
      </trkpt>
      <trkpt lat="45.28622" lon="4.1137">
        <ele>456.21</ele>
        <time>2022-03-21T07:34:20Z</time>
      </trkpt>
      <trkpt lat="45.28597" lon="4.11381">
        <ele>453.11</ele>
        <time>2022-03-21T07:34:24Z</time>
      </trkpt>
      <trkpt lat="45.28535" lon="4.11418">
        <ele>461.55</ele>
        <time>2022-03-21T07:34:29Z</time>
      </trkpt>
      <trkpt lat="45.28516" lon="4.11421">
        <ele>468.25</ele>
        <time>2022-03-21T07:34:33Z</time>
      </trkpt>
      <trkpt lat="45.28499" lon="4.11416">
        <ele>473.21</ele>
        <time>2022-03-21T07:34:37Z</time>
      </trkpt>
      <trkpt lat="45.2848" lon="4.11395">
        <ele>473.96</ele>
        <time>2022-03-21T07:34:41Z</time>
      </trkpt>
      <trkpt lat="45.28461" lon="4.11352">
        <ele>468.58</ele>
        <time>2022-03-21T07:34:45Z</time>
      </trkpt>
      <trkpt lat="45.28437" lon="4.11274">
        <ele>465.47</ele>
        <time>2022-03-21T07:34:50Z</time>
      </trkpt>
      <trkpt lat="45.28419" lon="4.11227">
        <ele>471.24</ele>
        <time>2022-03-21T07:34:54Z</time>
      </trkpt>
      <trkpt lat="45.28317" lon="4.1107">
        <ele>480.59</ele>
        <time>2022-03-21T07:34:58Z</time>
      </trkpt>
      <trkpt lat="45.28272" lon="4.1101">
        <ele>482.45</ele>
        <time>2022-03-21T07:35:02Z</time>
      </trkpt>
      <trkpt lat="45.28239" lon="4.10984">
        <ele>483.55</ele>
        <time>2022-03-21T07:35:06Z</time>
      </trkpt>
      <trkpt lat="45.28203" lon="4.10975">
        <ele>485.74</ele>
        <time>2022-03-21T07:35:11Z</time>
      </trkpt>
      <trkpt lat="45.28162" lon="4.1098">
        <ele>489.07</ele>
        <time>2022-03-21T07:35:15Z</time>
      </trkpt>
      <trkpt lat="45.28123" lon="4.11009">
        <ele>491.78</ele>
        <time>2022-03-21T07:35:19Z</time>
      </trkpt>
      <trkpt lat="45.28028" lon="4.11106">
        <ele>501.61</ele>
        <time>2022-03-21T07:35:23Z</time>
      </trkpt>
      <trkpt lat="45.27988" lon="4.1114">
        <ele>503.14</ele>
        <time>2022-03-21T07:35:28Z</time>
      </trkpt>
      <trkpt lat="45.27943" lon="4.11155">
        <ele>507.24</ele>
        <time>2022-03-21T07:35:32Z</time>
      </trkpt>
      <trkpt lat="45.27801" lon="4.11173">
        <ele>511.15</ele>
        <time>2022-03-21T07:35:36Z</time>
      </trkpt>
      <trkpt lat="45.27714" lon="4.11191">
        <ele>520.7</ele>
        <time>2022-03-21T07:35:40Z</time>
      </trkpt>
      <trkpt lat="45.27714" lon="4.11191">
        <ele>520.7</ele>
        <time>2022-03-21T07:35:40Z</time>
      </trkpt>
      <trkpt lat="45.27522" lon="4.11244">
        <ele>524.15</ele>
        <time>2022-03-21T07:35:45Z</time>
      </trkpt>
      <trkpt lat="45.27493" lon="4.11247">
        <ele>525.13</ele>
        <time>2022-03-21T07:35:50Z</time>
      </trkpt>
      <trkpt lat="45.2739" lon="4.11229">
        <ele>530.75</ele>
        <time>2022-03-21T07:35:55Z</time>
      </trkpt>
      <trkpt lat="45.27366" lon="4.1123">
        <ele>531.55</ele>
        <time>2022-03-21T07:36:00Z</time>
      </trkpt>
      <trkpt lat="45.27345" lon="4.11236">
        <ele>532.39</ele>
        <time>2022-03-21T07:36:05Z</time>
      </trkpt>
      <trkpt lat="45.27331" lon="4.11244">
        <ele>533.08</ele>
        <time>2022-03-21T07:36:10Z</time>
      </trkpt>
      <trkpt lat="45.27298" lon="4.1127">
        <ele>535.07</ele>
        <time>2022-03-21T07:36:15Z</time>
      </trkpt>
      <trkpt lat="45.27256" lon="4.11312">
        <ele>537.19</ele>
        <time>2022-03-21T07:36:20Z</time>
      </trkpt>
      <trkpt lat="45.27236" lon="4.11326">
        <ele>538.13</ele>
        <time>2022-03-21T07:36:26Z</time>
      </trkpt>
      <trkpt lat="45.27224" lon="4.11331">
        <ele>538.79</ele>
        <time>2022-03-21T07:36:31Z</time>
      </trkpt>
      <trkpt lat="45.27134" lon="4.11357">
        <ele>540.67</ele>
        <time>2022-03-21T07:36:36Z</time>
      </trkpt>
      <trkpt lat="45.27056" lon="4.11374">
        <ele>540.46</ele>
        <time>2022-03-21T07:36:41Z</time>
      </trkpt>
      <trkpt lat="45.2703" lon="4.11371">
        <ele>539.1</ele>
        <time>2022-03-21T07:36:46Z</time>
      </trkpt>
      <trkpt lat="45.27" lon="4.11357">
        <ele>538.18</ele>
        <time>2022-03-21T07:36:51Z</time>
      </trkpt>
      <trkpt lat="45.26976" lon="4.11338">
        <ele>539.7</ele>
        <time>2022-03-21T07:36:56Z</time>
      </trkpt>
      <trkpt lat="45.2696" lon="4.11322">
        <ele>541.72</ele>
        <time>2022-03-21T07:37:01Z</time>
      </trkpt>
      <trkpt lat="45.26905" lon="4.11247">
        <ele>547.15</ele>
        <time>2022-03-21T07:37:06Z</time>
      </trkpt>
      <trkpt lat="45.26855" lon="4.11193">
        <ele>549.09</ele>
        <time>2022-03-21T07:37:11Z</time>
      </trkpt>
      <trkpt lat="45.26729" lon="4.11108">
        <ele>549.77</ele>
        <time>2022-03-21T07:37:16Z</time>
      </trkpt>
      <trkpt lat="45.26729" lon="4.11108">
        <ele>549.77</ele>
        <time>2022-03-21T07:37:16Z</time>
      </trkpt>
      <trkpt lat="45.26713" lon="4.11098">
        <ele>549.32</ele>
        <time>2022-03-21T07:37:24Z</time>
      </trkpt>
      <trkpt lat="45.26567" lon="4.11003">
        <ele>554.25</ele>
        <time>2022-03-21T07:37:33Z</time>
      </trkpt>
      <trkpt lat="45.26534" lon="4.10978">
        <ele>554.68</ele>
        <time>2022-03-21T07:37:41Z</time>
      </trkpt>
      <trkpt lat="45.26502" lon="4.10947">
        <ele>556.7</ele>
        <time>2022-03-21T07:37:49Z</time>
      </trkpt>
      <trkpt lat="45.26473" lon="4.10905">
        <ele>560.87</ele>
        <time>2022-03-21T07:37:58Z</time>
      </trkpt>
      <trkpt lat="45.26452" lon="4.10866">
        <ele>563.04</ele>
        <time>2022-03-21T07:38:06Z</time>
      </trkpt>
      <trkpt lat="45.26367" lon="4.10702">
        <ele>561.13</ele>
        <time>2022-03-21T07:38:15Z</time>
      </trkpt>
      <trkpt lat="45.26329" lon="4.10586">
        <ele>557.98</ele>
        <time>2022-03-21T07:38:23Z</time>
      </trkpt>
      <trkpt lat="45.2629" lon="4.10482">
        <ele>555.88</ele>
        <time>2022-03-21T07:38:31Z</time>
      </trkpt>
      <trkpt lat="45.26266" lon="4.10434">
        <ele>552.59</ele>
        <time>2022-03-21T07:38:40Z</time>
      </trkpt>
      <trkpt lat="45.26221" lon="4.10354">
        <ele>549.1</ele>
        <time>2022-03-21T07:38:48Z</time>
      </trkpt>
      <trkpt lat="45.26189" lon="4.10312">
        <ele>552.39</ele>
        <time>2022-03-21T07:38:57Z</time>
      </trkpt>
      <trkpt lat="45.26094" lon="4.10191">
        <ele>555.89</ele>
        <time>2022-03-21T07:39:05Z</time>
      </trkpt>
      <trkpt lat="45.26077" lon="4.10158">
        <ele>556.85</ele>
        <time>2022-03-21T07:39:13Z</time>
      </trkpt>
      <trkpt lat="45.26056" lon="4.10097">
        <ele>551.51</ele>
        <time>2022-03-21T07:39:22Z</time>
      </trkpt>
      <trkpt lat="45.26047" lon="4.10081">
        <ele>550.16</ele>
        <time>2022-03-21T07:39:30Z</time>
      </trkpt>
      <trkpt lat="45.26025" lon="4.10053">
        <ele>549.24</ele>
        <time>2022-03-21T07:39:38Z</time>
      </trkpt>
      <trkpt lat="45.26003" lon="4.10041">
        <ele>550.76</ele>
        <time>2022-03-21T07:39:47Z</time>
      </trkpt>
      <trkpt lat="45.25981" lon="4.10024">
        <ele>552.28</ele>
        <time>2022-03-21T07:39:55Z</time>
      </trkpt>
      <trkpt lat="45.25968" lon="4.10003">
        <ele>552.1</ele>
        <time>2022-03-21T07:40:04Z</time>
      </trkpt>
      <trkpt lat="45.25949" lon="4.09961">
        <ele>553.84</ele>
        <time>2022-03-21T07:40:12Z</time>
      </trkpt>
      <trkpt lat="45.25934" lon="4.09945">
        <ele>554.61</ele>
        <time>2022-03-21T07:40:20Z</time>
      </trkpt>
      <trkpt lat="45.25927" lon="4.09937">
        <ele>554.74</ele>
        <time>2022-03-21T07:40:29Z</time>
      </trkpt>
      <trkpt lat="45.25918" lon="4.09933">
        <ele>554.44</ele>
        <time>2022-03-21T07:40:37Z</time>
      </trkpt>
      <trkpt lat="45.25889" lon="4.09936">
        <ele>553.63</ele>
        <time>2022-03-21T07:40:46Z</time>
      </trkpt>
      <trkpt lat="45.25812" lon="4.09933">
        <ele>558.64</ele>
        <time>2022-03-21T07:40:54Z</time>
      </trkpt>
      <trkpt lat="45.25612" lon="4.09911">
        <ele>566.51</ele>
        <time>2022-03-21T07:41:02Z</time>
      </trkpt>
      <trkpt lat="45.25592" lon="4.09908">
        <ele>567.56</ele>
        <time>2022-03-21T07:41:11Z</time>
      </trkpt>
      <trkpt lat="45.25258" lon="4.09877">
        <ele>577.97</ele>
        <time>2022-03-21T07:41:19Z</time>
      </trkpt>
      <trkpt lat="45.25234" lon="4.09867">
        <ele>577.9</ele>
        <time>2022-03-21T07:41:28Z</time>
      </trkpt>
      <trkpt lat="45.25198" lon="4.09838">
        <ele>579.65</ele>
        <time>2022-03-21T07:41:36Z</time>
      </trkpt>
      <trkpt lat="45.25082" lon="4.09726">
        <ele>584.17</ele>
        <time>2022-03-21T07:41:44Z</time>
      </trkpt>
      <trkpt lat="45.2502" lon="4.09674">
        <ele>587.1</ele>
        <time>2022-03-21T07:41:53Z</time>
      </trkpt>
      <trkpt lat="45.24946" lon="4.09628">
        <ele>592.91</ele>
        <time>2022-03-21T07:42:01Z</time>
      </trkpt>
      <trkpt lat="45.24848" lon="4.09555">
        <ele>592</ele>
        <time>2022-03-21T07:42:10Z</time>
      </trkpt>
      <trkpt lat="45.24801" lon="4.09508">
        <ele>587.36</ele>
        <time>2022-03-21T07:42:18Z</time>
      </trkpt>
      <trkpt lat="45.24801" lon="4.09508">
        <ele>587.36</ele>
        <time>2022-03-21T07:42:18Z</time>
      </trkpt>
      <trkpt lat="45.24783" lon="4.09488">
        <ele>586.27</ele>
        <time>2022-03-21T07:42:23Z</time>
      </trkpt>
      <trkpt lat="45.24768" lon="4.09471">
        <ele>584.58</ele>
        <time>2022-03-21T07:42:27Z</time>
      </trkpt>
      <trkpt lat="45.2472" lon="4.09397">
        <ele>581.37</ele>
        <time>2022-03-21T07:42:32Z</time>
      </trkpt>
      <trkpt lat="45.24628" lon="4.0923">
        <ele>591.58</ele>
        <time>2022-03-21T07:42:36Z</time>
      </trkpt>
      <trkpt lat="45.24458" lon="4.08743">
        <ele>599.82</ele>
        <time>2022-03-21T07:42:41Z</time>
      </trkpt>
      <trkpt lat="45.24421" lon="4.08671">
        <ele>605.13</ele>
        <time>2022-03-21T07:42:46Z</time>
      </trkpt>
      <trkpt lat="45.24391" lon="4.08631">
        <ele>610.66</ele>
        <time>2022-03-21T07:42:50Z</time>
      </trkpt>
      <trkpt lat="45.24302" lon="4.08525">
        <ele>619.16</ele>
        <time>2022-03-21T07:42:55Z</time>
      </trkpt>
      <trkpt lat="45.24274" lon="4.0847">
        <ele>621.25</ele>
        <time>2022-03-21T07:43:00Z</time>
      </trkpt>
      <trkpt lat="45.24252" lon="4.08387">
        <ele>614.33</ele>
        <time>2022-03-21T07:43:04Z</time>
      </trkpt>
      <trkpt lat="45.24249" lon="4.08317">
        <ele>609.84</ele>
        <time>2022-03-21T07:43:09Z</time>
      </trkpt>
      <trkpt lat="45.24256" lon="4.08216">
        <ele>615.6</ele>
        <time>2022-03-21T07:43:14Z</time>
      </trkpt>
      <trkpt lat="45.24255" lon="4.08144">
        <ele>620.02</ele>
        <time>2022-03-21T07:43:18Z</time>
      </trkpt>
      <trkpt lat="45.24249" lon="4.0808">
        <ele>620.08</ele>
        <time>2022-03-21T07:43:23Z</time>
      </trkpt>
      <trkpt lat="45.24232" lon="4.08019">
        <ele>625.36</ele>
        <time>2022-03-21T07:43:28Z</time>
      </trkpt>
      <trkpt lat="45.24203" lon="4.07945">
        <ele>629.86</ele>
        <time>2022-03-21T07:43:32Z</time>
      </trkpt>
      <trkpt lat="45.24148" lon="4.0785">
        <ele>637.56</ele>
        <time>2022-03-21T07:43:37Z</time>
      </trkpt>
      <trkpt lat="45.24122" lon="4.0779">
        <ele>643.02</ele>
        <time>2022-03-21T07:43:41Z</time>
      </trkpt>
      <trkpt lat="45.24099" lon="4.07732">
        <ele>643.07</ele>
        <time>2022-03-21T07:43:46Z</time>
      </trkpt>
      <trkpt lat="45.24048" lon="4.07547">
        <ele>642.1</ele>
        <time>2022-03-21T07:43:51Z</time>
      </trkpt>
      <trkpt lat="45.24035" lon="4.07508">
        <ele>645.49</ele>
        <time>2022-03-21T07:43:55Z</time>
      </trkpt>
      <trkpt lat="45.23887" lon="4.07112">
        <ele>648.39</ele>
        <time>2022-03-21T07:44:00Z</time>
      </trkpt>
      <trkpt lat="45.23831" lon="4.06937">
        <ele>645.89</ele>
        <time>2022-03-21T07:44:05Z</time>
      </trkpt>
      <trkpt lat="45.23787" lon="4.06822">
        <ele>652.93</ele>
        <time>2022-03-21T07:44:09Z</time>
      </trkpt>
      <trkpt lat="45.23749" lon="4.06752">
        <ele>654.45</ele>
        <time>2022-03-21T07:44:14Z</time>
      </trkpt>
      <trkpt lat="45.23704" lon="4.06686">
        <ele>659.07</ele>
        <time>2022-03-21T07:44:19Z</time>
      </trkpt>
      <trkpt lat="45.23613" lon="4.06568">
        <ele>661.41</ele>
        <time>2022-03-21T07:44:23Z</time>
      </trkpt>
      <trkpt lat="45.23568" lon="4.0653">
        <ele>657.63</ele>
        <time>2022-03-21T07:44:28Z</time>
      </trkpt>
      <trkpt lat="45.23513" lon="4.06491">
        <ele>657.24</ele>
        <time>2022-03-21T07:44:32Z</time>
      </trkpt>
      <trkpt lat="45.2344" lon="4.06461">
        <ele>660.83</ele>
        <time>2022-03-21T07:44:37Z</time>
      </trkpt>
      <trkpt lat="45.23193" lon="4.06425">
        <ele>661.4</ele>
        <time>2022-03-21T07:44:42Z</time>
      </trkpt>
      <trkpt lat="45.23147" lon="4.06395">
        <ele>660.91</ele>
        <time>2022-03-21T07:44:46Z</time>
      </trkpt>
      <trkpt lat="45.23125" lon="4.06366">
        <ele>663.09</ele>
        <time>2022-03-21T07:44:51Z</time>
      </trkpt>
      <trkpt lat="45.23113" lon="4.0633">
        <ele>665.5</ele>
        <time>2022-03-21T07:44:56Z</time>
      </trkpt>
      <trkpt lat="45.23109" lon="4.06272">
        <ele>664.97</ele>
        <time>2022-03-21T07:45:00Z</time>
      </trkpt>
      <trkpt lat="45.23107" lon="4.0619">
        <ele>665.24</ele>
        <time>2022-03-21T07:45:05Z</time>
      </trkpt>
      <trkpt lat="45.23095" lon="4.06127">
        <ele>668.5</ele>
        <time>2022-03-21T07:45:10Z</time>
      </trkpt>
      <trkpt lat="45.23072" lon="4.06077">
        <ele>670.7</ele>
        <time>2022-03-21T07:45:14Z</time>
      </trkpt>
      <trkpt lat="45.23045" lon="4.06037">
        <ele>672.64</ele>
        <time>2022-03-21T07:45:19Z</time>
      </trkpt>
      <trkpt lat="45.22923" lon="4.05868">
        <ele>677.61</ele>
        <time>2022-03-21T07:45:23Z</time>
      </trkpt>
      <trkpt lat="45.22874" lon="4.05804">
        <ele>679.54</ele>
        <time>2022-03-21T07:45:28Z</time>
      </trkpt>
      <trkpt lat="45.22759" lon="4.05711">
        <ele>688.78</ele>
        <time>2022-03-21T07:45:33Z</time>
      </trkpt>
      <trkpt lat="45.22726" lon="4.05681">
        <ele>692.16</ele>
        <time>2022-03-21T07:45:37Z</time>
      </trkpt>
      <trkpt lat="45.227" lon="4.05648">
        <ele>692.85</ele>
        <time>2022-03-21T07:45:42Z</time>
      </trkpt>
      <trkpt lat="45.22672" lon="4.0559">
        <ele>693.91</ele>
        <time>2022-03-21T07:45:47Z</time>
      </trkpt>
      <trkpt lat="45.22661" lon="4.05528">
        <ele>692.71</ele>
        <time>2022-03-21T07:45:51Z</time>
      </trkpt>
      <trkpt lat="45.22658" lon="4.05439">
        <ele>691.84</ele>
        <time>2022-03-21T07:45:56Z</time>
      </trkpt>
      <trkpt lat="45.22665" lon="4.05215">
        <ele>697.38</ele>
        <time>2022-03-21T07:46:01Z</time>
      </trkpt>
      <trkpt lat="45.22667" lon="4.05013">
        <ele>700.36</ele>
        <time>2022-03-21T07:46:05Z</time>
      </trkpt>
      <trkpt lat="45.22651" lon="4.04942">
        <ele>695.01</ele>
        <time>2022-03-21T07:46:10Z</time>
      </trkpt>
      <trkpt lat="45.2262" lon="4.04839">
        <ele>692.65</ele>
        <time>2022-03-21T07:46:15Z</time>
      </trkpt>
      <trkpt lat="45.22612" lon="4.04756">
        <ele>698.61</ele>
        <time>2022-03-21T07:46:19Z</time>
      </trkpt>
      <trkpt lat="45.22612" lon="4.04726">
        <ele>696.59</ele>
        <time>2022-03-21T07:46:24Z</time>
      </trkpt>
      <trkpt lat="45.22628" lon="4.04654">
        <ele>691.9</ele>
        <time>2022-03-21T07:46:28Z</time>
      </trkpt>
      <trkpt lat="45.22705" lon="4.04431">
        <ele>692.09</ele>
        <time>2022-03-21T07:46:33Z</time>
      </trkpt>
      <trkpt lat="45.22716" lon="4.04378">
        <ele>694.27</ele>
        <time>2022-03-21T07:46:38Z</time>
      </trkpt>
      <trkpt lat="45.2271" lon="4.04336">
        <ele>692.97</ele>
        <time>2022-03-21T07:46:42Z</time>
      </trkpt>
      <trkpt lat="45.22693" lon="4.0428">
        <ele>692.47</ele>
        <time>2022-03-21T07:46:47Z</time>
      </trkpt>
      <trkpt lat="45.22656" lon="4.04237">
        <ele>690.93</ele>
        <time>2022-03-21T07:46:52Z</time>
      </trkpt>
      <trkpt lat="45.22633" lon="4.04219">
        <ele>691.75</ele>
        <time>2022-03-21T07:46:56Z</time>
      </trkpt>
      <trkpt lat="45.22554" lon="4.04196">
        <ele>688.33</ele>
        <time>2022-03-21T07:47:01Z</time>
      </trkpt>
      <trkpt lat="45.22505" lon="4.04171">
        <ele>682.64</ele>
        <time>2022-03-21T07:47:06Z</time>
      </trkpt>
      <trkpt lat="45.22482" lon="4.04143">
        <ele>682.51</ele>
        <time>2022-03-21T07:47:10Z</time>
      </trkpt>
      <trkpt lat="45.22465" lon="4.04103">
        <ele>682.17</ele>
        <time>2022-03-21T07:47:15Z</time>
      </trkpt>
      <trkpt lat="45.22457" lon="4.04068">
        <ele>681.09</ele>
        <time>2022-03-21T07:47:19Z</time>
      </trkpt>
      <trkpt lat="45.22457" lon="4.04014">
        <ele>679.41</ele>
        <time>2022-03-21T07:47:24Z</time>
      </trkpt>
      <trkpt lat="45.22463" lon="4.03986">
        <ele>677.41</ele>
        <time>2022-03-21T07:47:29Z</time>
      </trkpt>
      <trkpt lat="45.22516" lon="4.0382">
        <ele>670.04</ele>
        <time>2022-03-21T07:47:33Z</time>
      </trkpt>
      <trkpt lat="45.22544" lon="4.03748">
        <ele>671.74</ele>
        <time>2022-03-21T07:47:38Z</time>
      </trkpt>
      <trkpt lat="45.22569" lon="4.03669">
        <ele>667.38</ele>
        <time>2022-03-21T07:47:43Z</time>
      </trkpt>
      <trkpt lat="45.22596" lon="4.03599">
        <ele>665.97</ele>
        <time>2022-03-21T07:47:47Z</time>
      </trkpt>
      <trkpt lat="45.22611" lon="4.03526">
        <ele>661.84</ele>
        <time>2022-03-21T07:47:52Z</time>
      </trkpt>
      <trkpt lat="45.22614" lon="4.03461">
        <ele>660.47</ele>
        <time>2022-03-21T07:47:57Z</time>
      </trkpt>
      <trkpt lat="45.22611" lon="4.03396">
        <ele>662.76</ele>
        <time>2022-03-21T07:48:01Z</time>
      </trkpt>
      <trkpt lat="45.22599" lon="4.03328">
        <ele>664.95</ele>
        <time>2022-03-21T07:48:06Z</time>
      </trkpt>
      <trkpt lat="45.22581" lon="4.03271">
        <ele>667.14</ele>
        <time>2022-03-21T07:48:10Z</time>
      </trkpt>
      <trkpt lat="45.22545" lon="4.03186">
        <ele>671.96</ele>
        <time>2022-03-21T07:48:15Z</time>
      </trkpt>
      <trkpt lat="45.22501" lon="4.03054">
        <ele>673</ele>
        <time>2022-03-21T07:48:20Z</time>
      </trkpt>
      <trkpt lat="45.22442" lon="4.02881">
        <ele>666.56</ele>
        <time>2022-03-21T07:48:24Z</time>
      </trkpt>
      <trkpt lat="45.22415" lon="4.02818">
        <ele>667.1</ele>
        <time>2022-03-21T07:48:29Z</time>
      </trkpt>
      <trkpt lat="45.22389" lon="4.02769">
        <ele>669.67</ele>
        <time>2022-03-21T07:48:34Z</time>
      </trkpt>
      <trkpt lat="45.22359" lon="4.02723">
        <ele>670.75</ele>
        <time>2022-03-21T07:48:38Z</time>
      </trkpt>
      <trkpt lat="45.22319" lon="4.02675">
        <ele>666.96</ele>
        <time>2022-03-21T07:48:43Z</time>
      </trkpt>
      <trkpt lat="45.22191" lon="4.02553">
        <ele>661.86</ele>
        <time>2022-03-21T07:48:48Z</time>
      </trkpt>
      <trkpt lat="45.22157" lon="4.02508">
        <ele>659.65</ele>
        <time>2022-03-21T07:48:52Z</time>
      </trkpt>
      <trkpt lat="45.22138" lon="4.02471">
        <ele>659.87</ele>
        <time>2022-03-21T07:48:57Z</time>
      </trkpt>
      <trkpt lat="45.22125" lon="4.02438">
        <ele>658.8</ele>
        <time>2022-03-21T07:49:02Z</time>
      </trkpt>
      <trkpt lat="45.22095" lon="4.02344">
        <ele>654.62</ele>
        <time>2022-03-21T07:49:06Z</time>
      </trkpt>
      <trkpt lat="45.22084" lon="4.02317">
        <ele>654.05</ele>
        <time>2022-03-21T07:49:11Z</time>
      </trkpt>
      <trkpt lat="45.22055" lon="4.02269">
        <ele>651.27</ele>
        <time>2022-03-21T07:49:15Z</time>
      </trkpt>
      <trkpt lat="45.22038" lon="4.0225">
        <ele>651.36</ele>
        <time>2022-03-21T07:49:20Z</time>
      </trkpt>
      <trkpt lat="45.22009" lon="4.02227">
        <ele>649.94</ele>
        <time>2022-03-21T07:49:25Z</time>
      </trkpt>
      <trkpt lat="45.21991" lon="4.02217">
        <ele>648.88</ele>
        <time>2022-03-21T07:49:29Z</time>
      </trkpt>
      <trkpt lat="45.21966" lon="4.02208">
        <ele>646.28</ele>
        <time>2022-03-21T07:49:34Z</time>
      </trkpt>
      <trkpt lat="45.21942" lon="4.02201">
        <ele>643.87</ele>
        <time>2022-03-21T07:49:39Z</time>
      </trkpt>
      <trkpt lat="45.21907" lon="4.02186">
        <ele>643.03</ele>
        <time>2022-03-21T07:49:43Z</time>
      </trkpt>
      <trkpt lat="45.21889" lon="4.02181">
        <ele>642.95</ele>
        <time>2022-03-21T07:49:48Z</time>
      </trkpt>
      <trkpt lat="45.21865" lon="4.02178">
        <ele>644.04</ele>
        <time>2022-03-21T07:49:53Z</time>
      </trkpt>
      <trkpt lat="45.21825" lon="4.02187">
        <ele>644.93</ele>
        <time>2022-03-21T07:49:57Z</time>
      </trkpt>
      <trkpt lat="45.21824" lon="4.02187">
        <ele>644.83</ele>
        <time>2022-03-21T07:49:57Z</time>
      </trkpt>
      <trkpt lat="45.21824" lon="4.02187">
        <ele>644.83</ele>
        <time>2022-03-21T07:49:57Z</time>
      </trkpt>
      <trkpt lat="45.21807" lon="4.02197">
        <ele>643.82</ele>
        <time>2022-03-21T07:50:02Z</time>
      </trkpt>
      <trkpt lat="45.21787" lon="4.02215">
        <ele>643.39</ele>
        <time>2022-03-21T07:50:08Z</time>
      </trkpt>
      <trkpt lat="45.21734" lon="4.02274">
        <ele>642.21</ele>
        <time>2022-03-21T07:50:14Z</time>
      </trkpt>
      <trkpt lat="45.21714" lon="4.02302">
        <ele>638.77</ele>
        <time>2022-03-21T07:50:19Z</time>
      </trkpt>
      <trkpt lat="45.21675" lon="4.02344">
        <ele>633.2</ele>
        <time>2022-03-21T07:50:25Z</time>
      </trkpt>
      <trkpt lat="45.21622" lon="4.02385">
        <ele>631.14</ele>
        <time>2022-03-21T07:50:31Z</time>
      </trkpt>
      <trkpt lat="45.21578" lon="4.02413">
        <ele>624.02</ele>
        <time>2022-03-21T07:50:36Z</time>
      </trkpt>
      <trkpt lat="45.21543" lon="4.02438">
        <ele>620.36</ele>
        <time>2022-03-21T07:50:42Z</time>
      </trkpt>
      <trkpt lat="45.21512" lon="4.02465">
        <ele>616.87</ele>
        <time>2022-03-21T07:50:47Z</time>
      </trkpt>
      <trkpt lat="45.21433" lon="4.02558">
        <ele>614.71</ele>
        <time>2022-03-21T07:50:53Z</time>
      </trkpt>
      <trkpt lat="45.21422" lon="4.02577">
        <ele>613.15</ele>
        <time>2022-03-21T07:50:59Z</time>
      </trkpt>
      <trkpt lat="45.21415" lon="4.02601">
        <ele>611.91</ele>
        <time>2022-03-21T07:51:04Z</time>
      </trkpt>
      <trkpt lat="45.21407" lon="4.02642">
        <ele>609.34</ele>
        <time>2022-03-21T07:51:10Z</time>
      </trkpt>
      <trkpt lat="45.21398" lon="4.02747">
        <ele>603.27</ele>
        <time>2022-03-21T07:51:15Z</time>
      </trkpt>
      <trkpt lat="45.21395" lon="4.02778">
        <ele>600.33</ele>
        <time>2022-03-21T07:51:21Z</time>
      </trkpt>
      <trkpt lat="45.21374" lon="4.02874">
        <ele>593.77</ele>
        <time>2022-03-21T07:51:27Z</time>
      </trkpt>
      <trkpt lat="45.21368" lon="4.02895">
        <ele>593.21</ele>
        <time>2022-03-21T07:51:32Z</time>
      </trkpt>
      <trkpt lat="45.2136" lon="4.02909">
        <ele>592.8</ele>
        <time>2022-03-21T07:51:38Z</time>
      </trkpt>
      <trkpt lat="45.21349" lon="4.0292">
        <ele>590.61</ele>
        <time>2022-03-21T07:51:44Z</time>
      </trkpt>
      <trkpt lat="45.21335" lon="4.02927">
        <ele>588.37</ele>
        <time>2022-03-21T07:51:49Z</time>
      </trkpt>
      <trkpt lat="45.21322" lon="4.02929">
        <ele>586.75</ele>
        <time>2022-03-21T07:51:55Z</time>
      </trkpt>
      <trkpt lat="45.21308" lon="4.02925">
        <ele>586.37</ele>
        <time>2022-03-21T07:52:00Z</time>
      </trkpt>
      <trkpt lat="45.21294" lon="4.02916">
        <ele>586.55</ele>
        <time>2022-03-21T07:52:06Z</time>
      </trkpt>
      <trkpt lat="45.21267" lon="4.02884">
        <ele>588.28</ele>
        <time>2022-03-21T07:52:12Z</time>
      </trkpt>
      <trkpt lat="45.21236" lon="4.02852">
        <ele>586.66</ele>
        <time>2022-03-21T07:52:17Z</time>
      </trkpt>
      <trkpt lat="45.21222" lon="4.02839">
        <ele>586.11</ele>
        <time>2022-03-21T07:52:23Z</time>
      </trkpt>
      <trkpt lat="45.21207" lon="4.0283">
        <ele>585.15</ele>
        <time>2022-03-21T07:52:29Z</time>
      </trkpt>
      <trkpt lat="45.21199" lon="4.02828">
        <ele>584.32</ele>
        <time>2022-03-21T07:52:34Z</time>
      </trkpt>
      <trkpt lat="45.21189" lon="4.02827">
        <ele>583.24</ele>
        <time>2022-03-21T07:52:40Z</time>
      </trkpt>
      <trkpt lat="45.21176" lon="4.0283">
        <ele>581.99</ele>
        <time>2022-03-21T07:52:45Z</time>
      </trkpt>
      <trkpt lat="45.21155" lon="4.02849">
        <ele>580.25</ele>
        <time>2022-03-21T07:52:51Z</time>
      </trkpt>
      <trkpt lat="45.21137" lon="4.02887">
        <ele>580.94</ele>
        <time>2022-03-21T07:52:57Z</time>
      </trkpt>
      <trkpt lat="45.21108" lon="4.02938">
        <ele>579.08</ele>
        <time>2022-03-21T07:53:02Z</time>
      </trkpt>
      <trkpt lat="45.21069" lon="4.02977">
        <ele>573.41</ele>
        <time>2022-03-21T07:53:08Z</time>
      </trkpt>
      <trkpt lat="45.21047" lon="4.02995">
        <ele>571.93</ele>
        <time>2022-03-21T07:53:13Z</time>
      </trkpt>
      <trkpt lat="45.20938" lon="4.03053">
        <ele>561.87</ele>
        <time>2022-03-21T07:53:19Z</time>
      </trkpt>
      <trkpt lat="45.20794" lon="4.03125">
        <ele>552.08</ele>
        <time>2022-03-21T07:53:25Z</time>
      </trkpt>
      <trkpt lat="45.20763" lon="4.03141">
        <ele>551.56</ele>
        <time>2022-03-21T07:53:30Z</time>
      </trkpt>
      <trkpt lat="45.20612" lon="4.03222">
        <ele>548</ele>
        <time>2022-03-21T07:53:36Z</time>
      </trkpt>
      <trkpt lat="45.20578" lon="4.03241">
        <ele>546.87</ele>
        <time>2022-03-21T07:53:42Z</time>
      </trkpt>
      <trkpt lat="45.20567" lon="4.0325">
        <ele>546.44</ele>
        <time>2022-03-21T07:53:47Z</time>
      </trkpt>
      <trkpt lat="45.20549" lon="4.03256">
        <ele>546</ele>
        <time>2022-03-21T07:53:53Z</time>
      </trkpt>
      <trkpt lat="45.20468" lon="4.03269">
        <ele>547</ele>
        <time>2022-03-21T07:53:58Z</time>
      </trkpt>
      <trkpt lat="45.20428" lon="4.03295">
        <ele>545.77</ele>
        <time>2022-03-21T07:54:04Z</time>
      </trkpt>
      <trkpt lat="45.20417" lon="4.03298">
        <ele>545.28</ele>
        <time>2022-03-21T07:54:10Z</time>
      </trkpt>
      <trkpt lat="45.20356" lon="4.03292">
        <ele>543.49</ele>
        <time>2022-03-21T07:54:15Z</time>
      </trkpt>
      <trkpt lat="45.20352" lon="4.03294">
        <ele>543.4</ele>
        <time>2022-03-21T07:54:21Z</time>
      </trkpt>
      <trkpt lat="45.20348" lon="4.03302">
        <ele>543.15</ele>
        <time>2022-03-21T07:54:27Z</time>
      </trkpt>
      <trkpt lat="45.20344" lon="4.03364">
        <ele>539.83</ele>
        <time>2022-03-21T07:54:32Z</time>
      </trkpt>
      <trkpt lat="45.20338" lon="4.03411">
        <ele>537.34</ele>
        <time>2022-03-21T07:54:38Z</time>
      </trkpt>
      <trkpt lat="45.20335" lon="4.03424">
        <ele>537.03</ele>
        <time>2022-03-21T07:54:43Z</time>
      </trkpt>
      <trkpt lat="45.20328" lon="4.03439">
        <ele>536.6</ele>
        <time>2022-03-21T07:54:49Z</time>
      </trkpt>
      <trkpt lat="45.20285" lon="4.03479">
        <ele>531.77</ele>
        <time>2022-03-21T07:54:55Z</time>
      </trkpt>
      <trkpt lat="45.20258" lon="4.03516">
        <ele>529.31</ele>
        <time>2022-03-21T07:55:00Z</time>
      </trkpt>
      <trkpt lat="45.20238" lon="4.0355">
        <ele>526.32</ele>
        <time>2022-03-21T07:55:06Z</time>
      </trkpt>
      <trkpt lat="45.20226" lon="4.03578">
        <ele>524.48</ele>
        <time>2022-03-21T07:55:12Z</time>
      </trkpt>
      <trkpt lat="45.20225" lon="4.03592">
        <ele>523.61</ele>
        <time>2022-03-21T07:55:17Z</time>
      </trkpt>
      <trkpt lat="45.20224" lon="4.03616">
        <ele>522.12</ele>
        <time>2022-03-21T07:55:23Z</time>
      </trkpt>
      <trkpt lat="45.20231" lon="4.03674">
        <ele>520.9</ele>
        <time>2022-03-21T07:55:28Z</time>
      </trkpt>
      <trkpt lat="45.20229" lon="4.03686">
        <ele>520.74</ele>
        <time>2022-03-21T07:55:34Z</time>
      </trkpt>
      <trkpt lat="45.20222" lon="4.037">
        <ele>519.81</ele>
        <time>2022-03-21T07:55:40Z</time>
      </trkpt>
      <trkpt lat="45.20213" lon="4.03709">
        <ele>518.49</ele>
        <time>2022-03-21T07:55:45Z</time>
      </trkpt>
      <trkpt lat="45.20197" lon="4.03713">
        <ele>516.6</ele>
        <time>2022-03-21T07:55:51Z</time>
      </trkpt>
      <trkpt lat="45.20149" lon="4.03705">
        <ele>511.47</ele>
        <time>2022-03-21T07:55:56Z</time>
      </trkpt>
      <trkpt lat="45.20112" lon="4.03701">
        <ele>508.52</ele>
        <time>2022-03-21T07:56:02Z</time>
      </trkpt>
      <trkpt lat="45.20032" lon="4.0369">
        <ele>503.67</ele>
        <time>2022-03-21T07:56:08Z</time>
      </trkpt>
      <trkpt lat="45.19858" lon="4.03668">
        <ele>505.52</ele>
        <time>2022-03-21T07:56:13Z</time>
      </trkpt>
      <trkpt lat="45.19841" lon="4.03665">
        <ele>508.66</ele>
        <time>2022-03-21T07:56:19Z</time>
      </trkpt>
      <trkpt lat="45.19826" lon="4.03655">
        <ele>511</ele>
        <time>2022-03-21T07:56:25Z</time>
      </trkpt>
      <trkpt lat="45.19822" lon="4.03648">
        <ele>511.74</ele>
        <time>2022-03-21T07:56:30Z</time>
      </trkpt>
      <trkpt lat="45.1981" lon="4.03657">
        <ele>514.18</ele>
        <time>2022-03-21T07:56:32Z</time>
      </trkpt>
      <trkpt lat="45.19792" lon="4.0376">
        <ele>516.08</ele>
        <time>2022-03-21T07:56:36Z</time>
      </trkpt>
      <trkpt lat="45.19774" lon="4.03843">
        <ele>513.09</ele>
        <time>2022-03-21T07:56:39Z</time>
      </trkpt>
      <trkpt lat="45.19729" lon="4.03968">
        <ele>512.42</ele>
        <time>2022-03-21T07:56:43Z</time>
      </trkpt>
      <trkpt lat="45.19706" lon="4.04057">
        <ele>516.16</ele>
        <time>2022-03-21T07:56:47Z</time>
      </trkpt>
      <trkpt lat="45.19696" lon="4.04109">
        <ele>518.62</ele>
        <time>2022-03-21T07:56:51Z</time>
      </trkpt>
      <trkpt lat="45.19689" lon="4.04158">
        <ele>519.16</ele>
        <time>2022-03-21T07:56:54Z</time>
      </trkpt>
      <trkpt lat="45.19689" lon="4.04183">
        <ele>520.03</ele>
        <time>2022-03-21T07:56:58Z</time>
      </trkpt>
      <trkpt lat="45.19691" lon="4.04201">
        <ele>521.28</ele>
        <time>2022-03-21T07:57:02Z</time>
      </trkpt>
      <trkpt lat="45.19726" lon="4.04421">
        <ele>527.49</ele>
        <time>2022-03-21T07:57:05Z</time>
      </trkpt>
      <trkpt lat="45.19727" lon="4.04443">
        <ele>528.37</ele>
        <time>2022-03-21T07:57:09Z</time>
      </trkpt>
      <trkpt lat="45.19727" lon="4.04466">
        <ele>531.34</ele>
        <time>2022-03-21T07:57:13Z</time>
      </trkpt>
      <trkpt lat="45.19723" lon="4.04493">
        <ele>535.03</ele>
        <time>2022-03-21T07:57:17Z</time>
      </trkpt>
      <trkpt lat="45.19716" lon="4.04519">
        <ele>538.07</ele>
        <time>2022-03-21T07:57:20Z</time>
      </trkpt>
      <trkpt lat="45.19706" lon="4.04547">
        <ele>539.4</ele>
        <time>2022-03-21T07:57:24Z</time>
      </trkpt>
      <trkpt lat="45.19694" lon="4.04566">
        <ele>539.63</ele>
        <time>2022-03-21T07:57:28Z</time>
      </trkpt>
      <trkpt lat="45.1968" lon="4.04586">
        <ele>542.3</ele>
        <time>2022-03-21T07:57:31Z</time>
      </trkpt>
      <trkpt lat="45.19659" lon="4.04604">
        <ele>543.75</ele>
        <time>2022-03-21T07:57:35Z</time>
      </trkpt>
      <trkpt lat="45.19547" lon="4.04669">
        <ele>556.93</ele>
        <time>2022-03-21T07:57:39Z</time>
      </trkpt>
      <trkpt lat="45.19486" lon="4.04692">
        <ele>560.19</ele>
        <time>2022-03-21T07:57:42Z</time>
      </trkpt>
      <trkpt lat="45.19455" lon="4.04697">
        <ele>563.7</ele>
        <time>2022-03-21T07:57:46Z</time>
      </trkpt>
      <trkpt lat="45.19406" lon="4.04701">
        <ele>567.6</ele>
        <time>2022-03-21T07:57:50Z</time>
      </trkpt>
      <trkpt lat="45.19375" lon="4.04698">
        <ele>567.85</ele>
        <time>2022-03-21T07:57:54Z</time>
      </trkpt>
      <trkpt lat="45.19351" lon="4.04694">
        <ele>568.94</ele>
        <time>2022-03-21T07:57:57Z</time>
      </trkpt>
      <trkpt lat="45.19288" lon="4.04669">
        <ele>573.85</ele>
        <time>2022-03-21T07:58:01Z</time>
      </trkpt>
      <trkpt lat="45.19267" lon="4.04666">
        <ele>573.48</ele>
        <time>2022-03-21T07:58:05Z</time>
      </trkpt>
      <trkpt lat="45.19171" lon="4.04669">
        <ele>579.84</ele>
        <time>2022-03-21T07:58:08Z</time>
      </trkpt>
      <trkpt lat="45.19077" lon="4.04679">
        <ele>588.86</ele>
        <time>2022-03-21T07:58:12Z</time>
      </trkpt>
      <trkpt lat="45.19056" lon="4.04685">
        <ele>588.2</ele>
        <time>2022-03-21T07:58:16Z</time>
      </trkpt>
      <trkpt lat="45.19035" lon="4.04695">
        <ele>588.65</ele>
        <time>2022-03-21T07:58:20Z</time>
      </trkpt>
      <trkpt lat="45.1898" lon="4.04729">
        <ele>593.16</ele>
        <time>2022-03-21T07:58:23Z</time>
      </trkpt>
      <trkpt lat="45.18957" lon="4.04733">
        <ele>594.85</ele>
        <time>2022-03-21T07:58:27Z</time>
      </trkpt>
      <trkpt lat="45.18935" lon="4.04731">
        <ele>595.91</ele>
        <time>2022-03-21T07:58:31Z</time>
      </trkpt>
      <trkpt lat="45.18917" lon="4.04725">
        <ele>596.24</ele>
        <time>2022-03-21T07:58:34Z</time>
      </trkpt>
      <trkpt lat="45.18824" lon="4.04661">
        <ele>604.35</ele>
        <time>2022-03-21T07:58:38Z</time>
      </trkpt>
      <trkpt lat="45.18761" lon="4.04613">
        <ele>608.35</ele>
        <time>2022-03-21T07:58:42Z</time>
      </trkpt>
      <trkpt lat="45.1871" lon="4.04567">
        <ele>613.39</ele>
        <time>2022-03-21T07:58:46Z</time>
      </trkpt>
      <trkpt lat="45.18668" lon="4.04527">
        <ele>616.24</ele>
        <time>2022-03-21T07:58:49Z</time>
      </trkpt>
      <trkpt lat="45.18635" lon="4.04499">
        <ele>616.49</ele>
        <time>2022-03-21T07:58:53Z</time>
      </trkpt>
      <trkpt lat="45.18608" lon="4.04479">
        <ele>616.86</ele>
        <time>2022-03-21T07:58:57Z</time>
      </trkpt>
      <trkpt lat="45.18594" lon="4.04469">
        <ele>616.32</ele>
        <time>2022-03-21T07:59:00Z</time>
      </trkpt>
      <trkpt lat="45.18557" lon="4.04451">
        <ele>616.35</ele>
        <time>2022-03-21T07:59:04Z</time>
      </trkpt>
      <trkpt lat="45.18538" lon="4.04446">
        <ele>618.67</ele>
        <time>2022-03-21T07:59:08Z</time>
      </trkpt>
      <trkpt lat="45.18453" lon="4.04443">
        <ele>628.61</ele>
        <time>2022-03-21T07:59:12Z</time>
      </trkpt>
      <trkpt lat="45.18435" lon="4.04444">
        <ele>629.8</ele>
        <time>2022-03-21T07:59:15Z</time>
      </trkpt>
      <trkpt lat="45.18413" lon="4.04448">
        <ele>630.85</ele>
        <time>2022-03-21T07:59:19Z</time>
      </trkpt>
      <trkpt lat="45.18273" lon="4.04492">
        <ele>642.51</ele>
        <time>2022-03-21T07:59:23Z</time>
      </trkpt>
      <trkpt lat="45.18245" lon="4.04499">
        <ele>645.52</ele>
        <time>2022-03-21T07:59:26Z</time>
      </trkpt>
      <trkpt lat="45.18218" lon="4.04502">
        <ele>646.55</ele>
        <time>2022-03-21T07:59:30Z</time>
      </trkpt>
      <trkpt lat="45.18159" lon="4.04501">
        <ele>646.35</ele>
        <time>2022-03-21T07:59:34Z</time>
      </trkpt>
      <trkpt lat="45.1802" lon="4.04494">
        <ele>656.43</ele>
        <time>2022-03-21T07:59:38Z</time>
      </trkpt>
      <trkpt lat="45.18006" lon="4.04497">
        <ele>658.42</ele>
        <time>2022-03-21T07:59:41Z</time>
      </trkpt>
      <trkpt lat="45.17995" lon="4.04504">
        <ele>659.25</ele>
        <time>2022-03-21T07:59:45Z</time>
      </trkpt>
      <trkpt lat="45.17984" lon="4.04515">
        <ele>659.47</ele>
        <time>2022-03-21T07:59:49Z</time>
      </trkpt>
      <trkpt lat="45.17984" lon="4.04515">
        <ele>659.47</ele>
        <time>2022-03-21T07:59:49Z</time>
      </trkpt>
      <trkpt lat="45.17978" lon="4.04531">
        <ele>659.87</ele>
        <time>2022-03-21T07:59:52Z</time>
      </trkpt>
      <trkpt lat="45.17975" lon="4.0455">
        <ele>659.73</ele>
        <time>2022-03-21T07:59:56Z</time>
      </trkpt>
      <trkpt lat="45.17977" lon="4.04568">
        <ele>660.21</ele>
        <time>2022-03-21T08:00:00Z</time>
      </trkpt>
      <trkpt lat="45.1798" lon="4.04584">
        <ele>660.67</ele>
        <time>2022-03-21T08:00:04Z</time>
      </trkpt>
      <trkpt lat="45.17989" lon="4.046">
        <ele>661.11</ele>
        <time>2022-03-21T08:00:08Z</time>
      </trkpt>
      <trkpt lat="45.18056" lon="4.04692">
        <ele>660.53</ele>
        <time>2022-03-21T08:00:11Z</time>
      </trkpt>
      <trkpt lat="45.18069" lon="4.04717">
        <ele>660.92</ele>
        <time>2022-03-21T08:00:15Z</time>
      </trkpt>
      <trkpt lat="45.18076" lon="4.0474">
        <ele>663.95</ele>
        <time>2022-03-21T08:00:19Z</time>
      </trkpt>
      <trkpt lat="45.18081" lon="4.04763">
        <ele>667.2</ele>
        <time>2022-03-21T08:00:23Z</time>
      </trkpt>
      <trkpt lat="45.18094" lon="4.0486">
        <ele>673.65</ele>
        <time>2022-03-21T08:00:26Z</time>
      </trkpt>
      <trkpt lat="45.181" lon="4.04887">
        <ele>672.16</ele>
        <time>2022-03-21T08:00:30Z</time>
      </trkpt>
      <trkpt lat="45.18111" lon="4.04914">
        <ele>670.83</ele>
        <time>2022-03-21T08:00:34Z</time>
      </trkpt>
      <trkpt lat="45.18121" lon="4.04932">
        <ele>670.72</ele>
        <time>2022-03-21T08:00:38Z</time>
      </trkpt>
      <trkpt lat="45.18134" lon="4.04949">
        <ele>670.32</ele>
        <time>2022-03-21T08:00:41Z</time>
      </trkpt>
      <trkpt lat="45.18149" lon="4.04964">
        <ele>669.9</ele>
        <time>2022-03-21T08:00:45Z</time>
      </trkpt>
      <trkpt lat="45.182" lon="4.05004">
        <ele>667.6</ele>
        <time>2022-03-21T08:00:49Z</time>
      </trkpt>
      <trkpt lat="45.18216" lon="4.05019">
        <ele>669.19</ele>
        <time>2022-03-21T08:00:53Z</time>
      </trkpt>
      <trkpt lat="45.18229" lon="4.05035">
        <ele>670.24</ele>
        <time>2022-03-21T08:00:57Z</time>
      </trkpt>
      <trkpt lat="45.18242" lon="4.05058">
        <ele>671.41</ele>
        <time>2022-03-21T08:01:00Z</time>
      </trkpt>
      <trkpt lat="45.18251" lon="4.0508">
        <ele>673.45</ele>
        <time>2022-03-21T08:01:04Z</time>
      </trkpt>
      <trkpt lat="45.18258" lon="4.05105">
        <ele>675.55</ele>
        <time>2022-03-21T08:01:08Z</time>
      </trkpt>
      <trkpt lat="45.18261" lon="4.05129">
        <ele>676.19</ele>
        <time>2022-03-21T08:01:12Z</time>
      </trkpt>
      <trkpt lat="45.18262" lon="4.05156">
        <ele>676.28</ele>
        <time>2022-03-21T08:01:15Z</time>
      </trkpt>
      <trkpt lat="45.1825" lon="4.05285">
        <ele>683.01</ele>
        <time>2022-03-21T08:01:19Z</time>
      </trkpt>
      <trkpt lat="45.18234" lon="4.05493">
        <ele>692.63</ele>
        <time>2022-03-21T08:01:23Z</time>
      </trkpt>
      <trkpt lat="45.18207" lon="4.05653">
        <ele>692.68</ele>
        <time>2022-03-21T08:01:27Z</time>
      </trkpt>
      <trkpt lat="45.18188" lon="4.05818">
        <ele>695.67</ele>
        <time>2022-03-21T08:01:30Z</time>
      </trkpt>
      <trkpt lat="45.18189" lon="4.05872">
        <ele>692.42</ele>
        <time>2022-03-21T08:01:34Z</time>
      </trkpt>
      <trkpt lat="45.18203" lon="4.05936">
        <ele>693.48</ele>
        <time>2022-03-21T08:01:38Z</time>
      </trkpt>
      <trkpt lat="45.18211" lon="4.05977">
        <ele>696.67</ele>
        <time>2022-03-21T08:01:42Z</time>
      </trkpt>
      <trkpt lat="45.18207" lon="4.06033">
        <ele>699.07</ele>
        <time>2022-03-21T08:01:46Z</time>
      </trkpt>
      <trkpt lat="45.18194" lon="4.06072">
        <ele>699.42</ele>
        <time>2022-03-21T08:01:49Z</time>
      </trkpt>
      <trkpt lat="45.18099" lon="4.06253">
        <ele>699.68</ele>
        <time>2022-03-21T08:01:53Z</time>
      </trkpt>
      <trkpt lat="45.18083" lon="4.06305">
        <ele>700.17</ele>
        <time>2022-03-21T08:01:57Z</time>
      </trkpt>
      <trkpt lat="45.18075" lon="4.06362">
        <ele>697.88</ele>
        <time>2022-03-21T08:02:01Z</time>
      </trkpt>
      <trkpt lat="45.18067" lon="4.06394">
        <ele>699.53</ele>
        <time>2022-03-21T08:02:04Z</time>
      </trkpt>
      <trkpt lat="45.18057" lon="4.06422">
        <ele>701.7</ele>
        <time>2022-03-21T08:02:08Z</time>
      </trkpt>
      <trkpt lat="45.17959" lon="4.06587">
        <ele>703.95</ele>
        <time>2022-03-21T08:02:12Z</time>
      </trkpt>
      <trkpt lat="45.1795" lon="4.066">
        <ele>702.88</ele>
        <time>2022-03-21T08:02:16Z</time>
      </trkpt>
      <trkpt lat="45.17933" lon="4.06619">
        <ele>702.01</ele>
        <time>2022-03-21T08:02:19Z</time>
      </trkpt>
      <trkpt lat="45.17913" lon="4.06634">
        <ele>701.68</ele>
        <time>2022-03-21T08:02:23Z</time>
      </trkpt>
      <trkpt lat="45.17893" lon="4.06644">
        <ele>701.52</ele>
        <time>2022-03-21T08:02:27Z</time>
      </trkpt>
      <trkpt lat="45.17872" lon="4.06649">
        <ele>701.03</ele>
        <time>2022-03-21T08:02:31Z</time>
      </trkpt>
      <trkpt lat="45.17764" lon="4.06652">
        <ele>696.32</ele>
        <time>2022-03-21T08:02:35Z</time>
      </trkpt>
      <trkpt lat="45.1774" lon="4.06663">
        <ele>695.57</ele>
        <time>2022-03-21T08:02:38Z</time>
      </trkpt>
      <trkpt lat="45.17658" lon="4.06733">
        <ele>694.48</ele>
        <time>2022-03-21T08:02:42Z</time>
      </trkpt>
      <trkpt lat="45.17613" lon="4.06778">
        <ele>692.93</ele>
        <time>2022-03-21T08:02:46Z</time>
      </trkpt>
      <trkpt lat="45.17461" lon="4.06956">
        <ele>703.86</ele>
        <time>2022-03-21T08:02:50Z</time>
      </trkpt>
      <trkpt lat="45.17445" lon="4.0698">
        <ele>705.55</ele>
        <time>2022-03-21T08:02:53Z</time>
      </trkpt>
      <trkpt lat="45.17424" lon="4.07018">
        <ele>706.45</ele>
        <time>2022-03-21T08:02:57Z</time>
      </trkpt>
      <trkpt lat="45.17381" lon="4.07106">
        <ele>707.11</ele>
        <time>2022-03-21T08:03:01Z</time>
      </trkpt>
      <trkpt lat="45.17367" lon="4.07122">
        <ele>708.49</ele>
        <time>2022-03-21T08:03:05Z</time>
      </trkpt>
      <trkpt lat="45.17353" lon="4.07136">
        <ele>711.42</ele>
        <time>2022-03-21T08:03:09Z</time>
      </trkpt>
      <trkpt lat="45.17353" lon="4.07136">
        <ele>711.42</ele>
        <time>2022-03-21T08:03:09Z</time>
      </trkpt>
      <trkpt lat="45.17279" lon="4.07205">
        <ele>714.35</ele>
        <time>2022-03-21T08:03:12Z</time>
      </trkpt>
      <trkpt lat="45.17252" lon="4.07226">
        <ele>717.1</ele>
        <time>2022-03-21T08:03:16Z</time>
      </trkpt>
      <trkpt lat="45.17233" lon="4.07239">
        <ele>719.19</ele>
        <time>2022-03-21T08:03:20Z</time>
      </trkpt>
      <trkpt lat="45.17221" lon="4.07243">
        <ele>720.25</ele>
        <time>2022-03-21T08:03:24Z</time>
      </trkpt>
      <trkpt lat="45.172" lon="4.07246">
        <ele>720.57</ele>
        <time>2022-03-21T08:03:28Z</time>
      </trkpt>
      <trkpt lat="45.17122" lon="4.07236">
        <ele>724.9</ele>
        <time>2022-03-21T08:03:32Z</time>
      </trkpt>
      <trkpt lat="45.17103" lon="4.07236">
        <ele>726.09</ele>
        <time>2022-03-21T08:03:36Z</time>
      </trkpt>
      <trkpt lat="45.17095" lon="4.07237">
        <ele>726.6</ele>
        <time>2022-03-21T08:03:40Z</time>
      </trkpt>
      <trkpt lat="45.17082" lon="4.07249">
        <ele>727.16</ele>
        <time>2022-03-21T08:03:44Z</time>
      </trkpt>
      <trkpt lat="45.17074" lon="4.07262">
        <ele>727.66</ele>
        <time>2022-03-21T08:03:48Z</time>
      </trkpt>
      <trkpt lat="45.17072" lon="4.07278">
        <ele>727.82</ele>
        <time>2022-03-21T08:03:52Z</time>
      </trkpt>
      <trkpt lat="45.17073" lon="4.07295">
        <ele>728.61</ele>
        <time>2022-03-21T08:03:56Z</time>
      </trkpt>
      <trkpt lat="45.17094" lon="4.07335">
        <ele>731.58</ele>
        <time>2022-03-21T08:04:00Z</time>
      </trkpt>
      <trkpt lat="45.17099" lon="4.0735">
        <ele>733.56</ele>
        <time>2022-03-21T08:04:04Z</time>
      </trkpt>
      <trkpt lat="45.17101" lon="4.07365">
        <ele>735.21</ele>
        <time>2022-03-21T08:04:07Z</time>
      </trkpt>
      <trkpt lat="45.17099" lon="4.07376">
        <ele>735.82</ele>
        <time>2022-03-21T08:04:11Z</time>
      </trkpt>
      <trkpt lat="45.1709" lon="4.07396">
        <ele>736.5</ele>
        <time>2022-03-21T08:04:15Z</time>
      </trkpt>
      <trkpt lat="45.17061" lon="4.07438">
        <ele>733.78</ele>
        <time>2022-03-21T08:04:19Z</time>
      </trkpt>
      <trkpt lat="45.17047" lon="4.07455">
        <ele>729.08</ele>
        <time>2022-03-21T08:04:23Z</time>
      </trkpt>
      <trkpt lat="45.17037" lon="4.07458">
        <ele>727.71</ele>
        <time>2022-03-21T08:04:27Z</time>
      </trkpt>
      <trkpt lat="45.17005" lon="4.0745">
        <ele>726.69</ele>
        <time>2022-03-21T08:04:31Z</time>
      </trkpt>
      <trkpt lat="45.16912" lon="4.07433">
        <ele>720.64</ele>
        <time>2022-03-21T08:04:35Z</time>
      </trkpt>
      <trkpt lat="45.16892" lon="4.07427">
        <ele>719.63</ele>
        <time>2022-03-21T08:04:39Z</time>
      </trkpt>
      <trkpt lat="45.16879" lon="4.07419">
        <ele>720.06</ele>
        <time>2022-03-21T08:04:43Z</time>
      </trkpt>
      <trkpt lat="45.16859" lon="4.07389">
        <ele>722.4</ele>
        <time>2022-03-21T08:04:47Z</time>
      </trkpt>
      <trkpt lat="45.16818" lon="4.07318">
        <ele>721.02</ele>
        <time>2022-03-21T08:04:51Z</time>
      </trkpt>
      <trkpt lat="45.168" lon="4.07295">
        <ele>721.18</ele>
        <time>2022-03-21T08:04:55Z</time>
      </trkpt>
      <trkpt lat="45.16781" lon="4.07278">
        <ele>720.51</ele>
        <time>2022-03-21T08:04:59Z</time>
      </trkpt>
      <trkpt lat="45.1676" lon="4.07276">
        <ele>718.65</ele>
        <time>2022-03-21T08:05:02Z</time>
      </trkpt>
      <trkpt lat="45.16744" lon="4.07289">
        <ele>715.24</ele>
        <time>2022-03-21T08:05:06Z</time>
      </trkpt>
      <trkpt lat="45.16739" lon="4.07302">
        <ele>713.57</ele>
        <time>2022-03-21T08:05:10Z</time>
      </trkpt>
      <trkpt lat="45.16741" lon="4.07326">
        <ele>713.67</ele>
        <time>2022-03-21T08:05:14Z</time>
      </trkpt>
      <trkpt lat="45.16753" lon="4.07343">
        <ele>714.35</ele>
        <time>2022-03-21T08:05:18Z</time>
      </trkpt>
      <trkpt lat="45.16783" lon="4.07364">
        <ele>713.81</ele>
        <time>2022-03-21T08:05:22Z</time>
      </trkpt>
      <trkpt lat="45.16796" lon="4.07377">
        <ele>712.08</ele>
        <time>2022-03-21T08:05:26Z</time>
      </trkpt>
      <trkpt lat="45.16806" lon="4.07397">
        <ele>708.28</ele>
        <time>2022-03-21T08:05:30Z</time>
      </trkpt>
      <trkpt lat="45.16812" lon="4.0743">
        <ele>705.85</ele>
        <time>2022-03-21T08:05:34Z</time>
      </trkpt>
      <trkpt lat="45.1681" lon="4.07468">
        <ele>704.85</ele>
        <time>2022-03-21T08:05:38Z</time>
      </trkpt>
      <trkpt lat="45.16806" lon="4.07484">
        <ele>705.23</ele>
        <time>2022-03-21T08:05:42Z</time>
      </trkpt>
      <trkpt lat="45.16798" lon="4.07505">
        <ele>709.32</ele>
        <time>2022-03-21T08:05:46Z</time>
      </trkpt>
      <trkpt lat="45.16784" lon="4.07528">
        <ele>717.22</ele>
        <time>2022-03-21T08:05:50Z</time>
      </trkpt>
      <trkpt lat="45.16726" lon="4.07561">
        <ele>716.38</ele>
        <time>2022-03-21T08:05:54Z</time>
      </trkpt>
      <trkpt lat="45.16609" lon="4.07597">
        <ele>722.92</ele>
        <time>2022-03-21T08:05:57Z</time>
      </trkpt>
      <trkpt lat="45.16531" lon="4.07645">
        <ele>723.32</ele>
        <time>2022-03-21T08:06:01Z</time>
      </trkpt>
      <trkpt lat="45.16481" lon="4.07693">
        <ele>728.49</ele>
        <time>2022-03-21T08:06:05Z</time>
      </trkpt>
      <trkpt lat="45.16447" lon="4.07713">
        <ele>731.14</ele>
        <time>2022-03-21T08:06:09Z</time>
      </trkpt>
      <trkpt lat="45.16275" lon="4.07788">
        <ele>732.77</ele>
        <time>2022-03-21T08:06:13Z</time>
      </trkpt>
      <trkpt lat="45.16233" lon="4.0781">
        <ele>731.13</ele>
        <time>2022-03-21T08:06:17Z</time>
      </trkpt>
      <trkpt lat="45.16205" lon="4.07837">
        <ele>730.64</ele>
        <time>2022-03-21T08:06:21Z</time>
      </trkpt>
      <trkpt lat="45.16154" lon="4.07918">
        <ele>734.75</ele>
        <time>2022-03-21T08:06:25Z</time>
      </trkpt>
      <trkpt lat="45.16096" lon="4.07989">
        <ele>739.65</ele>
        <time>2022-03-21T08:06:29Z</time>
      </trkpt>
      <trkpt lat="45.15986" lon="4.08133">
        <ele>744.19</ele>
        <time>2022-03-21T08:06:33Z</time>
      </trkpt>
      <trkpt lat="45.15942" lon="4.08227">
        <ele>749.07</ele>
        <time>2022-03-21T08:06:37Z</time>
      </trkpt>
      <trkpt lat="45.15888" lon="4.08317">
        <ele>751.56</ele>
        <time>2022-03-21T08:06:41Z</time>
      </trkpt>
      <trkpt lat="45.15856" lon="4.0838">
        <ele>753.21</ele>
        <time>2022-03-21T08:06:45Z</time>
      </trkpt>
      <trkpt lat="45.15832" lon="4.08504">
        <ele>761.47</ele>
        <time>2022-03-21T08:06:49Z</time>
      </trkpt>
      <trkpt lat="45.15807" lon="4.08546">
        <ele>760.85</ele>
        <time>2022-03-21T08:06:52Z</time>
      </trkpt>
      <trkpt lat="45.15762" lon="4.08588">
        <ele>753.26</ele>
        <time>2022-03-21T08:06:56Z</time>
      </trkpt>
      <trkpt lat="45.1564" lon="4.08715">
        <ele>770.16</ele>
        <time>2022-03-21T08:07:00Z</time>
      </trkpt>
      <trkpt lat="45.1561" lon="4.08739">
        <ele>773.77</ele>
        <time>2022-03-21T08:07:04Z</time>
      </trkpt>
      <trkpt lat="45.15587" lon="4.08749">
        <ele>774.96</ele>
        <time>2022-03-21T08:07:08Z</time>
      </trkpt>
      <trkpt lat="45.15414" lon="4.08777">
        <ele>774.37</ele>
        <time>2022-03-21T08:07:12Z</time>
      </trkpt>
      <trkpt lat="45.15374" lon="4.08803">
        <ele>777.96</ele>
        <time>2022-03-21T08:07:16Z</time>
      </trkpt>
      <trkpt lat="45.15339" lon="4.08839">
        <ele>778.08</ele>
        <time>2022-03-21T08:07:20Z</time>
      </trkpt>
      <trkpt lat="45.1531" lon="4.08881">
        <ele>778.57</ele>
        <time>2022-03-21T08:07:24Z</time>
      </trkpt>
      <trkpt lat="45.15291" lon="4.08928">
        <ele>776.64</ele>
        <time>2022-03-21T08:07:28Z</time>
      </trkpt>
      <trkpt lat="45.15283" lon="4.09042">
        <ele>776.88</ele>
        <time>2022-03-21T08:07:32Z</time>
      </trkpt>
      <trkpt lat="45.15264" lon="4.09101">
        <ele>784.77</ele>
        <time>2022-03-21T08:07:36Z</time>
      </trkpt>
      <trkpt lat="45.15234" lon="4.09136">
        <ele>788.04</ele>
        <time>2022-03-21T08:07:40Z</time>
      </trkpt>
      <trkpt lat="45.15213" lon="4.09176">
        <ele>789.36</ele>
        <time>2022-03-21T08:07:44Z</time>
      </trkpt>
      <trkpt lat="45.15203" lon="4.09216">
        <ele>789.81</ele>
        <time>2022-03-21T08:07:47Z</time>
      </trkpt>
      <trkpt lat="45.15204" lon="4.09257">
        <ele>788.49</ele>
        <time>2022-03-21T08:07:51Z</time>
      </trkpt>
      <trkpt lat="45.15229" lon="4.09367">
        <ele>782.37</ele>
        <time>2022-03-21T08:07:55Z</time>
      </trkpt>
      <trkpt lat="45.15233" lon="4.09413">
        <ele>787.82</ele>
        <time>2022-03-21T08:07:59Z</time>
      </trkpt>
      <trkpt lat="45.15226" lon="4.09464">
        <ele>800.45</ele>
        <time>2022-03-21T08:08:03Z</time>
      </trkpt>
      <trkpt lat="45.15212" lon="4.09499">
        <ele>806.51</ele>
        <time>2022-03-21T08:08:07Z</time>
      </trkpt>
      <trkpt lat="45.15124" lon="4.09599">
        <ele>813.19</ele>
        <time>2022-03-21T08:08:11Z</time>
      </trkpt>
      <trkpt lat="45.15082" lon="4.09707">
        <ele>820.51</ele>
        <time>2022-03-21T08:08:15Z</time>
      </trkpt>
      <trkpt lat="45.15025" lon="4.0978">
        <ele>815.03</ele>
        <time>2022-03-21T08:08:19Z</time>
      </trkpt>
      <trkpt lat="45.14973" lon="4.099">
        <ele>824.38</ele>
        <time>2022-03-21T08:08:23Z</time>
      </trkpt>
      <trkpt lat="45.14876" lon="4.10059">
        <ele>826.63</ele>
        <time>2022-03-21T08:08:27Z</time>
      </trkpt>
      <trkpt lat="45.14865" lon="4.10093">
        <ele>827.49</ele>
        <time>2022-03-21T08:08:31Z</time>
      </trkpt>
      <trkpt lat="45.14863" lon="4.10156">
        <ele>829.64</ele>
        <time>2022-03-21T08:08:35Z</time>
      </trkpt>
      <trkpt lat="45.14883" lon="4.10414">
        <ele>835.7</ele>
        <time>2022-03-21T08:08:39Z</time>
      </trkpt>
      <trkpt lat="45.14886" lon="4.10451">
        <ele>836.83</ele>
        <time>2022-03-21T08:08:42Z</time>
      </trkpt>
      <trkpt lat="45.14887" lon="4.10495">
        <ele>837.61</ele>
        <time>2022-03-21T08:08:46Z</time>
      </trkpt>
      <trkpt lat="45.1488" lon="4.10547">
        <ele>837.07</ele>
        <time>2022-03-21T08:08:50Z</time>
      </trkpt>
      <trkpt lat="45.14866" lon="4.106">
        <ele>836.13</ele>
        <time>2022-03-21T08:08:54Z</time>
      </trkpt>
      <trkpt lat="45.14842" lon="4.10652">
        <ele>836.25</ele>
        <time>2022-03-21T08:08:58Z</time>
      </trkpt>
      <trkpt lat="45.14819" lon="4.10684">
        <ele>836.89</ele>
        <time>2022-03-21T08:09:02Z</time>
      </trkpt>
      <trkpt lat="45.14797" lon="4.10707">
        <ele>837.03</ele>
        <time>2022-03-21T08:09:06Z</time>
      </trkpt>
      <trkpt lat="45.1469" lon="4.10799">
        <ele>841.49</ele>
        <time>2022-03-21T08:09:10Z</time>
      </trkpt>
      <trkpt lat="45.1469" lon="4.10799">
        <ele>841.49</ele>
        <time>2022-03-21T08:09:10Z</time>
      </trkpt>
      <trkpt lat="45.14637" lon="4.10845">
        <ele>846.43</ele>
        <time>2022-03-21T08:09:16Z</time>
      </trkpt>
      <trkpt lat="45.14595" lon="4.10889">
        <ele>847.99</ele>
        <time>2022-03-21T08:09:22Z</time>
      </trkpt>
      <trkpt lat="45.1457" lon="4.10928">
        <ele>848</ele>
        <time>2022-03-21T08:09:28Z</time>
      </trkpt>
      <trkpt lat="45.14538" lon="4.10986">
        <ele>848.49</ele>
        <time>2022-03-21T08:09:34Z</time>
      </trkpt>
      <trkpt lat="45.14519" lon="4.11011">
        <ele>849.26</ele>
        <time>2022-03-21T08:09:40Z</time>
      </trkpt>
      <trkpt lat="45.14509" lon="4.11013">
        <ele>849.14</ele>
        <time>2022-03-21T08:09:43Z</time>
      </trkpt>
      <trkpt lat="45.145" lon="4.11024">
        <ele>849.01</ele>
        <time>2022-03-21T08:09:46Z</time>
      </trkpt>
      <trkpt lat="45.14498" lon="4.11031">
        <ele>848.73</ele>
        <time>2022-03-21T08:09:49Z</time>
      </trkpt>
      <trkpt lat="45.14498" lon="4.1104">
        <ele>848.4</ele>
        <time>2022-03-21T08:09:52Z</time>
      </trkpt>
      <trkpt lat="45.14499" lon="4.11048">
        <ele>848.21</ele>
        <time>2022-03-21T08:09:54Z</time>
      </trkpt>
      <trkpt lat="45.14496" lon="4.11073">
        <ele>847.07</ele>
        <time>2022-03-21T08:09:57Z</time>
      </trkpt>
      <trkpt lat="45.14487" lon="4.11099">
        <ele>845.16</ele>
        <time>2022-03-21T08:10:00Z</time>
      </trkpt>
      <trkpt lat="45.14449" lon="4.11187">
        <ele>844.4</ele>
        <time>2022-03-21T08:10:03Z</time>
      </trkpt>
      <trkpt lat="45.14436" lon="4.11229">
        <ele>841.97</ele>
        <time>2022-03-21T08:10:06Z</time>
      </trkpt>
      <trkpt lat="45.14431" lon="4.1125">
        <ele>841.01</ele>
        <time>2022-03-21T08:10:09Z</time>
      </trkpt>
      <trkpt lat="45.1442" lon="4.11313">
        <ele>839.67</ele>
        <time>2022-03-21T08:10:11Z</time>
      </trkpt>
      <trkpt lat="45.14417" lon="4.11368">
        <ele>837.77</ele>
        <time>2022-03-21T08:10:14Z</time>
      </trkpt>
      <trkpt lat="45.14412" lon="4.11389">
        <ele>836.85</ele>
        <time>2022-03-21T08:10:17Z</time>
      </trkpt>
      <trkpt lat="45.14408" lon="4.11402">
        <ele>835.71</ele>
        <time>2022-03-21T08:10:20Z</time>
      </trkpt>
      <trkpt lat="45.14404" lon="4.11409">
        <ele>835.13</ele>
        <time>2022-03-21T08:10:27Z</time>
      </trkpt>
      <trkpt lat="45.14403" lon="4.11419">
        <ele>834.36</ele>
        <time>2022-03-21T08:10:33Z</time>
      </trkpt>
      <trkpt lat="45.14406" lon="4.11427">
        <ele>833.88</ele>
        <time>2022-03-21T08:10:40Z</time>
      </trkpt>
      <trkpt lat="45.14411" lon="4.11468">
        <ele>832.13</ele>
        <time>2022-03-21T08:10:47Z</time>
      </trkpt>
      <trkpt lat="45.14397" lon="4.11684">
        <ele>834.15</ele>
        <time>2022-03-21T08:10:54Z</time>
      </trkpt>
      <trkpt lat="45.14389" lon="4.11843">
        <ele>839.31</ele>
        <time>2022-03-21T08:11:01Z</time>
      </trkpt>
      <trkpt lat="45.14383" lon="4.11845">
        <ele>839.54</ele>
        <time>2022-03-21T08:11:06Z</time>
      </trkpt>
      <trkpt lat="45.14382" lon="4.11848">
        <ele>839.66</ele>
        <time>2022-03-21T08:11:11Z</time>
      </trkpt>
      <trkpt lat="45.14381" lon="4.11858">
        <ele>839.92</ele>
        <time>2022-03-21T08:11:17Z</time>
      </trkpt>
      <trkpt lat="45.14386" lon="4.11864">
        <ele>840.1</ele>
        <time>2022-03-21T08:11:22Z</time>
      </trkpt>
      <trkpt lat="45.14368" lon="4.12109">
        <ele>853.27</ele>
        <time>2022-03-21T08:11:28Z</time>
      </trkpt>
      <trkpt lat="45.14354" lon="4.12335">
        <ele>858.78</ele>
        <time>2022-03-21T08:11:33Z</time>
      </trkpt>
      <trkpt lat="45.14348" lon="4.12353">
        <ele>859.76</ele>
        <time>2022-03-21T08:11:39Z</time>
      </trkpt>
      <trkpt lat="45.14346" lon="4.12358">
        <ele>860.04</ele>
        <time>2022-03-21T08:11:45Z</time>
      </trkpt>
      <trkpt lat="45.14335" lon="4.12359">
        <ele>860.88</ele>
        <time>2022-03-21T08:11:51Z</time>
      </trkpt>
      <trkpt lat="45.14296" lon="4.12353">
        <ele>862.53</ele>
        <time>2022-03-21T08:11:57Z</time>
      </trkpt>
      <trkpt lat="45.14255" lon="4.12358">
        <ele>863.09</ele>
        <time>2022-03-21T08:12:03Z</time>
      </trkpt>
      <trkpt lat="45.14225" lon="4.1237">
        <ele>863.9</ele>
        <time>2022-03-21T08:12:10Z</time>
      </trkpt>
      <trkpt lat="45.14214" lon="4.12379">
        <ele>864.39</ele>
        <time>2022-03-21T08:12:16Z</time>
      </trkpt>
      <trkpt lat="45.14204" lon="4.12401">
        <ele>864.51</ele>
        <time>2022-03-21T08:12:22Z</time>
      </trkpt>
      <trkpt lat="45.14179" lon="4.12478">
        <ele>863.92</ele>
        <time>2022-03-21T08:12:28Z</time>
      </trkpt>
      <trkpt lat="45.14173" lon="4.1248">
        <ele>863.93</ele>
        <time>2022-03-21T08:12:35Z</time>
      </trkpt>
      <trkpt lat="45.14172" lon="4.12484">
        <ele>863.92</ele>
        <time>2022-03-21T08:12:42Z</time>
      </trkpt>
      <trkpt lat="45.14075" lon="4.12432">
        <ele>867.6</ele>
        <time>2022-03-21T08:12:50Z</time>
      </trkpt>
      <trkpt lat="45.14071" lon="4.12432">
        <ele>867.65</ele>
        <time>2022-03-21T08:12:57Z</time>
      </trkpt>
      <trkpt lat="45.13956" lon="4.12515">
        <ele>864.37</ele>
        <time>2022-03-21T08:13:04Z</time>
      </trkpt>
      <trkpt lat="45.13877" lon="4.126">
        <ele>858.65</ele>
        <time>2022-03-21T08:13:11Z</time>
      </trkpt>
      <trkpt lat="45.13849" lon="4.12637">
        <ele>858.24</ele>
        <time>2022-03-21T08:13:18Z</time>
      </trkpt>
      <trkpt lat="45.13849" lon="4.12637">
        <ele>858.24</ele>
        <time>2022-03-21T08:13:18Z</time>
      </trkpt>
      <trkpt lat="45.13822" lon="4.12674">
        <ele>857.83</ele>
        <time>2022-03-21T08:13:23Z</time>
      </trkpt>
      <trkpt lat="45.13773" lon="4.12735">
        <ele>859.09</ele>
        <time>2022-03-21T08:13:28Z</time>
      </trkpt>
      <trkpt lat="45.13762" lon="4.12745">
        <ele>859.1</ele>
        <time>2022-03-21T08:13:33Z</time>
      </trkpt>
      <trkpt lat="45.13713" lon="4.1277">
        <ele>858.46</ele>
        <time>2022-03-21T08:13:38Z</time>
      </trkpt>
      <trkpt lat="45.13695" lon="4.12782">
        <ele>857.68</ele>
        <time>2022-03-21T08:13:43Z</time>
      </trkpt>
      <trkpt lat="45.1368" lon="4.12798">
        <ele>857.72</ele>
        <time>2022-03-21T08:13:48Z</time>
      </trkpt>
      <trkpt lat="45.13641" lon="4.12866">
        <ele>857.66</ele>
        <time>2022-03-21T08:13:54Z</time>
      </trkpt>
      <trkpt lat="45.13636" lon="4.12862">
        <ele>858.07</ele>
        <time>2022-03-21T08:13:58Z</time>
      </trkpt>
      <trkpt lat="45.1363" lon="4.12865">
        <ele>858.18</ele>
        <time>2022-03-21T08:14:03Z</time>
      </trkpt>
      <trkpt lat="45.13629" lon="4.12867">
        <ele>858.15</ele>
        <time>2022-03-21T08:14:07Z</time>
      </trkpt>
      <trkpt lat="45.13627" lon="4.12875">
        <ele>857.93</ele>
        <time>2022-03-21T08:14:12Z</time>
      </trkpt>
      <trkpt lat="45.1363" lon="4.12882">
        <ele>857.6</ele>
        <time>2022-03-21T08:14:16Z</time>
      </trkpt>
      <trkpt lat="45.13635" lon="4.12885">
        <ele>857.3</ele>
        <time>2022-03-21T08:14:21Z</time>
      </trkpt>
      <trkpt lat="45.13627" lon="4.12904">
        <ele>856.6</ele>
        <time>2022-03-21T08:14:25Z</time>
      </trkpt>
      <trkpt lat="45.13605" lon="4.12949">
        <ele>854.53</ele>
        <time>2022-03-21T08:14:30Z</time>
      </trkpt>
      <trkpt lat="45.13594" lon="4.12967">
        <ele>854.37</ele>
        <time>2022-03-21T08:14:34Z</time>
      </trkpt>
      <trkpt lat="45.13581" lon="4.12979">
        <ele>854.36</ele>
        <time>2022-03-21T08:14:39Z</time>
      </trkpt>
      <trkpt lat="45.13568" lon="4.12987">
        <ele>854.55</ele>
        <time>2022-03-21T08:14:43Z</time>
      </trkpt>
      <trkpt lat="45.13525" lon="4.13002">
        <ele>857.02</ele>
        <time>2022-03-21T08:14:48Z</time>
      </trkpt>
      <trkpt lat="45.13514" lon="4.13011">
        <ele>856.9</ele>
        <time>2022-03-21T08:14:52Z</time>
      </trkpt>
      <trkpt lat="45.13504" lon="4.13023">
        <ele>856.29</ele>
        <time>2022-03-21T08:14:57Z</time>
      </trkpt>
      <trkpt lat="45.13463" lon="4.13087">
        <ele>853.04</ele>
        <time>2022-03-21T08:15:02Z</time>
      </trkpt>
      <trkpt lat="45.13454" lon="4.13108">
        <ele>851.88</ele>
        <time>2022-03-21T08:15:06Z</time>
      </trkpt>
      <trkpt lat="45.13446" lon="4.1313">
        <ele>851.93</ele>
        <time>2022-03-21T08:15:11Z</time>
      </trkpt>
      <trkpt lat="45.13442" lon="4.13151">
        <ele>852</ele>
        <time>2022-03-21T08:15:15Z</time>
      </trkpt>
      <trkpt lat="45.13424" lon="4.13422">
        <ele>854.54</ele>
        <time>2022-03-21T08:15:20Z</time>
      </trkpt>
      <trkpt lat="45.13414" lon="4.13557">
        <ele>860.91</ele>
        <time>2022-03-21T08:15:24Z</time>
      </trkpt>
      <trkpt lat="45.13403" lon="4.1364">
        <ele>864.59</ele>
        <time>2022-03-21T08:15:29Z</time>
      </trkpt>
      <trkpt lat="45.13387" lon="4.13704">
        <ele>864.91</ele>
        <time>2022-03-21T08:15:33Z</time>
      </trkpt>
      <trkpt lat="45.13367" lon="4.13741">
        <ele>864.89</ele>
        <time>2022-03-21T08:15:38Z</time>
      </trkpt>
      <trkpt lat="45.13355" lon="4.13755">
        <ele>864.76</ele>
        <time>2022-03-21T08:15:42Z</time>
      </trkpt>
      <trkpt lat="45.13327" lon="4.13777">
        <ele>864.49</ele>
        <time>2022-03-21T08:15:47Z</time>
      </trkpt>
      <trkpt lat="45.13132" lon="4.13875">
        <ele>871.48</ele>
        <time>2022-03-21T08:15:51Z</time>
      </trkpt>
      <trkpt lat="45.13064" lon="4.13915">
        <ele>871.74</ele>
        <time>2022-03-21T08:15:56Z</time>
      </trkpt>
      <trkpt lat="45.13041" lon="4.13932">
        <ele>873.25</ele>
        <time>2022-03-21T08:16:00Z</time>
      </trkpt>
      <trkpt lat="45.13018" lon="4.1397">
        <ele>874.13</ele>
        <time>2022-03-21T08:16:05Z</time>
      </trkpt>
      <trkpt lat="45.12947" lon="4.14112">
        <ele>871.78</ele>
        <time>2022-03-21T08:16:10Z</time>
      </trkpt>
      <trkpt lat="45.12903" lon="4.14216">
        <ele>879.64</ele>
        <time>2022-03-21T08:16:14Z</time>
      </trkpt>
      <trkpt lat="45.12897" lon="4.14237">
        <ele>880.99</ele>
        <time>2022-03-21T08:16:19Z</time>
      </trkpt>
      <trkpt lat="45.12892" lon="4.14258">
        <ele>881.78</ele>
        <time>2022-03-21T08:16:23Z</time>
      </trkpt>
      <trkpt lat="45.12901" lon="4.14456">
        <ele>889.4</ele>
        <time>2022-03-21T08:16:28Z</time>
      </trkpt>
      <trkpt lat="45.12898" lon="4.14516">
        <ele>892.67</ele>
        <time>2022-03-21T08:16:32Z</time>
      </trkpt>
      <trkpt lat="45.1288" lon="4.14579">
        <ele>894.27</ele>
        <time>2022-03-21T08:16:37Z</time>
      </trkpt>
      <trkpt lat="45.12866" lon="4.14636">
        <ele>896.62</ele>
        <time>2022-03-21T08:16:41Z</time>
      </trkpt>
      <trkpt lat="45.12846" lon="4.14693">
        <ele>902.28</ele>
        <time>2022-03-21T08:16:46Z</time>
      </trkpt>
      <trkpt lat="45.1283" lon="4.14729">
        <ele>905.89</ele>
        <time>2022-03-21T08:16:50Z</time>
      </trkpt>
      <trkpt lat="45.12736" lon="4.14913">
        <ele>910.46</ele>
        <time>2022-03-21T08:16:55Z</time>
      </trkpt>
      <trkpt lat="45.1272" lon="4.14917">
        <ele>911.2</ele>
        <time>2022-03-21T08:17:02Z</time>
      </trkpt>
      <trkpt lat="45.12689" lon="4.14913">
        <ele>913.28</ele>
        <time>2022-03-21T08:17:09Z</time>
      </trkpt>
      <trkpt lat="45.12388" lon="4.14786">
        <ele>936.36</ele>
        <time>2022-03-21T08:17:16Z</time>
      </trkpt>
      <trkpt lat="45.12375" lon="4.14785">
        <ele>937.3</ele>
        <time>2022-03-21T08:17:23Z</time>
      </trkpt>
      <trkpt lat="45.12349" lon="4.14796">
        <ele>940.64</ele>
        <time>2022-03-21T08:17:30Z</time>
      </trkpt>
      <trkpt lat="45.12328" lon="4.14819">
        <ele>943.16</ele>
        <time>2022-03-21T08:17:37Z</time>
      </trkpt>
      <trkpt lat="45.12275" lon="4.14914">
        <ele>949.29</ele>
        <time>2022-03-21T08:17:44Z</time>
      </trkpt>
      <trkpt lat="45.12253" lon="4.14942">
        <ele>950.65</ele>
        <time>2022-03-21T08:17:51Z</time>
      </trkpt>
      <trkpt lat="45.12041" lon="4.15113">
        <ele>970.59</ele>
        <time>2022-03-21T08:17:58Z</time>
      </trkpt>
      <trkpt lat="45.12008" lon="4.15157">
        <ele>975.84</ele>
        <time>2022-03-21T08:18:05Z</time>
      </trkpt>
      <trkpt lat="45.11965" lon="4.15254">
        <ele>980.76</ele>
        <time>2022-03-21T08:18:12Z</time>
      </trkpt>
      <trkpt lat="45.11891" lon="4.15411">
        <ele>988.95</ele>
        <time>2022-03-21T08:18:19Z</time>
      </trkpt>
      <trkpt lat="45.11867" lon="4.15447">
        <ele>991.53</ele>
        <time>2022-03-21T08:18:26Z</time>
      </trkpt>
      <trkpt lat="45.11839" lon="4.15479">
        <ele>996.69</ele>
        <time>2022-03-21T08:18:33Z</time>
      </trkpt>
      <trkpt lat="45.11812" lon="4.15503">
        <ele>998.84</ele>
        <time>2022-03-21T08:18:40Z</time>
      </trkpt>
      <trkpt lat="45.11773" lon="4.15526">
        <ele>1000.96</ele>
        <time>2022-03-21T08:18:48Z</time>
      </trkpt>
      <trkpt lat="45.11731" lon="4.15545">
        <ele>1003.24</ele>
        <time>2022-03-21T08:18:55Z</time>
      </trkpt>
      <trkpt lat="45.11069" lon="4.15831">
        <ele>1021.5</ele>
        <time>2022-03-21T08:19:02Z</time>
      </trkpt>
      <trkpt lat="45.11013" lon="4.15844">
        <ele>1017.86</ele>
        <time>2022-03-21T08:19:09Z</time>
      </trkpt>
      <trkpt lat="45.11012" lon="4.15842">
        <ele>1019.98</ele>
        <time>2022-03-21T08:19:09Z</time>
      </trkpt>
      <trkpt lat="45.11012" lon="4.15842">
        <ele>1019.98</ele>
        <time>2022-03-21T08:19:09Z</time>
      </trkpt>
      <trkpt lat="45.11013" lon="4.15844">
        <ele>1017.86</ele>
        <time>2022-03-21T08:19:09Z</time>
      </trkpt>
      <trkpt lat="45.10975" lon="4.15842">
        <ele>1015.9</ele>
        <time>2022-03-21T08:19:12Z</time>
      </trkpt>
      <trkpt lat="45.10936" lon="4.15825">
        <ele>1014.4</ele>
        <time>2022-03-21T08:19:16Z</time>
      </trkpt>
      <trkpt lat="45.10793" lon="4.15688">
        <ele>1005.96</ele>
        <time>2022-03-21T08:19:19Z</time>
      </trkpt>
      <trkpt lat="45.10777" lon="4.15678">
        <ele>1005.17</ele>
        <time>2022-03-21T08:19:22Z</time>
      </trkpt>
      <trkpt lat="45.10761" lon="4.15674">
        <ele>1005.3</ele>
        <time>2022-03-21T08:19:26Z</time>
      </trkpt>
      <trkpt lat="45.10745" lon="4.15675">
        <ele>1005.54</ele>
        <time>2022-03-21T08:19:29Z</time>
      </trkpt>
      <trkpt lat="45.10692" lon="4.15684">
        <ele>1010.05</ele>
        <time>2022-03-21T08:19:33Z</time>
      </trkpt>
      <trkpt lat="45.10669" lon="4.15684">
        <ele>1010.57</ele>
        <time>2022-03-21T08:19:36Z</time>
      </trkpt>
      <trkpt lat="45.10645" lon="4.15679">
        <ele>1010.1</ele>
        <time>2022-03-21T08:19:39Z</time>
      </trkpt>
      <trkpt lat="45.10442" lon="4.1561">
        <ele>1007.94</ele>
        <time>2022-03-21T08:19:43Z</time>
      </trkpt>
      <trkpt lat="45.10415" lon="4.15606">
        <ele>1007.18</ele>
        <time>2022-03-21T08:19:46Z</time>
      </trkpt>
      <trkpt lat="45.10392" lon="4.15606">
        <ele>1007.2</ele>
        <time>2022-03-21T08:19:50Z</time>
      </trkpt>
      <trkpt lat="45.10374" lon="4.1561">
        <ele>1007.03</ele>
        <time>2022-03-21T08:19:53Z</time>
      </trkpt>
      <trkpt lat="45.10356" lon="4.15621">
        <ele>1007</ele>
        <time>2022-03-21T08:19:56Z</time>
      </trkpt>
      <trkpt lat="45.103" lon="4.15667">
        <ele>1005.59</ele>
        <time>2022-03-21T08:20:00Z</time>
      </trkpt>
      <trkpt lat="45.10282" lon="4.15677">
        <ele>1003.95</ele>
        <time>2022-03-21T08:20:03Z</time>
      </trkpt>
      <trkpt lat="45.10265" lon="4.15682">
        <ele>1002.72</ele>
        <time>2022-03-21T08:20:06Z</time>
      </trkpt>
      <trkpt lat="45.10249" lon="4.15684">
        <ele>1001.77</ele>
        <time>2022-03-21T08:20:10Z</time>
      </trkpt>
      <trkpt lat="45.10229" lon="4.15683">
        <ele>1002.29</ele>
        <time>2022-03-21T08:20:13Z</time>
      </trkpt>
      <trkpt lat="45.10078" lon="4.15647">
        <ele>999.08</ele>
        <time>2022-03-21T08:20:17Z</time>
      </trkpt>
      <trkpt lat="45.10056" lon="4.15638">
        <ele>999.08</ele>
        <time>2022-03-21T08:20:20Z</time>
      </trkpt>
      <trkpt lat="45.09843" lon="4.15529">
        <ele>991.51</ele>
        <time>2022-03-21T08:20:23Z</time>
      </trkpt>
      <trkpt lat="45.09825" lon="4.15512">
        <ele>990.83</ele>
        <time>2022-03-21T08:20:27Z</time>
      </trkpt>
      <trkpt lat="45.09788" lon="4.15468">
        <ele>986.64</ele>
        <time>2022-03-21T08:20:30Z</time>
      </trkpt>
      <trkpt lat="45.09771" lon="4.15457">
        <ele>984.94</ele>
        <time>2022-03-21T08:20:33Z</time>
      </trkpt>
      <trkpt lat="45.09756" lon="4.15451">
        <ele>983.98</ele>
        <time>2022-03-21T08:20:37Z</time>
      </trkpt>
      <trkpt lat="45.09734" lon="4.15451">
        <ele>984.09</ele>
        <time>2022-03-21T08:20:40Z</time>
      </trkpt>
      <trkpt lat="45.0968" lon="4.15459">
        <ele>984.95</ele>
        <time>2022-03-21T08:20:44Z</time>
      </trkpt>
      <trkpt lat="45.09665" lon="4.15463">
        <ele>985.21</ele>
        <time>2022-03-21T08:20:47Z</time>
      </trkpt>
      <trkpt lat="45.09642" lon="4.15475">
        <ele>987.42</ele>
        <time>2022-03-21T08:20:50Z</time>
      </trkpt>
      <trkpt lat="45.09614" lon="4.15498">
        <ele>992.43</ele>
        <time>2022-03-21T08:20:54Z</time>
      </trkpt>
      <trkpt lat="45.09587" lon="4.15527">
        <ele>996.49</ele>
        <time>2022-03-21T08:20:57Z</time>
      </trkpt>
      <trkpt lat="45.09368" lon="4.15773">
        <ele>1017.84</ele>
        <time>2022-03-21T08:21:00Z</time>
      </trkpt>
      <trkpt lat="45.09349" lon="4.15788">
        <ele>1021.68</ele>
        <time>2022-03-21T08:21:04Z</time>
      </trkpt>
      <trkpt lat="45.09334" lon="4.15796">
        <ele>1025.15</ele>
        <time>2022-03-21T08:21:07Z</time>
      </trkpt>
      <trkpt lat="45.09316" lon="4.15801">
        <ele>1027.7</ele>
        <time>2022-03-21T08:21:11Z</time>
      </trkpt>
      <trkpt lat="45.09293" lon="4.15799">
        <ele>1029.34</ele>
        <time>2022-03-21T08:21:14Z</time>
      </trkpt>
      <trkpt lat="45.09276" lon="4.15791">
        <ele>1030.16</ele>
        <time>2022-03-21T08:21:17Z</time>
      </trkpt>
      <trkpt lat="45.09262" lon="4.15779">
        <ele>1031.14</ele>
        <time>2022-03-21T08:21:21Z</time>
      </trkpt>
      <trkpt lat="45.09248" lon="4.15762">
        <ele>1032.79</ele>
        <time>2022-03-21T08:21:24Z</time>
      </trkpt>
      <trkpt lat="45.09237" lon="4.15742">
        <ele>1035.06</ele>
        <time>2022-03-21T08:21:27Z</time>
      </trkpt>
      <trkpt lat="45.09228" lon="4.1572">
        <ele>1037</ele>
        <time>2022-03-21T08:21:31Z</time>
      </trkpt>
      <trkpt lat="45.09223" lon="4.15694">
        <ele>1037.82</ele>
        <time>2022-03-21T08:21:34Z</time>
      </trkpt>
      <trkpt lat="45.09208" lon="4.15539">
        <ele>1042.33</ele>
        <time>2022-03-21T08:21:38Z</time>
      </trkpt>
      <trkpt lat="45.09203" lon="4.15513">
        <ele>1043.96</ele>
        <time>2022-03-21T08:21:41Z</time>
      </trkpt>
      <trkpt lat="45.09194" lon="4.15489">
        <ele>1045.01</ele>
        <time>2022-03-21T08:21:44Z</time>
      </trkpt>
      <trkpt lat="45.09181" lon="4.15464">
        <ele>1045.48</ele>
        <time>2022-03-21T08:21:48Z</time>
      </trkpt>
      <trkpt lat="45.09163" lon="4.15438">
        <ele>1046.1</ele>
        <time>2022-03-21T08:21:51Z</time>
      </trkpt>
      <trkpt lat="45.09145" lon="4.15419">
        <ele>1046.07</ele>
        <time>2022-03-21T08:21:55Z</time>
      </trkpt>
      <trkpt lat="45.09121" lon="4.15405">
        <ele>1046.63</ele>
        <time>2022-03-21T08:21:58Z</time>
      </trkpt>
      <trkpt lat="45.08762" lon="4.15224">
        <ele>1049.82</ele>
        <time>2022-03-21T08:22:01Z</time>
      </trkpt>
      <trkpt lat="45.08762" lon="4.15224">
        <ele>1049.82</ele>
        <time>2022-03-21T08:22:01Z</time>
      </trkpt>
      <trkpt lat="45.0866" lon="4.15173">
        <ele>1051.25</ele>
        <time>2022-03-21T08:22:06Z</time>
      </trkpt>
      <trkpt lat="45.08621" lon="4.15157">
        <ele>1052.66</ele>
        <time>2022-03-21T08:22:11Z</time>
      </trkpt>
      <trkpt lat="45.08582" lon="4.15146">
        <ele>1053.11</ele>
        <time>2022-03-21T08:22:16Z</time>
      </trkpt>
      <trkpt lat="45.08559" lon="4.15142">
        <ele>1054.67</ele>
        <time>2022-03-21T08:22:21Z</time>
      </trkpt>
      <trkpt lat="45.08535" lon="4.15144">
        <ele>1056.99</ele>
        <time>2022-03-21T08:22:26Z</time>
      </trkpt>
      <trkpt lat="45.0827" lon="4.15244">
        <ele>1073.51</ele>
        <time>2022-03-21T08:22:31Z</time>
      </trkpt>
      <trkpt lat="45.08246" lon="4.15249">
        <ele>1074.39</ele>
        <time>2022-03-21T08:22:36Z</time>
      </trkpt>
      <trkpt lat="45.08184" lon="4.15251">
        <ele>1080.02</ele>
        <time>2022-03-21T08:22:41Z</time>
      </trkpt>
      <trkpt lat="45.08165" lon="4.15254">
        <ele>1080.15</ele>
        <time>2022-03-21T08:22:46Z</time>
      </trkpt>
      <trkpt lat="45.08144" lon="4.15263">
        <ele>1080.46</ele>
        <time>2022-03-21T08:22:51Z</time>
      </trkpt>
      <trkpt lat="45.08044" lon="4.15318">
        <ele>1080.67</ele>
        <time>2022-03-21T08:22:56Z</time>
      </trkpt>
      <trkpt lat="45.07934" lon="4.15368">
        <ele>1086.66</ele>
        <time>2022-03-21T08:23:01Z</time>
      </trkpt>
      <trkpt lat="45.07817" lon="4.15424">
        <ele>1090.59</ele>
        <time>2022-03-21T08:23:06Z</time>
      </trkpt>
      <trkpt lat="45.07817" lon="4.15424">
        <ele>1090.59</ele>
        <time>2022-03-21T08:23:06Z</time>
      </trkpt>
      <trkpt lat="45.07804" lon="4.15431">
        <ele>1094.52</ele>
        <time>2022-03-21T08:23:13Z</time>
      </trkpt>
      <trkpt lat="45.07774" lon="4.15439">
        <ele>1094.79</ele>
        <time>2022-03-21T08:23:19Z</time>
      </trkpt>
      <trkpt lat="45.07624" lon="4.15458">
        <ele>1095.5</ele>
        <time>2022-03-21T08:23:26Z</time>
      </trkpt>
      <trkpt lat="45.07584" lon="4.1546">
        <ele>1094.46</ele>
        <time>2022-03-21T08:23:32Z</time>
      </trkpt>
      <trkpt lat="45.07389" lon="4.15457">
        <ele>1093.99</ele>
        <time>2022-03-21T08:23:39Z</time>
      </trkpt>
      <trkpt lat="45.07334" lon="4.1546">
        <ele>1092.9</ele>
        <time>2022-03-21T08:23:45Z</time>
      </trkpt>
      <trkpt lat="45.07188" lon="4.15476">
        <ele>1096.76</ele>
        <time>2022-03-21T08:23:52Z</time>
      </trkpt>
      <trkpt lat="45.07148" lon="4.15488">
        <ele>1096.75</ele>
        <time>2022-03-21T08:23:59Z</time>
      </trkpt>
      <trkpt lat="45.07071" lon="4.15518">
        <ele>1089.93</ele>
        <time>2022-03-21T08:24:05Z</time>
      </trkpt>
      <trkpt lat="45.07057" lon="4.1552">
        <ele>1088.89</ele>
        <time>2022-03-21T08:24:12Z</time>
      </trkpt>
      <trkpt lat="45.07025" lon="4.15514">
        <ele>1086.75</ele>
        <time>2022-03-21T08:24:18Z</time>
      </trkpt>
      <trkpt lat="45.06927" lon="4.15463">
        <ele>1086.31</ele>
        <time>2022-03-21T08:24:25Z</time>
      </trkpt>
      <trkpt lat="45.06907" lon="4.15457">
        <ele>1086.06</ele>
        <time>2022-03-21T08:24:31Z</time>
      </trkpt>
      <trkpt lat="45.06893" lon="4.15456">
        <ele>1085.82</ele>
        <time>2022-03-21T08:24:38Z</time>
      </trkpt>
      <trkpt lat="45.06874" lon="4.15459">
        <ele>1087</ele>
        <time>2022-03-21T08:24:44Z</time>
      </trkpt>
      <trkpt lat="45.0685" lon="4.15468">
        <ele>1087.48</ele>
        <time>2022-03-21T08:24:51Z</time>
      </trkpt>
      <trkpt lat="45.06837" lon="4.15475">
        <ele>1087.45</ele>
        <time>2022-03-21T08:24:58Z</time>
      </trkpt>
      <trkpt lat="45.06823" lon="4.15486">
        <ele>1087.05</ele>
        <time>2022-03-21T08:25:04Z</time>
      </trkpt>
      <trkpt lat="45.06748" lon="4.15572">
        <ele>1085.29</ele>
        <time>2022-03-21T08:25:11Z</time>
      </trkpt>
      <trkpt lat="45.06634" lon="4.15716">
        <ele>1082.11</ele>
        <time>2022-03-21T08:25:17Z</time>
      </trkpt>
      <trkpt lat="45.06624" lon="4.1573">
        <ele>1080.92</ele>
        <time>2022-03-21T08:25:24Z</time>
      </trkpt>
      <trkpt lat="45.06597" lon="4.15756">
        <ele>1078.54</ele>
        <time>2022-03-21T08:25:30Z</time>
      </trkpt>
      <trkpt lat="45.06556" lon="4.15784">
        <ele>1077.54</ele>
        <time>2022-03-21T08:25:37Z</time>
      </trkpt>
      <trkpt lat="45.06525" lon="4.15727">
        <ele>1082.66</ele>
        <time>2022-03-21T08:25:41Z</time>
      </trkpt>
      <trkpt lat="45.06512" lon="4.1571">
        <ele>1084.17</ele>
        <time>2022-03-21T08:25:45Z</time>
      </trkpt>
      <trkpt lat="45.06481" lon="4.15643">
        <ele>1092.22</ele>
        <time>2022-03-21T08:25:50Z</time>
      </trkpt>
      <trkpt lat="45.06442" lon="4.15539">
        <ele>1101.27</ele>
        <time>2022-03-21T08:25:54Z</time>
      </trkpt>
      <trkpt lat="45.06424" lon="4.15464">
        <ele>1106.35</ele>
        <time>2022-03-21T08:25:58Z</time>
      </trkpt>
      <trkpt lat="45.06418" lon="4.15457">
        <ele>1107.06</ele>
        <time>2022-03-21T08:26:03Z</time>
      </trkpt>
      <trkpt lat="45.06392" lon="4.15451">
        <ele>1107.73</ele>
        <time>2022-03-21T08:26:07Z</time>
      </trkpt>
      <trkpt lat="45.0638" lon="4.15444">
        <ele>1108.33</ele>
        <time>2022-03-21T08:26:11Z</time>
      </trkpt>
      <trkpt lat="45.0637" lon="4.15433">
        <ele>1108.97</ele>
        <time>2022-03-21T08:26:16Z</time>
      </trkpt>
      <trkpt lat="45.06304" lon="4.1532">
        <ele>1119.99</ele>
        <time>2022-03-21T08:26:20Z</time>
      </trkpt>
      <trkpt lat="45.06291" lon="4.15283">
        <ele>1123.41</ele>
        <time>2022-03-21T08:26:24Z</time>
      </trkpt>
      <trkpt lat="45.06276" lon="4.15259">
        <ele>1126.11</ele>
        <time>2022-03-21T08:26:28Z</time>
      </trkpt>
      <trkpt lat="45.06262" lon="4.15229">
        <ele>1130.35</ele>
        <time>2022-03-21T08:26:33Z</time>
      </trkpt>
      <trkpt lat="45.06239" lon="4.15154">
        <ele>1143.34</ele>
        <time>2022-03-21T08:26:37Z</time>
      </trkpt>
      <trkpt lat="45.06233" lon="4.15125">
        <ele>1145.09</ele>
        <time>2022-03-21T08:26:41Z</time>
      </trkpt>
      <trkpt lat="45.06232" lon="4.15112">
        <ele>1146.3</ele>
        <time>2022-03-21T08:26:46Z</time>
      </trkpt>
      <trkpt lat="45.06224" lon="4.15116">
        <ele>1145.59</ele>
        <time>2022-03-21T08:26:49Z</time>
      </trkpt>
      <trkpt lat="45.06215" lon="4.15123">
        <ele>1145.41</ele>
        <time>2022-03-21T08:26:53Z</time>
      </trkpt>
      <trkpt lat="45.06195" lon="4.15143">
        <ele>1144.69</ele>
        <time>2022-03-21T08:26:57Z</time>
      </trkpt>
      <trkpt lat="45.06182" lon="4.15145">
        <ele>1144.99</ele>
        <time>2022-03-21T08:27:00Z</time>
      </trkpt>
      <trkpt lat="45.06161" lon="4.15144">
        <ele>1145.18</ele>
        <time>2022-03-21T08:27:04Z</time>
      </trkpt>
      <trkpt lat="45.0615" lon="4.1514">
        <ele>1144.69</ele>
        <time>2022-03-21T08:27:08Z</time>
      </trkpt>
      <trkpt lat="45.06138" lon="4.15133">
        <ele>1144.6</ele>
        <time>2022-03-21T08:27:12Z</time>
      </trkpt>
      <trkpt lat="45.06128" lon="4.1513">
        <ele>1143.83</ele>
        <time>2022-03-21T08:27:15Z</time>
      </trkpt>
      <trkpt lat="45.06106" lon="4.15135">
        <ele>1141.12</ele>
        <time>2022-03-21T08:27:19Z</time>
      </trkpt>
      <trkpt lat="45.06063" lon="4.15153">
        <ele>1136.96</ele>
        <time>2022-03-21T08:27:23Z</time>
      </trkpt>
      <trkpt lat="45.06013" lon="4.15195">
        <ele>1136.09</ele>
        <time>2022-03-21T08:27:27Z</time>
      </trkpt>
      <trkpt lat="45.06001" lon="4.15211">
        <ele>1135.58</ele>
        <time>2022-03-21T08:27:30Z</time>
      </trkpt>
      <trkpt lat="45.05984" lon="4.15238">
        <ele>1133.39</ele>
        <time>2022-03-21T08:27:34Z</time>
      </trkpt>
      <trkpt lat="45.05959" lon="4.15287">
        <ele>1128.97</ele>
        <time>2022-03-21T08:27:38Z</time>
      </trkpt>
      <trkpt lat="45.0595" lon="4.15309">
        <ele>1126.54</ele>
        <time>2022-03-21T08:27:41Z</time>
      </trkpt>
      <trkpt lat="45.05917" lon="4.15365">
        <ele>1121.86</ele>
        <time>2022-03-21T08:27:45Z</time>
      </trkpt>
      <trkpt lat="45.05904" lon="4.15408">
        <ele>1121.62</ele>
        <time>2022-03-21T08:27:49Z</time>
      </trkpt>
      <trkpt lat="45.05782" lon="4.15582">
        <ele>1129.96</ele>
        <time>2022-03-21T08:27:53Z</time>
      </trkpt>
      <trkpt lat="45.05773" lon="4.156">
        <ele>1129.93</ele>
        <time>2022-03-21T08:27:56Z</time>
      </trkpt>
      <trkpt lat="45.05773" lon="4.15626">
        <ele>1128.55</ele>
        <time>2022-03-21T08:28:00Z</time>
      </trkpt>
      <trkpt lat="45.05771" lon="4.1564">
        <ele>1127.93</ele>
        <time>2022-03-21T08:28:04Z</time>
      </trkpt>
      <trkpt lat="45.05759" lon="4.15669">
        <ele>1126.56</ele>
        <time>2022-03-21T08:28:07Z</time>
      </trkpt>
      <trkpt lat="45.05724" lon="4.15729">
        <ele>1125.31</ele>
        <time>2022-03-21T08:28:11Z</time>
      </trkpt>
      <trkpt lat="45.05694" lon="4.15784">
        <ele>1122.33</ele>
        <time>2022-03-21T08:28:14Z</time>
      </trkpt>
      <trkpt lat="45.05665" lon="4.1585">
        <ele>1116.86</ele>
        <time>2022-03-21T08:28:18Z</time>
      </trkpt>
      <trkpt lat="45.05659" lon="4.15859">
        <ele>1116.44</ele>
        <time>2022-03-21T08:28:22Z</time>
      </trkpt>
      <trkpt lat="45.05628" lon="4.15831">
        <ele>1120.82</ele>
        <time>2022-03-21T08:28:26Z</time>
      </trkpt>
      <trkpt lat="45.0561" lon="4.1582">
        <ele>1124.14</ele>
        <time>2022-03-21T08:28:30Z</time>
      </trkpt>
      <trkpt lat="45.05583" lon="4.15808">
        <ele>1127.9</ele>
        <time>2022-03-21T08:28:34Z</time>
      </trkpt>
      <trkpt lat="45.05551" lon="4.15802">
        <ele>1131.02</ele>
        <time>2022-03-21T08:28:38Z</time>
      </trkpt>
      <trkpt lat="45.05522" lon="4.15804">
        <ele>1134.12</ele>
        <time>2022-03-21T08:28:42Z</time>
      </trkpt>
      <trkpt lat="45.05299" lon="4.15858">
        <ele>1148.59</ele>
        <time>2022-03-21T08:28:46Z</time>
      </trkpt>
      <trkpt lat="45.05279" lon="4.15866">
        <ele>1148.42</ele>
        <time>2022-03-21T08:28:50Z</time>
      </trkpt>
      <trkpt lat="45.05261" lon="4.15877">
        <ele>1150.34</ele>
        <time>2022-03-21T08:28:54Z</time>
      </trkpt>
      <trkpt lat="45.0524" lon="4.15893">
        <ele>1151.76</ele>
        <time>2022-03-21T08:28:58Z</time>
      </trkpt>
      <trkpt lat="45.05075" lon="4.16063">
        <ele>1161.14</ele>
        <time>2022-03-21T08:29:02Z</time>
      </trkpt>
      <trkpt lat="45.05061" lon="4.16083">
        <ele>1162.47</ele>
        <time>2022-03-21T08:29:06Z</time>
      </trkpt>
      <trkpt lat="45.05014" lon="4.1618">
        <ele>1160.34</ele>
        <time>2022-03-21T08:29:10Z</time>
      </trkpt>
      <trkpt lat="45.05001" lon="4.16197">
        <ele>1159.85</ele>
        <time>2022-03-21T08:29:14Z</time>
      </trkpt>
      <trkpt lat="45.04989" lon="4.16207">
        <ele>1160.38</ele>
        <time>2022-03-21T08:29:18Z</time>
      </trkpt>
      <trkpt lat="45.04972" lon="4.16216">
        <ele>1160.67</ele>
        <time>2022-03-21T08:29:22Z</time>
      </trkpt>
      <trkpt lat="45.04951" lon="4.16224">
        <ele>1162.24</ele>
        <time>2022-03-21T08:29:26Z</time>
      </trkpt>
      <trkpt lat="45.04891" lon="4.16239">
        <ele>1165.26</ele>
        <time>2022-03-21T08:29:30Z</time>
      </trkpt>
      <trkpt lat="45.04843" lon="4.16258">
        <ele>1169.45</ele>
        <time>2022-03-21T08:29:34Z</time>
      </trkpt>
      <trkpt lat="45.04797" lon="4.16278">
        <ele>1169.3</ele>
        <time>2022-03-21T08:29:38Z</time>
      </trkpt>
      <trkpt lat="45.04775" lon="4.16295">
        <ele>1170.06</ele>
        <time>2022-03-21T08:29:42Z</time>
      </trkpt>
      <trkpt lat="45.04761" lon="4.16309">
        <ele>1170.59</ele>
        <time>2022-03-21T08:29:46Z</time>
      </trkpt>
      <trkpt lat="45.04705" lon="4.16397">
        <ele>1171</ele>
        <time>2022-03-21T08:29:50Z</time>
      </trkpt>
      <trkpt lat="45.04688" lon="4.16418">
        <ele>1171</ele>
        <time>2022-03-21T08:29:54Z</time>
      </trkpt>
      <trkpt lat="45.04647" lon="4.16457">
        <ele>1173.92</ele>
        <time>2022-03-21T08:29:58Z</time>
      </trkpt>
      <trkpt lat="45.04609" lon="4.16499">
        <ele>1176.11</ele>
        <time>2022-03-21T08:30:02Z</time>
      </trkpt>
      <trkpt lat="45.04579" lon="4.16526">
        <ele>1176.53</ele>
        <time>2022-03-21T08:30:06Z</time>
      </trkpt>
      <trkpt lat="45.04524" lon="4.16576">
        <ele>1180.97</ele>
        <time>2022-03-21T08:30:10Z</time>
      </trkpt>
      <trkpt lat="45.04502" lon="4.16599">
        <ele>1182.2</ele>
        <time>2022-03-21T08:30:14Z</time>
      </trkpt>
      <trkpt lat="45.04465" lon="4.16653">
        <ele>1187.85</ele>
        <time>2022-03-21T08:30:18Z</time>
      </trkpt>
      <trkpt lat="45.04358" lon="4.16832">
        <ele>1192.58</ele>
        <time>2022-03-21T08:30:22Z</time>
      </trkpt>
      <trkpt lat="45.04336" lon="4.16862">
        <ele>1194.61</ele>
        <time>2022-03-21T08:30:27Z</time>
      </trkpt>
      <trkpt lat="45.04309" lon="4.16892">
        <ele>1194.89</ele>
        <time>2022-03-21T08:30:31Z</time>
      </trkpt>
      <trkpt lat="45.04259" lon="4.16931">
        <ele>1195.52</ele>
        <time>2022-03-21T08:30:35Z</time>
      </trkpt>
      <trkpt lat="45.04046" lon="4.17068">
        <ele>1194.17</ele>
        <time>2022-03-21T08:30:39Z</time>
      </trkpt>
      <trkpt lat="45.04046" lon="4.17068">
        <ele>1194.17</ele>
        <time>2022-03-21T08:30:39Z</time>
      </trkpt>
      <trkpt lat="45.03971" lon="4.1712">
        <ele>1192.75</ele>
        <time>2022-03-21T08:30:42Z</time>
      </trkpt>
      <trkpt lat="45.03941" lon="4.17146">
        <ele>1192.88</ele>
        <time>2022-03-21T08:30:45Z</time>
      </trkpt>
      <trkpt lat="45.03872" lon="4.17212">
        <ele>1195.37</ele>
        <time>2022-03-21T08:30:48Z</time>
      </trkpt>
      <trkpt lat="45.03842" lon="4.17253">
        <ele>1197.08</ele>
        <time>2022-03-21T08:30:52Z</time>
      </trkpt>
      <trkpt lat="45.03823" lon="4.1727">
        <ele>1197.71</ele>
        <time>2022-03-21T08:30:55Z</time>
      </trkpt>
      <trkpt lat="45.03806" lon="4.17275">
        <ele>1197.91</ele>
        <time>2022-03-21T08:30:58Z</time>
      </trkpt>
      <trkpt lat="45.03778" lon="4.17299">
        <ele>1199.52</ele>
        <time>2022-03-21T08:31:02Z</time>
      </trkpt>
      <trkpt lat="45.03752" lon="4.17328">
        <ele>1199.88</ele>
        <time>2022-03-21T08:31:05Z</time>
      </trkpt>
      <trkpt lat="45.03717" lon="4.17355">
        <ele>1198.88</ele>
        <time>2022-03-21T08:31:08Z</time>
      </trkpt>
      <trkpt lat="45.03698" lon="4.17359">
        <ele>1199.67</ele>
        <time>2022-03-21T08:31:12Z</time>
      </trkpt>
      <trkpt lat="45.03674" lon="4.17356">
        <ele>1200.16</ele>
        <time>2022-03-21T08:31:15Z</time>
      </trkpt>
      <trkpt lat="45.0365" lon="4.17349">
        <ele>1199.47</ele>
        <time>2022-03-21T08:31:18Z</time>
      </trkpt>
      <trkpt lat="45.03631" lon="4.17348">
        <ele>1199.17</ele>
        <time>2022-03-21T08:31:21Z</time>
      </trkpt>
      <trkpt lat="45.03602" lon="4.17352">
        <ele>1199.62</ele>
        <time>2022-03-21T08:31:25Z</time>
      </trkpt>
      <trkpt lat="45.03572" lon="4.17361">
        <ele>1199.76</ele>
        <time>2022-03-21T08:31:28Z</time>
      </trkpt>
      <trkpt lat="45.03479" lon="4.17405">
        <ele>1198.78</ele>
        <time>2022-03-21T08:31:31Z</time>
      </trkpt>
      <trkpt lat="45.03408" lon="4.17441">
        <ele>1195.3</ele>
        <time>2022-03-21T08:31:35Z</time>
      </trkpt>
      <trkpt lat="45.0333" lon="4.17511">
        <ele>1188.78</ele>
        <time>2022-03-21T08:31:38Z</time>
      </trkpt>
      <trkpt lat="45.0329" lon="4.1755">
        <ele>1186.68</ele>
        <time>2022-03-21T08:31:41Z</time>
      </trkpt>
      <trkpt lat="45.03259" lon="4.17592">
        <ele>1183.96</ele>
        <time>2022-03-21T08:31:44Z</time>
      </trkpt>
      <trkpt lat="45.03201" lon="4.17703">
        <ele>1176.67</ele>
        <time>2022-03-21T08:31:48Z</time>
      </trkpt>
      <trkpt lat="45.03187" lon="4.17734">
        <ele>1174.65</ele>
        <time>2022-03-21T08:31:51Z</time>
      </trkpt>
      <trkpt lat="45.03182" lon="4.17765">
        <ele>1173.17</ele>
        <time>2022-03-21T08:31:54Z</time>
      </trkpt>
      <trkpt lat="45.03191" lon="4.17944">
        <ele>1162.79</ele>
        <time>2022-03-21T08:31:58Z</time>
      </trkpt>
      <trkpt lat="45.03191" lon="4.17975">
        <ele>1161.94</ele>
        <time>2022-03-21T08:32:01Z</time>
      </trkpt>
      <trkpt lat="45.03187" lon="4.17996">
        <ele>1162.31</ele>
        <time>2022-03-21T08:32:04Z</time>
      </trkpt>
      <trkpt lat="45.03141" lon="4.18141">
        <ele>1159.18</ele>
        <time>2022-03-21T08:32:07Z</time>
      </trkpt>
      <trkpt lat="45.03125" lon="4.18186">
        <ele>1158.84</ele>
        <time>2022-03-21T08:32:11Z</time>
      </trkpt>
      <trkpt lat="45.03079" lon="4.18261">
        <ele>1158.55</ele>
        <time>2022-03-21T08:32:14Z</time>
      </trkpt>
      <trkpt lat="45.03064" lon="4.18281">
        <ele>1157.28</ele>
        <time>2022-03-21T08:32:17Z</time>
      </trkpt>
      <trkpt lat="45.02986" lon="4.18364">
        <ele>1156.06</ele>
        <time>2022-03-21T08:32:21Z</time>
      </trkpt>
      <trkpt lat="45.02959" lon="4.18384">
        <ele>1155.73</ele>
        <time>2022-03-21T08:32:24Z</time>
      </trkpt>
      <trkpt lat="45.02938" lon="4.18392">
        <ele>1156.02</ele>
        <time>2022-03-21T08:32:27Z</time>
      </trkpt>
      <trkpt lat="45.02916" lon="4.18396">
        <ele>1155.5</ele>
        <time>2022-03-21T08:32:30Z</time>
      </trkpt>
      <trkpt lat="45.02891" lon="4.18391">
        <ele>1155.99</ele>
        <time>2022-03-21T08:32:34Z</time>
      </trkpt>
      <trkpt lat="45.02818" lon="4.18358">
        <ele>1157.32</ele>
        <time>2022-03-21T08:32:37Z</time>
      </trkpt>
      <trkpt lat="45.02795" lon="4.1835">
        <ele>1156.33</ele>
        <time>2022-03-21T08:32:40Z</time>
      </trkpt>
      <trkpt lat="45.02717" lon="4.18341">
        <ele>1155.79</ele>
        <time>2022-03-21T08:32:44Z</time>
      </trkpt>
      <trkpt lat="45.02698" lon="4.18344">
        <ele>1155.77</ele>
        <time>2022-03-21T08:32:47Z</time>
      </trkpt>
      <trkpt lat="45.02592" lon="4.18368">
        <ele>1150.98</ele>
        <time>2022-03-21T08:32:50Z</time>
      </trkpt>
      <trkpt lat="45.02571" lon="4.18376">
        <ele>1149.84</ele>
        <time>2022-03-21T08:32:54Z</time>
      </trkpt>
      <trkpt lat="45.02552" lon="4.18385">
        <ele>1149.11</ele>
        <time>2022-03-21T08:32:57Z</time>
      </trkpt>
      <trkpt lat="45.02488" lon="4.18428">
        <ele>1149.78</ele>
        <time>2022-03-21T08:33:00Z</time>
      </trkpt>
      <trkpt lat="45.0239" lon="4.18479">
        <ele>1145.06</ele>
        <time>2022-03-21T08:33:03Z</time>
      </trkpt>
      <trkpt lat="45.02377" lon="4.18484">
        <ele>1144.17</ele>
        <time>2022-03-21T08:33:07Z</time>
      </trkpt>
      <trkpt lat="45.02367" lon="4.18484">
        <ele>1143.42</ele>
        <time>2022-03-21T08:33:10Z</time>
      </trkpt>
      <trkpt lat="45.02358" lon="4.18479">
        <ele>1142.97</ele>
        <time>2022-03-21T08:33:13Z</time>
      </trkpt>
      <trkpt lat="45.02349" lon="4.18469">
        <ele>1143.06</ele>
        <time>2022-03-21T08:33:17Z</time>
      </trkpt>
      <trkpt lat="45.02332" lon="4.18438">
        <ele>1143.27</ele>
        <time>2022-03-21T08:33:20Z</time>
      </trkpt>
      <trkpt lat="45.02322" lon="4.18428">
        <ele>1143.77</ele>
        <time>2022-03-21T08:33:23Z</time>
      </trkpt>
      <trkpt lat="45.02305" lon="4.18422">
        <ele>1144.07</ele>
        <time>2022-03-21T08:33:26Z</time>
      </trkpt>
      <trkpt lat="45.02267" lon="4.18416">
        <ele>1147.27</ele>
        <time>2022-03-21T08:33:30Z</time>
      </trkpt>
      <trkpt lat="45.02238" lon="4.18416">
        <ele>1149.48</ele>
        <time>2022-03-21T08:33:33Z</time>
      </trkpt>
      <trkpt lat="45.02211" lon="4.18422">
        <ele>1150.2</ele>
        <time>2022-03-21T08:33:36Z</time>
      </trkpt>
      <trkpt lat="45.02151" lon="4.18443">
        <ele>1153.89</ele>
        <time>2022-03-21T08:33:40Z</time>
      </trkpt>
      <trkpt lat="45.02045" lon="4.18462">
        <ele>1152.66</ele>
        <time>2022-03-21T08:33:43Z</time>
      </trkpt>
      <trkpt lat="45.01797" lon="4.1856">
        <ele>1155.37</ele>
        <time>2022-03-21T08:33:46Z</time>
      </trkpt>
      <trkpt lat="45.01779" lon="4.18573">
        <ele>1155.69</ele>
        <time>2022-03-21T08:33:49Z</time>
      </trkpt>
      <trkpt lat="45.01767" lon="4.18594">
        <ele>1155.4</ele>
        <time>2022-03-21T08:33:53Z</time>
      </trkpt>
      <trkpt lat="45.01752" lon="4.18633">
        <ele>1155.86</ele>
        <time>2022-03-21T08:33:56Z</time>
      </trkpt>
      <trkpt lat="45.01669" lon="4.18859">
        <ele>1171.6</ele>
        <time>2022-03-21T08:33:59Z</time>
      </trkpt>
      <trkpt lat="45.01662" lon="4.18889">
        <ele>1173.19</ele>
        <time>2022-03-21T08:34:03Z</time>
      </trkpt>
      <trkpt lat="45.01645" lon="4.19043">
        <ele>1176.48</ele>
        <time>2022-03-21T08:34:06Z</time>
      </trkpt>
      <trkpt lat="45.0164" lon="4.19063">
        <ele>1177.4</ele>
        <time>2022-03-21T08:34:09Z</time>
      </trkpt>
      <trkpt lat="45.01632" lon="4.19083">
        <ele>1179.25</ele>
        <time>2022-03-21T08:34:12Z</time>
      </trkpt>
      <trkpt lat="45.0154" lon="4.19202">
        <ele>1185.63</ele>
        <time>2022-03-21T08:34:16Z</time>
      </trkpt>
      <trkpt lat="45.01525" lon="4.19224">
        <ele>1187.2</ele>
        <time>2022-03-21T08:34:19Z</time>
      </trkpt>
      <trkpt lat="45.01518" lon="4.1923">
        <ele>1187.63</ele>
        <time>2022-03-21T08:34:22Z</time>
      </trkpt>
      <trkpt lat="45.0151" lon="4.19234">
        <ele>1188.24</ele>
        <time>2022-03-21T08:34:26Z</time>
      </trkpt>
      <trkpt lat="45.01492" lon="4.19235">
        <ele>1188.93</ele>
        <time>2022-03-21T08:34:29Z</time>
      </trkpt>
      <trkpt lat="45.01449" lon="4.19228">
        <ele>1186.17</ele>
        <time>2022-03-21T08:34:32Z</time>
      </trkpt>
      <trkpt lat="45.01344" lon="4.19204">
        <ele>1190.7</ele>
        <time>2022-03-21T08:34:36Z</time>
      </trkpt>
      <trkpt lat="45.01297" lon="4.19196">
        <ele>1190.5</ele>
        <time>2022-03-21T08:34:39Z</time>
      </trkpt>
      <trkpt lat="45.01257" lon="4.19197">
        <ele>1188.96</ele>
        <time>2022-03-21T08:34:42Z</time>
      </trkpt>
      <trkpt lat="45.01177" lon="4.19222">
        <ele>1188.04</ele>
        <time>2022-03-21T08:34:45Z</time>
      </trkpt>
      <trkpt lat="45.01155" lon="4.19236">
        <ele>1188.57</ele>
        <time>2022-03-21T08:34:49Z</time>
      </trkpt>
      <trkpt lat="45.01021" lon="4.19351">
        <ele>1190.45</ele>
        <time>2022-03-21T08:34:52Z</time>
      </trkpt>
      <trkpt lat="45.01" lon="4.19367">
        <ele>1189.8</ele>
        <time>2022-03-21T08:34:55Z</time>
      </trkpt>
      <trkpt lat="45.00989" lon="4.19373">
        <ele>1189.56</ele>
        <time>2022-03-21T08:34:59Z</time>
      </trkpt>
      <trkpt lat="45.00973" lon="4.19378">
        <ele>1189.39</ele>
        <time>2022-03-21T08:35:02Z</time>
      </trkpt>
      <trkpt lat="45.00955" lon="4.19378">
        <ele>1189.38</ele>
        <time>2022-03-21T08:35:05Z</time>
      </trkpt>
      <trkpt lat="45.00938" lon="4.19375">
        <ele>1189.5</ele>
        <time>2022-03-21T08:35:08Z</time>
      </trkpt>
      <trkpt lat="45.00817" lon="4.19322">
        <ele>1191.18</ele>
        <time>2022-03-21T08:35:12Z</time>
      </trkpt>
      <trkpt lat="45.00799" lon="4.19313">
        <ele>1191.75</ele>
        <time>2022-03-21T08:35:15Z</time>
      </trkpt>
      <trkpt lat="45.00653" lon="4.19184">
        <ele>1193.03</ele>
        <time>2022-03-21T08:35:18Z</time>
      </trkpt>
      <trkpt lat="45.0063" lon="4.19166">
        <ele>1191.68</ele>
        <time>2022-03-21T08:35:22Z</time>
      </trkpt>
      <trkpt lat="45.00613" lon="4.19159">
        <ele>1191.07</ele>
        <time>2022-03-21T08:35:25Z</time>
      </trkpt>
      <trkpt lat="45.00576" lon="4.19148">
        <ele>1192.42</ele>
        <time>2022-03-21T08:35:28Z</time>
      </trkpt>
      <trkpt lat="45.00554" lon="4.19145">
        <ele>1193.84</ele>
        <time>2022-03-21T08:35:31Z</time>
      </trkpt>
      <trkpt lat="45.00484" lon="4.19149">
        <ele>1196.56</ele>
        <time>2022-03-21T08:35:35Z</time>
      </trkpt>
      <trkpt lat="45.00216" lon="4.19174">
        <ele>1213.01</ele>
        <time>2022-03-21T08:35:38Z</time>
      </trkpt>
      <trkpt lat="45.00194" lon="4.19179">
        <ele>1214.08</ele>
        <time>2022-03-21T08:35:41Z</time>
      </trkpt>
      <trkpt lat="45.0018" lon="4.19184">
        <ele>1215.56</ele>
        <time>2022-03-21T08:35:45Z</time>
      </trkpt>
      <trkpt lat="45.00164" lon="4.19194">
        <ele>1217.18</ele>
        <time>2022-03-21T08:35:48Z</time>
      </trkpt>
      <trkpt lat="45.00089" lon="4.19258">
        <ele>1220.32</ele>
        <time>2022-03-21T08:35:51Z</time>
      </trkpt>
      <trkpt lat="45.0001" lon="4.19302">
        <ele>1221.37</ele>
        <time>2022-03-21T08:35:54Z</time>
      </trkpt>
      <trkpt lat="44.99871" lon="4.19397">
        <ele>1228.97</ele>
        <time>2022-03-21T08:35:58Z</time>
      </trkpt>
      <trkpt lat="44.99838" lon="4.19423">
        <ele>1232.73</ele>
        <time>2022-03-21T08:36:01Z</time>
      </trkpt>
      <trkpt lat="44.99821" lon="4.19443">
        <ele>1233.49</ele>
        <time>2022-03-21T08:36:04Z</time>
      </trkpt>
      <trkpt lat="44.99804" lon="4.19472">
        <ele>1231.09</ele>
        <time>2022-03-21T08:36:08Z</time>
      </trkpt>
      <trkpt lat="44.99792" lon="4.19498">
        <ele>1229.17</ele>
        <time>2022-03-21T08:36:11Z</time>
      </trkpt>
      <trkpt lat="44.99785" lon="4.19507">
        <ele>1228.55</ele>
        <time>2022-03-21T08:36:14Z</time>
      </trkpt>
      <trkpt lat="44.99778" lon="4.19509">
        <ele>1228.36</ele>
        <time>2022-03-21T08:36:17Z</time>
      </trkpt>
      <trkpt lat="44.99771" lon="4.19508">
        <ele>1229.35</ele>
        <time>2022-03-21T08:36:21Z</time>
      </trkpt>
      <trkpt lat="44.99762" lon="4.19503">
        <ele>1231.04</ele>
        <time>2022-03-21T08:36:24Z</time>
      </trkpt>
      <trkpt lat="44.99673" lon="4.19691">
        <ele>1230.51</ele>
        <time>2022-03-21T08:36:30Z</time>
      </trkpt>
      <trkpt lat="44.99459" lon="4.20128">
        <ele>1226.44</ele>
        <time>2022-03-21T08:36:35Z</time>
      </trkpt>
      <trkpt lat="44.99391" lon="4.2028">
        <ele>1220.93</ele>
        <time>2022-03-21T08:36:41Z</time>
      </trkpt>
      <trkpt lat="44.99374" lon="4.20323">
        <ele>1219.91</ele>
        <time>2022-03-21T08:36:46Z</time>
      </trkpt>
      <trkpt lat="44.99055" lon="4.21043">
        <ele>1192.98</ele>
        <time>2022-03-21T08:36:52Z</time>
      </trkpt>
      <trkpt lat="44.99043" lon="4.21064">
        <ele>1191.98</ele>
        <time>2022-03-21T08:36:57Z</time>
      </trkpt>
      <trkpt lat="44.99031" lon="4.21081">
        <ele>1189.6</ele>
        <time>2022-03-21T08:37:03Z</time>
      </trkpt>
      <trkpt lat="44.99004" lon="4.21108">
        <ele>1187.36</ele>
        <time>2022-03-21T08:37:08Z</time>
      </trkpt>
      <trkpt lat="44.98969" lon="4.21126">
        <ele>1186.89</ele>
        <time>2022-03-21T08:37:14Z</time>
      </trkpt>
      <trkpt lat="44.98951" lon="4.2113">
        <ele>1186.09</ele>
        <time>2022-03-21T08:37:19Z</time>
      </trkpt>
      <trkpt lat="44.98926" lon="4.21132">
        <ele>1184.45</ele>
        <time>2022-03-21T08:37:25Z</time>
      </trkpt>
      <trkpt lat="44.98642" lon="4.21104">
        <ele>1167.31</ele>
        <time>2022-03-21T08:37:30Z</time>
      </trkpt>
      <trkpt lat="44.98603" lon="4.21103">
        <ele>1166.01</ele>
        <time>2022-03-21T08:37:36Z</time>
      </trkpt>
      <trkpt lat="44.98586" lon="4.21105">
        <ele>1166.32</ele>
        <time>2022-03-21T08:37:41Z</time>
      </trkpt>
      <trkpt lat="44.98563" lon="4.2111">
        <ele>1165.99</ele>
        <time>2022-03-21T08:37:47Z</time>
      </trkpt>
      <trkpt lat="44.98487" lon="4.21131">
        <ele>1165.62</ele>
        <time>2022-03-21T08:37:52Z</time>
      </trkpt>
      <trkpt lat="44.98377" lon="4.21163">
        <ele>1162.79</ele>
        <time>2022-03-21T08:37:58Z</time>
      </trkpt>
      <trkpt lat="44.98235" lon="4.21199">
        <ele>1155.02</ele>
        <time>2022-03-21T08:38:03Z</time>
      </trkpt>
      <trkpt lat="44.98186" lon="4.21213">
        <ele>1153.78</ele>
        <time>2022-03-21T08:38:09Z</time>
      </trkpt>
      <trkpt lat="44.98164" lon="4.21222">
        <ele>1152.9</ele>
        <time>2022-03-21T08:38:15Z</time>
      </trkpt>
      <trkpt lat="44.98141" lon="4.21238">
        <ele>1150.31</ele>
        <time>2022-03-21T08:38:20Z</time>
      </trkpt>
      <trkpt lat="44.98058" lon="4.21308">
        <ele>1146.71</ele>
        <time>2022-03-21T08:38:26Z</time>
      </trkpt>
      <trkpt lat="44.98031" lon="4.21336">
        <ele>1145.61</ele>
        <time>2022-03-21T08:38:31Z</time>
      </trkpt>
      <trkpt lat="44.98011" lon="4.21361">
        <ele>1143.66</ele>
        <time>2022-03-21T08:38:37Z</time>
      </trkpt>
      <trkpt lat="44.97969" lon="4.2142">
        <ele>1138.23</ele>
        <time>2022-03-21T08:38:42Z</time>
      </trkpt>
      <trkpt lat="44.97933" lon="4.21467">
        <ele>1137.74</ele>
        <time>2022-03-21T08:38:48Z</time>
      </trkpt>
      <trkpt lat="44.97901" lon="4.21498">
        <ele>1135.64</ele>
        <time>2022-03-21T08:38:53Z</time>
      </trkpt>
      <trkpt lat="44.9783" lon="4.21576">
        <ele>1126.94</ele>
        <time>2022-03-21T08:38:59Z</time>
      </trkpt>
      <trkpt lat="44.97815" lon="4.21598">
        <ele>1125.58</ele>
        <time>2022-03-21T08:39:04Z</time>
      </trkpt>
      <trkpt lat="44.97798" lon="4.21634">
        <ele>1124.52</ele>
        <time>2022-03-21T08:39:10Z</time>
      </trkpt>
      <trkpt lat="44.97789" lon="4.21659">
        <ele>1123.88</ele>
        <time>2022-03-21T08:39:15Z</time>
      </trkpt>
      <trkpt lat="44.97782" lon="4.21691">
        <ele>1122.98</ele>
        <time>2022-03-21T08:39:21Z</time>
      </trkpt>
      <trkpt lat="44.97779" lon="4.21727">
        <ele>1120.67</ele>
        <time>2022-03-21T08:39:26Z</time>
      </trkpt>
      <trkpt lat="44.97778" lon="4.21748">
        <ele>1119.11</ele>
        <time>2022-03-21T08:39:29Z</time>
      </trkpt>
      <trkpt lat="44.9778" lon="4.21918">
        <ele>1125.73</ele>
        <time>2022-03-21T08:39:33Z</time>
      </trkpt>
      <trkpt lat="44.97782" lon="4.21939">
        <ele>1126.29</ele>
        <time>2022-03-21T08:39:36Z</time>
      </trkpt>
      <trkpt lat="44.97789" lon="4.2196">
        <ele>1126.6</ele>
        <time>2022-03-21T08:39:39Z</time>
      </trkpt>
      <trkpt lat="44.97799" lon="4.21975">
        <ele>1126.7</ele>
        <time>2022-03-21T08:39:42Z</time>
      </trkpt>
      <trkpt lat="44.97818" lon="4.21988">
        <ele>1127.21</ele>
        <time>2022-03-21T08:39:45Z</time>
      </trkpt>
      <trkpt lat="44.97917" lon="4.2203">
        <ele>1135.13</ele>
        <time>2022-03-21T08:39:48Z</time>
      </trkpt>
      <trkpt lat="44.97934" lon="4.2203">
        <ele>1135.77</ele>
        <time>2022-03-21T08:39:52Z</time>
      </trkpt>
      <trkpt lat="44.98002" lon="4.22015">
        <ele>1139.67</ele>
        <time>2022-03-21T08:39:55Z</time>
      </trkpt>
      <trkpt lat="44.98022" lon="4.22016">
        <ele>1138.78</ele>
        <time>2022-03-21T08:39:58Z</time>
      </trkpt>
      <trkpt lat="44.98042" lon="4.22025">
        <ele>1138.17</ele>
        <time>2022-03-21T08:40:01Z</time>
      </trkpt>
      <trkpt lat="44.98199" lon="4.2216">
        <ele>1154.61</ele>
        <time>2022-03-21T08:40:04Z</time>
      </trkpt>
      <trkpt lat="44.98217" lon="4.22179">
        <ele>1155.6</ele>
        <time>2022-03-21T08:40:07Z</time>
      </trkpt>
      <trkpt lat="44.98241" lon="4.22219">
        <ele>1159.6</ele>
        <time>2022-03-21T08:40:10Z</time>
      </trkpt>
      <trkpt lat="44.98324" lon="4.22386">
        <ele>1173.66</ele>
        <time>2022-03-21T08:40:14Z</time>
      </trkpt>
      <trkpt lat="44.98339" lon="4.22409">
        <ele>1172.53</ele>
        <time>2022-03-21T08:40:17Z</time>
      </trkpt>
      <trkpt lat="44.98359" lon="4.2243">
        <ele>1172.41</ele>
        <time>2022-03-21T08:40:20Z</time>
      </trkpt>
      <trkpt lat="44.98431" lon="4.22487">
        <ele>1173.26</ele>
        <time>2022-03-21T08:40:23Z</time>
      </trkpt>
      <trkpt lat="44.98504" lon="4.22543">
        <ele>1174.71</ele>
        <time>2022-03-21T08:40:26Z</time>
      </trkpt>
      <trkpt lat="44.98515" lon="4.22546">
        <ele>1176.27</ele>
        <time>2022-03-21T08:40:29Z</time>
      </trkpt>
      <trkpt lat="44.98524" lon="4.22543">
        <ele>1176.79</ele>
        <time>2022-03-21T08:40:32Z</time>
      </trkpt>
      <trkpt lat="44.98553" lon="4.22518">
        <ele>1176.77</ele>
        <time>2022-03-21T08:40:36Z</time>
      </trkpt>
      <trkpt lat="44.98565" lon="4.22511">
        <ele>1177.23</ele>
        <time>2022-03-21T08:40:39Z</time>
      </trkpt>
      <trkpt lat="44.98576" lon="4.2251">
        <ele>1178.47</ele>
        <time>2022-03-21T08:40:42Z</time>
      </trkpt>
      <trkpt lat="44.98588" lon="4.22512">
        <ele>1179.6</ele>
        <time>2022-03-21T08:40:45Z</time>
      </trkpt>
      <trkpt lat="44.986" lon="4.22516">
        <ele>1179.98</ele>
        <time>2022-03-21T08:40:48Z</time>
      </trkpt>
      <trkpt lat="44.9862" lon="4.22531">
        <ele>1180.2</ele>
        <time>2022-03-21T08:40:51Z</time>
      </trkpt>
      <trkpt lat="44.98625" lon="4.22539">
        <ele>1180.08</ele>
        <time>2022-03-21T08:40:54Z</time>
      </trkpt>
      <trkpt lat="44.98628" lon="4.22547">
        <ele>1180.28</ele>
        <time>2022-03-21T08:40:58Z</time>
      </trkpt>
      <trkpt lat="44.98628" lon="4.22558">
        <ele>1180.83</ele>
        <time>2022-03-21T08:41:01Z</time>
      </trkpt>
      <trkpt lat="44.98616" lon="4.22605">
        <ele>1181.82</ele>
        <time>2022-03-21T08:41:04Z</time>
      </trkpt>
      <trkpt lat="44.98578" lon="4.22604">
        <ele>1182.4</ele>
        <time>2022-03-21T08:41:09Z</time>
      </trkpt>
      <trkpt lat="44.98538" lon="4.22615">
        <ele>1183.63</ele>
        <time>2022-03-21T08:41:14Z</time>
      </trkpt>
      <trkpt lat="44.98467" lon="4.22643">
        <ele>1186.77</ele>
        <time>2022-03-21T08:41:19Z</time>
      </trkpt>
      <trkpt lat="44.98426" lon="4.22652">
        <ele>1190.18</ele>
        <time>2022-03-21T08:41:24Z</time>
      </trkpt>
      <trkpt lat="44.98387" lon="4.22644">
        <ele>1189.5</ele>
        <time>2022-03-21T08:41:30Z</time>
      </trkpt>
      <trkpt lat="44.98344" lon="4.22624">
        <ele>1187.58</ele>
        <time>2022-03-21T08:41:35Z</time>
      </trkpt>
      <trkpt lat="44.98289" lon="4.22592">
        <ele>1186.07</ele>
        <time>2022-03-21T08:41:40Z</time>
      </trkpt>
      <trkpt lat="44.98196" lon="4.22562">
        <ele>1183.11</ele>
        <time>2022-03-21T08:41:45Z</time>
      </trkpt>
      <trkpt lat="44.98124" lon="4.22539">
        <ele>1182.35</ele>
        <time>2022-03-21T08:41:50Z</time>
      </trkpt>
      <trkpt lat="44.98072" lon="4.22529">
        <ele>1183.3</ele>
        <time>2022-03-21T08:41:55Z</time>
      </trkpt>
      <trkpt lat="44.97929" lon="4.22518">
        <ele>1182.53</ele>
        <time>2022-03-21T08:42:00Z</time>
      </trkpt>
      <trkpt lat="44.97904" lon="4.2252">
        <ele>1182.73</ele>
        <time>2022-03-21T08:42:06Z</time>
      </trkpt>
      <trkpt lat="44.97882" lon="4.22525">
        <ele>1183.36</ele>
        <time>2022-03-21T08:42:11Z</time>
      </trkpt>
      <trkpt lat="44.97855" lon="4.22534">
        <ele>1183.95</ele>
        <time>2022-03-21T08:42:16Z</time>
      </trkpt>
      <trkpt lat="44.97792" lon="4.22559">
        <ele>1184.87</ele>
        <time>2022-03-21T08:42:21Z</time>
      </trkpt>
      <trkpt lat="44.97754" lon="4.22578">
        <ele>1186.06</ele>
        <time>2022-03-21T08:42:26Z</time>
      </trkpt>
      <trkpt lat="44.97622" lon="4.22648">
        <ele>1188.86</ele>
        <time>2022-03-21T08:42:31Z</time>
      </trkpt>
      <trkpt lat="44.97524" lon="4.2269">
        <ele>1191.16</ele>
        <time>2022-03-21T08:42:36Z</time>
      </trkpt>
      <trkpt lat="44.97285" lon="4.2276">
        <ele>1191.16</ele>
        <time>2022-03-21T08:42:41Z</time>
      </trkpt>
      <trkpt lat="44.97227" lon="4.22784">
        <ele>1189.35</ele>
        <time>2022-03-21T08:42:47Z</time>
      </trkpt>
      <trkpt lat="44.97181" lon="4.22808">
        <ele>1187.92</ele>
        <time>2022-03-21T08:42:52Z</time>
      </trkpt>
      <trkpt lat="44.97142" lon="4.2283">
        <ele>1185.13</ele>
        <time>2022-03-21T08:42:57Z</time>
      </trkpt>
      <trkpt lat="44.97082" lon="4.22857">
        <ele>1180.9</ele>
        <time>2022-03-21T08:43:02Z</time>
      </trkpt>
      <trkpt lat="44.97032" lon="4.22876">
        <ele>1179.87</ele>
        <time>2022-03-21T08:43:07Z</time>
      </trkpt>
      <trkpt lat="44.96997" lon="4.22882">
        <ele>1180.24</ele>
        <time>2022-03-21T08:43:12Z</time>
      </trkpt>
      <trkpt lat="44.96874" lon="4.22887">
        <ele>1182.5</ele>
        <time>2022-03-21T08:43:17Z</time>
      </trkpt>
      <trkpt lat="44.96838" lon="4.22896">
        <ele>1182.16</ele>
        <time>2022-03-21T08:43:23Z</time>
      </trkpt>
      <trkpt lat="44.96718" lon="4.22973">
        <ele>1183</ele>
        <time>2022-03-21T08:43:28Z</time>
      </trkpt>
      <trkpt lat="44.96648" lon="4.23022">
        <ele>1186.6</ele>
        <time>2022-03-21T08:43:33Z</time>
      </trkpt>
      <trkpt lat="44.96608" lon="4.2305">
        <ele>1188.1</ele>
        <time>2022-03-21T08:43:38Z</time>
      </trkpt>
      <trkpt lat="44.9656" lon="4.2308">
        <ele>1190.82</ele>
        <time>2022-03-21T08:43:43Z</time>
      </trkpt>
      <trkpt lat="44.9653" lon="4.23097">
        <ele>1194.78</ele>
        <time>2022-03-21T08:43:48Z</time>
      </trkpt>
      <trkpt lat="44.96462" lon="4.23128">
        <ele>1198.78</ele>
        <time>2022-03-21T08:43:53Z</time>
      </trkpt>
      <trkpt lat="44.96392" lon="4.23169">
        <ele>1206.01</ele>
        <time>2022-03-21T08:43:58Z</time>
      </trkpt>
      <trkpt lat="44.96371" lon="4.23171">
        <ele>1208.13</ele>
        <time>2022-03-21T08:44:04Z</time>
      </trkpt>
      <trkpt lat="44.96249" lon="4.23137">
        <ele>1218.84</ele>
        <time>2022-03-21T08:44:09Z</time>
      </trkpt>
      <trkpt lat="44.96214" lon="4.23128">
        <ele>1220.46</ele>
        <time>2022-03-21T08:44:14Z</time>
      </trkpt>
      <trkpt lat="44.96189" lon="4.23126">
        <ele>1221.73</ele>
        <time>2022-03-21T08:44:19Z</time>
      </trkpt>
      <trkpt lat="44.95995" lon="4.23156">
        <ele>1233.25</ele>
        <time>2022-03-21T08:44:24Z</time>
      </trkpt>
      <trkpt lat="44.95968" lon="4.23163">
        <ele>1234.44</ele>
        <time>2022-03-21T08:44:29Z</time>
      </trkpt>
      <trkpt lat="44.95957" lon="4.23169">
        <ele>1235.14</ele>
        <time>2022-03-21T08:44:34Z</time>
      </trkpt>
      <trkpt lat="44.95911" lon="4.23218">
        <ele>1237.86</ele>
        <time>2022-03-21T08:44:40Z</time>
      </trkpt>
      <trkpt lat="44.95726" lon="4.23411">
        <ele>1230.26</ele>
        <time>2022-03-21T08:44:45Z</time>
      </trkpt>
      <trkpt lat="44.95663" lon="4.23464">
        <ele>1223.29</ele>
        <time>2022-03-21T08:44:50Z</time>
      </trkpt>
      <trkpt lat="44.95626" lon="4.23501">
        <ele>1219.73</ele>
        <time>2022-03-21T08:44:55Z</time>
      </trkpt>
      <trkpt lat="44.95614" lon="4.23517">
        <ele>1218.26</ele>
        <time>2022-03-21T08:45:00Z</time>
      </trkpt>
      <trkpt lat="44.95574" lon="4.2359">
        <ele>1216.41</ele>
        <time>2022-03-21T08:45:05Z</time>
      </trkpt>
      <trkpt lat="44.95555" lon="4.2362">
        <ele>1216.18</ele>
        <time>2022-03-21T08:45:10Z</time>
      </trkpt>
      <trkpt lat="44.95532" lon="4.23646">
        <ele>1215.49</ele>
        <time>2022-03-21T08:45:15Z</time>
      </trkpt>
      <trkpt lat="44.9552" lon="4.23654">
        <ele>1213.08</ele>
        <time>2022-03-21T08:45:21Z</time>
      </trkpt>
      <trkpt lat="44.95507" lon="4.23658">
        <ele>1210.88</ele>
        <time>2022-03-21T08:45:26Z</time>
      </trkpt>
      <trkpt lat="44.95507" lon="4.23658">
        <ele>1210.88</ele>
        <time>2022-03-21T08:45:26Z</time>
      </trkpt>
      <trkpt lat="44.95497" lon="4.23657">
        <ele>1210.58</ele>
        <time>2022-03-21T08:45:27Z</time>
      </trkpt>
      <trkpt lat="44.95476" lon="4.23649">
        <ele>1211.17</ele>
        <time>2022-03-21T08:45:29Z</time>
      </trkpt>
      <trkpt lat="44.95457" lon="4.23637">
        <ele>1210.6</ele>
        <time>2022-03-21T08:45:31Z</time>
      </trkpt>
      <trkpt lat="44.9543" lon="4.23618">
        <ele>1209.83</ele>
        <time>2022-03-21T08:45:32Z</time>
      </trkpt>
      <trkpt lat="44.95375" lon="4.23571">
        <ele>1207.6</ele>
        <time>2022-03-21T08:45:34Z</time>
      </trkpt>
      <trkpt lat="44.953" lon="4.23515">
        <ele>1203.82</ele>
        <time>2022-03-21T08:45:35Z</time>
      </trkpt>
      <trkpt lat="44.9528" lon="4.23497">
        <ele>1204.43</ele>
        <time>2022-03-21T08:45:37Z</time>
      </trkpt>
      <trkpt lat="44.95163" lon="4.23385">
        <ele>1199.86</ele>
        <time>2022-03-21T08:45:39Z</time>
      </trkpt>
      <trkpt lat="44.95152" lon="4.23377">
        <ele>1199.26</ele>
        <time>2022-03-21T08:45:40Z</time>
      </trkpt>
      <trkpt lat="44.95142" lon="4.23372">
        <ele>1198.27</ele>
        <time>2022-03-21T08:45:42Z</time>
      </trkpt>
      <trkpt lat="44.95099" lon="4.2336">
        <ele>1194.46</ele>
        <time>2022-03-21T08:45:43Z</time>
      </trkpt>
      <trkpt lat="44.95088" lon="4.23359">
        <ele>1193.93</ele>
        <time>2022-03-21T08:45:45Z</time>
      </trkpt>
      <trkpt lat="44.95079" lon="4.2336">
        <ele>1193.79</ele>
        <time>2022-03-21T08:45:47Z</time>
      </trkpt>
      <trkpt lat="44.95073" lon="4.23364">
        <ele>1194.05</ele>
        <time>2022-03-21T08:45:48Z</time>
      </trkpt>
      <trkpt lat="44.9507" lon="4.23361">
        <ele>1194.92</ele>
        <time>2022-03-21T08:45:50Z</time>
      </trkpt>
      <trkpt lat="44.95065" lon="4.23361">
        <ele>1195.64</ele>
        <time>2022-03-21T08:45:51Z</time>
      </trkpt>
      <trkpt lat="44.95015" lon="4.23407">
        <ele>1193.1</ele>
        <time>2022-03-21T08:45:52Z</time>
      </trkpt>
      <trkpt lat="44.95" lon="4.23415">
        <ele>1192.32</ele>
        <time>2022-03-21T08:45:53Z</time>
      </trkpt>
      <trkpt lat="44.94987" lon="4.23418">
        <ele>1191.77</ele>
        <time>2022-03-21T08:45:55Z</time>
      </trkpt>
      <trkpt lat="44.94969" lon="4.23416">
        <ele>1192.31</ele>
        <time>2022-03-21T08:45:56Z</time>
      </trkpt>
      <trkpt lat="44.94897" lon="4.23385">
        <ele>1199.51</ele>
        <time>2022-03-21T08:45:57Z</time>
      </trkpt>
      <trkpt lat="44.94879" lon="4.23374">
        <ele>1200.77</ele>
        <time>2022-03-21T08:45:58Z</time>
      </trkpt>
      <trkpt lat="44.9485" lon="4.23343">
        <ele>1205.63</ele>
        <time>2022-03-21T08:46:00Z</time>
      </trkpt>
      <trkpt lat="44.94838" lon="4.23335">
        <ele>1206.28</ele>
        <time>2022-03-21T08:46:01Z</time>
      </trkpt>
      <trkpt lat="44.94777" lon="4.23308">
        <ele>1206.55</ele>
        <time>2022-03-21T08:46:02Z</time>
      </trkpt>
      <trkpt lat="44.94749" lon="4.2329">
        <ele>1210.43</ele>
        <time>2022-03-21T08:46:04Z</time>
      </trkpt>
      <trkpt lat="44.94687" lon="4.23239">
        <ele>1216.24</ele>
        <time>2022-03-21T08:46:05Z</time>
      </trkpt>
      <trkpt lat="44.94656" lon="4.23206">
        <ele>1219.45</ele>
        <time>2022-03-21T08:46:06Z</time>
      </trkpt>
      <trkpt lat="44.94631" lon="4.23168">
        <ele>1224.45</ele>
        <time>2022-03-21T08:46:07Z</time>
      </trkpt>
      <trkpt lat="44.94603" lon="4.2314">
        <ele>1225.9</ele>
        <time>2022-03-21T08:46:09Z</time>
      </trkpt>
      <trkpt lat="44.94589" lon="4.23123">
        <ele>1227.21</ele>
        <time>2022-03-21T08:46:10Z</time>
      </trkpt>
      <trkpt lat="44.94579" lon="4.23104">
        <ele>1229.29</ele>
        <time>2022-03-21T08:46:11Z</time>
      </trkpt>
      <trkpt lat="44.94564" lon="4.23058">
        <ele>1234.3</ele>
        <time>2022-03-21T08:46:13Z</time>
      </trkpt>
      <trkpt lat="44.94555" lon="4.2304">
        <ele>1235.02</ele>
        <time>2022-03-21T08:46:14Z</time>
      </trkpt>
      <trkpt lat="44.94533" lon="4.23016">
        <ele>1233.86</ele>
        <time>2022-03-21T08:46:15Z</time>
      </trkpt>
      <trkpt lat="44.945" lon="4.22951">
        <ele>1237.93</ele>
        <time>2022-03-21T08:46:16Z</time>
      </trkpt>
      <trkpt lat="44.94491" lon="4.22929">
        <ele>1238.89</ele>
        <time>2022-03-21T08:46:18Z</time>
      </trkpt>
      <trkpt lat="44.94484" lon="4.22907">
        <ele>1240</ele>
        <time>2022-03-21T08:46:19Z</time>
      </trkpt>
      <trkpt lat="44.94479" lon="4.22887">
        <ele>1240.91</ele>
        <time>2022-03-21T08:46:20Z</time>
      </trkpt>
      <trkpt lat="44.94474" lon="4.22858">
        <ele>1242.62</ele>
        <time>2022-03-21T08:46:21Z</time>
      </trkpt>
      <trkpt lat="44.94466" lon="4.22829">
        <ele>1243.42</ele>
        <time>2022-03-21T08:46:23Z</time>
      </trkpt>
      <trkpt lat="44.9444" lon="4.22786">
        <ele>1244.44</ele>
        <time>2022-03-21T08:46:24Z</time>
      </trkpt>
      <trkpt lat="44.94379" lon="4.22655">
        <ele>1250.57</ele>
        <time>2022-03-21T08:46:25Z</time>
      </trkpt>
      <trkpt lat="44.94343" lon="4.22559">
        <ele>1254.27</ele>
        <time>2022-03-21T08:46:27Z</time>
      </trkpt>
      <trkpt lat="44.94336" lon="4.22548">
        <ele>1253.73</ele>
        <time>2022-03-21T08:46:28Z</time>
      </trkpt>
      <trkpt lat="44.94293" lon="4.22503">
        <ele>1251.61</ele>
        <time>2022-03-21T08:46:29Z</time>
      </trkpt>
      <trkpt lat="44.94283" lon="4.22491">
        <ele>1251.18</ele>
        <time>2022-03-21T08:46:30Z</time>
      </trkpt>
      <trkpt lat="44.94275" lon="4.22477">
        <ele>1251.32</ele>
        <time>2022-03-21T08:46:32Z</time>
      </trkpt>
      <trkpt lat="44.94259" lon="4.22436">
        <ele>1253.14</ele>
        <time>2022-03-21T08:46:33Z</time>
      </trkpt>
      <trkpt lat="44.9425" lon="4.22398">
        <ele>1255.91</ele>
        <time>2022-03-21T08:46:34Z</time>
      </trkpt>
      <trkpt lat="44.94236" lon="4.22358">
        <ele>1256.19</ele>
        <time>2022-03-21T08:46:36Z</time>
      </trkpt>
      <trkpt lat="44.9422" lon="4.22328">
        <ele>1256.01</ele>
        <time>2022-03-21T08:46:37Z</time>
      </trkpt>
      <trkpt lat="44.94165" lon="4.22257">
        <ele>1254.86</ele>
        <time>2022-03-21T08:46:38Z</time>
      </trkpt>
      <trkpt lat="44.94155" lon="4.22239">
        <ele>1253.92</ele>
        <time>2022-03-21T08:46:39Z</time>
      </trkpt>
      <trkpt lat="44.94148" lon="4.22224">
        <ele>1253.29</ele>
        <time>2022-03-21T08:46:41Z</time>
      </trkpt>
      <trkpt lat="44.94135" lon="4.22173">
        <ele>1254.8</ele>
        <time>2022-03-21T08:46:42Z</time>
      </trkpt>
      <trkpt lat="44.94126" lon="4.22156">
        <ele>1254.82</ele>
        <time>2022-03-21T08:46:43Z</time>
      </trkpt>
      <trkpt lat="44.94118" lon="4.22149">
        <ele>1254.13</ele>
        <time>2022-03-21T08:46:45Z</time>
      </trkpt>
      <trkpt lat="44.94075" lon="4.22125">
        <ele>1254.63</ele>
        <time>2022-03-21T08:46:46Z</time>
      </trkpt>
      <trkpt lat="44.94064" lon="4.22113">
        <ele>1255.36</ele>
        <time>2022-03-21T08:46:47Z</time>
      </trkpt>
      <trkpt lat="44.94027" lon="4.22058">
        <ele>1257.53</ele>
        <time>2022-03-21T08:46:48Z</time>
      </trkpt>
      <trkpt lat="44.94018" lon="4.2204">
        <ele>1258.74</ele>
        <time>2022-03-21T08:46:50Z</time>
      </trkpt>
      <trkpt lat="44.94" lon="4.21985">
        <ele>1263.73</ele>
        <time>2022-03-21T08:46:51Z</time>
      </trkpt>
      <trkpt lat="44.93989" lon="4.21963">
        <ele>1265.84</ele>
        <time>2022-03-21T08:46:52Z</time>
      </trkpt>
      <trkpt lat="44.93969" lon="4.21939">
        <ele>1267.71</ele>
        <time>2022-03-21T08:46:53Z</time>
      </trkpt>
      <trkpt lat="44.93944" lon="4.21921">
        <ele>1267.97</ele>
        <time>2022-03-21T08:46:55Z</time>
      </trkpt>
      <trkpt lat="44.9391" lon="4.21901">
        <ele>1267.03</ele>
        <time>2022-03-21T08:46:56Z</time>
      </trkpt>
      <trkpt lat="44.93894" lon="4.21882">
        <ele>1266.84</ele>
        <time>2022-03-21T08:46:57Z</time>
      </trkpt>
      <trkpt lat="44.93877" lon="4.21842">
        <ele>1266.86</ele>
        <time>2022-03-21T08:46:59Z</time>
      </trkpt>
      <trkpt lat="44.93863" lon="4.21816">
        <ele>1266.08</ele>
        <time>2022-03-21T08:47:00Z</time>
      </trkpt>
      <trkpt lat="44.93857" lon="4.21784">
        <ele>1267.21</ele>
        <time>2022-03-21T08:47:01Z</time>
      </trkpt>
      <trkpt lat="44.93853" lon="4.21774">
        <ele>1267.49</ele>
        <time>2022-03-21T08:47:02Z</time>
      </trkpt>
      <trkpt lat="44.93847" lon="4.2177">
        <ele>1267.24</ele>
        <time>2022-03-21T08:47:04Z</time>
      </trkpt>
      <trkpt lat="44.93841" lon="4.21769">
        <ele>1266.52</ele>
        <time>2022-03-21T08:47:05Z</time>
      </trkpt>
      <trkpt lat="44.93834" lon="4.21771">
        <ele>1265.56</ele>
        <time>2022-03-21T08:47:06Z</time>
      </trkpt>
      <trkpt lat="44.93828" lon="4.21778">
        <ele>1265.37</ele>
        <time>2022-03-21T08:47:08Z</time>
      </trkpt>
      <trkpt lat="44.93823" lon="4.21794">
        <ele>1265.34</ele>
        <time>2022-03-21T08:47:09Z</time>
      </trkpt>
      <trkpt lat="44.9382" lon="4.21829">
        <ele>1265.92</ele>
        <time>2022-03-21T08:47:10Z</time>
      </trkpt>
      <trkpt lat="44.93819" lon="4.21862">
        <ele>1267.14</ele>
        <time>2022-03-21T08:47:11Z</time>
      </trkpt>
      <trkpt lat="44.9382" lon="4.21876">
        <ele>1267.94</ele>
        <time>2022-03-21T08:47:13Z</time>
      </trkpt>
      <trkpt lat="44.93824" lon="4.21889">
        <ele>1268.04</ele>
        <time>2022-03-21T08:47:14Z</time>
      </trkpt>
      <trkpt lat="44.93841" lon="4.21923">
        <ele>1268.83</ele>
        <time>2022-03-21T08:47:15Z</time>
      </trkpt>
      <trkpt lat="44.93846" lon="4.21938">
        <ele>1269.58</ele>
        <time>2022-03-21T08:47:16Z</time>
      </trkpt>
      <trkpt lat="44.93859" lon="4.22009">
        <ele>1272.24</ele>
        <time>2022-03-21T08:47:18Z</time>
      </trkpt>
      <trkpt lat="44.93859" lon="4.22025">
        <ele>1272.66</ele>
        <time>2022-03-21T08:47:19Z</time>
      </trkpt>
      <trkpt lat="44.93857" lon="4.22044">
        <ele>1272.99</ele>
        <time>2022-03-21T08:47:20Z</time>
      </trkpt>
      <trkpt lat="44.93844" lon="4.22115">
        <ele>1279.43</ele>
        <time>2022-03-21T08:47:22Z</time>
      </trkpt>
      <trkpt lat="44.93837" lon="4.22132">
        <ele>1281.83</ele>
        <time>2022-03-21T08:47:23Z</time>
      </trkpt>
      <trkpt lat="44.93818" lon="4.22158">
        <ele>1285.1</ele>
        <time>2022-03-21T08:47:24Z</time>
      </trkpt>
      <trkpt lat="44.93768" lon="4.22191">
        <ele>1290.12</ele>
        <time>2022-03-21T08:47:25Z</time>
      </trkpt>
      <trkpt lat="44.93754" lon="4.22202">
        <ele>1292.29</ele>
        <time>2022-03-21T08:47:27Z</time>
      </trkpt>
      <trkpt lat="44.93743" lon="4.22216">
        <ele>1294.14</ele>
        <time>2022-03-21T08:47:28Z</time>
      </trkpt>
      <trkpt lat="44.93734" lon="4.22235">
        <ele>1295.62</ele>
        <time>2022-03-21T08:47:29Z</time>
      </trkpt>
      <trkpt lat="44.93727" lon="4.2226">
        <ele>1296.36</ele>
        <time>2022-03-21T08:47:31Z</time>
      </trkpt>
      <trkpt lat="44.93717" lon="4.22302">
        <ele>1295.2</ele>
        <time>2022-03-21T08:47:32Z</time>
      </trkpt>
      <trkpt lat="44.93712" lon="4.22311">
        <ele>1295.84</ele>
        <time>2022-03-21T08:47:33Z</time>
      </trkpt>
      <trkpt lat="44.93707" lon="4.22315">
        <ele>1296.93</ele>
        <time>2022-03-21T08:47:34Z</time>
      </trkpt>
      <trkpt lat="44.93702" lon="4.22313">
        <ele>1297.89</ele>
        <time>2022-03-21T08:47:36Z</time>
      </trkpt>
      <trkpt lat="44.93697" lon="4.22309">
        <ele>1298.6</ele>
        <time>2022-03-21T08:47:37Z</time>
      </trkpt>
      <trkpt lat="44.93694" lon="4.223">
        <ele>1299.48</ele>
        <time>2022-03-21T08:47:38Z</time>
      </trkpt>
      <trkpt lat="44.93666" lon="4.22163">
        <ele>1304.81</ele>
        <time>2022-03-21T08:47:39Z</time>
      </trkpt>
      <trkpt lat="44.93662" lon="4.22146">
        <ele>1304.6</ele>
        <time>2022-03-21T08:47:41Z</time>
      </trkpt>
      <trkpt lat="44.93629" lon="4.22091">
        <ele>1308.21</ele>
        <time>2022-03-21T08:47:42Z</time>
      </trkpt>
      <trkpt lat="44.93606" lon="4.22062">
        <ele>1309.98</ele>
        <time>2022-03-21T08:47:43Z</time>
      </trkpt>
      <trkpt lat="44.93581" lon="4.2204">
        <ele>1311.53</ele>
        <time>2022-03-21T08:47:45Z</time>
      </trkpt>
      <trkpt lat="44.93562" lon="4.22028">
        <ele>1312.89</ele>
        <time>2022-03-21T08:47:46Z</time>
      </trkpt>
      <trkpt lat="44.93521" lon="4.22013">
        <ele>1314.59</ele>
        <time>2022-03-21T08:47:47Z</time>
      </trkpt>
      <trkpt lat="44.9349" lon="4.22">
        <ele>1315.36</ele>
        <time>2022-03-21T08:47:48Z</time>
      </trkpt>
      <trkpt lat="44.93471" lon="4.21995">
        <ele>1315.47</ele>
        <time>2022-03-21T08:47:50Z</time>
      </trkpt>
      <trkpt lat="44.93442" lon="4.21996">
        <ele>1315.57</ele>
        <time>2022-03-21T08:47:51Z</time>
      </trkpt>
      <trkpt lat="44.93392" lon="4.2201">
        <ele>1316.39</ele>
        <time>2022-03-21T08:47:52Z</time>
      </trkpt>
      <trkpt lat="44.93332" lon="4.22013">
        <ele>1320.5</ele>
        <time>2022-03-21T08:47:54Z</time>
      </trkpt>
      <trkpt lat="44.93317" lon="4.22018">
        <ele>1320.15</ele>
        <time>2022-03-21T08:47:55Z</time>
      </trkpt>
      <trkpt lat="44.93305" lon="4.2203">
        <ele>1320.04</ele>
        <time>2022-03-21T08:47:56Z</time>
      </trkpt>
      <trkpt lat="44.93274" lon="4.22082">
        <ele>1320.14</ele>
        <time>2022-03-21T08:47:57Z</time>
      </trkpt>
      <trkpt lat="44.93261" lon="4.22109">
        <ele>1318.74</ele>
        <time>2022-03-21T08:47:59Z</time>
      </trkpt>
      <trkpt lat="44.93248" lon="4.2215">
        <ele>1314.94</ele>
        <time>2022-03-21T08:48:00Z</time>
      </trkpt>
      <trkpt lat="44.9324" lon="4.22196">
        <ele>1314.05</ele>
        <time>2022-03-21T08:48:01Z</time>
      </trkpt>
      <trkpt lat="44.93232" lon="4.2222">
        <ele>1313.99</ele>
        <time>2022-03-21T08:48:02Z</time>
      </trkpt>
      <trkpt lat="44.93212" lon="4.2227">
        <ele>1308.48</ele>
        <time>2022-03-21T08:48:04Z</time>
      </trkpt>
      <trkpt lat="44.93209" lon="4.22294">
        <ele>1305.87</ele>
        <time>2022-03-21T08:48:05Z</time>
      </trkpt>
      <trkpt lat="44.93212" lon="4.22317">
        <ele>1305.61</ele>
        <time>2022-03-21T08:48:06Z</time>
      </trkpt>
      <trkpt lat="44.93216" lon="4.22336">
        <ele>1307.31</ele>
        <time>2022-03-21T08:48:08Z</time>
      </trkpt>
      <trkpt lat="44.93216" lon="4.22366">
        <ele>1308.73</ele>
        <time>2022-03-21T08:48:09Z</time>
      </trkpt>
      <trkpt lat="44.93212" lon="4.22378">
        <ele>1308.46</ele>
        <time>2022-03-21T08:48:10Z</time>
      </trkpt>
      <trkpt lat="44.93206" lon="4.22389">
        <ele>1307.1</ele>
        <time>2022-03-21T08:48:11Z</time>
      </trkpt>
      <trkpt lat="44.93178" lon="4.22424">
        <ele>1300.81</ele>
        <time>2022-03-21T08:48:13Z</time>
      </trkpt>
      <trkpt lat="44.9317" lon="4.22439">
        <ele>1300.66</ele>
        <time>2022-03-21T08:48:14Z</time>
      </trkpt>
      <trkpt lat="44.93167" lon="4.22455">
        <ele>1302.17</ele>
        <time>2022-03-21T08:48:15Z</time>
      </trkpt>
      <trkpt lat="44.93156" lon="4.22539">
        <ele>1304.69</ele>
        <time>2022-03-21T08:48:17Z</time>
      </trkpt>
      <trkpt lat="44.93155" lon="4.22564">
        <ele>1301.38</ele>
        <time>2022-03-21T08:48:18Z</time>
      </trkpt>
      <trkpt lat="44.93156" lon="4.22597">
        <ele>1296.9</ele>
        <time>2022-03-21T08:48:19Z</time>
      </trkpt>
      <trkpt lat="44.93158" lon="4.22616">
        <ele>1295.7</ele>
        <time>2022-03-21T08:48:20Z</time>
      </trkpt>
      <trkpt lat="44.93167" lon="4.22645">
        <ele>1295.12</ele>
        <time>2022-03-21T08:48:22Z</time>
      </trkpt>
      <trkpt lat="44.93166" lon="4.22653">
        <ele>1293.67</ele>
        <time>2022-03-21T08:48:23Z</time>
      </trkpt>
      <trkpt lat="44.93162" lon="4.22657">
        <ele>1291.56</ele>
        <time>2022-03-21T08:48:24Z</time>
      </trkpt>
      <trkpt lat="44.93157" lon="4.22658">
        <ele>1289.45</ele>
        <time>2022-03-21T08:48:25Z</time>
      </trkpt>
      <trkpt lat="44.93152" lon="4.22655">
        <ele>1288.24</ele>
        <time>2022-03-21T08:48:27Z</time>
      </trkpt>
      <trkpt lat="44.93146" lon="4.22639">
        <ele>1288.5</ele>
        <time>2022-03-21T08:48:28Z</time>
      </trkpt>
      <trkpt lat="44.93138" lon="4.22561">
        <ele>1291.98</ele>
        <time>2022-03-21T08:48:29Z</time>
      </trkpt>
      <trkpt lat="44.93137" lon="4.22539">
        <ele>1292.46</ele>
        <time>2022-03-21T08:48:31Z</time>
      </trkpt>
      <trkpt lat="44.93138" lon="4.22474">
        <ele>1289.83</ele>
        <time>2022-03-21T08:48:32Z</time>
      </trkpt>
      <trkpt lat="44.93134" lon="4.22435">
        <ele>1283.68</ele>
        <time>2022-03-21T08:48:33Z</time>
      </trkpt>
      <trkpt lat="44.93135" lon="4.22422">
        <ele>1282.66</ele>
        <time>2022-03-21T08:48:34Z</time>
      </trkpt>
      <trkpt lat="44.93138" lon="4.22412">
        <ele>1283.09</ele>
        <time>2022-03-21T08:48:36Z</time>
      </trkpt>
      <trkpt lat="44.93148" lon="4.22401">
        <ele>1284.57</ele>
        <time>2022-03-21T08:48:37Z</time>
      </trkpt>
      <trkpt lat="44.93157" lon="4.22387">
        <ele>1284.91</ele>
        <time>2022-03-21T08:48:38Z</time>
      </trkpt>
      <trkpt lat="44.93163" lon="4.22374">
        <ele>1285.16</ele>
        <time>2022-03-21T08:48:40Z</time>
      </trkpt>
      <trkpt lat="44.93165" lon="4.2236">
        <ele>1284.53</ele>
        <time>2022-03-21T08:48:41Z</time>
      </trkpt>
      <trkpt lat="44.93165" lon="4.22347">
        <ele>1284.34</ele>
        <time>2022-03-21T08:48:42Z</time>
      </trkpt>
      <trkpt lat="44.93162" lon="4.22335">
        <ele>1283.37</ele>
        <time>2022-03-21T08:48:43Z</time>
      </trkpt>
      <trkpt lat="44.93156" lon="4.22322">
        <ele>1282.68</ele>
        <time>2022-03-21T08:48:45Z</time>
      </trkpt>
      <trkpt lat="44.93148" lon="4.22311">
        <ele>1280.52</ele>
        <time>2022-03-21T08:48:46Z</time>
      </trkpt>
      <trkpt lat="44.9311" lon="4.22273">
        <ele>1271.41</ele>
        <time>2022-03-21T08:48:47Z</time>
      </trkpt>
      <trkpt lat="44.93073" lon="4.2222">
        <ele>1273.06</ele>
        <time>2022-03-21T08:48:48Z</time>
      </trkpt>
      <trkpt lat="44.93047" lon="4.22187">
        <ele>1275.31</ele>
        <time>2022-03-21T08:48:50Z</time>
      </trkpt>
      <trkpt lat="44.93004" lon="4.22137">
        <ele>1273.68</ele>
        <time>2022-03-21T08:48:51Z</time>
      </trkpt>
      <trkpt lat="44.92991" lon="4.22128">
        <ele>1272.42</ele>
        <time>2022-03-21T08:48:52Z</time>
      </trkpt>
      <trkpt lat="44.9297" lon="4.22117">
        <ele>1270.8</ele>
        <time>2022-03-21T08:48:54Z</time>
      </trkpt>
      <trkpt lat="44.92936" lon="4.22104">
        <ele>1268.45</ele>
        <time>2022-03-21T08:48:55Z</time>
      </trkpt>
      <trkpt lat="44.92925" lon="4.22106">
        <ele>1267.34</ele>
        <time>2022-03-21T08:48:56Z</time>
      </trkpt>
      <trkpt lat="44.92899" lon="4.22117">
        <ele>1264.79</ele>
        <time>2022-03-21T08:48:57Z</time>
      </trkpt>
      <trkpt lat="44.92869" lon="4.2212">
        <ele>1266.49</ele>
        <time>2022-03-21T08:48:59Z</time>
      </trkpt>
      <trkpt lat="44.92858" lon="4.22124">
        <ele>1266.23</ele>
        <time>2022-03-21T08:49:00Z</time>
      </trkpt>
      <trkpt lat="44.92837" lon="4.22139">
        <ele>1263.57</ele>
        <time>2022-03-21T08:49:01Z</time>
      </trkpt>
      <trkpt lat="44.92821" lon="4.22145">
        <ele>1264.58</ele>
        <time>2022-03-21T08:49:03Z</time>
      </trkpt>
      <trkpt lat="44.92796" lon="4.2215">
        <ele>1268.42</ele>
        <time>2022-03-21T08:49:04Z</time>
      </trkpt>
      <trkpt lat="44.92778" lon="4.22157">
        <ele>1268.2</ele>
        <time>2022-03-21T08:49:05Z</time>
      </trkpt>
      <trkpt lat="44.92763" lon="4.22167">
        <ele>1266.52</ele>
        <time>2022-03-21T08:49:06Z</time>
      </trkpt>
      <trkpt lat="44.92744" lon="4.22185">
        <ele>1263.06</ele>
        <time>2022-03-21T08:49:08Z</time>
      </trkpt>
      <trkpt lat="44.92725" lon="4.22208">
        <ele>1258.69</ele>
        <time>2022-03-21T08:49:09Z</time>
      </trkpt>
      <trkpt lat="44.9271" lon="4.22222">
        <ele>1256.73</ele>
        <time>2022-03-21T08:49:10Z</time>
      </trkpt>
      <trkpt lat="44.92696" lon="4.22232">
        <ele>1256.59</ele>
        <time>2022-03-21T08:49:11Z</time>
      </trkpt>
      <trkpt lat="44.92668" lon="4.22245">
        <ele>1253.76</ele>
        <time>2022-03-21T08:49:13Z</time>
      </trkpt>
      <trkpt lat="44.92627" lon="4.22261">
        <ele>1248.72</ele>
        <time>2022-03-21T08:49:14Z</time>
      </trkpt>
      <trkpt lat="44.92592" lon="4.2227">
        <ele>1246.58</ele>
        <time>2022-03-21T08:49:15Z</time>
      </trkpt>
      <trkpt lat="44.92581" lon="4.22269">
        <ele>1246.84</ele>
        <time>2022-03-21T08:49:17Z</time>
      </trkpt>
      <trkpt lat="44.92566" lon="4.22263">
        <ele>1247.53</ele>
        <time>2022-03-21T08:49:18Z</time>
      </trkpt>
      <trkpt lat="44.92517" lon="4.22232">
        <ele>1255.3</ele>
        <time>2022-03-21T08:49:19Z</time>
      </trkpt>
      <trkpt lat="44.92472" lon="4.22211">
        <ele>1258.81</ele>
        <time>2022-03-21T08:49:20Z</time>
      </trkpt>
      <trkpt lat="44.92432" lon="4.22186">
        <ele>1264.19</ele>
        <time>2022-03-21T08:49:22Z</time>
      </trkpt>
      <trkpt lat="44.92424" lon="4.22183">
        <ele>1264.86</ele>
        <time>2022-03-21T08:49:23Z</time>
      </trkpt>
      <trkpt lat="44.92397" lon="4.22182">
        <ele>1263.56</ele>
        <time>2022-03-21T08:49:24Z</time>
      </trkpt>
      <trkpt lat="44.92388" lon="4.22178">
        <ele>1264.04</ele>
        <time>2022-03-21T08:49:26Z</time>
      </trkpt>
      <trkpt lat="44.92378" lon="4.22168">
        <ele>1264.07</ele>
        <time>2022-03-21T08:49:27Z</time>
      </trkpt>
      <trkpt lat="44.92341" lon="4.22096">
        <ele>1266.12</ele>
        <time>2022-03-21T08:49:28Z</time>
      </trkpt>
      <trkpt lat="44.92337" lon="4.22083">
        <ele>1266.35</ele>
        <time>2022-03-21T08:49:29Z</time>
      </trkpt>
      <trkpt lat="44.92336" lon="4.22069">
        <ele>1264.86</ele>
        <time>2022-03-21T08:49:31Z</time>
      </trkpt>
      <trkpt lat="44.9234" lon="4.22048">
        <ele>1265.33</ele>
        <time>2022-03-21T08:49:32Z</time>
      </trkpt>
      <trkpt lat="44.9235" lon="4.22023">
        <ele>1265.97</ele>
        <time>2022-03-21T08:49:33Z</time>
      </trkpt>
      <trkpt lat="44.92358" lon="4.22009">
        <ele>1266.4</ele>
        <time>2022-03-21T08:49:34Z</time>
      </trkpt>
      <trkpt lat="44.92367" lon="4.21999">
        <ele>1268</ele>
        <time>2022-03-21T08:49:36Z</time>
      </trkpt>
      <trkpt lat="44.92405" lon="4.21974">
        <ele>1272.99</ele>
        <time>2022-03-21T08:49:37Z</time>
      </trkpt>
      <trkpt lat="44.92462" lon="4.21942">
        <ele>1275</ele>
        <time>2022-03-21T08:49:38Z</time>
      </trkpt>
      <trkpt lat="44.92481" lon="4.21929">
        <ele>1274.49</ele>
        <time>2022-03-21T08:49:40Z</time>
      </trkpt>
      <trkpt lat="44.92505" lon="4.21906">
        <ele>1274.75</ele>
        <time>2022-03-21T08:49:41Z</time>
      </trkpt>
      <trkpt lat="44.92561" lon="4.21838">
        <ele>1278.14</ele>
        <time>2022-03-21T08:49:42Z</time>
      </trkpt>
      <trkpt lat="44.92587" lon="4.21795">
        <ele>1280.94</ele>
        <time>2022-03-21T08:49:43Z</time>
      </trkpt>
      <trkpt lat="44.92601" lon="4.21769">
        <ele>1283.29</ele>
        <time>2022-03-21T08:49:45Z</time>
      </trkpt>
      <trkpt lat="44.92613" lon="4.21736">
        <ele>1283.35</ele>
        <time>2022-03-21T08:49:46Z</time>
      </trkpt>
      <trkpt lat="44.92634" lon="4.21668">
        <ele>1285.37</ele>
        <time>2022-03-21T08:49:47Z</time>
      </trkpt>
      <trkpt lat="44.92644" lon="4.2163">
        <ele>1286.9</ele>
        <time>2022-03-21T08:49:49Z</time>
      </trkpt>
      <trkpt lat="44.92647" lon="4.21607">
        <ele>1287.5</ele>
        <time>2022-03-21T08:49:50Z</time>
      </trkpt>
      <trkpt lat="44.92645" lon="4.21585">
        <ele>1287.89</ele>
        <time>2022-03-21T08:49:51Z</time>
      </trkpt>
      <trkpt lat="44.92633" lon="4.21532">
        <ele>1289.83</ele>
        <time>2022-03-21T08:49:52Z</time>
      </trkpt>
      <trkpt lat="44.92625" lon="4.21514">
        <ele>1290.49</ele>
        <time>2022-03-21T08:49:54Z</time>
      </trkpt>
      <trkpt lat="44.92611" lon="4.21496">
        <ele>1291</ele>
        <time>2022-03-21T08:49:55Z</time>
      </trkpt>
      <trkpt lat="44.92594" lon="4.2148">
        <ele>1291</ele>
        <time>2022-03-21T08:49:56Z</time>
      </trkpt>
      <trkpt lat="44.92584" lon="4.21473">
        <ele>1291</ele>
        <time>2022-03-21T08:49:57Z</time>
      </trkpt>
      <trkpt lat="44.92571" lon="4.21471">
        <ele>1291.43</ele>
        <time>2022-03-21T08:49:59Z</time>
      </trkpt>
      <trkpt lat="44.92502" lon="4.21485">
        <ele>1292.04</ele>
        <time>2022-03-21T08:50:00Z</time>
      </trkpt>
      <trkpt lat="44.92444" lon="4.21501">
        <ele>1286.89</ele>
        <time>2022-03-21T08:50:01Z</time>
      </trkpt>
      <trkpt lat="44.92417" lon="4.21512">
        <ele>1283.71</ele>
        <time>2022-03-21T08:50:03Z</time>
      </trkpt>
      <trkpt lat="44.92391" lon="4.2153">
        <ele>1281.82</ele>
        <time>2022-03-21T08:50:04Z</time>
      </trkpt>
      <trkpt lat="44.92357" lon="4.2156">
        <ele>1283.88</ele>
        <time>2022-03-21T08:50:05Z</time>
      </trkpt>
      <trkpt lat="44.92209" lon="4.21728">
        <ele>1278.61</ele>
        <time>2022-03-21T08:50:06Z</time>
      </trkpt>
      <trkpt lat="44.92125" lon="4.2182">
        <ele>1276.36</ele>
        <time>2022-03-21T08:50:08Z</time>
      </trkpt>
      <trkpt lat="44.92112" lon="4.21837">
        <ele>1275.91</ele>
        <time>2022-03-21T08:50:09Z</time>
      </trkpt>
      <trkpt lat="44.92061" lon="4.21918">
        <ele>1271.29</ele>
        <time>2022-03-21T08:50:10Z</time>
      </trkpt>
      <trkpt lat="44.92029" lon="4.21965">
        <ele>1272.1</ele>
        <time>2022-03-21T08:50:12Z</time>
      </trkpt>
      <trkpt lat="44.92023" lon="4.2198">
        <ele>1271.34</ele>
        <time>2022-03-21T08:50:13Z</time>
      </trkpt>
      <trkpt lat="44.92021" lon="4.21997">
        <ele>1270.19</ele>
        <time>2022-03-21T08:50:14Z</time>
      </trkpt>
      <trkpt lat="44.92021" lon="4.22014">
        <ele>1269.36</ele>
        <time>2022-03-21T08:50:15Z</time>
      </trkpt>
      <trkpt lat="44.92024" lon="4.22061">
        <ele>1266.27</ele>
        <time>2022-03-21T08:50:17Z</time>
      </trkpt>
      <trkpt lat="44.92023" lon="4.22082">
        <ele>1266.16</ele>
        <time>2022-03-21T08:50:18Z</time>
      </trkpt>
      <trkpt lat="44.92018" lon="4.22103">
        <ele>1266.05</ele>
        <time>2022-03-21T08:50:19Z</time>
      </trkpt>
      <trkpt lat="44.91973" lon="4.22208">
        <ele>1262.89</ele>
        <time>2022-03-21T08:50:20Z</time>
      </trkpt>
      <trkpt lat="44.91966" lon="4.22221">
        <ele>1261.57</ele>
        <time>2022-03-21T08:50:22Z</time>
      </trkpt>
      <trkpt lat="44.91957" lon="4.22229">
        <ele>1261.32</ele>
        <time>2022-03-21T08:50:23Z</time>
      </trkpt>
      <trkpt lat="44.91946" lon="4.22236">
        <ele>1261.35</ele>
        <time>2022-03-21T08:50:24Z</time>
      </trkpt>
      <trkpt lat="44.91908" lon="4.22249">
        <ele>1257.85</ele>
        <time>2022-03-21T08:50:26Z</time>
      </trkpt>
      <trkpt lat="44.91883" lon="4.22264">
        <ele>1252.58</ele>
        <time>2022-03-21T08:50:27Z</time>
      </trkpt>
      <trkpt lat="44.91859" lon="4.22292">
        <ele>1248.31</ele>
        <time>2022-03-21T08:50:28Z</time>
      </trkpt>
      <trkpt lat="44.91844" lon="4.22303">
        <ele>1245.09</ele>
        <time>2022-03-21T08:50:29Z</time>
      </trkpt>
      <trkpt lat="44.91829" lon="4.22307">
        <ele>1242.69</ele>
        <time>2022-03-21T08:50:31Z</time>
      </trkpt>
      <trkpt lat="44.91733" lon="4.22312">
        <ele>1242.34</ele>
        <time>2022-03-21T08:50:32Z</time>
      </trkpt>
      <trkpt lat="44.91703" lon="4.22315">
        <ele>1241.51</ele>
        <time>2022-03-21T08:50:33Z</time>
      </trkpt>
      <trkpt lat="44.9168" lon="4.22314">
        <ele>1240.32</ele>
        <time>2022-03-21T08:50:35Z</time>
      </trkpt>
      <trkpt lat="44.91658" lon="4.22309">
        <ele>1239.33</ele>
        <time>2022-03-21T08:50:36Z</time>
      </trkpt>
      <trkpt lat="44.91619" lon="4.22293">
        <ele>1239.11</ele>
        <time>2022-03-21T08:50:37Z</time>
      </trkpt>
      <trkpt lat="44.91602" lon="4.22288">
        <ele>1238.95</ele>
        <time>2022-03-21T08:50:38Z</time>
      </trkpt>
      <trkpt lat="44.91579" lon="4.22286">
        <ele>1237.66</ele>
        <time>2022-03-21T08:50:40Z</time>
      </trkpt>
      <trkpt lat="44.91568" lon="4.22288">
        <ele>1236.17</ele>
        <time>2022-03-21T08:50:41Z</time>
      </trkpt>
      <trkpt lat="44.91552" lon="4.22294">
        <ele>1232.76</ele>
        <time>2022-03-21T08:50:42Z</time>
      </trkpt>
      <trkpt lat="44.91532" lon="4.22306">
        <ele>1226.59</ele>
        <time>2022-03-21T08:50:43Z</time>
      </trkpt>
      <trkpt lat="44.91517" lon="4.2232">
        <ele>1224.96</ele>
        <time>2022-03-21T08:50:45Z</time>
      </trkpt>
      <trkpt lat="44.91503" lon="4.22325">
        <ele>1224.64</ele>
        <time>2022-03-21T08:50:46Z</time>
      </trkpt>
      <trkpt lat="44.91496" lon="4.2232">
        <ele>1224.76</ele>
        <time>2022-03-21T08:50:47Z</time>
      </trkpt>
      <trkpt lat="44.91496" lon="4.2232">
        <ele>1224.76</ele>
        <time>2022-03-21T08:50:47Z</time>
      </trkpt>
      <trkpt lat="44.91493" lon="4.22317">
        <ele>1224.82</ele>
        <time>2022-03-21T08:50:49Z</time>
      </trkpt>
      <trkpt lat="44.91492" lon="4.22308">
        <ele>1225.27</ele>
        <time>2022-03-21T08:50:51Z</time>
      </trkpt>
      <trkpt lat="44.91494" lon="4.22298">
        <ele>1225.48</ele>
        <time>2022-03-21T08:50:53Z</time>
      </trkpt>
      <trkpt lat="44.91519" lon="4.22241">
        <ele>1229.66</ele>
        <time>2022-03-21T08:50:55Z</time>
      </trkpt>
      <trkpt lat="44.91525" lon="4.22216">
        <ele>1231.39</ele>
        <time>2022-03-21T08:50:57Z</time>
      </trkpt>
      <trkpt lat="44.91529" lon="4.22175">
        <ele>1234.78</ele>
        <time>2022-03-21T08:50:59Z</time>
      </trkpt>
      <trkpt lat="44.91528" lon="4.2214">
        <ele>1240.18</ele>
        <time>2022-03-21T08:51:01Z</time>
      </trkpt>
      <trkpt lat="44.91527" lon="4.22119">
        <ele>1242.39</ele>
        <time>2022-03-21T08:51:03Z</time>
      </trkpt>
      <trkpt lat="44.91524" lon="4.22105">
        <ele>1243.38</ele>
        <time>2022-03-21T08:51:05Z</time>
      </trkpt>
      <trkpt lat="44.91519" lon="4.22092">
        <ele>1243.75</ele>
        <time>2022-03-21T08:51:07Z</time>
      </trkpt>
      <trkpt lat="44.91501" lon="4.22062">
        <ele>1241.88</ele>
        <time>2022-03-21T08:51:09Z</time>
      </trkpt>
      <trkpt lat="44.91491" lon="4.22039">
        <ele>1241.53</ele>
        <time>2022-03-21T08:51:10Z</time>
      </trkpt>
      <trkpt lat="44.91485" lon="4.22019">
        <ele>1241.42</ele>
        <time>2022-03-21T08:51:12Z</time>
      </trkpt>
      <trkpt lat="44.91482" lon="4.21996">
        <ele>1242.59</ele>
        <time>2022-03-21T08:51:14Z</time>
      </trkpt>
      <trkpt lat="44.9148" lon="4.21903">
        <ele>1248.26</ele>
        <time>2022-03-21T08:51:16Z</time>
      </trkpt>
      <trkpt lat="44.91487" lon="4.2183">
        <ele>1249.28</ele>
        <time>2022-03-21T08:51:18Z</time>
      </trkpt>
      <trkpt lat="44.91521" lon="4.21677">
        <ele>1256.16</ele>
        <time>2022-03-21T08:51:20Z</time>
      </trkpt>
      <trkpt lat="44.91545" lon="4.21626">
        <ele>1260.14</ele>
        <time>2022-03-21T08:51:22Z</time>
      </trkpt>
      <trkpt lat="44.91568" lon="4.21596">
        <ele>1262.86</ele>
        <time>2022-03-21T08:51:24Z</time>
      </trkpt>
      <trkpt lat="44.91626" lon="4.21566">
        <ele>1266.54</ele>
        <time>2022-03-21T08:51:26Z</time>
      </trkpt>
      <trkpt lat="44.9165" lon="4.21565">
        <ele>1268.55</ele>
        <time>2022-03-21T08:51:28Z</time>
      </trkpt>
      <trkpt lat="44.91662" lon="4.2156">
        <ele>1270.28</ele>
        <time>2022-03-21T08:51:30Z</time>
      </trkpt>
      <trkpt lat="44.91666" lon="4.21548">
        <ele>1271.12</ele>
        <time>2022-03-21T08:51:32Z</time>
      </trkpt>
      <trkpt lat="44.91666" lon="4.21531">
        <ele>1271.71</ele>
        <time>2022-03-21T08:51:34Z</time>
      </trkpt>
      <trkpt lat="44.91643" lon="4.21492">
        <ele>1269.45</ele>
        <time>2022-03-21T08:51:35Z</time>
      </trkpt>
      <trkpt lat="44.91639" lon="4.21472">
        <ele>1268.08</ele>
        <time>2022-03-21T08:51:37Z</time>
      </trkpt>
      <trkpt lat="44.91646" lon="4.21435">
        <ele>1270.86</ele>
        <time>2022-03-21T08:51:39Z</time>
      </trkpt>
      <trkpt lat="44.91658" lon="4.21391">
        <ele>1276.13</ele>
        <time>2022-03-21T08:51:41Z</time>
      </trkpt>
      <trkpt lat="44.91656" lon="4.21359">
        <ele>1281.03</ele>
        <time>2022-03-21T08:51:43Z</time>
      </trkpt>
      <trkpt lat="44.91624" lon="4.21194">
        <ele>1280.84</ele>
        <time>2022-03-21T08:51:45Z</time>
      </trkpt>
      <trkpt lat="44.91627" lon="4.21174">
        <ele>1283.67</ele>
        <time>2022-03-21T08:51:47Z</time>
      </trkpt>
      <trkpt lat="44.91637" lon="4.21168">
        <ele>1286.39</ele>
        <time>2022-03-21T08:51:49Z</time>
      </trkpt>
      <trkpt lat="44.91648" lon="4.21174">
        <ele>1289.36</ele>
        <time>2022-03-21T08:51:51Z</time>
      </trkpt>
      <trkpt lat="44.91679" lon="4.21217">
        <ele>1292.85</ele>
        <time>2022-03-21T08:51:53Z</time>
      </trkpt>
      <trkpt lat="44.91691" lon="4.21226">
        <ele>1293.31</ele>
        <time>2022-03-21T08:51:55Z</time>
      </trkpt>
      <trkpt lat="44.91726" lon="4.21234">
        <ele>1295.45</ele>
        <time>2022-03-21T08:51:57Z</time>
      </trkpt>
      <trkpt lat="44.91759" lon="4.21221">
        <ele>1298.83</ele>
        <time>2022-03-21T08:51:58Z</time>
      </trkpt>
      <trkpt lat="44.91804" lon="4.2122">
        <ele>1303.05</ele>
        <time>2022-03-21T08:52:00Z</time>
      </trkpt>
      <trkpt lat="44.91826" lon="4.21208">
        <ele>1308.15</ele>
        <time>2022-03-21T08:52:02Z</time>
      </trkpt>
      <trkpt lat="44.91852" lon="4.21159">
        <ele>1312.63</ele>
        <time>2022-03-21T08:52:04Z</time>
      </trkpt>
      <trkpt lat="44.91876" lon="4.21133">
        <ele>1315.52</ele>
        <time>2022-03-21T08:52:06Z</time>
      </trkpt>
      <trkpt lat="44.91912" lon="4.2111">
        <ele>1321.21</ele>
        <time>2022-03-21T08:52:08Z</time>
      </trkpt>
      <trkpt lat="44.91948" lon="4.20955">
        <ele>1327.48</ele>
        <time>2022-03-21T08:52:10Z</time>
      </trkpt>
      <trkpt lat="44.91946" lon="4.20932">
        <ele>1327.7</ele>
        <time>2022-03-21T08:52:12Z</time>
      </trkpt>
      <trkpt lat="44.91937" lon="4.20917">
        <ele>1327.21</ele>
        <time>2022-03-21T08:52:14Z</time>
      </trkpt>
      <trkpt lat="44.91896" lon="4.20891">
        <ele>1326.96</ele>
        <time>2022-03-21T08:52:16Z</time>
      </trkpt>
      <trkpt lat="44.91877" lon="4.20875">
        <ele>1328.9</ele>
        <time>2022-03-21T08:52:18Z</time>
      </trkpt>
      <trkpt lat="44.91853" lon="4.20847">
        <ele>1331.61</ele>
        <time>2022-03-21T08:52:20Z</time>
      </trkpt>
      <trkpt lat="44.91825" lon="4.20793">
        <ele>1333.49</ele>
        <time>2022-03-21T08:52:21Z</time>
      </trkpt>
      <trkpt lat="44.91792" lon="4.20712">
        <ele>1339</ele>
        <time>2022-03-21T08:52:23Z</time>
      </trkpt>
      <trkpt lat="44.91779" lon="4.20689">
        <ele>1342.74</ele>
        <time>2022-03-21T08:52:25Z</time>
      </trkpt>
      <trkpt lat="44.91748" lon="4.2067">
        <ele>1341.92</ele>
        <time>2022-03-21T08:52:27Z</time>
      </trkpt>
      <trkpt lat="44.91709" lon="4.20659">
        <ele>1337.48</ele>
        <time>2022-03-21T08:52:29Z</time>
      </trkpt>
      <trkpt lat="44.91678" lon="4.20661">
        <ele>1331.53</ele>
        <time>2022-03-21T08:52:31Z</time>
      </trkpt>
      <trkpt lat="44.91554" lon="4.20705">
        <ele>1325.32</ele>
        <time>2022-03-21T08:52:33Z</time>
      </trkpt>
      <trkpt lat="44.91525" lon="4.20704">
        <ele>1325.97</ele>
        <time>2022-03-21T08:52:35Z</time>
      </trkpt>
      <trkpt lat="44.91462" lon="4.20687">
        <ele>1325.22</ele>
        <time>2022-03-21T08:52:37Z</time>
      </trkpt>
      <trkpt lat="44.91435" lon="4.20691">
        <ele>1323.88</ele>
        <time>2022-03-21T08:52:39Z</time>
      </trkpt>
      <trkpt lat="44.91355" lon="4.20711">
        <ele>1324.5</ele>
        <time>2022-03-21T08:52:41Z</time>
      </trkpt>
      <trkpt lat="44.91319" lon="4.20731">
        <ele>1322.01</ele>
        <time>2022-03-21T08:52:43Z</time>
      </trkpt>
      <trkpt lat="44.91298" lon="4.20734">
        <ele>1320.95</ele>
        <time>2022-03-21T08:52:45Z</time>
      </trkpt>
      <trkpt lat="44.91257" lon="4.20729">
        <ele>1321.42</ele>
        <time>2022-03-21T08:52:46Z</time>
      </trkpt>
      <trkpt lat="44.91222" lon="4.2072">
        <ele>1324.74</ele>
        <time>2022-03-21T08:52:48Z</time>
      </trkpt>
      <trkpt lat="44.91203" lon="4.20721">
        <ele>1323.7</ele>
        <time>2022-03-21T08:52:50Z</time>
      </trkpt>
      <trkpt lat="44.91151" lon="4.20738">
        <ele>1322.28</ele>
        <time>2022-03-21T08:52:52Z</time>
      </trkpt>
      <trkpt lat="44.91119" lon="4.20739">
        <ele>1322.77</ele>
        <time>2022-03-21T08:52:54Z</time>
      </trkpt>
      <trkpt lat="44.91099" lon="4.20723">
        <ele>1326.26</ele>
        <time>2022-03-21T08:52:56Z</time>
      </trkpt>
      <trkpt lat="44.91079" lon="4.20692">
        <ele>1333.96</ele>
        <time>2022-03-21T08:52:58Z</time>
      </trkpt>
      <trkpt lat="44.9106" lon="4.20674">
        <ele>1335.24</ele>
        <time>2022-03-21T08:53:00Z</time>
      </trkpt>
      <trkpt lat="44.91028" lon="4.20653">
        <ele>1335.07</ele>
        <time>2022-03-21T08:53:02Z</time>
      </trkpt>
      <trkpt lat="44.90985" lon="4.20637">
        <ele>1336.8</ele>
        <time>2022-03-21T08:53:04Z</time>
      </trkpt>
      <trkpt lat="44.90951" lon="4.20641">
        <ele>1336.51</ele>
        <time>2022-03-21T08:53:06Z</time>
      </trkpt>
      <trkpt lat="44.90935" lon="4.20637">
        <ele>1337.32</ele>
        <time>2022-03-21T08:53:08Z</time>
      </trkpt>
      <trkpt lat="44.9091" lon="4.20616">
        <ele>1340.65</ele>
        <time>2022-03-21T08:53:09Z</time>
      </trkpt>
      <trkpt lat="44.90864" lon="4.2059">
        <ele>1340.32</ele>
        <time>2022-03-21T08:53:11Z</time>
      </trkpt>
      <trkpt lat="44.90828" lon="4.20577">
        <ele>1339.31</ele>
        <time>2022-03-21T08:53:13Z</time>
      </trkpt>
      <trkpt lat="44.90809" lon="4.20579">
        <ele>1338.46</ele>
        <time>2022-03-21T08:53:15Z</time>
      </trkpt>
      <trkpt lat="44.90427" lon="4.2073">
        <ele>1325.01</ele>
        <time>2022-03-21T08:53:17Z</time>
      </trkpt>
      <trkpt lat="44.90337" lon="4.20728">
        <ele>1327.86</ele>
        <time>2022-03-21T08:53:19Z</time>
      </trkpt>
      <trkpt lat="44.90309" lon="4.2072">
        <ele>1327.44</ele>
        <time>2022-03-21T08:53:21Z</time>
      </trkpt>
      <trkpt lat="44.90292" lon="4.20709">
        <ele>1326.03</ele>
        <time>2022-03-21T08:53:23Z</time>
      </trkpt>
      <trkpt lat="44.90274" lon="4.20688">
        <ele>1324.55</ele>
        <time>2022-03-21T08:53:25Z</time>
      </trkpt>
      <trkpt lat="44.90268" lon="4.20674">
        <ele>1323.89</ele>
        <time>2022-03-21T08:53:27Z</time>
      </trkpt>
      <trkpt lat="44.90259" lon="4.2064">
        <ele>1322.47</ele>
        <time>2022-03-21T08:53:29Z</time>
      </trkpt>
      <trkpt lat="44.90252" lon="4.20579">
        <ele>1319.54</ele>
        <time>2022-03-21T08:53:31Z</time>
      </trkpt>
      <trkpt lat="44.90239" lon="4.20538">
        <ele>1318.44</ele>
        <time>2022-03-21T08:53:32Z</time>
      </trkpt>
      <trkpt lat="44.90219" lon="4.20499">
        <ele>1320.81</ele>
        <time>2022-03-21T08:53:34Z</time>
      </trkpt>
      <trkpt lat="44.90176" lon="4.20444">
        <ele>1320.66</ele>
        <time>2022-03-21T08:53:36Z</time>
      </trkpt>
      <trkpt lat="44.90126" lon="4.20391">
        <ele>1321.37</ele>
        <time>2022-03-21T08:53:38Z</time>
      </trkpt>
      <trkpt lat="44.90114" lon="4.20363">
        <ele>1323.25</ele>
        <time>2022-03-21T08:53:40Z</time>
      </trkpt>
      <trkpt lat="44.90065" lon="4.20215">
        <ele>1326.38</ele>
        <time>2022-03-21T08:53:42Z</time>
      </trkpt>
      <trkpt lat="44.9003" lon="4.20165">
        <ele>1323.81</ele>
        <time>2022-03-21T08:53:44Z</time>
      </trkpt>
      <trkpt lat="44.90015" lon="4.20152">
        <ele>1322.79</ele>
        <time>2022-03-21T08:53:46Z</time>
      </trkpt>
      <trkpt lat="44.89998" lon="4.20147">
        <ele>1321.47</ele>
        <time>2022-03-21T08:53:48Z</time>
      </trkpt>
      <trkpt lat="44.89962" lon="4.20158">
        <ele>1318.29</ele>
        <time>2022-03-21T08:53:50Z</time>
      </trkpt>
      <trkpt lat="44.89945" lon="4.20158">
        <ele>1317.79</ele>
        <time>2022-03-21T08:53:52Z</time>
      </trkpt>
      <trkpt lat="44.8992" lon="4.20153">
        <ele>1315.37</ele>
        <time>2022-03-21T08:53:54Z</time>
      </trkpt>
      <trkpt lat="44.89899" lon="4.20138">
        <ele>1313.24</ele>
        <time>2022-03-21T08:53:56Z</time>
      </trkpt>
      <trkpt lat="44.89886" lon="4.20084">
        <ele>1313.32</ele>
        <time>2022-03-21T08:53:57Z</time>
      </trkpt>
      <trkpt lat="44.8988" lon="4.20042">
        <ele>1312.44</ele>
        <time>2022-03-21T08:53:59Z</time>
      </trkpt>
      <trkpt lat="44.89866" lon="4.19965">
        <ele>1310.76</ele>
        <time>2022-03-21T08:54:01Z</time>
      </trkpt>
      <trkpt lat="44.89864" lon="4.19944">
        <ele>1308.99</ele>
        <time>2022-03-21T08:54:03Z</time>
      </trkpt>
      <trkpt lat="44.89868" lon="4.19922">
        <ele>1309.13</ele>
        <time>2022-03-21T08:54:05Z</time>
      </trkpt>
      <trkpt lat="44.89932" lon="4.19671">
        <ele>1313.82</ele>
        <time>2022-03-21T08:54:07Z</time>
      </trkpt>
      <trkpt lat="44.89925" lon="4.19545">
        <ele>1309.23</ele>
        <time>2022-03-21T08:54:09Z</time>
      </trkpt>
      <trkpt lat="44.8992" lon="4.19532">
        <ele>1307.81</ele>
        <time>2022-03-21T08:54:11Z</time>
      </trkpt>
      <trkpt lat="44.8991" lon="4.19521">
        <ele>1306.42</ele>
        <time>2022-03-21T08:54:13Z</time>
      </trkpt>
      <trkpt lat="44.89855" lon="4.19492">
        <ele>1301.26</ele>
        <time>2022-03-21T08:54:15Z</time>
      </trkpt>
      <trkpt lat="44.89846" lon="4.19485">
        <ele>1301.86</ele>
        <time>2022-03-21T08:54:17Z</time>
      </trkpt>
      <trkpt lat="44.89836" lon="4.19473">
        <ele>1303.3</ele>
        <time>2022-03-21T08:54:19Z</time>
      </trkpt>
      <trkpt lat="44.89718" lon="4.19272">
        <ele>1303.47</ele>
        <time>2022-03-21T08:54:20Z</time>
      </trkpt>
      <trkpt lat="44.89644" lon="4.19239">
        <ele>1303.51</ele>
        <time>2022-03-21T08:54:22Z</time>
      </trkpt>
      <trkpt lat="44.89578" lon="4.19187">
        <ele>1302.26</ele>
        <time>2022-03-21T08:54:24Z</time>
      </trkpt>
      <trkpt lat="44.89578" lon="4.19187">
        <ele>1302.26</ele>
        <time>2022-03-21T08:54:24Z</time>
      </trkpt>
      <trkpt lat="44.89559" lon="4.19183">
        <ele>1302.25</ele>
        <time>2022-03-21T08:54:26Z</time>
      </trkpt>
      <trkpt lat="44.8954" lon="4.19199">
        <ele>1301.55</ele>
        <time>2022-03-21T08:54:28Z</time>
      </trkpt>
      <trkpt lat="44.89532" lon="4.19218">
        <ele>1301.67</ele>
        <time>2022-03-21T08:54:29Z</time>
      </trkpt>
      <trkpt lat="44.89529" lon="4.19238">
        <ele>1301.81</ele>
        <time>2022-03-21T08:54:31Z</time>
      </trkpt>
      <trkpt lat="44.89548" lon="4.19321">
        <ele>1301.27</ele>
        <time>2022-03-21T08:54:33Z</time>
      </trkpt>
      <trkpt lat="44.89552" lon="4.19368">
        <ele>1303.58</ele>
        <time>2022-03-21T08:54:34Z</time>
      </trkpt>
      <trkpt lat="44.89574" lon="4.19446">
        <ele>1301.01</ele>
        <time>2022-03-21T08:54:36Z</time>
      </trkpt>
      <trkpt lat="44.89571" lon="4.19475">
        <ele>1301.66</ele>
        <time>2022-03-21T08:54:38Z</time>
      </trkpt>
      <trkpt lat="44.8955" lon="4.19543">
        <ele>1300.14</ele>
        <time>2022-03-21T08:54:39Z</time>
      </trkpt>
      <trkpt lat="44.8949" lon="4.19647">
        <ele>1302.56</ele>
        <time>2022-03-21T08:54:41Z</time>
      </trkpt>
      <trkpt lat="44.89481" lon="4.19672">
        <ele>1301.48</ele>
        <time>2022-03-21T08:54:43Z</time>
      </trkpt>
      <trkpt lat="44.89448" lon="4.19868">
        <ele>1294.73</ele>
        <time>2022-03-21T08:54:44Z</time>
      </trkpt>
      <trkpt lat="44.8944" lon="4.19904">
        <ele>1296.22</ele>
        <time>2022-03-21T08:54:46Z</time>
      </trkpt>
      <trkpt lat="44.89425" lon="4.19918">
        <ele>1297.61</ele>
        <time>2022-03-21T08:54:47Z</time>
      </trkpt>
      <trkpt lat="44.89373" lon="4.19944">
        <ele>1297.69</ele>
        <time>2022-03-21T08:54:49Z</time>
      </trkpt>
      <trkpt lat="44.89321" lon="4.19957">
        <ele>1295.62</ele>
        <time>2022-03-21T08:54:51Z</time>
      </trkpt>
      <trkpt lat="44.89286" lon="4.19951">
        <ele>1299.11</ele>
        <time>2022-03-21T08:54:52Z</time>
      </trkpt>
      <trkpt lat="44.89244" lon="4.19957">
        <ele>1301.67</ele>
        <time>2022-03-21T08:54:54Z</time>
      </trkpt>
      <trkpt lat="44.89183" lon="4.1995">
        <ele>1306.76</ele>
        <time>2022-03-21T08:54:56Z</time>
      </trkpt>
      <trkpt lat="44.89176" lon="4.19954">
        <ele>1306.82</ele>
        <time>2022-03-21T08:54:57Z</time>
      </trkpt>
      <trkpt lat="44.8917" lon="4.1996">
        <ele>1306.47</ele>
        <time>2022-03-21T08:54:59Z</time>
      </trkpt>
      <trkpt lat="44.89162" lon="4.19981">
        <ele>1305.27</ele>
        <time>2022-03-21T08:55:01Z</time>
      </trkpt>
      <trkpt lat="44.89166" lon="4.20008">
        <ele>1302.54</ele>
        <time>2022-03-21T08:55:02Z</time>
      </trkpt>
      <trkpt lat="44.89173" lon="4.20032">
        <ele>1301.5</ele>
        <time>2022-03-21T08:55:04Z</time>
      </trkpt>
      <trkpt lat="44.8925" lon="4.202">
        <ele>1301.4</ele>
        <time>2022-03-21T08:55:06Z</time>
      </trkpt>
      <trkpt lat="44.89258" lon="4.20223">
        <ele>1300.51</ele>
        <time>2022-03-21T08:55:07Z</time>
      </trkpt>
      <trkpt lat="44.89258" lon="4.20246">
        <ele>1300.74</ele>
        <time>2022-03-21T08:55:09Z</time>
      </trkpt>
      <trkpt lat="44.89248" lon="4.20266">
        <ele>1302.11</ele>
        <time>2022-03-21T08:55:10Z</time>
      </trkpt>
      <trkpt lat="44.89237" lon="4.20283">
        <ele>1302.69</ele>
        <time>2022-03-21T08:55:12Z</time>
      </trkpt>
      <trkpt lat="44.89208" lon="4.20307">
        <ele>1305.3</ele>
        <time>2022-03-21T08:55:14Z</time>
      </trkpt>
      <trkpt lat="44.89172" lon="4.20323">
        <ele>1306.21</ele>
        <time>2022-03-21T08:55:15Z</time>
      </trkpt>
      <trkpt lat="44.8911" lon="4.2034">
        <ele>1302.11</ele>
        <time>2022-03-21T08:55:17Z</time>
      </trkpt>
      <trkpt lat="44.8908" lon="4.20369">
        <ele>1299.52</ele>
        <time>2022-03-21T08:55:19Z</time>
      </trkpt>
      <trkpt lat="44.89043" lon="4.20417">
        <ele>1298.17</ele>
        <time>2022-03-21T08:55:20Z</time>
      </trkpt>
      <trkpt lat="44.89037" lon="4.20422">
        <ele>1299.23</ele>
        <time>2022-03-21T08:55:22Z</time>
      </trkpt>
      <trkpt lat="44.89025" lon="4.20426">
        <ele>1301.28</ele>
        <time>2022-03-21T08:55:24Z</time>
      </trkpt>
      <trkpt lat="44.88956" lon="4.20431">
        <ele>1307.79</ele>
        <time>2022-03-21T08:55:25Z</time>
      </trkpt>
      <trkpt lat="44.88929" lon="4.20446">
        <ele>1312.14</ele>
        <time>2022-03-21T08:55:27Z</time>
      </trkpt>
      <trkpt lat="44.88881" lon="4.20484">
        <ele>1312.98</ele>
        <time>2022-03-21T08:55:29Z</time>
      </trkpt>
      <trkpt lat="44.88836" lon="4.20498">
        <ele>1316.1</ele>
        <time>2022-03-21T08:55:30Z</time>
      </trkpt>
      <trkpt lat="44.88817" lon="4.20498">
        <ele>1316.19</ele>
        <time>2022-03-21T08:55:32Z</time>
      </trkpt>
      <trkpt lat="44.888" lon="4.20495">
        <ele>1316.34</ele>
        <time>2022-03-21T08:55:34Z</time>
      </trkpt>
      <trkpt lat="44.8878" lon="4.20499">
        <ele>1316.07</ele>
        <time>2022-03-21T08:55:35Z</time>
      </trkpt>
      <trkpt lat="44.88764" lon="4.20508">
        <ele>1316.2</ele>
        <time>2022-03-21T08:55:37Z</time>
      </trkpt>
      <trkpt lat="44.88751" lon="4.20527">
        <ele>1316.01</ele>
        <time>2022-03-21T08:55:38Z</time>
      </trkpt>
      <trkpt lat="44.88743" lon="4.20547">
        <ele>1315.9</ele>
        <time>2022-03-21T08:55:40Z</time>
      </trkpt>
      <trkpt lat="44.88729" lon="4.20611">
        <ele>1310.75</ele>
        <time>2022-03-21T08:55:42Z</time>
      </trkpt>
      <trkpt lat="44.88721" lon="4.20628">
        <ele>1306.95</ele>
        <time>2022-03-21T08:55:43Z</time>
      </trkpt>
      <trkpt lat="44.88711" lon="4.20641">
        <ele>1303.53</ele>
        <time>2022-03-21T08:55:45Z</time>
      </trkpt>
      <trkpt lat="44.88696" lon="4.20643">
        <ele>1301.51</ele>
        <time>2022-03-21T08:55:47Z</time>
      </trkpt>
      <trkpt lat="44.88607" lon="4.20623">
        <ele>1296.39</ele>
        <time>2022-03-21T08:55:48Z</time>
      </trkpt>
      <trkpt lat="44.88597" lon="4.20617">
        <ele>1294.49</ele>
        <time>2022-03-21T08:55:50Z</time>
      </trkpt>
      <trkpt lat="44.88558" lon="4.20549">
        <ele>1300.13</ele>
        <time>2022-03-21T08:55:52Z</time>
      </trkpt>
      <trkpt lat="44.88554" lon="4.20544">
        <ele>1300.28</ele>
        <time>2022-03-21T08:55:53Z</time>
      </trkpt>
      <trkpt lat="44.8854" lon="4.20539">
        <ele>1299.16</ele>
        <time>2022-03-21T08:55:55Z</time>
      </trkpt>
      <trkpt lat="44.88533" lon="4.20541">
        <ele>1297.58</ele>
        <time>2022-03-21T08:55:57Z</time>
      </trkpt>
      <trkpt lat="44.88462" lon="4.20585">
        <ele>1286.56</ele>
        <time>2022-03-21T08:55:58Z</time>
      </trkpt>
      <trkpt lat="44.88407" lon="4.20613">
        <ele>1275.15</ele>
        <time>2022-03-21T08:56:00Z</time>
      </trkpt>
      <trkpt lat="44.88396" lon="4.20614">
        <ele>1272.55</ele>
        <time>2022-03-21T08:56:02Z</time>
      </trkpt>
      <trkpt lat="44.88396" lon="4.20613">
        <ele>1274.28</ele>
        <time>2022-03-21T08:56:02Z</time>
      </trkpt>
      <trkpt lat="44.88396" lon="4.20613">
        <ele>1274.28</ele>
        <time>2022-03-21T08:56:02Z</time>
      </trkpt>
      <trkpt lat="44.88399" lon="4.20591">
        <ele>1276</ele>
        <time>2022-03-21T08:56:03Z</time>
      </trkpt>
      <trkpt lat="44.88407" lon="4.20489">
        <ele>1286.42</ele>
        <time>2022-03-21T08:56:04Z</time>
      </trkpt>
      <trkpt lat="44.88404" lon="4.20448">
        <ele>1289.03</ele>
        <time>2022-03-21T08:56:06Z</time>
      </trkpt>
      <trkpt lat="44.88396" lon="4.20408">
        <ele>1292.08</ele>
        <time>2022-03-21T08:56:07Z</time>
      </trkpt>
      <trkpt lat="44.88375" lon="4.20368">
        <ele>1291.29</ele>
        <time>2022-03-21T08:56:09Z</time>
      </trkpt>
      <trkpt lat="44.88364" lon="4.20331">
        <ele>1293.35</ele>
        <time>2022-03-21T08:56:10Z</time>
      </trkpt>
      <trkpt lat="44.88357" lon="4.20291">
        <ele>1294.08</ele>
        <time>2022-03-21T08:56:11Z</time>
      </trkpt>
      <trkpt lat="44.88357" lon="4.20247">
        <ele>1295.77</ele>
        <time>2022-03-21T08:56:13Z</time>
      </trkpt>
      <trkpt lat="44.88361" lon="4.20206">
        <ele>1297.84</ele>
        <time>2022-03-21T08:56:14Z</time>
      </trkpt>
      <trkpt lat="44.88373" lon="4.20157">
        <ele>1300.26</ele>
        <time>2022-03-21T08:56:16Z</time>
      </trkpt>
      <trkpt lat="44.88385" lon="4.20135">
        <ele>1300.76</ele>
        <time>2022-03-21T08:56:17Z</time>
      </trkpt>
      <trkpt lat="44.88399" lon="4.20112">
        <ele>1302.41</ele>
        <time>2022-03-21T08:56:18Z</time>
      </trkpt>
      <trkpt lat="44.8843" lon="4.20072">
        <ele>1302.75</ele>
        <time>2022-03-21T08:56:20Z</time>
      </trkpt>
      <trkpt lat="44.88462" lon="4.20043">
        <ele>1307.76</ele>
        <time>2022-03-21T08:56:21Z</time>
      </trkpt>
      <trkpt lat="44.88469" lon="4.20032">
        <ele>1309.17</ele>
        <time>2022-03-21T08:56:22Z</time>
      </trkpt>
      <trkpt lat="44.88471" lon="4.20022">
        <ele>1309.46</ele>
        <time>2022-03-21T08:56:24Z</time>
      </trkpt>
      <trkpt lat="44.8847" lon="4.20011">
        <ele>1309.33</ele>
        <time>2022-03-21T08:56:25Z</time>
      </trkpt>
      <trkpt lat="44.88466" lon="4.2">
        <ele>1307.79</ele>
        <time>2022-03-21T08:56:27Z</time>
      </trkpt>
      <trkpt lat="44.88462" lon="4.19982">
        <ele>1309.51</ele>
        <time>2022-03-21T08:56:28Z</time>
      </trkpt>
      <trkpt lat="44.88453" lon="4.19934">
        <ele>1317.34</ele>
        <time>2022-03-21T08:56:29Z</time>
      </trkpt>
      <trkpt lat="44.88448" lon="4.19922">
        <ele>1318.74</ele>
        <time>2022-03-21T08:56:31Z</time>
      </trkpt>
      <trkpt lat="44.88442" lon="4.19913">
        <ele>1319.36</ele>
        <time>2022-03-21T08:56:32Z</time>
      </trkpt>
      <trkpt lat="44.88432" lon="4.19903">
        <ele>1319.92</ele>
        <time>2022-03-21T08:56:34Z</time>
      </trkpt>
      <trkpt lat="44.88421" lon="4.19894">
        <ele>1319.62</ele>
        <time>2022-03-21T08:56:35Z</time>
      </trkpt>
      <trkpt lat="44.8838" lon="4.19875">
        <ele>1317.25</ele>
        <time>2022-03-21T08:56:36Z</time>
      </trkpt>
      <trkpt lat="44.88367" lon="4.19866">
        <ele>1316.57</ele>
        <time>2022-03-21T08:56:38Z</time>
      </trkpt>
      <trkpt lat="44.88362" lon="4.19858">
        <ele>1316.35</ele>
        <time>2022-03-21T08:56:39Z</time>
      </trkpt>
      <trkpt lat="44.8836" lon="4.19849">
        <ele>1316.57</ele>
        <time>2022-03-21T08:56:41Z</time>
      </trkpt>
      <trkpt lat="44.88361" lon="4.19839">
        <ele>1317.48</ele>
        <time>2022-03-21T08:56:42Z</time>
      </trkpt>
      <trkpt lat="44.8837" lon="4.198">
        <ele>1323.17</ele>
        <time>2022-03-21T08:56:43Z</time>
      </trkpt>
      <trkpt lat="44.88377" lon="4.1975">
        <ele>1326.67</ele>
        <time>2022-03-21T08:56:45Z</time>
      </trkpt>
      <trkpt lat="44.88376" lon="4.1971">
        <ele>1330.32</ele>
        <time>2022-03-21T08:56:46Z</time>
      </trkpt>
      <trkpt lat="44.88371" lon="4.19616">
        <ele>1334.28</ele>
        <time>2022-03-21T08:56:47Z</time>
      </trkpt>
      <trkpt lat="44.88368" lon="4.19607">
        <ele>1334.99</ele>
        <time>2022-03-21T08:56:49Z</time>
      </trkpt>
      <trkpt lat="44.88363" lon="4.19599">
        <ele>1334.4</ele>
        <time>2022-03-21T08:56:50Z</time>
      </trkpt>
      <trkpt lat="44.88322" lon="4.1956">
        <ele>1323.76</ele>
        <time>2022-03-21T08:56:52Z</time>
      </trkpt>
      <trkpt lat="44.88313" lon="4.19545">
        <ele>1325.07</ele>
        <time>2022-03-21T08:56:53Z</time>
      </trkpt>
      <trkpt lat="44.88309" lon="4.19528">
        <ele>1329.24</ele>
        <time>2022-03-21T08:56:54Z</time>
      </trkpt>
      <trkpt lat="44.8831" lon="4.19484">
        <ele>1335.57</ele>
        <time>2022-03-21T08:56:56Z</time>
      </trkpt>
      <trkpt lat="44.88309" lon="4.19468">
        <ele>1336.41</ele>
        <time>2022-03-21T08:56:57Z</time>
      </trkpt>
      <trkpt lat="44.88305" lon="4.19455">
        <ele>1336.26</ele>
        <time>2022-03-21T08:56:59Z</time>
      </trkpt>
      <trkpt lat="44.88288" lon="4.19413">
        <ele>1338.91</ele>
        <time>2022-03-21T08:57:00Z</time>
      </trkpt>
      <trkpt lat="44.88276" lon="4.19361">
        <ele>1345.33</ele>
        <time>2022-03-21T08:57:01Z</time>
      </trkpt>
      <trkpt lat="44.88265" lon="4.19321">
        <ele>1344.39</ele>
        <time>2022-03-21T08:57:03Z</time>
      </trkpt>
      <trkpt lat="44.88264" lon="4.1928">
        <ele>1348.3</ele>
        <time>2022-03-21T08:57:04Z</time>
      </trkpt>
      <trkpt lat="44.88258" lon="4.19236">
        <ele>1348.27</ele>
        <time>2022-03-21T08:57:06Z</time>
      </trkpt>
      <trkpt lat="44.88257" lon="4.19202">
        <ele>1343.43</ele>
        <time>2022-03-21T08:57:07Z</time>
      </trkpt>
      <trkpt lat="44.88259" lon="4.19172">
        <ele>1342.27</ele>
        <time>2022-03-21T08:57:08Z</time>
      </trkpt>
      <trkpt lat="44.88265" lon="4.19133">
        <ele>1350.83</ele>
        <time>2022-03-21T08:57:10Z</time>
      </trkpt>
      <trkpt lat="44.88262" lon="4.19116">
        <ele>1355.83</ele>
        <time>2022-03-21T08:57:11Z</time>
      </trkpt>
      <trkpt lat="44.88254" lon="4.19102">
        <ele>1357.59</ele>
        <time>2022-03-21T08:57:13Z</time>
      </trkpt>
      <trkpt lat="44.88232" lon="4.1908">
        <ele>1356.55</ele>
        <time>2022-03-21T08:57:14Z</time>
      </trkpt>
      <trkpt lat="44.882" lon="4.19067">
        <ele>1348.13</ele>
        <time>2022-03-21T08:57:15Z</time>
      </trkpt>
      <trkpt lat="44.88171" lon="4.19045">
        <ele>1346.17</ele>
        <time>2022-03-21T08:57:17Z</time>
      </trkpt>
      <trkpt lat="44.88163" lon="4.19034">
        <ele>1345.29</ele>
        <time>2022-03-21T08:57:18Z</time>
      </trkpt>
      <trkpt lat="44.88146" lon="4.1899">
        <ele>1344.76</ele>
        <time>2022-03-21T08:57:19Z</time>
      </trkpt>
      <trkpt lat="44.88138" lon="4.18962">
        <ele>1344.84</ele>
        <time>2022-03-21T08:57:21Z</time>
      </trkpt>
      <trkpt lat="44.88136" lon="4.18933">
        <ele>1344.83</ele>
        <time>2022-03-21T08:57:22Z</time>
      </trkpt>
      <trkpt lat="44.88136" lon="4.18904">
        <ele>1347.96</ele>
        <time>2022-03-21T08:57:24Z</time>
      </trkpt>
      <trkpt lat="44.88143" lon="4.18835">
        <ele>1350.97</ele>
        <time>2022-03-21T08:57:25Z</time>
      </trkpt>
      <trkpt lat="44.88148" lon="4.18803">
        <ele>1351.93</ele>
        <time>2022-03-21T08:57:26Z</time>
      </trkpt>
      <trkpt lat="44.88178" lon="4.18717">
        <ele>1360.58</ele>
        <time>2022-03-21T08:57:28Z</time>
      </trkpt>
      <trkpt lat="44.8818" lon="4.18706">
        <ele>1362.23</ele>
        <time>2022-03-21T08:57:29Z</time>
      </trkpt>
      <trkpt lat="44.88174" lon="4.18688">
        <ele>1364.78</ele>
        <time>2022-03-21T08:57:31Z</time>
      </trkpt>
      <trkpt lat="44.88164" lon="4.18685">
        <ele>1365.44</ele>
        <time>2022-03-21T08:57:32Z</time>
      </trkpt>
      <trkpt lat="44.88155" lon="4.18684">
        <ele>1365.25</ele>
        <time>2022-03-21T08:57:33Z</time>
      </trkpt>
      <trkpt lat="44.88119" lon="4.18697">
        <ele>1361.16</ele>
        <time>2022-03-21T08:57:35Z</time>
      </trkpt>
      <trkpt lat="44.88104" lon="4.18696">
        <ele>1361.84</ele>
        <time>2022-03-21T08:57:36Z</time>
      </trkpt>
      <trkpt lat="44.8806" lon="4.18679">
        <ele>1364.85</ele>
        <time>2022-03-21T08:57:38Z</time>
      </trkpt>
      <trkpt lat="44.88039" lon="4.18665">
        <ele>1363.87</ele>
        <time>2022-03-21T08:57:39Z</time>
      </trkpt>
      <trkpt lat="44.88031" lon="4.18651">
        <ele>1364.13</ele>
        <time>2022-03-21T08:57:40Z</time>
      </trkpt>
      <trkpt lat="44.88027" lon="4.18633">
        <ele>1365.14</ele>
        <time>2022-03-21T08:57:42Z</time>
      </trkpt>
      <trkpt lat="44.88039" lon="4.18548">
        <ele>1368.73</ele>
        <time>2022-03-21T08:57:43Z</time>
      </trkpt>
      <trkpt lat="44.88044" lon="4.18502">
        <ele>1372.68</ele>
        <time>2022-03-21T08:57:45Z</time>
      </trkpt>
      <trkpt lat="44.88043" lon="4.18457">
        <ele>1375.69</ele>
        <time>2022-03-21T08:57:46Z</time>
      </trkpt>
      <trkpt lat="44.88039" lon="4.18444">
        <ele>1374.99</ele>
        <time>2022-03-21T08:57:47Z</time>
      </trkpt>
      <trkpt lat="44.8803" lon="4.18432">
        <ele>1373.2</ele>
        <time>2022-03-21T08:57:49Z</time>
      </trkpt>
      <trkpt lat="44.87997" lon="4.18409">
        <ele>1370.09</ele>
        <time>2022-03-21T08:57:50Z</time>
      </trkpt>
      <trkpt lat="44.87974" lon="4.18397">
        <ele>1371.52</ele>
        <time>2022-03-21T08:57:51Z</time>
      </trkpt>
      <trkpt lat="44.87925" lon="4.18402">
        <ele>1371.49</ele>
        <time>2022-03-21T08:57:53Z</time>
      </trkpt>
      <trkpt lat="44.87917" lon="4.18408">
        <ele>1371.24</ele>
        <time>2022-03-21T08:57:54Z</time>
      </trkpt>
      <trkpt lat="44.87905" lon="4.18437">
        <ele>1368.61</ele>
        <time>2022-03-21T08:57:56Z</time>
      </trkpt>
      <trkpt lat="44.87894" lon="4.18452">
        <ele>1367.96</ele>
        <time>2022-03-21T08:57:57Z</time>
      </trkpt>
      <trkpt lat="44.87878" lon="4.18464">
        <ele>1368.36</ele>
        <time>2022-03-21T08:57:58Z</time>
      </trkpt>
      <trkpt lat="44.87828" lon="4.18476">
        <ele>1374.34</ele>
        <time>2022-03-21T08:58:00Z</time>
      </trkpt>
      <trkpt lat="44.87822" lon="4.1848">
        <ele>1374.83</ele>
        <time>2022-03-21T08:58:01Z</time>
      </trkpt>
      <trkpt lat="44.8782" lon="4.18491">
        <ele>1374.33</ele>
        <time>2022-03-21T08:58:03Z</time>
      </trkpt>
      <trkpt lat="44.87814" lon="4.18552">
        <ele>1376.53</ele>
        <time>2022-03-21T08:58:04Z</time>
      </trkpt>
      <trkpt lat="44.87815" lon="4.1857">
        <ele>1378.84</ele>
        <time>2022-03-21T08:58:05Z</time>
      </trkpt>
      <trkpt lat="44.87819" lon="4.18587">
        <ele>1379.66</ele>
        <time>2022-03-21T08:58:07Z</time>
      </trkpt>
      <trkpt lat="44.87818" lon="4.18593">
        <ele>1381.37</ele>
        <time>2022-03-21T08:58:08Z</time>
      </trkpt>
      <trkpt lat="44.87813" lon="4.18596">
        <ele>1383.81</ele>
        <time>2022-03-21T08:58:10Z</time>
      </trkpt>
      <trkpt lat="44.87807" lon="4.18593">
        <ele>1385.71</ele>
        <time>2022-03-21T08:58:11Z</time>
      </trkpt>
      <trkpt lat="44.87801" lon="4.18582">
        <ele>1386.48</ele>
        <time>2022-03-21T08:58:12Z</time>
      </trkpt>
      <trkpt lat="44.87797" lon="4.18563">
        <ele>1384.45</ele>
        <time>2022-03-21T08:58:14Z</time>
      </trkpt>
      <trkpt lat="44.87787" lon="4.18453">
        <ele>1381.86</ele>
        <time>2022-03-21T08:58:15Z</time>
      </trkpt>
      <trkpt lat="44.87785" lon="4.18434">
        <ele>1383.94</ele>
        <time>2022-03-21T08:58:17Z</time>
      </trkpt>
      <trkpt lat="44.87781" lon="4.18417">
        <ele>1386</ele>
        <time>2022-03-21T08:58:18Z</time>
      </trkpt>
      <trkpt lat="44.87661" lon="4.18194">
        <ele>1381.22</ele>
        <time>2022-03-21T08:58:19Z</time>
      </trkpt>
      <trkpt lat="44.87648" lon="4.18178">
        <ele>1380.03</ele>
        <time>2022-03-21T08:58:21Z</time>
      </trkpt>
      <trkpt lat="44.876" lon="4.18134">
        <ele>1376.99</ele>
        <time>2022-03-21T08:58:22Z</time>
      </trkpt>
      <trkpt lat="44.87476" lon="4.17997">
        <ele>1364.22</ele>
        <time>2022-03-21T08:58:23Z</time>
      </trkpt>
      <trkpt lat="44.87413" lon="4.17952">
        <ele>1365.88</ele>
        <time>2022-03-21T08:58:25Z</time>
      </trkpt>
      <trkpt lat="44.87386" lon="4.17934">
        <ele>1364.48</ele>
        <time>2022-03-21T08:58:26Z</time>
      </trkpt>
      <trkpt lat="44.87364" lon="4.17923">
        <ele>1363.7</ele>
        <time>2022-03-21T08:58:28Z</time>
      </trkpt>
      <trkpt lat="44.87388" lon="4.17954">
        <ele>1361.15</ele>
        <time>2022-03-21T08:58:29Z</time>
      </trkpt>
      <trkpt lat="44.87405" lon="4.17968">
        <ele>1361.11</ele>
        <time>2022-03-21T08:58:30Z</time>
      </trkpt>
      <trkpt lat="44.87422" lon="4.17986">
        <ele>1360.31</ele>
        <time>2022-03-21T08:58:31Z</time>
      </trkpt>
      <trkpt lat="44.87436" lon="4.18003">
        <ele>1359.11</ele>
        <time>2022-03-21T08:58:32Z</time>
      </trkpt>
      <trkpt lat="44.87454" lon="4.18032">
        <ele>1357.3</ele>
        <time>2022-03-21T08:58:33Z</time>
      </trkpt>
      <trkpt lat="44.87465" lon="4.18061">
        <ele>1359.32</ele>
        <time>2022-03-21T08:58:34Z</time>
      </trkpt>
      <trkpt lat="44.87458" lon="4.18061">
        <ele>1358.21</ele>
        <time>2022-03-21T08:58:36Z</time>
      </trkpt>
      <trkpt lat="44.87434" lon="4.18032">
        <ele>1354.56</ele>
        <time>2022-03-21T08:58:38Z</time>
      </trkpt>
      <trkpt lat="44.87255" lon="4.179">
        <ele>1343.04</ele>
        <time>2022-03-21T08:58:41Z</time>
      </trkpt>
      <trkpt lat="44.87229" lon="4.17873">
        <ele>1335.57</ele>
        <time>2022-03-21T08:58:43Z</time>
      </trkpt>
      <trkpt lat="44.87211" lon="4.17844">
        <ele>1332.24</ele>
        <time>2022-03-21T08:58:45Z</time>
      </trkpt>
      <trkpt lat="44.87207" lon="4.17826">
        <ele>1331.59</ele>
        <time>2022-03-21T08:58:47Z</time>
      </trkpt>
      <trkpt lat="44.87205" lon="4.1781">
        <ele>1331.38</ele>
        <time>2022-03-21T08:58:49Z</time>
      </trkpt>
      <trkpt lat="44.87209" lon="4.17775">
        <ele>1333.76</ele>
        <time>2022-03-21T08:58:51Z</time>
      </trkpt>
      <trkpt lat="44.87209" lon="4.1775">
        <ele>1335.7</ele>
        <time>2022-03-21T08:58:53Z</time>
      </trkpt>
      <trkpt lat="44.87206" lon="4.17729">
        <ele>1336.65</ele>
        <time>2022-03-21T08:58:55Z</time>
      </trkpt>
      <trkpt lat="44.87192" lon="4.17691">
        <ele>1332.05</ele>
        <time>2022-03-21T08:58:57Z</time>
      </trkpt>
      <trkpt lat="44.8718" lon="4.17648">
        <ele>1325.32</ele>
        <time>2022-03-21T08:58:59Z</time>
      </trkpt>
      <trkpt lat="44.87165" lon="4.17569">
        <ele>1318.43</ele>
        <time>2022-03-21T08:59:02Z</time>
      </trkpt>
      <trkpt lat="44.87165" lon="4.17503">
        <ele>1314.74</ele>
        <time>2022-03-21T08:59:04Z</time>
      </trkpt>
      <trkpt lat="44.87163" lon="4.17498">
        <ele>1313.72</ele>
        <time>2022-03-21T08:59:06Z</time>
      </trkpt>
      <trkpt lat="44.8716" lon="4.17495">
        <ele>1312.61</ele>
        <time>2022-03-21T08:59:08Z</time>
      </trkpt>
      <trkpt lat="44.87156" lon="4.17495">
        <ele>1311.71</ele>
        <time>2022-03-21T08:59:10Z</time>
      </trkpt>
      <trkpt lat="44.87152" lon="4.17498">
        <ele>1311.09</ele>
        <time>2022-03-21T08:59:12Z</time>
      </trkpt>
      <trkpt lat="44.87149" lon="4.17507">
        <ele>1310.58</ele>
        <time>2022-03-21T08:59:14Z</time>
      </trkpt>
      <trkpt lat="44.87135" lon="4.1761">
        <ele>1310.02</ele>
        <time>2022-03-21T08:59:16Z</time>
      </trkpt>
      <trkpt lat="44.87134" lon="4.1764">
        <ele>1310.02</ele>
        <time>2022-03-21T08:59:18Z</time>
      </trkpt>
      <trkpt lat="44.87136" lon="4.17683">
        <ele>1312.7</ele>
        <time>2022-03-21T08:59:20Z</time>
      </trkpt>
      <trkpt lat="44.8714" lon="4.17711">
        <ele>1315.34</ele>
        <time>2022-03-21T08:59:23Z</time>
      </trkpt>
      <trkpt lat="44.87137" lon="4.17721">
        <ele>1315.58</ele>
        <time>2022-03-21T08:59:25Z</time>
      </trkpt>
      <trkpt lat="44.87119" lon="4.17765">
        <ele>1316.1</ele>
        <time>2022-03-21T08:59:27Z</time>
      </trkpt>
      <trkpt lat="44.87112" lon="4.17769">
        <ele>1315.49</ele>
        <time>2022-03-21T08:59:29Z</time>
      </trkpt>
      <trkpt lat="44.86996" lon="4.17787">
        <ele>1307.48</ele>
        <time>2022-03-21T08:59:31Z</time>
      </trkpt>
      <trkpt lat="44.86988" lon="4.17785">
        <ele>1308.47</ele>
        <time>2022-03-21T08:59:33Z</time>
      </trkpt>
      <trkpt lat="44.86981" lon="4.17786">
        <ele>1309.44</ele>
        <time>2022-03-21T08:59:35Z</time>
      </trkpt>
      <trkpt lat="44.86946" lon="4.17805">
        <ele>1317.73</ele>
        <time>2022-03-21T08:59:37Z</time>
      </trkpt>
      <trkpt lat="44.8691" lon="4.17817">
        <ele>1323.18</ele>
        <time>2022-03-21T08:59:39Z</time>
      </trkpt>
      <trkpt lat="44.869" lon="4.17824">
        <ele>1322.28</ele>
        <time>2022-03-21T08:59:41Z</time>
      </trkpt>
      <trkpt lat="44.86891" lon="4.17835">
        <ele>1320.78</ele>
        <time>2022-03-21T08:59:44Z</time>
      </trkpt>
      <trkpt lat="44.86877" lon="4.1786">
        <ele>1319.9</ele>
        <time>2022-03-21T08:59:46Z</time>
      </trkpt>
      <trkpt lat="44.86872" lon="4.17865">
        <ele>1320.38</ele>
        <time>2022-03-21T08:59:48Z</time>
      </trkpt>
      <trkpt lat="44.86868" lon="4.17867">
        <ele>1320.78</ele>
        <time>2022-03-21T08:59:50Z</time>
      </trkpt>
      <trkpt lat="44.86832" lon="4.17863">
        <ele>1324.24</ele>
        <time>2022-03-21T08:59:52Z</time>
      </trkpt>
      <trkpt lat="44.86803" lon="4.17845">
        <ele>1326.66</ele>
        <time>2022-03-21T08:59:54Z</time>
      </trkpt>
      <trkpt lat="44.86796" lon="4.17842">
        <ele>1326.91</ele>
        <time>2022-03-21T08:59:56Z</time>
      </trkpt>
      <trkpt lat="44.8678" lon="4.17846">
        <ele>1327.37</ele>
        <time>2022-03-21T08:59:58Z</time>
      </trkpt>
      <trkpt lat="44.86734" lon="4.17875">
        <ele>1332.95</ele>
        <time>2022-03-21T09:00:00Z</time>
      </trkpt>
      <trkpt lat="44.86711" lon="4.17886">
        <ele>1337.25</ele>
        <time>2022-03-21T09:00:02Z</time>
      </trkpt>
      <trkpt lat="44.86701" lon="4.17888">
        <ele>1338.85</ele>
        <time>2022-03-21T09:00:05Z</time>
      </trkpt>
      <trkpt lat="44.86694" lon="4.17887">
        <ele>1340.41</ele>
        <time>2022-03-21T09:00:07Z</time>
      </trkpt>
      <trkpt lat="44.8669" lon="4.17883">
        <ele>1341.96</ele>
        <time>2022-03-21T09:00:09Z</time>
      </trkpt>
      <trkpt lat="44.86685" lon="4.17868">
        <ele>1344.96</ele>
        <time>2022-03-21T09:00:11Z</time>
      </trkpt>
      <trkpt lat="44.86682" lon="4.17811">
        <ele>1348.85</ele>
        <time>2022-03-21T09:00:13Z</time>
      </trkpt>
      <trkpt lat="44.86684" lon="4.17783">
        <ele>1350.81</ele>
        <time>2022-03-21T09:00:15Z</time>
      </trkpt>
      <trkpt lat="44.86701" lon="4.17706">
        <ele>1350.5</ele>
        <time>2022-03-21T09:00:17Z</time>
      </trkpt>
      <trkpt lat="44.86706" lon="4.17679">
        <ele>1350.31</ele>
        <time>2022-03-21T09:00:19Z</time>
      </trkpt>
      <trkpt lat="44.8671" lon="4.17666">
        <ele>1350.22</ele>
        <time>2022-03-21T09:00:21Z</time>
      </trkpt>
      <trkpt lat="44.8672" lon="4.17645">
        <ele>1351.36</ele>
        <time>2022-03-21T09:00:23Z</time>
      </trkpt>
      <trkpt lat="44.86744" lon="4.17607">
        <ele>1351.2</ele>
        <time>2022-03-21T09:00:26Z</time>
      </trkpt>
      <trkpt lat="44.86748" lon="4.17594">
        <ele>1351.45</ele>
        <time>2022-03-21T09:00:28Z</time>
      </trkpt>
      <trkpt lat="44.86749" lon="4.17585">
        <ele>1352.01</ele>
        <time>2022-03-21T09:00:30Z</time>
      </trkpt>
      <trkpt lat="44.86747" lon="4.17575">
        <ele>1352.28</ele>
        <time>2022-03-21T09:00:32Z</time>
      </trkpt>
      <trkpt lat="44.86742" lon="4.17564">
        <ele>1352.84</ele>
        <time>2022-03-21T09:00:34Z</time>
      </trkpt>
      <trkpt lat="44.8673" lon="4.17545">
        <ele>1354.16</ele>
        <time>2022-03-21T09:00:36Z</time>
      </trkpt>
      <trkpt lat="44.86721" lon="4.17535">
        <ele>1355.16</ele>
        <time>2022-03-21T09:00:38Z</time>
      </trkpt>
      <trkpt lat="44.86719" lon="4.1753">
        <ele>1355.43</ele>
        <time>2022-03-21T09:00:40Z</time>
      </trkpt>
      <trkpt lat="44.8672" lon="4.17512">
        <ele>1355.88</ele>
        <time>2022-03-21T09:00:42Z</time>
      </trkpt>
      <trkpt lat="44.86726" lon="4.17495">
        <ele>1355.47</ele>
        <time>2022-03-21T09:00:44Z</time>
      </trkpt>
      <trkpt lat="44.86726" lon="4.17485">
        <ele>1355.67</ele>
        <time>2022-03-21T09:00:47Z</time>
      </trkpt>
      <trkpt lat="44.86725" lon="4.17476">
        <ele>1356.21</ele>
        <time>2022-03-21T09:00:49Z</time>
      </trkpt>
      <trkpt lat="44.86721" lon="4.17465">
        <ele>1357.16</ele>
        <time>2022-03-21T09:00:51Z</time>
      </trkpt>
      <trkpt lat="44.86713" lon="4.17455">
        <ele>1358.49</ele>
        <time>2022-03-21T09:00:53Z</time>
      </trkpt>
      <trkpt lat="44.86674" lon="4.17417">
        <ele>1363.76</ele>
        <time>2022-03-21T09:00:55Z</time>
      </trkpt>
      <trkpt lat="44.86669" lon="4.17409">
        <ele>1365.07</ele>
        <time>2022-03-21T09:00:57Z</time>
      </trkpt>
      <trkpt lat="44.86667" lon="4.17401">
        <ele>1366.09</ele>
        <time>2022-03-21T09:00:59Z</time>
      </trkpt>
      <trkpt lat="44.86668" lon="4.17392">
        <ele>1366.59</ele>
        <time>2022-03-21T09:01:01Z</time>
      </trkpt>
      <trkpt lat="44.86672" lon="4.17386">
        <ele>1366.7</ele>
        <time>2022-03-21T09:01:03Z</time>
      </trkpt>
      <trkpt lat="44.86682" lon="4.17372">
        <ele>1366.84</ele>
        <time>2022-03-21T09:01:05Z</time>
      </trkpt>
      <trkpt lat="44.86713" lon="4.17342">
        <ele>1365.35</ele>
        <time>2022-03-21T09:01:08Z</time>
      </trkpt>
      <trkpt lat="44.86717" lon="4.17335">
        <ele>1365.57</ele>
        <time>2022-03-21T09:01:10Z</time>
      </trkpt>
      <trkpt lat="44.86719" lon="4.17327">
        <ele>1365.83</ele>
        <time>2022-03-21T09:01:12Z</time>
      </trkpt>
      <trkpt lat="44.86718" lon="4.17302">
        <ele>1367.18</ele>
        <time>2022-03-21T09:01:14Z</time>
      </trkpt>
      <trkpt lat="44.86691" lon="4.17175">
        <ele>1372.95</ele>
        <time>2022-03-21T09:01:16Z</time>
      </trkpt>
      <trkpt lat="44.86681" lon="4.17142">
        <ele>1374.19</ele>
        <time>2022-03-21T09:01:18Z</time>
      </trkpt>
      <trkpt lat="44.86673" lon="4.17128">
        <ele>1375.03</ele>
        <time>2022-03-21T09:01:20Z</time>
      </trkpt>
      <trkpt lat="44.86636" lon="4.17075">
        <ele>1379.81</ele>
        <time>2022-03-21T09:01:22Z</time>
      </trkpt>
      <trkpt lat="44.86614" lon="4.17048">
        <ele>1384.95</ele>
        <time>2022-03-21T09:01:24Z</time>
      </trkpt>
      <trkpt lat="44.866" lon="4.17026">
        <ele>1387.81</ele>
        <time>2022-03-21T09:01:26Z</time>
      </trkpt>
      <trkpt lat="44.86595" lon="4.17013">
        <ele>1387.63</ele>
        <time>2022-03-21T09:01:29Z</time>
      </trkpt>
      <trkpt lat="44.86593" lon="4.17">
        <ele>1386.48</ele>
        <time>2022-03-21T09:01:31Z</time>
      </trkpt>
      <trkpt lat="44.86592" lon="4.16978">
        <ele>1385.32</ele>
        <time>2022-03-21T09:01:33Z</time>
      </trkpt>
      <trkpt lat="44.86588" lon="4.16967">
        <ele>1385.46</ele>
        <time>2022-03-21T09:01:35Z</time>
      </trkpt>
      <trkpt lat="44.86584" lon="4.1696">
        <ele>1386.06</ele>
        <time>2022-03-21T09:01:37Z</time>
      </trkpt>
      <trkpt lat="44.8655" lon="4.16936">
        <ele>1389.72</ele>
        <time>2022-03-21T09:01:39Z</time>
      </trkpt>
      <trkpt lat="44.86532" lon="4.16922">
        <ele>1393.43</ele>
        <time>2022-03-21T09:01:41Z</time>
      </trkpt>
      <trkpt lat="44.86519" lon="4.16909">
        <ele>1397.49</ele>
        <time>2022-03-21T09:01:43Z</time>
      </trkpt>
      <trkpt lat="44.86509" lon="4.16892">
        <ele>1400.9</ele>
        <time>2022-03-21T09:01:45Z</time>
      </trkpt>
      <trkpt lat="44.86499" lon="4.16871">
        <ele>1403.69</ele>
        <time>2022-03-21T09:01:47Z</time>
      </trkpt>
      <trkpt lat="44.86495" lon="4.16857">
        <ele>1404.37</ele>
        <time>2022-03-21T09:01:50Z</time>
      </trkpt>
      <trkpt lat="44.86493" lon="4.16841">
        <ele>1403.28</ele>
        <time>2022-03-21T09:01:52Z</time>
      </trkpt>
      <trkpt lat="44.86495" lon="4.16779">
        <ele>1402.34</ele>
        <time>2022-03-21T09:01:54Z</time>
      </trkpt>
      <trkpt lat="44.86499" lon="4.16736">
        <ele>1407.5</ele>
        <time>2022-03-21T09:01:56Z</time>
      </trkpt>
      <trkpt lat="44.86499" lon="4.16724">
        <ele>1409.15</ele>
        <time>2022-03-21T09:01:58Z</time>
      </trkpt>
      <trkpt lat="44.86472" lon="4.16603">
        <ele>1413.8</ele>
        <time>2022-03-21T09:02:00Z</time>
      </trkpt>
      <trkpt lat="44.86461" lon="4.16562">
        <ele>1415.86</ele>
        <time>2022-03-21T09:02:02Z</time>
      </trkpt>
      <trkpt lat="44.8646" lon="4.16547">
        <ele>1416.47</ele>
        <time>2022-03-21T09:02:04Z</time>
      </trkpt>
      <trkpt lat="44.86458" lon="4.16492">
        <ele>1420.2</ele>
        <time>2022-03-21T09:02:06Z</time>
      </trkpt>
      <trkpt lat="44.8646" lon="4.16479">
        <ele>1421.46</ele>
        <time>2022-03-21T09:02:08Z</time>
      </trkpt>
      <trkpt lat="44.86466" lon="4.16468">
        <ele>1421.01</ele>
        <time>2022-03-21T09:02:11Z</time>
      </trkpt>
      <trkpt lat="44.86506" lon="4.16428">
        <ele>1414.91</ele>
        <time>2022-03-21T09:02:13Z</time>
      </trkpt>
      <trkpt lat="44.86533" lon="4.16387">
        <ele>1415.07</ele>
        <time>2022-03-21T09:02:15Z</time>
      </trkpt>
      <trkpt lat="44.86543" lon="4.16367">
        <ele>1413.73</ele>
        <time>2022-03-21T09:02:17Z</time>
      </trkpt>
      <trkpt lat="44.86548" lon="4.16348">
        <ele>1412.25</ele>
        <time>2022-03-21T09:02:19Z</time>
      </trkpt>
      <trkpt lat="44.86551" lon="4.16317">
        <ele>1410.35</ele>
        <time>2022-03-21T09:02:21Z</time>
      </trkpt>
      <trkpt lat="44.86549" lon="4.16302">
        <ele>1410.02</ele>
        <time>2022-03-21T09:02:23Z</time>
      </trkpt>
      <trkpt lat="44.86544" lon="4.16286">
        <ele>1409.76</ele>
        <time>2022-03-21T09:02:25Z</time>
      </trkpt>
      <trkpt lat="44.86519" lon="4.16228">
        <ele>1407.26</ele>
        <time>2022-03-21T09:02:27Z</time>
      </trkpt>
      <trkpt lat="44.86512" lon="4.16215">
        <ele>1406.17</ele>
        <time>2022-03-21T09:02:29Z</time>
      </trkpt>
      <trkpt lat="44.86488" lon="4.16176">
        <ele>1404.92</ele>
        <time>2022-03-21T09:02:32Z</time>
      </trkpt>
      <trkpt lat="44.86451" lon="4.16123">
        <ele>1400.86</ele>
        <time>2022-03-21T09:02:34Z</time>
      </trkpt>
      <trkpt lat="44.86401" lon="4.16036">
        <ele>1392.41</ele>
        <time>2022-03-21T09:02:36Z</time>
      </trkpt>
      <trkpt lat="44.86331" lon="4.15949">
        <ele>1396.36</ele>
        <time>2022-03-21T09:02:38Z</time>
      </trkpt>
      <trkpt lat="44.86327" lon="4.15939">
        <ele>1397.78</ele>
        <time>2022-03-21T09:02:40Z</time>
      </trkpt>
      <trkpt lat="44.86326" lon="4.1593">
        <ele>1398.61</ele>
        <time>2022-03-21T09:02:42Z</time>
      </trkpt>
      <trkpt lat="44.86329" lon="4.15911">
        <ele>1398.48</ele>
        <time>2022-03-21T09:02:44Z</time>
      </trkpt>
      <trkpt lat="44.86339" lon="4.15891">
        <ele>1396.61</ele>
        <time>2022-03-21T09:02:46Z</time>
      </trkpt>
      <trkpt lat="44.86355" lon="4.15867">
        <ele>1396.87</ele>
        <time>2022-03-21T09:02:48Z</time>
      </trkpt>
      <trkpt lat="44.8638" lon="4.15836">
        <ele>1398.96</ele>
        <time>2022-03-21T09:02:50Z</time>
      </trkpt>
      <trkpt lat="44.86392" lon="4.15813">
        <ele>1400.49</ele>
        <time>2022-03-21T09:02:53Z</time>
      </trkpt>
      <trkpt lat="44.86445" lon="4.15657">
        <ele>1401.99</ele>
        <time>2022-03-21T09:02:55Z</time>
      </trkpt>
      <trkpt lat="44.8646" lon="4.15621">
        <ele>1398.98</ele>
        <time>2022-03-21T09:02:57Z</time>
      </trkpt>
      <trkpt lat="44.86461" lon="4.15612">
        <ele>1398.09</ele>
        <time>2022-03-21T09:02:59Z</time>
      </trkpt>
      <trkpt lat="44.8646" lon="4.15605">
        <ele>1397.01</ele>
        <time>2022-03-21T09:03:01Z</time>
      </trkpt>
      <trkpt lat="44.86453" lon="4.15594">
        <ele>1395.06</ele>
        <time>2022-03-21T09:03:03Z</time>
      </trkpt>
      <trkpt lat="44.8641" lon="4.15575">
        <ele>1393.36</ele>
        <time>2022-03-21T09:03:05Z</time>
      </trkpt>
      <trkpt lat="44.86399" lon="4.15572">
        <ele>1393.34</ele>
        <time>2022-03-21T09:03:07Z</time>
      </trkpt>
      <trkpt lat="44.86388" lon="4.15571">
        <ele>1393.61</ele>
        <time>2022-03-21T09:03:09Z</time>
      </trkpt>
      <trkpt lat="44.86373" lon="4.15572">
        <ele>1394.06</ele>
        <time>2022-03-21T09:03:11Z</time>
      </trkpt>
      <trkpt lat="44.86317" lon="4.15604">
        <ele>1403.39</ele>
        <time>2022-03-21T09:03:14Z</time>
      </trkpt>
      <trkpt lat="44.86299" lon="4.15611">
        <ele>1405.93</ele>
        <time>2022-03-21T09:03:16Z</time>
      </trkpt>
      <trkpt lat="44.86287" lon="4.15613">
        <ele>1407.92</ele>
        <time>2022-03-21T09:03:18Z</time>
      </trkpt>
      <trkpt lat="44.86281" lon="4.15612">
        <ele>1408.56</ele>
        <time>2022-03-21T09:03:20Z</time>
      </trkpt>
      <trkpt lat="44.86278" lon="4.15608">
        <ele>1408.74</ele>
        <time>2022-03-21T09:03:22Z</time>
      </trkpt>
      <trkpt lat="44.86274" lon="4.15603">
        <ele>1408.65</ele>
        <time>2022-03-21T09:03:24Z</time>
      </trkpt>
      <trkpt lat="44.8625" lon="4.15529">
        <ele>1401.38</ele>
        <time>2022-03-21T09:03:26Z</time>
      </trkpt>
      <trkpt lat="44.86241" lon="4.15514">
        <ele>1398.86</ele>
        <time>2022-03-21T09:03:28Z</time>
      </trkpt>
      <trkpt lat="44.86226" lon="4.15497">
        <ele>1396.75</ele>
        <time>2022-03-21T09:03:30Z</time>
      </trkpt>
      <trkpt lat="44.8622" lon="4.15494">
        <ele>1397.04</ele>
        <time>2022-03-21T09:03:32Z</time>
      </trkpt>
      <trkpt lat="44.86202" lon="4.15492">
        <ele>1399.72</ele>
        <time>2022-03-21T09:03:35Z</time>
      </trkpt>
      <trkpt lat="44.86195" lon="4.15488">
        <ele>1399.98</ele>
        <time>2022-03-21T09:03:37Z</time>
      </trkpt>
      <trkpt lat="44.8615" lon="4.15419">
        <ele>1395.99</ele>
        <time>2022-03-21T09:03:39Z</time>
      </trkpt>
      <trkpt lat="44.86126" lon="4.15379">
        <ele>1395.34</ele>
        <time>2022-03-21T09:03:41Z</time>
      </trkpt>
      <trkpt lat="44.86092" lon="4.15334">
        <ele>1392.45</ele>
        <time>2022-03-21T09:03:43Z</time>
      </trkpt>
      <trkpt lat="44.86078" lon="4.15309">
        <ele>1388.4</ele>
        <time>2022-03-21T09:03:45Z</time>
      </trkpt>
      <trkpt lat="44.85998" lon="4.1521">
        <ele>1385.2</ele>
        <time>2022-03-21T09:03:47Z</time>
      </trkpt>
      <trkpt lat="44.85959" lon="4.15156">
        <ele>1384.39</ele>
        <time>2022-03-21T09:03:49Z</time>
      </trkpt>
      <trkpt lat="44.85944" lon="4.15131">
        <ele>1384.41</ele>
        <time>2022-03-21T09:03:51Z</time>
      </trkpt>
      <trkpt lat="44.85908" lon="4.15061">
        <ele>1381.24</ele>
        <time>2022-03-21T09:03:53Z</time>
      </trkpt>
      <trkpt lat="44.85875" lon="4.14989">
        <ele>1380.52</ele>
        <time>2022-03-21T09:03:56Z</time>
      </trkpt>
      <trkpt lat="44.85829" lon="4.1488">
        <ele>1388.03</ele>
        <time>2022-03-21T09:03:58Z</time>
      </trkpt>
      <trkpt lat="44.85803" lon="4.14826">
        <ele>1392.23</ele>
        <time>2022-03-21T09:04:00Z</time>
      </trkpt>
      <trkpt lat="44.85773" lon="4.1475">
        <ele>1391.44</ele>
        <time>2022-03-21T09:04:02Z</time>
      </trkpt>
      <trkpt lat="44.85708" lon="4.14544">
        <ele>1387.98</ele>
        <time>2022-03-21T09:04:04Z</time>
      </trkpt>
      <trkpt lat="44.85696" lon="4.14511">
        <ele>1386.56</ele>
        <time>2022-03-21T09:04:06Z</time>
      </trkpt>
      <trkpt lat="44.85679" lon="4.14483">
        <ele>1384.84</ele>
        <time>2022-03-21T09:04:08Z</time>
      </trkpt>
      <trkpt lat="44.85671" lon="4.14477">
        <ele>1383.77</ele>
        <time>2022-03-21T09:04:10Z</time>
      </trkpt>
      <trkpt lat="44.8566" lon="4.14474">
        <ele>1382.57</ele>
        <time>2022-03-21T09:04:12Z</time>
      </trkpt>
      <trkpt lat="44.85585" lon="4.14466">
        <ele>1379.11</ele>
        <time>2022-03-21T09:04:14Z</time>
      </trkpt>
      <trkpt lat="44.85525" lon="4.14464">
        <ele>1373.88</ele>
        <time>2022-03-21T09:04:17Z</time>
      </trkpt>
      <trkpt lat="44.85513" lon="4.1446">
        <ele>1372.53</ele>
        <time>2022-03-21T09:04:19Z</time>
      </trkpt>
      <trkpt lat="44.855" lon="4.14447">
        <ele>1371.82</ele>
        <time>2022-03-21T09:04:21Z</time>
      </trkpt>
      <trkpt lat="44.85492" lon="4.14435">
        <ele>1371.41</ele>
        <time>2022-03-21T09:04:23Z</time>
      </trkpt>
      <trkpt lat="44.85432" lon="4.14339">
        <ele>1366.42</ele>
        <time>2022-03-21T09:04:25Z</time>
      </trkpt>
      <trkpt lat="44.85412" lon="4.14314">
        <ele>1365.79</ele>
        <time>2022-03-21T09:04:27Z</time>
      </trkpt>
      <trkpt lat="44.85397" lon="4.14303">
        <ele>1365.84</ele>
        <time>2022-03-21T09:04:29Z</time>
      </trkpt>
      <trkpt lat="44.85337" lon="4.14274">
        <ele>1365.54</ele>
        <time>2022-03-21T09:04:31Z</time>
      </trkpt>
      <trkpt lat="44.85273" lon="4.14239">
        <ele>1359.6</ele>
        <time>2022-03-21T09:04:33Z</time>
      </trkpt>
      <trkpt lat="44.85258" lon="4.14228">
        <ele>1356.45</ele>
        <time>2022-03-21T09:04:35Z</time>
      </trkpt>
      <trkpt lat="44.85252" lon="4.1422">
        <ele>1355.28</ele>
        <time>2022-03-21T09:04:38Z</time>
      </trkpt>
      <trkpt lat="44.85239" lon="4.14191">
        <ele>1352.45</ele>
        <time>2022-03-21T09:04:40Z</time>
      </trkpt>
      <trkpt lat="44.8522" lon="4.14156">
        <ele>1351.51</ele>
        <time>2022-03-21T09:04:42Z</time>
      </trkpt>
      <trkpt lat="44.85201" lon="4.14124">
        <ele>1350.73</ele>
        <time>2022-03-21T09:04:44Z</time>
      </trkpt>
      <trkpt lat="44.8516" lon="4.14064">
        <ele>1347.02</ele>
        <time>2022-03-21T09:04:46Z</time>
      </trkpt>
      <trkpt lat="44.85145" lon="4.14039">
        <ele>1345.99</ele>
        <time>2022-03-21T09:04:48Z</time>
      </trkpt>
      <trkpt lat="44.85133" lon="4.14027">
        <ele>1345.46</ele>
        <time>2022-03-21T09:04:50Z</time>
      </trkpt>
      <trkpt lat="44.851" lon="4.14017">
        <ele>1342.59</ele>
        <time>2022-03-21T09:04:52Z</time>
      </trkpt>
      <trkpt lat="44.84947" lon="4.13904">
        <ele>1326.8</ele>
        <time>2022-03-21T09:04:54Z</time>
      </trkpt>
      <trkpt lat="44.84924" lon="4.13892">
        <ele>1324.63</ele>
        <time>2022-03-21T09:04:56Z</time>
      </trkpt>
      <trkpt lat="44.84882" lon="4.1388">
        <ele>1322.32</ele>
        <time>2022-03-21T09:04:59Z</time>
      </trkpt>
      <trkpt lat="44.84872" lon="4.13874">
        <ele>1322.13</ele>
        <time>2022-03-21T09:05:01Z</time>
      </trkpt>
      <trkpt lat="44.84861" lon="4.13865">
        <ele>1321.79</ele>
        <time>2022-03-21T09:05:03Z</time>
      </trkpt>
      <trkpt lat="44.84822" lon="4.13829">
        <ele>1318.9</ele>
        <time>2022-03-21T09:05:05Z</time>
      </trkpt>
      <trkpt lat="44.848" lon="4.13807">
        <ele>1316.01</ele>
        <time>2022-03-21T09:05:07Z</time>
      </trkpt>
      <trkpt lat="44.84791" lon="4.13796">
        <ele>1314.77</ele>
        <time>2022-03-21T09:05:09Z</time>
      </trkpt>
      <trkpt lat="44.84764" lon="4.13743">
        <ele>1310.92</ele>
        <time>2022-03-21T09:05:11Z</time>
      </trkpt>
      <trkpt lat="44.84748" lon="4.13704">
        <ele>1307.02</ele>
        <time>2022-03-21T09:05:13Z</time>
      </trkpt>
      <trkpt lat="44.84733" lon="4.13656">
        <ele>1303.06</ele>
        <time>2022-03-21T09:05:15Z</time>
      </trkpt>
      <trkpt lat="44.84724" lon="4.13616">
        <ele>1301.3</ele>
        <time>2022-03-21T09:05:17Z</time>
      </trkpt>
      <trkpt lat="44.84712" lon="4.13591">
        <ele>1299.83</ele>
        <time>2022-03-21T09:05:20Z</time>
      </trkpt>
      <trkpt lat="44.84669" lon="4.1354">
        <ele>1295.36</ele>
        <time>2022-03-21T09:05:22Z</time>
      </trkpt>
      <trkpt lat="44.84533" lon="4.13409">
        <ele>1283.08</ele>
        <time>2022-03-21T09:05:24Z</time>
      </trkpt>
      <trkpt lat="44.84517" lon="4.13385">
        <ele>1282.5</ele>
        <time>2022-03-21T09:05:26Z</time>
      </trkpt>
      <trkpt lat="44.84512" lon="4.13374">
        <ele>1282.02</ele>
        <time>2022-03-21T09:05:28Z</time>
      </trkpt>
      <trkpt lat="44.84506" lon="4.13355">
        <ele>1281.64</ele>
        <time>2022-03-21T09:05:30Z</time>
      </trkpt>
      <trkpt lat="44.84487" lon="4.13266">
        <ele>1275.96</ele>
        <time>2022-03-21T09:05:32Z</time>
      </trkpt>
      <trkpt lat="44.84483" lon="4.1322">
        <ele>1272.11</ele>
        <time>2022-03-21T09:05:34Z</time>
      </trkpt>
      <trkpt lat="44.84482" lon="4.13176">
        <ele>1269.19</ele>
        <time>2022-03-21T09:05:36Z</time>
      </trkpt>
      <trkpt lat="44.84479" lon="4.13166">
        <ele>1267.94</ele>
        <time>2022-03-21T09:05:38Z</time>
      </trkpt>
      <trkpt lat="44.8442" lon="4.13055">
        <ele>1263.97</ele>
        <time>2022-03-21T09:05:41Z</time>
      </trkpt>
      <trkpt lat="44.84387" lon="4.12997">
        <ele>1261.81</ele>
        <time>2022-03-21T09:05:43Z</time>
      </trkpt>
      <trkpt lat="44.84381" lon="4.12983">
        <ele>1260.95</ele>
        <time>2022-03-21T09:05:45Z</time>
      </trkpt>
      <trkpt lat="44.84361" lon="4.12931">
        <ele>1260.99</ele>
        <time>2022-03-21T09:05:47Z</time>
      </trkpt>
      <trkpt lat="44.84323" lon="4.12838">
        <ele>1260.2</ele>
        <time>2022-03-21T09:05:49Z</time>
      </trkpt>
      <trkpt lat="44.84308" lon="4.12827">
        <ele>1261.71</ele>
        <time>2022-03-21T09:05:51Z</time>
      </trkpt>
      <trkpt lat="44.84265" lon="4.12822">
        <ele>1262.22</ele>
        <time>2022-03-21T09:05:53Z</time>
      </trkpt>
      <trkpt lat="44.84245" lon="4.12813">
        <ele>1262</ele>
        <time>2022-03-21T09:05:55Z</time>
      </trkpt>
      <trkpt lat="44.84218" lon="4.12797">
        <ele>1261.67</ele>
        <time>2022-03-21T09:05:57Z</time>
      </trkpt>
      <trkpt lat="44.84186" lon="4.1277">
        <ele>1259.11</ele>
        <time>2022-03-21T09:05:59Z</time>
      </trkpt>
      <trkpt lat="44.84164" lon="4.12747">
        <ele>1256.79</ele>
        <time>2022-03-21T09:06:02Z</time>
      </trkpt>
      <trkpt lat="44.84138" lon="4.12713">
        <ele>1254.66</ele>
        <time>2022-03-21T09:06:04Z</time>
      </trkpt>
      <trkpt lat="44.84102" lon="4.12671">
        <ele>1253.66</ele>
        <time>2022-03-21T09:06:06Z</time>
      </trkpt>
      <trkpt lat="44.8379" lon="4.12352">
        <ele>1241.38</ele>
        <time>2022-03-21T09:06:08Z</time>
      </trkpt>
      <trkpt lat="44.83691" lon="4.1224">
        <ele>1237.53</ele>
        <time>2022-03-21T09:06:10Z</time>
      </trkpt>
      <trkpt lat="44.83596" lon="4.12129">
        <ele>1233.6</ele>
        <time>2022-03-21T09:06:12Z</time>
      </trkpt>
      <trkpt lat="44.83579" lon="4.12111">
        <ele>1233.29</ele>
        <time>2022-03-21T09:06:14Z</time>
      </trkpt>
      <trkpt lat="44.83567" lon="4.12104">
        <ele>1232.78</ele>
        <time>2022-03-21T09:06:16Z</time>
      </trkpt>
      <trkpt lat="44.83556" lon="4.121">
        <ele>1232.02</ele>
        <time>2022-03-21T09:06:18Z</time>
      </trkpt>
      <trkpt lat="44.83506" lon="4.12106">
        <ele>1225.83</ele>
        <time>2022-03-21T09:06:20Z</time>
      </trkpt>
      <trkpt lat="44.83487" lon="4.12105">
        <ele>1224.07</ele>
        <time>2022-03-21T09:06:23Z</time>
      </trkpt>
      <trkpt lat="44.8341" lon="4.12085">
        <ele>1219.89</ele>
        <time>2022-03-21T09:06:25Z</time>
      </trkpt>
      <trkpt lat="44.83384" lon="4.12076">
        <ele>1218.37</ele>
        <time>2022-03-21T09:06:27Z</time>
      </trkpt>
      <trkpt lat="44.8336" lon="4.12059">
        <ele>1215.91</ele>
        <time>2022-03-21T09:06:29Z</time>
      </trkpt>
      <trkpt lat="44.83345" lon="4.12046">
        <ele>1213.66</ele>
        <time>2022-03-21T09:06:31Z</time>
      </trkpt>
      <trkpt lat="44.83298" lon="4.11985">
        <ele>1210.35</ele>
        <time>2022-03-21T09:06:33Z</time>
      </trkpt>
      <trkpt lat="44.8329" lon="4.11968">
        <ele>1210.43</ele>
        <time>2022-03-21T09:06:35Z</time>
      </trkpt>
      <trkpt lat="44.83286" lon="4.1195">
        <ele>1210.69</ele>
        <time>2022-03-21T09:06:37Z</time>
      </trkpt>
      <trkpt lat="44.83286" lon="4.11929">
        <ele>1210.49</ele>
        <time>2022-03-21T09:06:39Z</time>
      </trkpt>
      <trkpt lat="44.83289" lon="4.11905">
        <ele>1209.92</ele>
        <time>2022-03-21T09:06:41Z</time>
      </trkpt>
      <trkpt lat="44.83301" lon="4.11852">
        <ele>1211.08</ele>
        <time>2022-03-21T09:06:44Z</time>
      </trkpt>
      <trkpt lat="44.83302" lon="4.11838">
        <ele>1211.18</ele>
        <time>2022-03-21T09:06:46Z</time>
      </trkpt>
      <trkpt lat="44.83299" lon="4.11826">
        <ele>1210.59</ele>
        <time>2022-03-21T09:06:48Z</time>
      </trkpt>
      <trkpt lat="44.83258" lon="4.11717">
        <ele>1202.14</ele>
        <time>2022-03-21T09:06:50Z</time>
      </trkpt>
      <trkpt lat="44.83254" lon="4.11699">
        <ele>1201.05</ele>
        <time>2022-03-21T09:06:52Z</time>
      </trkpt>
      <trkpt lat="44.83253" lon="4.11644">
        <ele>1202.55</ele>
        <time>2022-03-21T09:06:54Z</time>
      </trkpt>
      <trkpt lat="44.8325" lon="4.11636">
        <ele>1202.05</ele>
        <time>2022-03-21T09:06:56Z</time>
      </trkpt>
      <trkpt lat="44.83243" lon="4.11632">
        <ele>1200.98</ele>
        <time>2022-03-21T09:06:58Z</time>
      </trkpt>
      <trkpt lat="44.83237" lon="4.11633">
        <ele>1199.81</ele>
        <time>2022-03-21T09:07:00Z</time>
      </trkpt>
      <trkpt lat="44.83231" lon="4.11637">
        <ele>1198.63</ele>
        <time>2022-03-21T09:07:02Z</time>
      </trkpt>
      <trkpt lat="44.83224" lon="4.11649">
        <ele>1196.7</ele>
        <time>2022-03-21T09:07:05Z</time>
      </trkpt>
      <trkpt lat="44.8318" lon="4.11806">
        <ele>1190.98</ele>
        <time>2022-03-21T09:07:07Z</time>
      </trkpt>
      <trkpt lat="44.83174" lon="4.11813">
        <ele>1190.03</ele>
        <time>2022-03-21T09:07:09Z</time>
      </trkpt>
      <trkpt lat="44.83165" lon="4.11817">
        <ele>1188.75</ele>
        <time>2022-03-21T09:07:11Z</time>
      </trkpt>
      <trkpt lat="44.83157" lon="4.11816">
        <ele>1187.07</ele>
        <time>2022-03-21T09:07:13Z</time>
      </trkpt>
      <trkpt lat="44.83151" lon="4.11811">
        <ele>1185.99</ele>
        <time>2022-03-21T09:07:15Z</time>
      </trkpt>
      <trkpt lat="44.83116" lon="4.11744">
        <ele>1182.53</ele>
        <time>2022-03-21T09:07:17Z</time>
      </trkpt>
      <trkpt lat="44.83105" lon="4.1173">
        <ele>1181.46</ele>
        <time>2022-03-21T09:07:19Z</time>
      </trkpt>
      <trkpt lat="44.83094" lon="4.11722">
        <ele>1180.76</ele>
        <time>2022-03-21T09:07:21Z</time>
      </trkpt>
      <trkpt lat="44.83051" lon="4.11703">
        <ele>1180.8</ele>
        <time>2022-03-21T09:07:23Z</time>
      </trkpt>
      <trkpt lat="44.83025" lon="4.11688">
        <ele>1179.45</ele>
        <time>2022-03-21T09:07:26Z</time>
      </trkpt>
      <trkpt lat="44.82967" lon="4.11637">
        <ele>1177</ele>
        <time>2022-03-21T09:07:28Z</time>
      </trkpt>
      <trkpt lat="44.82956" lon="4.11623">
        <ele>1177</ele>
        <time>2022-03-21T09:07:30Z</time>
      </trkpt>
      <trkpt lat="44.82939" lon="4.11589">
        <ele>1176.64</ele>
        <time>2022-03-21T09:07:32Z</time>
      </trkpt>
      <trkpt lat="44.82928" lon="4.11562">
        <ele>1175.02</ele>
        <time>2022-03-21T09:07:34Z</time>
      </trkpt>
      <trkpt lat="44.82919" lon="4.11547">
        <ele>1173.9</ele>
        <time>2022-03-21T09:07:36Z</time>
      </trkpt>
      <trkpt lat="44.82909" lon="4.11534">
        <ele>1172.42</ele>
        <time>2022-03-21T09:07:38Z</time>
      </trkpt>
      <trkpt lat="44.82898" lon="4.11528">
        <ele>1171.01</ele>
        <time>2022-03-21T09:07:40Z</time>
      </trkpt>
      <trkpt lat="44.82885" lon="4.11528">
        <ele>1169.54</ele>
        <time>2022-03-21T09:07:42Z</time>
      </trkpt>
      <trkpt lat="44.82871" lon="4.11534">
        <ele>1168.25</ele>
        <time>2022-03-21T09:07:44Z</time>
      </trkpt>
      <trkpt lat="44.82819" lon="4.11592">
        <ele>1166.6</ele>
        <time>2022-03-21T09:07:47Z</time>
      </trkpt>
      <trkpt lat="44.82807" lon="4.11598">
        <ele>1165.73</ele>
        <time>2022-03-21T09:07:49Z</time>
      </trkpt>
      <trkpt lat="44.82797" lon="4.116">
        <ele>1164.68</ele>
        <time>2022-03-21T09:07:51Z</time>
      </trkpt>
      <trkpt lat="44.82773" lon="4.11588">
        <ele>1161.75</ele>
        <time>2022-03-21T09:07:53Z</time>
      </trkpt>
      <trkpt lat="44.8276" lon="4.11586">
        <ele>1160.79</ele>
        <time>2022-03-21T09:07:55Z</time>
      </trkpt>
      <trkpt lat="44.8275" lon="4.11589">
        <ele>1160.02</ele>
        <time>2022-03-21T09:07:57Z</time>
      </trkpt>
      <trkpt lat="44.82698" lon="4.11637">
        <ele>1157.07</ele>
        <time>2022-03-21T09:07:59Z</time>
      </trkpt>
      <trkpt lat="44.82681" lon="4.11647">
        <ele>1155.65</ele>
        <time>2022-03-21T09:08:01Z</time>
      </trkpt>
      <trkpt lat="44.82666" lon="4.11649">
        <ele>1155.14</ele>
        <time>2022-03-21T09:08:03Z</time>
      </trkpt>
      <trkpt lat="44.82647" lon="4.11647">
        <ele>1155.28</ele>
        <time>2022-03-21T09:08:05Z</time>
      </trkpt>
      <trkpt lat="44.82587" lon="4.11637">
        <ele>1151.73</ele>
        <time>2022-03-21T09:08:08Z</time>
      </trkpt>
      <trkpt lat="44.82573" lon="4.11631">
        <ele>1150.13</ele>
        <time>2022-03-21T09:08:10Z</time>
      </trkpt>
      <trkpt lat="44.82536" lon="4.11601">
        <ele>1148.73</ele>
        <time>2022-03-21T09:08:12Z</time>
      </trkpt>
      <trkpt lat="44.82525" lon="4.11596">
        <ele>1148.66</ele>
        <time>2022-03-21T09:08:14Z</time>
      </trkpt>
      <trkpt lat="44.8251" lon="4.11594">
        <ele>1149.24</ele>
        <time>2022-03-21T09:08:16Z</time>
      </trkpt>
      <trkpt lat="44.82496" lon="4.11598">
        <ele>1149.4</ele>
        <time>2022-03-21T09:08:18Z</time>
      </trkpt>
      <trkpt lat="44.8248" lon="4.1161">
        <ele>1149.02</ele>
        <time>2022-03-21T09:08:20Z</time>
      </trkpt>
      <trkpt lat="44.82467" lon="4.11627">
        <ele>1148.86</ele>
        <time>2022-03-21T09:08:22Z</time>
      </trkpt>
      <trkpt lat="44.82442" lon="4.11666">
        <ele>1150.12</ele>
        <time>2022-03-21T09:08:24Z</time>
      </trkpt>
      <trkpt lat="44.8243" lon="4.1168">
        <ele>1149.36</ele>
        <time>2022-03-21T09:08:26Z</time>
      </trkpt>
      <trkpt lat="44.82419" lon="4.11683">
        <ele>1149.7</ele>
        <time>2022-03-21T09:08:29Z</time>
      </trkpt>
      <trkpt lat="44.82404" lon="4.11681">
        <ele>1149.28</ele>
        <time>2022-03-21T09:08:31Z</time>
      </trkpt>
      <trkpt lat="44.82394" lon="4.11676">
        <ele>1148.92</ele>
        <time>2022-03-21T09:08:33Z</time>
      </trkpt>
      <trkpt lat="44.82393" lon="4.11667">
        <ele>1149.31</ele>
        <time>2022-03-21T09:08:37Z</time>
      </trkpt>
      <trkpt lat="44.82385" lon="4.11629">
        <ele>1151.01</ele>
        <time>2022-03-21T09:08:41Z</time>
      </trkpt>
      <trkpt lat="44.82375" lon="4.11563">
        <ele>1152.23</ele>
        <time>2022-03-21T09:08:45Z</time>
      </trkpt>
      <trkpt lat="44.82367" lon="4.11502">
        <ele>1156.2</ele>
        <time>2022-03-21T09:08:49Z</time>
      </trkpt>
      <trkpt lat="44.82364" lon="4.11459">
        <ele>1158.23</ele>
        <time>2022-03-21T09:08:53Z</time>
      </trkpt>
      <trkpt lat="44.82364" lon="4.11435">
        <ele>1157.59</ele>
        <time>2022-03-21T09:08:56Z</time>
      </trkpt>
      <trkpt lat="44.8237" lon="4.1137">
        <ele>1156.28</ele>
        <time>2022-03-21T09:09:00Z</time>
      </trkpt>
      <trkpt lat="44.82373" lon="4.11305">
        <ele>1156.06</ele>
        <time>2022-03-21T09:09:04Z</time>
      </trkpt>
      <trkpt lat="44.82377" lon="4.11275">
        <ele>1156.15</ele>
        <time>2022-03-21T09:09:08Z</time>
      </trkpt>
      <trkpt lat="44.82382" lon="4.11189">
        <ele>1156.2</ele>
        <time>2022-03-21T09:09:12Z</time>
      </trkpt>
      <trkpt lat="44.82383" lon="4.1114">
        <ele>1157.74</ele>
        <time>2022-03-21T09:09:16Z</time>
      </trkpt>
      <trkpt lat="44.82382" lon="4.11105">
        <ele>1157.94</ele>
        <time>2022-03-21T09:09:20Z</time>
      </trkpt>
      <trkpt lat="44.8238" lon="4.11088">
        <ele>1158.51</ele>
        <time>2022-03-21T09:09:23Z</time>
      </trkpt>
      <trkpt lat="44.8238" lon="4.11061">
        <ele>1158.93</ele>
        <time>2022-03-21T09:09:26Z</time>
      </trkpt>
      <trkpt lat="44.82376" lon="4.11038">
        <ele>1159</ele>
        <time>2022-03-21T09:09:29Z</time>
      </trkpt>
      <trkpt lat="44.82361" lon="4.10992">
        <ele>1160.29</ele>
        <time>2022-03-21T09:09:32Z</time>
      </trkpt>
      <trkpt lat="44.82354" lon="4.10967">
        <ele>1160.95</ele>
        <time>2022-03-21T09:09:35Z</time>
      </trkpt>
      <trkpt lat="44.82327" lon="4.10892">
        <ele>1157.85</ele>
        <time>2022-03-21T09:09:38Z</time>
      </trkpt>
      <trkpt lat="44.82222" lon="4.10754">
        <ele>1160.84</ele>
        <time>2022-03-21T09:09:40Z</time>
      </trkpt>
      <trkpt lat="44.82169" lon="4.10693">
        <ele>1161.93</ele>
        <time>2022-03-21T09:09:43Z</time>
      </trkpt>
      <trkpt lat="44.82162" lon="4.10681">
        <ele>1161.75</ele>
        <time>2022-03-21T09:09:46Z</time>
      </trkpt>
      <trkpt lat="44.82161" lon="4.10673">
        <ele>1161.66</ele>
        <time>2022-03-21T09:09:49Z</time>
      </trkpt>
      <trkpt lat="44.82171" lon="4.10645">
        <ele>1161.21</ele>
        <time>2022-03-21T09:09:52Z</time>
      </trkpt>
      <trkpt lat="44.82189" lon="4.10582">
        <ele>1161.05</ele>
        <time>2022-03-21T09:09:55Z</time>
      </trkpt>
      <trkpt lat="44.82237" lon="4.10472">
        <ele>1166.53</ele>
        <time>2022-03-21T09:09:58Z</time>
      </trkpt>
      <trkpt lat="44.82241" lon="4.10456">
        <ele>1167.08</ele>
        <time>2022-03-21T09:10:01Z</time>
      </trkpt>
      <trkpt lat="44.82242" lon="4.10438">
        <ele>1167.72</ele>
        <time>2022-03-21T09:10:04Z</time>
      </trkpt>
      <trkpt lat="44.8224" lon="4.10419">
        <ele>1168.11</ele>
        <time>2022-03-21T09:10:07Z</time>
      </trkpt>
      <trkpt lat="44.82233" lon="4.10396">
        <ele>1168.44</ele>
        <time>2022-03-21T09:10:10Z</time>
      </trkpt>
      <trkpt lat="44.82194" lon="4.10321">
        <ele>1176.01</ele>
        <time>2022-03-21T09:10:13Z</time>
      </trkpt>
      <trkpt lat="44.82181" lon="4.10304">
        <ele>1177.32</ele>
        <time>2022-03-21T09:10:15Z</time>
      </trkpt>
      <trkpt lat="44.82168" lon="4.10293">
        <ele>1176.84</ele>
        <time>2022-03-21T09:10:18Z</time>
      </trkpt>
      <trkpt lat="44.82143" lon="4.10281">
        <ele>1176.86</ele>
        <time>2022-03-21T09:10:21Z</time>
      </trkpt>
      <trkpt lat="44.82119" lon="4.10266">
        <ele>1176.05</ele>
        <time>2022-03-21T09:10:24Z</time>
      </trkpt>
      <trkpt lat="44.82092" lon="4.10243">
        <ele>1178.9</ele>
        <time>2022-03-21T09:10:27Z</time>
      </trkpt>
      <trkpt lat="44.82075" lon="4.10223">
        <ele>1181.93</ele>
        <time>2022-03-21T09:10:30Z</time>
      </trkpt>
      <trkpt lat="44.82064" lon="4.10202">
        <ele>1183.58</ele>
        <time>2022-03-21T09:10:33Z</time>
      </trkpt>
      <trkpt lat="44.82058" lon="4.1018">
        <ele>1185.25</ele>
        <time>2022-03-21T09:10:36Z</time>
      </trkpt>
      <trkpt lat="44.82053" lon="4.10138">
        <ele>1185.63</ele>
        <time>2022-03-21T09:10:39Z</time>
      </trkpt>
      <trkpt lat="44.82049" lon="4.10126">
        <ele>1185.73</ele>
        <time>2022-03-21T09:10:42Z</time>
      </trkpt>
      <trkpt lat="44.82015" lon="4.10062">
        <ele>1195.58</ele>
        <time>2022-03-21T09:10:45Z</time>
      </trkpt>
      <trkpt lat="44.82007" lon="4.10042">
        <ele>1199.38</ele>
        <time>2022-03-21T09:10:47Z</time>
      </trkpt>
      <trkpt lat="44.82" lon="4.10033">
        <ele>1200.09</ele>
        <time>2022-03-21T09:10:50Z</time>
      </trkpt>
      <trkpt lat="44.81938" lon="4.09972">
        <ele>1207.88</ele>
        <time>2022-03-21T09:10:53Z</time>
      </trkpt>
      <trkpt lat="44.81932" lon="4.09957">
        <ele>1208.93</ele>
        <time>2022-03-21T09:10:56Z</time>
      </trkpt>
      <trkpt lat="44.8193" lon="4.09943">
        <ele>1210.55</ele>
        <time>2022-03-21T09:10:59Z</time>
      </trkpt>
      <trkpt lat="44.8193" lon="4.09925">
        <ele>1212.43</ele>
        <time>2022-03-21T09:11:02Z</time>
      </trkpt>
      <trkpt lat="44.81931" lon="4.09907">
        <ele>1214.28</ele>
        <time>2022-03-21T09:11:05Z</time>
      </trkpt>
      <trkpt lat="44.81939" lon="4.09861">
        <ele>1219.77</ele>
        <time>2022-03-21T09:11:08Z</time>
      </trkpt>
      <trkpt lat="44.8194" lon="4.09839">
        <ele>1221.88</ele>
        <time>2022-03-21T09:11:11Z</time>
      </trkpt>
      <trkpt lat="44.81939" lon="4.09818">
        <ele>1224.01</ele>
        <time>2022-03-21T09:11:14Z</time>
      </trkpt>
      <trkpt lat="44.81936" lon="4.09799">
        <ele>1225.36</ele>
        <time>2022-03-21T09:11:17Z</time>
      </trkpt>
      <trkpt lat="44.8193" lon="4.09786">
        <ele>1225.5</ele>
        <time>2022-03-21T09:11:20Z</time>
      </trkpt>
      <trkpt lat="44.8189" lon="4.09738">
        <ele>1224.93</ele>
        <time>2022-03-21T09:11:22Z</time>
      </trkpt>
      <trkpt lat="44.81845" lon="4.09658">
        <ele>1230.7</ele>
        <time>2022-03-21T09:11:25Z</time>
      </trkpt>
      <trkpt lat="44.81836" lon="4.09646">
        <ele>1231.78</ele>
        <time>2022-03-21T09:11:28Z</time>
      </trkpt>
      <trkpt lat="44.81825" lon="4.09639">
        <ele>1233.01</ele>
        <time>2022-03-21T09:11:31Z</time>
      </trkpt>
      <trkpt lat="44.81759" lon="4.09611">
        <ele>1237.66</ele>
        <time>2022-03-21T09:11:34Z</time>
      </trkpt>
      <trkpt lat="44.81716" lon="4.096">
        <ele>1238.85</ele>
        <time>2022-03-21T09:11:37Z</time>
      </trkpt>
      <trkpt lat="44.81709" lon="4.09595">
        <ele>1239.79</ele>
        <time>2022-03-21T09:11:40Z</time>
      </trkpt>
      <trkpt lat="44.81693" lon="4.09557">
        <ele>1247.69</ele>
        <time>2022-03-21T09:11:43Z</time>
      </trkpt>
      <trkpt lat="44.81694" lon="4.09548">
        <ele>1249.36</ele>
        <time>2022-03-21T09:11:46Z</time>
      </trkpt>
      <trkpt lat="44.81702" lon="4.09535">
        <ele>1251.37</ele>
        <time>2022-03-21T09:11:49Z</time>
      </trkpt>
      <trkpt lat="44.81713" lon="4.09526">
        <ele>1252.78</ele>
        <time>2022-03-21T09:11:52Z</time>
      </trkpt>
      <trkpt lat="44.81727" lon="4.09524">
        <ele>1252.78</ele>
        <time>2022-03-21T09:11:55Z</time>
      </trkpt>
      <trkpt lat="44.81749" lon="4.09527">
        <ele>1250.35</ele>
        <time>2022-03-21T09:11:57Z</time>
      </trkpt>
      <trkpt lat="44.81777" lon="4.09538">
        <ele>1248.04</ele>
        <time>2022-03-21T09:12:00Z</time>
      </trkpt>
      <trkpt lat="44.81804" lon="4.09544">
        <ele>1251.03</ele>
        <time>2022-03-21T09:12:03Z</time>
      </trkpt>
      <trkpt lat="44.81846" lon="4.0956">
        <ele>1255.03</ele>
        <time>2022-03-21T09:12:06Z</time>
      </trkpt>
      <trkpt lat="44.81869" lon="4.09563">
        <ele>1255.14</ele>
        <time>2022-03-21T09:12:09Z</time>
      </trkpt>
      <trkpt lat="44.8189" lon="4.09564">
        <ele>1254.19</ele>
        <time>2022-03-21T09:12:12Z</time>
      </trkpt>
      <trkpt lat="44.8191" lon="4.09561">
        <ele>1254.81</ele>
        <time>2022-03-21T09:12:15Z</time>
      </trkpt>
      <trkpt lat="44.81943" lon="4.09545">
        <ele>1258.57</ele>
        <time>2022-03-21T09:12:18Z</time>
      </trkpt>
      <trkpt lat="44.81987" lon="4.09518">
        <ele>1261.1</ele>
        <time>2022-03-21T09:12:21Z</time>
      </trkpt>
      <trkpt lat="44.81999" lon="4.09508">
        <ele>1263.51</ele>
        <time>2022-03-21T09:12:24Z</time>
      </trkpt>
      <trkpt lat="44.82009" lon="4.09495">
        <ele>1265.94</ele>
        <time>2022-03-21T09:12:27Z</time>
      </trkpt>
      <trkpt lat="44.82036" lon="4.09419">
        <ele>1266.75</ele>
        <time>2022-03-21T09:12:30Z</time>
      </trkpt>
      <trkpt lat="44.82037" lon="4.09406">
        <ele>1265.91</ele>
        <time>2022-03-21T09:12:32Z</time>
      </trkpt>
      <trkpt lat="44.82033" lon="4.09355">
        <ele>1261.73</ele>
        <time>2022-03-21T09:12:35Z</time>
      </trkpt>
      <trkpt lat="44.82032" lon="4.09297">
        <ele>1257.98</ele>
        <time>2022-03-21T09:12:38Z</time>
      </trkpt>
      <trkpt lat="44.82024" lon="4.09246">
        <ele>1256.33</ele>
        <time>2022-03-21T09:12:41Z</time>
      </trkpt>
      <trkpt lat="44.82023" lon="4.09229">
        <ele>1254.68</ele>
        <time>2022-03-21T09:12:44Z</time>
      </trkpt>
      <trkpt lat="44.82024" lon="4.09212">
        <ele>1252.95</ele>
        <time>2022-03-21T09:12:47Z</time>
      </trkpt>
      <trkpt lat="44.82035" lon="4.09163">
        <ele>1247.62</ele>
        <time>2022-03-21T09:12:50Z</time>
      </trkpt>
      <trkpt lat="44.82036" lon="4.09143">
        <ele>1245.24</ele>
        <time>2022-03-21T09:12:53Z</time>
      </trkpt>
      <trkpt lat="44.82035" lon="4.09127">
        <ele>1243.21</ele>
        <time>2022-03-21T09:12:56Z</time>
      </trkpt>
      <trkpt lat="44.82026" lon="4.09096">
        <ele>1241.25</ele>
        <time>2022-03-21T09:12:59Z</time>
      </trkpt>
      <trkpt lat="44.82023" lon="4.09083">
        <ele>1240.59</ele>
        <time>2022-03-21T09:13:02Z</time>
      </trkpt>
      <trkpt lat="44.82025" lon="4.09073">
        <ele>1239.62</ele>
        <time>2022-03-21T09:13:05Z</time>
      </trkpt>
      <trkpt lat="44.8203" lon="4.09068">
        <ele>1238.61</ele>
        <time>2022-03-21T09:13:07Z</time>
      </trkpt>
      <trkpt lat="44.82036" lon="4.09067">
        <ele>1237.85</ele>
        <time>2022-03-21T09:13:10Z</time>
      </trkpt>
      <trkpt lat="44.82068" lon="4.09089">
        <ele>1234.22</ele>
        <time>2022-03-21T09:13:13Z</time>
      </trkpt>
      <trkpt lat="44.821" lon="4.09105">
        <ele>1230.44</ele>
        <time>2022-03-21T09:13:16Z</time>
      </trkpt>
      <trkpt lat="44.82112" lon="4.09109">
        <ele>1228.64</ele>
        <time>2022-03-21T09:13:19Z</time>
      </trkpt>
      <trkpt lat="44.82143" lon="4.09109">
        <ele>1224.72</ele>
        <time>2022-03-21T09:13:22Z</time>
      </trkpt>
      <trkpt lat="44.82153" lon="4.09106">
        <ele>1224.22</ele>
        <time>2022-03-21T09:13:25Z</time>
      </trkpt>
      <trkpt lat="44.82158" lon="4.09101">
        <ele>1223.82</ele>
        <time>2022-03-21T09:13:28Z</time>
      </trkpt>
      <trkpt lat="44.8216" lon="4.09093">
        <ele>1223.43</ele>
        <time>2022-03-21T09:13:31Z</time>
      </trkpt>
      <trkpt lat="44.82159" lon="4.09086">
        <ele>1223.14</ele>
        <time>2022-03-21T09:13:34Z</time>
      </trkpt>
      <trkpt lat="44.82138" lon="4.09051">
        <ele>1219.58</ele>
        <time>2022-03-21T09:13:37Z</time>
      </trkpt>
      <trkpt lat="44.82125" lon="4.09025">
        <ele>1217.2</ele>
        <time>2022-03-21T09:13:39Z</time>
      </trkpt>
      <trkpt lat="44.82117" lon="4.08996">
        <ele>1214.47</ele>
        <time>2022-03-21T09:13:42Z</time>
      </trkpt>
      <trkpt lat="44.82108" lon="4.08937">
        <ele>1208.92</ele>
        <time>2022-03-21T09:13:45Z</time>
      </trkpt>
      <trkpt lat="44.82103" lon="4.08918">
        <ele>1208.64</ele>
        <time>2022-03-21T09:13:48Z</time>
      </trkpt>
      <trkpt lat="44.82098" lon="4.08898">
        <ele>1207.24</ele>
        <time>2022-03-21T09:13:51Z</time>
      </trkpt>
      <trkpt lat="44.82099" lon="4.08876">
        <ele>1204.1</ele>
        <time>2022-03-21T09:13:54Z</time>
      </trkpt>
      <trkpt lat="44.82107" lon="4.08828">
        <ele>1197.13</ele>
        <time>2022-03-21T09:13:57Z</time>
      </trkpt>
      <trkpt lat="44.82108" lon="4.08812">
        <ele>1195.16</ele>
        <time>2022-03-21T09:14:00Z</time>
      </trkpt>
      <trkpt lat="44.82099" lon="4.08753">
        <ele>1187.56</ele>
        <time>2022-03-21T09:14:03Z</time>
      </trkpt>
      <trkpt lat="44.82099" lon="4.08732">
        <ele>1185.69</ele>
        <time>2022-03-21T09:14:06Z</time>
      </trkpt>
      <trkpt lat="44.82102" lon="4.08699">
        <ele>1183.13</ele>
        <time>2022-03-21T09:14:09Z</time>
      </trkpt>
      <trkpt lat="44.8211" lon="4.08665">
        <ele>1179.16</ele>
        <time>2022-03-21T09:14:12Z</time>
      </trkpt>
      <trkpt lat="44.82118" lon="4.08642">
        <ele>1177.29</ele>
        <time>2022-03-21T09:14:14Z</time>
      </trkpt>
      <trkpt lat="44.8213" lon="4.08619">
        <ele>1175.52</ele>
        <time>2022-03-21T09:14:17Z</time>
      </trkpt>
      <trkpt lat="44.82135" lon="4.08602">
        <ele>1174.63</ele>
        <time>2022-03-21T09:14:20Z</time>
      </trkpt>
      <trkpt lat="44.82135" lon="4.08588">
        <ele>1174.58</ele>
        <time>2022-03-21T09:14:23Z</time>
      </trkpt>
      <trkpt lat="44.82132" lon="4.0857">
        <ele>1174.91</ele>
        <time>2022-03-21T09:14:26Z</time>
      </trkpt>
      <trkpt lat="44.82126" lon="4.08553">
        <ele>1175.29</ele>
        <time>2022-03-21T09:14:29Z</time>
      </trkpt>
      <trkpt lat="44.82113" lon="4.08535">
        <ele>1175.34</ele>
        <time>2022-03-21T09:14:32Z</time>
      </trkpt>
      <trkpt lat="44.82081" lon="4.08504">
        <ele>1174.21</ele>
        <time>2022-03-21T09:14:35Z</time>
      </trkpt>
      <trkpt lat="44.82043" lon="4.08464">
        <ele>1174.04</ele>
        <time>2022-03-21T09:14:38Z</time>
      </trkpt>
      <trkpt lat="44.81968" lon="4.08368">
        <ele>1165.81</ele>
        <time>2022-03-21T09:14:41Z</time>
      </trkpt>
      <trkpt lat="44.81952" lon="4.08354">
        <ele>1163.26</ele>
        <time>2022-03-21T09:14:44Z</time>
      </trkpt>
      <trkpt lat="44.8194" lon="4.08346">
        <ele>1162.07</ele>
        <time>2022-03-21T09:14:47Z</time>
      </trkpt>
      <trkpt lat="44.81899" lon="4.08335">
        <ele>1162.3</ele>
        <time>2022-03-21T09:14:49Z</time>
      </trkpt>
      <trkpt lat="44.81844" lon="4.08315">
        <ele>1161.59</ele>
        <time>2022-03-21T09:14:52Z</time>
      </trkpt>
      <trkpt lat="44.81791" lon="4.08291">
        <ele>1165.47</ele>
        <time>2022-03-21T09:14:55Z</time>
      </trkpt>
      <trkpt lat="44.81765" lon="4.08275">
        <ele>1166.44</ele>
        <time>2022-03-21T09:14:58Z</time>
      </trkpt>
      <trkpt lat="44.817" lon="4.08232">
        <ele>1163.99</ele>
        <time>2022-03-21T09:15:01Z</time>
      </trkpt>
      <trkpt lat="44.8166" lon="4.08217">
        <ele>1163.25</ele>
        <time>2022-03-21T09:15:04Z</time>
      </trkpt>
      <trkpt lat="44.81644" lon="4.08208">
        <ele>1162.62</ele>
        <time>2022-03-21T09:15:07Z</time>
      </trkpt>
      <trkpt lat="44.81635" lon="4.082">
        <ele>1161.92</ele>
        <time>2022-03-21T09:15:10Z</time>
      </trkpt>
      <trkpt lat="44.81625" lon="4.08183">
        <ele>1161.55</ele>
        <time>2022-03-21T09:15:13Z</time>
      </trkpt>
      <trkpt lat="44.81613" lon="4.08158">
        <ele>1162.02</ele>
        <time>2022-03-21T09:15:16Z</time>
      </trkpt>
      <trkpt lat="44.81599" lon="4.08136">
        <ele>1162.55</ele>
        <time>2022-03-21T09:15:19Z</time>
      </trkpt>
      <trkpt lat="44.81566" lon="4.08098">
        <ele>1163.11</ele>
        <time>2022-03-21T09:15:22Z</time>
      </trkpt>
      <trkpt lat="44.81549" lon="4.08084">
        <ele>1162.36</ele>
        <time>2022-03-21T09:15:24Z</time>
      </trkpt>
      <trkpt lat="44.81526" lon="4.08068">
        <ele>1159.45</ele>
        <time>2022-03-21T09:15:27Z</time>
      </trkpt>
      <trkpt lat="44.81466" lon="4.08034">
        <ele>1158.06</ele>
        <time>2022-03-21T09:15:30Z</time>
      </trkpt>
      <trkpt lat="44.81461" lon="4.08028">
        <ele>1157.21</ele>
        <time>2022-03-21T09:15:33Z</time>
      </trkpt>
      <trkpt lat="44.81456" lon="4.08016">
        <ele>1155.56</ele>
        <time>2022-03-21T09:15:36Z</time>
      </trkpt>
      <trkpt lat="44.81448" lon="4.07983">
        <ele>1151.96</ele>
        <time>2022-03-21T09:15:39Z</time>
      </trkpt>
      <trkpt lat="44.81432" lon="4.07892">
        <ele>1140.83</ele>
        <time>2022-03-21T09:15:42Z</time>
      </trkpt>
      <trkpt lat="44.81429" lon="4.07885">
        <ele>1139.88</ele>
        <time>2022-03-21T09:15:45Z</time>
      </trkpt>
      <trkpt lat="44.81423" lon="4.0788">
        <ele>1139.42</ele>
        <time>2022-03-21T09:15:48Z</time>
      </trkpt>
      <trkpt lat="44.81418" lon="4.07879">
        <ele>1139.54</ele>
        <time>2022-03-21T09:15:51Z</time>
      </trkpt>
      <trkpt lat="44.81362" lon="4.07904">
        <ele>1137.21</ele>
        <time>2022-03-21T09:15:54Z</time>
      </trkpt>
      <trkpt lat="44.81354" lon="4.07906">
        <ele>1136.58</ele>
        <time>2022-03-21T09:15:56Z</time>
      </trkpt>
      <trkpt lat="44.81347" lon="4.07902">
        <ele>1135.4</ele>
        <time>2022-03-21T09:15:59Z</time>
      </trkpt>
      <trkpt lat="44.81343" lon="4.07896">
        <ele>1134.31</ele>
        <time>2022-03-21T09:16:02Z</time>
      </trkpt>
      <trkpt lat="44.8133" lon="4.07843">
        <ele>1128.43</ele>
        <time>2022-03-21T09:16:05Z</time>
      </trkpt>
      <trkpt lat="44.81319" lon="4.07784">
        <ele>1122.01</ele>
        <time>2022-03-21T09:16:08Z</time>
      </trkpt>
      <trkpt lat="44.81316" lon="4.07775">
        <ele>1120.99</ele>
        <time>2022-03-21T09:16:11Z</time>
      </trkpt>
      <trkpt lat="44.8131" lon="4.0777">
        <ele>1120.29</ele>
        <time>2022-03-21T09:16:14Z</time>
      </trkpt>
      <trkpt lat="44.81303" lon="4.07771">
        <ele>1119.9</ele>
        <time>2022-03-21T09:16:17Z</time>
      </trkpt>
      <trkpt lat="44.81284" lon="4.07787">
        <ele>1118.52</ele>
        <time>2022-03-21T09:16:20Z</time>
      </trkpt>
      <trkpt lat="44.81263" lon="4.07811">
        <ele>1116.65</ele>
        <time>2022-03-21T09:16:23Z</time>
      </trkpt>
      <trkpt lat="44.81254" lon="4.07814">
        <ele>1115.04</ele>
        <time>2022-03-21T09:16:26Z</time>
      </trkpt>
      <trkpt lat="44.81248" lon="4.07812">
        <ele>1113.9</ele>
        <time>2022-03-21T09:16:29Z</time>
      </trkpt>
      <trkpt lat="44.81243" lon="4.07806">
        <ele>1113.06</ele>
        <time>2022-03-21T09:16:31Z</time>
      </trkpt>
      <trkpt lat="44.81239" lon="4.07789">
        <ele>1111.62</ele>
        <time>2022-03-21T09:16:34Z</time>
      </trkpt>
      <trkpt lat="44.81234" lon="4.07777">
        <ele>1110.03</ele>
        <time>2022-03-21T09:16:37Z</time>
      </trkpt>
      <trkpt lat="44.81226" lon="4.07769">
        <ele>1108.28</ele>
        <time>2022-03-21T09:16:40Z</time>
      </trkpt>
      <trkpt lat="44.81211" lon="4.07769">
        <ele>1106.97</ele>
        <time>2022-03-21T09:16:43Z</time>
      </trkpt>
      <trkpt lat="44.81189" lon="4.07772">
        <ele>1105.7</ele>
        <time>2022-03-21T09:16:46Z</time>
      </trkpt>
      <trkpt lat="44.81168" lon="4.0778">
        <ele>1103.29</ele>
        <time>2022-03-21T09:16:49Z</time>
      </trkpt>
      <trkpt lat="44.81154" lon="4.07788">
        <ele>1100.43</ele>
        <time>2022-03-21T09:16:52Z</time>
      </trkpt>
      <trkpt lat="44.81135" lon="4.07806">
        <ele>1098.56</ele>
        <time>2022-03-21T09:16:55Z</time>
      </trkpt>
      <trkpt lat="44.81123" lon="4.07814">
        <ele>1097.81</ele>
        <time>2022-03-21T09:16:58Z</time>
      </trkpt>
      <trkpt lat="44.81113" lon="4.07815">
        <ele>1096.61</ele>
        <time>2022-03-21T09:17:01Z</time>
      </trkpt>
      <trkpt lat="44.81102" lon="4.07813">
        <ele>1094.45</ele>
        <time>2022-03-21T09:17:04Z</time>
      </trkpt>
      <trkpt lat="44.81072" lon="4.07788">
        <ele>1091.07</ele>
        <time>2022-03-21T09:17:06Z</time>
      </trkpt>
      <trkpt lat="44.81057" lon="4.07765">
        <ele>1090.56</ele>
        <time>2022-03-21T09:17:09Z</time>
      </trkpt>
      <trkpt lat="44.8104" lon="4.07727">
        <ele>1088.42</ele>
        <time>2022-03-21T09:17:12Z</time>
      </trkpt>
      <trkpt lat="44.81031" lon="4.07701">
        <ele>1088.79</ele>
        <time>2022-03-21T09:17:15Z</time>
      </trkpt>
      <trkpt lat="44.81027" lon="4.07681">
        <ele>1090.48</ele>
        <time>2022-03-21T09:17:18Z</time>
      </trkpt>
      <trkpt lat="44.81017" lon="4.07647">
        <ele>1092.16</ele>
        <time>2022-03-21T09:17:21Z</time>
      </trkpt>
      <trkpt lat="44.81036" lon="4.07557">
        <ele>1085.46</ele>
        <time>2022-03-21T09:17:23Z</time>
      </trkpt>
      <trkpt lat="44.8104" lon="4.07507">
        <ele>1080.88</ele>
        <time>2022-03-21T09:17:25Z</time>
      </trkpt>
      <trkpt lat="44.8104" lon="4.0745">
        <ele>1081.93</ele>
        <time>2022-03-21T09:17:26Z</time>
      </trkpt>
      <trkpt lat="44.81042" lon="4.07432">
        <ele>1080.9</ele>
        <time>2022-03-21T09:17:28Z</time>
      </trkpt>
      <trkpt lat="44.81054" lon="4.07386">
        <ele>1077.68</ele>
        <time>2022-03-21T09:17:30Z</time>
      </trkpt>
      <trkpt lat="44.81076" lon="4.07341">
        <ele>1074.34</ele>
        <time>2022-03-21T09:17:32Z</time>
      </trkpt>
      <trkpt lat="44.81094" lon="4.07299">
        <ele>1072.25</ele>
        <time>2022-03-21T09:17:34Z</time>
      </trkpt>
      <trkpt lat="44.81103" lon="4.07264">
        <ele>1071.87</ele>
        <time>2022-03-21T09:17:35Z</time>
      </trkpt>
      <trkpt lat="44.81113" lon="4.07213">
        <ele>1071.82</ele>
        <time>2022-03-21T09:17:37Z</time>
      </trkpt>
      <trkpt lat="44.81115" lon="4.07176">
        <ele>1072.18</ele>
        <time>2022-03-21T09:17:39Z</time>
      </trkpt>
      <trkpt lat="44.81113" lon="4.07153">
        <ele>1072.12</ele>
        <time>2022-03-21T09:17:41Z</time>
      </trkpt>
      <trkpt lat="44.81109" lon="4.07131">
        <ele>1073.57</ele>
        <time>2022-03-21T09:17:43Z</time>
      </trkpt>
      <trkpt lat="44.81108" lon="4.07113">
        <ele>1074.64</ele>
        <time>2022-03-21T09:17:44Z</time>
      </trkpt>
      <trkpt lat="44.81112" lon="4.07094">
        <ele>1073.42</ele>
        <time>2022-03-21T09:17:46Z</time>
      </trkpt>
      <trkpt lat="44.81148" lon="4.06992">
        <ele>1064.04</ele>
        <time>2022-03-21T09:17:48Z</time>
      </trkpt>
      <trkpt lat="44.81155" lon="4.06964">
        <ele>1061.16</ele>
        <time>2022-03-21T09:17:50Z</time>
      </trkpt>
      <trkpt lat="44.81156" lon="4.06943">
        <ele>1060.22</ele>
        <time>2022-03-21T09:17:52Z</time>
      </trkpt>
      <trkpt lat="44.81154" lon="4.06922">
        <ele>1058.94</ele>
        <time>2022-03-21T09:17:53Z</time>
      </trkpt>
      <trkpt lat="44.8115" lon="4.06905">
        <ele>1058.94</ele>
        <time>2022-03-21T09:17:55Z</time>
      </trkpt>
      <trkpt lat="44.81148" lon="4.06883">
        <ele>1058.11</ele>
        <time>2022-03-21T09:17:57Z</time>
      </trkpt>
      <trkpt lat="44.8115" lon="4.06862">
        <ele>1056.87</ele>
        <time>2022-03-21T09:17:59Z</time>
      </trkpt>
      <trkpt lat="44.81153" lon="4.06845">
        <ele>1055.89</ele>
        <time>2022-03-21T09:18:01Z</time>
      </trkpt>
      <trkpt lat="44.81153" lon="4.06845">
        <ele>1055.89</ele>
        <time>2022-03-21T09:18:01Z</time>
      </trkpt>
      <trkpt lat="44.81184" lon="4.06739">
        <ele>1051.41</ele>
        <time>2022-03-21T09:18:04Z</time>
      </trkpt>
      <trkpt lat="44.81205" lon="4.06681">
        <ele>1045.51</ele>
        <time>2022-03-21T09:18:07Z</time>
      </trkpt>
      <trkpt lat="44.81228" lon="4.0663">
        <ele>1041.66</ele>
        <time>2022-03-21T09:18:10Z</time>
      </trkpt>
      <trkpt lat="44.81252" lon="4.06594">
        <ele>1038.1</ele>
        <time>2022-03-21T09:18:14Z</time>
      </trkpt>
      <trkpt lat="44.81301" lon="4.06546">
        <ele>1025.21</ele>
        <time>2022-03-21T09:18:17Z</time>
      </trkpt>
      <trkpt lat="44.81365" lon="4.06469">
        <ele>1025</ele>
        <time>2022-03-21T09:18:20Z</time>
      </trkpt>
      <trkpt lat="44.81445" lon="4.06383">
        <ele>1022.98</ele>
        <time>2022-03-21T09:18:23Z</time>
      </trkpt>
      <trkpt lat="44.81457" lon="4.06369">
        <ele>1021.05</ele>
        <time>2022-03-21T09:18:26Z</time>
      </trkpt>
      <trkpt lat="44.81488" lon="4.06334">
        <ele>1017.27</ele>
        <time>2022-03-21T09:18:30Z</time>
      </trkpt>
      <trkpt lat="44.81502" lon="4.06323">
        <ele>1016.13</ele>
        <time>2022-03-21T09:18:33Z</time>
      </trkpt>
      <trkpt lat="44.81518" lon="4.06314">
        <ele>1014.6</ele>
        <time>2022-03-21T09:18:36Z</time>
      </trkpt>
      <trkpt lat="44.81534" lon="4.06308">
        <ele>1013.25</ele>
        <time>2022-03-21T09:18:39Z</time>
      </trkpt>
      <trkpt lat="44.81549" lon="4.06305">
        <ele>1010.89</ele>
        <time>2022-03-21T09:18:43Z</time>
      </trkpt>
      <trkpt lat="44.81565" lon="4.06305">
        <ele>1009.58</ele>
        <time>2022-03-21T09:18:46Z</time>
      </trkpt>
      <trkpt lat="44.81635" lon="4.06319">
        <ele>1005.88</ele>
        <time>2022-03-21T09:18:49Z</time>
      </trkpt>
      <trkpt lat="44.81702" lon="4.06339">
        <ele>999.85</ele>
        <time>2022-03-21T09:18:52Z</time>
      </trkpt>
      <trkpt lat="44.81716" lon="4.0634">
        <ele>999.95</ele>
        <time>2022-03-21T09:18:55Z</time>
      </trkpt>
      <trkpt lat="44.81733" lon="4.06338">
        <ele>1000.84</ele>
        <time>2022-03-21T09:18:59Z</time>
      </trkpt>
      <trkpt lat="44.81835" lon="4.06313">
        <ele>1003.62</ele>
        <time>2022-03-21T09:19:02Z</time>
      </trkpt>
      <trkpt lat="44.81933" lon="4.06276">
        <ele>1002.7</ele>
        <time>2022-03-21T09:19:05Z</time>
      </trkpt>
      <trkpt lat="44.82051" lon="4.06242">
        <ele>999.33</ele>
        <time>2022-03-21T09:19:08Z</time>
      </trkpt>
      <trkpt lat="44.82084" lon="4.06224">
        <ele>1000.14</ele>
        <time>2022-03-21T09:19:12Z</time>
      </trkpt>
      <trkpt lat="44.82117" lon="4.06197">
        <ele>995.97</ele>
        <time>2022-03-21T09:19:15Z</time>
      </trkpt>
      <trkpt lat="44.82132" lon="4.06189">
        <ele>994.77</ele>
        <time>2022-03-21T09:19:18Z</time>
      </trkpt>
      <trkpt lat="44.82144" lon="4.06188">
        <ele>993.84</ele>
        <time>2022-03-21T09:19:21Z</time>
      </trkpt>
      <trkpt lat="44.82152" lon="4.06192">
        <ele>992.89</ele>
        <time>2022-03-21T09:19:25Z</time>
      </trkpt>
      <trkpt lat="44.82175" lon="4.0621">
        <ele>991.04</ele>
        <time>2022-03-21T09:19:28Z</time>
      </trkpt>
      <trkpt lat="44.82188" lon="4.06214">
        <ele>989.51</ele>
        <time>2022-03-21T09:19:31Z</time>
      </trkpt>
      <trkpt lat="44.82201" lon="4.06214">
        <ele>987.6</ele>
        <time>2022-03-21T09:19:34Z</time>
      </trkpt>
      <trkpt lat="44.8222" lon="4.0621">
        <ele>984.37</ele>
        <time>2022-03-21T09:19:37Z</time>
      </trkpt>
      <trkpt lat="44.82264" lon="4.06192">
        <ele>978.41</ele>
        <time>2022-03-21T09:19:41Z</time>
      </trkpt>
      <trkpt lat="44.82279" lon="4.06183">
        <ele>977.05</ele>
        <time>2022-03-21T09:19:44Z</time>
      </trkpt>
      <trkpt lat="44.82289" lon="4.06174">
        <ele>975.46</ele>
        <time>2022-03-21T09:19:47Z</time>
      </trkpt>
      <trkpt lat="44.82294" lon="4.06163">
        <ele>974.12</ele>
        <time>2022-03-21T09:19:50Z</time>
      </trkpt>
      <trkpt lat="44.82295" lon="4.06149">
        <ele>973.28</ele>
        <time>2022-03-21T09:19:54Z</time>
      </trkpt>
      <trkpt lat="44.82295" lon="4.06087">
        <ele>971.91</ele>
        <time>2022-03-21T09:19:57Z</time>
      </trkpt>
      <trkpt lat="44.82297" lon="4.0607">
        <ele>971.58</ele>
        <time>2022-03-21T09:20:00Z</time>
      </trkpt>
      <trkpt lat="44.82301" lon="4.06055">
        <ele>970.76</ele>
        <time>2022-03-21T09:20:03Z</time>
      </trkpt>
      <trkpt lat="44.82308" lon="4.06044">
        <ele>969.16</ele>
        <time>2022-03-21T09:20:06Z</time>
      </trkpt>
      <trkpt lat="44.82318" lon="4.06035">
        <ele>967.33</ele>
        <time>2022-03-21T09:20:10Z</time>
      </trkpt>
      <trkpt lat="44.82328" lon="4.06029">
        <ele>965.77</ele>
        <time>2022-03-21T09:20:13Z</time>
      </trkpt>
      <trkpt lat="44.82339" lon="4.06027">
        <ele>964.34</ele>
        <time>2022-03-21T09:20:16Z</time>
      </trkpt>
      <trkpt lat="44.82351" lon="4.0603">
        <ele>963.15</ele>
        <time>2022-03-21T09:20:19Z</time>
      </trkpt>
      <trkpt lat="44.82361" lon="4.06037">
        <ele>962.37</ele>
        <time>2022-03-21T09:20:23Z</time>
      </trkpt>
      <trkpt lat="44.82368" lon="4.06048">
        <ele>961.52</ele>
        <time>2022-03-21T09:20:26Z</time>
      </trkpt>
      <trkpt lat="44.82373" lon="4.06065">
        <ele>960.4</ele>
        <time>2022-03-21T09:20:29Z</time>
      </trkpt>
      <trkpt lat="44.82375" lon="4.06113">
        <ele>956.85</ele>
        <time>2022-03-21T09:20:32Z</time>
      </trkpt>
      <trkpt lat="44.82377" lon="4.06198">
        <ele>957.34</ele>
        <time>2022-03-21T09:20:35Z</time>
      </trkpt>
      <trkpt lat="44.82379" lon="4.06222">
        <ele>957.49</ele>
        <time>2022-03-21T09:20:39Z</time>
      </trkpt>
      <trkpt lat="44.82384" lon="4.06241">
        <ele>956.02</ele>
        <time>2022-03-21T09:20:42Z</time>
      </trkpt>
      <trkpt lat="44.8239" lon="4.06255">
        <ele>953.88</ele>
        <time>2022-03-21T09:20:45Z</time>
      </trkpt>
      <trkpt lat="44.82399" lon="4.06267">
        <ele>951.59</ele>
        <time>2022-03-21T09:20:48Z</time>
      </trkpt>
      <trkpt lat="44.82414" lon="4.06283">
        <ele>946.63</ele>
        <time>2022-03-21T09:20:52Z</time>
      </trkpt>
      <trkpt lat="44.82419" lon="4.06293">
        <ele>945.55</ele>
        <time>2022-03-21T09:20:55Z</time>
      </trkpt>
      <trkpt lat="44.82441" lon="4.06367">
        <ele>942.44</ele>
        <time>2022-03-21T09:20:58Z</time>
      </trkpt>
      <trkpt lat="44.82448" lon="4.06404">
        <ele>940.2</ele>
        <time>2022-03-21T09:21:01Z</time>
      </trkpt>
      <trkpt lat="44.82445" lon="4.06408">
        <ele>941.16</ele>
        <time>2022-03-21T09:21:02Z</time>
      </trkpt>
      <trkpt lat="44.82443" lon="4.06413">
        <ele>941.56</ele>
        <time>2022-03-21T09:21:03Z</time>
      </trkpt>
      <trkpt lat="44.82443" lon="4.06418">
        <ele>941.23</ele>
        <time>2022-03-21T09:21:04Z</time>
      </trkpt>
      <trkpt lat="44.82446" lon="4.06423">
        <ele>940.18</ele>
        <time>2022-03-21T09:21:05Z</time>
      </trkpt>
      <trkpt lat="44.82449" lon="4.06426">
        <ele>938.88</ele>
        <time>2022-03-21T09:21:06Z</time>
      </trkpt>
      <trkpt lat="44.82454" lon="4.06425">
        <ele>937.44</ele>
        <time>2022-03-21T09:21:07Z</time>
      </trkpt>
      <trkpt lat="44.82458" lon="4.06421">
        <ele>936.51</ele>
        <time>2022-03-21T09:21:08Z</time>
      </trkpt>
      <trkpt lat="44.82459" lon="4.06415">
        <ele>936.38</ele>
        <time>2022-03-21T09:21:09Z</time>
      </trkpt>
      <trkpt lat="44.82458" lon="4.06409">
        <ele>937.07</ele>
        <time>2022-03-21T09:21:10Z</time>
      </trkpt>
      <trkpt lat="44.82466" lon="4.06399">
        <ele>934.64</ele>
        <time>2022-03-21T09:21:11Z</time>
      </trkpt>
      <trkpt lat="44.82471" lon="4.06387">
        <ele>933.5</ele>
        <time>2022-03-21T09:21:12Z</time>
      </trkpt>
      <trkpt lat="44.82472" lon="4.06373">
        <ele>933.02</ele>
        <time>2022-03-21T09:21:13Z</time>
      </trkpt>
      <trkpt lat="44.8247" lon="4.0636">
        <ele>933.6</ele>
        <time>2022-03-21T09:21:14Z</time>
      </trkpt>
      <trkpt lat="44.8246" lon="4.06332">
        <ele>933.9</ele>
        <time>2022-03-21T09:21:15Z</time>
      </trkpt>
      <trkpt lat="44.82458" lon="4.0632">
        <ele>932.93</ele>
        <time>2022-03-21T09:21:16Z</time>
      </trkpt>
      <trkpt lat="44.82459" lon="4.06304">
        <ele>930.63</ele>
        <time>2022-03-21T09:21:17Z</time>
      </trkpt>
      <trkpt lat="44.82464" lon="4.06292">
        <ele>927.98</ele>
        <time>2022-03-21T09:21:18Z</time>
      </trkpt>
      <trkpt lat="44.82483" lon="4.06273">
        <ele>925.64</ele>
        <time>2022-03-21T09:21:19Z</time>
      </trkpt>
      <trkpt lat="44.82492" lon="4.06255">
        <ele>926.52</ele>
        <time>2022-03-21T09:21:20Z</time>
      </trkpt>
      <trkpt lat="44.82495" lon="4.06203">
        <ele>928.63</ele>
        <time>2022-03-21T09:21:21Z</time>
      </trkpt>
      <trkpt lat="44.82501" lon="4.06164">
        <ele>929.47</ele>
        <time>2022-03-21T09:21:22Z</time>
      </trkpt>
      <trkpt lat="44.82512" lon="4.06128">
        <ele>932.06</ele>
        <time>2022-03-21T09:21:23Z</time>
      </trkpt>
      <trkpt lat="44.82541" lon="4.06057">
        <ele>934.21</ele>
        <time>2022-03-21T09:21:24Z</time>
      </trkpt>
      <trkpt lat="44.82544" lon="4.0604">
        <ele>933.59</ele>
        <time>2022-03-21T09:21:25Z</time>
      </trkpt>
      <trkpt lat="44.82548" lon="4.06003">
        <ele>931.15</ele>
        <time>2022-03-21T09:21:26Z</time>
      </trkpt>
      <trkpt lat="44.82574" lon="4.05889">
        <ele>933.37</ele>
        <time>2022-03-21T09:21:27Z</time>
      </trkpt>
      <trkpt lat="44.82576" lon="4.05873">
        <ele>933.98</ele>
        <time>2022-03-21T09:21:28Z</time>
      </trkpt>
      <trkpt lat="44.82569" lon="4.05817">
        <ele>930.32</ele>
        <time>2022-03-21T09:21:29Z</time>
      </trkpt>
      <trkpt lat="44.82567" lon="4.05771">
        <ele>930.52</ele>
        <time>2022-03-21T09:21:30Z</time>
      </trkpt>
      <trkpt lat="44.82559" lon="4.05724">
        <ele>933.93</ele>
        <time>2022-03-21T09:21:31Z</time>
      </trkpt>
      <trkpt lat="44.82545" lon="4.05698">
        <ele>934.4</ele>
        <time>2022-03-21T09:21:32Z</time>
      </trkpt>
      <trkpt lat="44.82491" lon="4.05626">
        <ele>932.61</ele>
        <time>2022-03-21T09:21:33Z</time>
      </trkpt>
      <trkpt lat="44.82471" lon="4.05577">
        <ele>931.99</ele>
        <time>2022-03-21T09:21:34Z</time>
      </trkpt>
      <trkpt lat="44.82476" lon="4.05559">
        <ele>934.91</ele>
        <time>2022-03-21T09:21:36Z</time>
      </trkpt>
      <trkpt lat="44.82476" lon="4.05549">
        <ele>935.59</ele>
        <time>2022-03-21T09:21:38Z</time>
      </trkpt>
      <trkpt lat="44.82467" lon="4.05519">
        <ele>934.81</ele>
        <time>2022-03-21T09:21:40Z</time>
      </trkpt>
      <trkpt lat="44.82449" lon="4.05485">
        <ele>931.61</ele>
        <time>2022-03-21T09:21:43Z</time>
      </trkpt>
      <trkpt lat="44.82444" lon="4.05463">
        <ele>931.09</ele>
        <time>2022-03-21T09:21:45Z</time>
      </trkpt>
      <trkpt lat="44.82446" lon="4.05443">
        <ele>932.39</ele>
        <time>2022-03-21T09:21:47Z</time>
      </trkpt>
      <trkpt lat="44.82452" lon="4.05422">
        <ele>934.57</ele>
        <time>2022-03-21T09:21:49Z</time>
      </trkpt>
      <trkpt lat="44.82472" lon="4.0537">
        <ele>941.35</ele>
        <time>2022-03-21T09:21:52Z</time>
      </trkpt>
      <trkpt lat="44.82475" lon="4.05345">
        <ele>942.2</ele>
        <time>2022-03-21T09:21:54Z</time>
      </trkpt>
      <trkpt lat="44.82467" lon="4.05231">
        <ele>946.49</ele>
        <time>2022-03-21T09:21:56Z</time>
      </trkpt>
      <trkpt lat="44.82473" lon="4.05172">
        <ele>948.12</ele>
        <time>2022-03-21T09:21:58Z</time>
      </trkpt>
      <trkpt lat="44.82497" lon="4.05096">
        <ele>952.24</ele>
        <time>2022-03-21T09:22:01Z</time>
      </trkpt>
      <trkpt lat="44.82529" lon="4.05033">
        <ele>950.18</ele>
        <time>2022-03-21T09:22:03Z</time>
      </trkpt>
      <trkpt lat="44.82535" lon="4.05024">
        <ele>950.1</ele>
        <time>2022-03-21T09:22:05Z</time>
      </trkpt>
      <trkpt lat="44.82544" lon="4.05016">
        <ele>950.18</ele>
        <time>2022-03-21T09:22:07Z</time>
      </trkpt>
      <trkpt lat="44.82554" lon="4.05014">
        <ele>950.03</ele>
        <time>2022-03-21T09:22:10Z</time>
      </trkpt>
      <trkpt lat="44.82628" lon="4.05008">
        <ele>948.1</ele>
        <time>2022-03-21T09:22:12Z</time>
      </trkpt>
      <trkpt lat="44.82639" lon="4.0501">
        <ele>947.99</ele>
        <time>2022-03-21T09:22:14Z</time>
      </trkpt>
      <trkpt lat="44.82651" lon="4.05018">
        <ele>947.28</ele>
        <time>2022-03-21T09:22:16Z</time>
      </trkpt>
      <trkpt lat="44.82661" lon="4.05031">
        <ele>946.76</ele>
        <time>2022-03-21T09:22:19Z</time>
      </trkpt>
      <trkpt lat="44.82727" lon="4.05138">
        <ele>942.69</ele>
        <time>2022-03-21T09:22:21Z</time>
      </trkpt>
      <trkpt lat="44.82751" lon="4.05164">
        <ele>944.65</ele>
        <time>2022-03-21T09:22:23Z</time>
      </trkpt>
      <trkpt lat="44.82766" lon="4.05177">
        <ele>945.6</ele>
        <time>2022-03-21T09:22:25Z</time>
      </trkpt>
      <trkpt lat="44.8278" lon="4.05184">
        <ele>946.12</ele>
        <time>2022-03-21T09:22:28Z</time>
      </trkpt>
      <trkpt lat="44.82793" lon="4.05186">
        <ele>946.27</ele>
        <time>2022-03-21T09:22:30Z</time>
      </trkpt>
      <trkpt lat="44.82815" lon="4.05176">
        <ele>944.26</ele>
        <time>2022-03-21T09:22:32Z</time>
      </trkpt>
      <trkpt lat="44.82841" lon="4.0516">
        <ele>942.85</ele>
        <time>2022-03-21T09:22:34Z</time>
      </trkpt>
      <trkpt lat="44.82855" lon="4.05146">
        <ele>943.91</ele>
        <time>2022-03-21T09:22:37Z</time>
      </trkpt>
      <trkpt lat="44.82865" lon="4.05127">
        <ele>945.83</ele>
        <time>2022-03-21T09:22:39Z</time>
      </trkpt>
      <trkpt lat="44.82871" lon="4.0511">
        <ele>947.49</ele>
        <time>2022-03-21T09:22:41Z</time>
      </trkpt>
      <trkpt lat="44.82874" lon="4.05063">
        <ele>948.86</ele>
        <time>2022-03-21T09:22:44Z</time>
      </trkpt>
      <trkpt lat="44.82872" lon="4.0504">
        <ele>949.2</ele>
        <time>2022-03-21T09:22:46Z</time>
      </trkpt>
      <trkpt lat="44.82864" lon="4.04994">
        <ele>949.78</ele>
        <time>2022-03-21T09:22:48Z</time>
      </trkpt>
      <trkpt lat="44.82859" lon="4.0494">
        <ele>950.82</ele>
        <time>2022-03-21T09:22:50Z</time>
      </trkpt>
      <trkpt lat="44.82863" lon="4.04894">
        <ele>950.34</ele>
        <time>2022-03-21T09:22:53Z</time>
      </trkpt>
      <trkpt lat="44.82895" lon="4.04727">
        <ele>951.45</ele>
        <time>2022-03-21T09:22:55Z</time>
      </trkpt>
      <trkpt lat="44.82904" lon="4.04707">
        <ele>951.28</ele>
        <time>2022-03-21T09:22:57Z</time>
      </trkpt>
      <trkpt lat="44.82949" lon="4.04629">
        <ele>953.15</ele>
        <time>2022-03-21T09:22:59Z</time>
      </trkpt>
      <trkpt lat="44.8297" lon="4.0458">
        <ele>952.79</ele>
        <time>2022-03-21T09:23:02Z</time>
      </trkpt>
      <trkpt lat="44.83002" lon="4.04469">
        <ele>951.1</ele>
        <time>2022-03-21T09:23:04Z</time>
      </trkpt>
      <trkpt lat="44.83019" lon="4.04421">
        <ele>953.59</ele>
        <time>2022-03-21T09:23:06Z</time>
      </trkpt>
      <trkpt lat="44.83027" lon="4.04392">
        <ele>954.87</ele>
        <time>2022-03-21T09:23:08Z</time>
      </trkpt>
      <trkpt lat="44.83031" lon="4.0436">
        <ele>954.39</ele>
        <time>2022-03-21T09:23:11Z</time>
      </trkpt>
      <trkpt lat="44.83039" lon="4.04264">
        <ele>951.27</ele>
        <time>2022-03-21T09:23:13Z</time>
      </trkpt>
      <trkpt lat="44.83045" lon="4.04219">
        <ele>948.82</ele>
        <time>2022-03-21T09:23:15Z</time>
      </trkpt>
      <trkpt lat="44.8305" lon="4.04198">
        <ele>949.28</ele>
        <time>2022-03-21T09:23:17Z</time>
      </trkpt>
      <trkpt lat="44.83067" lon="4.04155">
        <ele>951.05</ele>
        <time>2022-03-21T09:23:20Z</time>
      </trkpt>
      <trkpt lat="44.8309" lon="4.04111">
        <ele>949.47</ele>
        <time>2022-03-21T09:23:22Z</time>
      </trkpt>
      <trkpt lat="44.83104" lon="4.0409">
        <ele>949.55</ele>
        <time>2022-03-21T09:23:24Z</time>
      </trkpt>
      <trkpt lat="44.83148" lon="4.04036">
        <ele>950.33</ele>
        <time>2022-03-21T09:23:26Z</time>
      </trkpt>
      <trkpt lat="44.83169" lon="4.04016">
        <ele>949.85</ele>
        <time>2022-03-21T09:23:29Z</time>
      </trkpt>
      <trkpt lat="44.8319" lon="4.04011">
        <ele>951.11</ele>
        <time>2022-03-21T09:23:31Z</time>
      </trkpt>
      <trkpt lat="44.832" lon="4.04011">
        <ele>952.03</ele>
        <time>2022-03-21T09:23:33Z</time>
      </trkpt>
      <trkpt lat="44.83244" lon="4.04023">
        <ele>953.89</ele>
        <time>2022-03-21T09:23:35Z</time>
      </trkpt>
      <trkpt lat="44.83254" lon="4.04024">
        <ele>954.16</ele>
        <time>2022-03-21T09:23:38Z</time>
      </trkpt>
      <trkpt lat="44.83271" lon="4.0402">
        <ele>956.14</ele>
        <time>2022-03-21T09:23:40Z</time>
      </trkpt>
      <trkpt lat="44.83281" lon="4.04012">
        <ele>957.26</ele>
        <time>2022-03-21T09:23:42Z</time>
      </trkpt>
      <trkpt lat="44.83288" lon="4.04004">
        <ele>958.59</ele>
        <time>2022-03-21T09:23:44Z</time>
      </trkpt>
      <trkpt lat="44.83299" lon="4.03984">
        <ele>959.46</ele>
        <time>2022-03-21T09:23:47Z</time>
      </trkpt>
      <trkpt lat="44.83309" lon="4.03955">
        <ele>959.98</ele>
        <time>2022-03-21T09:23:49Z</time>
      </trkpt>
      <trkpt lat="44.83331" lon="4.03844">
        <ele>957.88</ele>
        <time>2022-03-21T09:23:51Z</time>
      </trkpt>
      <trkpt lat="44.83339" lon="4.03817">
        <ele>956.16</ele>
        <time>2022-03-21T09:23:53Z</time>
      </trkpt>
      <trkpt lat="44.83356" lon="4.03778">
        <ele>954.68</ele>
        <time>2022-03-21T09:23:56Z</time>
      </trkpt>
      <trkpt lat="44.83364" lon="4.03766">
        <ele>954.27</ele>
        <time>2022-03-21T09:23:58Z</time>
      </trkpt>
      <trkpt lat="44.83375" lon="4.03756">
        <ele>953.6</ele>
        <time>2022-03-21T09:24:00Z</time>
      </trkpt>
      <trkpt lat="44.83386" lon="4.0375">
        <ele>953.62</ele>
        <time>2022-03-21T09:24:02Z</time>
      </trkpt>
      <trkpt lat="44.83437" lon="4.03743">
        <ele>955.23</ele>
        <time>2022-03-21T09:24:05Z</time>
      </trkpt>
      <trkpt lat="44.83482" lon="4.03728">
        <ele>953.96</ele>
        <time>2022-03-21T09:24:07Z</time>
      </trkpt>
      <trkpt lat="44.83503" lon="4.03711">
        <ele>953.91</ele>
        <time>2022-03-21T09:24:09Z</time>
      </trkpt>
      <trkpt lat="44.83526" lon="4.03686">
        <ele>956.67</ele>
        <time>2022-03-21T09:24:11Z</time>
      </trkpt>
      <trkpt lat="44.8355" lon="4.03666">
        <ele>956.48</ele>
        <time>2022-03-21T09:24:14Z</time>
      </trkpt>
      <trkpt lat="44.83582" lon="4.03652">
        <ele>954.36</ele>
        <time>2022-03-21T09:24:16Z</time>
      </trkpt>
      <trkpt lat="44.83614" lon="4.03649">
        <ele>954.97</ele>
        <time>2022-03-21T09:24:18Z</time>
      </trkpt>
      <trkpt lat="44.83706" lon="4.03666">
        <ele>960.31</ele>
        <time>2022-03-21T09:24:20Z</time>
      </trkpt>
      <trkpt lat="44.83717" lon="4.03666">
        <ele>960.69</ele>
        <time>2022-03-21T09:24:23Z</time>
      </trkpt>
      <trkpt lat="44.83766" lon="4.0365">
        <ele>958.97</ele>
        <time>2022-03-21T09:24:25Z</time>
      </trkpt>
      <trkpt lat="44.83788" lon="4.0365">
        <ele>957.01</ele>
        <time>2022-03-21T09:24:27Z</time>
      </trkpt>
      <trkpt lat="44.83807" lon="4.03653">
        <ele>955.5</ele>
        <time>2022-03-21T09:24:29Z</time>
      </trkpt>
      <trkpt lat="44.8382" lon="4.03659">
        <ele>955.19</ele>
        <time>2022-03-21T09:24:32Z</time>
      </trkpt>
      <trkpt lat="44.83838" lon="4.03674">
        <ele>955.31</ele>
        <time>2022-03-21T09:24:34Z</time>
      </trkpt>
      <trkpt lat="44.83852" lon="4.03695">
        <ele>956.1</ele>
        <time>2022-03-21T09:24:36Z</time>
      </trkpt>
      <trkpt lat="44.83861" lon="4.03716">
        <ele>955.84</ele>
        <time>2022-03-21T09:24:39Z</time>
      </trkpt>
      <trkpt lat="44.83884" lon="4.03782">
        <ele>957.33</ele>
        <time>2022-03-21T09:24:41Z</time>
      </trkpt>
      <trkpt lat="44.83894" lon="4.03805">
        <ele>958.58</ele>
        <time>2022-03-21T09:24:43Z</time>
      </trkpt>
      <trkpt lat="44.83902" lon="4.03816">
        <ele>959.24</ele>
        <time>2022-03-21T09:24:45Z</time>
      </trkpt>
      <trkpt lat="44.8391" lon="4.03822">
        <ele>959.28</ele>
        <time>2022-03-21T09:24:48Z</time>
      </trkpt>
      <trkpt lat="44.83918" lon="4.03823">
        <ele>958.97</ele>
        <time>2022-03-21T09:24:50Z</time>
      </trkpt>
      <trkpt lat="44.83927" lon="4.03821">
        <ele>959.22</ele>
        <time>2022-03-21T09:24:52Z</time>
      </trkpt>
      <trkpt lat="44.83934" lon="4.03813">
        <ele>958.33</ele>
        <time>2022-03-21T09:24:54Z</time>
      </trkpt>
      <trkpt lat="44.83988" lon="4.03732">
        <ele>951.91</ele>
        <time>2022-03-21T09:24:57Z</time>
      </trkpt>
      <trkpt lat="44.84009" lon="4.03704">
        <ele>948.35</ele>
        <time>2022-03-21T09:24:59Z</time>
      </trkpt>
      <trkpt lat="44.8408" lon="4.03643">
        <ele>946.19</ele>
        <time>2022-03-21T09:25:01Z</time>
      </trkpt>
      <trkpt lat="44.841" lon="4.03629">
        <ele>945.26</ele>
        <time>2022-03-21T09:25:03Z</time>
      </trkpt>
      <trkpt lat="44.84111" lon="4.03625">
        <ele>945</ele>
        <time>2022-03-21T09:25:06Z</time>
      </trkpt>
      <trkpt lat="44.84174" lon="4.03621">
        <ele>942.96</ele>
        <time>2022-03-21T09:25:08Z</time>
      </trkpt>
      <trkpt lat="44.84198" lon="4.03616">
        <ele>941.01</ele>
        <time>2022-03-21T09:25:10Z</time>
      </trkpt>
      <trkpt lat="44.84258" lon="4.03579">
        <ele>941.07</ele>
        <time>2022-03-21T09:25:12Z</time>
      </trkpt>
      <trkpt lat="44.84283" lon="4.03567">
        <ele>941.31</ele>
        <time>2022-03-21T09:25:15Z</time>
      </trkpt>
      <trkpt lat="44.84314" lon="4.03558">
        <ele>941.65</ele>
        <time>2022-03-21T09:25:17Z</time>
      </trkpt>
      <trkpt lat="44.84322" lon="4.03553">
        <ele>941.12</ele>
        <time>2022-03-21T09:25:19Z</time>
      </trkpt>
      <trkpt lat="44.8433" lon="4.03546">
        <ele>940.09</ele>
        <time>2022-03-21T09:25:21Z</time>
      </trkpt>
      <trkpt lat="44.84353" lon="4.03505">
        <ele>938.15</ele>
        <time>2022-03-21T09:25:24Z</time>
      </trkpt>
      <trkpt lat="44.84363" lon="4.03493">
        <ele>938.37</ele>
        <time>2022-03-21T09:25:26Z</time>
      </trkpt>
      <trkpt lat="44.84375" lon="4.03482">
        <ele>938.39</ele>
        <time>2022-03-21T09:25:28Z</time>
      </trkpt>
      <trkpt lat="44.84409" lon="4.03461">
        <ele>939.55</ele>
        <time>2022-03-21T09:25:30Z</time>
      </trkpt>
      <trkpt lat="44.84454" lon="4.03445">
        <ele>939.69</ele>
        <time>2022-03-21T09:25:33Z</time>
      </trkpt>
      <trkpt lat="44.84464" lon="4.03438">
        <ele>939.67</ele>
        <time>2022-03-21T09:25:35Z</time>
      </trkpt>
      <trkpt lat="44.84475" lon="4.03426">
        <ele>939.1</ele>
        <time>2022-03-21T09:25:37Z</time>
      </trkpt>
      <trkpt lat="44.84481" lon="4.03416">
        <ele>938.34</ele>
        <time>2022-03-21T09:25:39Z</time>
      </trkpt>
      <trkpt lat="44.84486" lon="4.03404">
        <ele>938.74</ele>
        <time>2022-03-21T09:25:42Z</time>
      </trkpt>
      <trkpt lat="44.8449" lon="4.0339">
        <ele>939.23</ele>
        <time>2022-03-21T09:25:44Z</time>
      </trkpt>
      <trkpt lat="44.84489" lon="4.03365">
        <ele>940.03</ele>
        <time>2022-03-21T09:25:46Z</time>
      </trkpt>
      <trkpt lat="44.84485" lon="4.03353">
        <ele>940.32</ele>
        <time>2022-03-21T09:25:48Z</time>
      </trkpt>
      <trkpt lat="44.84469" lon="4.03329">
        <ele>939.58</ele>
        <time>2022-03-21T09:25:51Z</time>
      </trkpt>
      <trkpt lat="44.84413" lon="4.03272">
        <ele>937.58</ele>
        <time>2022-03-21T09:25:53Z</time>
      </trkpt>
      <trkpt lat="44.84365" lon="4.03229">
        <ele>941.62</ele>
        <time>2022-03-21T09:25:55Z</time>
      </trkpt>
      <trkpt lat="44.84353" lon="4.03221">
        <ele>942.36</ele>
        <time>2022-03-21T09:25:57Z</time>
      </trkpt>
      <trkpt lat="44.84327" lon="4.03207">
        <ele>944.01</ele>
        <time>2022-03-21T09:26:00Z</time>
      </trkpt>
      <trkpt lat="44.84304" lon="4.03199">
        <ele>944.49</ele>
        <time>2022-03-21T09:26:02Z</time>
      </trkpt>
      <trkpt lat="44.84293" lon="4.03197">
        <ele>944.64</ele>
        <time>2022-03-21T09:26:04Z</time>
      </trkpt>
      <trkpt lat="44.84234" lon="4.03198">
        <ele>945.72</ele>
        <time>2022-03-21T09:26:06Z</time>
      </trkpt>
      <trkpt lat="44.84217" lon="4.03192">
        <ele>945.33</ele>
        <time>2022-03-21T09:26:09Z</time>
      </trkpt>
      <trkpt lat="44.84209" lon="4.03186">
        <ele>944.41</ele>
        <time>2022-03-21T09:26:11Z</time>
      </trkpt>
      <trkpt lat="44.84205" lon="4.03178">
        <ele>944.12</ele>
        <time>2022-03-21T09:26:13Z</time>
      </trkpt>
      <trkpt lat="44.84203" lon="4.03165">
        <ele>944.23</ele>
        <time>2022-03-21T09:26:15Z</time>
      </trkpt>
      <trkpt lat="44.84203" lon="4.03152">
        <ele>944.65</ele>
        <time>2022-03-21T09:26:18Z</time>
      </trkpt>
      <trkpt lat="44.84208" lon="4.03139">
        <ele>945.44</ele>
        <time>2022-03-21T09:26:20Z</time>
      </trkpt>
      <trkpt lat="44.84218" lon="4.03126">
        <ele>946.91</ele>
        <time>2022-03-21T09:26:22Z</time>
      </trkpt>
      <trkpt lat="44.84224" lon="4.03121">
        <ele>947.73</ele>
        <time>2022-03-21T09:26:24Z</time>
      </trkpt>
      <trkpt lat="44.84295" lon="4.03082">
        <ele>949.35</ele>
        <time>2022-03-21T09:26:27Z</time>
      </trkpt>
      <trkpt lat="44.84306" lon="4.03079">
        <ele>948.83</ele>
        <time>2022-03-21T09:26:29Z</time>
      </trkpt>
      <trkpt lat="44.84305" lon="4.03079">
        <ele>949.09</ele>
        <time>2022-03-21T09:26:29Z</time>
      </trkpt>
      <trkpt lat="44.84305" lon="4.03079">
        <ele>949.09</ele>
        <time>2022-03-21T09:26:29Z</time>
      </trkpt>
      <trkpt lat="44.84306" lon="4.03079">
        <ele>948.83</ele>
        <time>2022-03-21T09:26:29Z</time>
      </trkpt>
      <trkpt lat="44.84316" lon="4.03078">
        <ele>948.5</ele>
        <time>2022-03-21T09:26:31Z</time>
      </trkpt>
      <trkpt lat="44.84369" lon="4.03085">
        <ele>950.25</ele>
        <time>2022-03-21T09:26:33Z</time>
      </trkpt>
      <trkpt lat="44.84422" lon="4.03081">
        <ele>951.1</ele>
        <time>2022-03-21T09:26:35Z</time>
      </trkpt>
      <trkpt lat="44.84457" lon="4.03082">
        <ele>951.93</ele>
        <time>2022-03-21T09:26:37Z</time>
      </trkpt>
      <trkpt lat="44.84463" lon="4.03084">
        <ele>952.02</ele>
        <time>2022-03-21T09:26:39Z</time>
      </trkpt>
      <trkpt lat="44.84482" lon="4.03095">
        <ele>952.27</ele>
        <time>2022-03-21T09:26:41Z</time>
      </trkpt>
      <trkpt lat="44.84524" lon="4.03127">
        <ele>951.5</ele>
        <time>2022-03-21T09:26:43Z</time>
      </trkpt>
      <trkpt lat="44.84548" lon="4.0314">
        <ele>951.74</ele>
        <time>2022-03-21T09:26:45Z</time>
      </trkpt>
      <trkpt lat="44.8461" lon="4.03151">
        <ele>956.34</ele>
        <time>2022-03-21T09:26:47Z</time>
      </trkpt>
      <trkpt lat="44.84623" lon="4.03155">
        <ele>957.46</ele>
        <time>2022-03-21T09:26:49Z</time>
      </trkpt>
      <trkpt lat="44.84669" lon="4.03177">
        <ele>960.22</ele>
        <time>2022-03-21T09:26:51Z</time>
      </trkpt>
      <trkpt lat="44.84686" lon="4.03183">
        <ele>961.8</ele>
        <time>2022-03-21T09:26:53Z</time>
      </trkpt>
      <trkpt lat="44.84697" lon="4.03184">
        <ele>962.55</ele>
        <time>2022-03-21T09:26:55Z</time>
      </trkpt>
      <trkpt lat="44.84742" lon="4.0318">
        <ele>963.24</ele>
        <time>2022-03-21T09:26:57Z</time>
      </trkpt>
      <trkpt lat="44.84762" lon="4.03175">
        <ele>964.35</ele>
        <time>2022-03-21T09:26:59Z</time>
      </trkpt>
      <trkpt lat="44.8477" lon="4.03171">
        <ele>965.11</ele>
        <time>2022-03-21T09:27:01Z</time>
      </trkpt>
      <trkpt lat="44.84783" lon="4.0316">
        <ele>966.16</ele>
        <time>2022-03-21T09:27:03Z</time>
      </trkpt>
      <trkpt lat="44.84852" lon="4.03092">
        <ele>968.7</ele>
        <time>2022-03-21T09:27:05Z</time>
      </trkpt>
      <trkpt lat="44.84864" lon="4.03089">
        <ele>970.76</ele>
        <time>2022-03-21T09:27:07Z</time>
      </trkpt>
      <trkpt lat="44.8487" lon="4.03092">
        <ele>972.23</ele>
        <time>2022-03-21T09:27:09Z</time>
      </trkpt>
      <trkpt lat="44.84874" lon="4.03098">
        <ele>973.51</ele>
        <time>2022-03-21T09:27:11Z</time>
      </trkpt>
      <trkpt lat="44.84876" lon="4.03104">
        <ele>974.43</ele>
        <time>2022-03-21T09:27:13Z</time>
      </trkpt>
      <trkpt lat="44.84877" lon="4.03111">
        <ele>975.11</ele>
        <time>2022-03-21T09:27:15Z</time>
      </trkpt>
      <trkpt lat="44.84876" lon="4.0312">
        <ele>974.97</ele>
        <time>2022-03-21T09:27:17Z</time>
      </trkpt>
      <trkpt lat="44.84856" lon="4.03169">
        <ele>973.46</ele>
        <time>2022-03-21T09:27:19Z</time>
      </trkpt>
      <trkpt lat="44.84852" lon="4.03191">
        <ele>973.64</ele>
        <time>2022-03-21T09:27:21Z</time>
      </trkpt>
      <trkpt lat="44.84855" lon="4.03227">
        <ele>975.22</ele>
        <time>2022-03-21T09:27:23Z</time>
      </trkpt>
      <trkpt lat="44.8486" lon="4.0327">
        <ele>976.15</ele>
        <time>2022-03-21T09:27:25Z</time>
      </trkpt>
      <trkpt lat="44.84867" lon="4.03288">
        <ele>976.37</ele>
        <time>2022-03-21T09:27:27Z</time>
      </trkpt>
      <trkpt lat="44.84876" lon="4.03302">
        <ele>976.81</ele>
        <time>2022-03-21T09:27:29Z</time>
      </trkpt>
      <trkpt lat="44.8489" lon="4.03315">
        <ele>977.42</ele>
        <time>2022-03-21T09:27:31Z</time>
      </trkpt>
      <trkpt lat="44.84925" lon="4.03338">
        <ele>980.22</ele>
        <time>2022-03-21T09:27:33Z</time>
      </trkpt>
      <trkpt lat="44.84949" lon="4.03351">
        <ele>983.44</ele>
        <time>2022-03-21T09:27:35Z</time>
      </trkpt>
      <trkpt lat="44.84966" lon="4.03358">
        <ele>985.36</ele>
        <time>2022-03-21T09:27:37Z</time>
      </trkpt>
      <trkpt lat="44.85081" lon="4.03401">
        <ele>993.08</ele>
        <time>2022-03-21T09:27:39Z</time>
      </trkpt>
      <trkpt lat="44.85139" lon="4.03406">
        <ele>994.66</ele>
        <time>2022-03-21T09:27:41Z</time>
      </trkpt>
      <trkpt lat="44.8516" lon="4.03414">
        <ele>993.36</ele>
        <time>2022-03-21T09:27:42Z</time>
      </trkpt>
      <trkpt lat="44.85166" lon="4.0342">
        <ele>993.73</ele>
        <time>2022-03-21T09:27:44Z</time>
      </trkpt>
      <trkpt lat="44.85195" lon="4.03458">
        <ele>994.9</ele>
        <time>2022-03-21T09:27:46Z</time>
      </trkpt>
      <trkpt lat="44.85219" lon="4.03496">
        <ele>1000.44</ele>
        <time>2022-03-21T09:27:48Z</time>
      </trkpt>
      <trkpt lat="44.8523" lon="4.03504">
        <ele>1003.18</ele>
        <time>2022-03-21T09:27:50Z</time>
      </trkpt>
      <trkpt lat="44.85234" lon="4.03503">
        <ele>1003.82</ele>
        <time>2022-03-21T09:27:52Z</time>
      </trkpt>
      <trkpt lat="44.85239" lon="4.03499">
        <ele>1003.83</ele>
        <time>2022-03-21T09:27:54Z</time>
      </trkpt>
      <trkpt lat="44.85243" lon="4.03493">
        <ele>1002.93</ele>
        <time>2022-03-21T09:27:56Z</time>
      </trkpt>
      <trkpt lat="44.8526" lon="4.03437">
        <ele>997.35</ele>
        <time>2022-03-21T09:27:58Z</time>
      </trkpt>
      <trkpt lat="44.85272" lon="4.03383">
        <ele>998.39</ele>
        <time>2022-03-21T09:28:00Z</time>
      </trkpt>
      <trkpt lat="44.8528" lon="4.03364">
        <ele>998.75</ele>
        <time>2022-03-21T09:28:02Z</time>
      </trkpt>
      <trkpt lat="44.85287" lon="4.03355">
        <ele>998.76</ele>
        <time>2022-03-21T09:28:04Z</time>
      </trkpt>
      <trkpt lat="44.85311" lon="4.03327">
        <ele>1000.03</ele>
        <time>2022-03-21T09:28:06Z</time>
      </trkpt>
      <trkpt lat="44.8534" lon="4.033">
        <ele>1000.72</ele>
        <time>2022-03-21T09:28:08Z</time>
      </trkpt>
      <trkpt lat="44.85413" lon="4.03244">
        <ele>1002.68</ele>
        <time>2022-03-21T09:28:10Z</time>
      </trkpt>
      <trkpt lat="44.85422" lon="4.0324">
        <ele>1002.43</ele>
        <time>2022-03-21T09:28:12Z</time>
      </trkpt>
      <trkpt lat="44.8543" lon="4.03239">
        <ele>1002.65</ele>
        <time>2022-03-21T09:28:14Z</time>
      </trkpt>
      <trkpt lat="44.85442" lon="4.03244">
        <ele>1004.45</ele>
        <time>2022-03-21T09:28:16Z</time>
      </trkpt>
      <trkpt lat="44.85448" lon="4.03252">
        <ele>1006.45</ele>
        <time>2022-03-21T09:28:18Z</time>
      </trkpt>
      <trkpt lat="44.85474" lon="4.03295">
        <ele>1014.79</ele>
        <time>2022-03-21T09:28:20Z</time>
      </trkpt>
      <trkpt lat="44.85492" lon="4.03318">
        <ele>1020.03</ele>
        <time>2022-03-21T09:28:22Z</time>
      </trkpt>
      <trkpt lat="44.85527" lon="4.03345">
        <ele>1022.7</ele>
        <time>2022-03-21T09:28:24Z</time>
      </trkpt>
      <trkpt lat="44.85553" lon="4.03361">
        <ele>1021.57</ele>
        <time>2022-03-21T09:28:26Z</time>
      </trkpt>
      <trkpt lat="44.85583" lon="4.03376">
        <ele>1021.7</ele>
        <time>2022-03-21T09:28:28Z</time>
      </trkpt>
      <trkpt lat="44.85601" lon="4.03382">
        <ele>1022.89</ele>
        <time>2022-03-21T09:28:30Z</time>
      </trkpt>
      <trkpt lat="44.85646" lon="4.03388">
        <ele>1025.24</ele>
        <time>2022-03-21T09:28:32Z</time>
      </trkpt>
      <trkpt lat="44.85669" lon="4.03394">
        <ele>1028.48</ele>
        <time>2022-03-21T09:28:34Z</time>
      </trkpt>
      <trkpt lat="44.85709" lon="4.03419">
        <ele>1032.84</ele>
        <time>2022-03-21T09:28:36Z</time>
      </trkpt>
      <trkpt lat="44.85762" lon="4.03463">
        <ele>1038.86</ele>
        <time>2022-03-21T09:28:38Z</time>
      </trkpt>
      <trkpt lat="44.85789" lon="4.03484">
        <ele>1041.05</ele>
        <time>2022-03-21T09:28:40Z</time>
      </trkpt>
      <trkpt lat="44.8588" lon="4.03521">
        <ele>1044.01</ele>
        <time>2022-03-21T09:28:42Z</time>
      </trkpt>
      <trkpt lat="44.85887" lon="4.03527">
        <ele>1044.16</ele>
        <time>2022-03-21T09:28:44Z</time>
      </trkpt>
      <trkpt lat="44.85892" lon="4.03537">
        <ele>1044.02</ele>
        <time>2022-03-21T09:28:46Z</time>
      </trkpt>
      <trkpt lat="44.85894" lon="4.03553">
        <ele>1044.49</ele>
        <time>2022-03-21T09:28:48Z</time>
      </trkpt>
      <trkpt lat="44.85894" lon="4.03567">
        <ele>1045.11</ele>
        <time>2022-03-21T09:28:50Z</time>
      </trkpt>
      <trkpt lat="44.8589" lon="4.03581">
        <ele>1046.59</ele>
        <time>2022-03-21T09:28:52Z</time>
      </trkpt>
      <trkpt lat="44.85874" lon="4.03624">
        <ele>1049.43</ele>
        <time>2022-03-21T09:28:54Z</time>
      </trkpt>
      <trkpt lat="44.85868" lon="4.03656">
        <ele>1052.6</ele>
        <time>2022-03-21T09:28:56Z</time>
      </trkpt>
      <trkpt lat="44.85867" lon="4.03694">
        <ele>1053.4</ele>
        <time>2022-03-21T09:28:58Z</time>
      </trkpt>
      <trkpt lat="44.85873" lon="4.03738">
        <ele>1052.87</ele>
        <time>2022-03-21T09:29:00Z</time>
      </trkpt>
      <trkpt lat="44.85884" lon="4.03763">
        <ele>1051.05</ele>
        <time>2022-03-21T09:29:02Z</time>
      </trkpt>
      <trkpt lat="44.85891" lon="4.03769">
        <ele>1050.23</ele>
        <time>2022-03-21T09:29:04Z</time>
      </trkpt>
      <trkpt lat="44.85897" lon="4.03774">
        <ele>1050.05</ele>
        <time>2022-03-21T09:29:06Z</time>
      </trkpt>
      <trkpt lat="44.85917" lon="4.03776">
        <ele>1048.81</ele>
        <time>2022-03-21T09:29:08Z</time>
      </trkpt>
      <trkpt lat="44.85926" lon="4.0378">
        <ele>1048.86</ele>
        <time>2022-03-21T09:29:10Z</time>
      </trkpt>
      <trkpt lat="44.85936" lon="4.03787">
        <ele>1049.33</ele>
        <time>2022-03-21T09:29:12Z</time>
      </trkpt>
      <trkpt lat="44.85956" lon="4.03814">
        <ele>1049.54</ele>
        <time>2022-03-21T09:29:13Z</time>
      </trkpt>
      <trkpt lat="44.85963" lon="4.03835">
        <ele>1049.31</ele>
        <time>2022-03-21T09:29:15Z</time>
      </trkpt>
      <trkpt lat="44.85963" lon="4.03848">
        <ele>1049.79</ele>
        <time>2022-03-21T09:29:17Z</time>
      </trkpt>
      <trkpt lat="44.85954" lon="4.03899">
        <ele>1056.49</ele>
        <time>2022-03-21T09:29:19Z</time>
      </trkpt>
      <trkpt lat="44.85954" lon="4.03912">
        <ele>1058.26</ele>
        <time>2022-03-21T09:29:21Z</time>
      </trkpt>
      <trkpt lat="44.85957" lon="4.03929">
        <ele>1058.45</ele>
        <time>2022-03-21T09:29:23Z</time>
      </trkpt>
      <trkpt lat="44.85962" lon="4.03937">
        <ele>1057.42</ele>
        <time>2022-03-21T09:29:25Z</time>
      </trkpt>
      <trkpt lat="44.85985" lon="4.03949">
        <ele>1053.48</ele>
        <time>2022-03-21T09:29:27Z</time>
      </trkpt>
      <trkpt lat="44.85993" lon="4.03957">
        <ele>1053.51</ele>
        <time>2022-03-21T09:29:29Z</time>
      </trkpt>
      <trkpt lat="44.86006" lon="4.03972">
        <ele>1054.8</ele>
        <time>2022-03-21T09:29:31Z</time>
      </trkpt>
      <trkpt lat="44.86021" lon="4.03993">
        <ele>1058.15</ele>
        <time>2022-03-21T09:29:33Z</time>
      </trkpt>
      <trkpt lat="44.86029" lon="4.04001">
        <ele>1058.96</ele>
        <time>2022-03-21T09:29:35Z</time>
      </trkpt>
      <trkpt lat="44.86042" lon="4.04008">
        <ele>1059.39</ele>
        <time>2022-03-21T09:29:37Z</time>
      </trkpt>
      <trkpt lat="44.86056" lon="4.04009">
        <ele>1057.87</ele>
        <time>2022-03-21T09:29:39Z</time>
      </trkpt>
      <trkpt lat="44.86075" lon="4.04018">
        <ele>1056.72</ele>
        <time>2022-03-21T09:29:41Z</time>
      </trkpt>
      <trkpt lat="44.86084" lon="4.04025">
        <ele>1057.15</ele>
        <time>2022-03-21T09:29:43Z</time>
      </trkpt>
      <trkpt lat="44.86093" lon="4.04037">
        <ele>1057.78</ele>
        <time>2022-03-21T09:29:45Z</time>
      </trkpt>
      <trkpt lat="44.861" lon="4.04051">
        <ele>1058.33</ele>
        <time>2022-03-21T09:29:47Z</time>
      </trkpt>
      <trkpt lat="44.86109" lon="4.04079">
        <ele>1058.51</ele>
        <time>2022-03-21T09:29:49Z</time>
      </trkpt>
      <trkpt lat="44.86109" lon="4.04094">
        <ele>1058.3</ele>
        <time>2022-03-21T09:29:51Z</time>
      </trkpt>
      <trkpt lat="44.86108" lon="4.04108">
        <ele>1058.49</ele>
        <time>2022-03-21T09:29:53Z</time>
      </trkpt>
      <trkpt lat="44.86091" lon="4.04152">
        <ele>1063.89</ele>
        <time>2022-03-21T09:29:55Z</time>
      </trkpt>
      <trkpt lat="44.86091" lon="4.04181">
        <ele>1064.61</ele>
        <time>2022-03-21T09:29:57Z</time>
      </trkpt>
      <trkpt lat="44.86095" lon="4.04205">
        <ele>1064.77</ele>
        <time>2022-03-21T09:29:59Z</time>
      </trkpt>
      <trkpt lat="44.86105" lon="4.04234">
        <ele>1064.08</ele>
        <time>2022-03-21T09:30:01Z</time>
      </trkpt>
      <trkpt lat="44.86113" lon="4.04272">
        <ele>1068.2</ele>
        <time>2022-03-21T09:30:03Z</time>
      </trkpt>
      <trkpt lat="44.86116" lon="4.04284">
        <ele>1069.44</ele>
        <time>2022-03-21T09:30:05Z</time>
      </trkpt>
      <trkpt lat="44.86127" lon="4.04298">
        <ele>1068.32</ele>
        <time>2022-03-21T09:30:07Z</time>
      </trkpt>
      <trkpt lat="44.86135" lon="4.04301">
        <ele>1066.62</ele>
        <time>2022-03-21T09:30:09Z</time>
      </trkpt>
      <trkpt lat="44.86149" lon="4.04297">
        <ele>1064.71</ele>
        <time>2022-03-21T09:30:11Z</time>
      </trkpt>
      <trkpt lat="44.86153" lon="4.04294">
        <ele>1064.31</ele>
        <time>2022-03-21T09:30:13Z</time>
      </trkpt>
      <trkpt lat="44.86156" lon="4.04287">
        <ele>1063.5</ele>
        <time>2022-03-21T09:30:15Z</time>
      </trkpt>
      <trkpt lat="44.86154" lon="4.04253">
        <ele>1060.29</ele>
        <time>2022-03-21T09:30:17Z</time>
      </trkpt>
      <trkpt lat="44.86156" lon="4.04227">
        <ele>1058.3</ele>
        <time>2022-03-21T09:30:19Z</time>
      </trkpt>
      <trkpt lat="44.86161" lon="4.04217">
        <ele>1057.97</ele>
        <time>2022-03-21T09:30:21Z</time>
      </trkpt>
      <trkpt lat="44.86195" lon="4.04166">
        <ele>1062.05</ele>
        <time>2022-03-21T09:30:23Z</time>
      </trkpt>
      <trkpt lat="44.86209" lon="4.04138">
        <ele>1063.18</ele>
        <time>2022-03-21T09:30:25Z</time>
      </trkpt>
      <trkpt lat="44.86213" lon="4.04126">
        <ele>1063.46</ele>
        <time>2022-03-21T09:30:27Z</time>
      </trkpt>
      <trkpt lat="44.86217" lon="4.04092">
        <ele>1062.51</ele>
        <time>2022-03-21T09:30:29Z</time>
      </trkpt>
      <trkpt lat="44.8622" lon="4.04077">
        <ele>1062.39</ele>
        <time>2022-03-21T09:30:31Z</time>
      </trkpt>
      <trkpt lat="44.86225" lon="4.04063">
        <ele>1062.63</ele>
        <time>2022-03-21T09:30:33Z</time>
      </trkpt>
      <trkpt lat="44.86246" lon="4.04033">
        <ele>1063.58</ele>
        <time>2022-03-21T09:30:35Z</time>
      </trkpt>
      <trkpt lat="44.86255" lon="4.04023">
        <ele>1064.51</ele>
        <time>2022-03-21T09:30:37Z</time>
      </trkpt>
      <trkpt lat="44.86287" lon="4.04003">
        <ele>1068.82</ele>
        <time>2022-03-21T09:30:39Z</time>
      </trkpt>
      <trkpt lat="44.86299" lon="4.03994">
        <ele>1072</ele>
        <time>2022-03-21T09:30:41Z</time>
      </trkpt>
      <trkpt lat="44.8631" lon="4.03984">
        <ele>1073.84</ele>
        <time>2022-03-21T09:30:42Z</time>
      </trkpt>
      <trkpt lat="44.8632" lon="4.03968">
        <ele>1074.29</ele>
        <time>2022-03-21T09:30:44Z</time>
      </trkpt>
      <trkpt lat="44.86356" lon="4.03903">
        <ele>1072.86</ele>
        <time>2022-03-21T09:30:46Z</time>
      </trkpt>
      <trkpt lat="44.86364" lon="4.03895">
        <ele>1073.79</ele>
        <time>2022-03-21T09:30:48Z</time>
      </trkpt>
      <trkpt lat="44.86448" lon="4.03847">
        <ele>1083.71</ele>
        <time>2022-03-21T09:30:50Z</time>
      </trkpt>
      <trkpt lat="44.86459" lon="4.03838">
        <ele>1084.7</ele>
        <time>2022-03-21T09:30:52Z</time>
      </trkpt>
      <trkpt lat="44.86524" lon="4.03764">
        <ele>1082.04</ele>
        <time>2022-03-21T09:30:54Z</time>
      </trkpt>
      <trkpt lat="44.8654" lon="4.03728">
        <ele>1080.29</ele>
        <time>2022-03-21T09:30:56Z</time>
      </trkpt>
      <trkpt lat="44.86546" lon="4.03706">
        <ele>1078.68</ele>
        <time>2022-03-21T09:30:58Z</time>
      </trkpt>
      <trkpt lat="44.8655" lon="4.03688">
        <ele>1077.35</ele>
        <time>2022-03-21T09:31:00Z</time>
      </trkpt>
      <trkpt lat="44.86553" lon="4.03638">
        <ele>1075.2</ele>
        <time>2022-03-21T09:31:02Z</time>
      </trkpt>
      <trkpt lat="44.86559" lon="4.03606">
        <ele>1074.61</ele>
        <time>2022-03-21T09:31:04Z</time>
      </trkpt>
      <trkpt lat="44.86568" lon="4.0359">
        <ele>1075.51</ele>
        <time>2022-03-21T09:31:06Z</time>
      </trkpt>
      <trkpt lat="44.86627" lon="4.03507">
        <ele>1077.49</ele>
        <time>2022-03-21T09:31:08Z</time>
      </trkpt>
      <trkpt lat="44.86692" lon="4.03445">
        <ele>1075.7</ele>
        <time>2022-03-21T09:31:10Z</time>
      </trkpt>
      <trkpt lat="44.86703" lon="4.03437">
        <ele>1075.67</ele>
        <time>2022-03-21T09:31:12Z</time>
      </trkpt>
      <trkpt lat="44.86711" lon="4.03434">
        <ele>1076.19</ele>
        <time>2022-03-21T09:31:14Z</time>
      </trkpt>
      <trkpt lat="44.86727" lon="4.03434">
        <ele>1077.44</ele>
        <time>2022-03-21T09:31:16Z</time>
      </trkpt>
      <trkpt lat="44.86794" lon="4.03473">
        <ele>1075.28</ele>
        <time>2022-03-21T09:31:18Z</time>
      </trkpt>
      <trkpt lat="44.86814" lon="4.03488">
        <ele>1076.18</ele>
        <time>2022-03-21T09:31:20Z</time>
      </trkpt>
      <trkpt lat="44.86843" lon="4.03524">
        <ele>1084.5</ele>
        <time>2022-03-21T09:31:22Z</time>
      </trkpt>
      <trkpt lat="44.86852" lon="4.03532">
        <ele>1086.53</ele>
        <time>2022-03-21T09:31:24Z</time>
      </trkpt>
      <trkpt lat="44.86882" lon="4.0355">
        <ele>1089.07</ele>
        <time>2022-03-21T09:31:26Z</time>
      </trkpt>
      <trkpt lat="44.86891" lon="4.03559">
        <ele>1090.47</ele>
        <time>2022-03-21T09:31:28Z</time>
      </trkpt>
      <trkpt lat="44.8691" lon="4.03596">
        <ele>1094.51</ele>
        <time>2022-03-21T09:31:30Z</time>
      </trkpt>
      <trkpt lat="44.8692" lon="4.03606">
        <ele>1094.13</ele>
        <time>2022-03-21T09:31:32Z</time>
      </trkpt>
      <trkpt lat="44.86933" lon="4.03617">
        <ele>1092.25</ele>
        <time>2022-03-21T09:31:34Z</time>
      </trkpt>
      <trkpt lat="44.86972" lon="4.03636">
        <ele>1088.49</ele>
        <time>2022-03-21T09:31:36Z</time>
      </trkpt>
      <trkpt lat="44.86989" lon="4.03646">
        <ele>1088.33</ele>
        <time>2022-03-21T09:31:38Z</time>
      </trkpt>
      <trkpt lat="44.87" lon="4.03658">
        <ele>1088.67</ele>
        <time>2022-03-21T09:31:40Z</time>
      </trkpt>
      <trkpt lat="44.87012" lon="4.03672">
        <ele>1087.84</ele>
        <time>2022-03-21T09:31:42Z</time>
      </trkpt>
      <trkpt lat="44.87022" lon="4.0369">
        <ele>1086.5</ele>
        <time>2022-03-21T09:31:44Z</time>
      </trkpt>
      <trkpt lat="44.87036" lon="4.03726">
        <ele>1080.93</ele>
        <time>2022-03-21T09:31:46Z</time>
      </trkpt>
      <trkpt lat="44.87041" lon="4.03748">
        <ele>1077.48</ele>
        <time>2022-03-21T09:31:48Z</time>
      </trkpt>
      <trkpt lat="44.87043" lon="4.03766">
        <ele>1075.32</ele>
        <time>2022-03-21T09:31:50Z</time>
      </trkpt>
      <trkpt lat="44.87046" lon="4.03872">
        <ele>1071.35</ele>
        <time>2022-03-21T09:31:52Z</time>
      </trkpt>
      <trkpt lat="44.87048" lon="4.03895">
        <ele>1072.06</ele>
        <time>2022-03-21T09:31:54Z</time>
      </trkpt>
      <trkpt lat="44.8706" lon="4.03949">
        <ele>1074.74</ele>
        <time>2022-03-21T09:31:56Z</time>
      </trkpt>
      <trkpt lat="44.8706" lon="4.03963">
        <ele>1074.88</ele>
        <time>2022-03-21T09:31:58Z</time>
      </trkpt>
      <trkpt lat="44.87056" lon="4.03991">
        <ele>1074.35</ele>
        <time>2022-03-21T09:32:00Z</time>
      </trkpt>
      <trkpt lat="44.8705" lon="4.04004">
        <ele>1074.11</ele>
        <time>2022-03-21T09:32:02Z</time>
      </trkpt>
      <trkpt lat="44.87017" lon="4.04043">
        <ele>1075.53</ele>
        <time>2022-03-21T09:32:04Z</time>
      </trkpt>
      <trkpt lat="44.87007" lon="4.04057">
        <ele>1075.92</ele>
        <time>2022-03-21T09:32:06Z</time>
      </trkpt>
      <trkpt lat="44.86991" lon="4.04094">
        <ele>1071.93</ele>
        <time>2022-03-21T09:32:08Z</time>
      </trkpt>
      <trkpt lat="44.86988" lon="4.04109">
        <ele>1070.14</ele>
        <time>2022-03-21T09:32:10Z</time>
      </trkpt>
      <trkpt lat="44.86986" lon="4.04124">
        <ele>1069.51</ele>
        <time>2022-03-21T09:32:12Z</time>
      </trkpt>
      <trkpt lat="44.86986" lon="4.04188">
        <ele>1070.39</ele>
        <time>2022-03-21T09:32:13Z</time>
      </trkpt>
      <trkpt lat="44.86985" lon="4.04206">
        <ele>1070.14</ele>
        <time>2022-03-21T09:32:15Z</time>
      </trkpt>
      <trkpt lat="44.86982" lon="4.04218">
        <ele>1069.79</ele>
        <time>2022-03-21T09:32:17Z</time>
      </trkpt>
      <trkpt lat="44.86974" lon="4.04239">
        <ele>1069.29</ele>
        <time>2022-03-21T09:32:19Z</time>
      </trkpt>
      <trkpt lat="44.8696" lon="4.04261">
        <ele>1069.01</ele>
        <time>2022-03-21T09:32:21Z</time>
      </trkpt>
      <trkpt lat="44.86953" lon="4.04279">
        <ele>1068.72</ele>
        <time>2022-03-21T09:32:23Z</time>
      </trkpt>
      <trkpt lat="44.86937" lon="4.04325">
        <ele>1069.69</ele>
        <time>2022-03-21T09:32:25Z</time>
      </trkpt>
      <trkpt lat="44.86934" lon="4.04342">
        <ele>1069.72</ele>
        <time>2022-03-21T09:32:27Z</time>
      </trkpt>
      <trkpt lat="44.86938" lon="4.04364">
        <ele>1068.49</ele>
        <time>2022-03-21T09:32:29Z</time>
      </trkpt>
      <trkpt lat="44.86951" lon="4.04385">
        <ele>1067.49</ele>
        <time>2022-03-21T09:32:31Z</time>
      </trkpt>
      <trkpt lat="44.86971" lon="4.04401">
        <ele>1066.06</ele>
        <time>2022-03-21T09:32:33Z</time>
      </trkpt>
      <trkpt lat="44.86979" lon="4.04419">
        <ele>1066.76</ele>
        <time>2022-03-21T09:32:35Z</time>
      </trkpt>
      <trkpt lat="44.8698" lon="4.0443">
        <ele>1067.43</ele>
        <time>2022-03-21T09:32:37Z</time>
      </trkpt>
      <trkpt lat="44.8698" lon="4.04441">
        <ele>1068.55</ele>
        <time>2022-03-21T09:32:39Z</time>
      </trkpt>
      <trkpt lat="44.86977" lon="4.04453">
        <ele>1070.02</ele>
        <time>2022-03-21T09:32:41Z</time>
      </trkpt>
      <trkpt lat="44.86956" lon="4.04509">
        <ele>1076.29</ele>
        <time>2022-03-21T09:32:43Z</time>
      </trkpt>
      <trkpt lat="44.8695" lon="4.04542">
        <ele>1078.51</ele>
        <time>2022-03-21T09:32:45Z</time>
      </trkpt>
      <trkpt lat="44.86941" lon="4.0472">
        <ele>1084.74</ele>
        <time>2022-03-21T09:32:47Z</time>
      </trkpt>
      <trkpt lat="44.86945" lon="4.04754">
        <ele>1084.88</ele>
        <time>2022-03-21T09:32:49Z</time>
      </trkpt>
      <trkpt lat="44.86952" lon="4.04773">
        <ele>1083.01</ele>
        <time>2022-03-21T09:32:51Z</time>
      </trkpt>
      <trkpt lat="44.86999" lon="4.04862">
        <ele>1076.3</ele>
        <time>2022-03-21T09:32:53Z</time>
      </trkpt>
      <trkpt lat="44.8701" lon="4.04878">
        <ele>1075.72</ele>
        <time>2022-03-21T09:32:55Z</time>
      </trkpt>
      <trkpt lat="44.87021" lon="4.04899">
        <ele>1076.92</ele>
        <time>2022-03-21T09:32:57Z</time>
      </trkpt>
      <trkpt lat="44.87031" lon="4.04927">
        <ele>1077.33</ele>
        <time>2022-03-21T09:32:59Z</time>
      </trkpt>
      <trkpt lat="44.8704" lon="4.04959">
        <ele>1074.08</ele>
        <time>2022-03-21T09:33:01Z</time>
      </trkpt>
      <trkpt lat="44.87045" lon="4.04981">
        <ele>1069.75</ele>
        <time>2022-03-21T09:33:03Z</time>
      </trkpt>
      <trkpt lat="44.87047" lon="4.05">
        <ele>1067.03</ele>
        <time>2022-03-21T09:33:05Z</time>
      </trkpt>
      <trkpt lat="44.87046" lon="4.05018">
        <ele>1066.57</ele>
        <time>2022-03-21T09:33:07Z</time>
      </trkpt>
      <trkpt lat="44.87036" lon="4.05087">
        <ele>1075.36</ele>
        <time>2022-03-21T09:33:09Z</time>
      </trkpt>
      <trkpt lat="44.87036" lon="4.05099">
        <ele>1077.07</ele>
        <time>2022-03-21T09:33:11Z</time>
      </trkpt>
      <trkpt lat="44.87039" lon="4.05109">
        <ele>1077.42</ele>
        <time>2022-03-21T09:33:13Z</time>
      </trkpt>
      <trkpt lat="44.8705" lon="4.05129">
        <ele>1078.03</ele>
        <time>2022-03-21T09:33:15Z</time>
      </trkpt>
      <trkpt lat="44.87068" lon="4.05143">
        <ele>1078.19</ele>
        <time>2022-03-21T09:33:17Z</time>
      </trkpt>
      <trkpt lat="44.87084" lon="4.05152">
        <ele>1078.14</ele>
        <time>2022-03-21T09:33:19Z</time>
      </trkpt>
      <trkpt lat="44.87099" lon="4.05159">
        <ele>1075.82</ele>
        <time>2022-03-21T09:33:21Z</time>
      </trkpt>
      <trkpt lat="44.87145" lon="4.05161">
        <ele>1065.71</ele>
        <time>2022-03-21T09:33:23Z</time>
      </trkpt>
      <trkpt lat="44.87155" lon="4.05164">
        <ele>1064.57</ele>
        <time>2022-03-21T09:33:25Z</time>
      </trkpt>
      <trkpt lat="44.8717" lon="4.05172">
        <ele>1063.81</ele>
        <time>2022-03-21T09:33:27Z</time>
      </trkpt>
      <trkpt lat="44.87177" lon="4.05181">
        <ele>1064.22</ele>
        <time>2022-03-21T09:33:29Z</time>
      </trkpt>
      <trkpt lat="44.87181" lon="4.05192">
        <ele>1064.28</ele>
        <time>2022-03-21T09:33:31Z</time>
      </trkpt>
      <trkpt lat="44.87183" lon="4.05207">
        <ele>1064.97</ele>
        <time>2022-03-21T09:33:33Z</time>
      </trkpt>
      <trkpt lat="44.87185" lon="4.05253">
        <ele>1069.32</ele>
        <time>2022-03-21T09:33:35Z</time>
      </trkpt>
      <trkpt lat="44.87189" lon="4.05288">
        <ele>1071.96</ele>
        <time>2022-03-21T09:33:37Z</time>
      </trkpt>
      <trkpt lat="44.87194" lon="4.05303">
        <ele>1071.86</ele>
        <time>2022-03-21T09:33:39Z</time>
      </trkpt>
      <trkpt lat="44.87206" lon="4.05331">
        <ele>1069.79</ele>
        <time>2022-03-21T09:33:41Z</time>
      </trkpt>
      <trkpt lat="44.87229" lon="4.05373">
        <ele>1063.02</ele>
        <time>2022-03-21T09:33:42Z</time>
      </trkpt>
      <trkpt lat="44.8724" lon="4.0543">
        <ele>1060.87</ele>
        <time>2022-03-21T09:33:44Z</time>
      </trkpt>
      <trkpt lat="44.87246" lon="4.05439">
        <ele>1058.83</ele>
        <time>2022-03-21T09:33:46Z</time>
      </trkpt>
      <trkpt lat="44.87254" lon="4.05443">
        <ele>1056.62</ele>
        <time>2022-03-21T09:33:48Z</time>
      </trkpt>
      <trkpt lat="44.87273" lon="4.05442">
        <ele>1054.67</ele>
        <time>2022-03-21T09:33:50Z</time>
      </trkpt>
      <trkpt lat="44.87292" lon="4.05445">
        <ele>1057.01</ele>
        <time>2022-03-21T09:33:52Z</time>
      </trkpt>
      <trkpt lat="44.87297" lon="4.0545">
        <ele>1057.38</ele>
        <time>2022-03-21T09:33:54Z</time>
      </trkpt>
      <trkpt lat="44.87326" lon="4.05498">
        <ele>1058.89</ele>
        <time>2022-03-21T09:33:56Z</time>
      </trkpt>
      <trkpt lat="44.87346" lon="4.05513">
        <ele>1062.27</ele>
        <time>2022-03-21T09:33:58Z</time>
      </trkpt>
      <trkpt lat="44.8738" lon="4.05525">
        <ele>1067.96</ele>
        <time>2022-03-21T09:34:00Z</time>
      </trkpt>
      <trkpt lat="44.87417" lon="4.05531">
        <ele>1070.65</ele>
        <time>2022-03-21T09:34:02Z</time>
      </trkpt>
      <trkpt lat="44.87457" lon="4.05527">
        <ele>1072.33</ele>
        <time>2022-03-21T09:34:04Z</time>
      </trkpt>
      <trkpt lat="44.8747" lon="4.0553">
        <ele>1073.44</ele>
        <time>2022-03-21T09:34:06Z</time>
      </trkpt>
      <trkpt lat="44.87505" lon="4.05557">
        <ele>1075.7</ele>
        <time>2022-03-21T09:34:08Z</time>
      </trkpt>
      <trkpt lat="44.87538" lon="4.05573">
        <ele>1073.88</ele>
        <time>2022-03-21T09:34:10Z</time>
      </trkpt>
      <trkpt lat="44.87543" lon="4.05581">
        <ele>1074.01</ele>
        <time>2022-03-21T09:34:12Z</time>
      </trkpt>
      <trkpt lat="44.87555" lon="4.05612">
        <ele>1076.21</ele>
        <time>2022-03-21T09:34:14Z</time>
      </trkpt>
      <trkpt lat="44.87571" lon="4.05635">
        <ele>1076.99</ele>
        <time>2022-03-21T09:34:16Z</time>
      </trkpt>
      <trkpt lat="44.87591" lon="4.05649">
        <ele>1076</ele>
        <time>2022-03-21T09:34:18Z</time>
      </trkpt>
      <trkpt lat="44.87598" lon="4.05649">
        <ele>1076</ele>
        <time>2022-03-21T09:34:20Z</time>
      </trkpt>
      <trkpt lat="44.87608" lon="4.05644">
        <ele>1076</ele>
        <time>2022-03-21T09:34:22Z</time>
      </trkpt>
      <trkpt lat="44.87608" lon="4.05644">
        <ele>1076</ele>
        <time>2022-03-21T09:34:22Z</time>
      </trkpt>
      <trkpt lat="44.87615" lon="4.05637">
        <ele>1077.49</ele>
        <time>2022-03-21T09:34:24Z</time>
      </trkpt>
      <trkpt lat="44.87621" lon="4.05628">
        <ele>1080.1</ele>
        <time>2022-03-21T09:34:27Z</time>
      </trkpt>
      <trkpt lat="44.87625" lon="4.05615">
        <ele>1082.18</ele>
        <time>2022-03-21T09:34:29Z</time>
      </trkpt>
      <trkpt lat="44.87627" lon="4.05585">
        <ele>1082.58</ele>
        <time>2022-03-21T09:34:31Z</time>
      </trkpt>
      <trkpt lat="44.87629" lon="4.05575">
        <ele>1082.27</ele>
        <time>2022-03-21T09:34:34Z</time>
      </trkpt>
      <trkpt lat="44.87634" lon="4.05564">
        <ele>1082.42</ele>
        <time>2022-03-21T09:34:36Z</time>
      </trkpt>
      <trkpt lat="44.87638" lon="4.05559">
        <ele>1083.07</ele>
        <time>2022-03-21T09:34:38Z</time>
      </trkpt>
      <trkpt lat="44.87681" lon="4.05518">
        <ele>1087.82</ele>
        <time>2022-03-21T09:34:41Z</time>
      </trkpt>
      <trkpt lat="44.8769" lon="4.05512">
        <ele>1088.69</ele>
        <time>2022-03-21T09:34:43Z</time>
      </trkpt>
      <trkpt lat="44.87731" lon="4.05514">
        <ele>1100.4</ele>
        <time>2022-03-21T09:34:45Z</time>
      </trkpt>
      <trkpt lat="44.87742" lon="4.0551">
        <ele>1102.19</ele>
        <time>2022-03-21T09:34:48Z</time>
      </trkpt>
      <trkpt lat="44.8775" lon="4.05504">
        <ele>1102.97</ele>
        <time>2022-03-21T09:34:50Z</time>
      </trkpt>
      <trkpt lat="44.87758" lon="4.05494">
        <ele>1101.58</ele>
        <time>2022-03-21T09:34:52Z</time>
      </trkpt>
      <trkpt lat="44.87775" lon="4.05453">
        <ele>1095.28</ele>
        <time>2022-03-21T09:34:55Z</time>
      </trkpt>
      <trkpt lat="44.87778" lon="4.0544">
        <ele>1093.85</ele>
        <time>2022-03-21T09:34:57Z</time>
      </trkpt>
      <trkpt lat="44.87778" lon="4.0543">
        <ele>1093.49</ele>
        <time>2022-03-21T09:34:59Z</time>
      </trkpt>
      <trkpt lat="44.87775" lon="4.05416">
        <ele>1093.27</ele>
        <time>2022-03-21T09:35:01Z</time>
      </trkpt>
      <trkpt lat="44.8777" lon="4.05407">
        <ele>1094.36</ele>
        <time>2022-03-21T09:35:04Z</time>
      </trkpt>
      <trkpt lat="44.87758" lon="4.05399">
        <ele>1096.16</ele>
        <time>2022-03-21T09:35:06Z</time>
      </trkpt>
      <trkpt lat="44.87743" lon="4.05399">
        <ele>1096.66</ele>
        <time>2022-03-21T09:35:08Z</time>
      </trkpt>
      <trkpt lat="44.87734" lon="4.05396">
        <ele>1096.62</ele>
        <time>2022-03-21T09:35:11Z</time>
      </trkpt>
      <trkpt lat="44.87724" lon="4.0538">
        <ele>1098.01</ele>
        <time>2022-03-21T09:35:13Z</time>
      </trkpt>
      <trkpt lat="44.87703" lon="4.05289">
        <ele>1105.83</ele>
        <time>2022-03-21T09:35:15Z</time>
      </trkpt>
      <trkpt lat="44.87703" lon="4.05273">
        <ele>1106.79</ele>
        <time>2022-03-21T09:35:18Z</time>
      </trkpt>
      <trkpt lat="44.87712" lon="4.05233">
        <ele>1108.96</ele>
        <time>2022-03-21T09:35:20Z</time>
      </trkpt>
      <trkpt lat="44.87714" lon="4.05219">
        <ele>1109.69</ele>
        <time>2022-03-21T09:35:22Z</time>
      </trkpt>
      <trkpt lat="44.87713" lon="4.05207">
        <ele>1111.01</ele>
        <time>2022-03-21T09:35:25Z</time>
      </trkpt>
      <trkpt lat="44.87709" lon="4.05199">
        <ele>1112.01</ele>
        <time>2022-03-21T09:35:27Z</time>
      </trkpt>
      <trkpt lat="44.87702" lon="4.05191">
        <ele>1113.13</ele>
        <time>2022-03-21T09:35:29Z</time>
      </trkpt>
      <trkpt lat="44.87693" lon="4.05185">
        <ele>1113.97</ele>
        <time>2022-03-21T09:35:32Z</time>
      </trkpt>
      <trkpt lat="44.87601" lon="4.05158">
        <ele>1119.36</ele>
        <time>2022-03-21T09:35:34Z</time>
      </trkpt>
      <trkpt lat="44.87593" lon="4.05152">
        <ele>1119.65</ele>
        <time>2022-03-21T09:35:36Z</time>
      </trkpt>
      <trkpt lat="44.87588" lon="4.05144">
        <ele>1119.83</ele>
        <time>2022-03-21T09:35:39Z</time>
      </trkpt>
      <trkpt lat="44.87584" lon="4.05132">
        <ele>1119.52</ele>
        <time>2022-03-21T09:35:41Z</time>
      </trkpt>
      <trkpt lat="44.87583" lon="4.05123">
        <ele>1118.81</ele>
        <time>2022-03-21T09:35:43Z</time>
      </trkpt>
      <trkpt lat="44.87587" lon="4.05102">
        <ele>1118.04</ele>
        <time>2022-03-21T09:35:45Z</time>
      </trkpt>
      <trkpt lat="44.87595" lon="4.05091">
        <ele>1118.29</ele>
        <time>2022-03-21T09:35:48Z</time>
      </trkpt>
      <trkpt lat="44.87617" lon="4.05069">
        <ele>1120.1</ele>
        <time>2022-03-21T09:35:50Z</time>
      </trkpt>
      <trkpt lat="44.87621" lon="4.0506">
        <ele>1120.79</ele>
        <time>2022-03-21T09:35:52Z</time>
      </trkpt>
      <trkpt lat="44.87623" lon="4.05049">
        <ele>1121.78</ele>
        <time>2022-03-21T09:35:55Z</time>
      </trkpt>
      <trkpt lat="44.87623" lon="4.05038">
        <ele>1122.77</ele>
        <time>2022-03-21T09:35:57Z</time>
      </trkpt>
      <trkpt lat="44.87615" lon="4.04971">
        <ele>1126.71</ele>
        <time>2022-03-21T09:35:59Z</time>
      </trkpt>
      <trkpt lat="44.87612" lon="4.0492">
        <ele>1129.92</ele>
        <time>2022-03-21T09:36:02Z</time>
      </trkpt>
      <trkpt lat="44.87606" lon="4.04858">
        <ele>1133.14</ele>
        <time>2022-03-21T09:36:04Z</time>
      </trkpt>
      <trkpt lat="44.87608" lon="4.04842">
        <ele>1134.11</ele>
        <time>2022-03-21T09:36:06Z</time>
      </trkpt>
      <trkpt lat="44.87613" lon="4.04826">
        <ele>1135.05</ele>
        <time>2022-03-21T09:36:09Z</time>
      </trkpt>
      <trkpt lat="44.87634" lon="4.04789">
        <ele>1138.42</ele>
        <time>2022-03-21T09:36:11Z</time>
      </trkpt>
      <trkpt lat="44.87671" lon="4.04702">
        <ele>1142.45</ele>
        <time>2022-03-21T09:36:13Z</time>
      </trkpt>
      <trkpt lat="44.87684" lon="4.04677">
        <ele>1142.29</ele>
        <time>2022-03-21T09:36:16Z</time>
      </trkpt>
      <trkpt lat="44.87741" lon="4.0459">
        <ele>1144.26</ele>
        <time>2022-03-21T09:36:18Z</time>
      </trkpt>
      <trkpt lat="44.87765" lon="4.04562">
        <ele>1145.03</ele>
        <time>2022-03-21T09:36:20Z</time>
      </trkpt>
      <trkpt lat="44.87778" lon="4.04551">
        <ele>1145.18</ele>
        <time>2022-03-21T09:36:23Z</time>
      </trkpt>
      <trkpt lat="44.8782" lon="4.04528">
        <ele>1142.08</ele>
        <time>2022-03-21T09:36:25Z</time>
      </trkpt>
      <trkpt lat="44.87836" lon="4.04524">
        <ele>1141.33</ele>
        <time>2022-03-21T09:36:27Z</time>
      </trkpt>
      <trkpt lat="44.87935" lon="4.04523">
        <ele>1144.6</ele>
        <time>2022-03-21T09:36:29Z</time>
      </trkpt>
      <trkpt lat="44.88029" lon="4.04505">
        <ele>1146.08</ele>
        <time>2022-03-21T09:36:32Z</time>
      </trkpt>
      <trkpt lat="44.8804" lon="4.04502">
        <ele>1146.96</ele>
        <time>2022-03-21T09:36:34Z</time>
      </trkpt>
      <trkpt lat="44.8805" lon="4.04495">
        <ele>1147.35</ele>
        <time>2022-03-21T09:36:36Z</time>
      </trkpt>
      <trkpt lat="44.88063" lon="4.04481">
        <ele>1146.67</ele>
        <time>2022-03-21T09:36:39Z</time>
      </trkpt>
      <trkpt lat="44.88101" lon="4.04425">
        <ele>1142.83</ele>
        <time>2022-03-21T09:36:41Z</time>
      </trkpt>
      <trkpt lat="44.88117" lon="4.04397">
        <ele>1143.56</ele>
        <time>2022-03-21T09:36:43Z</time>
      </trkpt>
      <trkpt lat="44.88122" lon="4.04382">
        <ele>1144.09</ele>
        <time>2022-03-21T09:36:46Z</time>
      </trkpt>
      <trkpt lat="44.8814" lon="4.04326">
        <ele>1142.78</ele>
        <time>2022-03-21T09:36:48Z</time>
      </trkpt>
      <trkpt lat="44.88148" lon="4.0429">
        <ele>1142.75</ele>
        <time>2022-03-21T09:36:50Z</time>
      </trkpt>
      <trkpt lat="44.88148" lon="4.04275">
        <ele>1142.77</ele>
        <time>2022-03-21T09:36:53Z</time>
      </trkpt>
      <trkpt lat="44.88145" lon="4.04257">
        <ele>1143.39</ele>
        <time>2022-03-21T09:36:55Z</time>
      </trkpt>
      <trkpt lat="44.88133" lon="4.04221">
        <ele>1143.38</ele>
        <time>2022-03-21T09:36:57Z</time>
      </trkpt>
      <trkpt lat="44.8813" lon="4.04203">
        <ele>1142.71</ele>
        <time>2022-03-21T09:37:00Z</time>
      </trkpt>
      <trkpt lat="44.88129" lon="4.0407">
        <ele>1144.47</ele>
        <time>2022-03-21T09:37:02Z</time>
      </trkpt>
      <trkpt lat="44.88131" lon="4.04017">
        <ele>1144.37</ele>
        <time>2022-03-21T09:37:04Z</time>
      </trkpt>
      <trkpt lat="44.88135" lon="4.04002">
        <ele>1145.15</ele>
        <time>2022-03-21T09:37:07Z</time>
      </trkpt>
      <trkpt lat="44.88143" lon="4.03981">
        <ele>1146.43</ele>
        <time>2022-03-21T09:37:09Z</time>
      </trkpt>
      <trkpt lat="44.8817" lon="4.03933">
        <ele>1147.23</ele>
        <time>2022-03-21T09:37:11Z</time>
      </trkpt>
      <trkpt lat="44.88178" lon="4.03925">
        <ele>1146.31</ele>
        <time>2022-03-21T09:37:13Z</time>
      </trkpt>
      <trkpt lat="44.88186" lon="4.0392">
        <ele>1145.93</ele>
        <time>2022-03-21T09:37:16Z</time>
      </trkpt>
      <trkpt lat="44.88201" lon="4.03915">
        <ele>1146.47</ele>
        <time>2022-03-21T09:37:18Z</time>
      </trkpt>
      <trkpt lat="44.88275" lon="4.03906">
        <ele>1146.61</ele>
        <time>2022-03-21T09:37:20Z</time>
      </trkpt>
      <trkpt lat="44.88297" lon="4.03899">
        <ele>1144.97</ele>
        <time>2022-03-21T09:37:23Z</time>
      </trkpt>
      <trkpt lat="44.88321" lon="4.03882">
        <ele>1144.1</ele>
        <time>2022-03-21T09:37:25Z</time>
      </trkpt>
      <trkpt lat="44.88342" lon="4.03856">
        <ele>1142.22</ele>
        <time>2022-03-21T09:37:27Z</time>
      </trkpt>
      <trkpt lat="44.88357" lon="4.03843">
        <ele>1142.36</ele>
        <time>2022-03-21T09:37:30Z</time>
      </trkpt>
      <trkpt lat="44.88374" lon="4.03833">
        <ele>1142.82</ele>
        <time>2022-03-21T09:37:32Z</time>
      </trkpt>
      <trkpt lat="44.88425" lon="4.03808">
        <ele>1140.93</ele>
        <time>2022-03-21T09:37:34Z</time>
      </trkpt>
      <trkpt lat="44.88446" lon="4.03804">
        <ele>1142.08</ele>
        <time>2022-03-21T09:37:37Z</time>
      </trkpt>
      <trkpt lat="44.88465" lon="4.03804">
        <ele>1144.13</ele>
        <time>2022-03-21T09:37:39Z</time>
      </trkpt>
      <trkpt lat="44.88472" lon="4.03802">
        <ele>1144.69</ele>
        <time>2022-03-21T09:37:41Z</time>
      </trkpt>
      <trkpt lat="44.88517" lon="4.03764">
        <ele>1141.52</ele>
        <time>2022-03-21T09:37:44Z</time>
      </trkpt>
      <trkpt lat="44.8854" lon="4.03756">
        <ele>1139.15</ele>
        <time>2022-03-21T09:37:46Z</time>
      </trkpt>
      <trkpt lat="44.88552" lon="4.03756">
        <ele>1138.15</ele>
        <time>2022-03-21T09:37:48Z</time>
      </trkpt>
      <trkpt lat="44.88581" lon="4.03763">
        <ele>1139.74</ele>
        <time>2022-03-21T09:37:51Z</time>
      </trkpt>
      <trkpt lat="44.88598" lon="4.03772">
        <ele>1140.67</ele>
        <time>2022-03-21T09:37:53Z</time>
      </trkpt>
      <trkpt lat="44.88633" lon="4.03796">
        <ele>1141.1</ele>
        <time>2022-03-21T09:37:55Z</time>
      </trkpt>
      <trkpt lat="44.88679" lon="4.03817">
        <ele>1140.61</ele>
        <time>2022-03-21T09:37:57Z</time>
      </trkpt>
      <trkpt lat="44.88691" lon="4.0382">
        <ele>1140.77</ele>
        <time>2022-03-21T09:38:00Z</time>
      </trkpt>
      <trkpt lat="44.88703" lon="4.03821">
        <ele>1141.42</ele>
        <time>2022-03-21T09:38:02Z</time>
      </trkpt>
      <trkpt lat="44.88726" lon="4.03814">
        <ele>1142.9</ele>
        <time>2022-03-21T09:38:04Z</time>
      </trkpt>
      <trkpt lat="44.88767" lon="4.03785">
        <ele>1143.1</ele>
        <time>2022-03-21T09:38:07Z</time>
      </trkpt>
      <trkpt lat="44.88823" lon="4.0374">
        <ele>1141.13</ele>
        <time>2022-03-21T09:38:09Z</time>
      </trkpt>
      <trkpt lat="44.88899" lon="4.03657">
        <ele>1131.59</ele>
        <time>2022-03-21T09:38:11Z</time>
      </trkpt>
      <trkpt lat="44.88906" lon="4.03638">
        <ele>1130.51</ele>
        <time>2022-03-21T09:38:14Z</time>
      </trkpt>
      <trkpt lat="44.88908" lon="4.03615">
        <ele>1130.89</ele>
        <time>2022-03-21T09:38:16Z</time>
      </trkpt>
      <trkpt lat="44.8891" lon="4.036">
        <ele>1131.32</ele>
        <time>2022-03-21T09:38:18Z</time>
      </trkpt>
      <trkpt lat="44.88925" lon="4.03569">
        <ele>1133.17</ele>
        <time>2022-03-21T09:38:21Z</time>
      </trkpt>
      <trkpt lat="44.88927" lon="4.03559">
        <ele>1133.53</ele>
        <time>2022-03-21T09:38:23Z</time>
      </trkpt>
      <trkpt lat="44.88928" lon="4.03549">
        <ele>1133.61</ele>
        <time>2022-03-21T09:38:25Z</time>
      </trkpt>
      <trkpt lat="44.88925" lon="4.0354">
        <ele>1133.42</ele>
        <time>2022-03-21T09:38:28Z</time>
      </trkpt>
      <trkpt lat="44.88913" lon="4.0352">
        <ele>1133.01</ele>
        <time>2022-03-21T09:38:30Z</time>
      </trkpt>
      <trkpt lat="44.88911" lon="4.03507">
        <ele>1133.15</ele>
        <time>2022-03-21T09:38:32Z</time>
      </trkpt>
      <trkpt lat="44.8891" lon="4.03497">
        <ele>1133.38</ele>
        <time>2022-03-21T09:38:35Z</time>
      </trkpt>
      <trkpt lat="44.88912" lon="4.03486">
        <ele>1133.99</ele>
        <time>2022-03-21T09:38:37Z</time>
      </trkpt>
      <trkpt lat="44.8892" lon="4.03477">
        <ele>1135.12</ele>
        <time>2022-03-21T09:38:39Z</time>
      </trkpt>
      <trkpt lat="44.88927" lon="4.03475">
        <ele>1136.03</ele>
        <time>2022-03-21T09:38:41Z</time>
      </trkpt>
      <trkpt lat="44.88936" lon="4.03475">
        <ele>1136.91</ele>
        <time>2022-03-21T09:38:44Z</time>
      </trkpt>
      <trkpt lat="44.88955" lon="4.0348">
        <ele>1138.21</ele>
        <time>2022-03-21T09:38:46Z</time>
      </trkpt>
      <trkpt lat="44.88965" lon="4.03479">
        <ele>1139.02</ele>
        <time>2022-03-21T09:38:48Z</time>
      </trkpt>
      <trkpt lat="44.88979" lon="4.0347">
        <ele>1140.55</ele>
        <time>2022-03-21T09:38:51Z</time>
      </trkpt>
      <trkpt lat="44.88998" lon="4.0344">
        <ele>1142.07</ele>
        <time>2022-03-21T09:38:53Z</time>
      </trkpt>
      <trkpt lat="44.89013" lon="4.0343">
        <ele>1142.29</ele>
        <time>2022-03-21T09:38:55Z</time>
      </trkpt>
      <trkpt lat="44.89022" lon="4.03427">
        <ele>1142.12</ele>
        <time>2022-03-21T09:38:58Z</time>
      </trkpt>
      <trkpt lat="44.89043" lon="4.03429">
        <ele>1141.7</ele>
        <time>2022-03-21T09:39:00Z</time>
      </trkpt>
      <trkpt lat="44.89142" lon="4.0349">
        <ele>1144.53</ele>
        <time>2022-03-21T09:39:02Z</time>
      </trkpt>
      <trkpt lat="44.8916" lon="4.03505">
        <ele>1144.3</ele>
        <time>2022-03-21T09:39:05Z</time>
      </trkpt>
      <trkpt lat="44.89173" lon="4.03511">
        <ele>1144</ele>
        <time>2022-03-21T09:39:07Z</time>
      </trkpt>
      <trkpt lat="44.89222" lon="4.03526">
        <ele>1144</ele>
        <time>2022-03-21T09:39:09Z</time>
      </trkpt>
      <trkpt lat="44.89247" lon="4.03528">
        <ele>1144.89</ele>
        <time>2022-03-21T09:39:12Z</time>
      </trkpt>
      <trkpt lat="44.89259" lon="4.03525">
        <ele>1145.34</ele>
        <time>2022-03-21T09:39:14Z</time>
      </trkpt>
      <trkpt lat="44.89266" lon="4.03521">
        <ele>1145.58</ele>
        <time>2022-03-21T09:39:16Z</time>
      </trkpt>
      <trkpt lat="44.89285" lon="4.03501">
        <ele>1146.24</ele>
        <time>2022-03-21T09:39:19Z</time>
      </trkpt>
      <trkpt lat="44.89304" lon="4.03474">
        <ele>1147.89</ele>
        <time>2022-03-21T09:39:21Z</time>
      </trkpt>
      <trkpt lat="44.89317" lon="4.03461">
        <ele>1148.14</ele>
        <time>2022-03-21T09:39:23Z</time>
      </trkpt>
      <trkpt lat="44.89327" lon="4.03453">
        <ele>1148.43</ele>
        <time>2022-03-21T09:39:25Z</time>
      </trkpt>
      <trkpt lat="44.89663" lon="4.03263">
        <ele>1128.69</ele>
        <time>2022-03-21T09:39:28Z</time>
      </trkpt>
      <trkpt lat="44.89873" lon="4.03146">
        <ele>1118.61</ele>
        <time>2022-03-21T09:39:30Z</time>
      </trkpt>
      <trkpt lat="44.89884" lon="4.03137">
        <ele>1117.93</ele>
        <time>2022-03-21T09:39:32Z</time>
      </trkpt>
      <trkpt lat="44.89891" lon="4.03127">
        <ele>1117.56</ele>
        <time>2022-03-21T09:39:35Z</time>
      </trkpt>
      <trkpt lat="44.89909" lon="4.03079">
        <ele>1114.83</ele>
        <time>2022-03-21T09:39:37Z</time>
      </trkpt>
      <trkpt lat="44.89922" lon="4.03056">
        <ele>1114.02</ele>
        <time>2022-03-21T09:39:39Z</time>
      </trkpt>
      <trkpt lat="44.89938" lon="4.03037">
        <ele>1112.82</ele>
        <time>2022-03-21T09:39:42Z</time>
      </trkpt>
      <trkpt lat="44.90016" lon="4.02976">
        <ele>1108.66</ele>
        <time>2022-03-21T09:39:44Z</time>
      </trkpt>
      <trkpt lat="44.90033" lon="4.02969">
        <ele>1107.38</ele>
        <time>2022-03-21T09:39:46Z</time>
      </trkpt>
      <trkpt lat="44.90044" lon="4.02968">
        <ele>1106.53</ele>
        <time>2022-03-21T09:39:49Z</time>
      </trkpt>
      <trkpt lat="44.90065" lon="4.02973">
        <ele>1105.02</ele>
        <time>2022-03-21T09:39:51Z</time>
      </trkpt>
      <trkpt lat="44.90073" lon="4.02977">
        <ele>1104.46</ele>
        <time>2022-03-21T09:39:53Z</time>
      </trkpt>
      <trkpt lat="44.90085" lon="4.02991">
        <ele>1104.18</ele>
        <time>2022-03-21T09:39:56Z</time>
      </trkpt>
      <trkpt lat="44.90105" lon="4.03045">
        <ele>1104.43</ele>
        <time>2022-03-21T09:39:58Z</time>
      </trkpt>
      <trkpt lat="44.90116" lon="4.03066">
        <ele>1103.57</ele>
        <time>2022-03-21T09:40:00Z</time>
      </trkpt>
      <trkpt lat="44.9013" lon="4.03077">
        <ele>1103.6</ele>
        <time>2022-03-21T09:40:03Z</time>
      </trkpt>
      <trkpt lat="44.90142" lon="4.03079">
        <ele>1103.73</ele>
        <time>2022-03-21T09:40:05Z</time>
      </trkpt>
      <trkpt lat="44.90163" lon="4.03068">
        <ele>1102.58</ele>
        <time>2022-03-21T09:40:07Z</time>
      </trkpt>
      <trkpt lat="44.90199" lon="4.03037">
        <ele>1099.38</ele>
        <time>2022-03-21T09:40:09Z</time>
      </trkpt>
      <trkpt lat="44.90332" lon="4.0295">
        <ele>1092.26</ele>
        <time>2022-03-21T09:40:12Z</time>
      </trkpt>
      <trkpt lat="44.90399" lon="4.02887">
        <ele>1091.06</ele>
        <time>2022-03-21T09:40:14Z</time>
      </trkpt>
      <trkpt lat="44.90419" lon="4.02877">
        <ele>1090.37</ele>
        <time>2022-03-21T09:40:16Z</time>
      </trkpt>
      <trkpt lat="44.90435" lon="4.02873">
        <ele>1090.35</ele>
        <time>2022-03-21T09:40:19Z</time>
      </trkpt>
      <trkpt lat="44.90456" lon="4.02859">
        <ele>1089.94</ele>
        <time>2022-03-21T09:40:21Z</time>
      </trkpt>
      <trkpt lat="44.90476" lon="4.02837">
        <ele>1088.88</ele>
        <time>2022-03-21T09:40:23Z</time>
      </trkpt>
      <trkpt lat="44.90506" lon="4.02775">
        <ele>1082.15</ele>
        <time>2022-03-21T09:40:26Z</time>
      </trkpt>
      <trkpt lat="44.90545" lon="4.02714">
        <ele>1079.69</ele>
        <time>2022-03-21T09:40:28Z</time>
      </trkpt>
      <trkpt lat="44.90559" lon="4.02699">
        <ele>1079.31</ele>
        <time>2022-03-21T09:40:30Z</time>
      </trkpt>
      <trkpt lat="44.9058" lon="4.02684">
        <ele>1078.77</ele>
        <time>2022-03-21T09:40:33Z</time>
      </trkpt>
      <trkpt lat="44.90594" lon="4.02666">
        <ele>1077.66</ele>
        <time>2022-03-21T09:40:35Z</time>
      </trkpt>
      <trkpt lat="44.90601" lon="4.02649">
        <ele>1076.61</ele>
        <time>2022-03-21T09:40:37Z</time>
      </trkpt>
      <trkpt lat="44.90611" lon="4.02603">
        <ele>1072.38</ele>
        <time>2022-03-21T09:40:40Z</time>
      </trkpt>
      <trkpt lat="44.90619" lon="4.02582">
        <ele>1071.52</ele>
        <time>2022-03-21T09:40:42Z</time>
      </trkpt>
      <trkpt lat="44.90654" lon="4.0254">
        <ele>1069.61</ele>
        <time>2022-03-21T09:40:44Z</time>
      </trkpt>
      <trkpt lat="44.9067" lon="4.02516">
        <ele>1068.1</ele>
        <time>2022-03-21T09:40:47Z</time>
      </trkpt>
      <trkpt lat="44.9068" lon="4.02486">
        <ele>1066.59</ele>
        <time>2022-03-21T09:40:49Z</time>
      </trkpt>
      <trkpt lat="44.90689" lon="4.02465">
        <ele>1065.25</ele>
        <time>2022-03-21T09:40:51Z</time>
      </trkpt>
      <trkpt lat="44.90703" lon="4.02445">
        <ele>1063.01</ele>
        <time>2022-03-21T09:40:53Z</time>
      </trkpt>
      <trkpt lat="44.90735" lon="4.02422">
        <ele>1062.51</ele>
        <time>2022-03-21T09:40:56Z</time>
      </trkpt>
      <trkpt lat="44.90745" lon="4.02407">
        <ele>1061.89</ele>
        <time>2022-03-21T09:40:58Z</time>
      </trkpt>
      <trkpt lat="44.90751" lon="4.02393">
        <ele>1061.48</ele>
        <time>2022-03-21T09:41:00Z</time>
      </trkpt>
      <trkpt lat="44.90758" lon="4.02333">
        <ele>1056.32</ele>
        <time>2022-03-21T09:41:03Z</time>
      </trkpt>
      <trkpt lat="44.90763" lon="4.02307">
        <ele>1054.98</ele>
        <time>2022-03-21T09:41:05Z</time>
      </trkpt>
      <trkpt lat="44.90777" lon="4.02277">
        <ele>1055.89</ele>
        <time>2022-03-21T09:41:07Z</time>
      </trkpt>
      <trkpt lat="44.90797" lon="4.02248">
        <ele>1057.66</ele>
        <time>2022-03-21T09:41:10Z</time>
      </trkpt>
      <trkpt lat="44.90811" lon="4.02235">
        <ele>1058.76</ele>
        <time>2022-03-21T09:41:12Z</time>
      </trkpt>
      <trkpt lat="44.9083" lon="4.02229">
        <ele>1060.51</ele>
        <time>2022-03-21T09:41:14Z</time>
      </trkpt>
      <trkpt lat="44.90854" lon="4.0223">
        <ele>1060.57</ele>
        <time>2022-03-21T09:41:17Z</time>
      </trkpt>
      <trkpt lat="44.90865" lon="4.02228">
        <ele>1059.99</ele>
        <time>2022-03-21T09:41:19Z</time>
      </trkpt>
      <trkpt lat="44.90969" lon="4.02191">
        <ele>1058.1</ele>
        <time>2022-03-21T09:41:21Z</time>
      </trkpt>
      <trkpt lat="44.90991" lon="4.02177">
        <ele>1055.57</ele>
        <time>2022-03-21T09:41:24Z</time>
      </trkpt>
      <trkpt lat="44.91036" lon="4.02144">
        <ele>1047.66</ele>
        <time>2022-03-21T09:41:26Z</time>
      </trkpt>
      <trkpt lat="44.91058" lon="4.02125">
        <ele>1046.54</ele>
        <time>2022-03-21T09:41:28Z</time>
      </trkpt>
      <trkpt lat="44.9108" lon="4.02097">
        <ele>1043.57</ele>
        <time>2022-03-21T09:41:31Z</time>
      </trkpt>
      <trkpt lat="44.91103" lon="4.02081">
        <ele>1042.26</ele>
        <time>2022-03-21T09:41:33Z</time>
      </trkpt>
      <trkpt lat="44.91118" lon="4.02068">
        <ele>1041.31</ele>
        <time>2022-03-21T09:41:35Z</time>
      </trkpt>
      <trkpt lat="44.91182" lon="4.01986">
        <ele>1034.38</ele>
        <time>2022-03-21T09:41:37Z</time>
      </trkpt>
      <trkpt lat="44.91198" lon="4.01953">
        <ele>1031.44</ele>
        <time>2022-03-21T09:41:40Z</time>
      </trkpt>
      <trkpt lat="44.91238" lon="4.01857">
        <ele>1026.99</ele>
        <time>2022-03-21T09:41:42Z</time>
      </trkpt>
      <trkpt lat="44.91248" lon="4.01828">
        <ele>1025.42</ele>
        <time>2022-03-21T09:41:44Z</time>
      </trkpt>
      <trkpt lat="44.91262" lon="4.01776">
        <ele>1020.09</ele>
        <time>2022-03-21T09:41:47Z</time>
      </trkpt>
      <trkpt lat="44.91286" lon="4.01707">
        <ele>1018.34</ele>
        <time>2022-03-21T09:41:49Z</time>
      </trkpt>
      <trkpt lat="44.9132" lon="4.0163">
        <ele>1015.26</ele>
        <time>2022-03-21T09:41:51Z</time>
      </trkpt>
      <trkpt lat="44.91329" lon="4.01602">
        <ele>1012.99</ele>
        <time>2022-03-21T09:41:54Z</time>
      </trkpt>
      <trkpt lat="44.91347" lon="4.01532">
        <ele>1008.9</ele>
        <time>2022-03-21T09:41:56Z</time>
      </trkpt>
      <trkpt lat="44.91359" lon="4.01466">
        <ele>1000.54</ele>
        <time>2022-03-21T09:41:58Z</time>
      </trkpt>
      <trkpt lat="44.9137" lon="4.01437">
        <ele>1000.09</ele>
        <time>2022-03-21T09:42:01Z</time>
      </trkpt>
      <trkpt lat="44.91392" lon="4.01382">
        <ele>995</ele>
        <time>2022-03-21T09:42:03Z</time>
      </trkpt>
      <trkpt lat="44.9141" lon="4.01352">
        <ele>993.18</ele>
        <time>2022-03-21T09:42:05Z</time>
      </trkpt>
      <trkpt lat="44.91423" lon="4.01334">
        <ele>992.97</ele>
        <time>2022-03-21T09:42:08Z</time>
      </trkpt>
      <trkpt lat="44.91435" lon="4.01312">
        <ele>992.4</ele>
        <time>2022-03-21T09:42:10Z</time>
      </trkpt>
      <trkpt lat="44.91452" lon="4.01267">
        <ele>993.43</ele>
        <time>2022-03-21T09:42:12Z</time>
      </trkpt>
      <trkpt lat="44.91482" lon="4.01148">
        <ele>983.45</ele>
        <time>2022-03-21T09:42:15Z</time>
      </trkpt>
      <trkpt lat="44.91493" lon="4.01097">
        <ele>977.27</ele>
        <time>2022-03-21T09:42:17Z</time>
      </trkpt>
      <trkpt lat="44.915" lon="4.01072">
        <ele>973.65</ele>
        <time>2022-03-21T09:42:19Z</time>
      </trkpt>
      <trkpt lat="44.91506" lon="4.01062">
        <ele>972.99</ele>
        <time>2022-03-21T09:42:22Z</time>
      </trkpt>
      <trkpt lat="44.91518" lon="4.01052">
        <ele>973.45</ele>
        <time>2022-03-21T09:42:24Z</time>
      </trkpt>
      <trkpt lat="44.91534" lon="4.01046">
        <ele>974.18</ele>
        <time>2022-03-21T09:42:26Z</time>
      </trkpt>
      <trkpt lat="44.91581" lon="4.01041">
        <ele>975.26</ele>
        <time>2022-03-21T09:42:28Z</time>
      </trkpt>
      <trkpt lat="44.91646" lon="4.01038">
        <ele>968.41</ele>
        <time>2022-03-21T09:42:31Z</time>
      </trkpt>
      <trkpt lat="44.91718" lon="4.01018">
        <ele>960.41</ele>
        <time>2022-03-21T09:42:33Z</time>
      </trkpt>
      <trkpt lat="44.91738" lon="4.01009">
        <ele>958.51</ele>
        <time>2022-03-21T09:42:35Z</time>
      </trkpt>
      <trkpt lat="44.91774" lon="4.00998">
        <ele>952.58</ele>
        <time>2022-03-21T09:42:38Z</time>
      </trkpt>
      <trkpt lat="44.91833" lon="4.00986">
        <ele>949.91</ele>
        <time>2022-03-21T09:42:40Z</time>
      </trkpt>
      <trkpt lat="44.91852" lon="4.00988">
        <ele>948.21</ele>
        <time>2022-03-21T09:42:42Z</time>
      </trkpt>
      <trkpt lat="44.91863" lon="4.00994">
        <ele>948.52</ele>
        <time>2022-03-21T09:42:45Z</time>
      </trkpt>
      <trkpt lat="44.91878" lon="4.01009">
        <ele>948.64</ele>
        <time>2022-03-21T09:42:47Z</time>
      </trkpt>
      <trkpt lat="44.91891" lon="4.01015">
        <ele>946.36</ele>
        <time>2022-03-21T09:42:49Z</time>
      </trkpt>
      <trkpt lat="44.91935" lon="4.01015">
        <ele>939.52</ele>
        <time>2022-03-21T09:42:52Z</time>
      </trkpt>
      <trkpt lat="44.91947" lon="4.01021">
        <ele>939.2</ele>
        <time>2022-03-21T09:42:54Z</time>
      </trkpt>
      <trkpt lat="44.91966" lon="4.01041">
        <ele>938.72</ele>
        <time>2022-03-21T09:42:56Z</time>
      </trkpt>
      <trkpt lat="44.9198" lon="4.01047">
        <ele>937.23</ele>
        <time>2022-03-21T09:42:59Z</time>
      </trkpt>
      <trkpt lat="44.91988" lon="4.01045">
        <ele>935.67</ele>
        <time>2022-03-21T09:43:01Z</time>
      </trkpt>
      <trkpt lat="44.91996" lon="4.01037">
        <ele>932.68</ele>
        <time>2022-03-21T09:43:03Z</time>
      </trkpt>
      <trkpt lat="44.92006" lon="4.01019">
        <ele>927.4</ele>
        <time>2022-03-21T09:43:06Z</time>
      </trkpt>
      <trkpt lat="44.92017" lon="4.01008">
        <ele>924.34</ele>
        <time>2022-03-21T09:43:08Z</time>
      </trkpt>
      <trkpt lat="44.92028" lon="4.01007">
        <ele>923.21</ele>
        <time>2022-03-21T09:43:10Z</time>
      </trkpt>
      <trkpt lat="44.92038" lon="4.01013">
        <ele>924.22</ele>
        <time>2022-03-21T09:43:12Z</time>
      </trkpt>
      <trkpt lat="44.92044" lon="4.01025">
        <ele>926.02</ele>
        <time>2022-03-21T09:43:15Z</time>
      </trkpt>
      <trkpt lat="44.92048" lon="4.01048">
        <ele>927.96</ele>
        <time>2022-03-21T09:43:17Z</time>
      </trkpt>
      <trkpt lat="44.92055" lon="4.01058">
        <ele>927.29</ele>
        <time>2022-03-21T09:43:19Z</time>
      </trkpt>
      <trkpt lat="44.92062" lon="4.01063">
        <ele>926.92</ele>
        <time>2022-03-21T09:43:22Z</time>
      </trkpt>
      <trkpt lat="44.92073" lon="4.01062">
        <ele>926.26</ele>
        <time>2022-03-21T09:43:24Z</time>
      </trkpt>
      <trkpt lat="44.92081" lon="4.01056">
        <ele>925.2</ele>
        <time>2022-03-21T09:43:26Z</time>
      </trkpt>
      <trkpt lat="44.92111" lon="4.01008">
        <ele>918.74</ele>
        <time>2022-03-21T09:43:29Z</time>
      </trkpt>
      <trkpt lat="44.9213" lon="4.00989">
        <ele>919.39</ele>
        <time>2022-03-21T09:43:31Z</time>
      </trkpt>
      <trkpt lat="44.92146" lon="4.00969">
        <ele>918.06</ele>
        <time>2022-03-21T09:43:33Z</time>
      </trkpt>
      <trkpt lat="44.92172" lon="4.00927">
        <ele>912.24</ele>
        <time>2022-03-21T09:43:36Z</time>
      </trkpt>
      <trkpt lat="44.92185" lon="4.00916">
        <ele>909.55</ele>
        <time>2022-03-21T09:43:38Z</time>
      </trkpt>
      <trkpt lat="44.92197" lon="4.00914">
        <ele>909.25</ele>
        <time>2022-03-21T09:43:40Z</time>
      </trkpt>
      <trkpt lat="44.92214" lon="4.00918">
        <ele>908.23</ele>
        <time>2022-03-21T09:43:43Z</time>
      </trkpt>
      <trkpt lat="44.92252" lon="4.00933">
        <ele>907.83</ele>
        <time>2022-03-21T09:43:45Z</time>
      </trkpt>
      <trkpt lat="44.92296" lon="4.00957">
        <ele>905.97</ele>
        <time>2022-03-21T09:43:47Z</time>
      </trkpt>
      <trkpt lat="44.92321" lon="4.00961">
        <ele>904.33</ele>
        <time>2022-03-21T09:43:50Z</time>
      </trkpt>
      <trkpt lat="44.92341" lon="4.00958">
        <ele>902.22</ele>
        <time>2022-03-21T09:43:52Z</time>
      </trkpt>
      <trkpt lat="44.92363" lon="4.00948">
        <ele>897.41</ele>
        <time>2022-03-21T09:43:54Z</time>
      </trkpt>
      <trkpt lat="44.92379" lon="4.00948">
        <ele>895.15</ele>
        <time>2022-03-21T09:43:56Z</time>
      </trkpt>
      <trkpt lat="44.92439" lon="4.00971">
        <ele>889.97</ele>
        <time>2022-03-21T09:43:59Z</time>
      </trkpt>
      <trkpt lat="44.92455" lon="4.00975">
        <ele>888.1</ele>
        <time>2022-03-21T09:44:01Z</time>
      </trkpt>
      <trkpt lat="44.9247" lon="4.00973">
        <ele>885.62</ele>
        <time>2022-03-21T09:44:03Z</time>
      </trkpt>
      <trkpt lat="44.92486" lon="4.00965">
        <ele>883.49</ele>
        <time>2022-03-21T09:44:06Z</time>
      </trkpt>
      <trkpt lat="44.9259" lon="4.0088">
        <ele>877.53</ele>
        <time>2022-03-21T09:44:08Z</time>
      </trkpt>
      <trkpt lat="44.92636" lon="4.0082">
        <ele>868.19</ele>
        <time>2022-03-21T09:44:10Z</time>
      </trkpt>
      <trkpt lat="44.9264" lon="4.00801">
        <ele>864.84</ele>
        <time>2022-03-21T09:44:13Z</time>
      </trkpt>
      <trkpt lat="44.92646" lon="4.008">
        <ele>865</ele>
        <time>2022-03-21T09:44:16Z</time>
      </trkpt>
      <trkpt lat="44.92699" lon="4.00774">
        <ele>866.72</ele>
        <time>2022-03-21T09:44:20Z</time>
      </trkpt>
      <trkpt lat="44.92709" lon="4.00764">
        <ele>868.17</ele>
        <time>2022-03-21T09:44:23Z</time>
      </trkpt>
      <trkpt lat="44.92727" lon="4.00734">
        <ele>868.84</ele>
        <time>2022-03-21T09:44:27Z</time>
      </trkpt>
      <trkpt lat="44.92801" lon="4.00633">
        <ele>875.08</ele>
        <time>2022-03-21T09:44:30Z</time>
      </trkpt>
      <trkpt lat="44.92893" lon="4.00489">
        <ele>887.18</ele>
        <time>2022-03-21T09:44:34Z</time>
      </trkpt>
      <trkpt lat="44.92898" lon="4.00469">
        <ele>885.81</ele>
        <time>2022-03-21T09:44:38Z</time>
      </trkpt>
      <trkpt lat="44.92904" lon="4.00414">
        <ele>882.29</ele>
        <time>2022-03-21T09:44:41Z</time>
      </trkpt>
      <trkpt lat="44.92912" lon="4.00395">
        <ele>884.07</ele>
        <time>2022-03-21T09:44:45Z</time>
      </trkpt>
      <trkpt lat="44.92925" lon="4.0038">
        <ele>887.76</ele>
        <time>2022-03-21T09:44:48Z</time>
      </trkpt>
      <trkpt lat="44.92948" lon="4.00369">
        <ele>894.67</ele>
        <time>2022-03-21T09:44:52Z</time>
      </trkpt>
      <trkpt lat="44.92971" lon="4.00362">
        <ele>899.79</ele>
        <time>2022-03-21T09:44:55Z</time>
      </trkpt>
      <trkpt lat="44.92995" lon="4.0035">
        <ele>905.3</ele>
        <time>2022-03-21T09:44:59Z</time>
      </trkpt>
      <trkpt lat="44.93058" lon="4.00292">
        <ele>912.21</ele>
        <time>2022-03-21T09:45:02Z</time>
      </trkpt>
      <trkpt lat="44.9309" lon="4.00251">
        <ele>911.09</ele>
        <time>2022-03-21T09:45:06Z</time>
      </trkpt>
      <trkpt lat="44.93126" lon="4.00193">
        <ele>909.51</ele>
        <time>2022-03-21T09:45:09Z</time>
      </trkpt>
      <trkpt lat="44.93143" lon="4.00173">
        <ele>912.83</ele>
        <time>2022-03-21T09:45:13Z</time>
      </trkpt>
      <trkpt lat="44.93166" lon="4.00154">
        <ele>917.32</ele>
        <time>2022-03-21T09:45:16Z</time>
      </trkpt>
      <trkpt lat="44.932" lon="4.00098">
        <ele>920.95</ele>
        <time>2022-03-21T09:45:20Z</time>
      </trkpt>
      <trkpt lat="44.93216" lon="4.00074">
        <ele>921.94</ele>
        <time>2022-03-21T09:45:23Z</time>
      </trkpt>
      <trkpt lat="44.93284" lon="3.99985">
        <ele>928.19</ele>
        <time>2022-03-21T09:45:27Z</time>
      </trkpt>
      <trkpt lat="44.93305" lon="3.99963">
        <ele>927.36</ele>
        <time>2022-03-21T09:45:31Z</time>
      </trkpt>
      <trkpt lat="44.93318" lon="3.99957">
        <ele>928.68</ele>
        <time>2022-03-21T09:45:34Z</time>
      </trkpt>
      <trkpt lat="44.93323" lon="3.99957">
        <ele>929.44</ele>
        <time>2022-03-21T09:45:38Z</time>
      </trkpt>
      <trkpt lat="44.9333" lon="3.99964">
        <ele>930.93</ele>
        <time>2022-03-21T09:45:38Z</time>
      </trkpt>
      <trkpt lat="44.93338" lon="3.99961">
        <ele>931.86</ele>
        <time>2022-03-21T09:45:39Z</time>
      </trkpt>
      <trkpt lat="44.93341" lon="3.99955">
        <ele>931.79</ele>
        <time>2022-03-21T09:45:39Z</time>
      </trkpt>
      <trkpt lat="44.93341" lon="3.99945">
        <ele>930.78</ele>
        <time>2022-03-21T09:45:40Z</time>
      </trkpt>
      <trkpt lat="44.93341" lon="3.99945">
        <ele>930.78</ele>
        <time>2022-03-21T09:45:40Z</time>
      </trkpt>
      <trkpt lat="44.9334" lon="3.99942">
        <ele>930.49</ele>
        <time>2022-03-21T09:45:43Z</time>
      </trkpt>
      <trkpt lat="44.93335" lon="3.99936">
        <ele>929.58</ele>
        <time>2022-03-21T09:45:46Z</time>
      </trkpt>
      <trkpt lat="44.93329" lon="3.99936">
        <ele>928.73</ele>
        <time>2022-03-21T09:45:49Z</time>
      </trkpt>
      <trkpt lat="44.93324" lon="3.99941">
        <ele>928.38</ele>
        <time>2022-03-21T09:45:52Z</time>
      </trkpt>
      <trkpt lat="44.93322" lon="3.99948">
        <ele>928.55</ele>
        <time>2022-03-21T09:45:55Z</time>
      </trkpt>
      <trkpt lat="44.93308" lon="3.99953">
        <ele>927.03</ele>
        <time>2022-03-21T09:45:58Z</time>
      </trkpt>
      <trkpt lat="44.93289" lon="3.99975">
        <ele>928.08</ele>
        <time>2022-03-21T09:46:01Z</time>
      </trkpt>
      <trkpt lat="44.93284" lon="3.99985">
        <ele>928.19</ele>
        <time>2022-03-21T09:46:04Z</time>
      </trkpt>
      <trkpt lat="44.93216" lon="4.00074">
        <ele>921.94</ele>
        <time>2022-03-21T09:46:07Z</time>
      </trkpt>
      <trkpt lat="44.932" lon="4.00098">
        <ele>920.95</ele>
        <time>2022-03-21T09:46:10Z</time>
      </trkpt>
      <trkpt lat="44.93166" lon="4.00154">
        <ele>917.32</ele>
        <time>2022-03-21T09:46:13Z</time>
      </trkpt>
      <trkpt lat="44.93143" lon="4.00173">
        <ele>912.83</ele>
        <time>2022-03-21T09:46:16Z</time>
      </trkpt>
      <trkpt lat="44.93126" lon="4.00193">
        <ele>909.51</ele>
        <time>2022-03-21T09:46:19Z</time>
      </trkpt>
      <trkpt lat="44.9309" lon="4.00251">
        <ele>911.09</ele>
        <time>2022-03-21T09:46:22Z</time>
      </trkpt>
      <trkpt lat="44.93058" lon="4.00292">
        <ele>912.21</ele>
        <time>2022-03-21T09:46:25Z</time>
      </trkpt>
      <trkpt lat="44.92995" lon="4.0035">
        <ele>905.3</ele>
        <time>2022-03-21T09:46:28Z</time>
      </trkpt>
      <trkpt lat="44.92971" lon="4.00362">
        <ele>899.79</ele>
        <time>2022-03-21T09:46:31Z</time>
      </trkpt>
      <trkpt lat="44.92948" lon="4.00369">
        <ele>894.67</ele>
        <time>2022-03-21T09:46:34Z</time>
      </trkpt>
      <trkpt lat="44.92925" lon="4.0038">
        <ele>887.76</ele>
        <time>2022-03-21T09:46:37Z</time>
      </trkpt>
      <trkpt lat="44.92912" lon="4.00395">
        <ele>884.07</ele>
        <time>2022-03-21T09:46:40Z</time>
      </trkpt>
      <trkpt lat="44.92904" lon="4.00414">
        <ele>882.29</ele>
        <time>2022-03-21T09:46:43Z</time>
      </trkpt>
      <trkpt lat="44.92898" lon="4.00469">
        <ele>885.81</ele>
        <time>2022-03-21T09:46:46Z</time>
      </trkpt>
      <trkpt lat="44.92893" lon="4.00489">
        <ele>887.18</ele>
        <time>2022-03-21T09:46:49Z</time>
      </trkpt>
      <trkpt lat="44.92801" lon="4.00633">
        <ele>875.08</ele>
        <time>2022-03-21T09:46:52Z</time>
      </trkpt>
      <trkpt lat="44.92727" lon="4.00734">
        <ele>868.84</ele>
        <time>2022-03-21T09:46:55Z</time>
      </trkpt>
      <trkpt lat="44.92709" lon="4.00764">
        <ele>868.17</ele>
        <time>2022-03-21T09:46:58Z</time>
      </trkpt>
      <trkpt lat="44.92699" lon="4.00774">
        <ele>866.72</ele>
        <time>2022-03-21T09:47:01Z</time>
      </trkpt>
      <trkpt lat="44.92646" lon="4.008">
        <ele>865</ele>
        <time>2022-03-21T09:47:04Z</time>
      </trkpt>
      <trkpt lat="44.9264" lon="4.00801">
        <ele>864.84</ele>
        <time>2022-03-21T09:47:07Z</time>
      </trkpt>
      <trkpt lat="44.92636" lon="4.0082">
        <ele>868.19</ele>
        <time>2022-03-21T09:47:09Z</time>
      </trkpt>
      <trkpt lat="44.9259" lon="4.0088">
        <ele>877.53</ele>
        <time>2022-03-21T09:47:11Z</time>
      </trkpt>
      <trkpt lat="44.92486" lon="4.00965">
        <ele>883.49</ele>
        <time>2022-03-21T09:47:13Z</time>
      </trkpt>
      <trkpt lat="44.9247" lon="4.00973">
        <ele>885.62</ele>
        <time>2022-03-21T09:47:15Z</time>
      </trkpt>
      <trkpt lat="44.92455" lon="4.00975">
        <ele>888.1</ele>
        <time>2022-03-21T09:47:17Z</time>
      </trkpt>
      <trkpt lat="44.92439" lon="4.00971">
        <ele>889.97</ele>
        <time>2022-03-21T09:47:18Z</time>
      </trkpt>
      <trkpt lat="44.92379" lon="4.00948">
        <ele>895.15</ele>
        <time>2022-03-21T09:47:20Z</time>
      </trkpt>
      <trkpt lat="44.92363" lon="4.00948">
        <ele>897.41</ele>
        <time>2022-03-21T09:47:22Z</time>
      </trkpt>
      <trkpt lat="44.92341" lon="4.00958">
        <ele>902.22</ele>
        <time>2022-03-21T09:47:24Z</time>
      </trkpt>
      <trkpt lat="44.92321" lon="4.00961">
        <ele>904.33</ele>
        <time>2022-03-21T09:47:26Z</time>
      </trkpt>
      <trkpt lat="44.92296" lon="4.00957">
        <ele>905.97</ele>
        <time>2022-03-21T09:47:28Z</time>
      </trkpt>
      <trkpt lat="44.92252" lon="4.00933">
        <ele>907.83</ele>
        <time>2022-03-21T09:47:30Z</time>
      </trkpt>
      <trkpt lat="44.92214" lon="4.00918">
        <ele>908.23</ele>
        <time>2022-03-21T09:47:32Z</time>
      </trkpt>
      <trkpt lat="44.92197" lon="4.00914">
        <ele>909.25</ele>
        <time>2022-03-21T09:47:34Z</time>
      </trkpt>
      <trkpt lat="44.92185" lon="4.00916">
        <ele>909.55</ele>
        <time>2022-03-21T09:47:36Z</time>
      </trkpt>
      <trkpt lat="44.92172" lon="4.00927">
        <ele>912.24</ele>
        <time>2022-03-21T09:47:38Z</time>
      </trkpt>
      <trkpt lat="44.92146" lon="4.00969">
        <ele>918.06</ele>
        <time>2022-03-21T09:47:40Z</time>
      </trkpt>
      <trkpt lat="44.9213" lon="4.00989">
        <ele>919.39</ele>
        <time>2022-03-21T09:47:42Z</time>
      </trkpt>
      <trkpt lat="44.92111" lon="4.01008">
        <ele>918.74</ele>
        <time>2022-03-21T09:47:44Z</time>
      </trkpt>
      <trkpt lat="44.92081" lon="4.01056">
        <ele>925.2</ele>
        <time>2022-03-21T09:47:46Z</time>
      </trkpt>
      <trkpt lat="44.92073" lon="4.01062">
        <ele>926.26</ele>
        <time>2022-03-21T09:47:48Z</time>
      </trkpt>
      <trkpt lat="44.92062" lon="4.01063">
        <ele>926.92</ele>
        <time>2022-03-21T09:47:50Z</time>
      </trkpt>
      <trkpt lat="44.92055" lon="4.01058">
        <ele>927.29</ele>
        <time>2022-03-21T09:47:51Z</time>
      </trkpt>
      <trkpt lat="44.92048" lon="4.01048">
        <ele>927.96</ele>
        <time>2022-03-21T09:47:53Z</time>
      </trkpt>
      <trkpt lat="44.92044" lon="4.01025">
        <ele>926.02</ele>
        <time>2022-03-21T09:47:55Z</time>
      </trkpt>
      <trkpt lat="44.92038" lon="4.01013">
        <ele>924.22</ele>
        <time>2022-03-21T09:47:57Z</time>
      </trkpt>
      <trkpt lat="44.92028" lon="4.01007">
        <ele>923.21</ele>
        <time>2022-03-21T09:47:59Z</time>
      </trkpt>
      <trkpt lat="44.92017" lon="4.01008">
        <ele>924.34</ele>
        <time>2022-03-21T09:48:01Z</time>
      </trkpt>
      <trkpt lat="44.92006" lon="4.01019">
        <ele>927.4</ele>
        <time>2022-03-21T09:48:03Z</time>
      </trkpt>
      <trkpt lat="44.91996" lon="4.01037">
        <ele>932.68</ele>
        <time>2022-03-21T09:48:05Z</time>
      </trkpt>
      <trkpt lat="44.91988" lon="4.01045">
        <ele>935.67</ele>
        <time>2022-03-21T09:48:07Z</time>
      </trkpt>
      <trkpt lat="44.91984" lon="4.01064">
        <ele>939.53</ele>
        <time>2022-03-21T09:48:11Z</time>
      </trkpt>
      <trkpt lat="44.91989" lon="4.0109">
        <ele>942.48</ele>
        <time>2022-03-21T09:48:14Z</time>
      </trkpt>
      <trkpt lat="44.91997" lon="4.01098">
        <ele>942.11</ele>
        <time>2022-03-21T09:48:18Z</time>
      </trkpt>
      <trkpt lat="44.92011" lon="4.01108">
        <ele>939.91</ele>
        <time>2022-03-21T09:48:22Z</time>
      </trkpt>
      <trkpt lat="44.92015" lon="4.01118">
        <ele>940.28</ele>
        <time>2022-03-21T09:48:26Z</time>
      </trkpt>
      <trkpt lat="44.92009" lon="4.01128">
        <ele>943.5</ele>
        <time>2022-03-21T09:48:29Z</time>
      </trkpt>
      <trkpt lat="44.91991" lon="4.01123">
        <ele>946.63</ele>
        <time>2022-03-21T09:48:33Z</time>
      </trkpt>
      <trkpt lat="44.91975" lon="4.0111">
        <ele>947.32</ele>
        <time>2022-03-21T09:48:37Z</time>
      </trkpt>
      <trkpt lat="44.91968" lon="4.0111">
        <ele>948.71</ele>
        <time>2022-03-21T09:48:41Z</time>
      </trkpt>
      <trkpt lat="44.91963" lon="4.0112">
        <ele>951.07</ele>
        <time>2022-03-21T09:48:44Z</time>
      </trkpt>
      <trkpt lat="44.91967" lon="4.01137">
        <ele>952.52</ele>
        <time>2022-03-21T09:48:48Z</time>
      </trkpt>
      <trkpt lat="44.91996" lon="4.01156">
        <ele>952.93</ele>
        <time>2022-03-21T09:48:52Z</time>
      </trkpt>
      <trkpt lat="44.92003" lon="4.01163">
        <ele>952.97</ele>
        <time>2022-03-21T09:48:55Z</time>
      </trkpt>
      <trkpt lat="44.92004" lon="4.01173">
        <ele>954.88</ele>
        <time>2022-03-21T09:48:59Z</time>
      </trkpt>
      <trkpt lat="44.91997" lon="4.01181">
        <ele>958.77</ele>
        <time>2022-03-21T09:49:03Z</time>
      </trkpt>
      <trkpt lat="44.91969" lon="4.01168">
        <ele>959.57</ele>
        <time>2022-03-21T09:49:07Z</time>
      </trkpt>
      <trkpt lat="44.91934" lon="4.01155">
        <ele>958.66</ele>
        <time>2022-03-21T09:49:10Z</time>
      </trkpt>
      <trkpt lat="44.91914" lon="4.01115">
        <ele>955.47</ele>
        <time>2022-03-21T09:49:14Z</time>
      </trkpt>
      <trkpt lat="44.91894" lon="4.01101">
        <ele>956.74</ele>
        <time>2022-03-21T09:49:18Z</time>
      </trkpt>
      <trkpt lat="44.91877" lon="4.01102">
        <ele>961.02</ele>
        <time>2022-03-21T09:49:22Z</time>
      </trkpt>
      <trkpt lat="44.91872" lon="4.01118">
        <ele>962.57</ele>
        <time>2022-03-21T09:49:25Z</time>
      </trkpt>
      <trkpt lat="44.91877" lon="4.01135">
        <ele>962.04</ele>
        <time>2022-03-21T09:49:29Z</time>
      </trkpt>
      <trkpt lat="44.91901" lon="4.0115">
        <ele>959.81</ele>
        <time>2022-03-21T09:49:33Z</time>
      </trkpt>
      <trkpt lat="44.91912" lon="4.01185">
        <ele>964.88</ele>
        <time>2022-03-21T09:49:36Z</time>
      </trkpt>
      <trkpt lat="44.91924" lon="4.01198">
        <ele>968.04</ele>
        <time>2022-03-21T09:49:40Z</time>
      </trkpt>
      <trkpt lat="44.91962" lon="4.01204">
        <ele>969.46</ele>
        <time>2022-03-21T09:49:44Z</time>
      </trkpt>
      <trkpt lat="44.91975" lon="4.01215">
        <ele>970.53</ele>
        <time>2022-03-21T09:49:48Z</time>
      </trkpt>
      <trkpt lat="44.91983" lon="4.01252">
        <ele>973.21</ele>
        <time>2022-03-21T09:49:51Z</time>
      </trkpt>
      <trkpt lat="44.91977" lon="4.01362">
        <ele>979.82</ele>
        <time>2022-03-21T09:49:55Z</time>
      </trkpt>
      <trkpt lat="44.91971" lon="4.01375">
        <ele>979.82</ele>
        <time>2022-03-21T09:49:59Z</time>
      </trkpt>
      <trkpt lat="44.91971" lon="4.01375">
        <ele>979.82</ele>
        <time>2022-03-21T09:49:59Z</time>
      </trkpt>
      <trkpt lat="44.91977" lon="4.01362">
        <ele>979.82</ele>
        <time>2022-03-21T09:50:02Z</time>
      </trkpt>
      <trkpt lat="44.91983" lon="4.01252">
        <ele>973.21</ele>
        <time>2022-03-21T09:50:06Z</time>
      </trkpt>
      <trkpt lat="44.91975" lon="4.01215">
        <ele>970.53</ele>
        <time>2022-03-21T09:50:10Z</time>
      </trkpt>
      <trkpt lat="44.91962" lon="4.01204">
        <ele>969.46</ele>
        <time>2022-03-21T09:50:14Z</time>
      </trkpt>
      <trkpt lat="44.91924" lon="4.01198">
        <ele>968.04</ele>
        <time>2022-03-21T09:50:17Z</time>
      </trkpt>
      <trkpt lat="44.91912" lon="4.01185">
        <ele>964.88</ele>
        <time>2022-03-21T09:50:21Z</time>
      </trkpt>
      <trkpt lat="44.91901" lon="4.0115">
        <ele>959.81</ele>
        <time>2022-03-21T09:50:25Z</time>
      </trkpt>
      <trkpt lat="44.91877" lon="4.01135">
        <ele>962.04</ele>
        <time>2022-03-21T09:50:29Z</time>
      </trkpt>
      <trkpt lat="44.91872" lon="4.01118">
        <ele>962.57</ele>
        <time>2022-03-21T09:50:32Z</time>
      </trkpt>
      <trkpt lat="44.91877" lon="4.01102">
        <ele>961.02</ele>
        <time>2022-03-21T09:50:36Z</time>
      </trkpt>
      <trkpt lat="44.91894" lon="4.01101">
        <ele>956.74</ele>
        <time>2022-03-21T09:50:40Z</time>
      </trkpt>
      <trkpt lat="44.91914" lon="4.01115">
        <ele>955.47</ele>
        <time>2022-03-21T09:50:43Z</time>
      </trkpt>
      <trkpt lat="44.91934" lon="4.01155">
        <ele>958.66</ele>
        <time>2022-03-21T09:50:47Z</time>
      </trkpt>
      <trkpt lat="44.91969" lon="4.01168">
        <ele>959.57</ele>
        <time>2022-03-21T09:50:51Z</time>
      </trkpt>
      <trkpt lat="44.91997" lon="4.01181">
        <ele>958.77</ele>
        <time>2022-03-21T09:50:55Z</time>
      </trkpt>
      <trkpt lat="44.92004" lon="4.01173">
        <ele>954.88</ele>
        <time>2022-03-21T09:50:58Z</time>
      </trkpt>
      <trkpt lat="44.92003" lon="4.01163">
        <ele>952.97</ele>
        <time>2022-03-21T09:51:02Z</time>
      </trkpt>
      <trkpt lat="44.91996" lon="4.01156">
        <ele>952.93</ele>
        <time>2022-03-21T09:51:06Z</time>
      </trkpt>
      <trkpt lat="44.91967" lon="4.01137">
        <ele>952.52</ele>
        <time>2022-03-21T09:51:10Z</time>
      </trkpt>
      <trkpt lat="44.91963" lon="4.0112">
        <ele>951.07</ele>
        <time>2022-03-21T09:51:13Z</time>
      </trkpt>
      <trkpt lat="44.91968" lon="4.0111">
        <ele>948.71</ele>
        <time>2022-03-21T09:51:17Z</time>
      </trkpt>
      <trkpt lat="44.91975" lon="4.0111">
        <ele>947.32</ele>
        <time>2022-03-21T09:51:21Z</time>
      </trkpt>
      <trkpt lat="44.91991" lon="4.01123">
        <ele>946.63</ele>
        <time>2022-03-21T09:51:24Z</time>
      </trkpt>
      <trkpt lat="44.92009" lon="4.01128">
        <ele>943.5</ele>
        <time>2022-03-21T09:51:28Z</time>
      </trkpt>
      <trkpt lat="44.92015" lon="4.01118">
        <ele>940.28</ele>
        <time>2022-03-21T09:51:32Z</time>
      </trkpt>
      <trkpt lat="44.92011" lon="4.01108">
        <ele>939.91</ele>
        <time>2022-03-21T09:51:36Z</time>
      </trkpt>
      <trkpt lat="44.91997" lon="4.01098">
        <ele>942.11</ele>
        <time>2022-03-21T09:51:39Z</time>
      </trkpt>
      <trkpt lat="44.91989" lon="4.0109">
        <ele>942.48</ele>
        <time>2022-03-21T09:51:43Z</time>
      </trkpt>
      <trkpt lat="44.91984" lon="4.01064">
        <ele>939.53</ele>
        <time>2022-03-21T09:51:47Z</time>
      </trkpt>
      <trkpt lat="44.91988" lon="4.01045">
        <ele>935.67</ele>
        <time>2022-03-21T09:51:51Z</time>
      </trkpt>
      <trkpt lat="44.91996" lon="4.01037">
        <ele>932.68</ele>
        <time>2022-03-21T09:51:52Z</time>
      </trkpt>
      <trkpt lat="44.92006" lon="4.01019">
        <ele>927.4</ele>
        <time>2022-03-21T09:51:54Z</time>
      </trkpt>
      <trkpt lat="44.92017" lon="4.01008">
        <ele>924.34</ele>
        <time>2022-03-21T09:51:56Z</time>
      </trkpt>
      <trkpt lat="44.92028" lon="4.01007">
        <ele>923.21</ele>
        <time>2022-03-21T09:51:58Z</time>
      </trkpt>
      <trkpt lat="44.92038" lon="4.01013">
        <ele>924.22</ele>
        <time>2022-03-21T09:52:00Z</time>
      </trkpt>
      <trkpt lat="44.92044" lon="4.01025">
        <ele>926.02</ele>
        <time>2022-03-21T09:52:02Z</time>
      </trkpt>
      <trkpt lat="44.92048" lon="4.01048">
        <ele>927.96</ele>
        <time>2022-03-21T09:52:04Z</time>
      </trkpt>
      <trkpt lat="44.92055" lon="4.01058">
        <ele>927.29</ele>
        <time>2022-03-21T09:52:06Z</time>
      </trkpt>
      <trkpt lat="44.92062" lon="4.01063">
        <ele>926.92</ele>
        <time>2022-03-21T09:52:08Z</time>
      </trkpt>
      <trkpt lat="44.92073" lon="4.01062">
        <ele>926.26</ele>
        <time>2022-03-21T09:52:10Z</time>
      </trkpt>
      <trkpt lat="44.92081" lon="4.01056">
        <ele>925.2</ele>
        <time>2022-03-21T09:52:12Z</time>
      </trkpt>
      <trkpt lat="44.92111" lon="4.01008">
        <ele>918.74</ele>
        <time>2022-03-21T09:52:14Z</time>
      </trkpt>
      <trkpt lat="44.9213" lon="4.00989">
        <ele>919.39</ele>
        <time>2022-03-21T09:52:16Z</time>
      </trkpt>
      <trkpt lat="44.92146" lon="4.00969">
        <ele>918.06</ele>
        <time>2022-03-21T09:52:18Z</time>
      </trkpt>
      <trkpt lat="44.92172" lon="4.00927">
        <ele>912.24</ele>
        <time>2022-03-21T09:52:20Z</time>
      </trkpt>
      <trkpt lat="44.92185" lon="4.00916">
        <ele>909.55</ele>
        <time>2022-03-21T09:52:22Z</time>
      </trkpt>
      <trkpt lat="44.92197" lon="4.00914">
        <ele>909.25</ele>
        <time>2022-03-21T09:52:23Z</time>
      </trkpt>
      <trkpt lat="44.92214" lon="4.00918">
        <ele>908.23</ele>
        <time>2022-03-21T09:52:25Z</time>
      </trkpt>
      <trkpt lat="44.92252" lon="4.00933">
        <ele>907.83</ele>
        <time>2022-03-21T09:52:27Z</time>
      </trkpt>
      <trkpt lat="44.92296" lon="4.00957">
        <ele>905.97</ele>
        <time>2022-03-21T09:52:29Z</time>
      </trkpt>
      <trkpt lat="44.92321" lon="4.00961">
        <ele>904.33</ele>
        <time>2022-03-21T09:52:31Z</time>
      </trkpt>
      <trkpt lat="44.92341" lon="4.00958">
        <ele>902.22</ele>
        <time>2022-03-21T09:52:33Z</time>
      </trkpt>
      <trkpt lat="44.92363" lon="4.00948">
        <ele>897.41</ele>
        <time>2022-03-21T09:52:35Z</time>
      </trkpt>
      <trkpt lat="44.92379" lon="4.00948">
        <ele>895.15</ele>
        <time>2022-03-21T09:52:37Z</time>
      </trkpt>
      <trkpt lat="44.92439" lon="4.00971">
        <ele>889.97</ele>
        <time>2022-03-21T09:52:39Z</time>
      </trkpt>
      <trkpt lat="44.92455" lon="4.00975">
        <ele>888.1</ele>
        <time>2022-03-21T09:52:41Z</time>
      </trkpt>
      <trkpt lat="44.9247" lon="4.00973">
        <ele>885.62</ele>
        <time>2022-03-21T09:52:43Z</time>
      </trkpt>
      <trkpt lat="44.92486" lon="4.00965">
        <ele>883.49</ele>
        <time>2022-03-21T09:52:45Z</time>
      </trkpt>
      <trkpt lat="44.9259" lon="4.0088">
        <ele>877.53</ele>
        <time>2022-03-21T09:52:47Z</time>
      </trkpt>
      <trkpt lat="44.92636" lon="4.0082">
        <ele>868.19</ele>
        <time>2022-03-21T09:52:49Z</time>
      </trkpt>
      <trkpt lat="44.9264" lon="4.00801">
        <ele>864.84</ele>
        <time>2022-03-21T09:52:51Z</time>
      </trkpt>
      <trkpt lat="44.92632" lon="4.00797">
        <ele>865.29</ele>
        <time>2022-03-21T09:52:53Z</time>
      </trkpt>
      <trkpt lat="44.92614" lon="4.00776">
        <ele>865.33</ele>
        <time>2022-03-21T09:52:55Z</time>
      </trkpt>
      <trkpt lat="44.92611" lon="4.00768">
        <ele>865.35</ele>
        <time>2022-03-21T09:52:57Z</time>
      </trkpt>
      <trkpt lat="44.92608" lon="4.00755">
        <ele>867.15</ele>
        <time>2022-03-21T09:53:00Z</time>
      </trkpt>
      <trkpt lat="44.92609" lon="4.00742">
        <ele>868.78</ele>
        <time>2022-03-21T09:53:02Z</time>
      </trkpt>
      <trkpt lat="44.92616" lon="4.00665">
        <ele>875.87</ele>
        <time>2022-03-21T09:53:04Z</time>
      </trkpt>
      <trkpt lat="44.92614" lon="4.00603">
        <ele>885.24</ele>
        <time>2022-03-21T09:53:07Z</time>
      </trkpt>
      <trkpt lat="44.92619" lon="4.0057">
        <ele>889.4</ele>
        <time>2022-03-21T09:53:09Z</time>
      </trkpt>
      <trkpt lat="44.92652" lon="4.00435">
        <ele>894.48</ele>
        <time>2022-03-21T09:53:11Z</time>
      </trkpt>
      <trkpt lat="44.92663" lon="4.00419">
        <ele>896.3</ele>
        <time>2022-03-21T09:53:13Z</time>
      </trkpt>
      <trkpt lat="44.92681" lon="4.00409">
        <ele>894.18</ele>
        <time>2022-03-21T09:53:16Z</time>
      </trkpt>
      <trkpt lat="44.92703" lon="4.00402">
        <ele>890.81</ele>
        <time>2022-03-21T09:53:18Z</time>
      </trkpt>
      <trkpt lat="44.92719" lon="4.0039">
        <ele>889.66</ele>
        <time>2022-03-21T09:53:20Z</time>
      </trkpt>
      <trkpt lat="44.92731" lon="4.00371">
        <ele>888.59</ele>
        <time>2022-03-21T09:53:22Z</time>
      </trkpt>
      <trkpt lat="44.92738" lon="4.00352">
        <ele>888.14</ele>
        <time>2022-03-21T09:53:25Z</time>
      </trkpt>
      <trkpt lat="44.9274" lon="4.00339">
        <ele>888.53</ele>
        <time>2022-03-21T09:53:27Z</time>
      </trkpt>
      <trkpt lat="44.92741" lon="4.00267">
        <ele>893.42</ele>
        <time>2022-03-21T09:53:29Z</time>
      </trkpt>
      <trkpt lat="44.92736" lon="4.00195">
        <ele>896.09</ele>
        <time>2022-03-21T09:53:32Z</time>
      </trkpt>
      <trkpt lat="44.92731" lon="4.00173">
        <ele>893.47</ele>
        <time>2022-03-21T09:53:34Z</time>
      </trkpt>
      <trkpt lat="44.92722" lon="4.0015">
        <ele>891.86</ele>
        <time>2022-03-21T09:53:36Z</time>
      </trkpt>
      <trkpt lat="44.92711" lon="4.00095">
        <ele>893.04</ele>
        <time>2022-03-21T09:53:38Z</time>
      </trkpt>
      <trkpt lat="44.92704" lon="4.00077">
        <ele>894.75</ele>
        <time>2022-03-21T09:53:41Z</time>
      </trkpt>
      <trkpt lat="44.92693" lon="4.00062">
        <ele>897.28</ele>
        <time>2022-03-21T09:53:43Z</time>
      </trkpt>
      <trkpt lat="44.92679" lon="4.00053">
        <ele>901.81</ele>
        <time>2022-03-21T09:53:45Z</time>
      </trkpt>
      <trkpt lat="44.92661" lon="4.00052">
        <ele>907.75</ele>
        <time>2022-03-21T09:53:47Z</time>
      </trkpt>
      <trkpt lat="44.9265" lon="4.00046">
        <ele>909.58</ele>
        <time>2022-03-21T09:53:50Z</time>
      </trkpt>
      <trkpt lat="44.9264" lon="4.00031">
        <ele>909.47</ele>
        <time>2022-03-21T09:53:52Z</time>
      </trkpt>
      <trkpt lat="44.92635" lon="4.00013">
        <ele>906.98</ele>
        <time>2022-03-21T09:53:54Z</time>
      </trkpt>
      <trkpt lat="44.92636" lon="3.99995">
        <ele>904.64</ele>
        <time>2022-03-21T09:53:57Z</time>
      </trkpt>
      <trkpt lat="44.92642" lon="3.99984">
        <ele>904.28</ele>
        <time>2022-03-21T09:53:59Z</time>
      </trkpt>
      <trkpt lat="44.92651" lon="3.99976">
        <ele>903.94</ele>
        <time>2022-03-21T09:54:01Z</time>
      </trkpt>
      <trkpt lat="44.9267" lon="3.99969">
        <ele>903.38</ele>
        <time>2022-03-21T09:54:03Z</time>
      </trkpt>
      <trkpt lat="44.9274" lon="3.99957">
        <ele>901.53</ele>
        <time>2022-03-21T09:54:06Z</time>
      </trkpt>
      <trkpt lat="44.92764" lon="3.99958">
        <ele>900.56</ele>
        <time>2022-03-21T09:54:08Z</time>
      </trkpt>
      <trkpt lat="44.92785" lon="3.99962">
        <ele>899.19</ele>
        <time>2022-03-21T09:54:10Z</time>
      </trkpt>
      <trkpt lat="44.92798" lon="3.9996">
        <ele>899.11</ele>
        <time>2022-03-21T09:54:12Z</time>
      </trkpt>
      <trkpt lat="44.92808" lon="3.9995">
        <ele>900.69</ele>
        <time>2022-03-21T09:54:15Z</time>
      </trkpt>
      <trkpt lat="44.92813" lon="3.9994">
        <ele>901.83</ele>
        <time>2022-03-21T09:54:17Z</time>
      </trkpt>
      <trkpt lat="44.92815" lon="3.99922">
        <ele>903.96</ele>
        <time>2022-03-21T09:54:19Z</time>
      </trkpt>
      <trkpt lat="44.92807" lon="3.99863">
        <ele>907.81</ele>
        <time>2022-03-21T09:54:22Z</time>
      </trkpt>
      <trkpt lat="44.928" lon="3.99836">
        <ele>910.62</ele>
        <time>2022-03-21T09:54:24Z</time>
      </trkpt>
      <trkpt lat="44.92792" lon="3.99813">
        <ele>912.29</ele>
        <time>2022-03-21T09:54:26Z</time>
      </trkpt>
      <trkpt lat="44.92742" lon="3.9971">
        <ele>915.58</ele>
        <time>2022-03-21T09:54:28Z</time>
      </trkpt>
      <trkpt lat="44.92725" lon="3.99666">
        <ele>917.4</ele>
        <time>2022-03-21T09:54:31Z</time>
      </trkpt>
      <trkpt lat="44.92708" lon="3.99614">
        <ele>915.79</ele>
        <time>2022-03-21T09:54:33Z</time>
      </trkpt>
      <trkpt lat="44.92687" lon="3.99573">
        <ele>914.76</ele>
        <time>2022-03-21T09:54:35Z</time>
      </trkpt>
      <trkpt lat="44.92616" lon="3.99487">
        <ele>922.4</ele>
        <time>2022-03-21T09:54:37Z</time>
      </trkpt>
      <trkpt lat="44.92607" lon="3.9947">
        <ele>925.56</ele>
        <time>2022-03-21T09:54:40Z</time>
      </trkpt>
      <trkpt lat="44.92602" lon="3.99455">
        <ele>927.56</ele>
        <time>2022-03-21T09:54:42Z</time>
      </trkpt>
      <trkpt lat="44.92599" lon="3.99435">
        <ele>929.67</ele>
        <time>2022-03-21T09:54:44Z</time>
      </trkpt>
      <trkpt lat="44.92601" lon="3.99352">
        <ele>931.15</ele>
        <time>2022-03-21T09:54:46Z</time>
      </trkpt>
      <trkpt lat="44.926" lon="3.99334">
        <ele>932.68</ele>
        <time>2022-03-21T09:54:49Z</time>
      </trkpt>
      <trkpt lat="44.92603" lon="3.99307">
        <ele>934</ele>
        <time>2022-03-21T09:54:51Z</time>
      </trkpt>
      <trkpt lat="44.92613" lon="3.99275">
        <ele>932.49</ele>
        <time>2022-03-21T09:54:53Z</time>
      </trkpt>
      <trkpt lat="44.9263" lon="3.99202">
        <ele>929.09</ele>
        <time>2022-03-21T09:54:56Z</time>
      </trkpt>
      <trkpt lat="44.9263" lon="3.99176">
        <ele>930.4</ele>
        <time>2022-03-21T09:54:58Z</time>
      </trkpt>
      <trkpt lat="44.92623" lon="3.99123">
        <ele>938.05</ele>
        <time>2022-03-21T09:55:00Z</time>
      </trkpt>
      <trkpt lat="44.92624" lon="3.99093">
        <ele>940.51</ele>
        <time>2022-03-21T09:55:02Z</time>
      </trkpt>
      <trkpt lat="44.92632" lon="3.99062">
        <ele>939.91</ele>
        <time>2022-03-21T09:55:05Z</time>
      </trkpt>
      <trkpt lat="44.92683" lon="3.98947">
        <ele>941.5</ele>
        <time>2022-03-21T09:55:07Z</time>
      </trkpt>
      <trkpt lat="44.92752" lon="3.98819">
        <ele>937.65</ele>
        <time>2022-03-21T09:55:09Z</time>
      </trkpt>
      <trkpt lat="44.9276" lon="3.98795">
        <ele>941.32</ele>
        <time>2022-03-21T09:55:11Z</time>
      </trkpt>
      <trkpt lat="44.9277" lon="3.98756">
        <ele>948.68</ele>
        <time>2022-03-21T09:55:14Z</time>
      </trkpt>
      <trkpt lat="44.92828" lon="3.98613">
        <ele>950.54</ele>
        <time>2022-03-21T09:55:16Z</time>
      </trkpt>
      <trkpt lat="44.92847" lon="3.98581">
        <ele>949.33</ele>
        <time>2022-03-21T09:55:18Z</time>
      </trkpt>
      <trkpt lat="44.92898" lon="3.98507">
        <ele>947.51</ele>
        <time>2022-03-21T09:55:21Z</time>
      </trkpt>
      <trkpt lat="44.92908" lon="3.98485">
        <ele>946.71</ele>
        <time>2022-03-21T09:55:23Z</time>
      </trkpt>
      <trkpt lat="44.92913" lon="3.98468">
        <ele>946.37</ele>
        <time>2022-03-21T09:55:25Z</time>
      </trkpt>
      <trkpt lat="44.92914" lon="3.98448">
        <ele>946.18</ele>
        <time>2022-03-21T09:55:27Z</time>
      </trkpt>
      <trkpt lat="44.92912" lon="3.98433">
        <ele>946.85</ele>
        <time>2022-03-21T09:55:30Z</time>
      </trkpt>
      <trkpt lat="44.92905" lon="3.98412">
        <ele>948.62</ele>
        <time>2022-03-21T09:55:32Z</time>
      </trkpt>
      <trkpt lat="44.92892" lon="3.98383">
        <ele>950.5</ele>
        <time>2022-03-21T09:55:34Z</time>
      </trkpt>
      <trkpt lat="44.92871" lon="3.98353">
        <ele>948.36</ele>
        <time>2022-03-21T09:55:36Z</time>
      </trkpt>
      <trkpt lat="44.92857" lon="3.98344">
        <ele>948.62</ele>
        <time>2022-03-21T09:55:39Z</time>
      </trkpt>
      <trkpt lat="44.92844" lon="3.98346">
        <ele>950.75</ele>
        <time>2022-03-21T09:55:41Z</time>
      </trkpt>
      <trkpt lat="44.92779" lon="3.98366">
        <ele>955.61</ele>
        <time>2022-03-21T09:55:43Z</time>
      </trkpt>
      <trkpt lat="44.92714" lon="3.98406">
        <ele>961.57</ele>
        <time>2022-03-21T09:55:46Z</time>
      </trkpt>
      <trkpt lat="44.9267" lon="3.98415">
        <ele>963.71</ele>
        <time>2022-03-21T09:55:48Z</time>
      </trkpt>
      <trkpt lat="44.92659" lon="3.98415">
        <ele>964.13</ele>
        <time>2022-03-21T09:55:50Z</time>
      </trkpt>
      <trkpt lat="44.92649" lon="3.98404">
        <ele>964.47</ele>
        <time>2022-03-21T09:55:52Z</time>
      </trkpt>
      <trkpt lat="44.92645" lon="3.98392">
        <ele>964.82</ele>
        <time>2022-03-21T09:55:55Z</time>
      </trkpt>
      <trkpt lat="44.92648" lon="3.98374">
        <ele>965.92</ele>
        <time>2022-03-21T09:55:57Z</time>
      </trkpt>
      <trkpt lat="44.92698" lon="3.9825">
        <ele>974.61</ele>
        <time>2022-03-21T09:55:59Z</time>
      </trkpt>
      <trkpt lat="44.92721" lon="3.98187">
        <ele>974.33</ele>
        <time>2022-03-21T09:56:01Z</time>
      </trkpt>
      <trkpt lat="44.92732" lon="3.98149">
        <ele>977.3</ele>
        <time>2022-03-21T09:56:04Z</time>
      </trkpt>
      <trkpt lat="44.92745" lon="3.98123">
        <ele>977.74</ele>
        <time>2022-03-21T09:56:06Z</time>
      </trkpt>
      <trkpt lat="44.92771" lon="3.98092">
        <ele>976.63</ele>
        <time>2022-03-21T09:56:08Z</time>
      </trkpt>
      <trkpt lat="44.92781" lon="3.98076">
        <ele>976.33</ele>
        <time>2022-03-21T09:56:11Z</time>
      </trkpt>
      <trkpt lat="44.92786" lon="3.98056">
        <ele>977.58</ele>
        <time>2022-03-21T09:56:13Z</time>
      </trkpt>
      <trkpt lat="44.92786" lon="3.98036">
        <ele>978.68</ele>
        <time>2022-03-21T09:56:15Z</time>
      </trkpt>
      <trkpt lat="44.92785" lon="3.98022">
        <ele>979.28</ele>
        <time>2022-03-21T09:56:17Z</time>
      </trkpt>
      <trkpt lat="44.92779" lon="3.98005">
        <ele>979.22</ele>
        <time>2022-03-21T09:56:20Z</time>
      </trkpt>
      <trkpt lat="44.92765" lon="3.97985">
        <ele>979.79</ele>
        <time>2022-03-21T09:56:22Z</time>
      </trkpt>
      <trkpt lat="44.92653" lon="3.97847">
        <ele>987.5</ele>
        <time>2022-03-21T09:56:24Z</time>
      </trkpt>
      <trkpt lat="44.92577" lon="3.97737">
        <ele>995.64</ele>
        <time>2022-03-21T09:56:26Z</time>
      </trkpt>
      <trkpt lat="44.92562" lon="3.97718">
        <ele>996.31</ele>
        <time>2022-03-21T09:56:29Z</time>
      </trkpt>
      <trkpt lat="44.92535" lon="3.97676">
        <ele>999.9</ele>
        <time>2022-03-21T09:56:31Z</time>
      </trkpt>
      <trkpt lat="44.92529" lon="3.97663">
        <ele>1001.15</ele>
        <time>2022-03-21T09:56:33Z</time>
      </trkpt>
      <trkpt lat="44.9252" lon="3.97633">
        <ele>1003.36</ele>
        <time>2022-03-21T09:56:35Z</time>
      </trkpt>
      <trkpt lat="44.92517" lon="3.97602">
        <ele>1004.13</ele>
        <time>2022-03-21T09:56:38Z</time>
      </trkpt>
      <trkpt lat="44.92519" lon="3.97582">
        <ele>1004.75</ele>
        <time>2022-03-21T09:56:40Z</time>
      </trkpt>
      <trkpt lat="44.92527" lon="3.97558">
        <ele>1005.9</ele>
        <time>2022-03-21T09:56:42Z</time>
      </trkpt>
      <trkpt lat="44.92597" lon="3.97431">
        <ele>1005.75</ele>
        <time>2022-03-21T09:56:45Z</time>
      </trkpt>
      <trkpt lat="44.92616" lon="3.97386">
        <ele>1003.65</ele>
        <time>2022-03-21T09:56:47Z</time>
      </trkpt>
      <trkpt lat="44.92622" lon="3.97363">
        <ele>1002.8</ele>
        <time>2022-03-21T09:56:49Z</time>
      </trkpt>
      <trkpt lat="44.92629" lon="3.97323">
        <ele>1002.07</ele>
        <time>2022-03-21T09:56:51Z</time>
      </trkpt>
      <trkpt lat="44.92634" lon="3.97274">
        <ele>1000.02</ele>
        <time>2022-03-21T09:56:54Z</time>
      </trkpt>
      <trkpt lat="44.92634" lon="3.97234">
        <ele>1001.32</ele>
        <time>2022-03-21T09:56:56Z</time>
      </trkpt>
      <trkpt lat="44.9263" lon="3.97196">
        <ele>1002.61</ele>
        <time>2022-03-21T09:56:58Z</time>
      </trkpt>
      <trkpt lat="44.92612" lon="3.97113">
        <ele>1008.79</ele>
        <time>2022-03-21T09:57:00Z</time>
      </trkpt>
      <trkpt lat="44.92578" lon="3.96972">
        <ele>1009.12</ele>
        <time>2022-03-21T09:57:03Z</time>
      </trkpt>
      <trkpt lat="44.92578" lon="3.96972">
        <ele>1009.12</ele>
        <time>2022-03-21T09:57:03Z</time>
      </trkpt>
      <trkpt lat="44.92571" lon="3.96955">
        <ele>1008.36</ele>
        <time>2022-03-21T09:57:05Z</time>
      </trkpt>
      <trkpt lat="44.9256" lon="3.96943">
        <ele>1007.96</ele>
        <time>2022-03-21T09:57:07Z</time>
      </trkpt>
      <trkpt lat="44.92549" lon="3.96937">
        <ele>1007.78</ele>
        <time>2022-03-21T09:57:09Z</time>
      </trkpt>
      <trkpt lat="44.92533" lon="3.96936">
        <ele>1008.27</ele>
        <time>2022-03-21T09:57:11Z</time>
      </trkpt>
      <trkpt lat="44.92509" lon="3.96942">
        <ele>1008.8</ele>
        <time>2022-03-21T09:57:14Z</time>
      </trkpt>
      <trkpt lat="44.92338" lon="3.96997">
        <ele>1012.86</ele>
        <time>2022-03-21T09:57:16Z</time>
      </trkpt>
      <trkpt lat="44.92318" lon="3.96998">
        <ele>1013.27</ele>
        <time>2022-03-21T09:57:18Z</time>
      </trkpt>
      <trkpt lat="44.92298" lon="3.96994">
        <ele>1013.5</ele>
        <time>2022-03-21T09:57:20Z</time>
      </trkpt>
      <trkpt lat="44.92282" lon="3.96985">
        <ele>1013.56</ele>
        <time>2022-03-21T09:57:22Z</time>
      </trkpt>
      <trkpt lat="44.92268" lon="3.96973">
        <ele>1014.38</ele>
        <time>2022-03-21T09:57:24Z</time>
      </trkpt>
      <trkpt lat="44.92255" lon="3.96955">
        <ele>1015.36</ele>
        <time>2022-03-21T09:57:27Z</time>
      </trkpt>
      <trkpt lat="44.92242" lon="3.96929">
        <ele>1015.59</ele>
        <time>2022-03-21T09:57:29Z</time>
      </trkpt>
      <trkpt lat="44.92225" lon="3.96876">
        <ele>1015.13</ele>
        <time>2022-03-21T09:57:31Z</time>
      </trkpt>
      <trkpt lat="44.92215" lon="3.96825">
        <ele>1015.26</ele>
        <time>2022-03-21T09:57:33Z</time>
      </trkpt>
      <trkpt lat="44.92202" lon="3.9674">
        <ele>1017.3</ele>
        <time>2022-03-21T09:57:35Z</time>
      </trkpt>
      <trkpt lat="44.92194" lon="3.9671">
        <ele>1016.8</ele>
        <time>2022-03-21T09:57:37Z</time>
      </trkpt>
      <trkpt lat="44.92187" lon="3.96691">
        <ele>1017.17</ele>
        <time>2022-03-21T09:57:40Z</time>
      </trkpt>
      <trkpt lat="44.92173" lon="3.96667">
        <ele>1018.35</ele>
        <time>2022-03-21T09:57:42Z</time>
      </trkpt>
      <trkpt lat="44.9216" lon="3.96648">
        <ele>1020.34</ele>
        <time>2022-03-21T09:57:44Z</time>
      </trkpt>
      <trkpt lat="44.92097" lon="3.96601">
        <ele>1021.4</ele>
        <time>2022-03-21T09:57:46Z</time>
      </trkpt>
      <trkpt lat="44.9209" lon="3.96586">
        <ele>1019.31</ele>
        <time>2022-03-21T09:57:48Z</time>
      </trkpt>
      <trkpt lat="44.92024" lon="3.96498">
        <ele>1016.97</ele>
        <time>2022-03-21T09:57:50Z</time>
      </trkpt>
      <trkpt lat="44.91999" lon="3.9645">
        <ele>1014.43</ele>
        <time>2022-03-21T09:57:52Z</time>
      </trkpt>
      <trkpt lat="44.91951" lon="3.9634">
        <ele>1012.25</ele>
        <time>2022-03-21T09:57:54Z</time>
      </trkpt>
      <trkpt lat="44.91945" lon="3.96319">
        <ele>1011.99</ele>
        <time>2022-03-21T09:57:56Z</time>
      </trkpt>
      <trkpt lat="44.91941" lon="3.96292">
        <ele>1011.57</ele>
        <time>2022-03-21T09:57:58Z</time>
      </trkpt>
      <trkpt lat="44.91938" lon="3.96226">
        <ele>1010.35</ele>
        <time>2022-03-21T09:57:59Z</time>
      </trkpt>
      <trkpt lat="44.91933" lon="3.962">
        <ele>1011.63</ele>
        <time>2022-03-21T09:58:01Z</time>
      </trkpt>
      <trkpt lat="44.91912" lon="3.96121">
        <ele>1008.27</ele>
        <time>2022-03-21T09:58:03Z</time>
      </trkpt>
      <trkpt lat="44.91902" lon="3.96089">
        <ele>1006.32</ele>
        <time>2022-03-21T09:58:05Z</time>
      </trkpt>
      <trkpt lat="44.91867" lon="3.96005">
        <ele>1005.19</ele>
        <time>2022-03-21T09:58:07Z</time>
      </trkpt>
      <trkpt lat="44.9186" lon="3.9598">
        <ele>1003.66</ele>
        <time>2022-03-21T09:58:09Z</time>
      </trkpt>
      <trkpt lat="44.91852" lon="3.95926">
        <ele>1003.4</ele>
        <time>2022-03-21T09:58:11Z</time>
      </trkpt>
      <trkpt lat="44.91845" lon="3.95898">
        <ele>1003.46</ele>
        <time>2022-03-21T09:58:13Z</time>
      </trkpt>
      <trkpt lat="44.91826" lon="3.95856">
        <ele>1003.02</ele>
        <time>2022-03-21T09:58:15Z</time>
      </trkpt>
      <trkpt lat="44.91738" lon="3.95675">
        <ele>997.62</ele>
        <time>2022-03-21T09:58:17Z</time>
      </trkpt>
      <trkpt lat="44.91719" lon="3.95646">
        <ele>995.79</ele>
        <time>2022-03-21T09:58:18Z</time>
      </trkpt>
      <trkpt lat="44.91671" lon="3.95611">
        <ele>993.99</ele>
        <time>2022-03-21T09:58:20Z</time>
      </trkpt>
      <trkpt lat="44.91609" lon="3.95581">
        <ele>991.74</ele>
        <time>2022-03-21T09:58:22Z</time>
      </trkpt>
      <trkpt lat="44.91596" lon="3.95571">
        <ele>990.57</ele>
        <time>2022-03-21T09:58:24Z</time>
      </trkpt>
      <trkpt lat="44.91588" lon="3.95561">
        <ele>989.52</ele>
        <time>2022-03-21T09:58:26Z</time>
      </trkpt>
      <trkpt lat="44.91555" lon="3.95497">
        <ele>985.79</ele>
        <time>2022-03-21T09:58:28Z</time>
      </trkpt>
      <trkpt lat="44.9155" lon="3.95478">
        <ele>984.6</ele>
        <time>2022-03-21T09:58:30Z</time>
      </trkpt>
      <trkpt lat="44.91549" lon="3.95425">
        <ele>982.52</ele>
        <time>2022-03-21T09:58:32Z</time>
      </trkpt>
      <trkpt lat="44.91535" lon="3.95318">
        <ele>977.46</ele>
        <time>2022-03-21T09:58:34Z</time>
      </trkpt>
      <trkpt lat="44.91528" lon="3.95301">
        <ele>976.7</ele>
        <time>2022-03-21T09:58:36Z</time>
      </trkpt>
      <trkpt lat="44.91513" lon="3.95288">
        <ele>975.93</ele>
        <time>2022-03-21T09:58:38Z</time>
      </trkpt>
      <trkpt lat="44.91498" lon="3.95282">
        <ele>975.37</ele>
        <time>2022-03-21T09:58:39Z</time>
      </trkpt>
      <trkpt lat="44.91478" lon="3.95284">
        <ele>974.25</ele>
        <time>2022-03-21T09:58:41Z</time>
      </trkpt>
      <trkpt lat="44.91443" lon="3.95303">
        <ele>975.51</ele>
        <time>2022-03-21T09:58:43Z</time>
      </trkpt>
      <trkpt lat="44.91428" lon="3.95307">
        <ele>975.56</ele>
        <time>2022-03-21T09:58:45Z</time>
      </trkpt>
      <trkpt lat="44.91415" lon="3.95304">
        <ele>974.85</ele>
        <time>2022-03-21T09:58:47Z</time>
      </trkpt>
      <trkpt lat="44.91371" lon="3.95267">
        <ele>972.15</ele>
        <time>2022-03-21T09:58:49Z</time>
      </trkpt>
      <trkpt lat="44.91363" lon="3.95257">
        <ele>971.62</ele>
        <time>2022-03-21T09:58:51Z</time>
      </trkpt>
      <trkpt lat="44.91358" lon="3.95244">
        <ele>971.67</ele>
        <time>2022-03-21T09:58:53Z</time>
      </trkpt>
      <trkpt lat="44.91357" lon="3.95229">
        <ele>972.31</ele>
        <time>2022-03-21T09:58:55Z</time>
      </trkpt>
      <trkpt lat="44.9136" lon="3.95215">
        <ele>972.34</ele>
        <time>2022-03-21T09:58:57Z</time>
      </trkpt>
      <trkpt lat="44.91366" lon="3.95206">
        <ele>971.99</ele>
        <time>2022-03-21T09:58:58Z</time>
      </trkpt>
      <trkpt lat="44.91398" lon="3.95189">
        <ele>970.25</ele>
        <time>2022-03-21T09:59:00Z</time>
      </trkpt>
      <trkpt lat="44.91413" lon="3.95178">
        <ele>971.2</ele>
        <time>2022-03-21T09:59:02Z</time>
      </trkpt>
      <trkpt lat="44.91476" lon="3.95102">
        <ele>968.98</ele>
        <time>2022-03-21T09:59:04Z</time>
      </trkpt>
      <trkpt lat="44.91513" lon="3.95043">
        <ele>966.58</ele>
        <time>2022-03-21T09:59:06Z</time>
      </trkpt>
      <trkpt lat="44.9153" lon="3.95012">
        <ele>965.46</ele>
        <time>2022-03-21T09:59:08Z</time>
      </trkpt>
      <trkpt lat="44.91541" lon="3.94987">
        <ele>965.99</ele>
        <time>2022-03-21T09:59:10Z</time>
      </trkpt>
      <trkpt lat="44.9155" lon="3.94958">
        <ele>966.19</ele>
        <time>2022-03-21T09:59:12Z</time>
      </trkpt>
      <trkpt lat="44.91556" lon="3.9493">
        <ele>965.4</ele>
        <time>2022-03-21T09:59:14Z</time>
      </trkpt>
      <trkpt lat="44.9156" lon="3.94901">
        <ele>964.53</ele>
        <time>2022-03-21T09:59:16Z</time>
      </trkpt>
      <trkpt lat="44.9156" lon="3.94876">
        <ele>964.61</ele>
        <time>2022-03-21T09:59:17Z</time>
      </trkpt>
      <trkpt lat="44.91553" lon="3.94805">
        <ele>965.28</ele>
        <time>2022-03-21T09:59:19Z</time>
      </trkpt>
      <trkpt lat="44.91545" lon="3.94676">
        <ele>961.33</ele>
        <time>2022-03-21T09:59:21Z</time>
      </trkpt>
      <trkpt lat="44.91542" lon="3.94658">
        <ele>960.84</ele>
        <time>2022-03-21T09:59:23Z</time>
      </trkpt>
      <trkpt lat="44.91539" lon="3.94649">
        <ele>960.74</ele>
        <time>2022-03-21T09:59:25Z</time>
      </trkpt>
      <trkpt lat="44.91527" lon="3.94628">
        <ele>960.66</ele>
        <time>2022-03-21T09:59:27Z</time>
      </trkpt>
      <trkpt lat="44.91455" lon="3.94538">
        <ele>963.63</ele>
        <time>2022-03-21T09:59:29Z</time>
      </trkpt>
      <trkpt lat="44.91409" lon="3.94493">
        <ele>965.75</ele>
        <time>2022-03-21T09:59:31Z</time>
      </trkpt>
      <trkpt lat="44.91371" lon="3.94435">
        <ele>966.89</ele>
        <time>2022-03-21T09:59:33Z</time>
      </trkpt>
      <trkpt lat="44.91359" lon="3.94414">
        <ele>967.04</ele>
        <time>2022-03-21T09:59:35Z</time>
      </trkpt>
      <trkpt lat="44.9135" lon="3.94393">
        <ele>966.98</ele>
        <time>2022-03-21T09:59:36Z</time>
      </trkpt>
      <trkpt lat="44.91332" lon="3.94336">
        <ele>968.98</ele>
        <time>2022-03-21T09:59:38Z</time>
      </trkpt>
      <trkpt lat="44.91325" lon="3.94318">
        <ele>969.59</ele>
        <time>2022-03-21T09:59:40Z</time>
      </trkpt>
      <trkpt lat="44.91315" lon="3.94303">
        <ele>970.37</ele>
        <time>2022-03-21T09:59:42Z</time>
      </trkpt>
      <trkpt lat="44.91267" lon="3.9425">
        <ele>975.21</ele>
        <time>2022-03-21T09:59:44Z</time>
      </trkpt>
      <trkpt lat="44.91234" lon="3.94196">
        <ele>977.96</ele>
        <time>2022-03-21T09:59:46Z</time>
      </trkpt>
      <trkpt lat="44.91142" lon="3.94071">
        <ele>989.7</ele>
        <time>2022-03-21T09:59:48Z</time>
      </trkpt>
      <trkpt lat="44.91127" lon="3.94049">
        <ele>990.58</ele>
        <time>2022-03-21T09:59:50Z</time>
      </trkpt>
      <trkpt lat="44.91105" lon="3.94002">
        <ele>990.98</ele>
        <time>2022-03-21T09:59:52Z</time>
      </trkpt>
      <trkpt lat="44.91095" lon="3.93991">
        <ele>991.84</ele>
        <time>2022-03-21T09:59:54Z</time>
      </trkpt>
      <trkpt lat="44.91056" lon="3.93965">
        <ele>993.45</ele>
        <time>2022-03-21T09:59:55Z</time>
      </trkpt>
      <trkpt lat="44.91044" lon="3.93952">
        <ele>993.37</ele>
        <time>2022-03-21T09:59:57Z</time>
      </trkpt>
      <trkpt lat="44.91035" lon="3.93934">
        <ele>993.14</ele>
        <time>2022-03-21T09:59:59Z</time>
      </trkpt>
      <trkpt lat="44.9099" lon="3.93789">
        <ele>989.34</ele>
        <time>2022-03-21T10:00:01Z</time>
      </trkpt>
      <trkpt lat="44.9098" lon="3.93768">
        <ele>990.26</ele>
        <time>2022-03-21T10:00:03Z</time>
      </trkpt>
      <trkpt lat="44.90899" lon="3.93629">
        <ele>997.44</ele>
        <time>2022-03-21T10:00:05Z</time>
      </trkpt>
      <trkpt lat="44.90886" lon="3.93614">
        <ele>998.47</ele>
        <time>2022-03-21T10:00:07Z</time>
      </trkpt>
      <trkpt lat="44.90798" lon="3.93563">
        <ele>1001.97</ele>
        <time>2022-03-21T10:00:09Z</time>
      </trkpt>
      <trkpt lat="44.90781" lon="3.93551">
        <ele>1002.49</ele>
        <time>2022-03-21T10:00:11Z</time>
      </trkpt>
      <trkpt lat="44.90758" lon="3.93527">
        <ele>1002.35</ele>
        <time>2022-03-21T10:00:13Z</time>
      </trkpt>
      <trkpt lat="44.9074" lon="3.93504">
        <ele>1002.49</ele>
        <time>2022-03-21T10:00:14Z</time>
      </trkpt>
      <trkpt lat="44.9071" lon="3.93455">
        <ele>1001.22</ele>
        <time>2022-03-21T10:00:16Z</time>
      </trkpt>
      <trkpt lat="44.907" lon="3.93445">
        <ele>1000.82</ele>
        <time>2022-03-21T10:00:18Z</time>
      </trkpt>
      <trkpt lat="44.90672" lon="3.93427">
        <ele>1001.36</ele>
        <time>2022-03-21T10:00:20Z</time>
      </trkpt>
      <trkpt lat="44.90625" lon="3.93386">
        <ele>999.81</ele>
        <time>2022-03-21T10:00:22Z</time>
      </trkpt>
      <trkpt lat="44.90615" lon="3.93379">
        <ele>999.35</ele>
        <time>2022-03-21T10:00:24Z</time>
      </trkpt>
      <trkpt lat="44.90601" lon="3.93376">
        <ele>998.69</ele>
        <time>2022-03-21T10:00:26Z</time>
      </trkpt>
      <trkpt lat="44.90579" lon="3.9338">
        <ele>998.32</ele>
        <time>2022-03-21T10:00:28Z</time>
      </trkpt>
      <trkpt lat="44.90544" lon="3.93392">
        <ele>998.71</ele>
        <time>2022-03-21T10:00:30Z</time>
      </trkpt>
      <trkpt lat="44.90529" lon="3.93398">
        <ele>998.7</ele>
        <time>2022-03-21T10:00:32Z</time>
      </trkpt>
      <trkpt lat="44.90505" lon="3.93413">
        <ele>998.07</ele>
        <time>2022-03-21T10:00:33Z</time>
      </trkpt>
      <trkpt lat="44.90499" lon="3.93415">
        <ele>997.92</ele>
        <time>2022-03-21T10:00:35Z</time>
      </trkpt>
      <trkpt lat="44.90492" lon="3.93415">
        <ele>998.15</ele>
        <time>2022-03-21T10:00:37Z</time>
      </trkpt>
      <trkpt lat="44.90485" lon="3.93409">
        <ele>997.96</ele>
        <time>2022-03-21T10:00:39Z</time>
      </trkpt>
      <trkpt lat="44.9048" lon="3.93398">
        <ele>997.4</ele>
        <time>2022-03-21T10:00:41Z</time>
      </trkpt>
      <trkpt lat="44.90466" lon="3.93355">
        <ele>993.78</ele>
        <time>2022-03-21T10:00:43Z</time>
      </trkpt>
      <trkpt lat="44.90456" lon="3.93331">
        <ele>992.08</ele>
        <time>2022-03-21T10:00:45Z</time>
      </trkpt>
      <trkpt lat="44.90444" lon="3.933">
        <ele>990.36</ele>
        <time>2022-03-21T10:00:47Z</time>
      </trkpt>
      <trkpt lat="44.90435" lon="3.93267">
        <ele>988.79</ele>
        <time>2022-03-21T10:00:49Z</time>
      </trkpt>
      <trkpt lat="44.90429" lon="3.93224">
        <ele>984.52</ele>
        <time>2022-03-21T10:00:51Z</time>
      </trkpt>
      <trkpt lat="44.90431" lon="3.93208">
        <ele>982.64</ele>
        <time>2022-03-21T10:00:52Z</time>
      </trkpt>
      <trkpt lat="44.90442" lon="3.93176">
        <ele>979.71</ele>
        <time>2022-03-21T10:00:54Z</time>
      </trkpt>
      <trkpt lat="44.90449" lon="3.93116">
        <ele>976.78</ele>
        <time>2022-03-21T10:00:56Z</time>
      </trkpt>
      <trkpt lat="44.90447" lon="3.931">
        <ele>976.82</ele>
        <time>2022-03-21T10:00:58Z</time>
      </trkpt>
      <trkpt lat="44.90443" lon="3.93087">
        <ele>977.35</ele>
        <time>2022-03-21T10:01:00Z</time>
      </trkpt>
      <trkpt lat="44.90415" lon="3.93016">
        <ele>977.85</ele>
        <time>2022-03-21T10:01:02Z</time>
      </trkpt>
      <trkpt lat="44.9039" lon="3.92942">
        <ele>975.64</ele>
        <time>2022-03-21T10:01:04Z</time>
      </trkpt>
      <trkpt lat="44.90378" lon="3.92918">
        <ele>974.11</ele>
        <time>2022-03-21T10:01:06Z</time>
      </trkpt>
      <trkpt lat="44.90338" lon="3.92877">
        <ele>971.99</ele>
        <time>2022-03-21T10:01:08Z</time>
      </trkpt>
      <trkpt lat="44.90327" lon="3.92857">
        <ele>971.32</ele>
        <time>2022-03-21T10:01:10Z</time>
      </trkpt>
      <trkpt lat="44.90318" lon="3.92833">
        <ele>968.6</ele>
        <time>2022-03-21T10:01:11Z</time>
      </trkpt>
      <trkpt lat="44.90303" lon="3.9281">
        <ele>965.21</ele>
        <time>2022-03-21T10:01:13Z</time>
      </trkpt>
      <trkpt lat="44.90234" lon="3.9274">
        <ele>957.4</ele>
        <time>2022-03-21T10:01:15Z</time>
      </trkpt>
      <trkpt lat="44.90206" lon="3.92718">
        <ele>956.39</ele>
        <time>2022-03-21T10:01:17Z</time>
      </trkpt>
      <trkpt lat="44.9013" lon="3.92679">
        <ele>954.6</ele>
        <time>2022-03-21T10:01:19Z</time>
      </trkpt>
      <trkpt lat="44.90113" lon="3.92663">
        <ele>953.13</ele>
        <time>2022-03-21T10:01:21Z</time>
      </trkpt>
      <trkpt lat="44.90094" lon="3.92634">
        <ele>949.52</ele>
        <time>2022-03-21T10:01:23Z</time>
      </trkpt>
      <trkpt lat="44.90064" lon="3.92578">
        <ele>944.22</ele>
        <time>2022-03-21T10:01:25Z</time>
      </trkpt>
      <trkpt lat="44.90055" lon="3.92555">
        <ele>941.99</ele>
        <time>2022-03-21T10:01:27Z</time>
      </trkpt>
      <trkpt lat="44.90047" lon="3.92502">
        <ele>942.91</ele>
        <time>2022-03-21T10:01:29Z</time>
      </trkpt>
      <trkpt lat="44.90044" lon="3.9247">
        <ele>942.84</ele>
        <time>2022-03-21T10:01:30Z</time>
      </trkpt>
      <trkpt lat="44.90046" lon="3.92445">
        <ele>941.02</ele>
        <time>2022-03-21T10:01:32Z</time>
      </trkpt>
      <trkpt lat="44.90059" lon="3.92367">
        <ele>931.69</ele>
        <time>2022-03-21T10:01:34Z</time>
      </trkpt>
      <trkpt lat="44.90065" lon="3.92348">
        <ele>930.64</ele>
        <time>2022-03-21T10:01:36Z</time>
      </trkpt>
      <trkpt lat="44.90074" lon="3.92333">
        <ele>929.38</ele>
        <time>2022-03-21T10:01:38Z</time>
      </trkpt>
      <trkpt lat="44.90104" lon="3.92293">
        <ele>923.64</ele>
        <time>2022-03-21T10:01:40Z</time>
      </trkpt>
      <trkpt lat="44.90114" lon="3.92263">
        <ele>921.83</ele>
        <time>2022-03-21T10:01:42Z</time>
      </trkpt>
      <trkpt lat="44.90118" lon="3.92244">
        <ele>921.92</ele>
        <time>2022-03-21T10:01:44Z</time>
      </trkpt>
      <trkpt lat="44.90118" lon="3.92224">
        <ele>922.44</ele>
        <time>2022-03-21T10:01:46Z</time>
      </trkpt>
      <trkpt lat="44.90109" lon="3.92177">
        <ele>922.08</ele>
        <time>2022-03-21T10:01:48Z</time>
      </trkpt>
      <trkpt lat="44.90098" lon="3.92149">
        <ele>920.07</ele>
        <time>2022-03-21T10:01:50Z</time>
      </trkpt>
      <trkpt lat="44.90055" lon="3.92085">
        <ele>912.4</ele>
        <time>2022-03-21T10:01:51Z</time>
      </trkpt>
      <trkpt lat="44.90055" lon="3.92085">
        <ele>912.4</ele>
        <time>2022-03-21T10:01:51Z</time>
      </trkpt>
      <trkpt lat="44.90047" lon="3.92078">
        <ele>911.23</ele>
        <time>2022-03-21T10:01:53Z</time>
      </trkpt>
      <trkpt lat="44.90036" lon="3.92078">
        <ele>910.21</ele>
        <time>2022-03-21T10:01:54Z</time>
      </trkpt>
      <trkpt lat="44.90024" lon="3.92086">
        <ele>911.18</ele>
        <time>2022-03-21T10:01:56Z</time>
      </trkpt>
      <trkpt lat="44.89992" lon="3.92125">
        <ele>910.93</ele>
        <time>2022-03-21T10:01:57Z</time>
      </trkpt>
      <trkpt lat="44.89968" lon="3.92147">
        <ele>911.01</ele>
        <time>2022-03-21T10:01:59Z</time>
      </trkpt>
      <trkpt lat="44.8993" lon="3.92175">
        <ele>911.52</ele>
        <time>2022-03-21T10:02:00Z</time>
      </trkpt>
      <trkpt lat="44.89861" lon="3.92192">
        <ele>907.87</ele>
        <time>2022-03-21T10:02:02Z</time>
      </trkpt>
      <trkpt lat="44.89819" lon="3.9219">
        <ele>897.63</ele>
        <time>2022-03-21T10:02:03Z</time>
      </trkpt>
      <trkpt lat="44.89798" lon="3.92193">
        <ele>893.28</ele>
        <time>2022-03-21T10:02:04Z</time>
      </trkpt>
      <trkpt lat="44.89778" lon="3.92204">
        <ele>889.57</ele>
        <time>2022-03-21T10:02:06Z</time>
      </trkpt>
      <trkpt lat="44.89753" lon="3.92225">
        <ele>887.95</ele>
        <time>2022-03-21T10:02:07Z</time>
      </trkpt>
      <trkpt lat="44.89729" lon="3.92263">
        <ele>886.14</ele>
        <time>2022-03-21T10:02:09Z</time>
      </trkpt>
      <trkpt lat="44.89713" lon="3.92298">
        <ele>885.02</ele>
        <time>2022-03-21T10:02:10Z</time>
      </trkpt>
      <trkpt lat="44.89708" lon="3.92316">
        <ele>884.59</ele>
        <time>2022-03-21T10:02:12Z</time>
      </trkpt>
      <trkpt lat="44.89706" lon="3.92357">
        <ele>886.24</ele>
        <time>2022-03-21T10:02:13Z</time>
      </trkpt>
      <trkpt lat="44.89699" lon="3.92376">
        <ele>885.8</ele>
        <time>2022-03-21T10:02:15Z</time>
      </trkpt>
      <trkpt lat="44.89624" lon="3.92471">
        <ele>878.46</ele>
        <time>2022-03-21T10:02:16Z</time>
      </trkpt>
      <trkpt lat="44.8961" lon="3.92486">
        <ele>878.74</ele>
        <time>2022-03-21T10:02:17Z</time>
      </trkpt>
      <trkpt lat="44.89598" lon="3.92493">
        <ele>878.18</ele>
        <time>2022-03-21T10:02:19Z</time>
      </trkpt>
      <trkpt lat="44.89586" lon="3.92493">
        <ele>875.67</ele>
        <time>2022-03-21T10:02:20Z</time>
      </trkpt>
      <trkpt lat="44.89571" lon="3.92485">
        <ele>870.71</ele>
        <time>2022-03-21T10:02:22Z</time>
      </trkpt>
      <trkpt lat="44.89547" lon="3.92486">
        <ele>868.65</ele>
        <time>2022-03-21T10:02:23Z</time>
      </trkpt>
      <trkpt lat="44.89533" lon="3.92484">
        <ele>869.15</ele>
        <time>2022-03-21T10:02:25Z</time>
      </trkpt>
      <trkpt lat="44.8952" lon="3.92474">
        <ele>868.49</ele>
        <time>2022-03-21T10:02:26Z</time>
      </trkpt>
      <trkpt lat="44.89512" lon="3.92463">
        <ele>867.72</ele>
        <time>2022-03-21T10:02:28Z</time>
      </trkpt>
      <trkpt lat="44.89501" lon="3.92455">
        <ele>867.69</ele>
        <time>2022-03-21T10:02:29Z</time>
      </trkpt>
      <trkpt lat="44.89488" lon="3.92435">
        <ele>867.12</ele>
        <time>2022-03-21T10:02:30Z</time>
      </trkpt>
      <trkpt lat="44.89474" lon="3.92398">
        <ele>860.32</ele>
        <time>2022-03-21T10:02:32Z</time>
      </trkpt>
      <trkpt lat="44.89462" lon="3.92379">
        <ele>856.43</ele>
        <time>2022-03-21T10:02:33Z</time>
      </trkpt>
      <trkpt lat="44.89432" lon="3.92362">
        <ele>854.7</ele>
        <time>2022-03-21T10:02:35Z</time>
      </trkpt>
      <trkpt lat="44.8942" lon="3.92351">
        <ele>853.74</ele>
        <time>2022-03-21T10:02:36Z</time>
      </trkpt>
      <trkpt lat="44.89414" lon="3.92335">
        <ele>852.08</ele>
        <time>2022-03-21T10:02:38Z</time>
      </trkpt>
      <trkpt lat="44.89402" lon="3.92287">
        <ele>847.46</ele>
        <time>2022-03-21T10:02:39Z</time>
      </trkpt>
      <trkpt lat="44.89398" lon="3.92276">
        <ele>846.15</ele>
        <time>2022-03-21T10:02:41Z</time>
      </trkpt>
      <trkpt lat="44.89392" lon="3.92266">
        <ele>845.22</ele>
        <time>2022-03-21T10:02:42Z</time>
      </trkpt>
      <trkpt lat="44.89386" lon="3.92259">
        <ele>844.23</ele>
        <time>2022-03-21T10:02:43Z</time>
      </trkpt>
      <trkpt lat="44.8936" lon="3.92248">
        <ele>841.52</ele>
        <time>2022-03-21T10:02:45Z</time>
      </trkpt>
      <trkpt lat="44.89342" lon="3.92246">
        <ele>838.47</ele>
        <time>2022-03-21T10:02:46Z</time>
      </trkpt>
      <trkpt lat="44.89326" lon="3.92249">
        <ele>835.92</ele>
        <time>2022-03-21T10:02:48Z</time>
      </trkpt>
      <trkpt lat="44.89313" lon="3.92259">
        <ele>834.78</ele>
        <time>2022-03-21T10:02:49Z</time>
      </trkpt>
      <trkpt lat="44.89306" lon="3.92269">
        <ele>835.11</ele>
        <time>2022-03-21T10:02:51Z</time>
      </trkpt>
      <trkpt lat="44.89216" lon="3.92402">
        <ele>828.4</ele>
        <time>2022-03-21T10:02:52Z</time>
      </trkpt>
      <trkpt lat="44.89175" lon="3.92481">
        <ele>823.11</ele>
        <time>2022-03-21T10:02:54Z</time>
      </trkpt>
      <trkpt lat="44.89158" lon="3.92505">
        <ele>819.43</ele>
        <time>2022-03-21T10:02:55Z</time>
      </trkpt>
      <trkpt lat="44.89146" lon="3.92527">
        <ele>818.03</ele>
        <time>2022-03-21T10:02:56Z</time>
      </trkpt>
      <trkpt lat="44.89141" lon="3.92569">
        <ele>822.98</ele>
        <time>2022-03-21T10:02:58Z</time>
      </trkpt>
      <trkpt lat="44.89137" lon="3.9258">
        <ele>822.88</ele>
        <time>2022-03-21T10:02:59Z</time>
      </trkpt>
      <trkpt lat="44.89113" lon="3.92599">
        <ele>817.81</ele>
        <time>2022-03-21T10:03:01Z</time>
      </trkpt>
      <trkpt lat="44.8909" lon="3.92623">
        <ele>813.77</ele>
        <time>2022-03-21T10:03:02Z</time>
      </trkpt>
      <trkpt lat="44.89041" lon="3.92683">
        <ele>810.07</ele>
        <time>2022-03-21T10:03:04Z</time>
      </trkpt>
      <trkpt lat="44.89026" lon="3.92696">
        <ele>807.94</ele>
        <time>2022-03-21T10:03:05Z</time>
      </trkpt>
      <trkpt lat="44.89006" lon="3.92711">
        <ele>805.78</ele>
        <time>2022-03-21T10:03:07Z</time>
      </trkpt>
      <trkpt lat="44.88984" lon="3.92739">
        <ele>803.3</ele>
        <time>2022-03-21T10:03:08Z</time>
      </trkpt>
      <trkpt lat="44.88974" lon="3.92756">
        <ele>802.24</ele>
        <time>2022-03-21T10:03:10Z</time>
      </trkpt>
      <trkpt lat="44.8895" lon="3.92803">
        <ele>800.45</ele>
        <time>2022-03-21T10:03:11Z</time>
      </trkpt>
      <trkpt lat="44.88936" lon="3.92808">
        <ele>797.31</ele>
        <time>2022-03-21T10:03:12Z</time>
      </trkpt>
      <trkpt lat="44.88845" lon="3.92811">
        <ele>789.6</ele>
        <time>2022-03-21T10:03:14Z</time>
      </trkpt>
      <trkpt lat="44.88832" lon="3.92799">
        <ele>788.71</ele>
        <time>2022-03-21T10:03:15Z</time>
      </trkpt>
      <trkpt lat="44.88791" lon="3.92886">
        <ele>789.82</ele>
        <time>2022-03-21T10:03:20Z</time>
      </trkpt>
      <trkpt lat="44.88774" lon="3.92932">
        <ele>791.41</ele>
        <time>2022-03-21T10:03:24Z</time>
      </trkpt>
      <trkpt lat="44.88764" lon="3.9295">
        <ele>791.6</ele>
        <time>2022-03-21T10:03:28Z</time>
      </trkpt>
      <trkpt lat="44.88716" lon="3.92987">
        <ele>789.57</ele>
        <time>2022-03-21T10:03:32Z</time>
      </trkpt>
      <trkpt lat="44.88706" lon="3.92996">
        <ele>790.23</ele>
        <time>2022-03-21T10:03:37Z</time>
      </trkpt>
      <trkpt lat="44.88683" lon="3.93002">
        <ele>791.08</ele>
        <time>2022-03-21T10:03:41Z</time>
      </trkpt>
      <trkpt lat="44.88683" lon="3.93002">
        <ele>785.87</ele>
        <time>2022-03-21T10:03:41Z</time>
      </trkpt>
      <trkpt lat="44.88683" lon="3.93002">
        <ele>785.87</ele>
        <time>2022-03-21T10:03:41Z</time>
      </trkpt>
      <trkpt lat="44.88698" lon="3.92693">
        <ele>780.67</ele>
        <time>2022-03-21T10:03:43Z</time>
      </trkpt>
      <trkpt lat="44.88711" lon="3.92464">
        <ele>771.4</ele>
        <time>2022-03-21T10:03:46Z</time>
      </trkpt>
      <trkpt lat="44.88717" lon="3.9243">
        <ele>770.89</ele>
        <time>2022-03-21T10:03:48Z</time>
      </trkpt>
      <trkpt lat="44.88728" lon="3.92394">
        <ele>771.54</ele>
        <time>2022-03-21T10:03:50Z</time>
      </trkpt>
      <trkpt lat="44.88743" lon="3.92365">
        <ele>773.22</ele>
        <time>2022-03-21T10:03:52Z</time>
      </trkpt>
      <trkpt lat="44.88766" lon="3.92334">
        <ele>775.14</ele>
        <time>2022-03-21T10:03:55Z</time>
      </trkpt>
      <trkpt lat="44.88876" lon="3.92247">
        <ele>771.71</ele>
        <time>2022-03-21T10:03:57Z</time>
      </trkpt>
      <trkpt lat="44.88884" lon="3.92239">
        <ele>770.16</ele>
        <time>2022-03-21T10:03:59Z</time>
      </trkpt>
      <trkpt lat="44.88931" lon="3.92198">
        <ele>763.05</ele>
        <time>2022-03-21T10:04:02Z</time>
      </trkpt>
      <trkpt lat="44.88937" lon="3.92195">
        <ele>763</ele>
        <time>2022-03-21T10:04:04Z</time>
      </trkpt>
      <trkpt lat="44.88959" lon="3.92188">
        <ele>765.05</ele>
        <time>2022-03-21T10:04:06Z</time>
      </trkpt>
      <trkpt lat="44.88964" lon="3.92182">
        <ele>766.01</ele>
        <time>2022-03-21T10:04:09Z</time>
      </trkpt>
      <trkpt lat="44.88971" lon="3.92167">
        <ele>767.79</ele>
        <time>2022-03-21T10:04:11Z</time>
      </trkpt>
      <trkpt lat="44.8898" lon="3.92118">
        <ele>772.25</ele>
        <time>2022-03-21T10:04:13Z</time>
      </trkpt>
      <trkpt lat="44.88984" lon="3.92068">
        <ele>779.12</ele>
        <time>2022-03-21T10:04:15Z</time>
      </trkpt>
      <trkpt lat="44.88988" lon="3.92038">
        <ele>783.71</ele>
        <time>2022-03-21T10:04:18Z</time>
      </trkpt>
      <trkpt lat="44.89017" lon="3.91911">
        <ele>791.65</ele>
        <time>2022-03-21T10:04:20Z</time>
      </trkpt>
      <trkpt lat="44.89047" lon="3.91648">
        <ele>794.92</ele>
        <time>2022-03-21T10:04:22Z</time>
      </trkpt>
      <trkpt lat="44.89076" lon="3.91472">
        <ele>808.47</ele>
        <time>2022-03-21T10:04:25Z</time>
      </trkpt>
      <trkpt lat="44.89084" lon="3.9144">
        <ele>812.13</ele>
        <time>2022-03-21T10:04:27Z</time>
      </trkpt>
      <trkpt lat="44.8911" lon="3.91351">
        <ele>816.44</ele>
        <time>2022-03-21T10:04:29Z</time>
      </trkpt>
      <trkpt lat="44.89198" lon="3.91144">
        <ele>834.47</ele>
        <time>2022-03-21T10:04:31Z</time>
      </trkpt>
      <trkpt lat="44.89208" lon="3.91114">
        <ele>836.35</ele>
        <time>2022-03-21T10:04:34Z</time>
      </trkpt>
      <trkpt lat="44.89215" lon="3.91081">
        <ele>840.56</ele>
        <time>2022-03-21T10:04:36Z</time>
      </trkpt>
      <trkpt lat="44.8922" lon="3.91044">
        <ele>843.36</ele>
        <time>2022-03-21T10:04:38Z</time>
      </trkpt>
      <trkpt lat="44.89222" lon="3.90813">
        <ele>858.21</ele>
        <time>2022-03-21T10:04:41Z</time>
      </trkpt>
      <trkpt lat="44.8922" lon="3.90787">
        <ele>859.75</ele>
        <time>2022-03-21T10:04:43Z</time>
      </trkpt>
      <trkpt lat="44.89211" lon="3.90742">
        <ele>856.66</ele>
        <time>2022-03-21T10:04:45Z</time>
      </trkpt>
      <trkpt lat="44.89208" lon="3.90614">
        <ele>864.99</ele>
        <time>2022-03-21T10:04:47Z</time>
      </trkpt>
      <trkpt lat="44.89215" lon="3.90537">
        <ele>872.6</ele>
        <time>2022-03-21T10:04:50Z</time>
      </trkpt>
      <trkpt lat="44.89217" lon="3.90462">
        <ele>878.28</ele>
        <time>2022-03-21T10:04:52Z</time>
      </trkpt>
      <trkpt lat="44.89214" lon="3.9044">
        <ele>877.51</ele>
        <time>2022-03-21T10:04:54Z</time>
      </trkpt>
      <trkpt lat="44.89208" lon="3.90415">
        <ele>874.74</ele>
        <time>2022-03-21T10:04:57Z</time>
      </trkpt>
      <trkpt lat="44.89206" lon="3.90399">
        <ele>874.6</ele>
        <time>2022-03-21T10:04:59Z</time>
      </trkpt>
      <trkpt lat="44.89207" lon="3.90382">
        <ele>875.97</ele>
        <time>2022-03-21T10:05:01Z</time>
      </trkpt>
      <trkpt lat="44.89216" lon="3.90362">
        <ele>879.82</ele>
        <time>2022-03-21T10:05:04Z</time>
      </trkpt>
      <trkpt lat="44.89245" lon="3.90312">
        <ele>888.14</ele>
        <time>2022-03-21T10:05:06Z</time>
      </trkpt>
      <trkpt lat="44.89253" lon="3.90287">
        <ele>891.04</ele>
        <time>2022-03-21T10:05:08Z</time>
      </trkpt>
      <trkpt lat="44.89278" lon="3.9017">
        <ele>900.08</ele>
        <time>2022-03-21T10:05:10Z</time>
      </trkpt>
      <trkpt lat="44.89281" lon="3.90139">
        <ele>902.6</ele>
        <time>2022-03-21T10:05:13Z</time>
      </trkpt>
      <trkpt lat="44.8928" lon="3.90117">
        <ele>903.73</ele>
        <time>2022-03-21T10:05:15Z</time>
      </trkpt>
      <trkpt lat="44.89277" lon="3.90088">
        <ele>904.23</ele>
        <time>2022-03-21T10:05:17Z</time>
      </trkpt>
      <trkpt lat="44.89267" lon="3.90046">
        <ele>906.84</ele>
        <time>2022-03-21T10:05:20Z</time>
      </trkpt>
      <trkpt lat="44.89261" lon="3.90024">
        <ele>908.57</ele>
        <time>2022-03-21T10:05:22Z</time>
      </trkpt>
      <trkpt lat="44.8925" lon="3.90002">
        <ele>909.61</ele>
        <time>2022-03-21T10:05:24Z</time>
      </trkpt>
      <trkpt lat="44.8924" lon="3.89985">
        <ele>912.19</ele>
        <time>2022-03-21T10:05:26Z</time>
      </trkpt>
      <trkpt lat="44.89217" lon="3.89956">
        <ele>916.38</ele>
        <time>2022-03-21T10:05:29Z</time>
      </trkpt>
      <trkpt lat="44.89202" lon="3.8995">
        <ele>919.1</ele>
        <time>2022-03-21T10:05:31Z</time>
      </trkpt>
      <trkpt lat="44.89183" lon="3.89956">
        <ele>919.79</ele>
        <time>2022-03-21T10:05:33Z</time>
      </trkpt>
      <trkpt lat="44.89148" lon="3.89982">
        <ele>915.17</ele>
        <time>2022-03-21T10:05:36Z</time>
      </trkpt>
      <trkpt lat="44.89134" lon="3.89984">
        <ele>914.58</ele>
        <time>2022-03-21T10:05:38Z</time>
      </trkpt>
      <trkpt lat="44.89125" lon="3.89981">
        <ele>915.64</ele>
        <time>2022-03-21T10:05:40Z</time>
      </trkpt>
      <trkpt lat="44.89105" lon="3.89967">
        <ele>920.96</ele>
        <time>2022-03-21T10:05:42Z</time>
      </trkpt>
      <trkpt lat="44.89094" lon="3.89968">
        <ele>920.46</ele>
        <time>2022-03-21T10:05:45Z</time>
      </trkpt>
      <trkpt lat="44.89079" lon="3.89976">
        <ele>917.73</ele>
        <time>2022-03-21T10:05:47Z</time>
      </trkpt>
      <trkpt lat="44.89068" lon="3.89977">
        <ele>917.84</ele>
        <time>2022-03-21T10:05:49Z</time>
      </trkpt>
      <trkpt lat="44.89058" lon="3.89971">
        <ele>920.23</ele>
        <time>2022-03-21T10:05:52Z</time>
      </trkpt>
      <trkpt lat="44.89045" lon="3.89955">
        <ele>921.88</ele>
        <time>2022-03-21T10:05:54Z</time>
      </trkpt>
      <trkpt lat="44.89035" lon="3.89929">
        <ele>925.1</ele>
        <time>2022-03-21T10:05:56Z</time>
      </trkpt>
      <trkpt lat="44.8902" lon="3.89873">
        <ele>927.52</ele>
        <time>2022-03-21T10:05:59Z</time>
      </trkpt>
      <trkpt lat="44.89018" lon="3.89794">
        <ele>936.25</ele>
        <time>2022-03-21T10:06:01Z</time>
      </trkpt>
      <trkpt lat="44.89005" lon="3.89703">
        <ele>942.05</ele>
        <time>2022-03-21T10:06:03Z</time>
      </trkpt>
      <trkpt lat="44.89" lon="3.89674">
        <ele>945.16</ele>
        <time>2022-03-21T10:06:05Z</time>
      </trkpt>
      <trkpt lat="44.88992" lon="3.89652">
        <ele>946.57</ele>
        <time>2022-03-21T10:06:08Z</time>
      </trkpt>
      <trkpt lat="44.88969" lon="3.89618">
        <ele>947.89</ele>
        <time>2022-03-21T10:06:10Z</time>
      </trkpt>
      <trkpt lat="44.88957" lon="3.89591">
        <ele>948.31</ele>
        <time>2022-03-21T10:06:12Z</time>
      </trkpt>
      <trkpt lat="44.88947" lon="3.89545">
        <ele>952.7</ele>
        <time>2022-03-21T10:06:15Z</time>
      </trkpt>
      <trkpt lat="44.88939" lon="3.89523">
        <ele>953.07</ele>
        <time>2022-03-21T10:06:17Z</time>
      </trkpt>
      <trkpt lat="44.88935" lon="3.89504">
        <ele>953.73</ele>
        <time>2022-03-21T10:06:19Z</time>
      </trkpt>
      <trkpt lat="44.88927" lon="3.8942">
        <ele>961.91</ele>
        <time>2022-03-21T10:06:21Z</time>
      </trkpt>
      <trkpt lat="44.88916" lon="3.89384">
        <ele>961.1</ele>
        <time>2022-03-21T10:06:24Z</time>
      </trkpt>
      <trkpt lat="44.88899" lon="3.89342">
        <ele>962.06</ele>
        <time>2022-03-21T10:06:26Z</time>
      </trkpt>
      <trkpt lat="44.88883" lon="3.89313">
        <ele>966.19</ele>
        <time>2022-03-21T10:06:28Z</time>
      </trkpt>
      <trkpt lat="44.88872" lon="3.89297">
        <ele>967.75</ele>
        <time>2022-03-21T10:06:31Z</time>
      </trkpt>
      <trkpt lat="44.88781" lon="3.8921">
        <ele>975.72</ele>
        <time>2022-03-21T10:06:33Z</time>
      </trkpt>
      <trkpt lat="44.88701" lon="3.89162">
        <ele>976.6</ele>
        <time>2022-03-21T10:06:35Z</time>
      </trkpt>
      <trkpt lat="44.88686" lon="3.89145">
        <ele>979.09</ele>
        <time>2022-03-21T10:06:38Z</time>
      </trkpt>
      <trkpt lat="44.88651" lon="3.89072">
        <ele>984.85</ele>
        <time>2022-03-21T10:06:40Z</time>
      </trkpt>
      <trkpt lat="44.88649" lon="3.89049">
        <ele>987.62</ele>
        <time>2022-03-21T10:06:42Z</time>
      </trkpt>
      <trkpt lat="44.88652" lon="3.89027">
        <ele>990.45</ele>
        <time>2022-03-21T10:06:44Z</time>
      </trkpt>
      <trkpt lat="44.88659" lon="3.88987">
        <ele>994.05</ele>
        <time>2022-03-21T10:06:47Z</time>
      </trkpt>
      <trkpt lat="44.88667" lon="3.88959">
        <ele>995.48</ele>
        <time>2022-03-21T10:06:49Z</time>
      </trkpt>
      <trkpt lat="44.88675" lon="3.88937">
        <ele>997.1</ele>
        <time>2022-03-21T10:06:51Z</time>
      </trkpt>
      <trkpt lat="44.8869" lon="3.88906">
        <ele>998.75</ele>
        <time>2022-03-21T10:06:54Z</time>
      </trkpt>
      <trkpt lat="44.88696" lon="3.88883">
        <ele>999.47</ele>
        <time>2022-03-21T10:06:56Z</time>
      </trkpt>
      <trkpt lat="44.88705" lon="3.88824">
        <ele>1001.96</ele>
        <time>2022-03-21T10:06:58Z</time>
      </trkpt>
      <trkpt lat="44.88709" lon="3.8878">
        <ele>1002.93</ele>
        <time>2022-03-21T10:07:00Z</time>
      </trkpt>
      <trkpt lat="44.88707" lon="3.88742">
        <ele>1003.54</ele>
        <time>2022-03-21T10:07:03Z</time>
      </trkpt>
      <trkpt lat="44.88688" lon="3.88566">
        <ele>1006.92</ele>
        <time>2022-03-21T10:07:05Z</time>
      </trkpt>
      <trkpt lat="44.88682" lon="3.88452">
        <ele>1009.43</ele>
        <time>2022-03-21T10:07:07Z</time>
      </trkpt>
      <trkpt lat="44.88684" lon="3.88428">
        <ele>1009.97</ele>
        <time>2022-03-21T10:07:10Z</time>
      </trkpt>
      <trkpt lat="44.88686" lon="3.88413">
        <ele>1010.46</ele>
        <time>2022-03-21T10:07:12Z</time>
      </trkpt>
      <trkpt lat="44.88694" lon="3.88389">
        <ele>1011.02</ele>
        <time>2022-03-21T10:07:14Z</time>
      </trkpt>
      <trkpt lat="44.88742" lon="3.88265">
        <ele>1018.49</ele>
        <time>2022-03-21T10:07:16Z</time>
      </trkpt>
      <trkpt lat="44.88748" lon="3.88242">
        <ele>1020.38</ele>
        <time>2022-03-21T10:07:19Z</time>
      </trkpt>
      <trkpt lat="44.88755" lon="3.88157">
        <ele>1026.77</ele>
        <time>2022-03-21T10:07:21Z</time>
      </trkpt>
      <trkpt lat="44.88754" lon="3.88142">
        <ele>1027.69</ele>
        <time>2022-03-21T10:07:23Z</time>
      </trkpt>
      <trkpt lat="44.88753" lon="3.8814">
        <ele>1027.83</ele>
        <time>2022-03-21T10:07:24Z</time>
      </trkpt>
      <trkpt lat="44.88753" lon="3.8814">
        <ele>1027.83</ele>
        <time>2022-03-21T10:07:24Z</time>
      </trkpt>
      <trkpt lat="44.88744" lon="3.88114">
        <ele>1027.97</ele>
        <time>2022-03-21T10:07:26Z</time>
      </trkpt>
      <trkpt lat="44.88727" lon="3.88087">
        <ele>1028.74</ele>
        <time>2022-03-21T10:07:28Z</time>
      </trkpt>
      <trkpt lat="44.88715" lon="3.88075">
        <ele>1029.08</ele>
        <time>2022-03-21T10:07:30Z</time>
      </trkpt>
      <trkpt lat="44.88696" lon="3.88062">
        <ele>1029.73</ele>
        <time>2022-03-21T10:07:33Z</time>
      </trkpt>
      <trkpt lat="44.88674" lon="3.88055">
        <ele>1028.53</ele>
        <time>2022-03-21T10:07:35Z</time>
      </trkpt>
      <trkpt lat="44.88655" lon="3.88053">
        <ele>1027.62</ele>
        <time>2022-03-21T10:07:37Z</time>
      </trkpt>
      <trkpt lat="44.88643" lon="3.88049">
        <ele>1027.36</ele>
        <time>2022-03-21T10:07:39Z</time>
      </trkpt>
      <trkpt lat="44.88628" lon="3.88039">
        <ele>1028</ele>
        <time>2022-03-21T10:07:42Z</time>
      </trkpt>
      <trkpt lat="44.88621" lon="3.88027">
        <ele>1028.65</ele>
        <time>2022-03-21T10:07:44Z</time>
      </trkpt>
      <trkpt lat="44.88614" lon="3.88022">
        <ele>1028.91</ele>
        <time>2022-03-21T10:07:46Z</time>
      </trkpt>
      <trkpt lat="44.88584" lon="3.88011">
        <ele>1029</ele>
        <time>2022-03-21T10:07:49Z</time>
      </trkpt>
      <trkpt lat="44.88573" lon="3.88005">
        <ele>1028.24</ele>
        <time>2022-03-21T10:07:51Z</time>
      </trkpt>
      <trkpt lat="44.88538" lon="3.87953">
        <ele>1026.36</ele>
        <time>2022-03-21T10:07:53Z</time>
      </trkpt>
      <trkpt lat="44.88521" lon="3.87924">
        <ele>1026.74</ele>
        <time>2022-03-21T10:07:55Z</time>
      </trkpt>
      <trkpt lat="44.88502" lon="3.87883">
        <ele>1029.36</ele>
        <time>2022-03-21T10:07:58Z</time>
      </trkpt>
      <trkpt lat="44.88487" lon="3.87867">
        <ele>1030.6</ele>
        <time>2022-03-21T10:08:00Z</time>
      </trkpt>
      <trkpt lat="44.88436" lon="3.87832">
        <ele>1030.76</ele>
        <time>2022-03-21T10:08:02Z</time>
      </trkpt>
      <trkpt lat="44.88365" lon="3.87726">
        <ele>1035.83</ele>
        <time>2022-03-21T10:08:04Z</time>
      </trkpt>
      <trkpt lat="44.88276" lon="3.87617">
        <ele>1041.54</ele>
        <time>2022-03-21T10:08:07Z</time>
      </trkpt>
      <trkpt lat="44.88259" lon="3.87601">
        <ele>1042.33</ele>
        <time>2022-03-21T10:08:09Z</time>
      </trkpt>
      <trkpt lat="44.8822" lon="3.87557">
        <ele>1045.92</ele>
        <time>2022-03-21T10:08:11Z</time>
      </trkpt>
      <trkpt lat="44.88211" lon="3.87538">
        <ele>1047.03</ele>
        <time>2022-03-21T10:08:13Z</time>
      </trkpt>
      <trkpt lat="44.88207" lon="3.87492">
        <ele>1048.62</ele>
        <time>2022-03-21T10:08:16Z</time>
      </trkpt>
      <trkpt lat="44.882" lon="3.87445">
        <ele>1049</ele>
        <time>2022-03-21T10:08:18Z</time>
      </trkpt>
      <trkpt lat="44.88178" lon="3.8734">
        <ele>1055.12</ele>
        <time>2022-03-21T10:08:20Z</time>
      </trkpt>
      <trkpt lat="44.88148" lon="3.87265">
        <ele>1060.3</ele>
        <time>2022-03-21T10:08:23Z</time>
      </trkpt>
      <trkpt lat="44.8808" lon="3.87169">
        <ele>1062.06</ele>
        <time>2022-03-21T10:08:25Z</time>
      </trkpt>
      <trkpt lat="44.88062" lon="3.87153">
        <ele>1062.77</ele>
        <time>2022-03-21T10:08:27Z</time>
      </trkpt>
      <trkpt lat="44.88013" lon="3.87137">
        <ele>1065</ele>
        <time>2022-03-21T10:08:29Z</time>
      </trkpt>
      <trkpt lat="44.88" lon="3.87128">
        <ele>1064.99</ele>
        <time>2022-03-21T10:08:32Z</time>
      </trkpt>
      <trkpt lat="44.87864" lon="3.86913">
        <ele>1075.92</ele>
        <time>2022-03-21T10:08:34Z</time>
      </trkpt>
      <trkpt lat="44.87848" lon="3.86903">
        <ele>1075.52</ele>
        <time>2022-03-21T10:08:36Z</time>
      </trkpt>
      <trkpt lat="44.87806" lon="3.86892">
        <ele>1075.98</ele>
        <time>2022-03-21T10:08:38Z</time>
      </trkpt>
      <trkpt lat="44.87648" lon="3.86787">
        <ele>1083.68</ele>
        <time>2022-03-21T10:08:41Z</time>
      </trkpt>
      <trkpt lat="44.87613" lon="3.86752">
        <ele>1085.89</ele>
        <time>2022-03-21T10:08:43Z</time>
      </trkpt>
      <trkpt lat="44.87595" lon="3.86721">
        <ele>1088.65</ele>
        <time>2022-03-21T10:08:45Z</time>
      </trkpt>
      <trkpt lat="44.87572" lon="3.86647">
        <ele>1092.97</ele>
        <time>2022-03-21T10:08:47Z</time>
      </trkpt>
      <trkpt lat="44.87558" lon="3.86608">
        <ele>1095.67</ele>
        <time>2022-03-21T10:08:50Z</time>
      </trkpt>
      <trkpt lat="44.8754" lon="3.86582">
        <ele>1095.57</ele>
        <time>2022-03-21T10:08:52Z</time>
      </trkpt>
      <trkpt lat="44.87481" lon="3.8651">
        <ele>1100.5</ele>
        <time>2022-03-21T10:08:54Z</time>
      </trkpt>
      <trkpt lat="44.87466" lon="3.86497">
        <ele>1101.54</ele>
        <time>2022-03-21T10:08:57Z</time>
      </trkpt>
      <trkpt lat="44.87441" lon="3.86487">
        <ele>1103.8</ele>
        <time>2022-03-21T10:08:59Z</time>
      </trkpt>
      <trkpt lat="44.87432" lon="3.8647">
        <ele>1105.35</ele>
        <time>2022-03-21T10:09:01Z</time>
      </trkpt>
      <trkpt lat="44.87425" lon="3.8644">
        <ele>1106.24</ele>
        <time>2022-03-21T10:09:03Z</time>
      </trkpt>
      <trkpt lat="44.87411" lon="3.86304">
        <ele>1109.4</ele>
        <time>2022-03-21T10:09:06Z</time>
      </trkpt>
      <trkpt lat="44.87401" lon="3.86259">
        <ele>1111.27</ele>
        <time>2022-03-21T10:09:08Z</time>
      </trkpt>
      <trkpt lat="44.87387" lon="3.86235">
        <ele>1112.62</ele>
        <time>2022-03-21T10:09:10Z</time>
      </trkpt>
      <trkpt lat="44.87321" lon="3.86163">
        <ele>1118.02</ele>
        <time>2022-03-21T10:09:12Z</time>
      </trkpt>
      <trkpt lat="44.8728" lon="3.86114">
        <ele>1121.91</ele>
        <time>2022-03-21T10:09:15Z</time>
      </trkpt>
      <trkpt lat="44.87251" lon="3.86099">
        <ele>1124.9</ele>
        <time>2022-03-21T10:09:17Z</time>
      </trkpt>
      <trkpt lat="44.87243" lon="3.861">
        <ele>1125.72</ele>
        <time>2022-03-21T10:09:19Z</time>
      </trkpt>
      <trkpt lat="44.87194" lon="3.8614">
        <ele>1132.03</ele>
        <time>2022-03-21T10:09:21Z</time>
      </trkpt>
      <trkpt lat="44.87149" lon="3.86153">
        <ele>1133.83</ele>
        <time>2022-03-21T10:09:24Z</time>
      </trkpt>
      <trkpt lat="44.87125" lon="3.86163">
        <ele>1135.77</ele>
        <time>2022-03-21T10:09:26Z</time>
      </trkpt>
      <trkpt lat="44.87107" lon="3.86163">
        <ele>1137.17</ele>
        <time>2022-03-21T10:09:28Z</time>
      </trkpt>
      <trkpt lat="44.87084" lon="3.86152">
        <ele>1137.92</ele>
        <time>2022-03-21T10:09:31Z</time>
      </trkpt>
      <trkpt lat="44.87059" lon="3.86122">
        <ele>1141.13</ele>
        <time>2022-03-21T10:09:33Z</time>
      </trkpt>
      <trkpt lat="44.87039" lon="3.86047">
        <ele>1144.87</ele>
        <time>2022-03-21T10:09:35Z</time>
      </trkpt>
      <trkpt lat="44.87002" lon="3.85944">
        <ele>1144.74</ele>
        <time>2022-03-21T10:09:37Z</time>
      </trkpt>
      <trkpt lat="44.86983" lon="3.85917">
        <ele>1144.24</ele>
        <time>2022-03-21T10:09:40Z</time>
      </trkpt>
      <trkpt lat="44.86964" lon="3.85901">
        <ele>1144.78</ele>
        <time>2022-03-21T10:09:42Z</time>
      </trkpt>
      <trkpt lat="44.86864" lon="3.85856">
        <ele>1147.64</ele>
        <time>2022-03-21T10:09:44Z</time>
      </trkpt>
      <trkpt lat="44.86837" lon="3.85838">
        <ele>1147.17</ele>
        <time>2022-03-21T10:09:46Z</time>
      </trkpt>
      <trkpt lat="44.86809" lon="3.85804">
        <ele>1145.83</ele>
        <time>2022-03-21T10:09:49Z</time>
      </trkpt>
      <trkpt lat="44.86787" lon="3.85767">
        <ele>1143.13</ele>
        <time>2022-03-21T10:09:51Z</time>
      </trkpt>
      <trkpt lat="44.86771" lon="3.85725">
        <ele>1140.16</ele>
        <time>2022-03-21T10:09:53Z</time>
      </trkpt>
      <trkpt lat="44.86672" lon="3.85317">
        <ele>1134.31</ele>
        <time>2022-03-21T10:09:55Z</time>
      </trkpt>
      <trkpt lat="44.86655" lon="3.85276">
        <ele>1132.85</ele>
        <time>2022-03-21T10:09:58Z</time>
      </trkpt>
      <trkpt lat="44.86506" lon="3.85042">
        <ele>1128.8</ele>
        <time>2022-03-21T10:10:00Z</time>
      </trkpt>
      <trkpt lat="44.86453" lon="3.84902">
        <ele>1132</ele>
        <time>2022-03-21T10:10:02Z</time>
      </trkpt>
      <trkpt lat="44.86441" lon="3.84877">
        <ele>1132.05</ele>
        <time>2022-03-21T10:10:05Z</time>
      </trkpt>
      <trkpt lat="44.86437" lon="3.84856">
        <ele>1132.45</ele>
        <time>2022-03-21T10:10:07Z</time>
      </trkpt>
      <trkpt lat="44.86439" lon="3.84833">
        <ele>1133.19</ele>
        <time>2022-03-21T10:10:09Z</time>
      </trkpt>
      <trkpt lat="44.86438" lon="3.84833">
        <ele>1133.54</ele>
        <time>2022-03-21T10:10:09Z</time>
      </trkpt>
      <trkpt lat="44.86438" lon="3.84833">
        <ele>1133.54</ele>
        <time>2022-03-21T10:10:09Z</time>
      </trkpt>
      <trkpt lat="44.86004" lon="3.84757">
        <ele>1142</ele>
        <time>2022-03-21T10:10:17Z</time>
      </trkpt>
      <trkpt lat="44.85698" lon="3.84733">
        <ele>1147</ele>
        <time>2022-03-21T10:10:25Z</time>
      </trkpt>
      <trkpt lat="44.85572" lon="3.84728">
        <ele>1147.08</ele>
        <time>2022-03-21T10:10:33Z</time>
      </trkpt>
      <trkpt lat="44.85538" lon="3.8473">
        <ele>1149.48</ele>
        <time>2022-03-21T10:10:41Z</time>
      </trkpt>
      <trkpt lat="44.85501" lon="3.84735">
        <ele>1153.4</ele>
        <time>2022-03-21T10:10:49Z</time>
      </trkpt>
      <trkpt lat="44.85445" lon="3.84744">
        <ele>1151.43</ele>
        <time>2022-03-21T10:10:57Z</time>
      </trkpt>
      <trkpt lat="44.85375" lon="3.84759">
        <ele>1150.84</ele>
        <time>2022-03-21T10:11:05Z</time>
      </trkpt>
      <trkpt lat="44.85329" lon="3.84778">
        <ele>1151.33</ele>
        <time>2022-03-21T10:11:13Z</time>
      </trkpt>
      <trkpt lat="44.852" lon="3.84854">
        <ele>1150.59</ele>
        <time>2022-03-21T10:11:21Z</time>
      </trkpt>
      <trkpt lat="44.85164" lon="3.84877">
        <ele>1150.7</ele>
        <time>2022-03-21T10:11:29Z</time>
      </trkpt>
      <trkpt lat="44.85137" lon="3.849">
        <ele>1152.36</ele>
        <time>2022-03-21T10:11:37Z</time>
      </trkpt>
      <trkpt lat="44.84912" lon="3.85151">
        <ele>1142.05</ele>
        <time>2022-03-21T10:11:45Z</time>
      </trkpt>
      <trkpt lat="44.84828" lon="3.8525">
        <ele>1143</ele>
        <time>2022-03-21T10:11:53Z</time>
      </trkpt>
      <trkpt lat="44.84788" lon="3.85293">
        <ele>1142.37</ele>
        <time>2022-03-21T10:12:01Z</time>
      </trkpt>
      <trkpt lat="44.84763" lon="3.85317">
        <ele>1141.45</ele>
        <time>2022-03-21T10:12:09Z</time>
      </trkpt>
      <trkpt lat="44.84668" lon="3.85422">
        <ele>1141.22</ele>
        <time>2022-03-21T10:12:17Z</time>
      </trkpt>
      <trkpt lat="44.84489" lon="3.8562">
        <ele>1137.06</ele>
        <time>2022-03-21T10:12:25Z</time>
      </trkpt>
      <trkpt lat="44.84227" lon="3.859">
        <ele>1151.84</ele>
        <time>2022-03-21T10:12:33Z</time>
      </trkpt>
      <trkpt lat="44.84181" lon="3.8594">
        <ele>1154.94</ele>
        <time>2022-03-21T10:12:41Z</time>
      </trkpt>
      <trkpt lat="44.84135" lon="3.85969">
        <ele>1158.15</ele>
        <time>2022-03-21T10:12:49Z</time>
      </trkpt>
      <trkpt lat="44.8409" lon="3.85988">
        <ele>1159.78</ele>
        <time>2022-03-21T10:12:57Z</time>
      </trkpt>
      <trkpt lat="44.84042" lon="3.85998">
        <ele>1161.04</ele>
        <time>2022-03-21T10:13:05Z</time>
      </trkpt>
      <trkpt lat="44.83992" lon="3.85999">
        <ele>1161.72</ele>
        <time>2022-03-21T10:13:13Z</time>
      </trkpt>
      <trkpt lat="44.83748" lon="3.85993">
        <ele>1165.18</ele>
        <time>2022-03-21T10:13:21Z</time>
      </trkpt>
      <trkpt lat="44.8372" lon="3.85996">
        <ele>1164.31</ele>
        <time>2022-03-21T10:13:29Z</time>
      </trkpt>
      <trkpt lat="44.83688" lon="3.86002">
        <ele>1163.6</ele>
        <time>2022-03-21T10:13:37Z</time>
      </trkpt>
      <trkpt lat="44.83644" lon="3.86014">
        <ele>1163.61</ele>
        <time>2022-03-21T10:13:45Z</time>
      </trkpt>
      <trkpt lat="44.83589" lon="3.86042">
        <ele>1163.95</ele>
        <time>2022-03-21T10:13:53Z</time>
      </trkpt>
      <trkpt lat="44.83519" lon="3.86095">
        <ele>1166.31</ele>
        <time>2022-03-21T10:14:01Z</time>
      </trkpt>
      <trkpt lat="44.83206" lon="3.86374">
        <ele>1173.13</ele>
        <time>2022-03-21T10:14:09Z</time>
      </trkpt>
      <trkpt lat="44.83168" lon="3.86411">
        <ele>1172.22</ele>
        <time>2022-03-21T10:14:17Z</time>
      </trkpt>
      <trkpt lat="44.83139" lon="3.86446">
        <ele>1172.96</ele>
        <time>2022-03-21T10:14:25Z</time>
      </trkpt>
      <trkpt lat="44.83107" lon="3.86491">
        <ele>1173.4</ele>
        <time>2022-03-21T10:14:33Z</time>
      </trkpt>
      <trkpt lat="44.82876" lon="3.86855">
        <ele>1176.49</ele>
        <time>2022-03-21T10:14:41Z</time>
      </trkpt>
      <trkpt lat="44.82844" lon="3.86897">
        <ele>1173.56</ele>
        <time>2022-03-21T10:14:49Z</time>
      </trkpt>
      <trkpt lat="44.82805" lon="3.86936">
        <ele>1170.55</ele>
        <time>2022-03-21T10:14:57Z</time>
      </trkpt>
      <trkpt lat="44.8276" lon="3.86969">
        <ele>1167.5</ele>
        <time>2022-03-21T10:15:05Z</time>
      </trkpt>
      <trkpt lat="44.82705" lon="3.87004">
        <ele>1166.72</ele>
        <time>2022-03-21T10:15:13Z</time>
      </trkpt>
      <trkpt lat="44.82481" lon="3.87126">
        <ele>1154.55</ele>
        <time>2022-03-21T10:15:20Z</time>
      </trkpt>
      <trkpt lat="44.82468" lon="3.87132">
        <ele>1154.89</ele>
        <time>2022-03-21T10:15:28Z</time>
      </trkpt>
      <trkpt lat="44.82398" lon="3.87158">
        <ele>1153.01</ele>
        <time>2022-03-21T10:15:36Z</time>
      </trkpt>
      <trkpt lat="44.82344" lon="3.87169">
        <ele>1151.95</ele>
        <time>2022-03-21T10:15:44Z</time>
      </trkpt>
      <trkpt lat="44.81988" lon="3.87208">
        <ele>1164.23</ele>
        <time>2022-03-21T10:15:52Z</time>
      </trkpt>
      <trkpt lat="44.81935" lon="3.87217">
        <ele>1162.78</ele>
        <time>2022-03-21T10:16:00Z</time>
      </trkpt>
      <trkpt lat="44.81887" lon="3.87236">
        <ele>1162.38</ele>
        <time>2022-03-21T10:16:08Z</time>
      </trkpt>
      <trkpt lat="44.81838" lon="3.87263">
        <ele>1162.17</ele>
        <time>2022-03-21T10:16:16Z</time>
      </trkpt>
      <trkpt lat="44.81787" lon="3.87303">
        <ele>1160.13</ele>
        <time>2022-03-21T10:16:24Z</time>
      </trkpt>
      <trkpt lat="44.81118" lon="3.87919">
        <ele>1162.98</ele>
        <time>2022-03-21T10:16:32Z</time>
      </trkpt>
      <trkpt lat="44.8091" lon="3.88105">
        <ele>1166.54</ele>
        <time>2022-03-21T10:16:40Z</time>
      </trkpt>
      <trkpt lat="44.8084" lon="3.88162">
        <ele>1165.88</ele>
        <time>2022-03-21T10:16:48Z</time>
      </trkpt>
      <trkpt lat="44.80604" lon="3.88363">
        <ele>1160</ele>
        <time>2022-03-21T10:16:56Z</time>
      </trkpt>
      <trkpt lat="44.80389" lon="3.88538">
        <ele>1160.45</ele>
        <time>2022-03-21T10:17:04Z</time>
      </trkpt>
      <trkpt lat="44.80347" lon="3.88565">
        <ele>1159.98</ele>
        <time>2022-03-21T10:17:12Z</time>
      </trkpt>
      <trkpt lat="44.80297" lon="3.88584">
        <ele>1160.44</ele>
        <time>2022-03-21T10:17:20Z</time>
      </trkpt>
      <trkpt lat="44.80248" lon="3.88594">
        <ele>1157</ele>
        <time>2022-03-21T10:17:28Z</time>
      </trkpt>
      <trkpt lat="44.80198" lon="3.88591">
        <ele>1154.31</ele>
        <time>2022-03-21T10:17:36Z</time>
      </trkpt>
      <trkpt lat="44.80141" lon="3.88574">
        <ele>1162.73</ele>
        <time>2022-03-21T10:17:44Z</time>
      </trkpt>
      <trkpt lat="44.80038" lon="3.88531">
        <ele>1168.22</ele>
        <time>2022-03-21T10:17:52Z</time>
      </trkpt>
      <trkpt lat="44.79318" lon="3.8821">
        <ele>1212</ele>
        <time>2022-03-21T10:18:00Z</time>
      </trkpt>
      <trkpt lat="44.79146" lon="3.88137">
        <ele>1222.37</ele>
        <time>2022-03-21T10:18:08Z</time>
      </trkpt>
      <trkpt lat="44.79097" lon="3.88121">
        <ele>1222.9</ele>
        <time>2022-03-21T10:18:16Z</time>
      </trkpt>
      <trkpt lat="44.79066" lon="3.88115">
        <ele>1225.73</ele>
        <time>2022-03-21T10:18:24Z</time>
      </trkpt>
      <trkpt lat="44.79032" lon="3.88113">
        <ele>1229</ele>
        <time>2022-03-21T10:18:32Z</time>
      </trkpt>
      <trkpt lat="44.79006" lon="3.88115">
        <ele>1228.71</ele>
        <time>2022-03-21T10:18:40Z</time>
      </trkpt>
      <trkpt lat="44.78952" lon="3.88129">
        <ele>1228.27</ele>
        <time>2022-03-21T10:18:48Z</time>
      </trkpt>
      <trkpt lat="44.78924" lon="3.88142">
        <ele>1228.08</ele>
        <time>2022-03-21T10:18:56Z</time>
      </trkpt>
      <trkpt lat="44.78874" lon="3.8817">
        <ele>1226.15</ele>
        <time>2022-03-21T10:19:04Z</time>
      </trkpt>
      <trkpt lat="44.7873" lon="3.88279">
        <ele>1230.11</ele>
        <time>2022-03-21T10:19:12Z</time>
      </trkpt>
      <trkpt lat="44.78623" lon="3.88356">
        <ele>1234.08</ele>
        <time>2022-03-21T10:19:20Z</time>
      </trkpt>
      <trkpt lat="44.78452" lon="3.88488">
        <ele>1238.05</ele>
        <time>2022-03-21T10:19:28Z</time>
      </trkpt>
      <trkpt lat="44.78432" lon="3.88506">
        <ele>1239.42</ele>
        <time>2022-03-21T10:19:36Z</time>
      </trkpt>
      <trkpt lat="44.78401" lon="3.88542">
        <ele>1240.68</ele>
        <time>2022-03-21T10:19:44Z</time>
      </trkpt>
      <trkpt lat="44.7837" lon="3.88594">
        <ele>1240.11</ele>
        <time>2022-03-21T10:19:52Z</time>
      </trkpt>
      <trkpt lat="44.78262" lon="3.88785">
        <ele>1232.38</ele>
        <time>2022-03-21T10:20:00Z</time>
      </trkpt>
      <trkpt lat="44.78219" lon="3.88851">
        <ele>1227.46</ele>
        <time>2022-03-21T10:20:08Z</time>
      </trkpt>
      <trkpt lat="44.78177" lon="3.88882">
        <ele>1227.4</ele>
        <time>2022-03-21T10:20:16Z</time>
      </trkpt>
      <trkpt lat="44.78167" lon="3.88887">
        <ele>1226.94</ele>
        <time>2022-03-21T10:20:24Z</time>
      </trkpt>
      <trkpt lat="44.78109" lon="3.88937">
        <ele>1223.63</ele>
        <time>2022-03-21T10:20:32Z</time>
      </trkpt>
      <trkpt lat="44.78076" lon="3.88958">
        <ele>1222.01</ele>
        <time>2022-03-21T10:20:40Z</time>
      </trkpt>
      <trkpt lat="44.78009" lon="3.88996">
        <ele>1218.64</ele>
        <time>2022-03-21T10:20:48Z</time>
      </trkpt>
      <trkpt lat="44.77986" lon="3.89001">
        <ele>1214.63</ele>
        <time>2022-03-21T10:20:56Z</time>
      </trkpt>
      <trkpt lat="44.77986" lon="3.89001">
        <ele>1214.63</ele>
        <time>2022-03-21T10:20:56Z</time>
      </trkpt>
      <trkpt lat="44.77964" lon="3.89001">
        <ele>1213.16</ele>
        <time>2022-03-21T10:20:59Z</time>
      </trkpt>
      <trkpt lat="44.77941" lon="3.88994">
        <ele>1210.75</ele>
        <time>2022-03-21T10:21:03Z</time>
      </trkpt>
      <trkpt lat="44.77583" lon="3.88791">
        <ele>1194.46</ele>
        <time>2022-03-21T10:21:06Z</time>
      </trkpt>
      <trkpt lat="44.77532" lon="3.8876">
        <ele>1190.83</ele>
        <time>2022-03-21T10:21:10Z</time>
      </trkpt>
      <trkpt lat="44.77504" lon="3.88733">
        <ele>1189.1</ele>
        <time>2022-03-21T10:21:14Z</time>
      </trkpt>
      <trkpt lat="44.77483" lon="3.88699">
        <ele>1186.69</ele>
        <time>2022-03-21T10:21:17Z</time>
      </trkpt>
      <trkpt lat="44.77475" lon="3.88677">
        <ele>1184.91</ele>
        <time>2022-03-21T10:21:21Z</time>
      </trkpt>
      <trkpt lat="44.77468" lon="3.8864">
        <ele>1183.53</ele>
        <time>2022-03-21T10:21:24Z</time>
      </trkpt>
      <trkpt lat="44.77465" lon="3.88545">
        <ele>1181.68</ele>
        <time>2022-03-21T10:21:28Z</time>
      </trkpt>
      <trkpt lat="44.7746" lon="3.88522">
        <ele>1181.52</ele>
        <time>2022-03-21T10:21:31Z</time>
      </trkpt>
      <trkpt lat="44.77454" lon="3.88504">
        <ele>1181.14</ele>
        <time>2022-03-21T10:21:35Z</time>
      </trkpt>
      <trkpt lat="44.77438" lon="3.8848">
        <ele>1179.32</ele>
        <time>2022-03-21T10:21:38Z</time>
      </trkpt>
      <trkpt lat="44.77419" lon="3.88467">
        <ele>1177.99</ele>
        <time>2022-03-21T10:21:42Z</time>
      </trkpt>
      <trkpt lat="44.77403" lon="3.88457">
        <ele>1176.11</ele>
        <time>2022-03-21T10:21:46Z</time>
      </trkpt>
      <trkpt lat="44.77261" lon="3.88408">
        <ele>1171.21</ele>
        <time>2022-03-21T10:21:49Z</time>
      </trkpt>
      <trkpt lat="44.77231" lon="3.88395">
        <ele>1170.63</ele>
        <time>2022-03-21T10:21:53Z</time>
      </trkpt>
      <trkpt lat="44.77173" lon="3.88366">
        <ele>1167.49</ele>
        <time>2022-03-21T10:21:56Z</time>
      </trkpt>
      <trkpt lat="44.7707" lon="3.8831">
        <ele>1160.93</ele>
        <time>2022-03-21T10:22:00Z</time>
      </trkpt>
      <trkpt lat="44.77047" lon="3.88301">
        <ele>1158.78</ele>
        <time>2022-03-21T10:22:03Z</time>
      </trkpt>
      <trkpt lat="44.77036" lon="3.88302">
        <ele>1158.22</ele>
        <time>2022-03-21T10:22:07Z</time>
      </trkpt>
      <trkpt lat="44.77016" lon="3.88311">
        <ele>1157.35</ele>
        <time>2022-03-21T10:22:10Z</time>
      </trkpt>
      <trkpt lat="44.77011" lon="3.88314">
        <ele>1157.05</ele>
        <time>2022-03-21T10:22:14Z</time>
      </trkpt>
      <trkpt lat="44.76989" lon="3.8832">
        <ele>1155.73</ele>
        <time>2022-03-21T10:22:18Z</time>
      </trkpt>
      <trkpt lat="44.76973" lon="3.88321">
        <ele>1154.68</ele>
        <time>2022-03-21T10:22:21Z</time>
      </trkpt>
      <trkpt lat="44.76956" lon="3.88328">
        <ele>1154.98</ele>
        <time>2022-03-21T10:22:25Z</time>
      </trkpt>
      <trkpt lat="44.76943" lon="3.88343">
        <ele>1155.34</ele>
        <time>2022-03-21T10:22:28Z</time>
      </trkpt>
      <trkpt lat="44.76929" lon="3.88371">
        <ele>1153.86</ele>
        <time>2022-03-21T10:22:32Z</time>
      </trkpt>
      <trkpt lat="44.76926" lon="3.88383">
        <ele>1152.26</ele>
        <time>2022-03-21T10:22:35Z</time>
      </trkpt>
      <trkpt lat="44.76925" lon="3.884">
        <ele>1150.62</ele>
        <time>2022-03-21T10:22:39Z</time>
      </trkpt>
      <trkpt lat="44.7693" lon="3.88428">
        <ele>1148.51</ele>
        <time>2022-03-21T10:22:42Z</time>
      </trkpt>
      <trkpt lat="44.76996" lon="3.8857">
        <ele>1146.43</ele>
        <time>2022-03-21T10:22:46Z</time>
      </trkpt>
      <trkpt lat="44.77001" lon="3.88592">
        <ele>1145.95</ele>
        <time>2022-03-21T10:22:50Z</time>
      </trkpt>
      <trkpt lat="44.77" lon="3.88609">
        <ele>1145.07</ele>
        <time>2022-03-21T10:22:53Z</time>
      </trkpt>
      <trkpt lat="44.76997" lon="3.88621">
        <ele>1143.74</ele>
        <time>2022-03-21T10:22:57Z</time>
      </trkpt>
      <trkpt lat="44.76992" lon="3.88631">
        <ele>1142.53</ele>
        <time>2022-03-21T10:23:00Z</time>
      </trkpt>
      <trkpt lat="44.76985" lon="3.88638">
        <ele>1141.39</ele>
        <time>2022-03-21T10:23:04Z</time>
      </trkpt>
      <trkpt lat="44.76976" lon="3.88643">
        <ele>1140.79</ele>
        <time>2022-03-21T10:23:07Z</time>
      </trkpt>
      <trkpt lat="44.76964" lon="3.88643">
        <ele>1140.78</ele>
        <time>2022-03-21T10:23:11Z</time>
      </trkpt>
      <trkpt lat="44.76941" lon="3.88634">
        <ele>1140.65</ele>
        <time>2022-03-21T10:23:14Z</time>
      </trkpt>
      <trkpt lat="44.76793" lon="3.88541">
        <ele>1132.78</ele>
        <time>2022-03-21T10:23:18Z</time>
      </trkpt>
      <trkpt lat="44.76717" lon="3.88516">
        <ele>1127.86</ele>
        <time>2022-03-21T10:23:22Z</time>
      </trkpt>
      <trkpt lat="44.76665" lon="3.88502">
        <ele>1128.21</ele>
        <time>2022-03-21T10:23:25Z</time>
      </trkpt>
      <trkpt lat="44.76647" lon="3.88501">
        <ele>1126.78</ele>
        <time>2022-03-21T10:23:29Z</time>
      </trkpt>
      <trkpt lat="44.76629" lon="3.88504">
        <ele>1125.6</ele>
        <time>2022-03-21T10:23:32Z</time>
      </trkpt>
      <trkpt lat="44.76539" lon="3.88542">
        <ele>1121.23</ele>
        <time>2022-03-21T10:23:36Z</time>
      </trkpt>
      <trkpt lat="44.76513" lon="3.88546">
        <ele>1118.83</ele>
        <time>2022-03-21T10:23:39Z</time>
      </trkpt>
      <trkpt lat="44.76486" lon="3.88543">
        <ele>1117.47</ele>
        <time>2022-03-21T10:23:43Z</time>
      </trkpt>
      <trkpt lat="44.76459" lon="3.88538">
        <ele>1118.03</ele>
        <time>2022-03-21T10:23:46Z</time>
      </trkpt>
      <trkpt lat="44.76384" lon="3.88509">
        <ele>1111.65</ele>
        <time>2022-03-21T10:23:50Z</time>
      </trkpt>
      <trkpt lat="44.76363" lon="3.88503">
        <ele>1109.51</ele>
        <time>2022-03-21T10:23:54Z</time>
      </trkpt>
      <trkpt lat="44.76341" lon="3.88501">
        <ele>1108.43</ele>
        <time>2022-03-21T10:23:57Z</time>
      </trkpt>
      <trkpt lat="44.76316" lon="3.88505">
        <ele>1107.56</ele>
        <time>2022-03-21T10:24:01Z</time>
      </trkpt>
      <trkpt lat="44.76261" lon="3.88526">
        <ele>1106.07</ele>
        <time>2022-03-21T10:24:04Z</time>
      </trkpt>
      <trkpt lat="44.76186" lon="3.88544">
        <ele>1099.37</ele>
        <time>2022-03-21T10:24:08Z</time>
      </trkpt>
      <trkpt lat="44.76165" lon="3.88558">
        <ele>1097.87</ele>
        <time>2022-03-21T10:24:11Z</time>
      </trkpt>
      <trkpt lat="44.76145" lon="3.88576">
        <ele>1096.39</ele>
        <time>2022-03-21T10:24:15Z</time>
      </trkpt>
      <trkpt lat="44.76123" lon="3.88608">
        <ele>1094.98</ele>
        <time>2022-03-21T10:24:18Z</time>
      </trkpt>
      <trkpt lat="44.76111" lon="3.88639">
        <ele>1093.98</ele>
        <time>2022-03-21T10:24:22Z</time>
      </trkpt>
      <trkpt lat="44.761" lon="3.88678">
        <ele>1093.79</ele>
        <time>2022-03-21T10:24:26Z</time>
      </trkpt>
      <trkpt lat="44.76068" lon="3.88832">
        <ele>1087.47</ele>
        <time>2022-03-21T10:24:29Z</time>
      </trkpt>
      <trkpt lat="44.76054" lon="3.88875">
        <ele>1086.31</ele>
        <time>2022-03-21T10:24:33Z</time>
      </trkpt>
      <trkpt lat="44.76029" lon="3.88916">
        <ele>1087.13</ele>
        <time>2022-03-21T10:24:36Z</time>
      </trkpt>
      <trkpt lat="44.7601" lon="3.88937">
        <ele>1084.77</ele>
        <time>2022-03-21T10:24:40Z</time>
      </trkpt>
      <trkpt lat="44.7599" lon="3.88955">
        <ele>1082.76</ele>
        <time>2022-03-21T10:24:43Z</time>
      </trkpt>
      <trkpt lat="44.75947" lon="3.8899">
        <ele>1081.1</ele>
        <time>2022-03-21T10:24:47Z</time>
      </trkpt>
      <trkpt lat="44.75901" lon="3.89018">
        <ele>1081.01</ele>
        <time>2022-03-21T10:24:50Z</time>
      </trkpt>
      <trkpt lat="44.75851" lon="3.89045">
        <ele>1077.85</ele>
        <time>2022-03-21T10:24:54Z</time>
      </trkpt>
      <trkpt lat="44.75804" lon="3.89064">
        <ele>1074.55</ele>
        <time>2022-03-21T10:24:58Z</time>
      </trkpt>
      <trkpt lat="44.75704" lon="3.89094">
        <ele>1069.01</ele>
        <time>2022-03-21T10:25:01Z</time>
      </trkpt>
      <trkpt lat="44.75672" lon="3.89101">
        <ele>1069.25</ele>
        <time>2022-03-21T10:25:05Z</time>
      </trkpt>
      <trkpt lat="44.75648" lon="3.89097">
        <ele>1065.81</ele>
        <time>2022-03-21T10:25:08Z</time>
      </trkpt>
      <trkpt lat="44.75625" lon="3.89087">
        <ele>1062.74</ele>
        <time>2022-03-21T10:25:12Z</time>
      </trkpt>
      <trkpt lat="44.75608" lon="3.89071">
        <ele>1061.32</ele>
        <time>2022-03-21T10:25:15Z</time>
      </trkpt>
      <trkpt lat="44.75595" lon="3.8905">
        <ele>1061.38</ele>
        <time>2022-03-21T10:25:19Z</time>
      </trkpt>
      <trkpt lat="44.75585" lon="3.89024">
        <ele>1061.54</ele>
        <time>2022-03-21T10:25:22Z</time>
      </trkpt>
      <trkpt lat="44.75579" lon="3.88998">
        <ele>1062.48</ele>
        <time>2022-03-21T10:25:26Z</time>
      </trkpt>
      <trkpt lat="44.75577" lon="3.88965">
        <ele>1061.62</ele>
        <time>2022-03-21T10:25:30Z</time>
      </trkpt>
      <trkpt lat="44.7558" lon="3.88939">
        <ele>1061.79</ele>
        <time>2022-03-21T10:25:33Z</time>
      </trkpt>
      <trkpt lat="44.75588" lon="3.88908">
        <ele>1062.93</ele>
        <time>2022-03-21T10:25:37Z</time>
      </trkpt>
      <trkpt lat="44.75605" lon="3.88855">
        <ele>1058.53</ele>
        <time>2022-03-21T10:25:40Z</time>
      </trkpt>
      <trkpt lat="44.75614" lon="3.88821">
        <ele>1057.35</ele>
        <time>2022-03-21T10:25:44Z</time>
      </trkpt>
      <trkpt lat="44.75616" lon="3.88802">
        <ele>1056.76</ele>
        <time>2022-03-21T10:25:47Z</time>
      </trkpt>
      <trkpt lat="44.75618" lon="3.88754">
        <ele>1054.03</ele>
        <time>2022-03-21T10:25:51Z</time>
      </trkpt>
      <trkpt lat="44.75619" lon="3.88674">
        <ele>1049.2</ele>
        <time>2022-03-21T10:25:54Z</time>
      </trkpt>
      <trkpt lat="44.75619" lon="3.88613">
        <ele>1046.1</ele>
        <time>2022-03-21T10:25:58Z</time>
      </trkpt>
      <trkpt lat="44.75615" lon="3.88561">
        <ele>1042.76</ele>
        <time>2022-03-21T10:26:02Z</time>
      </trkpt>
      <trkpt lat="44.75604" lon="3.88521">
        <ele>1041.51</ele>
        <time>2022-03-21T10:26:05Z</time>
      </trkpt>
      <trkpt lat="44.75593" lon="3.88493">
        <ele>1040.9</ele>
        <time>2022-03-21T10:26:09Z</time>
      </trkpt>
      <trkpt lat="44.7557" lon="3.88449">
        <ele>1038.99</ele>
        <time>2022-03-21T10:26:12Z</time>
      </trkpt>
      <trkpt lat="44.75527" lon="3.88388">
        <ele>1033.92</ele>
        <time>2022-03-21T10:26:16Z</time>
      </trkpt>
      <trkpt lat="44.75456" lon="3.88308">
        <ele>1032.66</ele>
        <time>2022-03-21T10:26:19Z</time>
      </trkpt>
      <trkpt lat="44.75414" lon="3.88241">
        <ele>1028.34</ele>
        <time>2022-03-21T10:26:23Z</time>
      </trkpt>
      <trkpt lat="44.75399" lon="3.88223">
        <ele>1028.34</ele>
        <time>2022-03-21T10:26:26Z</time>
      </trkpt>
      <trkpt lat="44.75353" lon="3.88184">
        <ele>1024.82</ele>
        <time>2022-03-21T10:26:30Z</time>
      </trkpt>
      <trkpt lat="44.75337" lon="3.88169">
        <ele>1022.29</ele>
        <time>2022-03-21T10:26:34Z</time>
      </trkpt>
      <trkpt lat="44.75322" lon="3.8815">
        <ele>1020.7</ele>
        <time>2022-03-21T10:26:37Z</time>
      </trkpt>
      <trkpt lat="44.75306" lon="3.88115">
        <ele>1018.42</ele>
        <time>2022-03-21T10:26:41Z</time>
      </trkpt>
      <trkpt lat="44.75285" lon="3.88049">
        <ele>1015.76</ele>
        <time>2022-03-21T10:26:44Z</time>
      </trkpt>
      <trkpt lat="44.7527" lon="3.88013">
        <ele>1013.78</ele>
        <time>2022-03-21T10:26:48Z</time>
      </trkpt>
      <trkpt lat="44.75256" lon="3.87994">
        <ele>1014.75</ele>
        <time>2022-03-21T10:26:51Z</time>
      </trkpt>
      <trkpt lat="44.75227" lon="3.87975">
        <ele>1014.12</ele>
        <time>2022-03-21T10:26:55Z</time>
      </trkpt>
      <trkpt lat="44.75143" lon="3.87933">
        <ele>1007.36</ele>
        <time>2022-03-21T10:26:58Z</time>
      </trkpt>
      <trkpt lat="44.75082" lon="3.87908">
        <ele>1006.29</ele>
        <time>2022-03-21T10:27:02Z</time>
      </trkpt>
      <trkpt lat="44.75022" lon="3.87893">
        <ele>997.56</ele>
        <time>2022-03-21T10:27:06Z</time>
      </trkpt>
      <trkpt lat="44.75006" lon="3.87883">
        <ele>996.32</ele>
        <time>2022-03-21T10:27:09Z</time>
      </trkpt>
      <trkpt lat="44.74979" lon="3.87851">
        <ele>999.05</ele>
        <time>2022-03-21T10:27:13Z</time>
      </trkpt>
      <trkpt lat="44.74954" lon="3.87809">
        <ele>1000.29</ele>
        <time>2022-03-21T10:27:16Z</time>
      </trkpt>
      <trkpt lat="44.74919" lon="3.87753">
        <ele>993.24</ele>
        <time>2022-03-21T10:27:20Z</time>
      </trkpt>
      <trkpt lat="44.74903" lon="3.87735">
        <ele>991.82</ele>
        <time>2022-03-21T10:27:23Z</time>
      </trkpt>
      <trkpt lat="44.74869" lon="3.87708">
        <ele>990.28</ele>
        <time>2022-03-21T10:27:27Z</time>
      </trkpt>
      <trkpt lat="44.74831" lon="3.87689">
        <ele>986.12</ele>
        <time>2022-03-21T10:27:30Z</time>
      </trkpt>
      <trkpt lat="44.74807" lon="3.87674">
        <ele>983.76</ele>
        <time>2022-03-21T10:27:34Z</time>
      </trkpt>
      <trkpt lat="44.74789" lon="3.87657">
        <ele>982.44</ele>
        <time>2022-03-21T10:27:38Z</time>
      </trkpt>
      <trkpt lat="44.74779" lon="3.87641">
        <ele>982.87</ele>
        <time>2022-03-21T10:27:41Z</time>
      </trkpt>
      <trkpt lat="44.74774" lon="3.8763">
        <ele>984.68</ele>
        <time>2022-03-21T10:27:45Z</time>
      </trkpt>
      <trkpt lat="44.74767" lon="3.87604">
        <ele>988.51</ele>
        <time>2022-03-21T10:27:48Z</time>
      </trkpt>
      <trkpt lat="44.74765" lon="3.87587">
        <ele>989.05</ele>
        <time>2022-03-21T10:27:52Z</time>
      </trkpt>
      <trkpt lat="44.74766" lon="3.87323">
        <ele>974.32</ele>
        <time>2022-03-21T10:27:55Z</time>
      </trkpt>
      <trkpt lat="44.74768" lon="3.87249">
        <ele>971.86</ele>
        <time>2022-03-21T10:27:59Z</time>
      </trkpt>
      <trkpt lat="44.74771" lon="3.87202">
        <ele>975.39</ele>
        <time>2022-03-21T10:28:02Z</time>
      </trkpt>
      <trkpt lat="44.74776" lon="3.87166">
        <ele>975.62</ele>
        <time>2022-03-21T10:28:06Z</time>
      </trkpt>
      <trkpt lat="44.74785" lon="3.8713">
        <ele>976.47</ele>
        <time>2022-03-21T10:28:10Z</time>
      </trkpt>
      <trkpt lat="44.74811" lon="3.87042">
        <ele>974.84</ele>
        <time>2022-03-21T10:28:13Z</time>
      </trkpt>
      <trkpt lat="44.74818" lon="3.86994">
        <ele>972.28</ele>
        <time>2022-03-21T10:28:17Z</time>
      </trkpt>
      <trkpt lat="44.7482" lon="3.86959">
        <ele>971.56</ele>
        <time>2022-03-21T10:28:20Z</time>
      </trkpt>
      <trkpt lat="44.74815" lon="3.869">
        <ele>970.15</ele>
        <time>2022-03-21T10:28:24Z</time>
      </trkpt>
      <trkpt lat="44.7481" lon="3.86868">
        <ele>967.98</ele>
        <time>2022-03-21T10:28:27Z</time>
      </trkpt>
      <trkpt lat="44.74786" lon="3.86752">
        <ele>963.17</ele>
        <time>2022-03-21T10:28:31Z</time>
      </trkpt>
      <trkpt lat="44.74777" lon="3.86724">
        <ele>960.59</ele>
        <time>2022-03-21T10:28:34Z</time>
      </trkpt>
      <trkpt lat="44.74763" lon="3.86699">
        <ele>958.97</ele>
        <time>2022-03-21T10:28:38Z</time>
      </trkpt>
      <trkpt lat="44.74746" lon="3.86677">
        <ele>957.02</ele>
        <time>2022-03-21T10:28:42Z</time>
      </trkpt>
      <trkpt lat="44.74726" lon="3.8666">
        <ele>958.07</ele>
        <time>2022-03-21T10:28:45Z</time>
      </trkpt>
      <trkpt lat="44.74674" lon="3.86632">
        <ele>958.24</ele>
        <time>2022-03-21T10:28:49Z</time>
      </trkpt>
      <trkpt lat="44.74658" lon="3.86621">
        <ele>956.87</ele>
        <time>2022-03-21T10:28:52Z</time>
      </trkpt>
      <trkpt lat="44.74629" lon="3.86588">
        <ele>955.54</ele>
        <time>2022-03-21T10:28:56Z</time>
      </trkpt>
      <trkpt lat="44.74586" lon="3.86511">
        <ele>951.1</ele>
        <time>2022-03-21T10:28:59Z</time>
      </trkpt>
      <trkpt lat="44.74557" lon="3.86469">
        <ele>948.67</ele>
        <time>2022-03-21T10:29:03Z</time>
      </trkpt>
      <trkpt lat="44.74449" lon="3.86342">
        <ele>942.87</ele>
        <time>2022-03-21T10:29:06Z</time>
      </trkpt>
      <trkpt lat="44.74431" lon="3.86324">
        <ele>941.42</ele>
        <time>2022-03-21T10:29:10Z</time>
      </trkpt>
      <trkpt lat="44.74412" lon="3.8631">
        <ele>939.96</ele>
        <time>2022-03-21T10:29:14Z</time>
      </trkpt>
      <trkpt lat="44.74393" lon="3.86301">
        <ele>940.89</ele>
        <time>2022-03-21T10:29:17Z</time>
      </trkpt>
      <trkpt lat="44.74374" lon="3.86295">
        <ele>940.57</ele>
        <time>2022-03-21T10:29:21Z</time>
      </trkpt>
      <trkpt lat="44.74321" lon="3.86287">
        <ele>935.6</ele>
        <time>2022-03-21T10:29:24Z</time>
      </trkpt>
      <trkpt lat="44.74276" lon="3.86271">
        <ele>935.19</ele>
        <time>2022-03-21T10:29:28Z</time>
      </trkpt>
      <trkpt lat="44.74167" lon="3.8622">
        <ele>936.09</ele>
        <time>2022-03-21T10:29:31Z</time>
      </trkpt>
      <trkpt lat="44.74146" lon="3.86206">
        <ele>934.93</ele>
        <time>2022-03-21T10:29:35Z</time>
      </trkpt>
      <trkpt lat="44.74128" lon="3.86188">
        <ele>934.64</ele>
        <time>2022-03-21T10:29:38Z</time>
      </trkpt>
      <trkpt lat="44.74109" lon="3.86163">
        <ele>936.4</ele>
        <time>2022-03-21T10:29:42Z</time>
      </trkpt>
      <trkpt lat="44.74072" lon="3.86091">
        <ele>936.8</ele>
        <time>2022-03-21T10:29:46Z</time>
      </trkpt>
      <trkpt lat="44.74045" lon="3.86033">
        <ele>933.92</ele>
        <time>2022-03-21T10:29:49Z</time>
      </trkpt>
      <trkpt lat="44.74031" lon="3.86011">
        <ele>932.4</ele>
        <time>2022-03-21T10:29:53Z</time>
      </trkpt>
      <trkpt lat="44.74013" lon="3.85988">
        <ele>928.47</ele>
        <time>2022-03-21T10:29:56Z</time>
      </trkpt>
      <trkpt lat="44.73988" lon="3.85966">
        <ele>926.1</ele>
        <time>2022-03-21T10:30:00Z</time>
      </trkpt>
      <trkpt lat="44.73967" lon="3.85956">
        <ele>926.07</ele>
        <time>2022-03-21T10:30:03Z</time>
      </trkpt>
      <trkpt lat="44.73939" lon="3.85948">
        <ele>925.83</ele>
        <time>2022-03-21T10:30:07Z</time>
      </trkpt>
      <trkpt lat="44.73911" lon="3.85943">
        <ele>926.13</ele>
        <time>2022-03-21T10:30:10Z</time>
      </trkpt>
      <trkpt lat="44.73886" lon="3.85936">
        <ele>924.8</ele>
        <time>2022-03-21T10:30:14Z</time>
      </trkpt>
      <trkpt lat="44.73862" lon="3.85922">
        <ele>919.61</ele>
        <time>2022-03-21T10:30:18Z</time>
      </trkpt>
      <trkpt lat="44.7378" lon="3.85862">
        <ele>912.79</ele>
        <time>2022-03-21T10:30:21Z</time>
      </trkpt>
      <trkpt lat="44.73756" lon="3.85836">
        <ele>908.32</ele>
        <time>2022-03-21T10:30:25Z</time>
      </trkpt>
      <trkpt lat="44.73715" lon="3.85782">
        <ele>905.94</ele>
        <time>2022-03-21T10:30:28Z</time>
      </trkpt>
      <trkpt lat="44.73695" lon="3.85765">
        <ele>905.55</ele>
        <time>2022-03-21T10:30:32Z</time>
      </trkpt>
      <trkpt lat="44.73687" lon="3.85761">
        <ele>905.65</ele>
        <time>2022-03-21T10:30:35Z</time>
      </trkpt>
      <trkpt lat="44.73661" lon="3.85758">
        <ele>906.24</ele>
        <time>2022-03-21T10:30:39Z</time>
      </trkpt>
      <trkpt lat="44.73647" lon="3.85761">
        <ele>905.66</ele>
        <time>2022-03-21T10:30:42Z</time>
      </trkpt>
      <trkpt lat="44.73626" lon="3.85774">
        <ele>905.62</ele>
        <time>2022-03-21T10:30:46Z</time>
      </trkpt>
      <trkpt lat="44.73559" lon="3.85838">
        <ele>907.2</ele>
        <time>2022-03-21T10:30:50Z</time>
      </trkpt>
      <trkpt lat="44.73543" lon="3.85845">
        <ele>907.14</ele>
        <time>2022-03-21T10:30:53Z</time>
      </trkpt>
      <trkpt lat="44.7353" lon="3.85843">
        <ele>906.71</ele>
        <time>2022-03-21T10:30:57Z</time>
      </trkpt>
      <trkpt lat="44.73519" lon="3.85836">
        <ele>905.63</ele>
        <time>2022-03-21T10:31:00Z</time>
      </trkpt>
      <trkpt lat="44.73511" lon="3.85826">
        <ele>903.95</ele>
        <time>2022-03-21T10:31:04Z</time>
      </trkpt>
      <trkpt lat="44.73474" lon="3.85747">
        <ele>900.08</ele>
        <time>2022-03-21T10:31:07Z</time>
      </trkpt>
      <trkpt lat="44.73463" lon="3.85728">
        <ele>900.78</ele>
        <time>2022-03-21T10:31:11Z</time>
      </trkpt>
      <trkpt lat="44.73457" lon="3.85723">
        <ele>900.98</ele>
        <time>2022-03-21T10:31:14Z</time>
      </trkpt>
      <trkpt lat="44.73438" lon="3.85711">
        <ele>902.42</ele>
        <time>2022-03-21T10:31:18Z</time>
      </trkpt>
      <trkpt lat="44.73424" lon="3.85707">
        <ele>903.32</ele>
        <time>2022-03-21T10:31:22Z</time>
      </trkpt>
      <trkpt lat="44.73412" lon="3.85707">
        <ele>903.95</ele>
        <time>2022-03-21T10:31:25Z</time>
      </trkpt>
      <trkpt lat="44.73395" lon="3.8571">
        <ele>904.82</ele>
        <time>2022-03-21T10:31:29Z</time>
      </trkpt>
      <trkpt lat="44.73373" lon="3.85722">
        <ele>905.76</ele>
        <time>2022-03-21T10:31:32Z</time>
      </trkpt>
      <trkpt lat="44.73356" lon="3.85737">
        <ele>906.83</ele>
        <time>2022-03-21T10:31:36Z</time>
      </trkpt>
      <trkpt lat="44.73335" lon="3.85766">
        <ele>907.35</ele>
        <time>2022-03-21T10:31:39Z</time>
      </trkpt>
      <trkpt lat="44.7331" lon="3.85804">
        <ele>907.07</ele>
        <time>2022-03-21T10:31:43Z</time>
      </trkpt>
      <trkpt lat="44.73296" lon="3.85818">
        <ele>906.74</ele>
        <time>2022-03-21T10:31:46Z</time>
      </trkpt>
      <trkpt lat="44.73247" lon="3.8584">
        <ele>905.14</ele>
        <time>2022-03-21T10:31:50Z</time>
      </trkpt>
      <trkpt lat="44.73233" lon="3.85842">
        <ele>905.2</ele>
        <time>2022-03-21T10:31:54Z</time>
      </trkpt>
      <trkpt lat="44.73217" lon="3.85841">
        <ele>905.88</ele>
        <time>2022-03-21T10:31:57Z</time>
      </trkpt>
      <trkpt lat="44.73192" lon="3.85838">
        <ele>907.58</ele>
        <time>2022-03-21T10:32:01Z</time>
      </trkpt>
      <trkpt lat="44.73168" lon="3.8583">
        <ele>909.32</ele>
        <time>2022-03-21T10:32:04Z</time>
      </trkpt>
      <trkpt lat="44.7315" lon="3.85821">
        <ele>909.14</ele>
        <time>2022-03-21T10:32:08Z</time>
      </trkpt>
      <trkpt lat="44.73134" lon="3.85809">
        <ele>909.01</ele>
        <time>2022-03-21T10:32:11Z</time>
      </trkpt>
      <trkpt lat="44.73101" lon="3.85775">
        <ele>907.48</ele>
        <time>2022-03-21T10:32:15Z</time>
      </trkpt>
      <trkpt lat="44.73065" lon="3.85726">
        <ele>908.21</ele>
        <time>2022-03-21T10:32:18Z</time>
      </trkpt>
      <trkpt lat="44.7304" lon="3.85699">
        <ele>908.77</ele>
        <time>2022-03-21T10:32:22Z</time>
      </trkpt>
      <trkpt lat="44.73018" lon="3.85684">
        <ele>909.64</ele>
        <time>2022-03-21T10:32:25Z</time>
      </trkpt>
      <trkpt lat="44.72975" lon="3.85674">
        <ele>908.33</ele>
        <time>2022-03-21T10:32:29Z</time>
      </trkpt>
      <trkpt lat="44.72953" lon="3.85669">
        <ele>908.14</ele>
        <time>2022-03-21T10:32:33Z</time>
      </trkpt>
      <trkpt lat="44.72695" lon="3.8562">
        <ele>912.01</ele>
        <time>2022-03-21T10:32:36Z</time>
      </trkpt>
      <trkpt lat="44.72659" lon="3.85607">
        <ele>911.89</ele>
        <time>2022-03-21T10:32:40Z</time>
      </trkpt>
      <trkpt lat="44.72645" lon="3.85593">
        <ele>911.88</ele>
        <time>2022-03-21T10:32:43Z</time>
      </trkpt>
      <trkpt lat="44.72634" lon="3.85578">
        <ele>912.2</ele>
        <time>2022-03-21T10:32:47Z</time>
      </trkpt>
      <trkpt lat="44.72625" lon="3.85562">
        <ele>912.76</ele>
        <time>2022-03-21T10:32:50Z</time>
      </trkpt>
      <trkpt lat="44.72613" lon="3.85517">
        <ele>914.49</ele>
        <time>2022-03-21T10:32:54Z</time>
      </trkpt>
      <trkpt lat="44.72607" lon="3.85505">
        <ele>914.8</ele>
        <time>2022-03-21T10:32:57Z</time>
      </trkpt>
      <trkpt lat="44.72354" lon="3.85154">
        <ele>918.63</ele>
        <time>2022-03-21T10:33:01Z</time>
      </trkpt>
      <trkpt lat="44.72325" lon="3.85114">
        <ele>919.73</ele>
        <time>2022-03-21T10:33:05Z</time>
      </trkpt>
      <trkpt lat="44.72282" lon="3.85052">
        <ele>920.42</ele>
        <time>2022-03-21T10:33:08Z</time>
      </trkpt>
      <trkpt lat="44.72264" lon="3.85021">
        <ele>922.15</ele>
        <time>2022-03-21T10:33:12Z</time>
      </trkpt>
      <trkpt lat="44.72264" lon="3.85021">
        <ele>922.15</ele>
        <time>2022-03-21T10:33:12Z</time>
      </trkpt>
      <trkpt lat="44.72255" lon="3.84998">
        <ele>922.49</ele>
        <time>2022-03-21T10:33:14Z</time>
      </trkpt>
      <trkpt lat="44.72274" lon="3.84985">
        <ele>924.81</ele>
        <time>2022-03-21T10:33:17Z</time>
      </trkpt>
      <trkpt lat="44.72287" lon="3.84956">
        <ele>929.39</ele>
        <time>2022-03-21T10:33:20Z</time>
      </trkpt>
      <trkpt lat="44.72296" lon="3.84931">
        <ele>934.08</ele>
        <time>2022-03-21T10:33:23Z</time>
      </trkpt>
      <trkpt lat="44.72265" lon="3.84887">
        <ele>936.82</ele>
        <time>2022-03-21T10:33:26Z</time>
      </trkpt>
      <trkpt lat="44.72259" lon="3.84871">
        <ele>936.95</ele>
        <time>2022-03-21T10:33:29Z</time>
      </trkpt>
      <trkpt lat="44.72268" lon="3.84846">
        <ele>939.71</ele>
        <time>2022-03-21T10:33:32Z</time>
      </trkpt>
      <trkpt lat="44.7228" lon="3.8483">
        <ele>942.26</ele>
        <time>2022-03-21T10:33:35Z</time>
      </trkpt>
      <trkpt lat="44.72282" lon="3.8482">
        <ele>942.87</ele>
        <time>2022-03-21T10:33:38Z</time>
      </trkpt>
      <trkpt lat="44.72282" lon="3.84812">
        <ele>943.44</ele>
        <time>2022-03-21T10:33:40Z</time>
      </trkpt>
      <trkpt lat="44.72278" lon="3.84777">
        <ele>945.05</ele>
        <time>2022-03-21T10:33:43Z</time>
      </trkpt>
      <trkpt lat="44.72271" lon="3.84744">
        <ele>946.73</ele>
        <time>2022-03-21T10:33:46Z</time>
      </trkpt>
      <trkpt lat="44.72261" lon="3.84715">
        <ele>947.01</ele>
        <time>2022-03-21T10:33:49Z</time>
      </trkpt>
      <trkpt lat="44.72256" lon="3.84689">
        <ele>946.9</ele>
        <time>2022-03-21T10:33:52Z</time>
      </trkpt>
      <trkpt lat="44.72256" lon="3.84666">
        <ele>946.79</ele>
        <time>2022-03-21T10:33:55Z</time>
      </trkpt>
      <trkpt lat="44.72258" lon="3.84629">
        <ele>947.53</ele>
        <time>2022-03-21T10:33:58Z</time>
      </trkpt>
      <trkpt lat="44.72257" lon="3.84567">
        <ele>949.3</ele>
        <time>2022-03-21T10:34:01Z</time>
      </trkpt>
      <trkpt lat="44.72251" lon="3.84476">
        <ele>953.76</ele>
        <time>2022-03-21T10:34:04Z</time>
      </trkpt>
      <trkpt lat="44.72254" lon="3.84469">
        <ele>954.33</ele>
        <time>2022-03-21T10:34:07Z</time>
      </trkpt>
      <trkpt lat="44.72277" lon="3.84441">
        <ele>956</ele>
        <time>2022-03-21T10:34:09Z</time>
      </trkpt>
      <trkpt lat="44.72303" lon="3.8439">
        <ele>956.01</ele>
        <time>2022-03-21T10:34:12Z</time>
      </trkpt>
      <trkpt lat="44.72304" lon="3.84384">
        <ele>956.43</ele>
        <time>2022-03-21T10:34:15Z</time>
      </trkpt>
      <trkpt lat="44.7235" lon="3.84326">
        <ele>957.38</ele>
        <time>2022-03-21T10:34:18Z</time>
      </trkpt>
      <trkpt lat="44.72359" lon="3.84306">
        <ele>958.04</ele>
        <time>2022-03-21T10:34:21Z</time>
      </trkpt>
      <trkpt lat="44.72359" lon="3.84252">
        <ele>959.24</ele>
        <time>2022-03-21T10:34:26Z</time>
      </trkpt>
      <trkpt lat="44.72353" lon="3.84212">
        <ele>960.96</ele>
        <time>2022-03-21T10:34:31Z</time>
      </trkpt>
      <trkpt lat="44.7234" lon="3.84175">
        <ele>963.39</ele>
        <time>2022-03-21T10:34:36Z</time>
      </trkpt>
      <trkpt lat="44.72398" lon="3.841">
        <ele>962</ele>
        <time>2022-03-21T10:34:39Z</time>
      </trkpt>
      <trkpt lat="44.72421" lon="3.84066">
        <ele>962.68</ele>
        <time>2022-03-21T10:34:42Z</time>
      </trkpt>
      <trkpt lat="44.72444" lon="3.84009">
        <ele>963.97</ele>
        <time>2022-03-21T10:34:46Z</time>
      </trkpt>
      <trkpt lat="44.72454" lon="3.83985">
        <ele>964.66</ele>
        <time>2022-03-21T10:34:49Z</time>
      </trkpt>
      <trkpt lat="44.72476" lon="3.83954">
        <ele>965.57</ele>
        <time>2022-03-21T10:34:52Z</time>
      </trkpt>
      <trkpt lat="44.72486" lon="3.83945">
        <ele>966.04</ele>
        <time>2022-03-21T10:34:55Z</time>
      </trkpt>
      <trkpt lat="44.72502" lon="3.83938">
        <ele>966.74</ele>
        <time>2022-03-21T10:34:58Z</time>
      </trkpt>
      <trkpt lat="44.72512" lon="3.83936">
        <ele>966.58</ele>
        <time>2022-03-21T10:35:02Z</time>
      </trkpt>
      <trkpt lat="44.72526" lon="3.8394">
        <ele>966.66</ele>
        <time>2022-03-21T10:35:05Z</time>
      </trkpt>
      <trkpt lat="44.72538" lon="3.83949">
        <ele>967.52</ele>
        <time>2022-03-21T10:35:08Z</time>
      </trkpt>
      <trkpt lat="44.72547" lon="3.83959">
        <ele>968.21</ele>
        <time>2022-03-21T10:35:11Z</time>
      </trkpt>
      <trkpt lat="44.72575" lon="3.83998">
        <ele>969.72</ele>
        <time>2022-03-21T10:35:14Z</time>
      </trkpt>
      <trkpt lat="44.72595" lon="3.84019">
        <ele>969.73</ele>
        <time>2022-03-21T10:35:18Z</time>
      </trkpt>
      <trkpt lat="44.72607" lon="3.84026">
        <ele>969.92</ele>
        <time>2022-03-21T10:35:21Z</time>
      </trkpt>
      <trkpt lat="44.72658" lon="3.84047">
        <ele>969.98</ele>
        <time>2022-03-21T10:35:24Z</time>
      </trkpt>
      <trkpt lat="44.72702" lon="3.84062">
        <ele>970.85</ele>
        <time>2022-03-21T10:35:27Z</time>
      </trkpt>
      <trkpt lat="44.72733" lon="3.84064">
        <ele>972.37</ele>
        <time>2022-03-21T10:35:30Z</time>
      </trkpt>
      <trkpt lat="44.72774" lon="3.84057">
        <ele>974.7</ele>
        <time>2022-03-21T10:35:33Z</time>
      </trkpt>
      <trkpt lat="44.73053" lon="3.83986">
        <ele>981.42</ele>
        <time>2022-03-21T10:35:37Z</time>
      </trkpt>
      <trkpt lat="44.73075" lon="3.83986">
        <ele>981.85</ele>
        <time>2022-03-21T10:35:40Z</time>
      </trkpt>
      <trkpt lat="44.73095" lon="3.83991">
        <ele>982.3</ele>
        <time>2022-03-21T10:35:43Z</time>
      </trkpt>
      <trkpt lat="44.73155" lon="3.8402">
        <ele>989.32</ele>
        <time>2022-03-21T10:35:46Z</time>
      </trkpt>
      <trkpt lat="44.73181" lon="3.84023">
        <ele>992.09</ele>
        <time>2022-03-21T10:35:49Z</time>
      </trkpt>
      <trkpt lat="44.73204" lon="3.84019">
        <ele>992.93</ele>
        <time>2022-03-21T10:35:53Z</time>
      </trkpt>
      <trkpt lat="44.73244" lon="3.84004">
        <ele>992.98</ele>
        <time>2022-03-21T10:35:56Z</time>
      </trkpt>
      <trkpt lat="44.73398" lon="3.83939">
        <ele>987.84</ele>
        <time>2022-03-21T10:35:59Z</time>
      </trkpt>
      <trkpt lat="44.73427" lon="3.83924">
        <ele>986.38</ele>
        <time>2022-03-21T10:36:02Z</time>
      </trkpt>
      <trkpt lat="44.73456" lon="3.83904">
        <ele>985.64</ele>
        <time>2022-03-21T10:36:05Z</time>
      </trkpt>
      <trkpt lat="44.73481" lon="3.83883">
        <ele>984.2</ele>
        <time>2022-03-21T10:36:09Z</time>
      </trkpt>
      <trkpt lat="44.73735" lon="3.83611">
        <ele>969.55</ele>
        <time>2022-03-21T10:36:12Z</time>
      </trkpt>
      <trkpt lat="44.73759" lon="3.83576">
        <ele>967.33</ele>
        <time>2022-03-21T10:36:15Z</time>
      </trkpt>
      <trkpt lat="44.739" lon="3.83357">
        <ele>948.09</ele>
        <time>2022-03-21T10:36:18Z</time>
      </trkpt>
      <trkpt lat="44.73919" lon="3.83331">
        <ele>947.94</ele>
        <time>2022-03-21T10:36:21Z</time>
      </trkpt>
      <trkpt lat="44.73937" lon="3.83317">
        <ele>947.54</ele>
        <time>2022-03-21T10:36:25Z</time>
      </trkpt>
      <trkpt lat="44.73951" lon="3.83308">
        <ele>947.16</ele>
        <time>2022-03-21T10:36:28Z</time>
      </trkpt>
      <trkpt lat="44.742" lon="3.83198">
        <ele>946.81</ele>
        <time>2022-03-21T10:36:31Z</time>
      </trkpt>
      <trkpt lat="44.7422" lon="3.83187">
        <ele>947.93</ele>
        <time>2022-03-21T10:36:34Z</time>
      </trkpt>
      <trkpt lat="44.74239" lon="3.83169">
        <ele>949.21</ele>
        <time>2022-03-21T10:36:37Z</time>
      </trkpt>
      <trkpt lat="44.74256" lon="3.83145">
        <ele>949.67</ele>
        <time>2022-03-21T10:36:40Z</time>
      </trkpt>
      <trkpt lat="44.74283" lon="3.83101">
        <ele>950.63</ele>
        <time>2022-03-21T10:36:44Z</time>
      </trkpt>
      <trkpt lat="44.74323" lon="3.83052">
        <ele>949.88</ele>
        <time>2022-03-21T10:36:47Z</time>
      </trkpt>
      <trkpt lat="44.74357" lon="3.83017">
        <ele>949.78</ele>
        <time>2022-03-21T10:36:50Z</time>
      </trkpt>
      <trkpt lat="44.74451" lon="3.82945">
        <ele>948.01</ele>
        <time>2022-03-21T10:36:53Z</time>
      </trkpt>
      <trkpt lat="44.74483" lon="3.82926">
        <ele>946.43</ele>
        <time>2022-03-21T10:36:56Z</time>
      </trkpt>
      <trkpt lat="44.74516" lon="3.8292">
        <ele>947.44</ele>
        <time>2022-03-21T10:37:00Z</time>
      </trkpt>
      <trkpt lat="44.74605" lon="3.82928">
        <ele>954.13</ele>
        <time>2022-03-21T10:37:03Z</time>
      </trkpt>
      <trkpt lat="44.74623" lon="3.82921">
        <ele>954.85</ele>
        <time>2022-03-21T10:37:06Z</time>
      </trkpt>
      <trkpt lat="44.74637" lon="3.82909">
        <ele>954.95</ele>
        <time>2022-03-21T10:37:09Z</time>
      </trkpt>
      <trkpt lat="44.74649" lon="3.82892">
        <ele>955.78</ele>
        <time>2022-03-21T10:37:12Z</time>
      </trkpt>
      <trkpt lat="44.74654" lon="3.82877">
        <ele>955.93</ele>
        <time>2022-03-21T10:37:16Z</time>
      </trkpt>
      <trkpt lat="44.74671" lon="3.82741">
        <ele>952.93</ele>
        <time>2022-03-21T10:37:19Z</time>
      </trkpt>
      <trkpt lat="44.74676" lon="3.82714">
        <ele>952.42</ele>
        <time>2022-03-21T10:37:22Z</time>
      </trkpt>
      <trkpt lat="44.74681" lon="3.82697">
        <ele>951.29</ele>
        <time>2022-03-21T10:37:25Z</time>
      </trkpt>
      <trkpt lat="44.74691" lon="3.8268">
        <ele>951.04</ele>
        <time>2022-03-21T10:37:28Z</time>
      </trkpt>
      <trkpt lat="44.74706" lon="3.82669">
        <ele>949.49</ele>
        <time>2022-03-21T10:37:32Z</time>
      </trkpt>
      <trkpt lat="44.74721" lon="3.82664">
        <ele>947.74</ele>
        <time>2022-03-21T10:37:35Z</time>
      </trkpt>
      <trkpt lat="44.74733" lon="3.82666">
        <ele>947.53</ele>
        <time>2022-03-21T10:37:38Z</time>
      </trkpt>
      <trkpt lat="44.74754" lon="3.82675">
        <ele>947.72</ele>
        <time>2022-03-21T10:37:41Z</time>
      </trkpt>
      <trkpt lat="44.74763" lon="3.82673">
        <ele>947.05</ele>
        <time>2022-03-21T10:37:44Z</time>
      </trkpt>
      <trkpt lat="44.74767" lon="3.82668">
        <ele>945.79</ele>
        <time>2022-03-21T10:37:48Z</time>
      </trkpt>
      <trkpt lat="44.74767" lon="3.82668">
        <ele>945.79</ele>
        <time>2022-03-21T10:37:48Z</time>
      </trkpt>
      <trkpt lat="44.74772" lon="3.82656">
        <ele>945.04</ele>
        <time>2022-03-21T10:37:51Z</time>
      </trkpt>
      <trkpt lat="44.74809" lon="3.82387">
        <ele>947.87</ele>
        <time>2022-03-21T10:37:54Z</time>
      </trkpt>
      <trkpt lat="44.74801" lon="3.82327">
        <ele>953.47</ele>
        <time>2022-03-21T10:37:57Z</time>
      </trkpt>
      <trkpt lat="44.74801" lon="3.82273">
        <ele>956.03</ele>
        <time>2022-03-21T10:38:00Z</time>
      </trkpt>
      <trkpt lat="44.74822" lon="3.82131">
        <ele>956</ele>
        <time>2022-03-21T10:38:03Z</time>
      </trkpt>
      <trkpt lat="44.74988" lon="3.81769">
        <ele>956.17</ele>
        <time>2022-03-21T10:38:06Z</time>
      </trkpt>
      <trkpt lat="44.75049" lon="3.815">
        <ele>952.84</ele>
        <time>2022-03-21T10:38:09Z</time>
      </trkpt>
      <trkpt lat="44.75071" lon="3.81428">
        <ele>958.4</ele>
        <time>2022-03-21T10:38:12Z</time>
      </trkpt>
      <trkpt lat="44.7509" lon="3.81382">
        <ele>962.04</ele>
        <time>2022-03-21T10:38:15Z</time>
      </trkpt>
      <trkpt lat="44.75291" lon="3.8103">
        <ele>972.06</ele>
        <time>2022-03-21T10:38:18Z</time>
      </trkpt>
      <trkpt lat="44.75486" lon="3.80671">
        <ele>973.58</ele>
        <time>2022-03-21T10:38:21Z</time>
      </trkpt>
      <trkpt lat="44.75503" lon="3.80647">
        <ele>972.74</ele>
        <time>2022-03-21T10:38:24Z</time>
      </trkpt>
      <trkpt lat="44.75518" lon="3.80634">
        <ele>973.37</ele>
        <time>2022-03-21T10:38:28Z</time>
      </trkpt>
      <trkpt lat="44.75567" lon="3.80604">
        <ele>975.65</ele>
        <time>2022-03-21T10:38:31Z</time>
      </trkpt>
      <trkpt lat="44.75582" lon="3.80591">
        <ele>976.66</ele>
        <time>2022-03-21T10:38:34Z</time>
      </trkpt>
      <trkpt lat="44.75595" lon="3.80575">
        <ele>978.02</ele>
        <time>2022-03-21T10:38:37Z</time>
      </trkpt>
      <trkpt lat="44.75605" lon="3.8056">
        <ele>979.02</ele>
        <time>2022-03-21T10:38:40Z</time>
      </trkpt>
      <trkpt lat="44.75614" lon="3.80543">
        <ele>979.97</ele>
        <time>2022-03-21T10:38:43Z</time>
      </trkpt>
      <trkpt lat="44.75624" lon="3.80516">
        <ele>981.07</ele>
        <time>2022-03-21T10:38:46Z</time>
      </trkpt>
      <trkpt lat="44.75716" lon="3.80259">
        <ele>980.64</ele>
        <time>2022-03-21T10:38:49Z</time>
      </trkpt>
      <trkpt lat="44.75725" lon="3.8024">
        <ele>980.07</ele>
        <time>2022-03-21T10:38:52Z</time>
      </trkpt>
      <trkpt lat="44.75735" lon="3.80225">
        <ele>979.76</ele>
        <time>2022-03-21T10:38:55Z</time>
      </trkpt>
      <trkpt lat="44.75772" lon="3.80182">
        <ele>978.72</ele>
        <time>2022-03-21T10:38:58Z</time>
      </trkpt>
      <trkpt lat="44.75785" lon="3.80156">
        <ele>978.09</ele>
        <time>2022-03-21T10:39:01Z</time>
      </trkpt>
      <trkpt lat="44.75794" lon="3.80131">
        <ele>978.99</ele>
        <time>2022-03-21T10:39:04Z</time>
      </trkpt>
      <trkpt lat="44.75798" lon="3.80115">
        <ele>978.62</ele>
        <time>2022-03-21T10:39:07Z</time>
      </trkpt>
      <trkpt lat="44.75807" lon="3.80027">
        <ele>976.33</ele>
        <time>2022-03-21T10:39:11Z</time>
      </trkpt>
      <trkpt lat="44.75812" lon="3.8001">
        <ele>977.45</ele>
        <time>2022-03-21T10:39:14Z</time>
      </trkpt>
      <trkpt lat="44.75819" lon="3.79994">
        <ele>978.78</ele>
        <time>2022-03-21T10:39:17Z</time>
      </trkpt>
      <trkpt lat="44.75862" lon="3.79924">
        <ele>982.1</ele>
        <time>2022-03-21T10:39:20Z</time>
      </trkpt>
      <trkpt lat="44.75871" lon="3.79902">
        <ele>981.56</ele>
        <time>2022-03-21T10:39:23Z</time>
      </trkpt>
      <trkpt lat="44.7588" lon="3.79866">
        <ele>980.6</ele>
        <time>2022-03-21T10:39:26Z</time>
      </trkpt>
      <trkpt lat="44.75882" lon="3.79845">
        <ele>980.31</ele>
        <time>2022-03-21T10:39:29Z</time>
      </trkpt>
      <trkpt lat="44.75882" lon="3.79824">
        <ele>979.65</ele>
        <time>2022-03-21T10:39:32Z</time>
      </trkpt>
      <trkpt lat="44.75871" lon="3.79735">
        <ele>973.36</ele>
        <time>2022-03-21T10:39:35Z</time>
      </trkpt>
      <trkpt lat="44.75868" lon="3.79697">
        <ele>972.13</ele>
        <time>2022-03-21T10:39:38Z</time>
      </trkpt>
      <trkpt lat="44.7587" lon="3.79656">
        <ele>971.2</ele>
        <time>2022-03-21T10:39:41Z</time>
      </trkpt>
      <trkpt lat="44.75875" lon="3.79626">
        <ele>971.14</ele>
        <time>2022-03-21T10:39:44Z</time>
      </trkpt>
      <trkpt lat="44.75888" lon="3.79575">
        <ele>970.42</ele>
        <time>2022-03-21T10:39:47Z</time>
      </trkpt>
      <trkpt lat="44.75929" lon="3.7949">
        <ele>969.23</ele>
        <time>2022-03-21T10:39:51Z</time>
      </trkpt>
      <trkpt lat="44.76017" lon="3.79412">
        <ele>978.25</ele>
        <time>2022-03-21T10:39:54Z</time>
      </trkpt>
      <trkpt lat="44.76042" lon="3.79366">
        <ele>980.44</ele>
        <time>2022-03-21T10:39:57Z</time>
      </trkpt>
      <trkpt lat="44.76101" lon="3.79119">
        <ele>979.54</ele>
        <time>2022-03-21T10:40:00Z</time>
      </trkpt>
      <trkpt lat="44.76128" lon="3.79061">
        <ele>977.88</ele>
        <time>2022-03-21T10:40:03Z</time>
      </trkpt>
      <trkpt lat="44.76219" lon="3.78951">
        <ele>980.9</ele>
        <time>2022-03-21T10:40:06Z</time>
      </trkpt>
      <trkpt lat="44.76243" lon="3.78882">
        <ele>976.07</ele>
        <time>2022-03-21T10:40:09Z</time>
      </trkpt>
      <trkpt lat="44.76252" lon="3.78807">
        <ele>970.95</ele>
        <time>2022-03-21T10:40:12Z</time>
      </trkpt>
      <trkpt lat="44.7628" lon="3.78698">
        <ele>973.23</ele>
        <time>2022-03-21T10:40:15Z</time>
      </trkpt>
      <trkpt lat="44.76318" lon="3.78601">
        <ele>968.99</ele>
        <time>2022-03-21T10:40:18Z</time>
      </trkpt>
      <trkpt lat="44.76419" lon="3.78394">
        <ele>966.18</ele>
        <time>2022-03-21T10:40:21Z</time>
      </trkpt>
      <trkpt lat="44.76438" lon="3.7831">
        <ele>967.6</ele>
        <time>2022-03-21T10:40:24Z</time>
      </trkpt>
      <trkpt lat="44.76448" lon="3.78174">
        <ele>966.11</ele>
        <time>2022-03-21T10:40:27Z</time>
      </trkpt>
      <trkpt lat="44.76469" lon="3.77928">
        <ele>963.43</ele>
        <time>2022-03-21T10:40:30Z</time>
      </trkpt>
      <trkpt lat="44.76487" lon="3.77849">
        <ele>958.19</ele>
        <time>2022-03-21T10:40:34Z</time>
      </trkpt>
      <trkpt lat="44.76524" lon="3.77784">
        <ele>954.19</ele>
        <time>2022-03-21T10:40:37Z</time>
      </trkpt>
      <trkpt lat="44.76716" lon="3.77189">
        <ele>952.4</ele>
        <time>2022-03-21T10:40:40Z</time>
      </trkpt>
      <trkpt lat="44.76758" lon="3.76984">
        <ele>949.73</ele>
        <time>2022-03-21T10:40:43Z</time>
      </trkpt>
      <trkpt lat="44.76787" lon="3.76918">
        <ele>951.76</ele>
        <time>2022-03-21T10:40:46Z</time>
      </trkpt>
      <trkpt lat="44.7684" lon="3.76828">
        <ele>951.58</ele>
        <time>2022-03-21T10:40:49Z</time>
      </trkpt>
      <trkpt lat="44.76866" lon="3.76752">
        <ele>952.24</ele>
        <time>2022-03-21T10:40:52Z</time>
      </trkpt>
      <trkpt lat="44.76895" lon="3.76619">
        <ele>954.95</ele>
        <time>2022-03-21T10:40:55Z</time>
      </trkpt>
      <trkpt lat="44.76928" lon="3.76546">
        <ele>958.45</ele>
        <time>2022-03-21T10:40:58Z</time>
      </trkpt>
      <trkpt lat="44.76952" lon="3.76485">
        <ele>958.98</ele>
        <time>2022-03-21T10:41:01Z</time>
      </trkpt>
      <trkpt lat="44.76962" lon="3.76434">
        <ele>958.53</ele>
        <time>2022-03-21T10:41:04Z</time>
      </trkpt>
      <trkpt lat="44.76996" lon="3.76353">
        <ele>959.86</ele>
        <time>2022-03-21T10:41:07Z</time>
      </trkpt>
      <trkpt lat="44.77019" lon="3.7631">
        <ele>962.59</ele>
        <time>2022-03-21T10:41:10Z</time>
      </trkpt>
      <trkpt lat="44.7705" lon="3.76221">
        <ele>966.35</ele>
        <time>2022-03-21T10:41:14Z</time>
      </trkpt>
      <trkpt lat="44.77091" lon="3.76128">
        <ele>970.01</ele>
        <time>2022-03-21T10:41:17Z</time>
      </trkpt>
      <trkpt lat="44.77113" lon="3.76048">
        <ele>972.16</ele>
        <time>2022-03-21T10:41:20Z</time>
      </trkpt>
      <trkpt lat="44.77129" lon="3.7594">
        <ele>970.76</ele>
        <time>2022-03-21T10:41:23Z</time>
      </trkpt>
      <trkpt lat="44.77156" lon="3.7585">
        <ele>971.76</ele>
        <time>2022-03-21T10:41:26Z</time>
      </trkpt>
      <trkpt lat="44.77214" lon="3.75739">
        <ele>973.33</ele>
        <time>2022-03-21T10:41:29Z</time>
      </trkpt>
      <trkpt lat="44.7725" lon="3.75681">
        <ele>975.95</ele>
        <time>2022-03-21T10:41:32Z</time>
      </trkpt>
      <trkpt lat="44.77289" lon="3.75631">
        <ele>976.58</ele>
        <time>2022-03-21T10:41:35Z</time>
      </trkpt>
      <trkpt lat="44.77315" lon="3.75571">
        <ele>976.43</ele>
        <time>2022-03-21T10:41:38Z</time>
      </trkpt>
      <trkpt lat="44.77367" lon="3.75415">
        <ele>981.15</ele>
        <time>2022-03-21T10:41:41Z</time>
      </trkpt>
      <trkpt lat="44.77398" lon="3.75251">
        <ele>983.32</ele>
        <time>2022-03-21T10:41:44Z</time>
      </trkpt>
      <trkpt lat="44.77464" lon="3.75043">
        <ele>988</ele>
        <time>2022-03-21T10:41:47Z</time>
      </trkpt>
      <trkpt lat="44.77486" lon="3.74983">
        <ele>988.85</ele>
        <time>2022-03-21T10:41:50Z</time>
      </trkpt>
      <trkpt lat="44.77495" lon="3.74945">
        <ele>989.24</ele>
        <time>2022-03-21T10:41:53Z</time>
      </trkpt>
      <trkpt lat="44.77539" lon="3.74876">
        <ele>991.48</ele>
        <time>2022-03-21T10:41:57Z</time>
      </trkpt>
      <trkpt lat="44.77611" lon="3.74783">
        <ele>994.96</ele>
        <time>2022-03-21T10:42:00Z</time>
      </trkpt>
      <trkpt lat="44.7769" lon="3.74594">
        <ele>999.55</ele>
        <time>2022-03-21T10:42:03Z</time>
      </trkpt>
      <trkpt lat="44.77694" lon="3.74537">
        <ele>1001</ele>
        <time>2022-03-21T10:42:06Z</time>
      </trkpt>
      <trkpt lat="44.77682" lon="3.745">
        <ele>1001.55</ele>
        <time>2022-03-21T10:42:09Z</time>
      </trkpt>
      <trkpt lat="44.7765" lon="3.74485">
        <ele>1001</ele>
        <time>2022-03-21T10:42:12Z</time>
      </trkpt>
      <trkpt lat="44.77614" lon="3.74494">
        <ele>1003.16</ele>
        <time>2022-03-21T10:42:15Z</time>
      </trkpt>
      <trkpt lat="44.77521" lon="3.74571">
        <ele>1005.65</ele>
        <time>2022-03-21T10:42:18Z</time>
      </trkpt>
      <trkpt lat="44.77484" lon="3.74573">
        <ele>1008.05</ele>
        <time>2022-03-21T10:42:21Z</time>
      </trkpt>
      <trkpt lat="44.77433" lon="3.74539">
        <ele>1011.71</ele>
        <time>2022-03-21T10:42:24Z</time>
      </trkpt>
      <trkpt lat="44.7741" lon="3.74494">
        <ele>1013.5</ele>
        <time>2022-03-21T10:42:27Z</time>
      </trkpt>
      <trkpt lat="44.77365" lon="3.74464">
        <ele>1013.95</ele>
        <time>2022-03-21T10:42:30Z</time>
      </trkpt>
      <trkpt lat="44.77298" lon="3.74332">
        <ele>1018.82</ele>
        <time>2022-03-21T10:42:33Z</time>
      </trkpt>
      <trkpt lat="44.77293" lon="3.74283">
        <ele>1016.44</ele>
        <time>2022-03-21T10:42:37Z</time>
      </trkpt>
      <trkpt lat="44.77308" lon="3.74168">
        <ele>1021.7</ele>
        <time>2022-03-21T10:42:40Z</time>
      </trkpt>
      <trkpt lat="44.77317" lon="3.74058">
        <ele>1024.19</ele>
        <time>2022-03-21T10:42:43Z</time>
      </trkpt>
      <trkpt lat="44.77335" lon="3.74003">
        <ele>1027.63</ele>
        <time>2022-03-21T10:42:46Z</time>
      </trkpt>
      <trkpt lat="44.77387" lon="3.73903">
        <ele>1031.67</ele>
        <time>2022-03-21T10:42:49Z</time>
      </trkpt>
      <trkpt lat="44.77403" lon="3.73868">
        <ele>1031.46</ele>
        <time>2022-03-21T10:42:52Z</time>
      </trkpt>
      <trkpt lat="44.77415" lon="3.7383">
        <ele>1029.6</ele>
        <time>2022-03-21T10:42:55Z</time>
      </trkpt>
      <trkpt lat="44.77422" lon="3.73796">
        <ele>1029.04</ele>
        <time>2022-03-21T10:42:58Z</time>
      </trkpt>
      <trkpt lat="44.77422" lon="3.73767">
        <ele>1029.33</ele>
        <time>2022-03-21T10:43:01Z</time>
      </trkpt>
      <trkpt lat="44.77415" lon="3.7369">
        <ele>1032.92</ele>
        <time>2022-03-21T10:43:04Z</time>
      </trkpt>
      <trkpt lat="44.77414" lon="3.73647">
        <ele>1033.63</ele>
        <time>2022-03-21T10:43:07Z</time>
      </trkpt>
      <trkpt lat="44.77418" lon="3.73602">
        <ele>1036.32</ele>
        <time>2022-03-21T10:43:10Z</time>
      </trkpt>
      <trkpt lat="44.77426" lon="3.73565">
        <ele>1037.88</ele>
        <time>2022-03-21T10:43:13Z</time>
      </trkpt>
      <trkpt lat="44.77438" lon="3.7353">
        <ele>1040.61</ele>
        <time>2022-03-21T10:43:16Z</time>
      </trkpt>
      <trkpt lat="44.77442" lon="3.73503">
        <ele>1041.82</ele>
        <time>2022-03-21T10:43:20Z</time>
      </trkpt>
      <trkpt lat="44.77439" lon="3.73474">
        <ele>1041.65</ele>
        <time>2022-03-21T10:43:23Z</time>
      </trkpt>
      <trkpt lat="44.77424" lon="3.73387">
        <ele>1040.49</ele>
        <time>2022-03-21T10:43:26Z</time>
      </trkpt>
      <trkpt lat="44.77415" lon="3.73266">
        <ele>1036.79</ele>
        <time>2022-03-21T10:43:29Z</time>
      </trkpt>
      <trkpt lat="44.77417" lon="3.73203">
        <ele>1035.99</ele>
        <time>2022-03-21T10:43:32Z</time>
      </trkpt>
      <trkpt lat="44.77425" lon="3.73126">
        <ele>1032.41</ele>
        <time>2022-03-21T10:43:35Z</time>
      </trkpt>
      <trkpt lat="44.77436" lon="3.73054">
        <ele>1030.68</ele>
        <time>2022-03-21T10:43:38Z</time>
      </trkpt>
      <trkpt lat="44.77449" lon="3.73013">
        <ele>1030.82</ele>
        <time>2022-03-21T10:43:41Z</time>
      </trkpt>
      <trkpt lat="44.77465" lon="3.72981">
        <ele>1028.57</ele>
        <time>2022-03-21T10:43:44Z</time>
      </trkpt>
      <trkpt lat="44.77494" lon="3.72943">
        <ele>1025.94</ele>
        <time>2022-03-21T10:43:47Z</time>
      </trkpt>
      <trkpt lat="44.77539" lon="3.72896">
        <ele>1020.45</ele>
        <time>2022-03-21T10:43:50Z</time>
      </trkpt>
      <trkpt lat="44.77601" lon="3.72837">
        <ele>1015.13</ele>
        <time>2022-03-21T10:43:53Z</time>
      </trkpt>
      <trkpt lat="44.77648" lon="3.72786">
        <ele>1012</ele>
        <time>2022-03-21T10:43:56Z</time>
      </trkpt>
      <trkpt lat="44.77664" lon="3.72763">
        <ele>1012</ele>
        <time>2022-03-21T10:43:59Z</time>
      </trkpt>
      <trkpt lat="44.7768" lon="3.72723">
        <ele>1011.07</ele>
        <time>2022-03-21T10:44:03Z</time>
      </trkpt>
      <trkpt lat="44.77719" lon="3.726">
        <ele>1001.45</ele>
        <time>2022-03-21T10:44:06Z</time>
      </trkpt>
      <trkpt lat="44.77732" lon="3.72572">
        <ele>1001.06</ele>
        <time>2022-03-21T10:44:09Z</time>
      </trkpt>
      <trkpt lat="44.77747" lon="3.72547">
        <ele>1001.45</ele>
        <time>2022-03-21T10:44:12Z</time>
      </trkpt>
      <trkpt lat="44.77756" lon="3.72518">
        <ele>1002.56</ele>
        <time>2022-03-21T10:44:15Z</time>
      </trkpt>
      <trkpt lat="44.77771" lon="3.7232">
        <ele>1011.48</ele>
        <time>2022-03-21T10:44:18Z</time>
      </trkpt>
      <trkpt lat="44.7777" lon="3.72285">
        <ele>1011.06</ele>
        <time>2022-03-21T10:44:21Z</time>
      </trkpt>
      <trkpt lat="44.77763" lon="3.72258">
        <ele>1010.79</ele>
        <time>2022-03-21T10:44:24Z</time>
      </trkpt>
      <trkpt lat="44.77744" lon="3.72193">
        <ele>1008.09</ele>
        <time>2022-03-21T10:44:27Z</time>
      </trkpt>
      <trkpt lat="44.77739" lon="3.72156">
        <ele>1006.98</ele>
        <time>2022-03-21T10:44:30Z</time>
      </trkpt>
      <trkpt lat="44.77732" lon="3.7199">
        <ele>1000.2</ele>
        <time>2022-03-21T10:44:33Z</time>
      </trkpt>
      <trkpt lat="44.77734" lon="3.71956">
        <ele>999.51</ele>
        <time>2022-03-21T10:44:36Z</time>
      </trkpt>
      <trkpt lat="44.77744" lon="3.71893">
        <ele>999.29</ele>
        <time>2022-03-21T10:44:39Z</time>
      </trkpt>
      <trkpt lat="44.77747" lon="3.71847">
        <ele>997.4</ele>
        <time>2022-03-21T10:44:43Z</time>
      </trkpt>
      <trkpt lat="44.77753" lon="3.71822">
        <ele>995.21</ele>
        <time>2022-03-21T10:44:46Z</time>
      </trkpt>
      <trkpt lat="44.77768" lon="3.71798">
        <ele>994.54</ele>
        <time>2022-03-21T10:44:49Z</time>
      </trkpt>
      <trkpt lat="44.77768" lon="3.71798">
        <ele>994.54</ele>
        <time>2022-03-21T10:44:49Z</time>
      </trkpt>
      <trkpt lat="44.77785" lon="3.71781">
        <ele>992.93</ele>
        <time>2022-03-21T10:44:51Z</time>
      </trkpt>
      <trkpt lat="44.77812" lon="3.71762">
        <ele>995.07</ele>
        <time>2022-03-21T10:44:52Z</time>
      </trkpt>
      <trkpt lat="44.77848" lon="3.71714">
        <ele>992.47</ele>
        <time>2022-03-21T10:44:54Z</time>
      </trkpt>
      <trkpt lat="44.77868" lon="3.71693">
        <ele>989.51</ele>
        <time>2022-03-21T10:44:56Z</time>
      </trkpt>
      <trkpt lat="44.77909" lon="3.71661">
        <ele>984.55</ele>
        <time>2022-03-21T10:44:58Z</time>
      </trkpt>
      <trkpt lat="44.77941" lon="3.7164">
        <ele>981.37</ele>
        <time>2022-03-21T10:45:00Z</time>
      </trkpt>
      <trkpt lat="44.77999" lon="3.71615">
        <ele>978.54</ele>
        <time>2022-03-21T10:45:02Z</time>
      </trkpt>
      <trkpt lat="44.78025" lon="3.71592">
        <ele>978.45</ele>
        <time>2022-03-21T10:45:04Z</time>
      </trkpt>
      <trkpt lat="44.78048" lon="3.71557">
        <ele>975.88</ele>
        <time>2022-03-21T10:45:06Z</time>
      </trkpt>
      <trkpt lat="44.78062" lon="3.71519">
        <ele>971.84</ele>
        <time>2022-03-21T10:45:08Z</time>
      </trkpt>
      <trkpt lat="44.78076" lon="3.71488">
        <ele>967.78</ele>
        <time>2022-03-21T10:45:09Z</time>
      </trkpt>
      <trkpt lat="44.78092" lon="3.71472">
        <ele>966.17</ele>
        <time>2022-03-21T10:45:11Z</time>
      </trkpt>
      <trkpt lat="44.78123" lon="3.71461">
        <ele>963.59</ele>
        <time>2022-03-21T10:45:13Z</time>
      </trkpt>
      <trkpt lat="44.78149" lon="3.71463">
        <ele>961.8</ele>
        <time>2022-03-21T10:45:15Z</time>
      </trkpt>
      <trkpt lat="44.78175" lon="3.71474">
        <ele>961.85</ele>
        <time>2022-03-21T10:45:17Z</time>
      </trkpt>
      <trkpt lat="44.78192" lon="3.71473">
        <ele>960.41</ele>
        <time>2022-03-21T10:45:19Z</time>
      </trkpt>
      <trkpt lat="44.78211" lon="3.7146">
        <ele>959.32</ele>
        <time>2022-03-21T10:45:21Z</time>
      </trkpt>
      <trkpt lat="44.78335" lon="3.71293">
        <ele>945.45</ele>
        <time>2022-03-21T10:45:23Z</time>
      </trkpt>
      <trkpt lat="44.78387" lon="3.71193">
        <ele>936.66</ele>
        <time>2022-03-21T10:45:24Z</time>
      </trkpt>
      <trkpt lat="44.78409" lon="3.71146">
        <ele>930.38</ele>
        <time>2022-03-21T10:45:26Z</time>
      </trkpt>
      <trkpt lat="44.78427" lon="3.71094">
        <ele>927.01</ele>
        <time>2022-03-21T10:45:28Z</time>
      </trkpt>
      <trkpt lat="44.78439" lon="3.71033">
        <ele>925.85</ele>
        <time>2022-03-21T10:45:30Z</time>
      </trkpt>
      <trkpt lat="44.78451" lon="3.70941">
        <ele>920.87</ele>
        <time>2022-03-21T10:45:32Z</time>
      </trkpt>
      <trkpt lat="44.78461" lon="3.709">
        <ele>915.96</ele>
        <time>2022-03-21T10:45:34Z</time>
      </trkpt>
      <trkpt lat="44.7847" lon="3.70879">
        <ele>914.37</ele>
        <time>2022-03-21T10:45:36Z</time>
      </trkpt>
      <trkpt lat="44.78514" lon="3.70831">
        <ele>913.12</ele>
        <time>2022-03-21T10:45:38Z</time>
      </trkpt>
      <trkpt lat="44.78519" lon="3.70815">
        <ele>911.86</ele>
        <time>2022-03-21T10:45:40Z</time>
      </trkpt>
      <trkpt lat="44.78525" lon="3.70813">
        <ele>913.11</ele>
        <time>2022-03-21T10:45:42Z</time>
      </trkpt>
      <trkpt lat="44.78528" lon="3.70806">
        <ele>913.16</ele>
        <time>2022-03-21T10:45:44Z</time>
      </trkpt>
      <trkpt lat="44.78527" lon="3.70795">
        <ele>910.98</ele>
        <time>2022-03-21T10:45:46Z</time>
      </trkpt>
      <trkpt lat="44.78562" lon="3.70774">
        <ele>914.42</ele>
        <time>2022-03-21T10:45:48Z</time>
      </trkpt>
      <trkpt lat="44.7861" lon="3.70749">
        <ele>911.73</ele>
        <time>2022-03-21T10:45:50Z</time>
      </trkpt>
      <trkpt lat="44.78664" lon="3.70713">
        <ele>904.98</ele>
        <time>2022-03-21T10:45:52Z</time>
      </trkpt>
      <trkpt lat="44.78684" lon="3.70715">
        <ele>903.34</ele>
        <time>2022-03-21T10:45:54Z</time>
      </trkpt>
      <trkpt lat="44.78701" lon="3.70733">
        <ele>902.13</ele>
        <time>2022-03-21T10:45:56Z</time>
      </trkpt>
      <trkpt lat="44.78716" lon="3.70811">
        <ele>905.5</ele>
        <time>2022-03-21T10:45:59Z</time>
      </trkpt>
      <trkpt lat="44.78727" lon="3.70838">
        <ele>906.43</ele>
        <time>2022-03-21T10:46:01Z</time>
      </trkpt>
      <trkpt lat="44.78765" lon="3.70902">
        <ele>905.24</ele>
        <time>2022-03-21T10:46:03Z</time>
      </trkpt>
      <trkpt lat="44.78793" lon="3.7097">
        <ele>903.95</ele>
        <time>2022-03-21T10:46:05Z</time>
      </trkpt>
      <trkpt lat="44.78865" lon="3.71074">
        <ele>911.07</ele>
        <time>2022-03-21T10:46:07Z</time>
      </trkpt>
      <trkpt lat="44.789" lon="3.7109">
        <ele>911.62</ele>
        <time>2022-03-21T10:46:09Z</time>
      </trkpt>
      <trkpt lat="44.78929" lon="3.71084">
        <ele>907.8</ele>
        <time>2022-03-21T10:46:11Z</time>
      </trkpt>
      <trkpt lat="44.78976" lon="3.71059">
        <ele>902.93</ele>
        <time>2022-03-21T10:46:13Z</time>
      </trkpt>
      <trkpt lat="44.79017" lon="3.70978">
        <ele>902.42</ele>
        <time>2022-03-21T10:46:16Z</time>
      </trkpt>
      <trkpt lat="44.79023" lon="3.70933">
        <ele>903.84</ele>
        <time>2022-03-21T10:46:18Z</time>
      </trkpt>
      <trkpt lat="44.79017" lon="3.70874">
        <ele>897.79</ele>
        <time>2022-03-21T10:46:20Z</time>
      </trkpt>
      <trkpt lat="44.7902" lon="3.70834">
        <ele>895.13</ele>
        <time>2022-03-21T10:46:22Z</time>
      </trkpt>
      <trkpt lat="44.79039" lon="3.70796">
        <ele>895.85</ele>
        <time>2022-03-21T10:46:24Z</time>
      </trkpt>
      <trkpt lat="44.7906" lon="3.70773">
        <ele>894.53</ele>
        <time>2022-03-21T10:46:26Z</time>
      </trkpt>
      <trkpt lat="44.7909" lon="3.70767">
        <ele>897.26</ele>
        <time>2022-03-21T10:46:28Z</time>
      </trkpt>
      <trkpt lat="44.79141" lon="3.70779">
        <ele>900.13</ele>
        <time>2022-03-21T10:46:30Z</time>
      </trkpt>
      <trkpt lat="44.79165" lon="3.70793">
        <ele>892.65</ele>
        <time>2022-03-21T10:46:32Z</time>
      </trkpt>
      <trkpt lat="44.79204" lon="3.70835">
        <ele>895.7</ele>
        <time>2022-03-21T10:46:35Z</time>
      </trkpt>
      <trkpt lat="44.79265" lon="3.70883">
        <ele>896.64</ele>
        <time>2022-03-21T10:46:37Z</time>
      </trkpt>
      <trkpt lat="44.79342" lon="3.70969">
        <ele>891.01</ele>
        <time>2022-03-21T10:46:39Z</time>
      </trkpt>
      <trkpt lat="44.79375" lon="3.70991">
        <ele>891.11</ele>
        <time>2022-03-21T10:46:41Z</time>
      </trkpt>
      <trkpt lat="44.79414" lon="3.70989">
        <ele>892.86</ele>
        <time>2022-03-21T10:46:43Z</time>
      </trkpt>
      <trkpt lat="44.79488" lon="3.70956">
        <ele>896.07</ele>
        <time>2022-03-21T10:46:45Z</time>
      </trkpt>
      <trkpt lat="44.79521" lon="3.7092">
        <ele>894.62</ele>
        <time>2022-03-21T10:46:47Z</time>
      </trkpt>
      <trkpt lat="44.79558" lon="3.70841">
        <ele>884.43</ele>
        <time>2022-03-21T10:46:49Z</time>
      </trkpt>
      <trkpt lat="44.79605" lon="3.70787">
        <ele>889.63</ele>
        <time>2022-03-21T10:46:52Z</time>
      </trkpt>
      <trkpt lat="44.79619" lon="3.70755">
        <ele>888.2</ele>
        <time>2022-03-21T10:46:54Z</time>
      </trkpt>
      <trkpt lat="44.79688" lon="3.70408">
        <ele>884.32</ele>
        <time>2022-03-21T10:46:56Z</time>
      </trkpt>
      <trkpt lat="44.79704" lon="3.70364">
        <ele>886.14</ele>
        <time>2022-03-21T10:46:58Z</time>
      </trkpt>
      <trkpt lat="44.7973" lon="3.70327">
        <ele>889.42</ele>
        <time>2022-03-21T10:47:00Z</time>
      </trkpt>
      <trkpt lat="44.79821" lon="3.70249">
        <ele>887.7</ele>
        <time>2022-03-21T10:47:02Z</time>
      </trkpt>
      <trkpt lat="44.79849" lon="3.70228">
        <ele>886.47</ele>
        <time>2022-03-21T10:47:04Z</time>
      </trkpt>
      <trkpt lat="44.79922" lon="3.7019">
        <ele>886.79</ele>
        <time>2022-03-21T10:47:06Z</time>
      </trkpt>
      <trkpt lat="44.80024" lon="3.70151">
        <ele>893.34</ele>
        <time>2022-03-21T10:47:08Z</time>
      </trkpt>
      <trkpt lat="44.80062" lon="3.70132">
        <ele>889.2</ele>
        <time>2022-03-21T10:47:11Z</time>
      </trkpt>
      <trkpt lat="44.80114" lon="3.7009">
        <ele>886.9</ele>
        <time>2022-03-21T10:47:13Z</time>
      </trkpt>
      <trkpt lat="44.80146" lon="3.70055">
        <ele>886.53</ele>
        <time>2022-03-21T10:47:15Z</time>
      </trkpt>
      <trkpt lat="44.80168" lon="3.70022">
        <ele>882.68</ele>
        <time>2022-03-21T10:47:17Z</time>
      </trkpt>
      <trkpt lat="44.80187" lon="3.69987">
        <ele>882.92</ele>
        <time>2022-03-21T10:47:19Z</time>
      </trkpt>
      <trkpt lat="44.8024" lon="3.69876">
        <ele>885.35</ele>
        <time>2022-03-21T10:47:21Z</time>
      </trkpt>
      <trkpt lat="44.80256" lon="3.69853">
        <ele>887.14</ele>
        <time>2022-03-21T10:47:23Z</time>
      </trkpt>
      <trkpt lat="44.80275" lon="3.69832">
        <ele>888.43</ele>
        <time>2022-03-21T10:47:25Z</time>
      </trkpt>
      <trkpt lat="44.80293" lon="3.69814">
        <ele>887.22</ele>
        <time>2022-03-21T10:47:28Z</time>
      </trkpt>
      <trkpt lat="44.80307" lon="3.69803">
        <ele>885.64</ele>
        <time>2022-03-21T10:47:30Z</time>
      </trkpt>
      <trkpt lat="44.80314" lon="3.698">
        <ele>884.65</ele>
        <time>2022-03-21T10:47:32Z</time>
      </trkpt>
      <trkpt lat="44.8033" lon="3.69795">
        <ele>882.44</ele>
        <time>2022-03-21T10:47:34Z</time>
      </trkpt>
      <trkpt lat="44.80352" lon="3.69798">
        <ele>880.11</ele>
        <time>2022-03-21T10:47:36Z</time>
      </trkpt>
      <trkpt lat="44.80389" lon="3.69808">
        <ele>879.36</ele>
        <time>2022-03-21T10:47:38Z</time>
      </trkpt>
      <trkpt lat="44.80461" lon="3.69812">
        <ele>878.61</ele>
        <time>2022-03-21T10:47:40Z</time>
      </trkpt>
      <trkpt lat="44.80476" lon="3.69809">
        <ele>879.6</ele>
        <time>2022-03-21T10:47:42Z</time>
      </trkpt>
      <trkpt lat="44.80489" lon="3.69802">
        <ele>880.74</ele>
        <time>2022-03-21T10:47:44Z</time>
      </trkpt>
      <trkpt lat="44.80535" lon="3.69767">
        <ele>876.54</ele>
        <time>2022-03-21T10:47:47Z</time>
      </trkpt>
      <trkpt lat="44.80554" lon="3.69748">
        <ele>873.94</ele>
        <time>2022-03-21T10:47:49Z</time>
      </trkpt>
      <trkpt lat="44.80582" lon="3.69702">
        <ele>869.45</ele>
        <time>2022-03-21T10:47:51Z</time>
      </trkpt>
      <trkpt lat="44.80594" lon="3.69688">
        <ele>870.33</ele>
        <time>2022-03-21T10:47:53Z</time>
      </trkpt>
      <trkpt lat="44.80633" lon="3.69653">
        <ele>872.81</ele>
        <time>2022-03-21T10:47:55Z</time>
      </trkpt>
      <trkpt lat="44.80671" lon="3.69627">
        <ele>869.11</ele>
        <time>2022-03-21T10:47:57Z</time>
      </trkpt>
      <trkpt lat="44.80749" lon="3.69613">
        <ele>865.27</ele>
        <time>2022-03-21T10:47:59Z</time>
      </trkpt>
      <trkpt lat="44.80773" lon="3.69614">
        <ele>864.3</ele>
        <time>2022-03-21T10:48:01Z</time>
      </trkpt>
      <trkpt lat="44.80773" lon="3.69614">
        <ele>864.3</ele>
        <time>2022-03-21T10:48:01Z</time>
      </trkpt>
      <trkpt lat="44.80775" lon="3.69614">
        <ele>863.34</ele>
        <time>2022-03-21T10:48:01Z</time>
      </trkpt>
      <trkpt lat="44.80781" lon="3.69644">
        <ele>863.82</ele>
        <time>2022-03-21T10:48:03Z</time>
      </trkpt>
      <trkpt lat="44.80779" lon="3.69718">
        <ele>868.47</ele>
        <time>2022-03-21T10:48:05Z</time>
      </trkpt>
      <trkpt lat="44.80784" lon="3.69806">
        <ele>875.43</ele>
        <time>2022-03-21T10:48:07Z</time>
      </trkpt>
      <trkpt lat="44.80794" lon="3.69856">
        <ele>876.04</ele>
        <time>2022-03-21T10:48:09Z</time>
      </trkpt>
      <trkpt lat="44.80844" lon="3.7">
        <ele>876.91</ele>
        <time>2022-03-21T10:48:11Z</time>
      </trkpt>
      <trkpt lat="44.80873" lon="3.70043">
        <ele>874.28</ele>
        <time>2022-03-21T10:48:13Z</time>
      </trkpt>
      <trkpt lat="44.80917" lon="3.7009">
        <ele>870.65</ele>
        <time>2022-03-21T10:48:15Z</time>
      </trkpt>
      <trkpt lat="44.80949" lon="3.7013">
        <ele>869.45</ele>
        <time>2022-03-21T10:48:17Z</time>
      </trkpt>
      <trkpt lat="44.80971" lon="3.70144">
        <ele>869.4</ele>
        <time>2022-03-21T10:48:19Z</time>
      </trkpt>
      <trkpt lat="44.81022" lon="3.70157">
        <ele>865.97</ele>
        <time>2022-03-21T10:48:21Z</time>
      </trkpt>
      <trkpt lat="44.81096" lon="3.70223">
        <ele>864.71</ele>
        <time>2022-03-21T10:48:23Z</time>
      </trkpt>
      <trkpt lat="44.81103" lon="3.70242">
        <ele>865.29</ele>
        <time>2022-03-21T10:48:24Z</time>
      </trkpt>
      <trkpt lat="44.81102" lon="3.70258">
        <ele>865.94</ele>
        <time>2022-03-21T10:48:26Z</time>
      </trkpt>
      <trkpt lat="44.81093" lon="3.7028">
        <ele>866.88</ele>
        <time>2022-03-21T10:48:28Z</time>
      </trkpt>
      <trkpt lat="44.81027" lon="3.70377">
        <ele>868.52</ele>
        <time>2022-03-21T10:48:30Z</time>
      </trkpt>
      <trkpt lat="44.81023" lon="3.70407">
        <ele>868.88</ele>
        <time>2022-03-21T10:48:32Z</time>
      </trkpt>
      <trkpt lat="44.8103" lon="3.70424">
        <ele>868.68</ele>
        <time>2022-03-21T10:48:34Z</time>
      </trkpt>
      <trkpt lat="44.81055" lon="3.7047">
        <ele>865.03</ele>
        <time>2022-03-21T10:48:36Z</time>
      </trkpt>
      <trkpt lat="44.81092" lon="3.70525">
        <ele>861.01</ele>
        <time>2022-03-21T10:48:38Z</time>
      </trkpt>
      <trkpt lat="44.81128" lon="3.70587">
        <ele>862.2</ele>
        <time>2022-03-21T10:48:40Z</time>
      </trkpt>
      <trkpt lat="44.81192" lon="3.70639">
        <ele>861.61</ele>
        <time>2022-03-21T10:48:42Z</time>
      </trkpt>
      <trkpt lat="44.81227" lon="3.70682">
        <ele>865.59</ele>
        <time>2022-03-21T10:48:44Z</time>
      </trkpt>
      <trkpt lat="44.81263" lon="3.70719">
        <ele>865.35</ele>
        <time>2022-03-21T10:48:45Z</time>
      </trkpt>
      <trkpt lat="44.81306" lon="3.70724">
        <ele>866.93</ele>
        <time>2022-03-21T10:48:47Z</time>
      </trkpt>
      <trkpt lat="44.81331" lon="3.70724">
        <ele>868.87</ele>
        <time>2022-03-21T10:48:49Z</time>
      </trkpt>
      <trkpt lat="44.81355" lon="3.70714">
        <ele>868.5</ele>
        <time>2022-03-21T10:48:51Z</time>
      </trkpt>
      <trkpt lat="44.81371" lon="3.70681">
        <ele>860.03</ele>
        <time>2022-03-21T10:48:53Z</time>
      </trkpt>
      <trkpt lat="44.81376" lon="3.70653">
        <ele>854.34</ele>
        <time>2022-03-21T10:48:55Z</time>
      </trkpt>
      <trkpt lat="44.81384" lon="3.70628">
        <ele>852.01</ele>
        <time>2022-03-21T10:48:57Z</time>
      </trkpt>
      <trkpt lat="44.81419" lon="3.70585">
        <ele>856.77</ele>
        <time>2022-03-21T10:48:59Z</time>
      </trkpt>
      <trkpt lat="44.8145" lon="3.70541">
        <ele>853.88</ele>
        <time>2022-03-21T10:49:01Z</time>
      </trkpt>
      <trkpt lat="44.81475" lon="3.70526">
        <ele>853.52</ele>
        <time>2022-03-21T10:49:03Z</time>
      </trkpt>
      <trkpt lat="44.81486" lon="3.70528">
        <ele>852.51</ele>
        <time>2022-03-21T10:49:05Z</time>
      </trkpt>
      <trkpt lat="44.815" lon="3.70542">
        <ele>853.02</ele>
        <time>2022-03-21T10:49:07Z</time>
      </trkpt>
      <trkpt lat="44.81525" lon="3.70598">
        <ele>853.64</ele>
        <time>2022-03-21T10:49:08Z</time>
      </trkpt>
      <trkpt lat="44.81549" lon="3.7064">
        <ele>859.52</ele>
        <time>2022-03-21T10:49:10Z</time>
      </trkpt>
      <trkpt lat="44.81567" lon="3.70663">
        <ele>861.14</ele>
        <time>2022-03-21T10:49:12Z</time>
      </trkpt>
      <trkpt lat="44.81592" lon="3.70669">
        <ele>851.74</ele>
        <time>2022-03-21T10:49:14Z</time>
      </trkpt>
      <trkpt lat="44.81621" lon="3.70685">
        <ele>850.13</ele>
        <time>2022-03-21T10:49:16Z</time>
      </trkpt>
      <trkpt lat="44.8165" lon="3.70714">
        <ele>848.84</ele>
        <time>2022-03-21T10:49:18Z</time>
      </trkpt>
      <trkpt lat="44.81686" lon="3.70742">
        <ele>846.74</ele>
        <time>2022-03-21T10:49:20Z</time>
      </trkpt>
      <trkpt lat="44.81744" lon="3.70793">
        <ele>841.66</ele>
        <time>2022-03-21T10:49:22Z</time>
      </trkpt>
      <trkpt lat="44.81758" lon="3.70837">
        <ele>841.6</ele>
        <time>2022-03-21T10:49:24Z</time>
      </trkpt>
      <trkpt lat="44.81758" lon="3.70873">
        <ele>843.76</ele>
        <time>2022-03-21T10:49:26Z</time>
      </trkpt>
      <trkpt lat="44.81753" lon="3.70918">
        <ele>843.95</ele>
        <time>2022-03-21T10:49:28Z</time>
      </trkpt>
      <trkpt lat="44.81747" lon="3.70952">
        <ele>842.44</ele>
        <time>2022-03-21T10:49:29Z</time>
      </trkpt>
      <trkpt lat="44.81743" lon="3.70988">
        <ele>844.38</ele>
        <time>2022-03-21T10:49:31Z</time>
      </trkpt>
      <trkpt lat="44.81757" lon="3.7103">
        <ele>842.61</ele>
        <time>2022-03-21T10:49:33Z</time>
      </trkpt>
      <trkpt lat="44.81757" lon="3.71064">
        <ele>843.02</ele>
        <time>2022-03-21T10:49:35Z</time>
      </trkpt>
      <trkpt lat="44.81751" lon="3.71153">
        <ele>845.86</ele>
        <time>2022-03-21T10:49:37Z</time>
      </trkpt>
      <trkpt lat="44.81751" lon="3.71188">
        <ele>848.61</ele>
        <time>2022-03-21T10:49:39Z</time>
      </trkpt>
      <trkpt lat="44.81757" lon="3.712">
        <ele>845.65</ele>
        <time>2022-03-21T10:49:41Z</time>
      </trkpt>
      <trkpt lat="44.81798" lon="3.71216">
        <ele>832.76</ele>
        <time>2022-03-21T10:49:43Z</time>
      </trkpt>
      <trkpt lat="44.81827" lon="3.71233">
        <ele>835.92</ele>
        <time>2022-03-21T10:49:45Z</time>
      </trkpt>
      <trkpt lat="44.81841" lon="3.7126">
        <ele>838.03</ele>
        <time>2022-03-21T10:49:47Z</time>
      </trkpt>
      <trkpt lat="44.81852" lon="3.71334">
        <ele>838.88</ele>
        <time>2022-03-21T10:49:49Z</time>
      </trkpt>
      <trkpt lat="44.81857" lon="3.71384">
        <ele>840.5</ele>
        <time>2022-03-21T10:49:50Z</time>
      </trkpt>
      <trkpt lat="44.81854" lon="3.71411">
        <ele>840.01</ele>
        <time>2022-03-21T10:49:52Z</time>
      </trkpt>
      <trkpt lat="44.81808" lon="3.71525">
        <ele>843.15</ele>
        <time>2022-03-21T10:49:54Z</time>
      </trkpt>
      <trkpt lat="44.81793" lon="3.71545">
        <ele>844.77</ele>
        <time>2022-03-21T10:49:56Z</time>
      </trkpt>
      <trkpt lat="44.81738" lon="3.71585">
        <ele>838.71</ele>
        <time>2022-03-21T10:49:58Z</time>
      </trkpt>
      <trkpt lat="44.8172" lon="3.7159">
        <ele>837.48</ele>
        <time>2022-03-21T10:50:00Z</time>
      </trkpt>
      <trkpt lat="44.81658" lon="3.71588">
        <ele>837.88</ele>
        <time>2022-03-21T10:50:02Z</time>
      </trkpt>
      <trkpt lat="44.8161" lon="3.71594">
        <ele>837.57</ele>
        <time>2022-03-21T10:50:04Z</time>
      </trkpt>
      <trkpt lat="44.81581" lon="3.71603">
        <ele>835.32</ele>
        <time>2022-03-21T10:50:06Z</time>
      </trkpt>
      <trkpt lat="44.81563" lon="3.71621">
        <ele>835.15</ele>
        <time>2022-03-21T10:50:08Z</time>
      </trkpt>
      <trkpt lat="44.8155" lon="3.71649">
        <ele>834.73</ele>
        <time>2022-03-21T10:50:10Z</time>
      </trkpt>
      <trkpt lat="44.8154" lon="3.71692">
        <ele>832.56</ele>
        <time>2022-03-21T10:50:12Z</time>
      </trkpt>
      <trkpt lat="44.81546" lon="3.72017">
        <ele>825.37</ele>
        <time>2022-03-21T10:50:13Z</time>
      </trkpt>
      <trkpt lat="44.81543" lon="3.72031">
        <ele>824.97</ele>
        <time>2022-03-21T10:50:15Z</time>
      </trkpt>
      <trkpt lat="44.81539" lon="3.72044">
        <ele>825.59</ele>
        <time>2022-03-21T10:50:17Z</time>
      </trkpt>
      <trkpt lat="44.81532" lon="3.72056">
        <ele>825.13</ele>
        <time>2022-03-21T10:50:19Z</time>
      </trkpt>
      <trkpt lat="44.81481" lon="3.7209">
        <ele>829.99</ele>
        <time>2022-03-21T10:50:21Z</time>
      </trkpt>
      <trkpt lat="44.81458" lon="3.72101">
        <ele>835.13</ele>
        <time>2022-03-21T10:50:23Z</time>
      </trkpt>
      <trkpt lat="44.81427" lon="3.72104">
        <ele>836.01</ele>
        <time>2022-03-21T10:50:25Z</time>
      </trkpt>
      <trkpt lat="44.81403" lon="3.72099">
        <ele>833.85</ele>
        <time>2022-03-21T10:50:27Z</time>
      </trkpt>
      <trkpt lat="44.81276" lon="3.72037">
        <ele>825.54</ele>
        <time>2022-03-21T10:50:29Z</time>
      </trkpt>
      <trkpt lat="44.81253" lon="3.72032">
        <ele>826.42</ele>
        <time>2022-03-21T10:50:31Z</time>
      </trkpt>
      <trkpt lat="44.8117" lon="3.72027">
        <ele>820.41</ele>
        <time>2022-03-21T10:50:33Z</time>
      </trkpt>
      <trkpt lat="44.81147" lon="3.72038">
        <ele>820.01</ele>
        <time>2022-03-21T10:50:34Z</time>
      </trkpt>
      <trkpt lat="44.81129" lon="3.72057">
        <ele>820.76</ele>
        <time>2022-03-21T10:50:36Z</time>
      </trkpt>
      <trkpt lat="44.81125" lon="3.72078">
        <ele>822.32</ele>
        <time>2022-03-21T10:50:38Z</time>
      </trkpt>
      <trkpt lat="44.81125" lon="3.72096">
        <ele>823.76</ele>
        <time>2022-03-21T10:50:40Z</time>
      </trkpt>
      <trkpt lat="44.81132" lon="3.7213">
        <ele>824.67</ele>
        <time>2022-03-21T10:50:42Z</time>
      </trkpt>
      <trkpt lat="44.81152" lon="3.72162">
        <ele>825.99</ele>
        <time>2022-03-21T10:50:44Z</time>
      </trkpt>
      <trkpt lat="44.81274" lon="3.7232">
        <ele>822.72</ele>
        <time>2022-03-21T10:50:46Z</time>
      </trkpt>
      <trkpt lat="44.81356" lon="3.72415">
        <ele>822.96</ele>
        <time>2022-03-21T10:50:48Z</time>
      </trkpt>
      <trkpt lat="44.81448" lon="3.72554">
        <ele>817.89</ele>
        <time>2022-03-21T10:50:50Z</time>
      </trkpt>
      <trkpt lat="44.81532" lon="3.72684">
        <ele>810.97</ele>
        <time>2022-03-21T10:50:52Z</time>
      </trkpt>
      <trkpt lat="44.81559" lon="3.72719">
        <ele>811.52</ele>
        <time>2022-03-21T10:50:54Z</time>
      </trkpt>
      <trkpt lat="44.81573" lon="3.72746">
        <ele>813.21</ele>
        <time>2022-03-21T10:50:55Z</time>
      </trkpt>
      <trkpt lat="44.81573" lon="3.7276">
        <ele>811.02</ele>
        <time>2022-03-21T10:50:57Z</time>
      </trkpt>
      <trkpt lat="44.81563" lon="3.72777">
        <ele>805.98</ele>
        <time>2022-03-21T10:50:59Z</time>
      </trkpt>
      <trkpt lat="44.81525" lon="3.72809">
        <ele>801.66</ele>
        <time>2022-03-21T10:51:01Z</time>
      </trkpt>
      <trkpt lat="44.81509" lon="3.72826">
        <ele>805.73</ele>
        <time>2022-03-21T10:51:03Z</time>
      </trkpt>
      <trkpt lat="44.81505" lon="3.72847">
        <ele>808.58</ele>
        <time>2022-03-21T10:51:05Z</time>
      </trkpt>
      <trkpt lat="44.81506" lon="3.7287">
        <ele>811.84</ele>
        <time>2022-03-21T10:51:07Z</time>
      </trkpt>
      <trkpt lat="44.81514" lon="3.72887">
        <ele>814.2</ele>
        <time>2022-03-21T10:51:09Z</time>
      </trkpt>
      <trkpt lat="44.8153" lon="3.729">
        <ele>815.19</ele>
        <time>2022-03-21T10:51:11Z</time>
      </trkpt>
      <trkpt lat="44.81569" lon="3.72917">
        <ele>814.02</ele>
        <time>2022-03-21T10:51:13Z</time>
      </trkpt>
      <trkpt lat="44.81604" lon="3.72939">
        <ele>817.07</ele>
        <time>2022-03-21T10:51:15Z</time>
      </trkpt>
      <trkpt lat="44.81631" lon="3.72948">
        <ele>817.72</ele>
        <time>2022-03-21T10:51:17Z</time>
      </trkpt>
      <trkpt lat="44.81669" lon="3.72953">
        <ele>818.58</ele>
        <time>2022-03-21T10:51:18Z</time>
      </trkpt>
      <trkpt lat="44.81754" lon="3.72974">
        <ele>815</ele>
        <time>2022-03-21T10:51:20Z</time>
      </trkpt>
      <trkpt lat="44.81791" lon="3.72999">
        <ele>810.35</ele>
        <time>2022-03-21T10:51:22Z</time>
      </trkpt>
      <trkpt lat="44.81826" lon="3.73042">
        <ele>812.25</ele>
        <time>2022-03-21T10:51:24Z</time>
      </trkpt>
      <trkpt lat="44.81868" lon="3.73103">
        <ele>812.38</ele>
        <time>2022-03-21T10:51:26Z</time>
      </trkpt>
      <trkpt lat="44.81879" lon="3.73144">
        <ele>813.22</ele>
        <time>2022-03-21T10:51:28Z</time>
      </trkpt>
      <trkpt lat="44.81884" lon="3.73207">
        <ele>812.31</ele>
        <time>2022-03-21T10:51:30Z</time>
      </trkpt>
      <trkpt lat="44.81892" lon="3.73259">
        <ele>807.94</ele>
        <time>2022-03-21T10:51:32Z</time>
      </trkpt>
      <trkpt lat="44.8189" lon="3.73283">
        <ele>807.34</ele>
        <time>2022-03-21T10:51:34Z</time>
      </trkpt>
      <trkpt lat="44.81879" lon="3.73302">
        <ele>808.86</ele>
        <time>2022-03-21T10:51:36Z</time>
      </trkpt>
      <trkpt lat="44.81851" lon="3.73331">
        <ele>809.56</ele>
        <time>2022-03-21T10:51:38Z</time>
      </trkpt>
      <trkpt lat="44.81818" lon="3.73343">
        <ele>809.45</ele>
        <time>2022-03-21T10:51:39Z</time>
      </trkpt>
      <trkpt lat="44.81769" lon="3.7337">
        <ele>805.22</ele>
        <time>2022-03-21T10:51:41Z</time>
      </trkpt>
      <trkpt lat="44.81728" lon="3.73396">
        <ele>806.7</ele>
        <time>2022-03-21T10:51:43Z</time>
      </trkpt>
      <trkpt lat="44.81691" lon="3.7344">
        <ele>810.53</ele>
        <time>2022-03-21T10:51:45Z</time>
      </trkpt>
      <trkpt lat="44.81676" lon="3.7348">
        <ele>809.21</ele>
        <time>2022-03-21T10:51:47Z</time>
      </trkpt>
      <trkpt lat="44.81667" lon="3.73534">
        <ele>808.09</ele>
        <time>2022-03-21T10:51:49Z</time>
      </trkpt>
      <trkpt lat="44.8166" lon="3.7362">
        <ele>809.5</ele>
        <time>2022-03-21T10:51:51Z</time>
      </trkpt>
      <trkpt lat="44.81664" lon="3.73665">
        <ele>807.86</ele>
        <time>2022-03-21T10:51:53Z</time>
      </trkpt>
      <trkpt lat="44.81669" lon="3.73685">
        <ele>806.89</ele>
        <time>2022-03-21T10:51:55Z</time>
      </trkpt>
      <trkpt lat="44.81669" lon="3.73685">
        <ele>806.89</ele>
        <time>2022-03-21T10:51:55Z</time>
      </trkpt>
      <trkpt lat="44.81683" lon="3.73702">
        <ele>803.84</ele>
        <time>2022-03-21T10:51:56Z</time>
      </trkpt>
      <trkpt lat="44.81719" lon="3.73716">
        <ele>803.45</ele>
        <time>2022-03-21T10:51:58Z</time>
      </trkpt>
      <trkpt lat="44.81815" lon="3.73795">
        <ele>803.92</ele>
        <time>2022-03-21T10:51:59Z</time>
      </trkpt>
      <trkpt lat="44.81848" lon="3.73813">
        <ele>806.24</ele>
        <time>2022-03-21T10:52:01Z</time>
      </trkpt>
      <trkpt lat="44.81908" lon="3.73818">
        <ele>801.9</ele>
        <time>2022-03-21T10:52:02Z</time>
      </trkpt>
      <trkpt lat="44.81949" lon="3.73814">
        <ele>802.33</ele>
        <time>2022-03-21T10:52:04Z</time>
      </trkpt>
      <trkpt lat="44.81981" lon="3.73791">
        <ele>794.64</ele>
        <time>2022-03-21T10:52:06Z</time>
      </trkpt>
      <trkpt lat="44.82013" lon="3.73783">
        <ele>794.01</ele>
        <time>2022-03-21T10:52:07Z</time>
      </trkpt>
      <trkpt lat="44.8204" lon="3.73784">
        <ele>795.57</ele>
        <time>2022-03-21T10:52:09Z</time>
      </trkpt>
      <trkpt lat="44.82074" lon="3.73793">
        <ele>798.45</ele>
        <time>2022-03-21T10:52:10Z</time>
      </trkpt>
      <trkpt lat="44.82112" lon="3.7379">
        <ele>797.37</ele>
        <time>2022-03-21T10:52:12Z</time>
      </trkpt>
      <trkpt lat="44.82205" lon="3.73787">
        <ele>798.05</ele>
        <time>2022-03-21T10:52:13Z</time>
      </trkpt>
      <trkpt lat="44.82229" lon="3.73776">
        <ele>797.8</ele>
        <time>2022-03-21T10:52:15Z</time>
      </trkpt>
      <trkpt lat="44.82241" lon="3.73759">
        <ele>793.87</ele>
        <time>2022-03-21T10:52:16Z</time>
      </trkpt>
      <trkpt lat="44.82259" lon="3.73741">
        <ele>790.15</ele>
        <time>2022-03-21T10:52:18Z</time>
      </trkpt>
      <trkpt lat="44.82278" lon="3.73738">
        <ele>789.82</ele>
        <time>2022-03-21T10:52:19Z</time>
      </trkpt>
      <trkpt lat="44.82293" lon="3.73741">
        <ele>792.83</ele>
        <time>2022-03-21T10:52:21Z</time>
      </trkpt>
      <trkpt lat="44.82331" lon="3.73733">
        <ele>793.3</ele>
        <time>2022-03-21T10:52:22Z</time>
      </trkpt>
      <trkpt lat="44.82381" lon="3.73749">
        <ele>796.61</ele>
        <time>2022-03-21T10:52:24Z</time>
      </trkpt>
      <trkpt lat="44.82442" lon="3.73745">
        <ele>792.23</ele>
        <time>2022-03-21T10:52:25Z</time>
      </trkpt>
      <trkpt lat="44.82491" lon="3.73727">
        <ele>791.26</ele>
        <time>2022-03-21T10:52:27Z</time>
      </trkpt>
      <trkpt lat="44.82524" lon="3.73701">
        <ele>786.06</ele>
        <time>2022-03-21T10:52:28Z</time>
      </trkpt>
      <trkpt lat="44.82552" lon="3.7369">
        <ele>790.49</ele>
        <time>2022-03-21T10:52:30Z</time>
      </trkpt>
      <trkpt lat="44.82564" lon="3.73689">
        <ele>792.76</ele>
        <time>2022-03-21T10:52:31Z</time>
      </trkpt>
      <trkpt lat="44.82583" lon="3.73694">
        <ele>797.68</ele>
        <time>2022-03-21T10:52:33Z</time>
      </trkpt>
      <trkpt lat="44.82591" lon="3.7369">
        <ele>797.76</ele>
        <time>2022-03-21T10:52:34Z</time>
      </trkpt>
      <trkpt lat="44.82598" lon="3.73682">
        <ele>795.51</ele>
        <time>2022-03-21T10:52:36Z</time>
      </trkpt>
      <trkpt lat="44.82611" lon="3.73661">
        <ele>788.34</ele>
        <time>2022-03-21T10:52:37Z</time>
      </trkpt>
      <trkpt lat="44.82621" lon="3.73651">
        <ele>789.41</ele>
        <time>2022-03-21T10:52:39Z</time>
      </trkpt>
      <trkpt lat="44.82642" lon="3.73609">
        <ele>784.77</ele>
        <time>2022-03-21T10:52:40Z</time>
      </trkpt>
      <trkpt lat="44.8266" lon="3.73584">
        <ele>784.56</ele>
        <time>2022-03-21T10:52:42Z</time>
      </trkpt>
      <trkpt lat="44.8268" lon="3.73537">
        <ele>778.92</ele>
        <time>2022-03-21T10:52:43Z</time>
      </trkpt>
      <trkpt lat="44.82693" lon="3.73515">
        <ele>777.11</ele>
        <time>2022-03-21T10:52:45Z</time>
      </trkpt>
      <trkpt lat="44.82705" lon="3.73499">
        <ele>773.47</ele>
        <time>2022-03-21T10:52:47Z</time>
      </trkpt>
      <trkpt lat="44.82712" lon="3.73493">
        <ele>772.44</ele>
        <time>2022-03-21T10:52:48Z</time>
      </trkpt>
      <trkpt lat="44.82719" lon="3.73492">
        <ele>771.68</ele>
        <time>2022-03-21T10:52:50Z</time>
      </trkpt>
      <trkpt lat="44.82737" lon="3.73498">
        <ele>772.14</ele>
        <time>2022-03-21T10:52:51Z</time>
      </trkpt>
      <trkpt lat="44.82744" lon="3.73507">
        <ele>773.92</ele>
        <time>2022-03-21T10:52:53Z</time>
      </trkpt>
      <trkpt lat="44.82747" lon="3.73518">
        <ele>776.18</ele>
        <time>2022-03-21T10:52:54Z</time>
      </trkpt>
      <trkpt lat="44.82752" lon="3.73545">
        <ele>781.55</ele>
        <time>2022-03-21T10:52:56Z</time>
      </trkpt>
      <trkpt lat="44.82756" lon="3.7356">
        <ele>783.13</ele>
        <time>2022-03-21T10:52:57Z</time>
      </trkpt>
      <trkpt lat="44.82777" lon="3.73598">
        <ele>789.34</ele>
        <time>2022-03-21T10:52:59Z</time>
      </trkpt>
      <trkpt lat="44.82783" lon="3.73606">
        <ele>790.07</ele>
        <time>2022-03-21T10:53:00Z</time>
      </trkpt>
      <trkpt lat="44.82825" lon="3.73639">
        <ele>779.51</ele>
        <time>2022-03-21T10:53:02Z</time>
      </trkpt>
      <trkpt lat="44.82831" lon="3.73645">
        <ele>779.92</ele>
        <time>2022-03-21T10:53:03Z</time>
      </trkpt>
      <trkpt lat="44.82844" lon="3.73668">
        <ele>786.7</ele>
        <time>2022-03-21T10:53:05Z</time>
      </trkpt>
      <trkpt lat="44.8285" lon="3.73674">
        <ele>789.29</ele>
        <time>2022-03-21T10:53:06Z</time>
      </trkpt>
      <trkpt lat="44.82863" lon="3.73675">
        <ele>788.76</ele>
        <time>2022-03-21T10:53:08Z</time>
      </trkpt>
      <trkpt lat="44.82924" lon="3.73662">
        <ele>778.57</ele>
        <time>2022-03-21T10:53:09Z</time>
      </trkpt>
      <trkpt lat="44.82933" lon="3.73659">
        <ele>778.15</ele>
        <time>2022-03-21T10:53:11Z</time>
      </trkpt>
      <trkpt lat="44.82956" lon="3.73632">
        <ele>767.45</ele>
        <time>2022-03-21T10:53:12Z</time>
      </trkpt>
      <trkpt lat="44.82977" lon="3.73625">
        <ele>772.33</ele>
        <time>2022-03-21T10:53:14Z</time>
      </trkpt>
      <trkpt lat="44.82986" lon="3.7362">
        <ele>775.11</ele>
        <time>2022-03-21T10:53:15Z</time>
      </trkpt>
      <trkpt lat="44.83021" lon="3.73585">
        <ele>773.54</ele>
        <time>2022-03-21T10:53:17Z</time>
      </trkpt>
      <trkpt lat="44.83056" lon="3.73539">
        <ele>759.02</ele>
        <time>2022-03-21T10:53:18Z</time>
      </trkpt>
      <trkpt lat="44.83066" lon="3.73532">
        <ele>759.85</ele>
        <time>2022-03-21T10:53:20Z</time>
      </trkpt>
      <trkpt lat="44.83077" lon="3.73529">
        <ele>761.96</ele>
        <time>2022-03-21T10:53:21Z</time>
      </trkpt>
      <trkpt lat="44.83104" lon="3.73516">
        <ele>767.22</ele>
        <time>2022-03-21T10:53:23Z</time>
      </trkpt>
      <trkpt lat="44.83158" lon="3.73495">
        <ele>763.69</ele>
        <time>2022-03-21T10:53:24Z</time>
      </trkpt>
      <trkpt lat="44.83175" lon="3.73493">
        <ele>761.95</ele>
        <time>2022-03-21T10:53:26Z</time>
      </trkpt>
      <trkpt lat="44.83182" lon="3.73497">
        <ele>762.37</ele>
        <time>2022-03-21T10:53:28Z</time>
      </trkpt>
      <trkpt lat="44.83195" lon="3.73512">
        <ele>765.8</ele>
        <time>2022-03-21T10:53:29Z</time>
      </trkpt>
      <trkpt lat="44.83221" lon="3.7353">
        <ele>766.99</ele>
        <time>2022-03-21T10:53:31Z</time>
      </trkpt>
      <trkpt lat="44.83263" lon="3.73548">
        <ele>761.42</ele>
        <time>2022-03-21T10:53:32Z</time>
      </trkpt>
      <trkpt lat="44.8328" lon="3.73558">
        <ele>759.47</ele>
        <time>2022-03-21T10:53:34Z</time>
      </trkpt>
      <trkpt lat="44.83331" lon="3.73604">
        <ele>757.31</ele>
        <time>2022-03-21T10:53:35Z</time>
      </trkpt>
      <trkpt lat="44.83364" lon="3.73654">
        <ele>762.64</ele>
        <time>2022-03-21T10:53:37Z</time>
      </trkpt>
      <trkpt lat="44.83394" lon="3.73671">
        <ele>758.78</ele>
        <time>2022-03-21T10:53:38Z</time>
      </trkpt>
      <trkpt lat="44.83413" lon="3.73693">
        <ele>763.39</ele>
        <time>2022-03-21T10:53:40Z</time>
      </trkpt>
      <trkpt lat="44.83424" lon="3.73701">
        <ele>764.37</ele>
        <time>2022-03-21T10:53:41Z</time>
      </trkpt>
      <trkpt lat="44.83442" lon="3.7371">
        <ele>763.22</ele>
        <time>2022-03-21T10:53:43Z</time>
      </trkpt>
      <trkpt lat="44.83475" lon="3.73722">
        <ele>761.78</ele>
        <time>2022-03-21T10:53:44Z</time>
      </trkpt>
      <trkpt lat="44.8351" lon="3.7373">
        <ele>761.12</ele>
        <time>2022-03-21T10:53:46Z</time>
      </trkpt>
      <trkpt lat="44.83688" lon="3.73742">
        <ele>750.52</ele>
        <time>2022-03-21T10:53:47Z</time>
      </trkpt>
      <trkpt lat="44.83716" lon="3.73752">
        <ele>748.18</ele>
        <time>2022-03-21T10:53:49Z</time>
      </trkpt>
      <trkpt lat="44.83732" lon="3.73762">
        <ele>748.26</ele>
        <time>2022-03-21T10:53:50Z</time>
      </trkpt>
      <trkpt lat="44.83744" lon="3.73772">
        <ele>747.95</ele>
        <time>2022-03-21T10:53:52Z</time>
      </trkpt>
      <trkpt lat="44.83772" lon="3.73804">
        <ele>750.72</ele>
        <time>2022-03-21T10:53:53Z</time>
      </trkpt>
      <trkpt lat="44.83886" lon="3.7387">
        <ele>738.77</ele>
        <time>2022-03-21T10:53:55Z</time>
      </trkpt>
      <trkpt lat="44.84" lon="3.73938">
        <ele>741.64</ele>
        <time>2022-03-21T10:53:56Z</time>
      </trkpt>
      <trkpt lat="44.84012" lon="3.73897">
        <ele>745.57</ele>
        <time>2022-03-21T10:53:59Z</time>
      </trkpt>
      <trkpt lat="44.8402" lon="3.73876">
        <ele>745.21</ele>
        <time>2022-03-21T10:54:01Z</time>
      </trkpt>
      <trkpt lat="44.84031" lon="3.73859">
        <ele>744.5</ele>
        <time>2022-03-21T10:54:03Z</time>
      </trkpt>
      <trkpt lat="44.84088" lon="3.73801">
        <ele>745.35</ele>
        <time>2022-03-21T10:54:05Z</time>
      </trkpt>
      <trkpt lat="44.84094" lon="3.73801">
        <ele>744.86</ele>
        <time>2022-03-21T10:54:07Z</time>
      </trkpt>
      <trkpt lat="44.84094" lon="3.73799">
        <ele>743.23</ele>
        <time>2022-03-21T10:54:08Z</time>
      </trkpt>
      <trkpt lat="44.84094" lon="3.73799">
        <ele>743.23</ele>
        <time>2022-03-21T10:54:08Z</time>
      </trkpt>
      <trkpt lat="44.84094" lon="3.73801">
        <ele>744.86</ele>
        <time>2022-03-21T10:54:09Z</time>
      </trkpt>
      <trkpt lat="44.84099" lon="3.73804">
        <ele>744.76</ele>
        <time>2022-03-21T10:54:12Z</time>
      </trkpt>
      <trkpt lat="44.84121" lon="3.73841">
        <ele>746.9</ele>
        <time>2022-03-21T10:54:14Z</time>
      </trkpt>
      <trkpt lat="44.84143" lon="3.73916">
        <ele>752.14</ele>
        <time>2022-03-21T10:54:17Z</time>
      </trkpt>
      <trkpt lat="44.84167" lon="3.73984">
        <ele>753.35</ele>
        <time>2022-03-21T10:54:19Z</time>
      </trkpt>
      <trkpt lat="44.84183" lon="3.74013">
        <ele>757.92</ele>
        <time>2022-03-21T10:54:22Z</time>
      </trkpt>
      <trkpt lat="44.84243" lon="3.74073">
        <ele>769.4</ele>
        <time>2022-03-21T10:54:25Z</time>
      </trkpt>
      <trkpt lat="44.84255" lon="3.74078">
        <ele>767.61</ele>
        <time>2022-03-21T10:54:27Z</time>
      </trkpt>
      <trkpt lat="44.84261" lon="3.74084">
        <ele>767.7</ele>
        <time>2022-03-21T10:54:30Z</time>
      </trkpt>
      <trkpt lat="44.84264" lon="3.74093">
        <ele>768.23</ele>
        <time>2022-03-21T10:54:32Z</time>
      </trkpt>
      <trkpt lat="44.84264" lon="3.74104">
        <ele>770.03</ele>
        <time>2022-03-21T10:54:35Z</time>
      </trkpt>
      <trkpt lat="44.84259" lon="3.74112">
        <ele>772.04</ele>
        <time>2022-03-21T10:54:38Z</time>
      </trkpt>
      <trkpt lat="44.84252" lon="3.74113">
        <ele>773.09</ele>
        <time>2022-03-21T10:54:40Z</time>
      </trkpt>
      <trkpt lat="44.84245" lon="3.74108">
        <ele>774.23</ele>
        <time>2022-03-21T10:54:43Z</time>
      </trkpt>
      <trkpt lat="44.84234" lon="3.74091">
        <ele>775.21</ele>
        <time>2022-03-21T10:54:45Z</time>
      </trkpt>
      <trkpt lat="44.84214" lon="3.74078">
        <ele>777.71</ele>
        <time>2022-03-21T10:54:48Z</time>
      </trkpt>
      <trkpt lat="44.84146" lon="3.74043">
        <ele>777.62</ele>
        <time>2022-03-21T10:54:51Z</time>
      </trkpt>
      <trkpt lat="44.84115" lon="3.74015">
        <ele>778.66</ele>
        <time>2022-03-21T10:54:53Z</time>
      </trkpt>
      <trkpt lat="44.84096" lon="3.73979">
        <ele>773.57</ele>
        <time>2022-03-21T10:54:56Z</time>
      </trkpt>
      <trkpt lat="44.84086" lon="3.73975">
        <ele>773.05</ele>
        <time>2022-03-21T10:54:58Z</time>
      </trkpt>
      <trkpt lat="44.84079" lon="3.7398">
        <ele>770.56</ele>
        <time>2022-03-21T10:55:01Z</time>
      </trkpt>
      <trkpt lat="44.84077" lon="3.73993">
        <ele>769.89</ele>
        <time>2022-03-21T10:55:03Z</time>
      </trkpt>
      <trkpt lat="44.84095" lon="3.74081">
        <ele>783.96</ele>
        <time>2022-03-21T10:55:06Z</time>
      </trkpt>
      <trkpt lat="44.84085" lon="3.74176">
        <ele>793.21</ele>
        <time>2022-03-21T10:55:09Z</time>
      </trkpt>
      <trkpt lat="44.84086" lon="3.74234">
        <ele>800.85</ele>
        <time>2022-03-21T10:55:11Z</time>
      </trkpt>
      <trkpt lat="44.84083" lon="3.74251">
        <ele>801.98</ele>
        <time>2022-03-21T10:55:14Z</time>
      </trkpt>
      <trkpt lat="44.84077" lon="3.74266">
        <ele>804.47</ele>
        <time>2022-03-21T10:55:16Z</time>
      </trkpt>
      <trkpt lat="44.84018" lon="3.74365">
        <ele>812.96</ele>
        <time>2022-03-21T10:55:19Z</time>
      </trkpt>
      <trkpt lat="44.83998" lon="3.74407">
        <ele>811.13</ele>
        <time>2022-03-21T10:55:22Z</time>
      </trkpt>
      <trkpt lat="44.83993" lon="3.74428">
        <ele>811.54</ele>
        <time>2022-03-21T10:55:24Z</time>
      </trkpt>
      <trkpt lat="44.8399" lon="3.74485">
        <ele>818.21</ele>
        <time>2022-03-21T10:55:27Z</time>
      </trkpt>
      <trkpt lat="44.83986" lon="3.745">
        <ele>819.48</ele>
        <time>2022-03-21T10:55:29Z</time>
      </trkpt>
      <trkpt lat="44.83975" lon="3.74519">
        <ele>819.94</ele>
        <time>2022-03-21T10:55:32Z</time>
      </trkpt>
      <trkpt lat="44.83971" lon="3.74534">
        <ele>821.41</ele>
        <time>2022-03-21T10:55:35Z</time>
      </trkpt>
      <trkpt lat="44.83972" lon="3.74588">
        <ele>828.67</ele>
        <time>2022-03-21T10:55:37Z</time>
      </trkpt>
      <trkpt lat="44.83966" lon="3.74609">
        <ele>830.32</ele>
        <time>2022-03-21T10:55:40Z</time>
      </trkpt>
      <trkpt lat="44.83951" lon="3.74646">
        <ele>833.04</ele>
        <time>2022-03-21T10:55:42Z</time>
      </trkpt>
      <trkpt lat="44.83938" lon="3.74673">
        <ele>835.47</ele>
        <time>2022-03-21T10:55:45Z</time>
      </trkpt>
      <trkpt lat="44.83921" lon="3.74698">
        <ele>839.78</ele>
        <time>2022-03-21T10:55:48Z</time>
      </trkpt>
      <trkpt lat="44.83902" lon="3.74717">
        <ele>843.59</ele>
        <time>2022-03-21T10:55:50Z</time>
      </trkpt>
      <trkpt lat="44.83884" lon="3.74728">
        <ele>845.68</ele>
        <time>2022-03-21T10:55:53Z</time>
      </trkpt>
      <trkpt lat="44.83849" lon="3.74743">
        <ele>848.88</ele>
        <time>2022-03-21T10:55:55Z</time>
      </trkpt>
      <trkpt lat="44.8382" lon="3.74749">
        <ele>851.17</ele>
        <time>2022-03-21T10:55:58Z</time>
      </trkpt>
      <trkpt lat="44.83765" lon="3.74743">
        <ele>848.63</ele>
        <time>2022-03-21T10:56:00Z</time>
      </trkpt>
      <trkpt lat="44.83723" lon="3.74749">
        <ele>853.52</ele>
        <time>2022-03-21T10:56:03Z</time>
      </trkpt>
      <trkpt lat="44.83694" lon="3.74756">
        <ele>857.58</ele>
        <time>2022-03-21T10:56:06Z</time>
      </trkpt>
      <trkpt lat="44.83679" lon="3.74766">
        <ele>857.87</ele>
        <time>2022-03-21T10:56:08Z</time>
      </trkpt>
      <trkpt lat="44.83666" lon="3.74781">
        <ele>859.8</ele>
        <time>2022-03-21T10:56:11Z</time>
      </trkpt>
      <trkpt lat="44.83604" lon="3.74901">
        <ele>862.75</ele>
        <time>2022-03-21T10:56:13Z</time>
      </trkpt>
      <trkpt lat="44.83597" lon="3.74923">
        <ele>862.35</ele>
        <time>2022-03-21T10:56:16Z</time>
      </trkpt>
      <trkpt lat="44.83584" lon="3.75015">
        <ele>870.37</ele>
        <time>2022-03-21T10:56:19Z</time>
      </trkpt>
      <trkpt lat="44.83587" lon="3.75034">
        <ele>871.8</ele>
        <time>2022-03-21T10:56:21Z</time>
      </trkpt>
      <trkpt lat="44.83595" lon="3.75044">
        <ele>873.61</ele>
        <time>2022-03-21T10:56:24Z</time>
      </trkpt>
      <trkpt lat="44.83639" lon="3.75058">
        <ele>883.78</ele>
        <time>2022-03-21T10:56:26Z</time>
      </trkpt>
      <trkpt lat="44.83651" lon="3.75067">
        <ele>885.4</ele>
        <time>2022-03-21T10:56:29Z</time>
      </trkpt>
      <trkpt lat="44.8367" lon="3.75093">
        <ele>884.25</ele>
        <time>2022-03-21T10:56:32Z</time>
      </trkpt>
      <trkpt lat="44.83718" lon="3.75145">
        <ele>888.51</ele>
        <time>2022-03-21T10:56:34Z</time>
      </trkpt>
      <trkpt lat="44.83735" lon="3.75157">
        <ele>890.21</ele>
        <time>2022-03-21T10:56:37Z</time>
      </trkpt>
      <trkpt lat="44.83783" lon="3.75186">
        <ele>895.09</ele>
        <time>2022-03-21T10:56:39Z</time>
      </trkpt>
      <trkpt lat="44.83836" lon="3.75212">
        <ele>902.34</ele>
        <time>2022-03-21T10:56:42Z</time>
      </trkpt>
      <trkpt lat="44.83911" lon="3.75261">
        <ele>905</ele>
        <time>2022-03-21T10:56:45Z</time>
      </trkpt>
      <trkpt lat="44.83936" lon="3.75285">
        <ele>905.53</ele>
        <time>2022-03-21T10:56:47Z</time>
      </trkpt>
      <trkpt lat="44.83962" lon="3.75299">
        <ele>908.6</ele>
        <time>2022-03-21T10:56:50Z</time>
      </trkpt>
      <trkpt lat="44.8401" lon="3.7531">
        <ele>917.68</ele>
        <time>2022-03-21T10:56:52Z</time>
      </trkpt>
      <trkpt lat="44.84019" lon="3.75316">
        <ele>918.95</ele>
        <time>2022-03-21T10:56:55Z</time>
      </trkpt>
      <trkpt lat="44.84031" lon="3.75327">
        <ele>919.37</ele>
        <time>2022-03-21T10:56:58Z</time>
      </trkpt>
      <trkpt lat="44.84073" lon="3.75375">
        <ele>917.44</ele>
        <time>2022-03-21T10:57:00Z</time>
      </trkpt>
      <trkpt lat="44.84087" lon="3.75386">
        <ele>916.79</ele>
        <time>2022-03-21T10:57:03Z</time>
      </trkpt>
      <trkpt lat="44.84101" lon="3.75393">
        <ele>915.85</ele>
        <time>2022-03-21T10:57:05Z</time>
      </trkpt>
      <trkpt lat="44.84128" lon="3.75391">
        <ele>915.34</ele>
        <time>2022-03-21T10:57:08Z</time>
      </trkpt>
      <trkpt lat="44.84178" lon="3.75369">
        <ele>921.73</ele>
        <time>2022-03-21T10:57:10Z</time>
      </trkpt>
      <trkpt lat="44.84243" lon="3.75366">
        <ele>922.33</ele>
        <time>2022-03-21T10:57:13Z</time>
      </trkpt>
      <trkpt lat="44.84261" lon="3.75368">
        <ele>923.33</ele>
        <time>2022-03-21T10:57:16Z</time>
      </trkpt>
      <trkpt lat="44.84273" lon="3.75373">
        <ele>924.14</ele>
        <time>2022-03-21T10:57:18Z</time>
      </trkpt>
      <trkpt lat="44.84285" lon="3.75388">
        <ele>924.44</ele>
        <time>2022-03-21T10:57:21Z</time>
      </trkpt>
      <trkpt lat="44.84301" lon="3.75413">
        <ele>925.89</ele>
        <time>2022-03-21T10:57:23Z</time>
      </trkpt>
      <trkpt lat="44.84342" lon="3.75446">
        <ele>931.25</ele>
        <time>2022-03-21T10:57:26Z</time>
      </trkpt>
      <trkpt lat="44.8437" lon="3.75464">
        <ele>934.3</ele>
        <time>2022-03-21T10:57:29Z</time>
      </trkpt>
      <trkpt lat="44.84421" lon="3.75473">
        <ele>933.38</ele>
        <time>2022-03-21T10:57:31Z</time>
      </trkpt>
      <trkpt lat="44.84455" lon="3.75494">
        <ele>937.61</ele>
        <time>2022-03-21T10:57:34Z</time>
      </trkpt>
      <trkpt lat="44.84472" lon="3.75498">
        <ele>937.71</ele>
        <time>2022-03-21T10:57:36Z</time>
      </trkpt>
      <trkpt lat="44.84505" lon="3.75489">
        <ele>938.58</ele>
        <time>2022-03-21T10:57:39Z</time>
      </trkpt>
      <trkpt lat="44.84558" lon="3.75517">
        <ele>946.08</ele>
        <time>2022-03-21T10:57:42Z</time>
      </trkpt>
      <trkpt lat="44.84579" lon="3.7552">
        <ele>947.78</ele>
        <time>2022-03-21T10:57:44Z</time>
      </trkpt>
      <trkpt lat="44.84594" lon="3.75516">
        <ele>948.99</ele>
        <time>2022-03-21T10:57:47Z</time>
      </trkpt>
      <trkpt lat="44.84683" lon="3.7548">
        <ele>955.36</ele>
        <time>2022-03-21T10:57:49Z</time>
      </trkpt>
      <trkpt lat="44.84731" lon="3.75475">
        <ele>960.25</ele>
        <time>2022-03-21T10:57:52Z</time>
      </trkpt>
      <trkpt lat="44.84755" lon="3.7549">
        <ele>962.47</ele>
        <time>2022-03-21T10:57:55Z</time>
      </trkpt>
      <trkpt lat="44.84761" lon="3.755">
        <ele>963.83</ele>
        <time>2022-03-21T10:57:57Z</time>
      </trkpt>
      <trkpt lat="44.84764" lon="3.75511">
        <ele>965.74</ele>
        <time>2022-03-21T10:58:00Z</time>
      </trkpt>
      <trkpt lat="44.84762" lon="3.75538">
        <ele>970.26</ele>
        <time>2022-03-21T10:58:02Z</time>
      </trkpt>
      <trkpt lat="44.8475" lon="3.7559">
        <ele>973.02</ele>
        <time>2022-03-21T10:58:05Z</time>
      </trkpt>
      <trkpt lat="44.84746" lon="3.75624">
        <ele>974.56</ele>
        <time>2022-03-21T10:58:07Z</time>
      </trkpt>
      <trkpt lat="44.84745" lon="3.75662">
        <ele>978.47</ele>
        <time>2022-03-21T10:58:10Z</time>
      </trkpt>
      <trkpt lat="44.84754" lon="3.75707">
        <ele>982.73</ele>
        <time>2022-03-21T10:58:13Z</time>
      </trkpt>
      <trkpt lat="44.84816" lon="3.75867">
        <ele>981.79</ele>
        <time>2022-03-21T10:58:15Z</time>
      </trkpt>
      <trkpt lat="44.84825" lon="3.75898">
        <ele>984.88</ele>
        <time>2022-03-21T10:58:18Z</time>
      </trkpt>
      <trkpt lat="44.84836" lon="3.75943">
        <ele>991.06</ele>
        <time>2022-03-21T10:58:20Z</time>
      </trkpt>
      <trkpt lat="44.84848" lon="3.75974">
        <ele>992.98</ele>
        <time>2022-03-21T10:58:23Z</time>
      </trkpt>
      <trkpt lat="44.84863" lon="3.76005">
        <ele>992.36</ele>
        <time>2022-03-21T10:58:26Z</time>
      </trkpt>
      <trkpt lat="44.84888" lon="3.76035">
        <ele>991.47</ele>
        <time>2022-03-21T10:58:28Z</time>
      </trkpt>
      <trkpt lat="44.84902" lon="3.76042">
        <ele>992.15</ele>
        <time>2022-03-21T10:58:31Z</time>
      </trkpt>
      <trkpt lat="44.84916" lon="3.76043">
        <ele>991.92</ele>
        <time>2022-03-21T10:58:33Z</time>
      </trkpt>
      <trkpt lat="44.84916" lon="3.76043">
        <ele>991.92</ele>
        <time>2022-03-21T10:58:33Z</time>
      </trkpt>
      <trkpt lat="44.84941" lon="3.76034">
        <ele>991.07</ele>
        <time>2022-03-21T10:58:36Z</time>
      </trkpt>
      <trkpt lat="44.8495" lon="3.76015">
        <ele>991.6</ele>
        <time>2022-03-21T10:58:38Z</time>
      </trkpt>
      <trkpt lat="44.84946" lon="3.75979">
        <ele>992.01</ele>
        <time>2022-03-21T10:58:41Z</time>
      </trkpt>
      <trkpt lat="44.84945" lon="3.75925">
        <ele>996.55</ele>
        <time>2022-03-21T10:58:43Z</time>
      </trkpt>
      <trkpt lat="44.84939" lon="3.7582">
        <ele>999.25</ele>
        <time>2022-03-21T10:58:46Z</time>
      </trkpt>
      <trkpt lat="44.84939" lon="3.75779">
        <ele>998.99</ele>
        <time>2022-03-21T10:58:48Z</time>
      </trkpt>
      <trkpt lat="44.84945" lon="3.75748">
        <ele>1001.18</ele>
        <time>2022-03-21T10:58:51Z</time>
      </trkpt>
      <trkpt lat="44.8496" lon="3.7572">
        <ele>1003.56</ele>
        <time>2022-03-21T10:58:53Z</time>
      </trkpt>
      <trkpt lat="44.84978" lon="3.75701">
        <ele>1003.67</ele>
        <time>2022-03-21T10:58:56Z</time>
      </trkpt>
      <trkpt lat="44.85139" lon="3.7557">
        <ele>1009.02</ele>
        <time>2022-03-21T10:58:58Z</time>
      </trkpt>
      <trkpt lat="44.85169" lon="3.75556">
        <ele>1011.1</ele>
        <time>2022-03-21T10:59:01Z</time>
      </trkpt>
      <trkpt lat="44.85202" lon="3.75555">
        <ele>1012.81</ele>
        <time>2022-03-21T10:59:03Z</time>
      </trkpt>
      <trkpt lat="44.85244" lon="3.75562">
        <ele>1016.01</ele>
        <time>2022-03-21T10:59:06Z</time>
      </trkpt>
      <trkpt lat="44.85532" lon="3.75666">
        <ele>1040.9</ele>
        <time>2022-03-21T10:59:08Z</time>
      </trkpt>
      <trkpt lat="44.85665" lon="3.75717">
        <ele>1053.81</ele>
        <time>2022-03-21T10:59:11Z</time>
      </trkpt>
      <trkpt lat="44.85727" lon="3.75737">
        <ele>1054.18</ele>
        <time>2022-03-21T10:59:13Z</time>
      </trkpt>
      <trkpt lat="44.85755" lon="3.75748">
        <ele>1056.31</ele>
        <time>2022-03-21T10:59:16Z</time>
      </trkpt>
      <trkpt lat="44.85819" lon="3.75781">
        <ele>1062.84</ele>
        <time>2022-03-21T10:59:18Z</time>
      </trkpt>
      <trkpt lat="44.85853" lon="3.75789">
        <ele>1065.11</ele>
        <time>2022-03-21T10:59:21Z</time>
      </trkpt>
      <trkpt lat="44.86118" lon="3.75772">
        <ele>1086.76</ele>
        <time>2022-03-21T10:59:23Z</time>
      </trkpt>
      <trkpt lat="44.86198" lon="3.75754">
        <ele>1095.87</ele>
        <time>2022-03-21T10:59:26Z</time>
      </trkpt>
      <trkpt lat="44.86211" lon="3.75742">
        <ele>1096.94</ele>
        <time>2022-03-21T10:59:28Z</time>
      </trkpt>
      <trkpt lat="44.86294" lon="3.75695">
        <ele>1102.19</ele>
        <time>2022-03-21T10:59:31Z</time>
      </trkpt>
      <trkpt lat="44.86309" lon="3.75692">
        <ele>1102.89</ele>
        <time>2022-03-21T10:59:33Z</time>
      </trkpt>
      <trkpt lat="44.86351" lon="3.75698">
        <ele>1104.23</ele>
        <time>2022-03-21T10:59:36Z</time>
      </trkpt>
      <trkpt lat="44.86367" lon="3.75697">
        <ele>1104.21</ele>
        <time>2022-03-21T10:59:38Z</time>
      </trkpt>
      <trkpt lat="44.86386" lon="3.75686">
        <ele>1103.94</ele>
        <time>2022-03-21T10:59:41Z</time>
      </trkpt>
      <trkpt lat="44.86567" lon="3.75531">
        <ele>1109</ele>
        <time>2022-03-21T10:59:43Z</time>
      </trkpt>
      <trkpt lat="44.86607" lon="3.75493">
        <ele>1110.62</ele>
        <time>2022-03-21T10:59:46Z</time>
      </trkpt>
      <trkpt lat="44.86646" lon="3.75443">
        <ele>1108.14</ele>
        <time>2022-03-21T10:59:48Z</time>
      </trkpt>
      <trkpt lat="44.86795" lon="3.75266">
        <ele>1105.18</ele>
        <time>2022-03-21T10:59:51Z</time>
      </trkpt>
      <trkpt lat="44.86815" lon="3.75237">
        <ele>1103.74</ele>
        <time>2022-03-21T10:59:53Z</time>
      </trkpt>
      <trkpt lat="44.86829" lon="3.75222">
        <ele>1102.86</ele>
        <time>2022-03-21T10:59:56Z</time>
      </trkpt>
      <trkpt lat="44.86849" lon="3.75217">
        <ele>1101.05</ele>
        <time>2022-03-21T10:59:58Z</time>
      </trkpt>
      <trkpt lat="44.86865" lon="3.7522">
        <ele>1099.62</ele>
        <time>2022-03-21T11:00:00Z</time>
      </trkpt>
      <trkpt lat="44.86925" lon="3.7527">
        <ele>1091.28</ele>
        <time>2022-03-21T11:00:03Z</time>
      </trkpt>
      <trkpt lat="44.86954" lon="3.7531">
        <ele>1090.48</ele>
        <time>2022-03-21T11:00:05Z</time>
      </trkpt>
      <trkpt lat="44.86968" lon="3.75318">
        <ele>1089.9</ele>
        <time>2022-03-21T11:00:08Z</time>
      </trkpt>
      <trkpt lat="44.86978" lon="3.75316">
        <ele>1089.34</ele>
        <time>2022-03-21T11:00:10Z</time>
      </trkpt>
      <trkpt lat="44.87" lon="3.75299">
        <ele>1088.98</ele>
        <time>2022-03-21T11:00:13Z</time>
      </trkpt>
      <trkpt lat="44.87017" lon="3.75275">
        <ele>1091.55</ele>
        <time>2022-03-21T11:00:15Z</time>
      </trkpt>
      <trkpt lat="44.87022" lon="3.75258">
        <ele>1092.91</ele>
        <time>2022-03-21T11:00:18Z</time>
      </trkpt>
      <trkpt lat="44.87026" lon="3.75207">
        <ele>1094.21</ele>
        <time>2022-03-21T11:00:20Z</time>
      </trkpt>
      <trkpt lat="44.87044" lon="3.75077">
        <ele>1091.9</ele>
        <time>2022-03-21T11:00:23Z</time>
      </trkpt>
      <trkpt lat="44.87048" lon="3.74983">
        <ele>1088.85</ele>
        <time>2022-03-21T11:00:25Z</time>
      </trkpt>
      <trkpt lat="44.87064" lon="3.74884">
        <ele>1092.89</ele>
        <time>2022-03-21T11:00:28Z</time>
      </trkpt>
      <trkpt lat="44.87082" lon="3.74826">
        <ele>1092.91</ele>
        <time>2022-03-21T11:00:30Z</time>
      </trkpt>
      <trkpt lat="44.87108" lon="3.74773">
        <ele>1095.05</ele>
        <time>2022-03-21T11:00:33Z</time>
      </trkpt>
      <trkpt lat="44.87166" lon="3.74711">
        <ele>1093.61</ele>
        <time>2022-03-21T11:00:35Z</time>
      </trkpt>
      <trkpt lat="44.87319" lon="3.74667">
        <ele>1080.45</ele>
        <time>2022-03-21T11:00:38Z</time>
      </trkpt>
      <trkpt lat="44.87355" lon="3.74653">
        <ele>1079.5</ele>
        <time>2022-03-21T11:00:40Z</time>
      </trkpt>
      <trkpt lat="44.87368" lon="3.74635">
        <ele>1077.62</ele>
        <time>2022-03-21T11:00:43Z</time>
      </trkpt>
      <trkpt lat="44.87372" lon="3.74616">
        <ele>1075.51</ele>
        <time>2022-03-21T11:00:45Z</time>
      </trkpt>
      <trkpt lat="44.87363" lon="3.74593">
        <ele>1073.07</ele>
        <time>2022-03-21T11:00:48Z</time>
      </trkpt>
      <trkpt lat="44.87331" lon="3.74576">
        <ele>1072.92</ele>
        <time>2022-03-21T11:00:50Z</time>
      </trkpt>
      <trkpt lat="44.87246" lon="3.74499">
        <ele>1069.86</ele>
        <time>2022-03-21T11:00:53Z</time>
      </trkpt>
      <trkpt lat="44.87217" lon="3.74431">
        <ele>1066.81</ele>
        <time>2022-03-21T11:00:55Z</time>
      </trkpt>
      <trkpt lat="44.87178" lon="3.74331">
        <ele>1061.46</ele>
        <time>2022-03-21T11:00:58Z</time>
      </trkpt>
      <trkpt lat="44.87116" lon="3.7424">
        <ele>1059.78</ele>
        <time>2022-03-21T11:01:00Z</time>
      </trkpt>
      <trkpt lat="44.87119" lon="3.74208">
        <ele>1057.21</ele>
        <time>2022-03-21T11:01:03Z</time>
      </trkpt>
      <trkpt lat="44.87139" lon="3.74198">
        <ele>1055.44</ele>
        <time>2022-03-21T11:01:05Z</time>
      </trkpt>
      <trkpt lat="44.87176" lon="3.74218">
        <ele>1051.95</ele>
        <time>2022-03-21T11:01:08Z</time>
      </trkpt>
      <trkpt lat="44.87267" lon="3.74219">
        <ele>1038.32</ele>
        <time>2022-03-21T11:01:10Z</time>
      </trkpt>
      <trkpt lat="44.87332" lon="3.74252">
        <ele>1037.39</ele>
        <time>2022-03-21T11:01:13Z</time>
      </trkpt>
      <trkpt lat="44.87351" lon="3.74248">
        <ele>1036.54</ele>
        <time>2022-03-21T11:01:15Z</time>
      </trkpt>
      <trkpt lat="44.87383" lon="3.74214">
        <ele>1032.94</ele>
        <time>2022-03-21T11:01:18Z</time>
      </trkpt>
      <trkpt lat="44.87395" lon="3.7419">
        <ele>1031.59</ele>
        <time>2022-03-21T11:01:20Z</time>
      </trkpt>
      <trkpt lat="44.87395" lon="3.74159">
        <ele>1029.16</ele>
        <time>2022-03-21T11:01:23Z</time>
      </trkpt>
      <trkpt lat="44.87373" lon="3.74099">
        <ele>1023.91</ele>
        <time>2022-03-21T11:01:25Z</time>
      </trkpt>
      <trkpt lat="44.87366" lon="3.74068">
        <ele>1023.12</ele>
        <time>2022-03-21T11:01:28Z</time>
      </trkpt>
      <trkpt lat="44.87364" lon="3.74022">
        <ele>1021.76</ele>
        <time>2022-03-21T11:01:30Z</time>
      </trkpt>
      <trkpt lat="44.87357" lon="3.73998">
        <ele>1020.09</ele>
        <time>2022-03-21T11:01:32Z</time>
      </trkpt>
      <trkpt lat="44.87336" lon="3.73964">
        <ele>1014.46</ele>
        <time>2022-03-21T11:01:35Z</time>
      </trkpt>
      <trkpt lat="44.87331" lon="3.73952">
        <ele>1014.11</ele>
        <time>2022-03-21T11:01:37Z</time>
      </trkpt>
      <trkpt lat="44.87328" lon="3.73936">
        <ele>1014.41</ele>
        <time>2022-03-21T11:01:40Z</time>
      </trkpt>
      <trkpt lat="44.87336" lon="3.7373">
        <ele>1003.99</ele>
        <time>2022-03-21T11:01:42Z</time>
      </trkpt>
      <trkpt lat="44.87324" lon="3.73657">
        <ele>1001.3</ele>
        <time>2022-03-21T11:01:45Z</time>
      </trkpt>
      <trkpt lat="44.87312" lon="3.73601">
        <ele>997.26</ele>
        <time>2022-03-21T11:01:47Z</time>
      </trkpt>
      <trkpt lat="44.87317" lon="3.73566">
        <ele>994.82</ele>
        <time>2022-03-21T11:01:50Z</time>
      </trkpt>
      <trkpt lat="44.87338" lon="3.73532">
        <ele>993.64</ele>
        <time>2022-03-21T11:01:52Z</time>
      </trkpt>
      <trkpt lat="44.87358" lon="3.73518">
        <ele>994.47</ele>
        <time>2022-03-21T11:01:55Z</time>
      </trkpt>
      <trkpt lat="44.87388" lon="3.73524">
        <ele>993.75</ele>
        <time>2022-03-21T11:01:57Z</time>
      </trkpt>
      <trkpt lat="44.87415" lon="3.73543">
        <ele>992.32</ele>
        <time>2022-03-21T11:02:00Z</time>
      </trkpt>
      <trkpt lat="44.87498" lon="3.73668">
        <ele>993.7</ele>
        <time>2022-03-21T11:02:02Z</time>
      </trkpt>
      <trkpt lat="44.87559" lon="3.73741">
        <ele>992.54</ele>
        <time>2022-03-21T11:02:05Z</time>
      </trkpt>
      <trkpt lat="44.87625" lon="3.73795">
        <ele>993.48</ele>
        <time>2022-03-21T11:02:07Z</time>
      </trkpt>
      <trkpt lat="44.87679" lon="3.73864">
        <ele>990.95</ele>
        <time>2022-03-21T11:02:10Z</time>
      </trkpt>
      <trkpt lat="44.87734" lon="3.73876">
        <ele>982.74</ele>
        <time>2022-03-21T11:02:12Z</time>
      </trkpt>
      <trkpt lat="44.87841" lon="3.73917">
        <ele>984.28</ele>
        <time>2022-03-21T11:02:15Z</time>
      </trkpt>
      <trkpt lat="44.87865" lon="3.7391">
        <ele>985.59</ele>
        <time>2022-03-21T11:02:17Z</time>
      </trkpt>
      <trkpt lat="44.87874" lon="3.73884">
        <ele>989.29</ele>
        <time>2022-03-21T11:02:20Z</time>
      </trkpt>
      <trkpt lat="44.87869" lon="3.73856">
        <ele>991.81</ele>
        <time>2022-03-21T11:02:22Z</time>
      </trkpt>
      <trkpt lat="44.87812" lon="3.73774">
        <ele>982.78</ele>
        <time>2022-03-21T11:02:25Z</time>
      </trkpt>
      <trkpt lat="44.87798" lon="3.73748">
        <ele>977.76</ele>
        <time>2022-03-21T11:02:27Z</time>
      </trkpt>
      <trkpt lat="44.87801" lon="3.73681">
        <ele>976.88</ele>
        <time>2022-03-21T11:02:30Z</time>
      </trkpt>
      <trkpt lat="44.87818" lon="3.73636">
        <ele>983.43</ele>
        <time>2022-03-21T11:02:32Z</time>
      </trkpt>
      <trkpt lat="44.87834" lon="3.73571">
        <ele>976.8</ele>
        <time>2022-03-21T11:02:35Z</time>
      </trkpt>
      <trkpt lat="44.87851" lon="3.73522">
        <ele>977.3</ele>
        <time>2022-03-21T11:02:37Z</time>
      </trkpt>
      <trkpt lat="44.87886" lon="3.73481">
        <ele>985.37</ele>
        <time>2022-03-21T11:02:40Z</time>
      </trkpt>
      <trkpt lat="44.87898" lon="3.73435">
        <ele>983.46</ele>
        <time>2022-03-21T11:02:42Z</time>
      </trkpt>
      <trkpt lat="44.87894" lon="3.73354">
        <ele>981.4</ele>
        <time>2022-03-21T11:02:45Z</time>
      </trkpt>
      <trkpt lat="44.87879" lon="3.73314">
        <ele>981.08</ele>
        <time>2022-03-21T11:02:47Z</time>
      </trkpt>
      <trkpt lat="44.87868" lon="3.73262">
        <ele>980.32</ele>
        <time>2022-03-21T11:02:50Z</time>
      </trkpt>
      <trkpt lat="44.87868" lon="3.73246">
        <ele>979.97</ele>
        <time>2022-03-21T11:02:52Z</time>
      </trkpt>
      <trkpt lat="44.87873" lon="3.7323">
        <ele>980.04</ele>
        <time>2022-03-21T11:02:55Z</time>
      </trkpt>
      <trkpt lat="44.8789" lon="3.73222">
        <ele>982.04</ele>
        <time>2022-03-21T11:02:57Z</time>
      </trkpt>
      <trkpt lat="44.87949" lon="3.73224">
        <ele>985.83</ele>
        <time>2022-03-21T11:03:00Z</time>
      </trkpt>
      <trkpt lat="44.87974" lon="3.73218">
        <ele>988.4</ele>
        <time>2022-03-21T11:03:02Z</time>
      </trkpt>
      <trkpt lat="44.87998" lon="3.73207">
        <ele>986.77</ele>
        <time>2022-03-21T11:03:05Z</time>
      </trkpt>
      <trkpt lat="44.88017" lon="3.73209">
        <ele>986.18</ele>
        <time>2022-03-21T11:03:07Z</time>
      </trkpt>
      <trkpt lat="44.88067" lon="3.73293">
        <ele>993.43</ele>
        <time>2022-03-21T11:03:09Z</time>
      </trkpt>
      <trkpt lat="44.88093" lon="3.73324">
        <ele>996.83</ele>
        <time>2022-03-21T11:03:12Z</time>
      </trkpt>
      <trkpt lat="44.88116" lon="3.73326">
        <ele>995.02</ele>
        <time>2022-03-21T11:03:14Z</time>
      </trkpt>
      <trkpt lat="44.88137" lon="3.73304">
        <ele>993.44</ele>
        <time>2022-03-21T11:03:17Z</time>
      </trkpt>
      <trkpt lat="44.88145" lon="3.73232">
        <ele>986.97</ele>
        <time>2022-03-21T11:03:19Z</time>
      </trkpt>
      <trkpt lat="44.88194" lon="3.73123">
        <ele>988.67</ele>
        <time>2022-03-21T11:03:22Z</time>
      </trkpt>
      <trkpt lat="44.88221" lon="3.73072">
        <ele>989.05</ele>
        <time>2022-03-21T11:03:24Z</time>
      </trkpt>
      <trkpt lat="44.88233" lon="3.73027">
        <ele>987.56</ele>
        <time>2022-03-21T11:03:27Z</time>
      </trkpt>
      <trkpt lat="44.8825" lon="3.7301">
        <ele>990.02</ele>
        <time>2022-03-21T11:03:29Z</time>
      </trkpt>
      <trkpt lat="44.88305" lon="3.73005">
        <ele>995.36</ele>
        <time>2022-03-21T11:03:32Z</time>
      </trkpt>
      <trkpt lat="44.88387" lon="3.73014">
        <ele>999.52</ele>
        <time>2022-03-21T11:03:34Z</time>
      </trkpt>
      <trkpt lat="44.88459" lon="3.73005">
        <ele>994.93</ele>
        <time>2022-03-21T11:03:37Z</time>
      </trkpt>
      <trkpt lat="44.88497" lon="3.7298">
        <ele>994.49</ele>
        <time>2022-03-21T11:03:39Z</time>
      </trkpt>
      <trkpt lat="44.88593" lon="3.72814">
        <ele>986.34</ele>
        <time>2022-03-21T11:03:42Z</time>
      </trkpt>
      <trkpt lat="44.88604" lon="3.72732">
        <ele>979.3</ele>
        <time>2022-03-21T11:03:44Z</time>
      </trkpt>
      <trkpt lat="44.88614" lon="3.72669">
        <ele>981.01</ele>
        <time>2022-03-21T11:03:47Z</time>
      </trkpt>
      <trkpt lat="44.8861" lon="3.72553">
        <ele>975.52</ele>
        <time>2022-03-21T11:03:49Z</time>
      </trkpt>
      <trkpt lat="44.88616" lon="3.72525">
        <ele>976.22</ele>
        <time>2022-03-21T11:03:52Z</time>
      </trkpt>
      <trkpt lat="44.88639" lon="3.72488">
        <ele>982.15</ele>
        <time>2022-03-21T11:03:54Z</time>
      </trkpt>
      <trkpt lat="44.88643" lon="3.72445">
        <ele>981.14</ele>
        <time>2022-03-21T11:03:57Z</time>
      </trkpt>
      <trkpt lat="44.88618" lon="3.72379">
        <ele>971.01</ele>
        <time>2022-03-21T11:03:59Z</time>
      </trkpt>
      <trkpt lat="44.88623" lon="3.72348">
        <ele>972.99</ele>
        <time>2022-03-21T11:04:02Z</time>
      </trkpt>
      <trkpt lat="44.88655" lon="3.72314">
        <ele>976.29</ele>
        <time>2022-03-21T11:04:04Z</time>
      </trkpt>
      <trkpt lat="44.88694" lon="3.72297">
        <ele>974.45</ele>
        <time>2022-03-21T11:04:07Z</time>
      </trkpt>
      <trkpt lat="44.8873" lon="3.72306">
        <ele>974.25</ele>
        <time>2022-03-21T11:04:09Z</time>
      </trkpt>
      <trkpt lat="44.88789" lon="3.72341">
        <ele>975.15</ele>
        <time>2022-03-21T11:04:12Z</time>
      </trkpt>
      <trkpt lat="44.88827" lon="3.72345">
        <ele>973.3</ele>
        <time>2022-03-21T11:04:14Z</time>
      </trkpt>
      <trkpt lat="44.88842" lon="3.72327">
        <ele>972.68</ele>
        <time>2022-03-21T11:04:17Z</time>
      </trkpt>
      <trkpt lat="44.8885" lon="3.723">
        <ele>973.81</ele>
        <time>2022-03-21T11:04:19Z</time>
      </trkpt>
      <trkpt lat="44.88847" lon="3.72263">
        <ele>974.34</ele>
        <time>2022-03-21T11:04:22Z</time>
      </trkpt>
      <trkpt lat="44.88826" lon="3.72202">
        <ele>971.28</ele>
        <time>2022-03-21T11:04:24Z</time>
      </trkpt>
      <trkpt lat="44.88827" lon="3.72175">
        <ele>971.01</ele>
        <time>2022-03-21T11:04:27Z</time>
      </trkpt>
      <trkpt lat="44.88844" lon="3.72149">
        <ele>972.73</ele>
        <time>2022-03-21T11:04:29Z</time>
      </trkpt>
      <trkpt lat="44.88968" lon="3.72066">
        <ele>971.13</ele>
        <time>2022-03-21T11:04:32Z</time>
      </trkpt>
      <trkpt lat="44.89059" lon="3.72043">
        <ele>977.19</ele>
        <time>2022-03-21T11:04:34Z</time>
      </trkpt>
      <trkpt lat="44.89081" lon="3.72014">
        <ele>973.74</ele>
        <time>2022-03-21T11:04:37Z</time>
      </trkpt>
      <trkpt lat="44.89115" lon="3.71925">
        <ele>971.78</ele>
        <time>2022-03-21T11:04:39Z</time>
      </trkpt>
      <trkpt lat="44.89118" lon="3.7191">
        <ele>971.77</ele>
        <time>2022-03-21T11:04:42Z</time>
      </trkpt>
      <trkpt lat="44.89116" lon="3.71894">
        <ele>970.85</ele>
        <time>2022-03-21T11:04:44Z</time>
      </trkpt>
      <trkpt lat="44.89101" lon="3.71866">
        <ele>970.75</ele>
        <time>2022-03-21T11:04:46Z</time>
      </trkpt>
      <trkpt lat="44.89068" lon="3.71853">
        <ele>970.09</ele>
        <time>2022-03-21T11:04:49Z</time>
      </trkpt>
      <trkpt lat="44.89028" lon="3.71853">
        <ele>966.28</ele>
        <time>2022-03-21T11:04:51Z</time>
      </trkpt>
      <trkpt lat="44.89014" lon="3.71847">
        <ele>966.26</ele>
        <time>2022-03-21T11:04:54Z</time>
      </trkpt>
      <trkpt lat="44.88992" lon="3.71812">
        <ele>969.44</ele>
        <time>2022-03-21T11:04:56Z</time>
      </trkpt>
      <trkpt lat="44.88974" lon="3.71759">
        <ele>970.06</ele>
        <time>2022-03-21T11:04:59Z</time>
      </trkpt>
      <trkpt lat="44.88977" lon="3.71712">
        <ele>970.52</ele>
        <time>2022-03-21T11:05:01Z</time>
      </trkpt>
      <trkpt lat="44.88988" lon="3.71624">
        <ele>974.62</ele>
        <time>2022-03-21T11:05:04Z</time>
      </trkpt>
      <trkpt lat="44.88986" lon="3.71606">
        <ele>975.56</ele>
        <time>2022-03-21T11:05:06Z</time>
      </trkpt>
      <trkpt lat="44.88968" lon="3.71565">
        <ele>973.3</ele>
        <time>2022-03-21T11:05:09Z</time>
      </trkpt>
      <trkpt lat="44.88966" lon="3.71511">
        <ele>977.59</ele>
        <time>2022-03-21T11:05:11Z</time>
      </trkpt>
      <trkpt lat="44.88958" lon="3.71472">
        <ele>978.47</ele>
        <time>2022-03-21T11:05:14Z</time>
      </trkpt>
      <trkpt lat="44.88953" lon="3.71406">
        <ele>980.29</ele>
        <time>2022-03-21T11:05:16Z</time>
      </trkpt>
      <trkpt lat="44.88969" lon="3.71312">
        <ele>982.17</ele>
        <time>2022-03-21T11:05:19Z</time>
      </trkpt>
      <trkpt lat="44.89003" lon="3.71238">
        <ele>985.84</ele>
        <time>2022-03-21T11:05:21Z</time>
      </trkpt>
      <trkpt lat="44.89049" lon="3.71105">
        <ele>993.42</ele>
        <time>2022-03-21T11:05:24Z</time>
      </trkpt>
      <trkpt lat="44.89075" lon="3.71061">
        <ele>995.33</ele>
        <time>2022-03-21T11:05:26Z</time>
      </trkpt>
      <trkpt lat="44.8911" lon="3.71024">
        <ele>995.08</ele>
        <time>2022-03-21T11:05:29Z</time>
      </trkpt>
      <trkpt lat="44.89152" lon="3.71004">
        <ele>995.98</ele>
        <time>2022-03-21T11:05:31Z</time>
      </trkpt>
      <trkpt lat="44.8919" lon="3.71008">
        <ele>998.4</ele>
        <time>2022-03-21T11:05:34Z</time>
      </trkpt>
      <trkpt lat="44.89245" lon="3.71037">
        <ele>999.09</ele>
        <time>2022-03-21T11:05:36Z</time>
      </trkpt>
      <trkpt lat="44.89289" lon="3.71067">
        <ele>999.89</ele>
        <time>2022-03-21T11:05:39Z</time>
      </trkpt>
      <trkpt lat="44.89327" lon="3.71067">
        <ele>997.27</ele>
        <time>2022-03-21T11:05:41Z</time>
      </trkpt>
      <trkpt lat="44.89379" lon="3.71034">
        <ele>998.84</ele>
        <time>2022-03-21T11:05:44Z</time>
      </trkpt>
      <trkpt lat="44.89469" lon="3.70983">
        <ele>995.89</ele>
        <time>2022-03-21T11:05:46Z</time>
      </trkpt>
      <trkpt lat="44.89652" lon="3.70874">
        <ele>988.1</ele>
        <time>2022-03-21T11:05:49Z</time>
      </trkpt>
      <trkpt lat="44.89673" lon="3.70872">
        <ele>987.23</ele>
        <time>2022-03-21T11:05:51Z</time>
      </trkpt>
      <trkpt lat="44.89688" lon="3.70885">
        <ele>987.76</ele>
        <time>2022-03-21T11:05:54Z</time>
      </trkpt>
      <trkpt lat="44.89705" lon="3.70905">
        <ele>989.9</ele>
        <time>2022-03-21T11:05:56Z</time>
      </trkpt>
      <trkpt lat="44.89725" lon="3.70913">
        <ele>988.92</ele>
        <time>2022-03-21T11:05:59Z</time>
      </trkpt>
      <trkpt lat="44.89759" lon="3.70914">
        <ele>984.28</ele>
        <time>2022-03-21T11:06:01Z</time>
      </trkpt>
      <trkpt lat="44.8977" lon="3.70923">
        <ele>983.54</ele>
        <time>2022-03-21T11:06:04Z</time>
      </trkpt>
      <trkpt lat="44.89791" lon="3.70932">
        <ele>983.54</ele>
        <time>2022-03-21T11:06:06Z</time>
      </trkpt>
      <trkpt lat="44.89806" lon="3.70927">
        <ele>983.74</ele>
        <time>2022-03-21T11:06:09Z</time>
      </trkpt>
      <trkpt lat="44.89819" lon="3.70913">
        <ele>983.48</ele>
        <time>2022-03-21T11:06:11Z</time>
      </trkpt>
      <trkpt lat="44.8982" lon="3.70891">
        <ele>983.52</ele>
        <time>2022-03-21T11:06:14Z</time>
      </trkpt>
      <trkpt lat="44.89818" lon="3.70862">
        <ele>982.88</ele>
        <time>2022-03-21T11:06:16Z</time>
      </trkpt>
      <trkpt lat="44.89811" lon="3.70833">
        <ele>983.78</ele>
        <time>2022-03-21T11:06:19Z</time>
      </trkpt>
      <trkpt lat="44.89783" lon="3.70753">
        <ele>982.92</ele>
        <time>2022-03-21T11:06:21Z</time>
      </trkpt>
      <trkpt lat="44.89762" lon="3.70674">
        <ele>974.32</ele>
        <time>2022-03-21T11:06:23Z</time>
      </trkpt>
      <trkpt lat="44.89765" lon="3.70625">
        <ele>970.53</ele>
        <time>2022-03-21T11:06:26Z</time>
      </trkpt>
      <trkpt lat="44.8979" lon="3.70547">
        <ele>969.34</ele>
        <time>2022-03-21T11:06:28Z</time>
      </trkpt>
      <trkpt lat="44.89796" lon="3.70507">
        <ele>967.72</ele>
        <time>2022-03-21T11:06:31Z</time>
      </trkpt>
      <trkpt lat="44.89796" lon="3.70421">
        <ele>964.52</ele>
        <time>2022-03-21T11:06:33Z</time>
      </trkpt>
      <trkpt lat="44.898" lon="3.70381">
        <ele>961.81</ele>
        <time>2022-03-21T11:06:36Z</time>
      </trkpt>
      <trkpt lat="44.89829" lon="3.70317">
        <ele>956.76</ele>
        <time>2022-03-21T11:06:38Z</time>
      </trkpt>
      <trkpt lat="44.89867" lon="3.70268">
        <ele>953.62</ele>
        <time>2022-03-21T11:06:41Z</time>
      </trkpt>
      <trkpt lat="44.89882" lon="3.70241">
        <ele>953.1</ele>
        <time>2022-03-21T11:06:43Z</time>
      </trkpt>
      <trkpt lat="44.8988" lon="3.70215">
        <ele>948.84</ele>
        <time>2022-03-21T11:06:46Z</time>
      </trkpt>
      <trkpt lat="44.89869" lon="3.70184">
        <ele>941.35</ele>
        <time>2022-03-21T11:06:48Z</time>
      </trkpt>
      <trkpt lat="44.89863" lon="3.70149">
        <ele>936.41</ele>
        <time>2022-03-21T11:06:51Z</time>
      </trkpt>
      <trkpt lat="44.89878" lon="3.70099">
        <ele>937.3</ele>
        <time>2022-03-21T11:06:53Z</time>
      </trkpt>
      <trkpt lat="44.89895" lon="3.70082">
        <ele>937.73</ele>
        <time>2022-03-21T11:06:56Z</time>
      </trkpt>
      <trkpt lat="44.89919" lon="3.70073">
        <ele>939.64</ele>
        <time>2022-03-21T11:06:58Z</time>
      </trkpt>
      <trkpt lat="44.89948" lon="3.70051">
        <ele>937.84</ele>
        <time>2022-03-21T11:07:01Z</time>
      </trkpt>
      <trkpt lat="44.89971" lon="3.70011">
        <ele>932.24</ele>
        <time>2022-03-21T11:07:03Z</time>
      </trkpt>
      <trkpt lat="44.89982" lon="3.69961">
        <ele>930.64</ele>
        <time>2022-03-21T11:07:06Z</time>
      </trkpt>
      <trkpt lat="44.89974" lon="3.69859">
        <ele>923.27</ele>
        <time>2022-03-21T11:07:08Z</time>
      </trkpt>
      <trkpt lat="44.89969" lon="3.69772">
        <ele>919.43</ele>
        <time>2022-03-21T11:07:11Z</time>
      </trkpt>
      <trkpt lat="44.89988" lon="3.69615">
        <ele>909.82</ele>
        <time>2022-03-21T11:07:13Z</time>
      </trkpt>
      <trkpt lat="44.89985" lon="3.69536">
        <ele>905.08</ele>
        <time>2022-03-21T11:07:16Z</time>
      </trkpt>
      <trkpt lat="44.89994" lon="3.69476">
        <ele>903.23</ele>
        <time>2022-03-21T11:07:18Z</time>
      </trkpt>
      <trkpt lat="44.90018" lon="3.69389">
        <ele>901.92</ele>
        <time>2022-03-21T11:07:21Z</time>
      </trkpt>
      <trkpt lat="44.90076" lon="3.69239">
        <ele>889.84</ele>
        <time>2022-03-21T11:07:23Z</time>
      </trkpt>
      <trkpt lat="44.90117" lon="3.69175">
        <ele>883.64</ele>
        <time>2022-03-21T11:07:26Z</time>
      </trkpt>
      <trkpt lat="44.90142" lon="3.6914">
        <ele>879.57</ele>
        <time>2022-03-21T11:07:28Z</time>
      </trkpt>
      <trkpt lat="44.90168" lon="3.69122">
        <ele>878.89</ele>
        <time>2022-03-21T11:07:31Z</time>
      </trkpt>
      <trkpt lat="44.90189" lon="3.69142">
        <ele>880.46</ele>
        <time>2022-03-21T11:07:33Z</time>
      </trkpt>
      <trkpt lat="44.90192" lon="3.69156">
        <ele>880.38</ele>
        <time>2022-03-21T11:07:36Z</time>
      </trkpt>
      <trkpt lat="44.90188" lon="3.69252">
        <ele>880.22</ele>
        <time>2022-03-21T11:07:38Z</time>
      </trkpt>
      <trkpt lat="44.90181" lon="3.69363">
        <ele>882.71</ele>
        <time>2022-03-21T11:07:41Z</time>
      </trkpt>
      <trkpt lat="44.90183" lon="3.69392">
        <ele>878.99</ele>
        <time>2022-03-21T11:07:43Z</time>
      </trkpt>
      <trkpt lat="44.9021" lon="3.69501">
        <ele>875.61</ele>
        <time>2022-03-21T11:07:46Z</time>
      </trkpt>
      <trkpt lat="44.90231" lon="3.69501">
        <ele>870.18</ele>
        <time>2022-03-21T11:07:48Z</time>
      </trkpt>
      <trkpt lat="44.90238" lon="3.69477">
        <ele>865.38</ele>
        <time>2022-03-21T11:07:51Z</time>
      </trkpt>
      <trkpt lat="44.90229" lon="3.69404">
        <ele>860.77</ele>
        <time>2022-03-21T11:07:53Z</time>
      </trkpt>
      <trkpt lat="44.90237" lon="3.69337">
        <ele>863.83</ele>
        <time>2022-03-21T11:07:55Z</time>
      </trkpt>
      <trkpt lat="44.90272" lon="3.6921">
        <ele>858</ele>
        <time>2022-03-21T11:07:58Z</time>
      </trkpt>
      <trkpt lat="44.90288" lon="3.69129">
        <ele>848.66</ele>
        <time>2022-03-21T11:08:00Z</time>
      </trkpt>
      <trkpt lat="44.90308" lon="3.69082">
        <ele>842.98</ele>
        <time>2022-03-21T11:08:03Z</time>
      </trkpt>
      <trkpt lat="44.90318" lon="3.68968">
        <ele>845.2</ele>
        <time>2022-03-21T11:08:05Z</time>
      </trkpt>
      <trkpt lat="44.90312" lon="3.68924">
        <ele>841.02</ele>
        <time>2022-03-21T11:08:08Z</time>
      </trkpt>
      <trkpt lat="44.90302" lon="3.68869">
        <ele>831.36</ele>
        <time>2022-03-21T11:08:10Z</time>
      </trkpt>
      <trkpt lat="44.90275" lon="3.6882">
        <ele>827.75</ele>
        <time>2022-03-21T11:08:13Z</time>
      </trkpt>
      <trkpt lat="44.90204" lon="3.68737">
        <ele>823.82</ele>
        <time>2022-03-21T11:08:15Z</time>
      </trkpt>
      <trkpt lat="44.90182" lon="3.68703">
        <ele>820.16</ele>
        <time>2022-03-21T11:08:18Z</time>
      </trkpt>
      <trkpt lat="44.90146" lon="3.68574">
        <ele>805.28</ele>
        <time>2022-03-21T11:08:20Z</time>
      </trkpt>
      <trkpt lat="44.90138" lon="3.6855">
        <ele>799.36</ele>
        <time>2022-03-21T11:08:23Z</time>
      </trkpt>
      <trkpt lat="44.90125" lon="3.68525">
        <ele>796.88</ele>
        <time>2022-03-21T11:08:25Z</time>
      </trkpt>
      <trkpt lat="44.9009" lon="3.68466">
        <ele>795.75</ele>
        <time>2022-03-21T11:08:28Z</time>
      </trkpt>
      <trkpt lat="44.90089" lon="3.68455">
        <ele>795.93</ele>
        <time>2022-03-21T11:08:30Z</time>
      </trkpt>
      <trkpt lat="44.90092" lon="3.68445">
        <ele>797.1</ele>
        <time>2022-03-21T11:08:33Z</time>
      </trkpt>
      <trkpt lat="44.90097" lon="3.68438">
        <ele>798.13</ele>
        <time>2022-03-21T11:08:35Z</time>
      </trkpt>
      <trkpt lat="44.90105" lon="3.68433">
        <ele>799.49</ele>
        <time>2022-03-21T11:08:38Z</time>
      </trkpt>
      <trkpt lat="44.90115" lon="3.68432">
        <ele>800.59</ele>
        <time>2022-03-21T11:08:40Z</time>
      </trkpt>
      <trkpt lat="44.90125" lon="3.68437">
        <ele>800.82</ele>
        <time>2022-03-21T11:08:43Z</time>
      </trkpt>
      <trkpt lat="44.90176" lon="3.6851">
        <ele>794.05</ele>
        <time>2022-03-21T11:08:45Z</time>
      </trkpt>
      <trkpt lat="44.90241" lon="3.6857">
        <ele>795.28</ele>
        <time>2022-03-21T11:08:48Z</time>
      </trkpt>
      <trkpt lat="44.90309" lon="3.68618">
        <ele>794.45</ele>
        <time>2022-03-21T11:08:50Z</time>
      </trkpt>
      <trkpt lat="44.90395" lon="3.68662">
        <ele>791.74</ele>
        <time>2022-03-21T11:08:53Z</time>
      </trkpt>
      <trkpt lat="44.9041" lon="3.68652">
        <ele>789.42</ele>
        <time>2022-03-21T11:08:55Z</time>
      </trkpt>
      <trkpt lat="44.90431" lon="3.68593">
        <ele>783.81</ele>
        <time>2022-03-21T11:08:58Z</time>
      </trkpt>
      <trkpt lat="44.90483" lon="3.68417">
        <ele>778.6</ele>
        <time>2022-03-21T11:09:00Z</time>
      </trkpt>
      <trkpt lat="44.90521" lon="3.6839">
        <ele>776.7</ele>
        <time>2022-03-21T11:09:05Z</time>
      </trkpt>
      <trkpt lat="44.90558" lon="3.68432">
        <ele>773.46</ele>
        <time>2022-03-21T11:09:07Z</time>
      </trkpt>
      <trkpt lat="44.90571" lon="3.68435">
        <ele>773.34</ele>
        <time>2022-03-21T11:09:10Z</time>
      </trkpt>
      <trkpt lat="44.9077" lon="3.68418">
        <ele>758.18</ele>
        <time>2022-03-21T11:09:12Z</time>
      </trkpt>
      <trkpt lat="44.90799" lon="3.68389">
        <ele>756.45</ele>
        <time>2022-03-21T11:09:15Z</time>
      </trkpt>
      <trkpt lat="44.90825" lon="3.68369">
        <ele>754.35</ele>
        <time>2022-03-21T11:09:18Z</time>
      </trkpt>
      <trkpt lat="44.90862" lon="3.68367">
        <ele>747.99</ele>
        <time>2022-03-21T11:09:20Z</time>
      </trkpt>
      <trkpt lat="44.90907" lon="3.68346">
        <ele>743.34</ele>
        <time>2022-03-21T11:09:23Z</time>
      </trkpt>
      <trkpt lat="44.91006" lon="3.68179">
        <ele>734.92</ele>
        <time>2022-03-21T11:09:25Z</time>
      </trkpt>
      <trkpt lat="44.91052" lon="3.68134">
        <ele>729.85</ele>
        <time>2022-03-21T11:09:28Z</time>
      </trkpt>
      <trkpt lat="44.91147" lon="3.68009">
        <ele>726.38</ele>
        <time>2022-03-21T11:09:30Z</time>
      </trkpt>
      <trkpt lat="44.91186" lon="3.67975">
        <ele>713.39</ele>
        <time>2022-03-21T11:09:33Z</time>
      </trkpt>
      <trkpt lat="44.91207" lon="3.67924">
        <ele>707.8</ele>
        <time>2022-03-21T11:09:36Z</time>
      </trkpt>
      <trkpt lat="44.9122" lon="3.67822">
        <ele>704.36</ele>
        <time>2022-03-21T11:09:38Z</time>
      </trkpt>
      <trkpt lat="44.91284" lon="3.67698">
        <ele>692.68</ele>
        <time>2022-03-21T11:09:41Z</time>
      </trkpt>
      <trkpt lat="44.91342" lon="3.67564">
        <ele>673.41</ele>
        <time>2022-03-21T11:09:43Z</time>
      </trkpt>
      <trkpt lat="44.9136" lon="3.67537">
        <ele>669.81</ele>
        <time>2022-03-21T11:09:46Z</time>
      </trkpt>
      <trkpt lat="44.91478" lon="3.67442">
        <ele>666.84</ele>
        <time>2022-03-21T11:09:49Z</time>
      </trkpt>
      <trkpt lat="44.91483" lon="3.67433">
        <ele>666.49</ele>
        <time>2022-03-21T11:09:51Z</time>
      </trkpt>
      <trkpt lat="44.91486" lon="3.67423">
        <ele>666.2</ele>
        <time>2022-03-21T11:09:54Z</time>
      </trkpt>
      <trkpt lat="44.91485" lon="3.67398">
        <ele>664.57</ele>
        <time>2022-03-21T11:09:56Z</time>
      </trkpt>
      <trkpt lat="44.91488" lon="3.67377">
        <ele>663.81</ele>
        <time>2022-03-21T11:09:59Z</time>
      </trkpt>
      <trkpt lat="44.91493" lon="3.67365">
        <ele>664.09</ele>
        <time>2022-03-21T11:10:02Z</time>
      </trkpt>
      <trkpt lat="44.9151" lon="3.67338">
        <ele>668.15</ele>
        <time>2022-03-21T11:10:04Z</time>
      </trkpt>
      <trkpt lat="44.9152" lon="3.67327">
        <ele>671.36</ele>
        <time>2022-03-21T11:10:07Z</time>
      </trkpt>
      <trkpt lat="44.91575" lon="3.67285">
        <ele>680.8</ele>
        <time>2022-03-21T11:10:09Z</time>
      </trkpt>
      <trkpt lat="44.91613" lon="3.67246">
        <ele>683.58</ele>
        <time>2022-03-21T11:10:12Z</time>
      </trkpt>
      <trkpt lat="44.91639" lon="3.67225">
        <ele>682.29</ele>
        <time>2022-03-21T11:10:15Z</time>
      </trkpt>
      <trkpt lat="44.91668" lon="3.67205">
        <ele>680.12</ele>
        <time>2022-03-21T11:10:17Z</time>
      </trkpt>
      <trkpt lat="44.9173" lon="3.67172">
        <ele>676.36</ele>
        <time>2022-03-21T11:10:20Z</time>
      </trkpt>
      <trkpt lat="44.9173" lon="3.67172">
        <ele>676.36</ele>
        <time>2022-03-21T11:10:20Z</time>
      </trkpt>
      <trkpt lat="44.9177" lon="3.67155">
        <ele>667.42</ele>
        <time>2022-03-21T11:10:22Z</time>
      </trkpt>
      <trkpt lat="44.91778" lon="3.67158">
        <ele>665.47</ele>
        <time>2022-03-21T11:10:25Z</time>
      </trkpt>
      <trkpt lat="44.91828" lon="3.67218">
        <ele>659.08</ele>
        <time>2022-03-21T11:10:27Z</time>
      </trkpt>
      <trkpt lat="44.91837" lon="3.67235">
        <ele>660.36</ele>
        <time>2022-03-21T11:10:29Z</time>
      </trkpt>
      <trkpt lat="44.91849" lon="3.67281">
        <ele>665.25</ele>
        <time>2022-03-21T11:10:32Z</time>
      </trkpt>
      <trkpt lat="44.91855" lon="3.67293">
        <ele>666.19</ele>
        <time>2022-03-21T11:10:34Z</time>
      </trkpt>
      <trkpt lat="44.91881" lon="3.67302">
        <ele>666.66</ele>
        <time>2022-03-21T11:10:37Z</time>
      </trkpt>
      <trkpt lat="44.91891" lon="3.67301">
        <ele>666.38</ele>
        <time>2022-03-21T11:10:39Z</time>
      </trkpt>
      <trkpt lat="44.91905" lon="3.67315">
        <ele>666.38</ele>
        <time>2022-03-21T11:10:41Z</time>
      </trkpt>
      <trkpt lat="44.91962" lon="3.67358">
        <ele>665.08</ele>
        <time>2022-03-21T11:10:44Z</time>
      </trkpt>
      <trkpt lat="44.91968" lon="3.67364">
        <ele>665.03</ele>
        <time>2022-03-21T11:10:46Z</time>
      </trkpt>
      <trkpt lat="44.91972" lon="3.67382">
        <ele>667.09</ele>
        <time>2022-03-21T11:10:48Z</time>
      </trkpt>
      <trkpt lat="44.9197" lon="3.67418">
        <ele>671.18</ele>
        <time>2022-03-21T11:10:51Z</time>
      </trkpt>
      <trkpt lat="44.91974" lon="3.67455">
        <ele>672.24</ele>
        <time>2022-03-21T11:10:53Z</time>
      </trkpt>
      <trkpt lat="44.91981" lon="3.67469">
        <ele>672.27</ele>
        <time>2022-03-21T11:10:55Z</time>
      </trkpt>
      <trkpt lat="44.91993" lon="3.67481">
        <ele>671.87</ele>
        <time>2022-03-21T11:10:58Z</time>
      </trkpt>
      <trkpt lat="44.92" lon="3.67478">
        <ele>671.17</ele>
        <time>2022-03-21T11:10:59Z</time>
      </trkpt>
      <trkpt lat="44.92011" lon="3.67483">
        <ele>670.38</ele>
        <time>2022-03-21T11:11:00Z</time>
      </trkpt>
      <trkpt lat="44.92024" lon="3.675">
        <ele>670.29</ele>
        <time>2022-03-21T11:11:01Z</time>
      </trkpt>
      <trkpt lat="44.92029" lon="3.6751">
        <ele>670.57</ele>
        <time>2022-03-21T11:11:02Z</time>
      </trkpt>
      <trkpt lat="44.92032" lon="3.67536">
        <ele>670.79</ele>
        <time>2022-03-21T11:11:03Z</time>
      </trkpt>
      <trkpt lat="44.92029" lon="3.67563">
        <ele>671.2</ele>
        <time>2022-03-21T11:11:05Z</time>
      </trkpt>
      <trkpt lat="44.92022" lon="3.67599">
        <ele>672.68</ele>
        <time>2022-03-21T11:11:06Z</time>
      </trkpt>
      <trkpt lat="44.92021" lon="3.67631">
        <ele>672.13</ele>
        <time>2022-03-21T11:11:07Z</time>
      </trkpt>
      <trkpt lat="44.92026" lon="3.67676">
        <ele>669.39</ele>
        <time>2022-03-21T11:11:08Z</time>
      </trkpt>
      <trkpt lat="44.92033" lon="3.67718">
        <ele>668.92</ele>
        <time>2022-03-21T11:11:09Z</time>
      </trkpt>
      <trkpt lat="44.92043" lon="3.67731">
        <ele>668.06</ele>
        <time>2022-03-21T11:11:10Z</time>
      </trkpt>
      <trkpt lat="44.92054" lon="3.67734">
        <ele>666.51</ele>
        <time>2022-03-21T11:11:11Z</time>
      </trkpt>
      <trkpt lat="44.92073" lon="3.67731">
        <ele>667.82</ele>
        <time>2022-03-21T11:11:12Z</time>
      </trkpt>
      <trkpt lat="44.92084" lon="3.67713">
        <ele>667.39</ele>
        <time>2022-03-21T11:11:14Z</time>
      </trkpt>
      <trkpt lat="44.92091" lon="3.67657">
        <ele>664.71</ele>
        <time>2022-03-21T11:11:15Z</time>
      </trkpt>
      <trkpt lat="44.92097" lon="3.67641">
        <ele>664.22</ele>
        <time>2022-03-21T11:11:16Z</time>
      </trkpt>
      <trkpt lat="44.92111" lon="3.67625">
        <ele>664.53</ele>
        <time>2022-03-21T11:11:17Z</time>
      </trkpt>
      <trkpt lat="44.92122" lon="3.67618">
        <ele>664.89</ele>
        <time>2022-03-21T11:11:18Z</time>
      </trkpt>
      <trkpt lat="44.92131" lon="3.67619">
        <ele>665.57</ele>
        <time>2022-03-21T11:11:19Z</time>
      </trkpt>
      <trkpt lat="44.92139" lon="3.67625">
        <ele>667.03</ele>
        <time>2022-03-21T11:11:20Z</time>
      </trkpt>
      <trkpt lat="44.92159" lon="3.67654">
        <ele>671.28</ele>
        <time>2022-03-21T11:11:22Z</time>
      </trkpt>
      <trkpt lat="44.9233" lon="3.67933">
        <ele>682.96</ele>
        <time>2022-03-21T11:11:23Z</time>
      </trkpt>
      <trkpt lat="44.92407" lon="3.68112">
        <ele>686.47</ele>
        <time>2022-03-21T11:11:24Z</time>
      </trkpt>
      <trkpt lat="44.92455" lon="3.68179">
        <ele>695.62</ele>
        <time>2022-03-21T11:11:25Z</time>
      </trkpt>
      <trkpt lat="44.92485" lon="3.68209">
        <ele>698.58</ele>
        <time>2022-03-21T11:11:26Z</time>
      </trkpt>
      <trkpt lat="44.92537" lon="3.68229">
        <ele>690.87</ele>
        <time>2022-03-21T11:11:27Z</time>
      </trkpt>
      <trkpt lat="44.92591" lon="3.68276">
        <ele>697.83</ele>
        <time>2022-03-21T11:11:28Z</time>
      </trkpt>
      <trkpt lat="44.9263" lon="3.68315">
        <ele>699.98</ele>
        <time>2022-03-21T11:11:30Z</time>
      </trkpt>
      <trkpt lat="44.9266" lon="3.68324">
        <ele>697.87</ele>
        <time>2022-03-21T11:11:31Z</time>
      </trkpt>
      <trkpt lat="44.92685" lon="3.68347">
        <ele>704.55</ele>
        <time>2022-03-21T11:11:32Z</time>
      </trkpt>
      <trkpt lat="44.92716" lon="3.68333">
        <ele>699.5</ele>
        <time>2022-03-21T11:11:33Z</time>
      </trkpt>
      <trkpt lat="44.92731" lon="3.68332">
        <ele>697.03</ele>
        <time>2022-03-21T11:11:34Z</time>
      </trkpt>
      <trkpt lat="44.92741" lon="3.68342">
        <ele>698.12</ele>
        <time>2022-03-21T11:11:35Z</time>
      </trkpt>
      <trkpt lat="44.92758" lon="3.68384">
        <ele>710.24</ele>
        <time>2022-03-21T11:11:36Z</time>
      </trkpt>
      <trkpt lat="44.92765" lon="3.68392">
        <ele>711.1</ele>
        <time>2022-03-21T11:11:37Z</time>
      </trkpt>
      <trkpt lat="44.92776" lon="3.68395">
        <ele>709.54</ele>
        <time>2022-03-21T11:11:39Z</time>
      </trkpt>
      <trkpt lat="44.92791" lon="3.68382">
        <ele>706.28</ele>
        <time>2022-03-21T11:11:40Z</time>
      </trkpt>
      <trkpt lat="44.92807" lon="3.68344">
        <ele>693.14</ele>
        <time>2022-03-21T11:11:41Z</time>
      </trkpt>
      <trkpt lat="44.92813" lon="3.68336">
        <ele>691.37</ele>
        <time>2022-03-21T11:11:42Z</time>
      </trkpt>
      <trkpt lat="44.92821" lon="3.68334">
        <ele>692.51</ele>
        <time>2022-03-21T11:11:43Z</time>
      </trkpt>
      <trkpt lat="44.92846" lon="3.68337">
        <ele>697.52</ele>
        <time>2022-03-21T11:11:44Z</time>
      </trkpt>
      <trkpt lat="44.92864" lon="3.68335">
        <ele>696.61</ele>
        <time>2022-03-21T11:11:45Z</time>
      </trkpt>
      <trkpt lat="44.92893" lon="3.68327">
        <ele>697.84</ele>
        <time>2022-03-21T11:11:47Z</time>
      </trkpt>
      <trkpt lat="44.92924" lon="3.68323">
        <ele>698.32</ele>
        <time>2022-03-21T11:11:48Z</time>
      </trkpt>
      <trkpt lat="44.92949" lon="3.68324">
        <ele>697.78</ele>
        <time>2022-03-21T11:11:49Z</time>
      </trkpt>
      <trkpt lat="44.92993" lon="3.68314">
        <ele>699.36</ele>
        <time>2022-03-21T11:11:50Z</time>
      </trkpt>
      <trkpt lat="44.93021" lon="3.6832">
        <ele>709.04</ele>
        <time>2022-03-21T11:11:51Z</time>
      </trkpt>
      <trkpt lat="44.93082" lon="3.68315">
        <ele>704.59</ele>
        <time>2022-03-21T11:11:52Z</time>
      </trkpt>
      <trkpt lat="44.93107" lon="3.68317">
        <ele>704.51</ele>
        <time>2022-03-21T11:11:53Z</time>
      </trkpt>
      <trkpt lat="44.93141" lon="3.6833">
        <ele>714.38</ele>
        <time>2022-03-21T11:11:55Z</time>
      </trkpt>
      <trkpt lat="44.93158" lon="3.68346">
        <ele>714.22</ele>
        <time>2022-03-21T11:11:56Z</time>
      </trkpt>
      <trkpt lat="44.93178" lon="3.68371">
        <ele>720</ele>
        <time>2022-03-21T11:11:57Z</time>
      </trkpt>
      <trkpt lat="44.93188" lon="3.68375">
        <ele>721.96</ele>
        <time>2022-03-21T11:11:58Z</time>
      </trkpt>
      <trkpt lat="44.93202" lon="3.68368">
        <ele>718.99</ele>
        <time>2022-03-21T11:11:59Z</time>
      </trkpt>
      <trkpt lat="44.93221" lon="3.68343">
        <ele>708.74</ele>
        <time>2022-03-21T11:12:00Z</time>
      </trkpt>
      <trkpt lat="44.93233" lon="3.68335">
        <ele>705.95</ele>
        <time>2022-03-21T11:12:01Z</time>
      </trkpt>
      <trkpt lat="44.93283" lon="3.68327">
        <ele>714.3</ele>
        <time>2022-03-21T11:12:03Z</time>
      </trkpt>
      <trkpt lat="44.93302" lon="3.68315">
        <ele>713.57</ele>
        <time>2022-03-21T11:12:04Z</time>
      </trkpt>
      <trkpt lat="44.93317" lon="3.68321">
        <ele>717.72</ele>
        <time>2022-03-21T11:12:05Z</time>
      </trkpt>
      <trkpt lat="44.93332" lon="3.68318">
        <ele>716.02</ele>
        <time>2022-03-21T11:12:06Z</time>
      </trkpt>
      <trkpt lat="44.93346" lon="3.6831">
        <ele>711.9</ele>
        <time>2022-03-21T11:12:07Z</time>
      </trkpt>
      <trkpt lat="44.93376" lon="3.68308">
        <ele>715</ele>
        <time>2022-03-21T11:12:08Z</time>
      </trkpt>
      <trkpt lat="44.93391" lon="3.68302">
        <ele>714.93</ele>
        <time>2022-03-21T11:12:09Z</time>
      </trkpt>
      <trkpt lat="44.93403" lon="3.68287">
        <ele>707.82</ele>
        <time>2022-03-21T11:12:10Z</time>
      </trkpt>
      <trkpt lat="44.93416" lon="3.68279">
        <ele>705.64</ele>
        <time>2022-03-21T11:12:12Z</time>
      </trkpt>
      <trkpt lat="44.93432" lon="3.6828">
        <ele>707.93</ele>
        <time>2022-03-21T11:12:13Z</time>
      </trkpt>
      <trkpt lat="44.93456" lon="3.683">
        <ele>713.53</ele>
        <time>2022-03-21T11:12:14Z</time>
      </trkpt>
      <trkpt lat="44.93472" lon="3.68305">
        <ele>714.97</ele>
        <time>2022-03-21T11:12:15Z</time>
      </trkpt>
      <trkpt lat="44.93485" lon="3.68298">
        <ele>718.08</ele>
        <time>2022-03-21T11:12:16Z</time>
      </trkpt>
      <trkpt lat="44.93497" lon="3.68283">
        <ele>716.32</ele>
        <time>2022-03-21T11:12:17Z</time>
      </trkpt>
      <trkpt lat="44.93516" lon="3.68243">
        <ele>711.15</ele>
        <time>2022-03-21T11:12:18Z</time>
      </trkpt>
      <trkpt lat="44.93537" lon="3.68214">
        <ele>709.53</ele>
        <time>2022-03-21T11:12:20Z</time>
      </trkpt>
      <trkpt lat="44.93549" lon="3.68208">
        <ele>712.7</ele>
        <time>2022-03-21T11:12:21Z</time>
      </trkpt>
      <trkpt lat="44.93584" lon="3.68212">
        <ele>724.39</ele>
        <time>2022-03-21T11:12:22Z</time>
      </trkpt>
      <trkpt lat="44.93603" lon="3.68206">
        <ele>725.08</ele>
        <time>2022-03-21T11:12:23Z</time>
      </trkpt>
      <trkpt lat="44.93649" lon="3.68168">
        <ele>727.94</ele>
        <time>2022-03-21T11:12:24Z</time>
      </trkpt>
      <trkpt lat="44.93689" lon="3.68144">
        <ele>733.25</ele>
        <time>2022-03-21T11:12:25Z</time>
      </trkpt>
      <trkpt lat="44.93721" lon="3.68113">
        <ele>729.4</ele>
        <time>2022-03-21T11:12:26Z</time>
      </trkpt>
      <trkpt lat="44.93737" lon="3.68105">
        <ele>727.45</ele>
        <time>2022-03-21T11:12:28Z</time>
      </trkpt>
      <trkpt lat="44.93756" lon="3.68111">
        <ele>728.38</ele>
        <time>2022-03-21T11:12:29Z</time>
      </trkpt>
      <trkpt lat="44.93771" lon="3.68138">
        <ele>733.56</ele>
        <time>2022-03-21T11:12:30Z</time>
      </trkpt>
      <trkpt lat="44.93786" lon="3.68174">
        <ele>739.02</ele>
        <time>2022-03-21T11:12:31Z</time>
      </trkpt>
      <trkpt lat="44.93799" lon="3.6819">
        <ele>738.93</ele>
        <time>2022-03-21T11:12:32Z</time>
      </trkpt>
      <trkpt lat="44.93817" lon="3.68197">
        <ele>737.8</ele>
        <time>2022-03-21T11:12:33Z</time>
      </trkpt>
      <trkpt lat="44.93836" lon="3.68198">
        <ele>737</ele>
        <time>2022-03-21T11:12:34Z</time>
      </trkpt>
      <trkpt lat="44.93862" lon="3.68184">
        <ele>738.62</ele>
        <time>2022-03-21T11:12:35Z</time>
      </trkpt>
      <trkpt lat="44.93871" lon="3.68172">
        <ele>739.8</ele>
        <time>2022-03-21T11:12:37Z</time>
      </trkpt>
      <trkpt lat="44.93876" lon="3.68159">
        <ele>740.09</ele>
        <time>2022-03-21T11:12:38Z</time>
      </trkpt>
      <trkpt lat="44.93877" lon="3.68144">
        <ele>738.97</ele>
        <time>2022-03-21T11:12:39Z</time>
      </trkpt>
      <trkpt lat="44.93872" lon="3.68079">
        <ele>739.12</ele>
        <time>2022-03-21T11:12:40Z</time>
      </trkpt>
      <trkpt lat="44.93875" lon="3.6806">
        <ele>740.81</ele>
        <time>2022-03-21T11:12:41Z</time>
      </trkpt>
      <trkpt lat="44.93881" lon="3.68047">
        <ele>743.48</ele>
        <time>2022-03-21T11:12:42Z</time>
      </trkpt>
      <trkpt lat="44.93894" lon="3.68036">
        <ele>747.59</ele>
        <time>2022-03-21T11:12:43Z</time>
      </trkpt>
      <trkpt lat="44.9393" lon="3.68022">
        <ele>749.04</ele>
        <time>2022-03-21T11:12:45Z</time>
      </trkpt>
      <trkpt lat="44.93965" lon="3.67982">
        <ele>743.38</ele>
        <time>2022-03-21T11:12:46Z</time>
      </trkpt>
      <trkpt lat="44.93989" lon="3.67974">
        <ele>745.98</ele>
        <time>2022-03-21T11:12:47Z</time>
      </trkpt>
      <trkpt lat="44.94002" lon="3.67963">
        <ele>747.66</ele>
        <time>2022-03-21T11:12:48Z</time>
      </trkpt>
      <trkpt lat="44.94009" lon="3.67941">
        <ele>748.33</ele>
        <time>2022-03-21T11:12:49Z</time>
      </trkpt>
      <trkpt lat="44.94044" lon="3.67901">
        <ele>755.49</ele>
        <time>2022-03-21T11:12:50Z</time>
      </trkpt>
      <trkpt lat="44.94061" lon="3.67861">
        <ele>751.84</ele>
        <time>2022-03-21T11:12:51Z</time>
      </trkpt>
      <trkpt lat="44.94074" lon="3.67845">
        <ele>751.33</ele>
        <time>2022-03-21T11:12:53Z</time>
      </trkpt>
      <trkpt lat="44.94106" lon="3.67821">
        <ele>753.47</ele>
        <time>2022-03-21T11:12:54Z</time>
      </trkpt>
      <trkpt lat="44.94138" lon="3.67802">
        <ele>756.71</ele>
        <time>2022-03-21T11:12:55Z</time>
      </trkpt>
      <trkpt lat="44.94163" lon="3.67797">
        <ele>758.9</ele>
        <time>2022-03-21T11:12:56Z</time>
      </trkpt>
      <trkpt lat="44.9418" lon="3.67788">
        <ele>758.5</ele>
        <time>2022-03-21T11:12:57Z</time>
      </trkpt>
      <trkpt lat="44.942" lon="3.67762">
        <ele>755.05</ele>
        <time>2022-03-21T11:12:58Z</time>
      </trkpt>
      <trkpt lat="44.9422" lon="3.67746">
        <ele>754.43</ele>
        <time>2022-03-21T11:12:59Z</time>
      </trkpt>
      <trkpt lat="44.94237" lon="3.67738">
        <ele>758.14</ele>
        <time>2022-03-21T11:13:00Z</time>
      </trkpt>
      <trkpt lat="44.94263" lon="3.67743">
        <ele>768.03</ele>
        <time>2022-03-21T11:13:02Z</time>
      </trkpt>
      <trkpt lat="44.9428" lon="3.67737">
        <ele>769.87</ele>
        <time>2022-03-21T11:13:03Z</time>
      </trkpt>
      <trkpt lat="44.94289" lon="3.67725">
        <ele>767.49</ele>
        <time>2022-03-21T11:13:04Z</time>
      </trkpt>
      <trkpt lat="44.94305" lon="3.67692">
        <ele>761.05</ele>
        <time>2022-03-21T11:13:05Z</time>
      </trkpt>
      <trkpt lat="44.94318" lon="3.6768">
        <ele>762.47</ele>
        <time>2022-03-21T11:13:06Z</time>
      </trkpt>
      <trkpt lat="44.94345" lon="3.67663">
        <ele>766.63</ele>
        <time>2022-03-21T11:13:07Z</time>
      </trkpt>
      <trkpt lat="44.94378" lon="3.67657">
        <ele>771.3</ele>
        <time>2022-03-21T11:13:08Z</time>
      </trkpt>
      <trkpt lat="44.94457" lon="3.67613">
        <ele>769.55</ele>
        <time>2022-03-21T11:13:10Z</time>
      </trkpt>
      <trkpt lat="44.94469" lon="3.67613">
        <ele>773.46</ele>
        <time>2022-03-21T11:13:11Z</time>
      </trkpt>
      <trkpt lat="44.9449" lon="3.67617">
        <ele>779.42</ele>
        <time>2022-03-21T11:13:12Z</time>
      </trkpt>
      <trkpt lat="44.94516" lon="3.67597">
        <ele>773.22</ele>
        <time>2022-03-21T11:13:13Z</time>
      </trkpt>
      <trkpt lat="44.94541" lon="3.67582">
        <ele>771.09</ele>
        <time>2022-03-21T11:13:14Z</time>
      </trkpt>
      <trkpt lat="44.94556" lon="3.67577">
        <ele>773.81</ele>
        <time>2022-03-21T11:13:15Z</time>
      </trkpt>
      <trkpt lat="44.94597" lon="3.67585">
        <ele>778.66</ele>
        <time>2022-03-21T11:13:16Z</time>
      </trkpt>
      <trkpt lat="44.94625" lon="3.67583">
        <ele>774.74</ele>
        <time>2022-03-21T11:13:18Z</time>
      </trkpt>
      <trkpt lat="44.94641" lon="3.67593">
        <ele>775.64</ele>
        <time>2022-03-21T11:13:19Z</time>
      </trkpt>
      <trkpt lat="44.94654" lon="3.67613">
        <ele>778.19</ele>
        <time>2022-03-21T11:13:20Z</time>
      </trkpt>
      <trkpt lat="44.94681" lon="3.67665">
        <ele>784.67</ele>
        <time>2022-03-21T11:13:21Z</time>
      </trkpt>
      <trkpt lat="44.9475" lon="3.67713">
        <ele>776.84</ele>
        <time>2022-03-21T11:13:22Z</time>
      </trkpt>
      <trkpt lat="44.94773" lon="3.67749">
        <ele>784.36</ele>
        <time>2022-03-21T11:13:23Z</time>
      </trkpt>
      <trkpt lat="44.94792" lon="3.67767">
        <ele>781.66</ele>
        <time>2022-03-21T11:13:24Z</time>
      </trkpt>
      <trkpt lat="44.94797" lon="3.67784">
        <ele>782.6</ele>
        <time>2022-03-21T11:13:26Z</time>
      </trkpt>
      <trkpt lat="44.94794" lon="3.67809">
        <ele>785.78</ele>
        <time>2022-03-21T11:13:27Z</time>
      </trkpt>
      <trkpt lat="44.94786" lon="3.6783">
        <ele>790.34</ele>
        <time>2022-03-21T11:13:28Z</time>
      </trkpt>
      <trkpt lat="44.94783" lon="3.67878">
        <ele>786.65</ele>
        <time>2022-03-21T11:13:29Z</time>
      </trkpt>
      <trkpt lat="44.94772" lon="3.67906">
        <ele>787.54</ele>
        <time>2022-03-21T11:13:30Z</time>
      </trkpt>
      <trkpt lat="44.94745" lon="3.67931">
        <ele>797.94</ele>
        <time>2022-03-21T11:13:31Z</time>
      </trkpt>
      <trkpt lat="44.94745" lon="3.67957">
        <ele>793.99</ele>
        <time>2022-03-21T11:13:32Z</time>
      </trkpt>
      <trkpt lat="44.94751" lon="3.67974">
        <ele>787.66</ele>
        <time>2022-03-21T11:13:33Z</time>
      </trkpt>
      <trkpt lat="44.94767" lon="3.67997">
        <ele>778.54</ele>
        <time>2022-03-21T11:13:35Z</time>
      </trkpt>
      <trkpt lat="44.94775" lon="3.6802">
        <ele>774.3</ele>
        <time>2022-03-21T11:13:36Z</time>
      </trkpt>
      <trkpt lat="44.94775" lon="3.68048">
        <ele>773.5</ele>
        <time>2022-03-21T11:13:37Z</time>
      </trkpt>
      <trkpt lat="44.94764" lon="3.68071">
        <ele>776.1</ele>
        <time>2022-03-21T11:13:38Z</time>
      </trkpt>
      <trkpt lat="44.94748" lon="3.68084">
        <ele>780.86</ele>
        <time>2022-03-21T11:13:39Z</time>
      </trkpt>
      <trkpt lat="44.94736" lon="3.68108">
        <ele>780.78</ele>
        <time>2022-03-21T11:13:40Z</time>
      </trkpt>
      <trkpt lat="44.94732" lon="3.6813">
        <ele>779.3</ele>
        <time>2022-03-21T11:13:41Z</time>
      </trkpt>
      <trkpt lat="44.94735" lon="3.68218">
        <ele>775.08</ele>
        <time>2022-03-21T11:13:43Z</time>
      </trkpt>
      <trkpt lat="44.94745" lon="3.68265">
        <ele>769.66</ele>
        <time>2022-03-21T11:13:44Z</time>
      </trkpt>
      <trkpt lat="44.94756" lon="3.683">
        <ele>764.27</ele>
        <time>2022-03-21T11:13:45Z</time>
      </trkpt>
      <trkpt lat="44.94758" lon="3.68314">
        <ele>762.7</ele>
        <time>2022-03-21T11:13:46Z</time>
      </trkpt>
      <trkpt lat="44.94757" lon="3.68325">
        <ele>762.24</ele>
        <time>2022-03-21T11:13:47Z</time>
      </trkpt>
      <trkpt lat="44.94753" lon="3.68334">
        <ele>762.98</ele>
        <time>2022-03-21T11:13:48Z</time>
      </trkpt>
      <trkpt lat="44.94717" lon="3.68367">
        <ele>771.51</ele>
        <time>2022-03-21T11:13:49Z</time>
      </trkpt>
      <trkpt lat="44.94704" lon="3.68382">
        <ele>772.95</ele>
        <time>2022-03-21T11:13:51Z</time>
      </trkpt>
      <trkpt lat="44.94692" lon="3.68409">
        <ele>772.25</ele>
        <time>2022-03-21T11:13:52Z</time>
      </trkpt>
      <trkpt lat="44.9468" lon="3.68441">
        <ele>772.46</ele>
        <time>2022-03-21T11:13:53Z</time>
      </trkpt>
      <trkpt lat="44.94665" lon="3.68494">
        <ele>768.66</ele>
        <time>2022-03-21T11:13:54Z</time>
      </trkpt>
      <trkpt lat="44.94655" lon="3.6855">
        <ele>761.89</ele>
        <time>2022-03-21T11:13:55Z</time>
      </trkpt>
      <trkpt lat="44.94639" lon="3.6859">
        <ele>767.9</ele>
        <time>2022-03-21T11:13:56Z</time>
      </trkpt>
      <trkpt lat="44.94636" lon="3.6861">
        <ele>769.91</ele>
        <time>2022-03-21T11:13:57Z</time>
      </trkpt>
      <trkpt lat="44.94637" lon="3.68617">
        <ele>770.44</ele>
        <time>2022-03-21T11:13:58Z</time>
      </trkpt>
      <trkpt lat="44.94651" lon="3.68629">
        <ele>768.34</ele>
        <time>2022-03-21T11:14:00Z</time>
      </trkpt>
      <trkpt lat="44.94662" lon="3.68627">
        <ele>764.39</ele>
        <time>2022-03-21T11:14:01Z</time>
      </trkpt>
      <trkpt lat="44.94685" lon="3.68598">
        <ele>756.89</ele>
        <time>2022-03-21T11:14:02Z</time>
      </trkpt>
      <trkpt lat="44.94695" lon="3.68588">
        <ele>753.88</ele>
        <time>2022-03-21T11:14:03Z</time>
      </trkpt>
      <trkpt lat="44.94735" lon="3.68556">
        <ele>752.69</ele>
        <time>2022-03-21T11:14:04Z</time>
      </trkpt>
      <trkpt lat="44.94747" lon="3.68551">
        <ele>751.34</ele>
        <time>2022-03-21T11:14:05Z</time>
      </trkpt>
      <trkpt lat="44.94783" lon="3.68544">
        <ele>749.11</ele>
        <time>2022-03-21T11:14:06Z</time>
      </trkpt>
      <trkpt lat="44.94811" lon="3.68546">
        <ele>749.48</ele>
        <time>2022-03-21T11:14:08Z</time>
      </trkpt>
      <trkpt lat="44.94839" lon="3.68538">
        <ele>744.01</ele>
        <time>2022-03-21T11:14:09Z</time>
      </trkpt>
      <trkpt lat="44.94849" lon="3.68539">
        <ele>741.21</ele>
        <time>2022-03-21T11:14:10Z</time>
      </trkpt>
      <trkpt lat="44.94855" lon="3.68544">
        <ele>741.01</ele>
        <time>2022-03-21T11:14:11Z</time>
      </trkpt>
      <trkpt lat="44.94863" lon="3.68553">
        <ele>741.92</ele>
        <time>2022-03-21T11:14:12Z</time>
      </trkpt>
      <trkpt lat="44.94877" lon="3.68587">
        <ele>750.9</ele>
        <time>2022-03-21T11:14:13Z</time>
      </trkpt>
      <trkpt lat="44.94888" lon="3.68601">
        <ele>752.87</ele>
        <time>2022-03-21T11:14:14Z</time>
      </trkpt>
      <trkpt lat="44.94913" lon="3.68625">
        <ele>750.95</ele>
        <time>2022-03-21T11:14:16Z</time>
      </trkpt>
      <trkpt lat="44.94922" lon="3.68637">
        <ele>749.67</ele>
        <time>2022-03-21T11:14:17Z</time>
      </trkpt>
      <trkpt lat="44.9495" lon="3.68688">
        <ele>752.11</ele>
        <time>2022-03-21T11:14:18Z</time>
      </trkpt>
      <trkpt lat="44.9496" lon="3.68699">
        <ele>748.74</ele>
        <time>2022-03-21T11:14:19Z</time>
      </trkpt>
      <trkpt lat="44.95003" lon="3.68727">
        <ele>738.08</ele>
        <time>2022-03-21T11:14:20Z</time>
      </trkpt>
      <trkpt lat="44.95012" lon="3.68736">
        <ele>738.35</ele>
        <time>2022-03-21T11:14:21Z</time>
      </trkpt>
      <trkpt lat="44.95015" lon="3.68743">
        <ele>739.41</ele>
        <time>2022-03-21T11:14:22Z</time>
      </trkpt>
      <trkpt lat="44.95023" lon="3.68776">
        <ele>748</ele>
        <time>2022-03-21T11:14:24Z</time>
      </trkpt>
      <trkpt lat="44.95045" lon="3.68823">
        <ele>754.85</ele>
        <time>2022-03-21T11:14:25Z</time>
      </trkpt>
      <trkpt lat="44.95055" lon="3.68832">
        <ele>753.58</ele>
        <time>2022-03-21T11:14:26Z</time>
      </trkpt>
      <trkpt lat="44.95064" lon="3.68834">
        <ele>752.01</ele>
        <time>2022-03-21T11:14:27Z</time>
      </trkpt>
      <trkpt lat="44.95077" lon="3.68832">
        <ele>747.59</ele>
        <time>2022-03-21T11:14:28Z</time>
      </trkpt>
      <trkpt lat="44.951" lon="3.68824">
        <ele>740.27</ele>
        <time>2022-03-21T11:14:29Z</time>
      </trkpt>
      <trkpt lat="44.95114" lon="3.68826">
        <ele>737.58</ele>
        <time>2022-03-21T11:14:30Z</time>
      </trkpt>
      <trkpt lat="44.95125" lon="3.6883">
        <ele>733.79</ele>
        <time>2022-03-21T11:14:31Z</time>
      </trkpt>
      <trkpt lat="44.95134" lon="3.68837">
        <ele>732.72</ele>
        <time>2022-03-21T11:14:33Z</time>
      </trkpt>
      <trkpt lat="44.9514" lon="3.68846">
        <ele>733.46</ele>
        <time>2022-03-21T11:14:34Z</time>
      </trkpt>
      <trkpt lat="44.95145" lon="3.68858">
        <ele>735.38</ele>
        <time>2022-03-21T11:14:35Z</time>
      </trkpt>
      <trkpt lat="44.95187" lon="3.69017">
        <ele>751</ele>
        <time>2022-03-21T11:14:36Z</time>
      </trkpt>
      <trkpt lat="44.95188" lon="3.6903">
        <ele>752.1</ele>
        <time>2022-03-21T11:14:37Z</time>
      </trkpt>
      <trkpt lat="44.95187" lon="3.6904">
        <ele>752.25</ele>
        <time>2022-03-21T11:14:38Z</time>
      </trkpt>
      <trkpt lat="44.95184" lon="3.6905">
        <ele>753.31</ele>
        <time>2022-03-21T11:14:39Z</time>
      </trkpt>
      <trkpt lat="44.95177" lon="3.6906">
        <ele>756.04</ele>
        <time>2022-03-21T11:14:41Z</time>
      </trkpt>
      <trkpt lat="44.9514" lon="3.69087">
        <ele>772.46</ele>
        <time>2022-03-21T11:14:42Z</time>
      </trkpt>
      <trkpt lat="44.95133" lon="3.69097">
        <ele>773.91</ele>
        <time>2022-03-21T11:14:43Z</time>
      </trkpt>
      <trkpt lat="44.95129" lon="3.69107">
        <ele>773.79</ele>
        <time>2022-03-21T11:14:44Z</time>
      </trkpt>
      <trkpt lat="44.95126" lon="3.69127">
        <ele>772.86</ele>
        <time>2022-03-21T11:14:45Z</time>
      </trkpt>
      <trkpt lat="44.95124" lon="3.69146">
        <ele>773.32</ele>
        <time>2022-03-21T11:14:46Z</time>
      </trkpt>
      <trkpt lat="44.9513" lon="3.69175">
        <ele>774.22</ele>
        <time>2022-03-21T11:14:47Z</time>
      </trkpt>
      <trkpt lat="44.95135" lon="3.69191">
        <ele>775.37</ele>
        <time>2022-03-21T11:14:49Z</time>
      </trkpt>
      <trkpt lat="44.95163" lon="3.69247">
        <ele>770.33</ele>
        <time>2022-03-21T11:14:50Z</time>
      </trkpt>
      <trkpt lat="44.95169" lon="3.69274">
        <ele>766.89</ele>
        <time>2022-03-21T11:14:51Z</time>
      </trkpt>
      <trkpt lat="44.95167" lon="3.69291">
        <ele>767.67</ele>
        <time>2022-03-21T11:14:52Z</time>
      </trkpt>
      <trkpt lat="44.95149" lon="3.69343">
        <ele>773.18</ele>
        <time>2022-03-21T11:14:53Z</time>
      </trkpt>
      <trkpt lat="44.95145" lon="3.69366">
        <ele>771.85</ele>
        <time>2022-03-21T11:14:54Z</time>
      </trkpt>
      <trkpt lat="44.95145" lon="3.69381">
        <ele>772.1</ele>
        <time>2022-03-21T11:14:55Z</time>
      </trkpt>
      <trkpt lat="44.9515" lon="3.69394">
        <ele>770.93</ele>
        <time>2022-03-21T11:14:56Z</time>
      </trkpt>
      <trkpt lat="44.95157" lon="3.69403">
        <ele>768.41</ele>
        <time>2022-03-21T11:14:58Z</time>
      </trkpt>
      <trkpt lat="44.95166" lon="3.69408">
        <ele>764.06</ele>
        <time>2022-03-21T11:14:59Z</time>
      </trkpt>
      <trkpt lat="44.95203" lon="3.69416">
        <ele>748.32</ele>
        <time>2022-03-21T11:15:00Z</time>
      </trkpt>
      <trkpt lat="44.95213" lon="3.6942">
        <ele>746.1</ele>
        <time>2022-03-21T11:15:01Z</time>
      </trkpt>
      <trkpt lat="44.95221" lon="3.69427">
        <ele>744.79</ele>
        <time>2022-03-21T11:15:02Z</time>
      </trkpt>
      <trkpt lat="44.95225" lon="3.69436">
        <ele>745.11</ele>
        <time>2022-03-21T11:15:03Z</time>
      </trkpt>
      <trkpt lat="44.95226" lon="3.69449">
        <ele>745.81</ele>
        <time>2022-03-21T11:15:04Z</time>
      </trkpt>
      <trkpt lat="44.95223" lon="3.69461">
        <ele>746.22</ele>
        <time>2022-03-21T11:15:06Z</time>
      </trkpt>
      <trkpt lat="44.95185" lon="3.69524">
        <ele>754.72</ele>
        <time>2022-03-21T11:15:07Z</time>
      </trkpt>
      <trkpt lat="44.95179" lon="3.69537">
        <ele>755.84</ele>
        <time>2022-03-21T11:15:08Z</time>
      </trkpt>
      <trkpt lat="44.95175" lon="3.69551">
        <ele>756.4</ele>
        <time>2022-03-21T11:15:09Z</time>
      </trkpt>
      <trkpt lat="44.95174" lon="3.69566">
        <ele>756</ele>
        <time>2022-03-21T11:15:10Z</time>
      </trkpt>
      <trkpt lat="44.95177" lon="3.69579">
        <ele>754.31</ele>
        <time>2022-03-21T11:15:11Z</time>
      </trkpt>
      <trkpt lat="44.95183" lon="3.69588">
        <ele>752.87</ele>
        <time>2022-03-21T11:15:12Z</time>
      </trkpt>
      <trkpt lat="44.95191" lon="3.69593">
        <ele>750.84</ele>
        <time>2022-03-21T11:15:14Z</time>
      </trkpt>
      <trkpt lat="44.95204" lon="3.69594">
        <ele>748.36</ele>
        <time>2022-03-21T11:15:15Z</time>
      </trkpt>
      <trkpt lat="44.95254" lon="3.69581">
        <ele>736.38</ele>
        <time>2022-03-21T11:15:16Z</time>
      </trkpt>
      <trkpt lat="44.95265" lon="3.69582">
        <ele>733.62</ele>
        <time>2022-03-21T11:15:17Z</time>
      </trkpt>
      <trkpt lat="44.95276" lon="3.69585">
        <ele>732.66</ele>
        <time>2022-03-21T11:15:18Z</time>
      </trkpt>
      <trkpt lat="44.95297" lon="3.69603">
        <ele>735.99</ele>
        <time>2022-03-21T11:15:19Z</time>
      </trkpt>
      <trkpt lat="44.95355" lon="3.69627">
        <ele>716.85</ele>
        <time>2022-03-21T11:15:20Z</time>
      </trkpt>
      <trkpt lat="44.95365" lon="3.69635">
        <ele>714.7</ele>
        <time>2022-03-21T11:15:21Z</time>
      </trkpt>
      <trkpt lat="44.9537" lon="3.69642">
        <ele>715</ele>
        <time>2022-03-21T11:15:23Z</time>
      </trkpt>
      <trkpt lat="44.95372" lon="3.69656">
        <ele>717.06</ele>
        <time>2022-03-21T11:15:24Z</time>
      </trkpt>
      <trkpt lat="44.95371" lon="3.69676">
        <ele>720.11</ele>
        <time>2022-03-21T11:15:25Z</time>
      </trkpt>
      <trkpt lat="44.95362" lon="3.6972">
        <ele>723.92</ele>
        <time>2022-03-21T11:15:26Z</time>
      </trkpt>
      <trkpt lat="44.9536" lon="3.69734">
        <ele>723.94</ele>
        <time>2022-03-21T11:15:27Z</time>
      </trkpt>
      <trkpt lat="44.9536" lon="3.69748">
        <ele>722.74</ele>
        <time>2022-03-21T11:15:28Z</time>
      </trkpt>
      <trkpt lat="44.95363" lon="3.69763">
        <ele>722.72</ele>
        <time>2022-03-21T11:15:29Z</time>
      </trkpt>
      <trkpt lat="44.9537" lon="3.69777">
        <ele>720.91</ele>
        <time>2022-03-21T11:15:31Z</time>
      </trkpt>
      <trkpt lat="44.95401" lon="3.69816">
        <ele>711.84</ele>
        <time>2022-03-21T11:15:32Z</time>
      </trkpt>
      <trkpt lat="44.95413" lon="3.69836">
        <ele>710.09</ele>
        <time>2022-03-21T11:15:33Z</time>
      </trkpt>
      <trkpt lat="44.95426" lon="3.6987">
        <ele>708.94</ele>
        <time>2022-03-21T11:15:34Z</time>
      </trkpt>
      <trkpt lat="44.95437" lon="3.69916">
        <ele>707.99</ele>
        <time>2022-03-21T11:15:35Z</time>
      </trkpt>
      <trkpt lat="44.95444" lon="3.69972">
        <ele>703.49</ele>
        <time>2022-03-21T11:15:36Z</time>
      </trkpt>
      <trkpt lat="44.95448" lon="3.69991">
        <ele>701.45</ele>
        <time>2022-03-21T11:15:37Z</time>
      </trkpt>
      <trkpt lat="44.95454" lon="3.70005">
        <ele>701.03</ele>
        <time>2022-03-21T11:15:39Z</time>
      </trkpt>
      <trkpt lat="44.95463" lon="3.70016">
        <ele>701.68</ele>
        <time>2022-03-21T11:15:40Z</time>
      </trkpt>
      <trkpt lat="44.95474" lon="3.70021">
        <ele>701.53</ele>
        <time>2022-03-21T11:15:41Z</time>
      </trkpt>
      <trkpt lat="44.95486" lon="3.70023">
        <ele>701.74</ele>
        <time>2022-03-21T11:15:42Z</time>
      </trkpt>
      <trkpt lat="44.95499" lon="3.7002">
        <ele>700.81</ele>
        <time>2022-03-21T11:15:43Z</time>
      </trkpt>
      <trkpt lat="44.95577" lon="3.69994">
        <ele>697.59</ele>
        <time>2022-03-21T11:15:44Z</time>
      </trkpt>
      <trkpt lat="44.95591" lon="3.69986">
        <ele>696.64</ele>
        <time>2022-03-21T11:15:45Z</time>
      </trkpt>
      <trkpt lat="44.95601" lon="3.69976">
        <ele>695.24</ele>
        <time>2022-03-21T11:15:47Z</time>
      </trkpt>
      <trkpt lat="44.95608" lon="3.69964">
        <ele>693.3</ele>
        <time>2022-03-21T11:15:48Z</time>
      </trkpt>
      <trkpt lat="44.95625" lon="3.69907">
        <ele>687.81</ele>
        <time>2022-03-21T11:15:49Z</time>
      </trkpt>
      <trkpt lat="44.95634" lon="3.69881">
        <ele>687.71</ele>
        <time>2022-03-21T11:15:50Z</time>
      </trkpt>
      <trkpt lat="44.9565" lon="3.69855">
        <ele>687.71</ele>
        <time>2022-03-21T11:15:51Z</time>
      </trkpt>
      <trkpt lat="44.95657" lon="3.69848">
        <ele>687.74</ele>
        <time>2022-03-21T11:15:52Z</time>
      </trkpt>
      <trkpt lat="44.95665" lon="3.69844">
        <ele>688</ele>
        <time>2022-03-21T11:15:53Z</time>
      </trkpt>
      <trkpt lat="44.95675" lon="3.69843">
        <ele>687.1</ele>
        <time>2022-03-21T11:15:54Z</time>
      </trkpt>
      <trkpt lat="44.95721" lon="3.69854">
        <ele>684.87</ele>
        <time>2022-03-21T11:15:56Z</time>
      </trkpt>
      <trkpt lat="44.95739" lon="3.69864">
        <ele>685.29</ele>
        <time>2022-03-21T11:15:57Z</time>
      </trkpt>
      <trkpt lat="44.9575" lon="3.69874">
        <ele>685.87</ele>
        <time>2022-03-21T11:15:58Z</time>
      </trkpt>
      <trkpt lat="44.95765" lon="3.69892">
        <ele>686.71</ele>
        <time>2022-03-21T11:15:59Z</time>
      </trkpt>
      <trkpt lat="44.95782" lon="3.69914">
        <ele>686.31</ele>
        <time>2022-03-21T11:16:00Z</time>
      </trkpt>
      <trkpt lat="44.95806" lon="3.69954">
        <ele>686.94</ele>
        <time>2022-03-21T11:16:01Z</time>
      </trkpt>
      <trkpt lat="44.95813" lon="3.69968">
        <ele>688.03</ele>
        <time>2022-03-21T11:16:02Z</time>
      </trkpt>
      <trkpt lat="44.95816" lon="3.69981">
        <ele>689.65</ele>
        <time>2022-03-21T11:16:04Z</time>
      </trkpt>
      <trkpt lat="44.95822" lon="3.70027">
        <ele>698.72</ele>
        <time>2022-03-21T11:16:05Z</time>
      </trkpt>
      <trkpt lat="44.95826" lon="3.70038">
        <ele>701.9</ele>
        <time>2022-03-21T11:16:06Z</time>
      </trkpt>
      <trkpt lat="44.95832" lon="3.70043">
        <ele>703.52</ele>
        <time>2022-03-21T11:16:07Z</time>
      </trkpt>
      <trkpt lat="44.95839" lon="3.70043">
        <ele>704.09</ele>
        <time>2022-03-21T11:16:08Z</time>
      </trkpt>
      <trkpt lat="44.95846" lon="3.70039">
        <ele>703.62</ele>
        <time>2022-03-21T11:16:09Z</time>
      </trkpt>
      <trkpt lat="44.95865" lon="3.70014">
        <ele>700.03</ele>
        <time>2022-03-21T11:16:10Z</time>
      </trkpt>
      <trkpt lat="44.95874" lon="3.70001">
        <ele>699.31</ele>
        <time>2022-03-21T11:16:12Z</time>
      </trkpt>
      <trkpt lat="44.95888" lon="3.69971">
        <ele>700.35</ele>
        <time>2022-03-21T11:16:13Z</time>
      </trkpt>
      <trkpt lat="44.95896" lon="3.6996">
        <ele>700.16</ele>
        <time>2022-03-21T11:16:14Z</time>
      </trkpt>
      <trkpt lat="44.95904" lon="3.69954">
        <ele>701.17</ele>
        <time>2022-03-21T11:16:15Z</time>
      </trkpt>
      <trkpt lat="44.95923" lon="3.69947">
        <ele>703.46</ele>
        <time>2022-03-21T11:16:16Z</time>
      </trkpt>
      <trkpt lat="44.95938" lon="3.69945">
        <ele>704.37</ele>
        <time>2022-03-21T11:16:17Z</time>
      </trkpt>
      <trkpt lat="44.95968" lon="3.69946">
        <ele>708.69</ele>
        <time>2022-03-21T11:16:18Z</time>
      </trkpt>
      <trkpt lat="44.95975" lon="3.69942">
        <ele>709.6</ele>
        <time>2022-03-21T11:16:19Z</time>
      </trkpt>
      <trkpt lat="44.95981" lon="3.69936">
        <ele>711.22</ele>
        <time>2022-03-21T11:16:21Z</time>
      </trkpt>
      <trkpt lat="44.95986" lon="3.69926">
        <ele>713.11</ele>
        <time>2022-03-21T11:16:22Z</time>
      </trkpt>
      <trkpt lat="44.96005" lon="3.69865">
        <ele>718.35</ele>
        <time>2022-03-21T11:16:23Z</time>
      </trkpt>
      <trkpt lat="44.96011" lon="3.69855">
        <ele>717.5</ele>
        <time>2022-03-21T11:16:24Z</time>
      </trkpt>
      <trkpt lat="44.96018" lon="3.69848">
        <ele>716.91</ele>
        <time>2022-03-21T11:16:25Z</time>
      </trkpt>
      <trkpt lat="44.96027" lon="3.69844">
        <ele>717.45</ele>
        <time>2022-03-21T11:16:26Z</time>
      </trkpt>
      <trkpt lat="44.96039" lon="3.69843">
        <ele>719.83</ele>
        <time>2022-03-21T11:16:27Z</time>
      </trkpt>
      <trkpt lat="44.96084" lon="3.69852">
        <ele>734.45</ele>
        <time>2022-03-21T11:16:29Z</time>
      </trkpt>
      <trkpt lat="44.961" lon="3.69853">
        <ele>737.68</ele>
        <time>2022-03-21T11:16:30Z</time>
      </trkpt>
      <trkpt lat="44.96128" lon="3.69845">
        <ele>741.35</ele>
        <time>2022-03-21T11:16:31Z</time>
      </trkpt>
      <trkpt lat="44.96137" lon="3.69838">
        <ele>741.71</ele>
        <time>2022-03-21T11:16:32Z</time>
      </trkpt>
      <trkpt lat="44.96141" lon="3.6983">
        <ele>741.82</ele>
        <time>2022-03-21T11:16:33Z</time>
      </trkpt>
      <trkpt lat="44.96143" lon="3.69821">
        <ele>742.05</ele>
        <time>2022-03-21T11:16:34Z</time>
      </trkpt>
      <trkpt lat="44.96142" lon="3.69807">
        <ele>741.21</ele>
        <time>2022-03-21T11:16:35Z</time>
      </trkpt>
      <trkpt lat="44.96138" lon="3.69781">
        <ele>739.58</ele>
        <time>2022-03-21T11:16:37Z</time>
      </trkpt>
      <trkpt lat="44.96129" lon="3.6975">
        <ele>736.71</ele>
        <time>2022-03-21T11:16:38Z</time>
      </trkpt>
      <trkpt lat="44.96128" lon="3.69734">
        <ele>736.49</ele>
        <time>2022-03-21T11:16:39Z</time>
      </trkpt>
      <trkpt lat="44.9613" lon="3.69716">
        <ele>737.6</ele>
        <time>2022-03-21T11:16:40Z</time>
      </trkpt>
      <trkpt lat="44.96147" lon="3.69659">
        <ele>743.42</ele>
        <time>2022-03-21T11:16:41Z</time>
      </trkpt>
      <trkpt lat="44.96157" lon="3.69595">
        <ele>752.51</ele>
        <time>2022-03-21T11:16:42Z</time>
      </trkpt>
      <trkpt lat="44.96157" lon="3.69542">
        <ele>755.25</ele>
        <time>2022-03-21T11:16:43Z</time>
      </trkpt>
      <trkpt lat="44.96159" lon="3.69512">
        <ele>757.32</ele>
        <time>2022-03-21T11:16:44Z</time>
      </trkpt>
      <trkpt lat="44.96174" lon="3.69394">
        <ele>759.95</ele>
        <time>2022-03-21T11:16:46Z</time>
      </trkpt>
      <trkpt lat="44.96186" lon="3.69312">
        <ele>766.52</ele>
        <time>2022-03-21T11:16:47Z</time>
      </trkpt>
      <trkpt lat="44.96197" lon="3.69253">
        <ele>766.22</ele>
        <time>2022-03-21T11:16:48Z</time>
      </trkpt>
      <trkpt lat="44.96203" lon="3.69233">
        <ele>764.56</ele>
        <time>2022-03-21T11:16:49Z</time>
      </trkpt>
      <trkpt lat="44.96209" lon="3.69221">
        <ele>764.03</ele>
        <time>2022-03-21T11:16:50Z</time>
      </trkpt>
      <trkpt lat="44.96257" lon="3.69167">
        <ele>770.44</ele>
        <time>2022-03-21T11:16:51Z</time>
      </trkpt>
      <trkpt lat="44.96273" lon="3.69144">
        <ele>769.99</ele>
        <time>2022-03-21T11:16:52Z</time>
      </trkpt>
      <trkpt lat="44.96296" lon="3.69095">
        <ele>771.22</ele>
        <time>2022-03-21T11:16:54Z</time>
      </trkpt>
      <trkpt lat="44.96316" lon="3.69057">
        <ele>771.96</ele>
        <time>2022-03-21T11:16:55Z</time>
      </trkpt>
      <trkpt lat="44.96325" lon="3.69045">
        <ele>772.55</ele>
        <time>2022-03-21T11:16:56Z</time>
      </trkpt>
      <trkpt lat="44.96331" lon="3.69041">
        <ele>773.07</ele>
        <time>2022-03-21T11:16:57Z</time>
      </trkpt>
      <trkpt lat="44.96339" lon="3.69036">
        <ele>773.64</ele>
        <time>2022-03-21T11:16:58Z</time>
      </trkpt>
      <trkpt lat="44.9635" lon="3.69033">
        <ele>774.83</ele>
        <time>2022-03-21T11:16:59Z</time>
      </trkpt>
      <trkpt lat="44.96375" lon="3.69035">
        <ele>778.5</ele>
        <time>2022-03-21T11:17:00Z</time>
      </trkpt>
      <trkpt lat="44.96426" lon="3.6906">
        <ele>783.41</ele>
        <time>2022-03-21T11:17:02Z</time>
      </trkpt>
      <trkpt lat="44.96491" lon="3.691">
        <ele>788.11</ele>
        <time>2022-03-21T11:17:03Z</time>
      </trkpt>
      <trkpt lat="44.96502" lon="3.69112">
        <ele>789.59</ele>
        <time>2022-03-21T11:17:04Z</time>
      </trkpt>
      <trkpt lat="44.96516" lon="3.69134">
        <ele>789.94</ele>
        <time>2022-03-21T11:17:05Z</time>
      </trkpt>
      <trkpt lat="44.96523" lon="3.69151">
        <ele>790.82</ele>
        <time>2022-03-21T11:17:06Z</time>
      </trkpt>
      <trkpt lat="44.96539" lon="3.69218">
        <ele>796.78</ele>
        <time>2022-03-21T11:17:07Z</time>
      </trkpt>
      <trkpt lat="44.96547" lon="3.69236">
        <ele>798.76</ele>
        <time>2022-03-21T11:17:08Z</time>
      </trkpt>
      <trkpt lat="44.96555" lon="3.69248">
        <ele>799.86</ele>
        <time>2022-03-21T11:17:10Z</time>
      </trkpt>
      <trkpt lat="44.96568" lon="3.69262">
        <ele>801.81</ele>
        <time>2022-03-21T11:17:11Z</time>
      </trkpt>
      <trkpt lat="44.96584" lon="3.69274">
        <ele>804</ele>
        <time>2022-03-21T11:17:12Z</time>
      </trkpt>
      <trkpt lat="44.96603" lon="3.69282">
        <ele>807.93</ele>
        <time>2022-03-21T11:17:13Z</time>
      </trkpt>
      <trkpt lat="44.96624" lon="3.69288">
        <ele>808.15</ele>
        <time>2022-03-21T11:17:14Z</time>
      </trkpt>
      <trkpt lat="44.96657" lon="3.69291">
        <ele>805.82</ele>
        <time>2022-03-21T11:17:15Z</time>
      </trkpt>
      <trkpt lat="44.9667" lon="3.69296">
        <ele>806.74</ele>
        <time>2022-03-21T11:17:16Z</time>
      </trkpt>
      <trkpt lat="44.96688" lon="3.69311">
        <ele>810.41</ele>
        <time>2022-03-21T11:17:17Z</time>
      </trkpt>
      <trkpt lat="44.96695" lon="3.69321">
        <ele>812.77</ele>
        <time>2022-03-21T11:17:19Z</time>
      </trkpt>
      <trkpt lat="44.96703" lon="3.69341">
        <ele>816.49</ele>
        <time>2022-03-21T11:17:20Z</time>
      </trkpt>
      <trkpt lat="44.96723" lon="3.69423">
        <ele>822.55</ele>
        <time>2022-03-21T11:17:21Z</time>
      </trkpt>
      <trkpt lat="44.96736" lon="3.6946">
        <ele>823.71</ele>
        <time>2022-03-21T11:17:22Z</time>
      </trkpt>
      <trkpt lat="44.96744" lon="3.69477">
        <ele>821.22</ele>
        <time>2022-03-21T11:17:23Z</time>
      </trkpt>
      <trkpt lat="44.96806" lon="3.69573">
        <ele>812.52</ele>
        <time>2022-03-21T11:17:24Z</time>
      </trkpt>
      <trkpt lat="44.96826" lon="3.69613">
        <ele>810.97</ele>
        <time>2022-03-21T11:17:25Z</time>
      </trkpt>
      <trkpt lat="44.96834" lon="3.69636">
        <ele>810.01</ele>
        <time>2022-03-21T11:17:27Z</time>
      </trkpt>
      <trkpt lat="44.9685" lon="3.69705">
        <ele>811.03</ele>
        <time>2022-03-21T11:17:28Z</time>
      </trkpt>
      <trkpt lat="44.96859" lon="3.69734">
        <ele>808.57</ele>
        <time>2022-03-21T11:17:29Z</time>
      </trkpt>
      <trkpt lat="44.96878" lon="3.6978">
        <ele>804.67</ele>
        <time>2022-03-21T11:17:30Z</time>
      </trkpt>
      <trkpt lat="44.96921" lon="3.69875">
        <ele>803.73</ele>
        <time>2022-03-21T11:17:31Z</time>
      </trkpt>
      <trkpt lat="44.96944" lon="3.69939">
        <ele>808.06</ele>
        <time>2022-03-21T11:17:32Z</time>
      </trkpt>
      <trkpt lat="44.96952" lon="3.6995">
        <ele>809.38</ele>
        <time>2022-03-21T11:17:33Z</time>
      </trkpt>
      <trkpt lat="44.96961" lon="3.69959">
        <ele>810.88</ele>
        <time>2022-03-21T11:17:35Z</time>
      </trkpt>
      <trkpt lat="44.9697" lon="3.69963">
        <ele>811.25</ele>
        <time>2022-03-21T11:17:36Z</time>
      </trkpt>
      <trkpt lat="44.96983" lon="3.69964">
        <ele>812.52</ele>
        <time>2022-03-21T11:17:37Z</time>
      </trkpt>
      <trkpt lat="44.96993" lon="3.69962">
        <ele>813.03</ele>
        <time>2022-03-21T11:17:38Z</time>
      </trkpt>
      <trkpt lat="44.97005" lon="3.69956">
        <ele>813.32</ele>
        <time>2022-03-21T11:17:39Z</time>
      </trkpt>
      <trkpt lat="44.97005" lon="3.69956">
        <ele>813.32</ele>
        <time>2022-03-21T11:17:39Z</time>
      </trkpt>
      <trkpt lat="44.97014" lon="3.69948">
        <ele>813.26</ele>
        <time>2022-03-21T11:17:40Z</time>
      </trkpt>
      <trkpt lat="44.97022" lon="3.69936">
        <ele>813.67</ele>
        <time>2022-03-21T11:17:41Z</time>
      </trkpt>
      <trkpt lat="44.97029" lon="3.69923">
        <ele>815.23</ele>
        <time>2022-03-21T11:17:42Z</time>
      </trkpt>
      <trkpt lat="44.97033" lon="3.69908">
        <ele>816.22</ele>
        <time>2022-03-21T11:17:43Z</time>
      </trkpt>
      <trkpt lat="44.97035" lon="3.69891">
        <ele>816.26</ele>
        <time>2022-03-21T11:17:44Z</time>
      </trkpt>
      <trkpt lat="44.97033" lon="3.69847">
        <ele>811.83</ele>
        <time>2022-03-21T11:17:45Z</time>
      </trkpt>
      <trkpt lat="44.97036" lon="3.69804">
        <ele>804.71</ele>
        <time>2022-03-21T11:17:46Z</time>
      </trkpt>
      <trkpt lat="44.97039" lon="3.69792">
        <ele>803.9</ele>
        <time>2022-03-21T11:17:47Z</time>
      </trkpt>
      <trkpt lat="44.97045" lon="3.69781">
        <ele>804.06</ele>
        <time>2022-03-21T11:17:48Z</time>
      </trkpt>
      <trkpt lat="44.97063" lon="3.69761">
        <ele>807.22</ele>
        <time>2022-03-21T11:17:49Z</time>
      </trkpt>
      <trkpt lat="44.97134" lon="3.6971">
        <ele>818.57</ele>
        <time>2022-03-21T11:17:50Z</time>
      </trkpt>
      <trkpt lat="44.97145" lon="3.69699">
        <ele>819.56</ele>
        <time>2022-03-21T11:17:51Z</time>
      </trkpt>
      <trkpt lat="44.9715" lon="3.69689">
        <ele>820.71</ele>
        <time>2022-03-21T11:17:52Z</time>
      </trkpt>
      <trkpt lat="44.97153" lon="3.69665">
        <ele>822.43</ele>
        <time>2022-03-21T11:17:53Z</time>
      </trkpt>
      <trkpt lat="44.97152" lon="3.69646">
        <ele>825.41</ele>
        <time>2022-03-21T11:17:54Z</time>
      </trkpt>
      <trkpt lat="44.97148" lon="3.69631">
        <ele>827.12</ele>
        <time>2022-03-21T11:17:55Z</time>
      </trkpt>
      <trkpt lat="44.97141" lon="3.69616">
        <ele>827.84</ele>
        <time>2022-03-21T11:17:56Z</time>
      </trkpt>
      <trkpt lat="44.97106" lon="3.69563">
        <ele>825.94</ele>
        <time>2022-03-21T11:17:57Z</time>
      </trkpt>
      <trkpt lat="44.97103" lon="3.69551">
        <ele>825.74</ele>
        <time>2022-03-21T11:17:59Z</time>
      </trkpt>
      <trkpt lat="44.97101" lon="3.69539">
        <ele>825.72</ele>
        <time>2022-03-21T11:18:00Z</time>
      </trkpt>
      <trkpt lat="44.97103" lon="3.69527">
        <ele>826.57</ele>
        <time>2022-03-21T11:18:01Z</time>
      </trkpt>
      <trkpt lat="44.97107" lon="3.69509">
        <ele>826.26</ele>
        <time>2022-03-21T11:18:02Z</time>
      </trkpt>
      <trkpt lat="44.9714" lon="3.69435">
        <ele>835.03</ele>
        <time>2022-03-21T11:18:03Z</time>
      </trkpt>
      <trkpt lat="44.97148" lon="3.69415">
        <ele>837.39</ele>
        <time>2022-03-21T11:18:04Z</time>
      </trkpt>
      <trkpt lat="44.97155" lon="3.69389">
        <ele>838.78</ele>
        <time>2022-03-21T11:18:05Z</time>
      </trkpt>
      <trkpt lat="44.97164" lon="3.69327">
        <ele>839.84</ele>
        <time>2022-03-21T11:18:06Z</time>
      </trkpt>
      <trkpt lat="44.97177" lon="3.69214">
        <ele>845.88</ele>
        <time>2022-03-21T11:18:07Z</time>
      </trkpt>
      <trkpt lat="44.97177" lon="3.69191">
        <ele>847.47</ele>
        <time>2022-03-21T11:18:08Z</time>
      </trkpt>
      <trkpt lat="44.97166" lon="3.69136">
        <ele>842.85</ele>
        <time>2022-03-21T11:18:09Z</time>
      </trkpt>
      <trkpt lat="44.97164" lon="3.6912">
        <ele>842.98</ele>
        <time>2022-03-21T11:18:10Z</time>
      </trkpt>
      <trkpt lat="44.97165" lon="3.69106">
        <ele>843.5</ele>
        <time>2022-03-21T11:18:11Z</time>
      </trkpt>
      <trkpt lat="44.97167" lon="3.69092">
        <ele>844.13</ele>
        <time>2022-03-21T11:18:12Z</time>
      </trkpt>
      <trkpt lat="44.97172" lon="3.69077">
        <ele>844.9</ele>
        <time>2022-03-21T11:18:13Z</time>
      </trkpt>
      <trkpt lat="44.97184" lon="3.6906">
        <ele>845.56</ele>
        <time>2022-03-21T11:18:14Z</time>
      </trkpt>
      <trkpt lat="44.97192" lon="3.69053">
        <ele>845.59</ele>
        <time>2022-03-21T11:18:15Z</time>
      </trkpt>
      <trkpt lat="44.97218" lon="3.69046">
        <ele>847.71</ele>
        <time>2022-03-21T11:18:16Z</time>
      </trkpt>
      <trkpt lat="44.97353" lon="3.69038">
        <ele>847.97</ele>
        <time>2022-03-21T11:18:17Z</time>
      </trkpt>
      <trkpt lat="44.97386" lon="3.69041">
        <ele>848.31</ele>
        <time>2022-03-21T11:18:18Z</time>
      </trkpt>
      <trkpt lat="44.97428" lon="3.69047">
        <ele>846.31</ele>
        <time>2022-03-21T11:18:19Z</time>
      </trkpt>
      <trkpt lat="44.97448" lon="3.6906">
        <ele>844.93</ele>
        <time>2022-03-21T11:18:20Z</time>
      </trkpt>
      <trkpt lat="44.97458" lon="3.69071">
        <ele>845.13</ele>
        <time>2022-03-21T11:18:21Z</time>
      </trkpt>
      <trkpt lat="44.97467" lon="3.69085">
        <ele>846.12</ele>
        <time>2022-03-21T11:18:22Z</time>
      </trkpt>
      <trkpt lat="44.97479" lon="3.69113">
        <ele>846.17</ele>
        <time>2022-03-21T11:18:23Z</time>
      </trkpt>
      <trkpt lat="44.97494" lon="3.6919">
        <ele>849.55</ele>
        <time>2022-03-21T11:18:24Z</time>
      </trkpt>
      <trkpt lat="44.97503" lon="3.69218">
        <ele>851.31</ele>
        <time>2022-03-21T11:18:25Z</time>
      </trkpt>
      <trkpt lat="44.97524" lon="3.69258">
        <ele>849.13</ele>
        <time>2022-03-21T11:18:26Z</time>
      </trkpt>
      <trkpt lat="44.97544" lon="3.69328">
        <ele>849.85</ele>
        <time>2022-03-21T11:18:27Z</time>
      </trkpt>
      <trkpt lat="44.9756" lon="3.69391">
        <ele>849.74</ele>
        <time>2022-03-21T11:18:28Z</time>
      </trkpt>
      <trkpt lat="44.97563" lon="3.69397">
        <ele>850.07</ele>
        <time>2022-03-21T11:18:29Z</time>
      </trkpt>
      <trkpt lat="44.97568" lon="3.69402">
        <ele>850.21</ele>
        <time>2022-03-21T11:18:30Z</time>
      </trkpt>
      <trkpt lat="44.97576" lon="3.69405">
        <ele>850.19</ele>
        <time>2022-03-21T11:18:31Z</time>
      </trkpt>
      <trkpt lat="44.97583" lon="3.69403">
        <ele>849.59</ele>
        <time>2022-03-21T11:18:32Z</time>
      </trkpt>
      <trkpt lat="44.9759" lon="3.69398">
        <ele>850.33</ele>
        <time>2022-03-21T11:18:33Z</time>
      </trkpt>
      <trkpt lat="44.97597" lon="3.69389">
        <ele>849.9</ele>
        <time>2022-03-21T11:18:34Z</time>
      </trkpt>
      <trkpt lat="44.97608" lon="3.69363">
        <ele>846.03</ele>
        <time>2022-03-21T11:18:35Z</time>
      </trkpt>
      <trkpt lat="44.97641" lon="3.69274">
        <ele>838.75</ele>
        <time>2022-03-21T11:18:36Z</time>
      </trkpt>
      <trkpt lat="44.97649" lon="3.69241">
        <ele>838.55</ele>
        <time>2022-03-21T11:18:37Z</time>
      </trkpt>
      <trkpt lat="44.97655" lon="3.69193">
        <ele>833.86</ele>
        <time>2022-03-21T11:18:38Z</time>
      </trkpt>
      <trkpt lat="44.97659" lon="3.69175">
        <ele>832.3</ele>
        <time>2022-03-21T11:18:39Z</time>
      </trkpt>
      <trkpt lat="44.97665" lon="3.69165">
        <ele>832.03</ele>
        <time>2022-03-21T11:18:40Z</time>
      </trkpt>
      <trkpt lat="44.97673" lon="3.69155">
        <ele>832.61</ele>
        <time>2022-03-21T11:18:41Z</time>
      </trkpt>
      <trkpt lat="44.97683" lon="3.69147">
        <ele>834.19</ele>
        <time>2022-03-21T11:18:43Z</time>
      </trkpt>
      <trkpt lat="44.97733" lon="3.6911">
        <ele>837.22</ele>
        <time>2022-03-21T11:18:44Z</time>
      </trkpt>
      <trkpt lat="44.97747" lon="3.69095">
        <ele>837.03</ele>
        <time>2022-03-21T11:18:45Z</time>
      </trkpt>
      <trkpt lat="44.97781" lon="3.69046">
        <ele>831.72</ele>
        <time>2022-03-21T11:18:46Z</time>
      </trkpt>
      <trkpt lat="44.97788" lon="3.69039">
        <ele>830.68</ele>
        <time>2022-03-21T11:18:47Z</time>
      </trkpt>
      <trkpt lat="44.97795" lon="3.69036">
        <ele>830.8</ele>
        <time>2022-03-21T11:18:48Z</time>
      </trkpt>
      <trkpt lat="44.97803" lon="3.69036">
        <ele>832.13</ele>
        <time>2022-03-21T11:18:49Z</time>
      </trkpt>
      <trkpt lat="44.97814" lon="3.69044">
        <ele>834.27</ele>
        <time>2022-03-21T11:18:50Z</time>
      </trkpt>
      <trkpt lat="44.97817" lon="3.69052">
        <ele>836.33</ele>
        <time>2022-03-21T11:18:51Z</time>
      </trkpt>
      <trkpt lat="44.97828" lon="3.69105">
        <ele>847.84</ele>
        <time>2022-03-21T11:18:52Z</time>
      </trkpt>
      <trkpt lat="44.97832" lon="3.69117">
        <ele>850.3</ele>
        <time>2022-03-21T11:18:53Z</time>
      </trkpt>
      <trkpt lat="44.97837" lon="3.69126">
        <ele>851.69</ele>
        <time>2022-03-21T11:18:54Z</time>
      </trkpt>
      <trkpt lat="44.97844" lon="3.6913">
        <ele>850.86</ele>
        <time>2022-03-21T11:18:55Z</time>
      </trkpt>
      <trkpt lat="44.97853" lon="3.6913">
        <ele>847.86</ele>
        <time>2022-03-21T11:18:56Z</time>
      </trkpt>
      <trkpt lat="44.97869" lon="3.6912">
        <ele>843.62</ele>
        <time>2022-03-21T11:18:57Z</time>
      </trkpt>
      <trkpt lat="44.97875" lon="3.69112">
        <ele>842.22</ele>
        <time>2022-03-21T11:18:58Z</time>
      </trkpt>
      <trkpt lat="44.97883" lon="3.69095">
        <ele>839.7</ele>
        <time>2022-03-21T11:18:59Z</time>
      </trkpt>
      <trkpt lat="44.97891" lon="3.69086">
        <ele>839.11</ele>
        <time>2022-03-21T11:19:00Z</time>
      </trkpt>
      <trkpt lat="44.97949" lon="3.69033">
        <ele>842.05</ele>
        <time>2022-03-21T11:19:01Z</time>
      </trkpt>
      <trkpt lat="44.97959" lon="3.69027">
        <ele>841.16</ele>
        <time>2022-03-21T11:19:02Z</time>
      </trkpt>
      <trkpt lat="44.97969" lon="3.69023">
        <ele>840.99</ele>
        <time>2022-03-21T11:19:03Z</time>
      </trkpt>
      <trkpt lat="44.97991" lon="3.69023">
        <ele>842.85</ele>
        <time>2022-03-21T11:19:04Z</time>
      </trkpt>
      <trkpt lat="44.98024" lon="3.69032">
        <ele>849.47</ele>
        <time>2022-03-21T11:19:05Z</time>
      </trkpt>
      <trkpt lat="44.98054" lon="3.69036">
        <ele>854.24</ele>
        <time>2022-03-21T11:19:06Z</time>
      </trkpt>
      <trkpt lat="44.98064" lon="3.69034">
        <ele>853.76</ele>
        <time>2022-03-21T11:19:07Z</time>
      </trkpt>
      <trkpt lat="44.98073" lon="3.69028">
        <ele>851.59</ele>
        <time>2022-03-21T11:19:08Z</time>
      </trkpt>
      <trkpt lat="44.98099" lon="3.68996">
        <ele>839.41</ele>
        <time>2022-03-21T11:19:09Z</time>
      </trkpt>
      <trkpt lat="44.98109" lon="3.68989">
        <ele>838.14</ele>
        <time>2022-03-21T11:19:10Z</time>
      </trkpt>
      <trkpt lat="44.98119" lon="3.68987">
        <ele>838.7</ele>
        <time>2022-03-21T11:19:11Z</time>
      </trkpt>
      <trkpt lat="44.98126" lon="3.68987">
        <ele>839.6</ele>
        <time>2022-03-21T11:19:12Z</time>
      </trkpt>
      <trkpt lat="44.98133" lon="3.68992">
        <ele>841.85</ele>
        <time>2022-03-21T11:19:13Z</time>
      </trkpt>
      <trkpt lat="44.98166" lon="3.69023">
        <ele>853.34</ele>
        <time>2022-03-21T11:19:14Z</time>
      </trkpt>
      <trkpt lat="44.98176" lon="3.69028">
        <ele>854.76</ele>
        <time>2022-03-21T11:19:15Z</time>
      </trkpt>
      <trkpt lat="44.98185" lon="3.6903">
        <ele>855.01</ele>
        <time>2022-03-21T11:19:16Z</time>
      </trkpt>
      <trkpt lat="44.98222" lon="3.69028">
        <ele>853.96</ele>
        <time>2022-03-21T11:19:17Z</time>
      </trkpt>
      <trkpt lat="44.98244" lon="3.69037">
        <ele>855.95</ele>
        <time>2022-03-21T11:19:18Z</time>
      </trkpt>
      <trkpt lat="44.98262" lon="3.6905">
        <ele>861.46</ele>
        <time>2022-03-21T11:19:19Z</time>
      </trkpt>
      <trkpt lat="44.98269" lon="3.69052">
        <ele>863.11</ele>
        <time>2022-03-21T11:19:20Z</time>
      </trkpt>
      <trkpt lat="44.98276" lon="3.69051">
        <ele>863.71</ele>
        <time>2022-03-21T11:19:21Z</time>
      </trkpt>
      <trkpt lat="44.98282" lon="3.69045">
        <ele>862.79</ele>
        <time>2022-03-21T11:19:22Z</time>
      </trkpt>
      <trkpt lat="44.9829" lon="3.69032">
        <ele>861.26</ele>
        <time>2022-03-21T11:19:23Z</time>
      </trkpt>
      <trkpt lat="44.98292" lon="3.69022">
        <ele>861</ele>
        <time>2022-03-21T11:19:24Z</time>
      </trkpt>
      <trkpt lat="44.9829" lon="3.69012">
        <ele>860.6</ele>
        <time>2022-03-21T11:19:25Z</time>
      </trkpt>
      <trkpt lat="44.98266" lon="3.68941">
        <ele>852.21</ele>
        <time>2022-03-21T11:19:26Z</time>
      </trkpt>
      <trkpt lat="44.9826" lon="3.68927">
        <ele>851.48</ele>
        <time>2022-03-21T11:19:28Z</time>
      </trkpt>
      <trkpt lat="44.98252" lon="3.68917">
        <ele>850.48</ele>
        <time>2022-03-21T11:19:29Z</time>
      </trkpt>
      <trkpt lat="44.98218" lon="3.68895">
        <ele>841.07</ele>
        <time>2022-03-21T11:19:30Z</time>
      </trkpt>
      <trkpt lat="44.98212" lon="3.68888">
        <ele>839.65</ele>
        <time>2022-03-21T11:19:31Z</time>
      </trkpt>
      <trkpt lat="44.9821" lon="3.6888">
        <ele>839.12</ele>
        <time>2022-03-21T11:19:32Z</time>
      </trkpt>
      <trkpt lat="44.98211" lon="3.6887">
        <ele>839.33</ele>
        <time>2022-03-21T11:19:33Z</time>
      </trkpt>
      <trkpt lat="44.98215" lon="3.68863">
        <ele>840.59</ele>
        <time>2022-03-21T11:19:34Z</time>
      </trkpt>
      <trkpt lat="44.98222" lon="3.68856">
        <ele>843.06</ele>
        <time>2022-03-21T11:19:35Z</time>
      </trkpt>
      <trkpt lat="44.98243" lon="3.68845">
        <ele>851.79</ele>
        <time>2022-03-21T11:19:36Z</time>
      </trkpt>
      <trkpt lat="44.98248" lon="3.68838">
        <ele>854.1</ele>
        <time>2022-03-21T11:19:37Z</time>
      </trkpt>
      <trkpt lat="44.98251" lon="3.68829">
        <ele>855.64</ele>
        <time>2022-03-21T11:19:38Z</time>
      </trkpt>
      <trkpt lat="44.98251" lon="3.68819">
        <ele>856.46</ele>
        <time>2022-03-21T11:19:39Z</time>
      </trkpt>
      <trkpt lat="44.98249" lon="3.68808">
        <ele>856.21</ele>
        <time>2022-03-21T11:19:40Z</time>
      </trkpt>
      <trkpt lat="44.98242" lon="3.68798">
        <ele>855.15</ele>
        <time>2022-03-21T11:19:41Z</time>
      </trkpt>
      <trkpt lat="44.98231" lon="3.68787">
        <ele>853.53</ele>
        <time>2022-03-21T11:19:42Z</time>
      </trkpt>
      <trkpt lat="44.98223" lon="3.68781">
        <ele>852.23</ele>
        <time>2022-03-21T11:19:43Z</time>
      </trkpt>
      <trkpt lat="44.98212" lon="3.68778">
        <ele>851.05</ele>
        <time>2022-03-21T11:19:44Z</time>
      </trkpt>
      <trkpt lat="44.98145" lon="3.68772">
        <ele>843.71</ele>
        <time>2022-03-21T11:19:45Z</time>
      </trkpt>
      <trkpt lat="44.9806" lon="3.68769">
        <ele>838.71</ele>
        <time>2022-03-21T11:19:46Z</time>
      </trkpt>
      <trkpt lat="44.98052" lon="3.68762">
        <ele>838.37</ele>
        <time>2022-03-21T11:19:47Z</time>
      </trkpt>
      <trkpt lat="44.98045" lon="3.68752">
        <ele>838.35</ele>
        <time>2022-03-21T11:19:48Z</time>
      </trkpt>
      <trkpt lat="44.98042" lon="3.6874">
        <ele>838.59</ele>
        <time>2022-03-21T11:19:49Z</time>
      </trkpt>
      <trkpt lat="44.98042" lon="3.68727">
        <ele>839.26</ele>
        <time>2022-03-21T11:19:50Z</time>
      </trkpt>
      <trkpt lat="44.98044" lon="3.68716">
        <ele>839.61</ele>
        <time>2022-03-21T11:19:51Z</time>
      </trkpt>
      <trkpt lat="44.98049" lon="3.68708">
        <ele>840.04</ele>
        <time>2022-03-21T11:19:52Z</time>
      </trkpt>
      <trkpt lat="44.98056" lon="3.68702">
        <ele>840.65</ele>
        <time>2022-03-21T11:19:53Z</time>
      </trkpt>
      <trkpt lat="44.98116" lon="3.68686">
        <ele>849.66</ele>
        <time>2022-03-21T11:19:54Z</time>
      </trkpt>
      <trkpt lat="44.98239" lon="3.68602">
        <ele>854.93</ele>
        <time>2022-03-21T11:19:55Z</time>
      </trkpt>
      <trkpt lat="44.98245" lon="3.68592">
        <ele>855.26</ele>
        <time>2022-03-21T11:19:56Z</time>
      </trkpt>
      <trkpt lat="44.98248" lon="3.68581">
        <ele>854.98</ele>
        <time>2022-03-21T11:19:57Z</time>
      </trkpt>
      <trkpt lat="44.98247" lon="3.6857">
        <ele>854.37</ele>
        <time>2022-03-21T11:19:58Z</time>
      </trkpt>
      <trkpt lat="44.98237" lon="3.68519">
        <ele>843.38</ele>
        <time>2022-03-21T11:19:59Z</time>
      </trkpt>
      <trkpt lat="44.98236" lon="3.68494">
        <ele>837.9</ele>
        <time>2022-03-21T11:20:00Z</time>
      </trkpt>
      <trkpt lat="44.98238" lon="3.68485">
        <ele>837.34</ele>
        <time>2022-03-21T11:20:01Z</time>
      </trkpt>
      <trkpt lat="44.98243" lon="3.68476">
        <ele>837.57</ele>
        <time>2022-03-21T11:20:02Z</time>
      </trkpt>
      <trkpt lat="44.98251" lon="3.68469">
        <ele>839.31</ele>
        <time>2022-03-21T11:20:03Z</time>
      </trkpt>
      <trkpt lat="44.9828" lon="3.68453">
        <ele>854.73</ele>
        <time>2022-03-21T11:20:04Z</time>
      </trkpt>
      <trkpt lat="44.98291" lon="3.68441">
        <ele>858.84</ele>
        <time>2022-03-21T11:20:05Z</time>
      </trkpt>
      <trkpt lat="44.98293" lon="3.68431">
        <ele>857.68</ele>
        <time>2022-03-21T11:20:06Z</time>
      </trkpt>
      <trkpt lat="44.98292" lon="3.68402">
        <ele>849.75</ele>
        <time>2022-03-21T11:20:07Z</time>
      </trkpt>
      <trkpt lat="44.98293" lon="3.68389">
        <ele>847.59</ele>
        <time>2022-03-21T11:20:08Z</time>
      </trkpt>
      <trkpt lat="44.98295" lon="3.68376">
        <ele>847.11</ele>
        <time>2022-03-21T11:20:09Z</time>
      </trkpt>
      <trkpt lat="44.98306" lon="3.68345">
        <ele>851.05</ele>
        <time>2022-03-21T11:20:10Z</time>
      </trkpt>
      <trkpt lat="44.98309" lon="3.68316">
        <ele>849.37</ele>
        <time>2022-03-21T11:20:12Z</time>
      </trkpt>
      <trkpt lat="44.98317" lon="3.68288">
        <ele>848.44</ele>
        <time>2022-03-21T11:20:13Z</time>
      </trkpt>
      <trkpt lat="44.98326" lon="3.6822">
        <ele>836.34</ele>
        <time>2022-03-21T11:20:14Z</time>
      </trkpt>
      <trkpt lat="44.98329" lon="3.68213">
        <ele>836.4</ele>
        <time>2022-03-21T11:20:15Z</time>
      </trkpt>
      <trkpt lat="44.98336" lon="3.6821">
        <ele>838.88</ele>
        <time>2022-03-21T11:20:16Z</time>
      </trkpt>
      <trkpt lat="44.98367" lon="3.68208">
        <ele>853.17</ele>
        <time>2022-03-21T11:20:17Z</time>
      </trkpt>
      <trkpt lat="44.9838" lon="3.68205">
        <ele>858.51</ele>
        <time>2022-03-21T11:20:18Z</time>
      </trkpt>
      <trkpt lat="44.9839" lon="3.68198">
        <ele>859.61</ele>
        <time>2022-03-21T11:20:19Z</time>
      </trkpt>
      <trkpt lat="44.98397" lon="3.6819">
        <ele>858.83</ele>
        <time>2022-03-21T11:20:20Z</time>
      </trkpt>
      <trkpt lat="44.98402" lon="3.68178">
        <ele>856.41</ele>
        <time>2022-03-21T11:20:21Z</time>
      </trkpt>
      <trkpt lat="44.98405" lon="3.68158">
        <ele>850.65</ele>
        <time>2022-03-21T11:20:22Z</time>
      </trkpt>
      <trkpt lat="44.98408" lon="3.68149">
        <ele>848.55</ele>
        <time>2022-03-21T11:20:23Z</time>
      </trkpt>
      <trkpt lat="44.98414" lon="3.68142">
        <ele>847.69</ele>
        <time>2022-03-21T11:20:24Z</time>
      </trkpt>
      <trkpt lat="44.98436" lon="3.68131">
        <ele>854.12</ele>
        <time>2022-03-21T11:20:25Z</time>
      </trkpt>
      <trkpt lat="44.98445" lon="3.68129">
        <ele>857.52</ele>
        <time>2022-03-21T11:20:26Z</time>
      </trkpt>
      <trkpt lat="44.98469" lon="3.68137">
        <ele>867.07</ele>
        <time>2022-03-21T11:20:27Z</time>
      </trkpt>
      <trkpt lat="44.98478" lon="3.68136">
        <ele>867.71</ele>
        <time>2022-03-21T11:20:28Z</time>
      </trkpt>
      <trkpt lat="44.98494" lon="3.68129">
        <ele>865.34</ele>
        <time>2022-03-21T11:20:29Z</time>
      </trkpt>
      <trkpt lat="44.98532" lon="3.68127">
        <ele>865.18</ele>
        <time>2022-03-21T11:20:30Z</time>
      </trkpt>
      <trkpt lat="44.98549" lon="3.68119">
        <ele>859.78</ele>
        <time>2022-03-21T11:20:31Z</time>
      </trkpt>
      <trkpt lat="44.98564" lon="3.68106">
        <ele>853.6</ele>
        <time>2022-03-21T11:20:32Z</time>
      </trkpt>
      <trkpt lat="44.98572" lon="3.68105">
        <ele>854.09</ele>
        <time>2022-03-21T11:20:33Z</time>
      </trkpt>
      <trkpt lat="44.98581" lon="3.68107">
        <ele>856.18</ele>
        <time>2022-03-21T11:20:34Z</time>
      </trkpt>
      <trkpt lat="44.98604" lon="3.68119">
        <ele>862.5</ele>
        <time>2022-03-21T11:20:35Z</time>
      </trkpt>
      <trkpt lat="44.98653" lon="3.68126">
        <ele>860.96</ele>
        <time>2022-03-21T11:20:36Z</time>
      </trkpt>
      <trkpt lat="44.98679" lon="3.68127">
        <ele>858.56</ele>
        <time>2022-03-21T11:20:37Z</time>
      </trkpt>
      <trkpt lat="44.98698" lon="3.68131">
        <ele>858.61</ele>
        <time>2022-03-21T11:20:38Z</time>
      </trkpt>
      <trkpt lat="44.98709" lon="3.68131">
        <ele>857.48</ele>
        <time>2022-03-21T11:20:39Z</time>
      </trkpt>
      <trkpt lat="44.98759" lon="3.68124">
        <ele>857.88</ele>
        <time>2022-03-21T11:20:40Z</time>
      </trkpt>
      <trkpt lat="44.9877" lon="3.68117">
        <ele>856.34</ele>
        <time>2022-03-21T11:20:41Z</time>
      </trkpt>
      <trkpt lat="44.98785" lon="3.68102">
        <ele>851.04</ele>
        <time>2022-03-21T11:20:42Z</time>
      </trkpt>
      <trkpt lat="44.9883" lon="3.68078">
        <ele>853.32</ele>
        <time>2022-03-21T11:20:43Z</time>
      </trkpt>
      <trkpt lat="44.98839" lon="3.6807">
        <ele>853.28</ele>
        <time>2022-03-21T11:20:44Z</time>
      </trkpt>
      <trkpt lat="44.98843" lon="3.68062">
        <ele>852.2</ele>
        <time>2022-03-21T11:20:45Z</time>
      </trkpt>
      <trkpt lat="44.98844" lon="3.68055">
        <ele>850.73</ele>
        <time>2022-03-21T11:20:46Z</time>
      </trkpt>
      <trkpt lat="44.98841" lon="3.6801">
        <ele>851.25</ele>
        <time>2022-03-21T11:20:47Z</time>
      </trkpt>
      <trkpt lat="44.98839" lon="3.68002">
        <ele>852.17</ele>
        <time>2022-03-21T11:20:48Z</time>
      </trkpt>
      <trkpt lat="44.98836" lon="3.67996">
        <ele>853.36</ele>
        <time>2022-03-21T11:20:49Z</time>
      </trkpt>
      <trkpt lat="44.98828" lon="3.67993">
        <ele>853.76</ele>
        <time>2022-03-21T11:20:50Z</time>
      </trkpt>
      <trkpt lat="44.98748" lon="3.67991">
        <ele>849.68</ele>
        <time>2022-03-21T11:20:51Z</time>
      </trkpt>
      <trkpt lat="44.98737" lon="3.67985">
        <ele>850.76</ele>
        <time>2022-03-21T11:20:52Z</time>
      </trkpt>
      <trkpt lat="44.98707" lon="3.67963">
        <ele>856.14</ele>
        <time>2022-03-21T11:20:53Z</time>
      </trkpt>
      <trkpt lat="44.987" lon="3.67959">
        <ele>856.79</ele>
        <time>2022-03-21T11:20:54Z</time>
      </trkpt>
      <trkpt lat="44.98686" lon="3.67958">
        <ele>855.71</ele>
        <time>2022-03-21T11:20:55Z</time>
      </trkpt>
      <trkpt lat="44.98662" lon="3.67967">
        <ele>850.68</ele>
        <time>2022-03-21T11:20:57Z</time>
      </trkpt>
      <trkpt lat="44.98654" lon="3.67964">
        <ele>849.43</ele>
        <time>2022-03-21T11:20:58Z</time>
      </trkpt>
      <trkpt lat="44.98647" lon="3.67957">
        <ele>849.15</ele>
        <time>2022-03-21T11:20:59Z</time>
      </trkpt>
      <trkpt lat="44.98624" lon="3.67908">
        <ele>848.71</ele>
        <time>2022-03-21T11:21:00Z</time>
      </trkpt>
      <trkpt lat="44.98621" lon="3.67898">
        <ele>848.72</ele>
        <time>2022-03-21T11:21:01Z</time>
      </trkpt>
      <trkpt lat="44.9862" lon="3.6789">
        <ele>849.21</ele>
        <time>2022-03-21T11:21:02Z</time>
      </trkpt>
      <trkpt lat="44.98623" lon="3.67879">
        <ele>849.3</ele>
        <time>2022-03-21T11:21:03Z</time>
      </trkpt>
      <trkpt lat="44.98628" lon="3.67872">
        <ele>849.78</ele>
        <time>2022-03-21T11:21:04Z</time>
      </trkpt>
      <trkpt lat="44.98742" lon="3.67782">
        <ele>857.43</ele>
        <time>2022-03-21T11:21:05Z</time>
      </trkpt>
      <trkpt lat="44.98793" lon="3.67737">
        <ele>857.92</ele>
        <time>2022-03-21T11:21:06Z</time>
      </trkpt>
      <trkpt lat="44.98805" lon="3.67731">
        <ele>859.31</ele>
        <time>2022-03-21T11:21:07Z</time>
      </trkpt>
      <trkpt lat="44.98815" lon="3.67729">
        <ele>859.46</ele>
        <time>2022-03-21T11:21:08Z</time>
      </trkpt>
      <trkpt lat="44.98823" lon="3.67732">
        <ele>860.53</ele>
        <time>2022-03-21T11:21:09Z</time>
      </trkpt>
      <trkpt lat="44.98831" lon="3.67738">
        <ele>862.33</ele>
        <time>2022-03-21T11:21:10Z</time>
      </trkpt>
      <trkpt lat="44.98881" lon="3.67835">
        <ele>870.77</ele>
        <time>2022-03-21T11:21:11Z</time>
      </trkpt>
      <trkpt lat="44.98911" lon="3.67874">
        <ele>873.04</ele>
        <time>2022-03-21T11:21:12Z</time>
      </trkpt>
      <trkpt lat="44.98956" lon="3.67894">
        <ele>873.03</ele>
        <time>2022-03-21T11:21:13Z</time>
      </trkpt>
      <trkpt lat="44.98961" lon="3.67906">
        <ele>874.67</ele>
        <time>2022-03-21T11:21:14Z</time>
      </trkpt>
      <trkpt lat="44.98976" lon="3.67895">
        <ele>874.12</ele>
        <time>2022-03-21T11:21:16Z</time>
      </trkpt>
      <trkpt lat="44.98996" lon="3.6787">
        <ele>873.4</ele>
        <time>2022-03-21T11:21:18Z</time>
      </trkpt>
      <trkpt lat="44.99003" lon="3.67852">
        <ele>873.34</ele>
        <time>2022-03-21T11:21:20Z</time>
      </trkpt>
      <trkpt lat="44.99003" lon="3.67852">
        <ele>873.34</ele>
        <time>2022-03-21T11:21:20Z</time>
      </trkpt>
      <trkpt lat="44.99003" lon="3.67843">
        <ele>873.33</ele>
        <time>2022-03-21T11:21:22Z</time>
      </trkpt>
      <trkpt lat="44.99" lon="3.67828">
        <ele>873.23</ele>
        <time>2022-03-21T11:21:24Z</time>
      </trkpt>
      <trkpt lat="44.98984" lon="3.67771">
        <ele>872.61</ele>
        <time>2022-03-21T11:21:26Z</time>
      </trkpt>
      <trkpt lat="44.98987" lon="3.67767">
        <ele>873.75</ele>
        <time>2022-03-21T11:21:28Z</time>
      </trkpt>
      <trkpt lat="44.98981" lon="3.67723">
        <ele>874.72</ele>
        <time>2022-03-21T11:21:30Z</time>
      </trkpt>
      <trkpt lat="44.98972" lon="3.67615">
        <ele>877.91</ele>
        <time>2022-03-21T11:21:32Z</time>
      </trkpt>
      <trkpt lat="44.98957" lon="3.67512">
        <ele>881.55</ele>
        <time>2022-03-21T11:21:33Z</time>
      </trkpt>
      <trkpt lat="44.98951" lon="3.67493">
        <ele>880.86</ele>
        <time>2022-03-21T11:21:35Z</time>
      </trkpt>
      <trkpt lat="44.98943" lon="3.67475">
        <ele>879.34</ele>
        <time>2022-03-21T11:21:37Z</time>
      </trkpt>
      <trkpt lat="44.98904" lon="3.67409">
        <ele>880.65</ele>
        <time>2022-03-21T11:21:39Z</time>
      </trkpt>
      <trkpt lat="44.98895" lon="3.67387">
        <ele>882.6</ele>
        <time>2022-03-21T11:21:41Z</time>
      </trkpt>
      <trkpt lat="44.98889" lon="3.67357">
        <ele>883.17</ele>
        <time>2022-03-21T11:21:42Z</time>
      </trkpt>
      <trkpt lat="44.98885" lon="3.67328">
        <ele>884.17</ele>
        <time>2022-03-21T11:21:44Z</time>
      </trkpt>
      <trkpt lat="44.98884" lon="3.67288">
        <ele>883.22</ele>
        <time>2022-03-21T11:21:46Z</time>
      </trkpt>
      <trkpt lat="44.98885" lon="3.67269">
        <ele>882.38</ele>
        <time>2022-03-21T11:21:48Z</time>
      </trkpt>
      <trkpt lat="44.9889" lon="3.67253">
        <ele>882.01</ele>
        <time>2022-03-21T11:21:50Z</time>
      </trkpt>
      <trkpt lat="44.98897" lon="3.67237">
        <ele>881.19</ele>
        <time>2022-03-21T11:21:51Z</time>
      </trkpt>
      <trkpt lat="44.98938" lon="3.67176">
        <ele>877.22</ele>
        <time>2022-03-21T11:21:53Z</time>
      </trkpt>
      <trkpt lat="44.98949" lon="3.67163">
        <ele>875.67</ele>
        <time>2022-03-21T11:21:55Z</time>
      </trkpt>
      <trkpt lat="44.98959" lon="3.67156">
        <ele>875.13</ele>
        <time>2022-03-21T11:21:57Z</time>
      </trkpt>
      <trkpt lat="44.9897" lon="3.67151">
        <ele>875.32</ele>
        <time>2022-03-21T11:21:59Z</time>
      </trkpt>
      <trkpt lat="44.98999" lon="3.67146">
        <ele>876.43</ele>
        <time>2022-03-21T11:22:00Z</time>
      </trkpt>
      <trkpt lat="44.99006" lon="3.67139">
        <ele>876.85</ele>
        <time>2022-03-21T11:22:02Z</time>
      </trkpt>
      <trkpt lat="44.99009" lon="3.6713">
        <ele>876.98</ele>
        <time>2022-03-21T11:22:04Z</time>
      </trkpt>
      <trkpt lat="44.99008" lon="3.6712">
        <ele>876.72</ele>
        <time>2022-03-21T11:22:06Z</time>
      </trkpt>
      <trkpt lat="44.99005" lon="3.6711">
        <ele>875.83</ele>
        <time>2022-03-21T11:22:07Z</time>
      </trkpt>
      <trkpt lat="44.98988" lon="3.6709">
        <ele>870.04</ele>
        <time>2022-03-21T11:22:09Z</time>
      </trkpt>
      <trkpt lat="44.98983" lon="3.67077">
        <ele>868</ele>
        <time>2022-03-21T11:22:11Z</time>
      </trkpt>
      <trkpt lat="44.98979" lon="3.67059">
        <ele>866.46</ele>
        <time>2022-03-21T11:22:13Z</time>
      </trkpt>
      <trkpt lat="44.98977" lon="3.67015">
        <ele>868.99</ele>
        <time>2022-03-21T11:22:15Z</time>
      </trkpt>
      <trkpt lat="44.98973" lon="3.67005">
        <ele>870.23</ele>
        <time>2022-03-21T11:22:16Z</time>
      </trkpt>
      <trkpt lat="44.98966" lon="3.67001">
        <ele>871.51</ele>
        <time>2022-03-21T11:22:18Z</time>
      </trkpt>
      <trkpt lat="44.98958" lon="3.67001">
        <ele>872.34</ele>
        <time>2022-03-21T11:22:20Z</time>
      </trkpt>
      <trkpt lat="44.98901" lon="3.67033">
        <ele>869.85</ele>
        <time>2022-03-21T11:22:22Z</time>
      </trkpt>
      <trkpt lat="44.98891" lon="3.67035">
        <ele>869.51</ele>
        <time>2022-03-21T11:22:24Z</time>
      </trkpt>
      <trkpt lat="44.98883" lon="3.67034">
        <ele>869.09</ele>
        <time>2022-03-21T11:22:25Z</time>
      </trkpt>
      <trkpt lat="44.9886" lon="3.67022">
        <ele>868.3</ele>
        <time>2022-03-21T11:22:27Z</time>
      </trkpt>
      <trkpt lat="44.98814" lon="3.66988">
        <ele>869.25</ele>
        <time>2022-03-21T11:22:29Z</time>
      </trkpt>
      <trkpt lat="44.98785" lon="3.66972">
        <ele>870.61</ele>
        <time>2022-03-21T11:22:31Z</time>
      </trkpt>
      <trkpt lat="44.98754" lon="3.6696">
        <ele>870.24</ele>
        <time>2022-03-21T11:22:32Z</time>
      </trkpt>
      <trkpt lat="44.98668" lon="3.66941">
        <ele>876.24</ele>
        <time>2022-03-21T11:22:34Z</time>
      </trkpt>
      <trkpt lat="44.98631" lon="3.6693">
        <ele>875.78</ele>
        <time>2022-03-21T11:22:36Z</time>
      </trkpt>
      <trkpt lat="44.98614" lon="3.66921">
        <ele>875.77</ele>
        <time>2022-03-21T11:22:38Z</time>
      </trkpt>
      <trkpt lat="44.98562" lon="3.66884">
        <ele>874.29</ele>
        <time>2022-03-21T11:22:40Z</time>
      </trkpt>
      <trkpt lat="44.98539" lon="3.66874">
        <ele>873.96</ele>
        <time>2022-03-21T11:22:41Z</time>
      </trkpt>
      <trkpt lat="44.98484" lon="3.66859">
        <ele>877.79</ele>
        <time>2022-03-21T11:22:43Z</time>
      </trkpt>
      <trkpt lat="44.98433" lon="3.66853">
        <ele>876.77</ele>
        <time>2022-03-21T11:22:45Z</time>
      </trkpt>
      <trkpt lat="44.98406" lon="3.66846">
        <ele>875.69</ele>
        <time>2022-03-21T11:22:47Z</time>
      </trkpt>
      <trkpt lat="44.98376" lon="3.66846">
        <ele>874.52</ele>
        <time>2022-03-21T11:22:49Z</time>
      </trkpt>
      <trkpt lat="44.98325" lon="3.66838">
        <ele>873.37</ele>
        <time>2022-03-21T11:22:50Z</time>
      </trkpt>
      <trkpt lat="44.98263" lon="3.66816">
        <ele>873.83</ele>
        <time>2022-03-21T11:22:52Z</time>
      </trkpt>
      <trkpt lat="44.98198" lon="3.66803">
        <ele>869.02</ele>
        <time>2022-03-21T11:22:54Z</time>
      </trkpt>
      <trkpt lat="44.98152" lon="3.66783">
        <ele>867.22</ele>
        <time>2022-03-21T11:22:56Z</time>
      </trkpt>
      <trkpt lat="44.98019" lon="3.66734">
        <ele>858.75</ele>
        <time>2022-03-21T11:22:58Z</time>
      </trkpt>
      <trkpt lat="44.98001" lon="3.66726">
        <ele>856.66</ele>
        <time>2022-03-21T11:22:59Z</time>
      </trkpt>
      <trkpt lat="44.97985" lon="3.66716">
        <ele>855.88</ele>
        <time>2022-03-21T11:23:01Z</time>
      </trkpt>
      <trkpt lat="44.97944" lon="3.66676">
        <ele>852.6</ele>
        <time>2022-03-21T11:23:03Z</time>
      </trkpt>
      <trkpt lat="44.97926" lon="3.66652">
        <ele>847.92</ele>
        <time>2022-03-21T11:23:05Z</time>
      </trkpt>
      <trkpt lat="44.97911" lon="3.66627">
        <ele>845.11</ele>
        <time>2022-03-21T11:23:06Z</time>
      </trkpt>
      <trkpt lat="44.97899" lon="3.66599">
        <ele>842.96</ele>
        <time>2022-03-21T11:23:08Z</time>
      </trkpt>
      <trkpt lat="44.9789" lon="3.6657">
        <ele>842.22</ele>
        <time>2022-03-21T11:23:10Z</time>
      </trkpt>
      <trkpt lat="44.9788" lon="3.66519">
        <ele>839.88</ele>
        <time>2022-03-21T11:23:12Z</time>
      </trkpt>
      <trkpt lat="44.97875" lon="3.66477">
        <ele>835.52</ele>
        <time>2022-03-21T11:23:14Z</time>
      </trkpt>
      <trkpt lat="44.97874" lon="3.66446">
        <ele>832.34</ele>
        <time>2022-03-21T11:23:15Z</time>
      </trkpt>
      <trkpt lat="44.97882" lon="3.6641">
        <ele>829.48</ele>
        <time>2022-03-21T11:23:17Z</time>
      </trkpt>
      <trkpt lat="44.97922" lon="3.66318">
        <ele>822.74</ele>
        <time>2022-03-21T11:23:19Z</time>
      </trkpt>
      <trkpt lat="44.97937" lon="3.66289">
        <ele>820.89</ele>
        <time>2022-03-21T11:23:21Z</time>
      </trkpt>
      <trkpt lat="44.97954" lon="3.66263">
        <ele>819.62</ele>
        <time>2022-03-21T11:23:23Z</time>
      </trkpt>
      <trkpt lat="44.97978" lon="3.66233">
        <ele>819.1</ele>
        <time>2022-03-21T11:23:24Z</time>
      </trkpt>
      <trkpt lat="44.98069" lon="3.66147">
        <ele>813.32</ele>
        <time>2022-03-21T11:23:26Z</time>
      </trkpt>
      <trkpt lat="44.98077" lon="3.66134">
        <ele>809.82</ele>
        <time>2022-03-21T11:23:28Z</time>
      </trkpt>
      <trkpt lat="44.98085" lon="3.66118">
        <ele>805.29</ele>
        <time>2022-03-21T11:23:30Z</time>
      </trkpt>
      <trkpt lat="44.98088" lon="3.66103">
        <ele>802.53</ele>
        <time>2022-03-21T11:23:32Z</time>
      </trkpt>
      <trkpt lat="44.98089" lon="3.66085">
        <ele>800.1</ele>
        <time>2022-03-21T11:23:33Z</time>
      </trkpt>
      <trkpt lat="44.98088" lon="3.66067">
        <ele>799.55</ele>
        <time>2022-03-21T11:23:35Z</time>
      </trkpt>
      <trkpt lat="44.98083" lon="3.66048">
        <ele>799.24</ele>
        <time>2022-03-21T11:23:37Z</time>
      </trkpt>
      <trkpt lat="44.98074" lon="3.66032">
        <ele>799.22</ele>
        <time>2022-03-21T11:23:39Z</time>
      </trkpt>
      <trkpt lat="44.98059" lon="3.66015">
        <ele>798.3</ele>
        <time>2022-03-21T11:23:40Z</time>
      </trkpt>
      <trkpt lat="44.9786" lon="3.65829">
        <ele>783.66</ele>
        <time>2022-03-21T11:23:42Z</time>
      </trkpt>
      <trkpt lat="44.9781" lon="3.65772">
        <ele>779.95</ele>
        <time>2022-03-21T11:23:44Z</time>
      </trkpt>
      <trkpt lat="44.9775" lon="3.65695">
        <ele>774</ele>
        <time>2022-03-21T11:23:46Z</time>
      </trkpt>
      <trkpt lat="44.97703" lon="3.65637">
        <ele>773.68</ele>
        <time>2022-03-21T11:23:48Z</time>
      </trkpt>
      <trkpt lat="44.97693" lon="3.65619">
        <ele>773.55</ele>
        <time>2022-03-21T11:23:49Z</time>
      </trkpt>
      <trkpt lat="44.97683" lon="3.65575">
        <ele>774.03</ele>
        <time>2022-03-21T11:23:51Z</time>
      </trkpt>
      <trkpt lat="44.97678" lon="3.65529">
        <ele>775.36</ele>
        <time>2022-03-21T11:23:53Z</time>
      </trkpt>
      <trkpt lat="44.97675" lon="3.65463">
        <ele>778.2</ele>
        <time>2022-03-21T11:23:55Z</time>
      </trkpt>
      <trkpt lat="44.97676" lon="3.65429">
        <ele>778.13</ele>
        <time>2022-03-21T11:23:57Z</time>
      </trkpt>
      <trkpt lat="44.97679" lon="3.65409">
        <ele>777.33</ele>
        <time>2022-03-21T11:23:58Z</time>
      </trkpt>
      <trkpt lat="44.97687" lon="3.65382">
        <ele>776.13</ele>
        <time>2022-03-21T11:24:00Z</time>
      </trkpt>
      <trkpt lat="44.97696" lon="3.65356">
        <ele>776.14</ele>
        <time>2022-03-21T11:24:02Z</time>
      </trkpt>
      <trkpt lat="44.97782" lon="3.65175">
        <ele>770.18</ele>
        <time>2022-03-21T11:24:04Z</time>
      </trkpt>
      <trkpt lat="44.97827" lon="3.65086">
        <ele>768.72</ele>
        <time>2022-03-21T11:24:06Z</time>
      </trkpt>
      <trkpt lat="44.97872" lon="3.64987">
        <ele>763.94</ele>
        <time>2022-03-21T11:24:07Z</time>
      </trkpt>
      <trkpt lat="44.97876" lon="3.64973">
        <ele>763.74</ele>
        <time>2022-03-21T11:24:09Z</time>
      </trkpt>
      <trkpt lat="44.97878" lon="3.64957">
        <ele>764.96</ele>
        <time>2022-03-21T11:24:11Z</time>
      </trkpt>
      <trkpt lat="44.97877" lon="3.64941">
        <ele>766.14</ele>
        <time>2022-03-21T11:24:13Z</time>
      </trkpt>
      <trkpt lat="44.97871" lon="3.64921">
        <ele>768</ele>
        <time>2022-03-21T11:24:14Z</time>
      </trkpt>
      <trkpt lat="44.97828" lon="3.64864">
        <ele>768.89</ele>
        <time>2022-03-21T11:24:16Z</time>
      </trkpt>
      <trkpt lat="44.97802" lon="3.64801">
        <ele>764.51</ele>
        <time>2022-03-21T11:24:18Z</time>
      </trkpt>
      <trkpt lat="44.97797" lon="3.64784">
        <ele>764.51</ele>
        <time>2022-03-21T11:24:20Z</time>
      </trkpt>
      <trkpt lat="44.97796" lon="3.64758">
        <ele>765.17</ele>
        <time>2022-03-21T11:24:22Z</time>
      </trkpt>
      <trkpt lat="44.97797" lon="3.64748">
        <ele>765.73</ele>
        <time>2022-03-21T11:24:23Z</time>
      </trkpt>
      <trkpt lat="44.97803" lon="3.64735">
        <ele>765.69</ele>
        <time>2022-03-21T11:24:25Z</time>
      </trkpt>
      <trkpt lat="44.97803" lon="3.64735">
        <ele>765.69</ele>
        <time>2022-03-21T11:24:25Z</time>
      </trkpt>
      <trkpt lat="44.97811" lon="3.64722">
        <ele>766.19</ele>
        <time>2022-03-21T11:24:27Z</time>
      </trkpt>
      <trkpt lat="44.97839" lon="3.64691">
        <ele>764.3</ele>
        <time>2022-03-21T11:24:28Z</time>
      </trkpt>
      <trkpt lat="44.97852" lon="3.64678">
        <ele>763.86</ele>
        <time>2022-03-21T11:24:30Z</time>
      </trkpt>
      <trkpt lat="44.98026" lon="3.6456">
        <ele>755.97</ele>
        <time>2022-03-21T11:24:31Z</time>
      </trkpt>
      <trkpt lat="44.98042" lon="3.64546">
        <ele>754.59</ele>
        <time>2022-03-21T11:24:33Z</time>
      </trkpt>
      <trkpt lat="44.98148" lon="3.6442">
        <ele>752.35</ele>
        <time>2022-03-21T11:24:35Z</time>
      </trkpt>
      <trkpt lat="44.98203" lon="3.6433">
        <ele>750.76</ele>
        <time>2022-03-21T11:24:36Z</time>
      </trkpt>
      <trkpt lat="44.9822" lon="3.64308">
        <ele>747.41</ele>
        <time>2022-03-21T11:24:38Z</time>
      </trkpt>
      <trkpt lat="44.98235" lon="3.64294">
        <ele>747.33</ele>
        <time>2022-03-21T11:24:39Z</time>
      </trkpt>
      <trkpt lat="44.98255" lon="3.64278">
        <ele>747.9</ele>
        <time>2022-03-21T11:24:41Z</time>
      </trkpt>
      <trkpt lat="44.98405" lon="3.64166">
        <ele>748.9</ele>
        <time>2022-03-21T11:24:42Z</time>
      </trkpt>
      <trkpt lat="44.98429" lon="3.64142">
        <ele>746.61</ele>
        <time>2022-03-21T11:24:44Z</time>
      </trkpt>
      <trkpt lat="44.98439" lon="3.64128">
        <ele>746.5</ele>
        <time>2022-03-21T11:24:45Z</time>
      </trkpt>
      <trkpt lat="44.98449" lon="3.64111">
        <ele>746.42</ele>
        <time>2022-03-21T11:24:47Z</time>
      </trkpt>
      <trkpt lat="44.98506" lon="3.63986">
        <ele>751.71</ele>
        <time>2022-03-21T11:24:49Z</time>
      </trkpt>
      <trkpt lat="44.98524" lon="3.63955">
        <ele>753.65</ele>
        <time>2022-03-21T11:24:50Z</time>
      </trkpt>
      <trkpt lat="44.98551" lon="3.63922">
        <ele>759.51</ele>
        <time>2022-03-21T11:24:52Z</time>
      </trkpt>
      <trkpt lat="44.98586" lon="3.63887">
        <ele>762.69</ele>
        <time>2022-03-21T11:24:53Z</time>
      </trkpt>
      <trkpt lat="44.98603" lon="3.63876">
        <ele>761.3</ele>
        <time>2022-03-21T11:24:55Z</time>
      </trkpt>
      <trkpt lat="44.98706" lon="3.63845">
        <ele>761.95</ele>
        <time>2022-03-21T11:24:56Z</time>
      </trkpt>
      <trkpt lat="44.9874" lon="3.63829">
        <ele>762.2</ele>
        <time>2022-03-21T11:24:58Z</time>
      </trkpt>
      <trkpt lat="44.98838" lon="3.63776">
        <ele>760.02</ele>
        <time>2022-03-21T11:24:59Z</time>
      </trkpt>
      <trkpt lat="44.98865" lon="3.63758">
        <ele>758.69</ele>
        <time>2022-03-21T11:25:01Z</time>
      </trkpt>
      <trkpt lat="44.98906" lon="3.63717">
        <ele>756.75</ele>
        <time>2022-03-21T11:25:03Z</time>
      </trkpt>
      <trkpt lat="44.98922" lon="3.63704">
        <ele>758.74</ele>
        <time>2022-03-21T11:25:04Z</time>
      </trkpt>
      <trkpt lat="44.99038" lon="3.63631">
        <ele>765.61</ele>
        <time>2022-03-21T11:25:06Z</time>
      </trkpt>
      <trkpt lat="44.99073" lon="3.63623">
        <ele>763.72</ele>
        <time>2022-03-21T11:25:07Z</time>
      </trkpt>
      <trkpt lat="44.99087" lon="3.63626">
        <ele>763.4</ele>
        <time>2022-03-21T11:25:09Z</time>
      </trkpt>
      <trkpt lat="44.99099" lon="3.63631">
        <ele>763.56</ele>
        <time>2022-03-21T11:25:10Z</time>
      </trkpt>
      <trkpt lat="44.99118" lon="3.63649">
        <ele>764.3</ele>
        <time>2022-03-21T11:25:12Z</time>
      </trkpt>
      <trkpt lat="44.99214" lon="3.63795">
        <ele>770.42</ele>
        <time>2022-03-21T11:25:13Z</time>
      </trkpt>
      <trkpt lat="44.9923" lon="3.63832">
        <ele>774.51</ele>
        <time>2022-03-21T11:25:15Z</time>
      </trkpt>
      <trkpt lat="44.99236" lon="3.6384">
        <ele>773.43</ele>
        <time>2022-03-21T11:25:17Z</time>
      </trkpt>
      <trkpt lat="44.99244" lon="3.63846">
        <ele>771.52</ele>
        <time>2022-03-21T11:25:18Z</time>
      </trkpt>
      <trkpt lat="44.99255" lon="3.63847">
        <ele>770.05</ele>
        <time>2022-03-21T11:25:20Z</time>
      </trkpt>
      <trkpt lat="44.99264" lon="3.63845">
        <ele>770.21</ele>
        <time>2022-03-21T11:25:21Z</time>
      </trkpt>
      <trkpt lat="44.99273" lon="3.63839">
        <ele>770.54</ele>
        <time>2022-03-21T11:25:23Z</time>
      </trkpt>
      <trkpt lat="44.99278" lon="3.63832">
        <ele>771.03</ele>
        <time>2022-03-21T11:25:24Z</time>
      </trkpt>
      <trkpt lat="44.99284" lon="3.63811">
        <ele>771.87</ele>
        <time>2022-03-21T11:25:26Z</time>
      </trkpt>
      <trkpt lat="44.99286" lon="3.63766">
        <ele>768.83</ele>
        <time>2022-03-21T11:25:27Z</time>
      </trkpt>
      <trkpt lat="44.9931" lon="3.63584">
        <ele>773.03</ele>
        <time>2022-03-21T11:25:29Z</time>
      </trkpt>
      <trkpt lat="44.99316" lon="3.63553">
        <ele>773.57</ele>
        <time>2022-03-21T11:25:31Z</time>
      </trkpt>
      <trkpt lat="44.99338" lon="3.63482">
        <ele>774.04</ele>
        <time>2022-03-21T11:25:32Z</time>
      </trkpt>
      <trkpt lat="44.99346" lon="3.63465">
        <ele>773.54</ele>
        <time>2022-03-21T11:25:34Z</time>
      </trkpt>
      <trkpt lat="44.99355" lon="3.63454">
        <ele>773.37</ele>
        <time>2022-03-21T11:25:35Z</time>
      </trkpt>
      <trkpt lat="44.99367" lon="3.63443">
        <ele>773.3</ele>
        <time>2022-03-21T11:25:37Z</time>
      </trkpt>
      <trkpt lat="44.99393" lon="3.63427">
        <ele>773.72</ele>
        <time>2022-03-21T11:25:38Z</time>
      </trkpt>
      <trkpt lat="44.99427" lon="3.63414">
        <ele>776.64</ele>
        <time>2022-03-21T11:25:40Z</time>
      </trkpt>
      <trkpt lat="44.99473" lon="3.63401">
        <ele>776.3</ele>
        <time>2022-03-21T11:25:41Z</time>
      </trkpt>
      <trkpt lat="44.9952" lon="3.63397">
        <ele>777.35</ele>
        <time>2022-03-21T11:25:43Z</time>
      </trkpt>
      <trkpt lat="44.99634" lon="3.63395">
        <ele>776.09</ele>
        <time>2022-03-21T11:25:45Z</time>
      </trkpt>
      <trkpt lat="44.99652" lon="3.63397">
        <ele>776.45</ele>
        <time>2022-03-21T11:25:46Z</time>
      </trkpt>
      <trkpt lat="44.99671" lon="3.63403">
        <ele>776.73</ele>
        <time>2022-03-21T11:25:48Z</time>
      </trkpt>
      <trkpt lat="44.99686" lon="3.63409">
        <ele>775.01</ele>
        <time>2022-03-21T11:25:49Z</time>
      </trkpt>
      <trkpt lat="44.9974" lon="3.63441">
        <ele>777.86</ele>
        <time>2022-03-21T11:25:51Z</time>
      </trkpt>
      <trkpt lat="44.99806" lon="3.63512">
        <ele>786.38</ele>
        <time>2022-03-21T11:25:52Z</time>
      </trkpt>
      <trkpt lat="44.99828" lon="3.63537">
        <ele>785.67</ele>
        <time>2022-03-21T11:25:54Z</time>
      </trkpt>
      <trkpt lat="44.99835" lon="3.63548">
        <ele>785.53</ele>
        <time>2022-03-21T11:25:55Z</time>
      </trkpt>
      <trkpt lat="44.9984" lon="3.63572">
        <ele>784.81</ele>
        <time>2022-03-21T11:25:57Z</time>
      </trkpt>
      <trkpt lat="44.99838" lon="3.63603">
        <ele>784.42</ele>
        <time>2022-03-21T11:25:59Z</time>
      </trkpt>
      <trkpt lat="44.99833" lon="3.6365">
        <ele>784.03</ele>
        <time>2022-03-21T11:26:00Z</time>
      </trkpt>
      <trkpt lat="44.99834" lon="3.63665">
        <ele>783.93</ele>
        <time>2022-03-21T11:26:02Z</time>
      </trkpt>
      <trkpt lat="44.99838" lon="3.63676">
        <ele>784.84</ele>
        <time>2022-03-21T11:26:03Z</time>
      </trkpt>
      <trkpt lat="44.99843" lon="3.63683">
        <ele>785.18</ele>
        <time>2022-03-21T11:26:05Z</time>
      </trkpt>
      <trkpt lat="44.99852" lon="3.63689">
        <ele>784.84</ele>
        <time>2022-03-21T11:26:06Z</time>
      </trkpt>
      <trkpt lat="44.99861" lon="3.63692">
        <ele>783.85</ele>
        <time>2022-03-21T11:26:08Z</time>
      </trkpt>
      <trkpt lat="44.99874" lon="3.63691">
        <ele>782.7</ele>
        <time>2022-03-21T11:26:09Z</time>
      </trkpt>
      <trkpt lat="44.99931" lon="3.63688">
        <ele>779.39</ele>
        <time>2022-03-21T11:26:11Z</time>
      </trkpt>
      <trkpt lat="44.99947" lon="3.63688">
        <ele>779.1</ele>
        <time>2022-03-21T11:26:13Z</time>
      </trkpt>
      <trkpt lat="44.99957" lon="3.63691">
        <ele>778.84</ele>
        <time>2022-03-21T11:26:14Z</time>
      </trkpt>
      <trkpt lat="44.99965" lon="3.63696">
        <ele>779.36</ele>
        <time>2022-03-21T11:26:16Z</time>
      </trkpt>
      <trkpt lat="44.99977" lon="3.63711">
        <ele>781.94</ele>
        <time>2022-03-21T11:26:17Z</time>
      </trkpt>
      <trkpt lat="45.00014" lon="3.63762">
        <ele>791.35</ele>
        <time>2022-03-21T11:26:19Z</time>
      </trkpt>
      <trkpt lat="45.00024" lon="3.6377">
        <ele>792.64</ele>
        <time>2022-03-21T11:26:20Z</time>
      </trkpt>
      <trkpt lat="45.00035" lon="3.63774">
        <ele>793.22</ele>
        <time>2022-03-21T11:26:22Z</time>
      </trkpt>
      <trkpt lat="45.00163" lon="3.63759">
        <ele>790.65</ele>
        <time>2022-03-21T11:26:23Z</time>
      </trkpt>
      <trkpt lat="45.00175" lon="3.63761">
        <ele>791.23</ele>
        <time>2022-03-21T11:26:25Z</time>
      </trkpt>
      <trkpt lat="45.0019" lon="3.6377">
        <ele>793.4</ele>
        <time>2022-03-21T11:26:27Z</time>
      </trkpt>
      <trkpt lat="45.00197" lon="3.63778">
        <ele>794.9</ele>
        <time>2022-03-21T11:26:28Z</time>
      </trkpt>
      <trkpt lat="45.00201" lon="3.63789">
        <ele>795.74</ele>
        <time>2022-03-21T11:26:30Z</time>
      </trkpt>
      <trkpt lat="45.00202" lon="3.63803">
        <ele>797.13</ele>
        <time>2022-03-21T11:26:31Z</time>
      </trkpt>
      <trkpt lat="45.002" lon="3.63825">
        <ele>799.11</ele>
        <time>2022-03-21T11:26:33Z</time>
      </trkpt>
      <trkpt lat="45.00183" lon="3.63908">
        <ele>806.44</ele>
        <time>2022-03-21T11:26:34Z</time>
      </trkpt>
      <trkpt lat="45.0018" lon="3.63931">
        <ele>807.36</ele>
        <time>2022-03-21T11:26:36Z</time>
      </trkpt>
      <trkpt lat="45.0018" lon="3.63955">
        <ele>806.27</ele>
        <time>2022-03-21T11:26:37Z</time>
      </trkpt>
      <trkpt lat="45.00186" lon="3.63975">
        <ele>803.54</ele>
        <time>2022-03-21T11:26:39Z</time>
      </trkpt>
      <trkpt lat="45.00194" lon="3.63994">
        <ele>801.6</ele>
        <time>2022-03-21T11:26:41Z</time>
      </trkpt>
      <trkpt lat="45.00207" lon="3.64016">
        <ele>799.88</ele>
        <time>2022-03-21T11:26:42Z</time>
      </trkpt>
      <trkpt lat="45.00323" lon="3.64163">
        <ele>790.85</ele>
        <time>2022-03-21T11:26:44Z</time>
      </trkpt>
      <trkpt lat="45.00334" lon="3.64174">
        <ele>791.28</ele>
        <time>2022-03-21T11:26:45Z</time>
      </trkpt>
      <trkpt lat="45.00345" lon="3.6418">
        <ele>791.69</ele>
        <time>2022-03-21T11:26:47Z</time>
      </trkpt>
      <trkpt lat="45.00359" lon="3.64183">
        <ele>792.15</ele>
        <time>2022-03-21T11:26:48Z</time>
      </trkpt>
      <trkpt lat="45.00418" lon="3.64188">
        <ele>790.9</ele>
        <time>2022-03-21T11:26:50Z</time>
      </trkpt>
      <trkpt lat="45.00431" lon="3.64194">
        <ele>790.39</ele>
        <time>2022-03-21T11:26:51Z</time>
      </trkpt>
      <trkpt lat="45.0044" lon="3.64204">
        <ele>792.81</ele>
        <time>2022-03-21T11:26:53Z</time>
      </trkpt>
      <trkpt lat="45.00448" lon="3.64213">
        <ele>795.1</ele>
        <time>2022-03-21T11:26:55Z</time>
      </trkpt>
      <trkpt lat="45.00462" lon="3.64237">
        <ele>799.94</ele>
        <time>2022-03-21T11:26:56Z</time>
      </trkpt>
      <trkpt lat="45.00473" lon="3.6427">
        <ele>804.05</ele>
        <time>2022-03-21T11:26:58Z</time>
      </trkpt>
      <trkpt lat="45.00478" lon="3.64313">
        <ele>809.11</ele>
        <time>2022-03-21T11:26:59Z</time>
      </trkpt>
      <trkpt lat="45.00482" lon="3.64322">
        <ele>809.48</ele>
        <time>2022-03-21T11:27:01Z</time>
      </trkpt>
      <trkpt lat="45.00493" lon="3.6433">
        <ele>808.68</ele>
        <time>2022-03-21T11:27:02Z</time>
      </trkpt>
      <trkpt lat="45.00499" lon="3.64331">
        <ele>807.45</ele>
        <time>2022-03-21T11:27:04Z</time>
      </trkpt>
      <trkpt lat="45.00506" lon="3.64328">
        <ele>807.61</ele>
        <time>2022-03-21T11:27:05Z</time>
      </trkpt>
      <trkpt lat="45.00512" lon="3.64321">
        <ele>806.9</ele>
        <time>2022-03-21T11:27:07Z</time>
      </trkpt>
      <trkpt lat="45.00536" lon="3.64258">
        <ele>799.86</ele>
        <time>2022-03-21T11:27:09Z</time>
      </trkpt>
      <trkpt lat="45.00547" lon="3.64237">
        <ele>800.34</ele>
        <time>2022-03-21T11:27:10Z</time>
      </trkpt>
      <trkpt lat="45.00589" lon="3.64181">
        <ele>801.48</ele>
        <time>2022-03-21T11:27:12Z</time>
      </trkpt>
      <trkpt lat="45.00608" lon="3.64161">
        <ele>802.72</ele>
        <time>2022-03-21T11:27:13Z</time>
      </trkpt>
      <trkpt lat="45.00624" lon="3.64147">
        <ele>802.8</ele>
        <time>2022-03-21T11:27:15Z</time>
      </trkpt>
      <trkpt lat="45.00636" lon="3.6414">
        <ele>802.81</ele>
        <time>2022-03-21T11:27:16Z</time>
      </trkpt>
      <trkpt lat="45.00723" lon="3.64107">
        <ele>805.39</ele>
        <time>2022-03-21T11:27:18Z</time>
      </trkpt>
      <trkpt lat="45.0074" lon="3.64105">
        <ele>805.53</ele>
        <time>2022-03-21T11:27:19Z</time>
      </trkpt>
      <trkpt lat="45.00829" lon="3.64113">
        <ele>801.03</ele>
        <time>2022-03-21T11:27:21Z</time>
      </trkpt>
      <trkpt lat="45.00844" lon="3.64115">
        <ele>801.15</ele>
        <time>2022-03-21T11:27:23Z</time>
      </trkpt>
      <trkpt lat="45.00856" lon="3.64121">
        <ele>802.84</ele>
        <time>2022-03-21T11:27:24Z</time>
      </trkpt>
      <trkpt lat="45.00867" lon="3.64127">
        <ele>804.18</ele>
        <time>2022-03-21T11:27:26Z</time>
      </trkpt>
      <trkpt lat="45.00922" lon="3.64178">
        <ele>803.87</ele>
        <time>2022-03-21T11:27:27Z</time>
      </trkpt>
      <trkpt lat="45.00929" lon="3.64189">
        <ele>803.46</ele>
        <time>2022-03-21T11:27:29Z</time>
      </trkpt>
      <trkpt lat="45.00934" lon="3.64202">
        <ele>803.48</ele>
        <time>2022-03-21T11:27:30Z</time>
      </trkpt>
      <trkpt lat="45.00938" lon="3.64233">
        <ele>804.72</ele>
        <time>2022-03-21T11:27:32Z</time>
      </trkpt>
      <trkpt lat="45.00944" lon="3.64246">
        <ele>803.87</ele>
        <time>2022-03-21T11:27:33Z</time>
      </trkpt>
      <trkpt lat="45.0095" lon="3.64253">
        <ele>804.43</ele>
        <time>2022-03-21T11:27:35Z</time>
      </trkpt>
      <trkpt lat="45.00957" lon="3.64256">
        <ele>804.82</ele>
        <time>2022-03-21T11:27:37Z</time>
      </trkpt>
      <trkpt lat="45.00964" lon="3.64253">
        <ele>804.17</ele>
        <time>2022-03-21T11:27:38Z</time>
      </trkpt>
      <trkpt lat="45.0097" lon="3.64247">
        <ele>802.46</ele>
        <time>2022-03-21T11:27:40Z</time>
      </trkpt>
      <trkpt lat="45.00995" lon="3.64205">
        <ele>796.37</ele>
        <time>2022-03-21T11:27:41Z</time>
      </trkpt>
      <trkpt lat="45.01005" lon="3.64194">
        <ele>794.09</ele>
        <time>2022-03-21T11:27:43Z</time>
      </trkpt>
      <trkpt lat="45.01023" lon="3.64179">
        <ele>791.49</ele>
        <time>2022-03-21T11:27:44Z</time>
      </trkpt>
      <trkpt lat="45.01044" lon="3.64145">
        <ele>787.39</ele>
        <time>2022-03-21T11:27:46Z</time>
      </trkpt>
      <trkpt lat="45.01052" lon="3.64127">
        <ele>784.71</ele>
        <time>2022-03-21T11:27:47Z</time>
      </trkpt>
      <trkpt lat="45.0107" lon="3.64064">
        <ele>777.55</ele>
        <time>2022-03-21T11:27:49Z</time>
      </trkpt>
      <trkpt lat="45.01084" lon="3.64043">
        <ele>776.38</ele>
        <time>2022-03-21T11:27:51Z</time>
      </trkpt>
      <trkpt lat="45.01093" lon="3.64036">
        <ele>776.38</ele>
        <time>2022-03-21T11:27:52Z</time>
      </trkpt>
      <trkpt lat="45.01124" lon="3.64022">
        <ele>777.08</ele>
        <time>2022-03-21T11:27:54Z</time>
      </trkpt>
      <trkpt lat="45.01208" lon="3.63996">
        <ele>775.78</ele>
        <time>2022-03-21T11:27:55Z</time>
      </trkpt>
      <trkpt lat="45.01233" lon="3.63985">
        <ele>778.88</ele>
        <time>2022-03-21T11:27:57Z</time>
      </trkpt>
      <trkpt lat="45.0124" lon="3.63979">
        <ele>780.2</ele>
        <time>2022-03-21T11:27:58Z</time>
      </trkpt>
      <trkpt lat="45.01245" lon="3.63973">
        <ele>780.39</ele>
        <time>2022-03-21T11:28:00Z</time>
      </trkpt>
      <trkpt lat="45.01249" lon="3.63961">
        <ele>781.23</ele>
        <time>2022-03-21T11:28:01Z</time>
      </trkpt>
      <trkpt lat="45.01251" lon="3.63945">
        <ele>781.51</ele>
        <time>2022-03-21T11:28:03Z</time>
      </trkpt>
      <trkpt lat="45.01248" lon="3.63854">
        <ele>771.21</ele>
        <time>2022-03-21T11:28:05Z</time>
      </trkpt>
      <trkpt lat="45.01253" lon="3.63836">
        <ele>772.03</ele>
        <time>2022-03-21T11:28:06Z</time>
      </trkpt>
      <trkpt lat="45.01267" lon="3.63806">
        <ele>775.54</ele>
        <time>2022-03-21T11:28:08Z</time>
      </trkpt>
      <trkpt lat="45.01271" lon="3.63792">
        <ele>775.78</ele>
        <time>2022-03-21T11:28:09Z</time>
      </trkpt>
      <trkpt lat="45.01283" lon="3.63714">
        <ele>773.56</ele>
        <time>2022-03-21T11:28:11Z</time>
      </trkpt>
      <trkpt lat="45.01283" lon="3.63698">
        <ele>772.46</ele>
        <time>2022-03-21T11:28:12Z</time>
      </trkpt>
      <trkpt lat="45.01273" lon="3.63641">
        <ele>764.03</ele>
        <time>2022-03-21T11:28:14Z</time>
      </trkpt>
      <trkpt lat="45.01272" lon="3.63626">
        <ele>761.37</ele>
        <time>2022-03-21T11:28:15Z</time>
      </trkpt>
      <trkpt lat="45.01274" lon="3.63616">
        <ele>759.9</ele>
        <time>2022-03-21T11:28:17Z</time>
      </trkpt>
      <trkpt lat="45.01277" lon="3.63608">
        <ele>759.42</ele>
        <time>2022-03-21T11:28:19Z</time>
      </trkpt>
      <trkpt lat="45.01283" lon="3.63602">
        <ele>760.19</ele>
        <time>2022-03-21T11:28:20Z</time>
      </trkpt>
      <trkpt lat="45.01291" lon="3.63597">
        <ele>761.76</ele>
        <time>2022-03-21T11:28:22Z</time>
      </trkpt>
      <trkpt lat="45.01342" lon="3.63594">
        <ele>776.18</ele>
        <time>2022-03-21T11:28:23Z</time>
      </trkpt>
      <trkpt lat="45.01388" lon="3.63581">
        <ele>769.77</ele>
        <time>2022-03-21T11:28:25Z</time>
      </trkpt>
      <trkpt lat="45.01463" lon="3.63553">
        <ele>768.02</ele>
        <time>2022-03-21T11:28:26Z</time>
      </trkpt>
      <trkpt lat="45.01473" lon="3.63548">
        <ele>768.66</ele>
        <time>2022-03-21T11:28:28Z</time>
      </trkpt>
      <trkpt lat="45.01485" lon="3.63537">
        <ele>767.77</ele>
        <time>2022-03-21T11:28:29Z</time>
      </trkpt>
      <trkpt lat="45.01492" lon="3.63526">
        <ele>766.55</ele>
        <time>2022-03-21T11:28:31Z</time>
      </trkpt>
      <trkpt lat="45.015" lon="3.63507">
        <ele>764.34</ele>
        <time>2022-03-21T11:28:33Z</time>
      </trkpt>
      <trkpt lat="45.01511" lon="3.63455">
        <ele>761</ele>
        <time>2022-03-21T11:28:34Z</time>
      </trkpt>
      <trkpt lat="45.01512" lon="3.6344">
        <ele>760.25</ele>
        <time>2022-03-21T11:28:36Z</time>
      </trkpt>
      <trkpt lat="45.01511" lon="3.63404">
        <ele>756.17</ele>
        <time>2022-03-21T11:28:37Z</time>
      </trkpt>
      <trkpt lat="45.01512" lon="3.63388">
        <ele>755.08</ele>
        <time>2022-03-21T11:28:39Z</time>
      </trkpt>
      <trkpt lat="45.01516" lon="3.63369">
        <ele>755.22</ele>
        <time>2022-03-21T11:28:40Z</time>
      </trkpt>
      <trkpt lat="45.01559" lon="3.63277">
        <ele>749.81</ele>
        <time>2022-03-21T11:28:42Z</time>
      </trkpt>
      <trkpt lat="45.01566" lon="3.63267">
        <ele>749.89</ele>
        <time>2022-03-21T11:28:43Z</time>
      </trkpt>
      <trkpt lat="45.0158" lon="3.63255">
        <ele>751.21</ele>
        <time>2022-03-21T11:28:45Z</time>
      </trkpt>
      <trkpt lat="45.01588" lon="3.63245">
        <ele>750.01</ele>
        <time>2022-03-21T11:28:47Z</time>
      </trkpt>
      <trkpt lat="45.01605" lon="3.63217">
        <ele>744.4</ele>
        <time>2022-03-21T11:28:48Z</time>
      </trkpt>
      <trkpt lat="45.01615" lon="3.63207">
        <ele>742.32</ele>
        <time>2022-03-21T11:28:50Z</time>
      </trkpt>
      <trkpt lat="45.01625" lon="3.632">
        <ele>739.54</ele>
        <time>2022-03-21T11:28:51Z</time>
      </trkpt>
      <trkpt lat="45.01635" lon="3.63198">
        <ele>738.1</ele>
        <time>2022-03-21T11:28:53Z</time>
      </trkpt>
      <trkpt lat="45.01645" lon="3.63203">
        <ele>739.43</ele>
        <time>2022-03-21T11:28:54Z</time>
      </trkpt>
      <trkpt lat="45.01663" lon="3.63235">
        <ele>748.55</ele>
        <time>2022-03-21T11:28:56Z</time>
      </trkpt>
      <trkpt lat="45.01675" lon="3.6326">
        <ele>754.7</ele>
        <time>2022-03-21T11:28:57Z</time>
      </trkpt>
      <trkpt lat="45.01681" lon="3.63267">
        <ele>756.74</ele>
        <time>2022-03-21T11:28:59Z</time>
      </trkpt>
      <trkpt lat="45.0169" lon="3.63269">
        <ele>757.63</ele>
        <time>2022-03-21T11:29:01Z</time>
      </trkpt>
      <trkpt lat="45.01701" lon="3.63265">
        <ele>758.08</ele>
        <time>2022-03-21T11:29:02Z</time>
      </trkpt>
      <trkpt lat="45.01717" lon="3.63254">
        <ele>758.09</ele>
        <time>2022-03-21T11:29:04Z</time>
      </trkpt>
      <trkpt lat="45.01726" lon="3.63228">
        <ele>752.86</ele>
        <time>2022-03-21T11:29:05Z</time>
      </trkpt>
      <trkpt lat="45.01729" lon="3.63214">
        <ele>750.62</ele>
        <time>2022-03-21T11:29:07Z</time>
      </trkpt>
      <trkpt lat="45.01728" lon="3.63197">
        <ele>747.62</ele>
        <time>2022-03-21T11:29:08Z</time>
      </trkpt>
      <trkpt lat="45.01707" lon="3.63095">
        <ele>735.24</ele>
        <time>2022-03-21T11:29:10Z</time>
      </trkpt>
      <trkpt lat="45.01706" lon="3.63077">
        <ele>733.94</ele>
        <time>2022-03-21T11:29:11Z</time>
      </trkpt>
      <trkpt lat="45.01707" lon="3.63061">
        <ele>732.93</ele>
        <time>2022-03-21T11:29:13Z</time>
      </trkpt>
      <trkpt lat="45.0171" lon="3.63047">
        <ele>732.02</ele>
        <time>2022-03-21T11:29:14Z</time>
      </trkpt>
      <trkpt lat="45.01715" lon="3.63033">
        <ele>731.41</ele>
        <time>2022-03-21T11:29:16Z</time>
      </trkpt>
      <trkpt lat="45.01724" lon="3.63019">
        <ele>730.8</ele>
        <time>2022-03-21T11:29:18Z</time>
      </trkpt>
      <trkpt lat="45.01739" lon="3.63002">
        <ele>732.82</ele>
        <time>2022-03-21T11:29:19Z</time>
      </trkpt>
      <trkpt lat="45.01753" lon="3.62989">
        <ele>734.7</ele>
        <time>2022-03-21T11:29:21Z</time>
      </trkpt>
      <trkpt lat="45.01776" lon="3.62973">
        <ele>733.12</ele>
        <time>2022-03-21T11:29:22Z</time>
      </trkpt>
      <trkpt lat="45.0183" lon="3.62952">
        <ele>735.62</ele>
        <time>2022-03-21T11:29:24Z</time>
      </trkpt>
      <trkpt lat="45.01842" lon="3.62945">
        <ele>737.04</ele>
        <time>2022-03-21T11:29:25Z</time>
      </trkpt>
      <trkpt lat="45.01854" lon="3.62935">
        <ele>737.66</ele>
        <time>2022-03-21T11:29:27Z</time>
      </trkpt>
      <trkpt lat="45.01875" lon="3.62908">
        <ele>735.9</ele>
        <time>2022-03-21T11:29:28Z</time>
      </trkpt>
      <trkpt lat="45.01903" lon="3.62869">
        <ele>736.43</ele>
        <time>2022-03-21T11:29:30Z</time>
      </trkpt>
      <trkpt lat="45.01917" lon="3.62838">
        <ele>734.38</ele>
        <time>2022-03-21T11:29:32Z</time>
      </trkpt>
      <trkpt lat="45.01923" lon="3.62832">
        <ele>734.07</ele>
        <time>2022-03-21T11:29:33Z</time>
      </trkpt>
      <trkpt lat="45.01929" lon="3.62827">
        <ele>734.24</ele>
        <time>2022-03-21T11:29:35Z</time>
      </trkpt>
      <trkpt lat="45.01937" lon="3.62825">
        <ele>735.7</ele>
        <time>2022-03-21T11:29:36Z</time>
      </trkpt>
      <trkpt lat="45.01953" lon="3.62826">
        <ele>738.3</ele>
        <time>2022-03-21T11:29:38Z</time>
      </trkpt>
      <trkpt lat="45.02006" lon="3.62835">
        <ele>740.68</ele>
        <time>2022-03-21T11:29:39Z</time>
      </trkpt>
      <trkpt lat="45.02021" lon="3.62835">
        <ele>740</ele>
        <time>2022-03-21T11:29:41Z</time>
      </trkpt>
      <trkpt lat="45.02047" lon="3.62827">
        <ele>736.5</ele>
        <time>2022-03-21T11:29:42Z</time>
      </trkpt>
      <trkpt lat="45.0206" lon="3.62827">
        <ele>737.18</ele>
        <time>2022-03-21T11:29:44Z</time>
      </trkpt>
      <trkpt lat="45.02079" lon="3.62833">
        <ele>742.04</ele>
        <time>2022-03-21T11:29:46Z</time>
      </trkpt>
      <trkpt lat="45.02089" lon="3.62833">
        <ele>742.73</ele>
        <time>2022-03-21T11:29:47Z</time>
      </trkpt>
      <trkpt lat="45.02111" lon="3.62823">
        <ele>740.3</ele>
        <time>2022-03-21T11:29:49Z</time>
      </trkpt>
      <trkpt lat="45.02116" lon="3.62815">
        <ele>739.19</ele>
        <time>2022-03-21T11:29:50Z</time>
      </trkpt>
      <trkpt lat="45.02122" lon="3.62794">
        <ele>737.07</ele>
        <time>2022-03-21T11:29:52Z</time>
      </trkpt>
      <trkpt lat="45.02124" lon="3.62783">
        <ele>736.54</ele>
        <time>2022-03-21T11:29:53Z</time>
      </trkpt>
      <trkpt lat="45.02123" lon="3.62748">
        <ele>736.48</ele>
        <time>2022-03-21T11:29:55Z</time>
      </trkpt>
      <trkpt lat="45.02127" lon="3.62716">
        <ele>739.22</ele>
        <time>2022-03-21T11:29:56Z</time>
      </trkpt>
      <trkpt lat="45.02152" lon="3.62536">
        <ele>742.49</ele>
        <time>2022-03-21T11:29:58Z</time>
      </trkpt>
      <trkpt lat="45.02156" lon="3.6251">
        <ele>743.77</ele>
        <time>2022-03-21T11:30:00Z</time>
      </trkpt>
      <trkpt lat="45.02162" lon="3.62489">
        <ele>745.21</ele>
        <time>2022-03-21T11:30:01Z</time>
      </trkpt>
      <trkpt lat="45.02171" lon="3.62468">
        <ele>747.07</ele>
        <time>2022-03-21T11:30:03Z</time>
      </trkpt>
      <trkpt lat="45.02203" lon="3.62411">
        <ele>752.59</ele>
        <time>2022-03-21T11:30:04Z</time>
      </trkpt>
      <trkpt lat="45.02214" lon="3.62399">
        <ele>753.55</ele>
        <time>2022-03-21T11:30:06Z</time>
      </trkpt>
      <trkpt lat="45.02238" lon="3.6238">
        <ele>757.11</ele>
        <time>2022-03-21T11:30:07Z</time>
      </trkpt>
      <trkpt lat="45.02246" lon="3.6237">
        <ele>757.91</ele>
        <time>2022-03-21T11:30:09Z</time>
      </trkpt>
      <trkpt lat="45.02259" lon="3.6235">
        <ele>758.24</ele>
        <time>2022-03-21T11:30:10Z</time>
      </trkpt>
      <trkpt lat="45.02278" lon="3.62332">
        <ele>758.88</ele>
        <time>2022-03-21T11:30:12Z</time>
      </trkpt>
      <trkpt lat="45.02293" lon="3.62324">
        <ele>759.08</ele>
        <time>2022-03-21T11:30:14Z</time>
      </trkpt>
      <trkpt lat="45.02342" lon="3.62305">
        <ele>762.36</ele>
        <time>2022-03-21T11:30:15Z</time>
      </trkpt>
      <trkpt lat="45.02401" lon="3.62289">
        <ele>763.4</ele>
        <time>2022-03-21T11:30:17Z</time>
      </trkpt>
      <trkpt lat="45.02473" lon="3.62262">
        <ele>767.97</ele>
        <time>2022-03-21T11:30:18Z</time>
      </trkpt>
      <trkpt lat="45.02486" lon="3.6226">
        <ele>770.07</ele>
        <time>2022-03-21T11:30:20Z</time>
      </trkpt>
      <trkpt lat="45.02503" lon="3.62262">
        <ele>772.57</ele>
        <time>2022-03-21T11:30:21Z</time>
      </trkpt>
      <trkpt lat="45.02548" lon="3.62277">
        <ele>773.52</ele>
        <time>2022-03-21T11:30:23Z</time>
      </trkpt>
      <trkpt lat="45.02559" lon="3.62284">
        <ele>773.91</ele>
        <time>2022-03-21T11:30:24Z</time>
      </trkpt>
      <trkpt lat="45.02578" lon="3.62297">
        <ele>777.35</ele>
        <time>2022-03-21T11:30:26Z</time>
      </trkpt>
      <trkpt lat="45.026" lon="3.62315">
        <ele>779.14</ele>
        <time>2022-03-21T11:30:28Z</time>
      </trkpt>
      <trkpt lat="45.02655" lon="3.62375">
        <ele>780.53</ele>
        <time>2022-03-21T11:30:29Z</time>
      </trkpt>
      <trkpt lat="45.02772" lon="3.6244">
        <ele>761.17</ele>
        <time>2022-03-21T11:30:31Z</time>
      </trkpt>
      <trkpt lat="45.0278" lon="3.62448">
        <ele>760.68</ele>
        <time>2022-03-21T11:30:32Z</time>
      </trkpt>
      <trkpt lat="45.028" lon="3.62487">
        <ele>764.44</ele>
        <time>2022-03-21T11:30:34Z</time>
      </trkpt>
      <trkpt lat="45.02808" lon="3.62495">
        <ele>764.06</ele>
        <time>2022-03-21T11:30:35Z</time>
      </trkpt>
      <trkpt lat="45.02825" lon="3.62495">
        <ele>763.03</ele>
        <time>2022-03-21T11:30:37Z</time>
      </trkpt>
      <trkpt lat="45.02832" lon="3.62492">
        <ele>762.26</ele>
        <time>2022-03-21T11:30:38Z</time>
      </trkpt>
      <trkpt lat="45.02838" lon="3.62483">
        <ele>762.46</ele>
        <time>2022-03-21T11:30:40Z</time>
      </trkpt>
      <trkpt lat="45.02843" lon="3.62465">
        <ele>762.9</ele>
        <time>2022-03-21T11:30:42Z</time>
      </trkpt>
      <trkpt lat="45.02859" lon="3.62354">
        <ele>765.96</ele>
        <time>2022-03-21T11:30:43Z</time>
      </trkpt>
      <trkpt lat="45.02861" lon="3.62334">
        <ele>767.68</ele>
        <time>2022-03-21T11:30:45Z</time>
      </trkpt>
      <trkpt lat="45.02861" lon="3.62315">
        <ele>769.26</ele>
        <time>2022-03-21T11:30:46Z</time>
      </trkpt>
      <trkpt lat="45.02844" lon="3.6221">
        <ele>766.51</ele>
        <time>2022-03-21T11:30:48Z</time>
      </trkpt>
      <trkpt lat="45.02844" lon="3.62191">
        <ele>767.99</ele>
        <time>2022-03-21T11:30:49Z</time>
      </trkpt>
      <trkpt lat="45.02852" lon="3.62076">
        <ele>780.82</ele>
        <time>2022-03-21T11:30:51Z</time>
      </trkpt>
      <trkpt lat="45.02855" lon="3.62059">
        <ele>783.41</ele>
        <time>2022-03-21T11:30:52Z</time>
      </trkpt>
      <trkpt lat="45.0286" lon="3.62045">
        <ele>785.83</ele>
        <time>2022-03-21T11:30:54Z</time>
      </trkpt>
      <trkpt lat="45.02866" lon="3.62034">
        <ele>787.03</ele>
        <time>2022-03-21T11:30:56Z</time>
      </trkpt>
      <trkpt lat="45.03093" lon="3.61799">
        <ele>791.22</ele>
        <time>2022-03-21T11:30:57Z</time>
      </trkpt>
      <trkpt lat="45.03167" lon="3.61726">
        <ele>790.26</ele>
        <time>2022-03-21T11:30:59Z</time>
      </trkpt>
      <trkpt lat="45.03192" lon="3.6171">
        <ele>788.64</ele>
        <time>2022-03-21T11:31:00Z</time>
      </trkpt>
      <trkpt lat="45.03201" lon="3.61706">
        <ele>787.4</ele>
        <time>2022-03-21T11:31:02Z</time>
      </trkpt>
      <trkpt lat="45.03209" lon="3.61705">
        <ele>786.26</ele>
        <time>2022-03-21T11:31:03Z</time>
      </trkpt>
      <trkpt lat="45.03218" lon="3.61708">
        <ele>785.36</ele>
        <time>2022-03-21T11:31:05Z</time>
      </trkpt>
      <trkpt lat="45.03225" lon="3.61713">
        <ele>785.41</ele>
        <time>2022-03-21T11:31:06Z</time>
      </trkpt>
      <trkpt lat="45.0323" lon="3.61722">
        <ele>786.09</ele>
        <time>2022-03-21T11:31:08Z</time>
      </trkpt>
      <trkpt lat="45.03246" lon="3.61764">
        <ele>790.37</ele>
        <time>2022-03-21T11:31:10Z</time>
      </trkpt>
      <trkpt lat="45.03258" lon="3.61775">
        <ele>790.96</ele>
        <time>2022-03-21T11:31:11Z</time>
      </trkpt>
      <trkpt lat="45.03267" lon="3.61776">
        <ele>790.47</ele>
        <time>2022-03-21T11:31:13Z</time>
      </trkpt>
      <trkpt lat="45.03272" lon="3.61773">
        <ele>789.65</ele>
        <time>2022-03-21T11:31:14Z</time>
      </trkpt>
      <trkpt lat="45.0328" lon="3.61765">
        <ele>787.81</ele>
        <time>2022-03-21T11:31:16Z</time>
      </trkpt>
      <trkpt lat="45.0329" lon="3.61742">
        <ele>783.8</ele>
        <time>2022-03-21T11:31:17Z</time>
      </trkpt>
      <trkpt lat="45.03302" lon="3.61723">
        <ele>780.24</ele>
        <time>2022-03-21T11:31:19Z</time>
      </trkpt>
      <trkpt lat="45.03323" lon="3.61706">
        <ele>776</ele>
        <time>2022-03-21T11:31:20Z</time>
      </trkpt>
      <trkpt lat="45.03335" lon="3.61703">
        <ele>774.85</ele>
        <time>2022-03-21T11:31:22Z</time>
      </trkpt>
      <trkpt lat="45.03347" lon="3.61704">
        <ele>773.86</ele>
        <time>2022-03-21T11:31:24Z</time>
      </trkpt>
      <trkpt lat="45.0336" lon="3.61709">
        <ele>773.21</ele>
        <time>2022-03-21T11:31:25Z</time>
      </trkpt>
      <trkpt lat="45.03369" lon="3.61716">
        <ele>773.3</ele>
        <time>2022-03-21T11:31:27Z</time>
      </trkpt>
      <trkpt lat="45.03398" lon="3.61759">
        <ele>777.91</ele>
        <time>2022-03-21T11:31:28Z</time>
      </trkpt>
      <trkpt lat="45.03406" lon="3.61766">
        <ele>779.37</ele>
        <time>2022-03-21T11:31:30Z</time>
      </trkpt>
      <trkpt lat="45.03415" lon="3.61768">
        <ele>779.61</ele>
        <time>2022-03-21T11:31:31Z</time>
      </trkpt>
      <trkpt lat="45.03426" lon="3.61764">
        <ele>781.28</ele>
        <time>2022-03-21T11:31:33Z</time>
      </trkpt>
      <trkpt lat="45.03432" lon="3.61757">
        <ele>782.24</ele>
        <time>2022-03-21T11:31:35Z</time>
      </trkpt>
      <trkpt lat="45.03432" lon="3.61757">
        <ele>782.24</ele>
        <time>2022-03-21T11:31:35Z</time>
      </trkpt>
      <trkpt lat="45.03437" lon="3.61745">
        <ele>782.28</ele>
        <time>2022-03-21T11:31:36Z</time>
      </trkpt>
      <trkpt lat="45.0344" lon="3.61726">
        <ele>781.05</ele>
        <time>2022-03-21T11:31:38Z</time>
      </trkpt>
      <trkpt lat="45.03444" lon="3.61666">
        <ele>778.87</ele>
        <time>2022-03-21T11:31:39Z</time>
      </trkpt>
      <trkpt lat="45.03448" lon="3.6165">
        <ele>778.05</ele>
        <time>2022-03-21T11:31:41Z</time>
      </trkpt>
      <trkpt lat="45.03454" lon="3.61638">
        <ele>778.19</ele>
        <time>2022-03-21T11:31:42Z</time>
      </trkpt>
      <trkpt lat="45.03479" lon="3.616">
        <ele>781.19</ele>
        <time>2022-03-21T11:31:44Z</time>
      </trkpt>
      <trkpt lat="45.03486" lon="3.61585">
        <ele>781.7</ele>
        <time>2022-03-21T11:31:45Z</time>
      </trkpt>
      <trkpt lat="45.0352" lon="3.61492">
        <ele>782.45</ele>
        <time>2022-03-21T11:31:47Z</time>
      </trkpt>
      <trkpt lat="45.03528" lon="3.6148">
        <ele>782.43</ele>
        <time>2022-03-21T11:31:49Z</time>
      </trkpt>
      <trkpt lat="45.03539" lon="3.61471">
        <ele>783.77</ele>
        <time>2022-03-21T11:31:50Z</time>
      </trkpt>
      <trkpt lat="45.03562" lon="3.6146">
        <ele>788.67</ele>
        <time>2022-03-21T11:31:52Z</time>
      </trkpt>
      <trkpt lat="45.0358" lon="3.61445">
        <ele>791.37</ele>
        <time>2022-03-21T11:31:53Z</time>
      </trkpt>
      <trkpt lat="45.03588" lon="3.61434">
        <ele>792.86</ele>
        <time>2022-03-21T11:31:55Z</time>
      </trkpt>
      <trkpt lat="45.03596" lon="3.61418">
        <ele>793.79</ele>
        <time>2022-03-21T11:31:56Z</time>
      </trkpt>
      <trkpt lat="45.03586" lon="3.61407">
        <ele>791.7</ele>
        <time>2022-03-21T11:31:59Z</time>
      </trkpt>
      <trkpt lat="45.0358" lon="3.61398">
        <ele>789.83</ele>
        <time>2022-03-21T11:32:02Z</time>
      </trkpt>
      <trkpt lat="45.03578" lon="3.61389">
        <ele>788.8</ele>
        <time>2022-03-21T11:32:05Z</time>
      </trkpt>
      <trkpt lat="45.03577" lon="3.61375">
        <ele>788.79</ele>
        <time>2022-03-21T11:32:07Z</time>
      </trkpt>
      <trkpt lat="45.03586" lon="3.61339">
        <ele>790.2</ele>
        <time>2022-03-21T11:32:10Z</time>
      </trkpt>
      <trkpt lat="45.03601" lon="3.61301">
        <ele>786.8</ele>
        <time>2022-03-21T11:32:13Z</time>
      </trkpt>
      <trkpt lat="45.03618" lon="3.61277">
        <ele>785.16</ele>
        <time>2022-03-21T11:32:16Z</time>
      </trkpt>
      <trkpt lat="45.03631" lon="3.61265">
        <ele>784.11</ele>
        <time>2022-03-21T11:32:18Z</time>
      </trkpt>
      <trkpt lat="45.03643" lon="3.61247">
        <ele>782.61</ele>
        <time>2022-03-21T11:32:21Z</time>
      </trkpt>
      <trkpt lat="45.03648" lon="3.61233">
        <ele>780.97</ele>
        <time>2022-03-21T11:32:24Z</time>
      </trkpt>
      <trkpt lat="45.03652" lon="3.61214">
        <ele>779.24</ele>
        <time>2022-03-21T11:32:27Z</time>
      </trkpt>
      <trkpt lat="45.03657" lon="3.61152">
        <ele>773.94</ele>
        <time>2022-03-21T11:32:29Z</time>
      </trkpt>
      <trkpt lat="45.03646" lon="3.60879">
        <ele>760.53</ele>
        <time>2022-03-21T11:32:32Z</time>
      </trkpt>
      <trkpt lat="45.03646" lon="3.60855">
        <ele>761.15</ele>
        <time>2022-03-21T11:32:35Z</time>
      </trkpt>
      <trkpt lat="45.03651" lon="3.60829">
        <ele>761.6</ele>
        <time>2022-03-21T11:32:37Z</time>
      </trkpt>
      <trkpt lat="45.03676" lon="3.60734">
        <ele>757.37</ele>
        <time>2022-03-21T11:32:40Z</time>
      </trkpt>
      <trkpt lat="45.03685" lon="3.60692">
        <ele>755.63</ele>
        <time>2022-03-21T11:32:43Z</time>
      </trkpt>
      <trkpt lat="45.03714" lon="3.60477">
        <ele>741.91</ele>
        <time>2022-03-21T11:32:46Z</time>
      </trkpt>
      <trkpt lat="45.03715" lon="3.60455">
        <ele>740.86</ele>
        <time>2022-03-21T11:32:48Z</time>
      </trkpt>
      <trkpt lat="45.03716" lon="3.60428">
        <ele>740.34</ele>
        <time>2022-03-21T11:32:51Z</time>
      </trkpt>
      <trkpt lat="45.03713" lon="3.6037">
        <ele>738.11</ele>
        <time>2022-03-21T11:32:54Z</time>
      </trkpt>
      <trkpt lat="45.03697" lon="3.60212">
        <ele>730.96</ele>
        <time>2022-03-21T11:32:57Z</time>
      </trkpt>
      <trkpt lat="45.03695" lon="3.60176">
        <ele>727.01</ele>
        <time>2022-03-21T11:32:59Z</time>
      </trkpt>
      <trkpt lat="45.03693" lon="3.60126">
        <ele>723.51</ele>
        <time>2022-03-21T11:33:02Z</time>
      </trkpt>
      <trkpt lat="45.03696" lon="3.60055">
        <ele>720.98</ele>
        <time>2022-03-21T11:33:05Z</time>
      </trkpt>
      <trkpt lat="45.03702" lon="3.60015">
        <ele>718.76</ele>
        <time>2022-03-21T11:33:08Z</time>
      </trkpt>
      <trkpt lat="45.03706" lon="3.59997">
        <ele>717.42</ele>
        <time>2022-03-21T11:33:10Z</time>
      </trkpt>
      <trkpt lat="45.03711" lon="3.59984">
        <ele>716.57</ele>
        <time>2022-03-21T11:33:13Z</time>
      </trkpt>
      <trkpt lat="45.03736" lon="3.59943">
        <ele>713.93</ele>
        <time>2022-03-21T11:33:16Z</time>
      </trkpt>
      <trkpt lat="45.03746" lon="3.59918">
        <ele>713.06</ele>
        <time>2022-03-21T11:33:19Z</time>
      </trkpt>
      <trkpt lat="45.03749" lon="3.59906">
        <ele>712.21</ele>
        <time>2022-03-21T11:33:21Z</time>
      </trkpt>
      <trkpt lat="45.03755" lon="3.59865">
        <ele>709.97</ele>
        <time>2022-03-21T11:33:24Z</time>
      </trkpt>
      <trkpt lat="45.03758" lon="3.59829">
        <ele>707.48</ele>
        <time>2022-03-21T11:33:27Z</time>
      </trkpt>
      <trkpt lat="45.03759" lon="3.59811">
        <ele>706.58</ele>
        <time>2022-03-21T11:33:30Z</time>
      </trkpt>
      <trkpt lat="45.03758" lon="3.59797">
        <ele>705.87</ele>
        <time>2022-03-21T11:33:32Z</time>
      </trkpt>
      <trkpt lat="45.03749" lon="3.59765">
        <ele>704.52</ele>
        <time>2022-03-21T11:33:35Z</time>
      </trkpt>
      <trkpt lat="45.03734" lon="3.59734">
        <ele>702.58</ele>
        <time>2022-03-21T11:33:38Z</time>
      </trkpt>
      <trkpt lat="45.03685" lon="3.59666">
        <ele>697.28</ele>
        <time>2022-03-21T11:33:41Z</time>
      </trkpt>
      <trkpt lat="45.03676" lon="3.59656">
        <ele>696.91</ele>
        <time>2022-03-21T11:33:43Z</time>
      </trkpt>
      <trkpt lat="45.03656" lon="3.59641">
        <ele>696.13</ele>
        <time>2022-03-21T11:33:46Z</time>
      </trkpt>
      <trkpt lat="45.03603" lon="3.59624">
        <ele>690.5</ele>
        <time>2022-03-21T11:33:49Z</time>
      </trkpt>
      <trkpt lat="45.03596" lon="3.59618">
        <ele>689.79</ele>
        <time>2022-03-21T11:33:52Z</time>
      </trkpt>
      <trkpt lat="45.03585" lon="3.59601">
        <ele>688.67</ele>
        <time>2022-03-21T11:33:54Z</time>
      </trkpt>
      <trkpt lat="45.03581" lon="3.59592">
        <ele>688.19</ele>
        <time>2022-03-21T11:33:57Z</time>
      </trkpt>
      <trkpt lat="45.03576" lon="3.59565">
        <ele>687.26</ele>
        <time>2022-03-21T11:34:00Z</time>
      </trkpt>
      <trkpt lat="45.03574" lon="3.59479">
        <ele>683.08</ele>
        <time>2022-03-21T11:34:03Z</time>
      </trkpt>
      <trkpt lat="45.03572" lon="3.59436">
        <ele>679.97</ele>
        <time>2022-03-21T11:34:05Z</time>
      </trkpt>
      <trkpt lat="45.03564" lon="3.59412">
        <ele>677.17</ele>
        <time>2022-03-21T11:34:08Z</time>
      </trkpt>
      <trkpt lat="45.0356" lon="3.59407">
        <ele>676.06</ele>
        <time>2022-03-21T11:34:11Z</time>
      </trkpt>
      <trkpt lat="45.03555" lon="3.59404">
        <ele>675.25</ele>
        <time>2022-03-21T11:34:14Z</time>
      </trkpt>
      <trkpt lat="45.03549" lon="3.59404">
        <ele>674.4</ele>
        <time>2022-03-21T11:34:16Z</time>
      </trkpt>
      <trkpt lat="45.0354" lon="3.59407">
        <ele>674.29</ele>
        <time>2022-03-21T11:34:19Z</time>
      </trkpt>
      <trkpt lat="45.03504" lon="3.59431">
        <ele>676.73</ele>
        <time>2022-03-21T11:34:22Z</time>
      </trkpt>
      <trkpt lat="45.03492" lon="3.59441">
        <ele>676.31</ele>
        <time>2022-03-21T11:34:25Z</time>
      </trkpt>
      <trkpt lat="45.0348" lon="3.59452">
        <ele>674.92</ele>
        <time>2022-03-21T11:34:27Z</time>
      </trkpt>
      <trkpt lat="45.03454" lon="3.59486">
        <ele>672.36</ele>
        <time>2022-03-21T11:34:30Z</time>
      </trkpt>
      <trkpt lat="45.03435" lon="3.59505">
        <ele>670.96</ele>
        <time>2022-03-21T11:34:33Z</time>
      </trkpt>
      <trkpt lat="45.03408" lon="3.59524">
        <ele>668.48</ele>
        <time>2022-03-21T11:34:36Z</time>
      </trkpt>
      <trkpt lat="45.03363" lon="3.59549">
        <ele>663.85</ele>
        <time>2022-03-21T11:34:38Z</time>
      </trkpt>
      <trkpt lat="45.03341" lon="3.59565">
        <ele>662.21</ele>
        <time>2022-03-21T11:34:41Z</time>
      </trkpt>
      <trkpt lat="45.03319" lon="3.59578">
        <ele>660.07</ele>
        <time>2022-03-21T11:34:44Z</time>
      </trkpt>
      <trkpt lat="45.03307" lon="3.59582">
        <ele>658</ele>
        <time>2022-03-21T11:34:47Z</time>
      </trkpt>
      <trkpt lat="45.03297" lon="3.59583">
        <ele>656.96</ele>
        <time>2022-03-21T11:34:49Z</time>
      </trkpt>
      <trkpt lat="45.03285" lon="3.5958">
        <ele>655.25</ele>
        <time>2022-03-21T11:34:52Z</time>
      </trkpt>
      <trkpt lat="45.03239" lon="3.59559">
        <ele>651.15</ele>
        <time>2022-03-21T11:34:55Z</time>
      </trkpt>
      <trkpt lat="45.0323" lon="3.59558">
        <ele>651.05</ele>
        <time>2022-03-21T11:34:57Z</time>
      </trkpt>
      <trkpt lat="45.03148" lon="3.59579">
        <ele>644.66</ele>
        <time>2022-03-21T11:35:00Z</time>
      </trkpt>
      <trkpt lat="45.03139" lon="3.59578">
        <ele>644.72</ele>
        <time>2022-03-21T11:35:03Z</time>
      </trkpt>
      <trkpt lat="45.03121" lon="3.59568">
        <ele>641.42</ele>
        <time>2022-03-21T11:35:06Z</time>
      </trkpt>
      <trkpt lat="45.03115" lon="3.59558">
        <ele>640.26</ele>
        <time>2022-03-21T11:35:08Z</time>
      </trkpt>
      <trkpt lat="45.03112" lon="3.59546">
        <ele>639.55</ele>
        <time>2022-03-21T11:35:11Z</time>
      </trkpt>
      <trkpt lat="45.03111" lon="3.59532">
        <ele>639.63</ele>
        <time>2022-03-21T11:35:14Z</time>
      </trkpt>
      <trkpt lat="45.03114" lon="3.59512">
        <ele>640.6</ele>
        <time>2022-03-21T11:35:17Z</time>
      </trkpt>
      <trkpt lat="45.03117" lon="3.59503">
        <ele>641.32</ele>
        <time>2022-03-21T11:35:19Z</time>
      </trkpt>
      <trkpt lat="45.03129" lon="3.59488">
        <ele>642.42</ele>
        <time>2022-03-21T11:35:22Z</time>
      </trkpt>
      <trkpt lat="45.03139" lon="3.59482">
        <ele>643.37</ele>
        <time>2022-03-21T11:35:25Z</time>
      </trkpt>
      <trkpt lat="45.03169" lon="3.59473">
        <ele>637.02</ele>
        <time>2022-03-21T11:35:28Z</time>
      </trkpt>
      <trkpt lat="45.03184" lon="3.59471">
        <ele>634.74</ele>
        <time>2022-03-21T11:35:30Z</time>
      </trkpt>
      <trkpt lat="45.03248" lon="3.59476">
        <ele>634.36</ele>
        <time>2022-03-21T11:35:33Z</time>
      </trkpt>
      <trkpt lat="45.03264" lon="3.59475">
        <ele>634.7</ele>
        <time>2022-03-21T11:35:36Z</time>
      </trkpt>
      <trkpt lat="45.03305" lon="3.5946">
        <ele>629.65</ele>
        <time>2022-03-21T11:35:39Z</time>
      </trkpt>
      <trkpt lat="45.03317" lon="3.59454">
        <ele>629.78</ele>
        <time>2022-03-21T11:35:41Z</time>
      </trkpt>
      <trkpt lat="45.03373" lon="3.59395">
        <ele>623.89</ele>
        <time>2022-03-21T11:35:44Z</time>
      </trkpt>
      <trkpt lat="45.03403" lon="3.59368">
        <ele>621.34</ele>
        <time>2022-03-21T11:35:47Z</time>
      </trkpt>
      <trkpt lat="45.03424" lon="3.59345">
        <ele>619.33</ele>
        <time>2022-03-21T11:35:50Z</time>
      </trkpt>
      <trkpt lat="45.03439" lon="3.59324">
        <ele>617.74</ele>
        <time>2022-03-21T11:35:52Z</time>
      </trkpt>
      <trkpt lat="45.03518" lon="3.59181">
        <ele>601.04</ele>
        <time>2022-03-21T11:35:55Z</time>
      </trkpt>
      <trkpt lat="45.03522" lon="3.59171">
        <ele>601.18</ele>
        <time>2022-03-21T11:35:58Z</time>
      </trkpt>
      <trkpt lat="45.03528" lon="3.59149">
        <ele>600.74</ele>
        <time>2022-03-21T11:36:01Z</time>
      </trkpt>
      <trkpt lat="45.03537" lon="3.59097">
        <ele>594.26</ele>
        <time>2022-03-21T11:36:03Z</time>
      </trkpt>
      <trkpt lat="45.03547" lon="3.59077">
        <ele>594.85</ele>
        <time>2022-03-21T11:36:06Z</time>
      </trkpt>
      <trkpt lat="45.03568" lon="3.59044">
        <ele>595.22</ele>
        <time>2022-03-21T11:36:09Z</time>
      </trkpt>
      <trkpt lat="45.03573" lon="3.5903">
        <ele>593.32</ele>
        <time>2022-03-21T11:36:12Z</time>
      </trkpt>
      <trkpt lat="45.03574" lon="3.59021">
        <ele>591.98</ele>
        <time>2022-03-21T11:36:14Z</time>
      </trkpt>
      <trkpt lat="45.03571" lon="3.59006">
        <ele>589.78</ele>
        <time>2022-03-21T11:36:17Z</time>
      </trkpt>
      <trkpt lat="45.03567" lon="3.58999">
        <ele>589.12</ele>
        <time>2022-03-21T11:36:20Z</time>
      </trkpt>
      <trkpt lat="45.03561" lon="3.58995">
        <ele>589.13</ele>
        <time>2022-03-21T11:36:23Z</time>
      </trkpt>
      <trkpt lat="45.03549" lon="3.58994">
        <ele>588.36</ele>
        <time>2022-03-21T11:36:25Z</time>
      </trkpt>
      <trkpt lat="45.03543" lon="3.58997">
        <ele>587.28</ele>
        <time>2022-03-21T11:36:28Z</time>
      </trkpt>
      <trkpt lat="45.03538" lon="3.59003">
        <ele>586.33</ele>
        <time>2022-03-21T11:36:31Z</time>
      </trkpt>
      <trkpt lat="45.0352" lon="3.59047">
        <ele>581.51</ele>
        <time>2022-03-21T11:36:34Z</time>
      </trkpt>
      <trkpt lat="45.03497" lon="3.5911">
        <ele>581.29</ele>
        <time>2022-03-21T11:36:36Z</time>
      </trkpt>
      <trkpt lat="45.03486" lon="3.59153">
        <ele>581.18</ele>
        <time>2022-03-21T11:36:39Z</time>
      </trkpt>
      <trkpt lat="45.03481" lon="3.59165">
        <ele>580.5</ele>
        <time>2022-03-21T11:36:42Z</time>
      </trkpt>
      <trkpt lat="45.03439" lon="3.59227">
        <ele>581.33</ele>
        <time>2022-03-21T11:36:45Z</time>
      </trkpt>
      <trkpt lat="45.03401" lon="3.5927">
        <ele>579.85</ele>
        <time>2022-03-21T11:36:47Z</time>
      </trkpt>
      <trkpt lat="45.0337" lon="3.59296">
        <ele>579.76</ele>
        <time>2022-03-21T11:36:50Z</time>
      </trkpt>
      <trkpt lat="45.03328" lon="3.59317">
        <ele>574.83</ele>
        <time>2022-03-21T11:36:53Z</time>
      </trkpt>
      <trkpt lat="45.0332" lon="3.59318">
        <ele>573.93</ele>
        <time>2022-03-21T11:36:56Z</time>
      </trkpt>
      <trkpt lat="45.03291" lon="3.59314">
        <ele>568.6</ele>
        <time>2022-03-21T11:36:58Z</time>
      </trkpt>
      <trkpt lat="45.03265" lon="3.59319">
        <ele>569.63</ele>
        <time>2022-03-21T11:37:01Z</time>
      </trkpt>
      <trkpt lat="45.03228" lon="3.59315">
        <ele>567.31</ele>
        <time>2022-03-21T11:37:04Z</time>
      </trkpt>
      <trkpt lat="45.03141" lon="3.59288">
        <ele>562.43</ele>
        <time>2022-03-21T11:37:07Z</time>
      </trkpt>
      <trkpt lat="45.03108" lon="3.59282">
        <ele>558.49</ele>
        <time>2022-03-21T11:37:09Z</time>
      </trkpt>
      <trkpt lat="45.03086" lon="3.59282">
        <ele>555.61</ele>
        <time>2022-03-21T11:37:12Z</time>
      </trkpt>
      <trkpt lat="45.03066" lon="3.59288">
        <ele>552.27</ele>
        <time>2022-03-21T11:37:15Z</time>
      </trkpt>
      <trkpt lat="45.02992" lon="3.59335">
        <ele>546.14</ele>
        <time>2022-03-21T11:37:17Z</time>
      </trkpt>
      <trkpt lat="45.02973" lon="3.59355">
        <ele>544.79</ele>
        <time>2022-03-21T11:37:20Z</time>
      </trkpt>
      <trkpt lat="45.02968" lon="3.59364">
        <ele>544.67</ele>
        <time>2022-03-21T11:37:23Z</time>
      </trkpt>
      <trkpt lat="45.02958" lon="3.59395">
        <ele>544.2</ele>
        <time>2022-03-21T11:37:26Z</time>
      </trkpt>
      <trkpt lat="45.02955" lon="3.59425">
        <ele>545.27</ele>
        <time>2022-03-21T11:37:28Z</time>
      </trkpt>
      <trkpt lat="45.02957" lon="3.59455">
        <ele>547.38</ele>
        <time>2022-03-21T11:37:31Z</time>
      </trkpt>
      <trkpt lat="45.02956" lon="3.5946">
        <ele>548.31</ele>
        <time>2022-03-21T11:37:34Z</time>
      </trkpt>
      <trkpt lat="45.02953" lon="3.59464">
        <ele>547.81</ele>
        <time>2022-03-21T11:37:37Z</time>
      </trkpt>
      <trkpt lat="45.02946" lon="3.59467">
        <ele>547.03</ele>
        <time>2022-03-21T11:37:39Z</time>
      </trkpt>
      <trkpt lat="45.02901" lon="3.59471">
        <ele>542.15</ele>
        <time>2022-03-21T11:37:42Z</time>
      </trkpt>
      <trkpt lat="45.02892" lon="3.59469">
        <ele>541.2</ele>
        <time>2022-03-21T11:37:45Z</time>
      </trkpt>
      <trkpt lat="45.02871" lon="3.5945">
        <ele>542.29</ele>
        <time>2022-03-21T11:37:48Z</time>
      </trkpt>
      <trkpt lat="45.0282" lon="3.59412">
        <ele>545.39</ele>
        <time>2022-03-21T11:37:50Z</time>
      </trkpt>
      <trkpt lat="45.02785" lon="3.59394">
        <ele>547.14</ele>
        <time>2022-03-21T11:37:53Z</time>
      </trkpt>
      <trkpt lat="45.0278" lon="3.59389">
        <ele>547</ele>
        <time>2022-03-21T11:37:56Z</time>
      </trkpt>
      <trkpt lat="45.02781" lon="3.59364">
        <ele>547</ele>
        <time>2022-03-21T11:37:59Z</time>
      </trkpt>
      <trkpt lat="45.02783" lon="3.59326">
        <ele>547.19</ele>
        <time>2022-03-21T11:38:01Z</time>
      </trkpt>
      <trkpt lat="45.02782" lon="3.59321">
        <ele>547.16</ele>
        <time>2022-03-21T11:38:04Z</time>
      </trkpt>
      <trkpt lat="45.02775" lon="3.59308">
        <ele>546.91</ele>
        <time>2022-03-21T11:38:07Z</time>
      </trkpt>
      <trkpt lat="45.02772" lon="3.59295">
        <ele>547.18</ele>
        <time>2022-03-21T11:38:09Z</time>
      </trkpt>
      <trkpt lat="45.02762" lon="3.59238">
        <ele>548.17</ele>
        <time>2022-03-21T11:38:12Z</time>
      </trkpt>
      <trkpt lat="45.02767" lon="3.59102">
        <ele>546.38</ele>
        <time>2022-03-21T11:38:15Z</time>
      </trkpt>
      <trkpt lat="45.02767" lon="3.59102">
        <ele>546.38</ele>
        <time>2022-03-21T11:38:15Z</time>
      </trkpt>
      <trkpt lat="45.02775" lon="3.59098">
        <ele>546.19</ele>
        <time>2022-03-21T11:38:17Z</time>
      </trkpt>
      <trkpt lat="45.02791" lon="3.59098">
        <ele>546.39</ele>
        <time>2022-03-21T11:38:19Z</time>
      </trkpt>
      <trkpt lat="45.02817" lon="3.59104">
        <ele>546.94</ele>
        <time>2022-03-21T11:38:21Z</time>
      </trkpt>
      <trkpt lat="45.0284" lon="3.59104">
        <ele>547.28</ele>
        <time>2022-03-21T11:38:23Z</time>
      </trkpt>
      <trkpt lat="45.02884" lon="3.59073">
        <ele>546.77</ele>
        <time>2022-03-21T11:38:25Z</time>
      </trkpt>
      <trkpt lat="45.02913" lon="3.59057">
        <ele>546.09</ele>
        <time>2022-03-21T11:38:27Z</time>
      </trkpt>
      <trkpt lat="45.02956" lon="3.59048">
        <ele>545.08</ele>
        <time>2022-03-21T11:38:29Z</time>
      </trkpt>
      <trkpt lat="45.02961" lon="3.59044">
        <ele>545.55</ele>
        <time>2022-03-21T11:38:31Z</time>
      </trkpt>
      <trkpt lat="45.02964" lon="3.59038">
        <ele>546.16</ele>
        <time>2022-03-21T11:38:33Z</time>
      </trkpt>
      <trkpt lat="45.02974" lon="3.59003">
        <ele>549.69</ele>
        <time>2022-03-21T11:38:35Z</time>
      </trkpt>
      <trkpt lat="45.02981" lon="3.58995">
        <ele>550.77</ele>
        <time>2022-03-21T11:38:37Z</time>
      </trkpt>
      <trkpt lat="45.03037" lon="3.58983">
        <ele>553.86</ele>
        <time>2022-03-21T11:38:38Z</time>
      </trkpt>
      <trkpt lat="45.03099" lon="3.58978">
        <ele>557.37</ele>
        <time>2022-03-21T11:38:40Z</time>
      </trkpt>
      <trkpt lat="45.03161" lon="3.58964">
        <ele>559.52</ele>
        <time>2022-03-21T11:38:42Z</time>
      </trkpt>
      <trkpt lat="45.03175" lon="3.58957">
        <ele>560.94</ele>
        <time>2022-03-21T11:38:44Z</time>
      </trkpt>
      <trkpt lat="45.032" lon="3.58931">
        <ele>567.95</ele>
        <time>2022-03-21T11:38:46Z</time>
      </trkpt>
      <trkpt lat="45.0325" lon="3.58904">
        <ele>563.82</ele>
        <time>2022-03-21T11:38:48Z</time>
      </trkpt>
      <trkpt lat="45.03265" lon="3.58892">
        <ele>564.77</ele>
        <time>2022-03-21T11:38:50Z</time>
      </trkpt>
      <trkpt lat="45.03337" lon="3.5882">
        <ele>562.49</ele>
        <time>2022-03-21T11:38:52Z</time>
      </trkpt>
      <trkpt lat="45.03346" lon="3.58805">
        <ele>563.63</ele>
        <time>2022-03-21T11:38:54Z</time>
      </trkpt>
      <trkpt lat="45.03357" lon="3.58732">
        <ele>576.34</ele>
        <time>2022-03-21T11:38:56Z</time>
      </trkpt>
      <trkpt lat="45.03366" lon="3.58709">
        <ele>575.62</ele>
        <time>2022-03-21T11:38:58Z</time>
      </trkpt>
      <trkpt lat="45.03373" lon="3.58701">
        <ele>574.86</ele>
        <time>2022-03-21T11:39:00Z</time>
      </trkpt>
      <trkpt lat="45.03383" lon="3.58696">
        <ele>573.82</ele>
        <time>2022-03-21T11:39:02Z</time>
      </trkpt>
      <trkpt lat="45.03393" lon="3.58694">
        <ele>572.8</ele>
        <time>2022-03-21T11:39:04Z</time>
      </trkpt>
      <trkpt lat="45.03406" lon="3.58694">
        <ele>571.81</ele>
        <time>2022-03-21T11:39:06Z</time>
      </trkpt>
      <trkpt lat="45.03418" lon="3.58696">
        <ele>570.32</ele>
        <time>2022-03-21T11:39:08Z</time>
      </trkpt>
      <trkpt lat="45.03449" lon="3.58709">
        <ele>559.08</ele>
        <time>2022-03-21T11:39:10Z</time>
      </trkpt>
      <trkpt lat="45.03457" lon="3.58709">
        <ele>557.88</ele>
        <time>2022-03-21T11:39:12Z</time>
      </trkpt>
      <trkpt lat="45.03483" lon="3.5869">
        <ele>558.64</ele>
        <time>2022-03-21T11:39:14Z</time>
      </trkpt>
      <trkpt lat="45.03511" lon="3.58661">
        <ele>566.17</ele>
        <time>2022-03-21T11:39:16Z</time>
      </trkpt>
      <trkpt lat="45.03533" lon="3.58643">
        <ele>569.09</ele>
        <time>2022-03-21T11:39:18Z</time>
      </trkpt>
      <trkpt lat="45.03584" lon="3.58608">
        <ele>557.5</ele>
        <time>2022-03-21T11:39:20Z</time>
      </trkpt>
      <trkpt lat="45.03596" lon="3.58597">
        <ele>556.13</ele>
        <time>2022-03-21T11:39:22Z</time>
      </trkpt>
      <trkpt lat="45.03606" lon="3.58582">
        <ele>555.22</ele>
        <time>2022-03-21T11:39:24Z</time>
      </trkpt>
      <trkpt lat="45.03611" lon="3.58557">
        <ele>556.86</ele>
        <time>2022-03-21T11:39:26Z</time>
      </trkpt>
      <trkpt lat="45.03614" lon="3.58527">
        <ele>560.51</ele>
        <time>2022-03-21T11:39:28Z</time>
      </trkpt>
      <trkpt lat="45.03617" lon="3.58521">
        <ele>560.4</ele>
        <time>2022-03-21T11:39:30Z</time>
      </trkpt>
      <trkpt lat="45.03621" lon="3.58517">
        <ele>560.14</ele>
        <time>2022-03-21T11:39:32Z</time>
      </trkpt>
      <trkpt lat="45.03626" lon="3.58516">
        <ele>559.67</ele>
        <time>2022-03-21T11:39:34Z</time>
      </trkpt>
      <trkpt lat="45.03632" lon="3.58517">
        <ele>558.87</ele>
        <time>2022-03-21T11:39:36Z</time>
      </trkpt>
      <trkpt lat="45.03659" lon="3.58533">
        <ele>555.75</ele>
        <time>2022-03-21T11:39:38Z</time>
      </trkpt>
      <trkpt lat="45.03671" lon="3.58531">
        <ele>555.62</ele>
        <time>2022-03-21T11:39:40Z</time>
      </trkpt>
      <trkpt lat="45.0368" lon="3.58527">
        <ele>555.44</ele>
        <time>2022-03-21T11:39:42Z</time>
      </trkpt>
      <trkpt lat="45.03699" lon="3.58511">
        <ele>557.83</ele>
        <time>2022-03-21T11:39:44Z</time>
      </trkpt>
      <trkpt lat="45.03726" lon="3.58483">
        <ele>560.54</ele>
        <time>2022-03-21T11:39:46Z</time>
      </trkpt>
      <trkpt lat="45.03772" lon="3.58441">
        <ele>557.94</ele>
        <time>2022-03-21T11:39:48Z</time>
      </trkpt>
      <trkpt lat="45.03813" lon="3.5843">
        <ele>557.3</ele>
        <time>2022-03-21T11:39:50Z</time>
      </trkpt>
      <trkpt lat="45.0383" lon="3.58428">
        <ele>557.18</ele>
        <time>2022-03-21T11:39:52Z</time>
      </trkpt>
      <trkpt lat="45.03848" lon="3.58432">
        <ele>558.35</ele>
        <time>2022-03-21T11:39:54Z</time>
      </trkpt>
      <trkpt lat="45.03887" lon="3.58445">
        <ele>558.84</ele>
        <time>2022-03-21T11:39:56Z</time>
      </trkpt>
      <trkpt lat="45.0392" lon="3.58448">
        <ele>558.24</ele>
        <time>2022-03-21T11:39:58Z</time>
      </trkpt>
      <trkpt lat="45.03927" lon="3.58451">
        <ele>557.7</ele>
        <time>2022-03-21T11:40:00Z</time>
      </trkpt>
      <trkpt lat="45.0394" lon="3.58462">
        <ele>555.32</ele>
        <time>2022-03-21T11:40:02Z</time>
      </trkpt>
      <trkpt lat="45.03971" lon="3.58504">
        <ele>549.72</ele>
        <time>2022-03-21T11:40:04Z</time>
      </trkpt>
      <trkpt lat="45.0401" lon="3.58541">
        <ele>553.18</ele>
        <time>2022-03-21T11:40:06Z</time>
      </trkpt>
      <trkpt lat="45.04016" lon="3.58553">
        <ele>553.18</ele>
        <time>2022-03-21T11:40:08Z</time>
      </trkpt>
      <trkpt lat="45.04016" lon="3.58562">
        <ele>552.18</ele>
        <time>2022-03-21T11:40:10Z</time>
      </trkpt>
      <trkpt lat="45.04016" lon="3.5857">
        <ele>551.03</ele>
        <time>2022-03-21T11:40:12Z</time>
      </trkpt>
      <trkpt lat="45.04013" lon="3.58585">
        <ele>547.9</ele>
        <time>2022-03-21T11:40:14Z</time>
      </trkpt>
      <trkpt lat="45.04014" lon="3.58597">
        <ele>547.36</ele>
        <time>2022-03-21T11:40:16Z</time>
      </trkpt>
      <trkpt lat="45.04028" lon="3.58618">
        <ele>550.3</ele>
        <time>2022-03-21T11:40:18Z</time>
      </trkpt>
      <trkpt lat="45.04049" lon="3.58688">
        <ele>543.23</ele>
        <time>2022-03-21T11:40:20Z</time>
      </trkpt>
      <trkpt lat="45.04079" lon="3.58731">
        <ele>550.96</ele>
        <time>2022-03-21T11:40:22Z</time>
      </trkpt>
      <trkpt lat="45.04092" lon="3.58783">
        <ele>548.54</ele>
        <time>2022-03-21T11:40:24Z</time>
      </trkpt>
      <trkpt lat="45.041" lon="3.58826">
        <ele>545.77</ele>
        <time>2022-03-21T11:40:26Z</time>
      </trkpt>
      <trkpt lat="45.04105" lon="3.58839">
        <ele>545.19</ele>
        <time>2022-03-21T11:40:28Z</time>
      </trkpt>
      <trkpt lat="45.04115" lon="3.58855">
        <ele>544.65</ele>
        <time>2022-03-21T11:40:30Z</time>
      </trkpt>
      <trkpt lat="45.04131" lon="3.58915">
        <ele>538.1</ele>
        <time>2022-03-21T11:40:32Z</time>
      </trkpt>
      <trkpt lat="45.04142" lon="3.58941">
        <ele>536.23</ele>
        <time>2022-03-21T11:40:34Z</time>
      </trkpt>
      <trkpt lat="45.0417" lon="3.58994">
        <ele>536.17</ele>
        <time>2022-03-21T11:40:36Z</time>
      </trkpt>
      <trkpt lat="45.04189" lon="3.59022">
        <ele>535.17</ele>
        <time>2022-03-21T11:40:38Z</time>
      </trkpt>
      <trkpt lat="45.0421" lon="3.59043">
        <ele>534.77</ele>
        <time>2022-03-21T11:40:40Z</time>
      </trkpt>
      <trkpt lat="45.04241" lon="3.59066">
        <ele>536.09</ele>
        <time>2022-03-21T11:40:42Z</time>
      </trkpt>
      <trkpt lat="45.04283" lon="3.5909">
        <ele>542</ele>
        <time>2022-03-21T11:40:44Z</time>
      </trkpt>
      <trkpt lat="45.04307" lon="3.591">
        <ele>542.69</ele>
        <time>2022-03-21T11:40:46Z</time>
      </trkpt>
      <trkpt lat="45.04329" lon="3.59104">
        <ele>541.07</ele>
        <time>2022-03-21T11:40:48Z</time>
      </trkpt>
      <trkpt lat="45.04368" lon="3.59101">
        <ele>539.32</ele>
        <time>2022-03-21T11:40:50Z</time>
      </trkpt>
      <trkpt lat="45.04386" lon="3.59098">
        <ele>539.38</ele>
        <time>2022-03-21T11:40:52Z</time>
      </trkpt>
      <trkpt lat="45.04417" lon="3.59088">
        <ele>542.72</ele>
        <time>2022-03-21T11:40:54Z</time>
      </trkpt>
      <trkpt lat="45.04428" lon="3.59084">
        <ele>543.79</ele>
        <time>2022-03-21T11:40:56Z</time>
      </trkpt>
      <trkpt lat="45.04459" lon="3.59063">
        <ele>542.97</ele>
        <time>2022-03-21T11:40:58Z</time>
      </trkpt>
      <trkpt lat="45.04471" lon="3.59054">
        <ele>540.74</ele>
        <time>2022-03-21T11:41:00Z</time>
      </trkpt>
      <trkpt lat="45.04484" lon="3.59039">
        <ele>539.19</ele>
        <time>2022-03-21T11:41:02Z</time>
      </trkpt>
      <trkpt lat="45.04546" lon="3.58934">
        <ele>540.33</ele>
        <time>2022-03-21T11:41:04Z</time>
      </trkpt>
      <trkpt lat="45.0456" lon="3.58902">
        <ele>541.97</ele>
        <time>2022-03-21T11:41:06Z</time>
      </trkpt>
      <trkpt lat="45.04578" lon="3.58849">
        <ele>537.59</ele>
        <time>2022-03-21T11:41:08Z</time>
      </trkpt>
      <trkpt lat="45.046" lon="3.58755">
        <ele>536.8</ele>
        <time>2022-03-21T11:41:10Z</time>
      </trkpt>
      <trkpt lat="45.04604" lon="3.58703">
        <ele>537.88</ele>
        <time>2022-03-21T11:41:12Z</time>
      </trkpt>
      <trkpt lat="45.04604" lon="3.58626">
        <ele>539.54</ele>
        <time>2022-03-21T11:41:14Z</time>
      </trkpt>
      <trkpt lat="45.0461" lon="3.5858">
        <ele>539.86</ele>
        <time>2022-03-21T11:41:16Z</time>
      </trkpt>
      <trkpt lat="45.04614" lon="3.58555">
        <ele>540.34</ele>
        <time>2022-03-21T11:41:18Z</time>
      </trkpt>
      <trkpt lat="45.04626" lon="3.5852">
        <ele>538.95</ele>
        <time>2022-03-21T11:41:20Z</time>
      </trkpt>
      <trkpt lat="45.04655" lon="3.58455">
        <ele>536.56</ele>
        <time>2022-03-21T11:41:22Z</time>
      </trkpt>
      <trkpt lat="45.04662" lon="3.58426">
        <ele>537.83</ele>
        <time>2022-03-21T11:41:24Z</time>
      </trkpt>
      <trkpt lat="45.04667" lon="3.58418">
        <ele>537.9</ele>
        <time>2022-03-21T11:41:25Z</time>
      </trkpt>
      <trkpt lat="45.04683" lon="3.58409">
        <ele>537.72</ele>
        <time>2022-03-21T11:41:27Z</time>
      </trkpt>
      <trkpt lat="45.04704" lon="3.58398">
        <ele>536.88</ele>
        <time>2022-03-21T11:41:29Z</time>
      </trkpt>
      <trkpt lat="45.0471" lon="3.58387">
        <ele>536.3</ele>
        <time>2022-03-21T11:41:31Z</time>
      </trkpt>
      <trkpt lat="45.04719" lon="3.58344">
        <ele>536.72</ele>
        <time>2022-03-21T11:41:33Z</time>
      </trkpt>
      <trkpt lat="45.04728" lon="3.5831">
        <ele>538.21</ele>
        <time>2022-03-21T11:41:35Z</time>
      </trkpt>
      <trkpt lat="45.04732" lon="3.58305">
        <ele>537.91</ele>
        <time>2022-03-21T11:41:37Z</time>
      </trkpt>
      <trkpt lat="45.04743" lon="3.583">
        <ele>536.08</ele>
        <time>2022-03-21T11:41:39Z</time>
      </trkpt>
      <trkpt lat="45.0475" lon="3.58301">
        <ele>534.33</ele>
        <time>2022-03-21T11:41:41Z</time>
      </trkpt>
      <trkpt lat="45.04855" lon="3.58366">
        <ele>535.32</ele>
        <time>2022-03-21T11:41:43Z</time>
      </trkpt>
      <trkpt lat="45.04861" lon="3.58355">
        <ele>535.74</ele>
        <time>2022-03-21T11:41:47Z</time>
      </trkpt>
      <trkpt lat="45.04868" lon="3.58322">
        <ele>533.85</ele>
        <time>2022-03-21T11:41:50Z</time>
      </trkpt>
      <trkpt lat="45.04872" lon="3.58309">
        <ele>533.56</ele>
        <time>2022-03-21T11:41:53Z</time>
      </trkpt>
      <trkpt lat="45.04879" lon="3.58296">
        <ele>533.94</ele>
        <time>2022-03-21T11:41:56Z</time>
      </trkpt>
      <trkpt lat="45.04901" lon="3.58266">
        <ele>536.79</ele>
        <time>2022-03-21T11:41:59Z</time>
      </trkpt>
      <trkpt lat="45.04941" lon="3.58216">
        <ele>533.27</ele>
        <time>2022-03-21T11:42:02Z</time>
      </trkpt>
      <trkpt lat="45.04973" lon="3.58178">
        <ele>531.52</ele>
        <time>2022-03-21T11:42:06Z</time>
      </trkpt>
      <trkpt lat="45.04983" lon="3.58169">
        <ele>531.43</ele>
        <time>2022-03-21T11:42:09Z</time>
      </trkpt>
      <trkpt lat="45.0501" lon="3.58151">
        <ele>534.01</ele>
        <time>2022-03-21T11:42:12Z</time>
      </trkpt>
      <trkpt lat="45.05039" lon="3.58138">
        <ele>536.33</ele>
        <time>2022-03-21T11:42:15Z</time>
      </trkpt>
      <trkpt lat="45.05137" lon="3.5811">
        <ele>531.56</ele>
        <time>2022-03-21T11:42:18Z</time>
      </trkpt>
      <trkpt lat="45.05192" lon="3.58101">
        <ele>530.59</ele>
        <time>2022-03-21T11:42:21Z</time>
      </trkpt>
      <trkpt lat="45.0525" lon="3.58099">
        <ele>532.78</ele>
        <time>2022-03-21T11:42:24Z</time>
      </trkpt>
      <trkpt lat="45.05278" lon="3.58101">
        <ele>534.15</ele>
        <time>2022-03-21T11:42:28Z</time>
      </trkpt>
      <trkpt lat="45.05416" lon="3.58127">
        <ele>535.91</ele>
        <time>2022-03-21T11:42:31Z</time>
      </trkpt>
      <trkpt lat="45.05446" lon="3.58129">
        <ele>536.96</ele>
        <time>2022-03-21T11:42:34Z</time>
      </trkpt>
      <trkpt lat="45.0548" lon="3.58127">
        <ele>539.22</ele>
        <time>2022-03-21T11:42:37Z</time>
      </trkpt>
      <trkpt lat="45.05496" lon="3.58124">
        <ele>540.4</ele>
        <time>2022-03-21T11:42:40Z</time>
      </trkpt>
      <trkpt lat="45.05531" lon="3.5811">
        <ele>532.25</ele>
        <time>2022-03-21T11:42:43Z</time>
      </trkpt>
      <trkpt lat="45.0555" lon="3.58099">
        <ele>532.79</ele>
        <time>2022-03-21T11:42:46Z</time>
      </trkpt>
      <trkpt lat="45.05635" lon="3.58022">
        <ele>538.91</ele>
        <time>2022-03-21T11:42:50Z</time>
      </trkpt>
      <trkpt lat="45.05705" lon="3.57946">
        <ele>535.58</ele>
        <time>2022-03-21T11:42:53Z</time>
      </trkpt>
      <trkpt lat="45.05715" lon="3.5794">
        <ele>536.39</ele>
        <time>2022-03-21T11:42:56Z</time>
      </trkpt>
      <trkpt lat="45.05747" lon="3.57927">
        <ele>541.38</ele>
        <time>2022-03-21T11:42:59Z</time>
      </trkpt>
      <trkpt lat="45.05769" lon="3.57914">
        <ele>542</ele>
        <time>2022-03-21T11:43:02Z</time>
      </trkpt>
      <trkpt lat="45.05803" lon="3.57883">
        <ele>539.49</ele>
        <time>2022-03-21T11:43:05Z</time>
      </trkpt>
      <trkpt lat="45.05834" lon="3.57849">
        <ele>536.65</ele>
        <time>2022-03-21T11:43:08Z</time>
      </trkpt>
      <trkpt lat="45.05863" lon="3.57811">
        <ele>538.29</ele>
        <time>2022-03-21T11:43:12Z</time>
      </trkpt>
      <trkpt lat="45.05863" lon="3.57811">
        <ele>538.29</ele>
        <time>2022-03-21T11:43:12Z</time>
      </trkpt>
      <trkpt lat="45.05929" lon="3.57702">
        <ele>534.2</ele>
        <time>2022-03-21T11:43:14Z</time>
      </trkpt>
      <trkpt lat="45.05935" lon="3.5769">
        <ele>534.33</ele>
        <time>2022-03-21T11:43:17Z</time>
      </trkpt>
      <trkpt lat="45.0596" lon="3.57593">
        <ele>537.37</ele>
        <time>2022-03-21T11:43:20Z</time>
      </trkpt>
      <trkpt lat="45.05965" lon="3.57559">
        <ele>538.49</ele>
        <time>2022-03-21T11:43:23Z</time>
      </trkpt>
      <trkpt lat="45.05973" lon="3.57362">
        <ele>536.21</ele>
        <time>2022-03-21T11:43:26Z</time>
      </trkpt>
      <trkpt lat="45.0598" lon="3.57314">
        <ele>535.41</ele>
        <time>2022-03-21T11:43:28Z</time>
      </trkpt>
      <trkpt lat="45.05987" lon="3.57286">
        <ele>535.59</ele>
        <time>2022-03-21T11:43:31Z</time>
      </trkpt>
      <trkpt lat="45.06027" lon="3.57165">
        <ele>541.71</ele>
        <time>2022-03-21T11:43:34Z</time>
      </trkpt>
      <trkpt lat="45.06037" lon="3.5713">
        <ele>542.83</ele>
        <time>2022-03-21T11:43:37Z</time>
      </trkpt>
      <trkpt lat="45.06045" lon="3.57089">
        <ele>544.08</ele>
        <time>2022-03-21T11:43:39Z</time>
      </trkpt>
      <trkpt lat="45.06055" lon="3.57051">
        <ele>543.11</ele>
        <time>2022-03-21T11:43:42Z</time>
      </trkpt>
      <trkpt lat="45.06072" lon="3.56989">
        <ele>540.75</ele>
        <time>2022-03-21T11:43:45Z</time>
      </trkpt>
      <trkpt lat="45.06078" lon="3.56971">
        <ele>541.43</ele>
        <time>2022-03-21T11:43:48Z</time>
      </trkpt>
      <trkpt lat="45.06086" lon="3.56953">
        <ele>541.08</ele>
        <time>2022-03-21T11:43:50Z</time>
      </trkpt>
      <trkpt lat="45.06135" lon="3.56868">
        <ele>539.53</ele>
        <time>2022-03-21T11:43:53Z</time>
      </trkpt>
      <trkpt lat="45.06222" lon="3.5676">
        <ele>534.41</ele>
        <time>2022-03-21T11:43:56Z</time>
      </trkpt>
      <trkpt lat="45.06237" lon="3.56748">
        <ele>533.83</ele>
        <time>2022-03-21T11:43:59Z</time>
      </trkpt>
      <trkpt lat="45.06253" lon="3.56745">
        <ele>534.68</ele>
        <time>2022-03-21T11:44:02Z</time>
      </trkpt>
      <trkpt lat="45.0626" lon="3.56747">
        <ele>534.34</ele>
        <time>2022-03-21T11:44:04Z</time>
      </trkpt>
      <trkpt lat="45.06287" lon="3.56763">
        <ele>535.53</ele>
        <time>2022-03-21T11:44:07Z</time>
      </trkpt>
      <trkpt lat="45.06301" lon="3.56761">
        <ele>533.35</ele>
        <time>2022-03-21T11:44:10Z</time>
      </trkpt>
      <trkpt lat="45.06306" lon="3.56756">
        <ele>532.65</ele>
        <time>2022-03-21T11:44:13Z</time>
      </trkpt>
      <trkpt lat="45.0631" lon="3.56748">
        <ele>533.42</ele>
        <time>2022-03-21T11:44:15Z</time>
      </trkpt>
      <trkpt lat="45.06313" lon="3.56736">
        <ele>534.2</ele>
        <time>2022-03-21T11:44:18Z</time>
      </trkpt>
      <trkpt lat="45.06315" lon="3.5669">
        <ele>532.03</ele>
        <time>2022-03-21T11:44:21Z</time>
      </trkpt>
      <trkpt lat="45.06318" lon="3.56677">
        <ele>531.81</ele>
        <time>2022-03-21T11:44:24Z</time>
      </trkpt>
      <trkpt lat="45.06333" lon="3.5665">
        <ele>533.88</ele>
        <time>2022-03-21T11:44:27Z</time>
      </trkpt>
      <trkpt lat="45.06358" lon="3.5661">
        <ele>536.72</ele>
        <time>2022-03-21T11:44:29Z</time>
      </trkpt>
      <trkpt lat="45.06374" lon="3.5659">
        <ele>538.54</ele>
        <time>2022-03-21T11:44:32Z</time>
      </trkpt>
      <trkpt lat="45.06402" lon="3.56538">
        <ele>538.48</ele>
        <time>2022-03-21T11:44:35Z</time>
      </trkpt>
      <trkpt lat="45.06421" lon="3.56512">
        <ele>539.42</ele>
        <time>2022-03-21T11:44:38Z</time>
      </trkpt>
      <trkpt lat="45.06429" lon="3.56496">
        <ele>539.58</ele>
        <time>2022-03-21T11:44:40Z</time>
      </trkpt>
      <trkpt lat="45.06451" lon="3.56447">
        <ele>539.71</ele>
        <time>2022-03-21T11:44:43Z</time>
      </trkpt>
      <trkpt lat="45.06476" lon="3.56376">
        <ele>540.28</ele>
        <time>2022-03-21T11:44:46Z</time>
      </trkpt>
      <trkpt lat="45.06518" lon="3.56242">
        <ele>540.53</ele>
        <time>2022-03-21T11:44:49Z</time>
      </trkpt>
      <trkpt lat="45.06524" lon="3.5623">
        <ele>540.96</ele>
        <time>2022-03-21T11:44:52Z</time>
      </trkpt>
      <trkpt lat="45.06546" lon="3.56199">
        <ele>546.66</ele>
        <time>2022-03-21T11:44:54Z</time>
      </trkpt>
      <trkpt lat="45.06551" lon="3.56186">
        <ele>546.01</ele>
        <time>2022-03-21T11:44:57Z</time>
      </trkpt>
      <trkpt lat="45.06556" lon="3.5617">
        <ele>544.03</ele>
        <time>2022-03-21T11:45:00Z</time>
      </trkpt>
      <trkpt lat="45.0656" lon="3.56145">
        <ele>541.48</ele>
        <time>2022-03-21T11:45:03Z</time>
      </trkpt>
      <trkpt lat="45.06573" lon="3.56042">
        <ele>548.02</ele>
        <time>2022-03-21T11:45:05Z</time>
      </trkpt>
      <trkpt lat="45.06573" lon="3.56025">
        <ele>547.59</ele>
        <time>2022-03-21T11:45:08Z</time>
      </trkpt>
      <trkpt lat="45.06571" lon="3.56017">
        <ele>546.35</ele>
        <time>2022-03-21T11:45:11Z</time>
      </trkpt>
      <trkpt lat="45.06556" lon="3.55965">
        <ele>534.97</ele>
        <time>2022-03-21T11:45:14Z</time>
      </trkpt>
      <trkpt lat="45.06554" lon="3.55939">
        <ele>532.48</ele>
        <time>2022-03-21T11:45:16Z</time>
      </trkpt>
      <trkpt lat="45.06553" lon="3.55911">
        <ele>533.34</ele>
        <time>2022-03-21T11:45:19Z</time>
      </trkpt>
      <trkpt lat="45.06558" lon="3.5581">
        <ele>536.1</ele>
        <time>2022-03-21T11:45:22Z</time>
      </trkpt>
      <trkpt lat="45.06561" lon="3.55784">
        <ele>536.99</ele>
        <time>2022-03-21T11:45:25Z</time>
      </trkpt>
      <trkpt lat="45.06574" lon="3.5574">
        <ele>541.4</ele>
        <time>2022-03-21T11:45:28Z</time>
      </trkpt>
      <trkpt lat="45.06589" lon="3.55698">
        <ele>544.92</ele>
        <time>2022-03-21T11:45:30Z</time>
      </trkpt>
      <trkpt lat="45.06671" lon="3.55569">
        <ele>552.57</ele>
        <time>2022-03-21T11:45:33Z</time>
      </trkpt>
      <trkpt lat="45.06699" lon="3.55522">
        <ele>552.87</ele>
        <time>2022-03-21T11:45:36Z</time>
      </trkpt>
      <trkpt lat="45.06709" lon="3.555">
        <ele>551.59</ele>
        <time>2022-03-21T11:45:39Z</time>
      </trkpt>
      <trkpt lat="45.06713" lon="3.55487">
        <ele>551.36</ele>
        <time>2022-03-21T11:45:41Z</time>
      </trkpt>
      <trkpt lat="45.0672" lon="3.55449">
        <ele>552.21</ele>
        <time>2022-03-21T11:45:44Z</time>
      </trkpt>
      <trkpt lat="45.06722" lon="3.55427">
        <ele>552.16</ele>
        <time>2022-03-21T11:45:47Z</time>
      </trkpt>
      <trkpt lat="45.06723" lon="3.55396">
        <ele>551.37</ele>
        <time>2022-03-21T11:45:50Z</time>
      </trkpt>
      <trkpt lat="45.06725" lon="3.55283">
        <ele>547.03</ele>
        <time>2022-03-21T11:45:53Z</time>
      </trkpt>
      <trkpt lat="45.06728" lon="3.55273">
        <ele>547.78</ele>
        <time>2022-03-21T11:45:55Z</time>
      </trkpt>
      <trkpt lat="45.06721" lon="3.55259">
        <ele>548.03</ele>
        <time>2022-03-21T11:45:57Z</time>
      </trkpt>
      <trkpt lat="45.06708" lon="3.55201">
        <ele>546.9</ele>
        <time>2022-03-21T11:45:59Z</time>
      </trkpt>
      <trkpt lat="45.06705" lon="3.55166">
        <ele>545.9</ele>
        <time>2022-03-21T11:46:01Z</time>
      </trkpt>
      <trkpt lat="45.06707" lon="3.55139">
        <ele>546.62</ele>
        <time>2022-03-21T11:46:03Z</time>
      </trkpt>
      <trkpt lat="45.06715" lon="3.55093">
        <ele>548.79</ele>
        <time>2022-03-21T11:46:05Z</time>
      </trkpt>
      <trkpt lat="45.06729" lon="3.55046">
        <ele>540.66</ele>
        <time>2022-03-21T11:46:07Z</time>
      </trkpt>
      <trkpt lat="45.06737" lon="3.55029">
        <ele>537.21</ele>
        <time>2022-03-21T11:46:09Z</time>
      </trkpt>
      <trkpt lat="45.06748" lon="3.55013">
        <ele>535.28</ele>
        <time>2022-03-21T11:46:11Z</time>
      </trkpt>
      <trkpt lat="45.06807" lon="3.54942">
        <ele>532.42</ele>
        <time>2022-03-21T11:46:12Z</time>
      </trkpt>
      <trkpt lat="45.06843" lon="3.54906">
        <ele>528.26</ele>
        <time>2022-03-21T11:46:14Z</time>
      </trkpt>
      <trkpt lat="45.06858" lon="3.5488">
        <ele>524.34</ele>
        <time>2022-03-21T11:46:16Z</time>
      </trkpt>
      <trkpt lat="45.06862" lon="3.54868">
        <ele>521.32</ele>
        <time>2022-03-21T11:46:18Z</time>
      </trkpt>
      <trkpt lat="45.06864" lon="3.54856">
        <ele>518.86</ele>
        <time>2022-03-21T11:46:20Z</time>
      </trkpt>
      <trkpt lat="45.06861" lon="3.54842">
        <ele>517</ele>
        <time>2022-03-21T11:46:22Z</time>
      </trkpt>
      <trkpt lat="45.06857" lon="3.54833">
        <ele>515.67</ele>
        <time>2022-03-21T11:46:24Z</time>
      </trkpt>
      <trkpt lat="45.06805" lon="3.54737">
        <ele>526.61</ele>
        <time>2022-03-21T11:46:26Z</time>
      </trkpt>
      <trkpt lat="45.06804" lon="3.54729">
        <ele>528.27</ele>
        <time>2022-03-21T11:46:28Z</time>
      </trkpt>
      <trkpt lat="45.06808" lon="3.54718">
        <ele>529.55</ele>
        <time>2022-03-21T11:46:30Z</time>
      </trkpt>
      <trkpt lat="45.06827" lon="3.54693">
        <ele>529.88</ele>
        <time>2022-03-21T11:46:31Z</time>
      </trkpt>
      <trkpt lat="45.06841" lon="3.54669">
        <ele>530.59</ele>
        <time>2022-03-21T11:46:33Z</time>
      </trkpt>
      <trkpt lat="45.0686" lon="3.54627">
        <ele>532.77</ele>
        <time>2022-03-21T11:46:35Z</time>
      </trkpt>
      <trkpt lat="45.0686" lon="3.54615">
        <ele>535.33</ele>
        <time>2022-03-21T11:46:37Z</time>
      </trkpt>
      <trkpt lat="45.06854" lon="3.54591">
        <ele>538.58</ele>
        <time>2022-03-21T11:46:39Z</time>
      </trkpt>
      <trkpt lat="45.06845" lon="3.54575">
        <ele>538.97</ele>
        <time>2022-03-21T11:46:41Z</time>
      </trkpt>
      <trkpt lat="45.06834" lon="3.54563">
        <ele>538.05</ele>
        <time>2022-03-21T11:46:43Z</time>
      </trkpt>
      <trkpt lat="45.06829" lon="3.5456">
        <ele>537.06</ele>
        <time>2022-03-21T11:46:45Z</time>
      </trkpt>
      <trkpt lat="45.06833" lon="3.54527">
        <ele>536.94</ele>
        <time>2022-03-21T11:46:49Z</time>
      </trkpt>
      <trkpt lat="45.06833" lon="3.54497">
        <ele>538.11</ele>
        <time>2022-03-21T11:46:53Z</time>
      </trkpt>
      <trkpt lat="45.06828" lon="3.54392">
        <ele>544.53</ele>
        <time>2022-03-21T11:46:57Z</time>
      </trkpt>
      <trkpt lat="45.06822" lon="3.54302">
        <ele>542.15</ele>
        <time>2022-03-21T11:47:01Z</time>
      </trkpt>
      <trkpt lat="45.06797" lon="3.53985">
        <ele>533.96</ele>
        <time>2022-03-21T11:47:05Z</time>
      </trkpt>
      <trkpt lat="45.06798" lon="3.53968">
        <ele>533.37</ele>
        <time>2022-03-21T11:47:09Z</time>
      </trkpt>
      <trkpt lat="45.06801" lon="3.53944">
        <ele>533.06</ele>
        <time>2022-03-21T11:47:13Z</time>
      </trkpt>
      <trkpt lat="45.06808" lon="3.53918">
        <ele>532.85</ele>
        <time>2022-03-21T11:47:17Z</time>
      </trkpt>
      <trkpt lat="45.06845" lon="3.53803">
        <ele>531.58</ele>
        <time>2022-03-21T11:47:21Z</time>
      </trkpt>
      <trkpt lat="45.06865" lon="3.53761">
        <ele>530.44</ele>
        <time>2022-03-21T11:47:25Z</time>
      </trkpt>
      <trkpt lat="45.06918" lon="3.53687">
        <ele>531.1</ele>
        <time>2022-03-21T11:47:29Z</time>
      </trkpt>
      <trkpt lat="45.06938" lon="3.53666">
        <ele>533.69</ele>
        <time>2022-03-21T11:47:33Z</time>
      </trkpt>
      <trkpt lat="45.07073" lon="3.53536">
        <ele>533.43</ele>
        <time>2022-03-21T11:47:37Z</time>
      </trkpt>
      <trkpt lat="45.07087" lon="3.53519">
        <ele>533.08</ele>
        <time>2022-03-21T11:47:41Z</time>
      </trkpt>
      <trkpt lat="45.07106" lon="3.53485">
        <ele>532.32</ele>
        <time>2022-03-21T11:47:45Z</time>
      </trkpt>
      <trkpt lat="45.07202" lon="3.53268">
        <ele>522</ele>
        <time>2022-03-21T11:47:49Z</time>
      </trkpt>
      <trkpt lat="45.07286" lon="3.53033">
        <ele>519</ele>
        <time>2022-03-21T11:47:53Z</time>
      </trkpt>
      <trkpt lat="45.07318" lon="3.52946">
        <ele>521.94</ele>
        <time>2022-03-21T11:47:57Z</time>
      </trkpt>
      <trkpt lat="45.07327" lon="3.52925">
        <ele>522.33</ele>
        <time>2022-03-21T11:48:01Z</time>
      </trkpt>
      <trkpt lat="45.07337" lon="3.52909">
        <ele>522.5</ele>
        <time>2022-03-21T11:48:05Z</time>
      </trkpt>
      <trkpt lat="45.07389" lon="3.52842">
        <ele>521.46</ele>
        <time>2022-03-21T11:48:09Z</time>
      </trkpt>
      <trkpt lat="45.07397" lon="3.52834">
        <ele>521.33</ele>
        <time>2022-03-21T11:48:13Z</time>
      </trkpt>
      <trkpt lat="45.07414" lon="3.52826">
        <ele>521.74</ele>
        <time>2022-03-21T11:48:17Z</time>
      </trkpt>
      <trkpt lat="45.07419" lon="3.52822">
        <ele>522.28</ele>
        <time>2022-03-21T11:48:21Z</time>
      </trkpt>
      <trkpt lat="45.07427" lon="3.52808">
        <ele>524.52</ele>
        <time>2022-03-21T11:48:25Z</time>
      </trkpt>
      <trkpt lat="45.07435" lon="3.52788">
        <ele>528.57</ele>
        <time>2022-03-21T11:48:30Z</time>
      </trkpt>
      <trkpt lat="45.07442" lon="3.52776">
        <ele>530.55</ele>
        <time>2022-03-21T11:48:34Z</time>
      </trkpt>
      <trkpt lat="45.07457" lon="3.52763">
        <ele>531.39</ele>
        <time>2022-03-21T11:48:38Z</time>
      </trkpt>
      <trkpt lat="45.07478" lon="3.52748">
        <ele>531.99</ele>
        <time>2022-03-21T11:48:42Z</time>
      </trkpt>
      <trkpt lat="45.07502" lon="3.52734">
        <ele>533.91</ele>
        <time>2022-03-21T11:48:46Z</time>
      </trkpt>
      <trkpt lat="45.07528" lon="3.52723">
        <ele>536.87</ele>
        <time>2022-03-21T11:48:50Z</time>
      </trkpt>
      <trkpt lat="45.07571" lon="3.52708">
        <ele>537.53</ele>
        <time>2022-03-21T11:48:54Z</time>
      </trkpt>
      <trkpt lat="45.07591" lon="3.527">
        <ele>537.51</ele>
        <time>2022-03-21T11:48:58Z</time>
      </trkpt>
      <trkpt lat="45.07607" lon="3.5269">
        <ele>539.03</ele>
        <time>2022-03-21T11:49:02Z</time>
      </trkpt>
      <trkpt lat="45.07667" lon="3.52635">
        <ele>550.1</ele>
        <time>2022-03-21T11:49:06Z</time>
      </trkpt>
      <trkpt lat="45.07676" lon="3.52629">
        <ele>551.12</ele>
        <time>2022-03-21T11:49:10Z</time>
      </trkpt>
      <trkpt lat="45.07685" lon="3.52627">
        <ele>551.04</ele>
        <time>2022-03-21T11:49:14Z</time>
      </trkpt>
      <trkpt lat="45.07732" lon="3.52627">
        <ele>552.01</ele>
        <time>2022-03-21T11:49:18Z</time>
      </trkpt>
      <trkpt lat="45.07773" lon="3.52612">
        <ele>557.92</ele>
        <time>2022-03-21T11:49:22Z</time>
      </trkpt>
      <trkpt lat="45.07798" lon="3.52597">
        <ele>558.39</ele>
        <time>2022-03-21T11:49:26Z</time>
      </trkpt>
      <trkpt lat="45.07811" lon="3.52586">
        <ele>559.06</ele>
        <time>2022-03-21T11:49:30Z</time>
      </trkpt>
      <trkpt lat="45.07849" lon="3.52544">
        <ele>558.22</ele>
        <time>2022-03-21T11:49:34Z</time>
      </trkpt>
      <trkpt lat="45.07863" lon="3.52533">
        <ele>558.91</ele>
        <time>2022-03-21T11:49:38Z</time>
      </trkpt>
      <trkpt lat="45.07881" lon="3.52524">
        <ele>559.45</ele>
        <time>2022-03-21T11:49:42Z</time>
      </trkpt>
      <trkpt lat="45.07909" lon="3.52516">
        <ele>560.66</ele>
        <time>2022-03-21T11:49:46Z</time>
      </trkpt>
      <trkpt lat="45.07968" lon="3.5249">
        <ele>565.78</ele>
        <time>2022-03-21T11:49:50Z</time>
      </trkpt>
      <trkpt lat="45.08011" lon="3.52478">
        <ele>569.2</ele>
        <time>2022-03-21T11:49:54Z</time>
      </trkpt>
      <trkpt lat="45.08044" lon="3.52465">
        <ele>571.2</ele>
        <time>2022-03-21T11:49:58Z</time>
      </trkpt>
      <trkpt lat="45.08055" lon="3.52457">
        <ele>572.08</ele>
        <time>2022-03-21T11:50:02Z</time>
      </trkpt>
      <trkpt lat="45.08063" lon="3.52448">
        <ele>573</ele>
        <time>2022-03-21T11:50:06Z</time>
      </trkpt>
      <trkpt lat="45.08071" lon="3.52435">
        <ele>573.7</ele>
        <time>2022-03-21T11:50:10Z</time>
      </trkpt>
      <trkpt lat="45.08077" lon="3.52419">
        <ele>573.98</ele>
        <time>2022-03-21T11:50:14Z</time>
      </trkpt>
      <trkpt lat="45.0808" lon="3.52403">
        <ele>574.06</ele>
        <time>2022-03-21T11:50:18Z</time>
      </trkpt>
      <trkpt lat="45.08084" lon="3.52334">
        <ele>574.09</ele>
        <time>2022-03-21T11:50:22Z</time>
      </trkpt>
      <trkpt lat="45.08092" lon="3.52123">
        <ele>564.12</ele>
        <time>2022-03-21T11:50:26Z</time>
      </trkpt>
      <trkpt lat="45.08095" lon="3.52104">
        <ele>563.33</ele>
        <time>2022-03-21T11:50:30Z</time>
      </trkpt>
      <trkpt lat="45.081" lon="3.52086">
        <ele>562.47</ele>
        <time>2022-03-21T11:50:34Z</time>
      </trkpt>
      <trkpt lat="45.08127" lon="3.52033">
        <ele>559.56</ele>
        <time>2022-03-21T11:50:38Z</time>
      </trkpt>
      <trkpt lat="45.08505" lon="3.51361">
        <ele>536</ele>
        <time>2022-03-21T11:50:42Z</time>
      </trkpt>
      <trkpt lat="45.08585" lon="3.51216">
        <ele>534.85</ele>
        <time>2022-03-21T11:50:46Z</time>
      </trkpt>
      <trkpt lat="45.08694" lon="3.51025">
        <ele>531.98</ele>
        <time>2022-03-21T11:50:51Z</time>
      </trkpt>
      <trkpt lat="45.08784" lon="3.50863">
        <ele>526.83</ele>
        <time>2022-03-21T11:50:55Z</time>
      </trkpt>
      <trkpt lat="45.08862" lon="3.50727">
        <ele>522.46</ele>
        <time>2022-03-21T11:50:59Z</time>
      </trkpt>
      <trkpt lat="45.08894" lon="3.50686">
        <ele>520.59</ele>
        <time>2022-03-21T11:51:03Z</time>
      </trkpt>
      <trkpt lat="45.0892" lon="3.50657">
        <ele>519.92</ele>
        <time>2022-03-21T11:51:07Z</time>
      </trkpt>
      <trkpt lat="45.08963" lon="3.50627">
        <ele>521.43</ele>
        <time>2022-03-21T11:51:11Z</time>
      </trkpt>
      <trkpt lat="45.09162" lon="3.50502">
        <ele>505.18</ele>
        <time>2022-03-21T11:51:15Z</time>
      </trkpt>
      <trkpt lat="45.09276" lon="3.50427">
        <ele>504.38</ele>
        <time>2022-03-21T11:51:19Z</time>
      </trkpt>
      <trkpt lat="45.09302" lon="3.50399">
        <ele>502.33</ele>
        <time>2022-03-21T11:51:23Z</time>
      </trkpt>
      <trkpt lat="45.09311" lon="3.50379">
        <ele>501.2</ele>
        <time>2022-03-21T11:51:27Z</time>
      </trkpt>
      <trkpt lat="45.09318" lon="3.50355">
        <ele>500.46</ele>
        <time>2022-03-21T11:51:31Z</time>
      </trkpt>
      <trkpt lat="45.09325" lon="3.50314">
        <ele>501.8</ele>
        <time>2022-03-21T11:51:35Z</time>
      </trkpt>
      <trkpt lat="45.09336" lon="3.50225">
        <ele>504.51</ele>
        <time>2022-03-21T11:51:39Z</time>
      </trkpt>
      <trkpt lat="45.09341" lon="3.50152">
        <ele>505.42</ele>
        <time>2022-03-21T11:51:43Z</time>
      </trkpt>
      <trkpt lat="45.09347" lon="3.50133">
        <ele>504.66</ele>
        <time>2022-03-21T11:51:47Z</time>
      </trkpt>
      <trkpt lat="45.09355" lon="3.50116">
        <ele>503.82</ele>
        <time>2022-03-21T11:51:51Z</time>
      </trkpt>
      <trkpt lat="45.0939" lon="3.50057">
        <ele>501.83</ele>
        <time>2022-03-21T11:51:55Z</time>
      </trkpt>
      <trkpt lat="45.0964" lon="3.49659">
        <ele>500.21</ele>
        <time>2022-03-21T11:51:59Z</time>
      </trkpt>
      <trkpt lat="45.09693" lon="3.49572">
        <ele>504.9</ele>
        <time>2022-03-21T11:52:03Z</time>
      </trkpt>
      <trkpt lat="45.09705" lon="3.49556">
        <ele>505.38</ele>
        <time>2022-03-21T11:52:07Z</time>
      </trkpt>
      <trkpt lat="45.09743" lon="3.49519">
        <ele>505.76</ele>
        <time>2022-03-21T11:52:11Z</time>
      </trkpt>
      <trkpt lat="45.09749" lon="3.49526">
        <ele>505.92</ele>
        <time>2022-03-21T11:52:12Z</time>
      </trkpt>
      <trkpt lat="45.09753" lon="3.49525">
        <ele>505.91</ele>
        <time>2022-03-21T11:52:12Z</time>
      </trkpt>
      <trkpt lat="45.09753" lon="3.49525">
        <ele>505.91</ele>
        <time>2022-03-21T11:52:12Z</time>
      </trkpt>
      <trkpt lat="45.09754" lon="3.49525">
        <ele>505.9</ele>
        <time>2022-03-21T11:52:16Z</time>
      </trkpt>
      <trkpt lat="45.0976" lon="3.49564">
        <ele>504.54</ele>
        <time>2022-03-21T11:52:20Z</time>
      </trkpt>
      <trkpt lat="45.09776" lon="3.4963">
        <ele>501.42</ele>
        <time>2022-03-21T11:52:23Z</time>
      </trkpt>
      <trkpt lat="45.09785" lon="3.4966">
        <ele>499.96</ele>
        <time>2022-03-21T11:52:27Z</time>
      </trkpt>
      <trkpt lat="45.09794" lon="3.49669">
        <ele>499.23</ele>
        <time>2022-03-21T11:52:30Z</time>
      </trkpt>
      <trkpt lat="45.09843" lon="3.49693">
        <ele>497.4</ele>
        <time>2022-03-21T11:52:34Z</time>
      </trkpt>
      <trkpt lat="45.09991" lon="3.49756">
        <ele>493.52</ele>
        <time>2022-03-21T11:52:38Z</time>
      </trkpt>
      <trkpt lat="45.10013" lon="3.49765">
        <ele>493.29</ele>
        <time>2022-03-21T11:52:41Z</time>
      </trkpt>
      <trkpt lat="45.10023" lon="3.49766">
        <ele>494.29</ele>
        <time>2022-03-21T11:52:45Z</time>
      </trkpt>
      <trkpt lat="45.10034" lon="3.49765">
        <ele>495.14</ele>
        <time>2022-03-21T11:52:48Z</time>
      </trkpt>
      <trkpt lat="45.10057" lon="3.49755">
        <ele>496.73</ele>
        <time>2022-03-21T11:52:52Z</time>
      </trkpt>
      <trkpt lat="45.10064" lon="3.49756">
        <ele>496.95</ele>
        <time>2022-03-21T11:52:55Z</time>
      </trkpt>
      <trkpt lat="45.10069" lon="3.49763">
        <ele>496.74</ele>
        <time>2022-03-21T11:52:58Z</time>
      </trkpt>
      <trkpt lat="45.10074" lon="3.49775">
        <ele>496.43</ele>
        <time>2022-03-21T11:53:01Z</time>
      </trkpt>
      <trkpt lat="45.10077" lon="3.49814">
        <ele>496.23</ele>
        <time>2022-03-21T11:53:04Z</time>
      </trkpt>
      <trkpt lat="45.10075" lon="3.5001">
        <ele>495.57</ele>
        <time>2022-03-21T11:53:07Z</time>
      </trkpt>
      <trkpt lat="45.10077" lon="3.50034">
        <ele>495.95</ele>
        <time>2022-03-21T11:53:10Z</time>
      </trkpt>
      <trkpt lat="45.1013" lon="3.50227">
        <ele>497.18</ele>
        <time>2022-03-21T11:53:14Z</time>
      </trkpt>
      <trkpt lat="45.10139" lon="3.50268">
        <ele>497.36</ele>
        <time>2022-03-21T11:53:17Z</time>
      </trkpt>
      <trkpt lat="45.10142" lon="3.50299">
        <ele>496.89</ele>
        <time>2022-03-21T11:53:20Z</time>
      </trkpt>
      <trkpt lat="45.10141" lon="3.50329">
        <ele>496.99</ele>
        <time>2022-03-21T11:53:23Z</time>
      </trkpt>
      <trkpt lat="45.10137" lon="3.50352">
        <ele>495.67</ele>
        <time>2022-03-21T11:53:26Z</time>
      </trkpt>
      <trkpt lat="45.10104" lon="3.50452">
        <ele>495.73</ele>
        <time>2022-03-21T11:53:29Z</time>
      </trkpt>
      <trkpt lat="45.10091" lon="3.50519">
        <ele>496.77</ele>
        <time>2022-03-21T11:53:32Z</time>
      </trkpt>
      <trkpt lat="45.10074" lon="3.50582">
        <ele>498.61</ele>
        <time>2022-03-21T11:53:35Z</time>
      </trkpt>
      <trkpt lat="45.10064" lon="3.50606">
        <ele>498.3</ele>
        <time>2022-03-21T11:53:38Z</time>
      </trkpt>
      <trkpt lat="45.10019" lon="3.50671">
        <ele>496.36</ele>
        <time>2022-03-21T11:53:41Z</time>
      </trkpt>
      <trkpt lat="45.09999" lon="3.50705">
        <ele>495.34</ele>
        <time>2022-03-21T11:53:44Z</time>
      </trkpt>
      <trkpt lat="45.09987" lon="3.50732">
        <ele>495.51</ele>
        <time>2022-03-21T11:53:47Z</time>
      </trkpt>
      <trkpt lat="45.09963" lon="3.50818">
        <ele>498.74</ele>
        <time>2022-03-21T11:53:50Z</time>
      </trkpt>
      <trkpt lat="45.09961" lon="3.50845">
        <ele>501.24</ele>
        <time>2022-03-21T11:53:53Z</time>
      </trkpt>
      <trkpt lat="45.09963" lon="3.50855">
        <ele>502.38</ele>
        <time>2022-03-21T11:53:57Z</time>
      </trkpt>
      <trkpt lat="45.09969" lon="3.50871">
        <ele>504.05</ele>
        <time>2022-03-21T11:54:00Z</time>
      </trkpt>
      <trkpt lat="45.09981" lon="3.50884">
        <ele>504.81</ele>
        <time>2022-03-21T11:54:03Z</time>
      </trkpt>
      <trkpt lat="45.09996" lon="3.50893">
        <ele>505.25</ele>
        <time>2022-03-21T11:54:06Z</time>
      </trkpt>
      <trkpt lat="45.10019" lon="3.50901">
        <ele>508.04</ele>
        <time>2022-03-21T11:54:09Z</time>
      </trkpt>
      <trkpt lat="45.10057" lon="3.50904">
        <ele>511.73</ele>
        <time>2022-03-21T11:54:12Z</time>
      </trkpt>
      <trkpt lat="45.10085" lon="3.509">
        <ele>511.44</ele>
        <time>2022-03-21T11:54:15Z</time>
      </trkpt>
      <trkpt lat="45.10136" lon="3.50888">
        <ele>512.88</ele>
        <time>2022-03-21T11:54:18Z</time>
      </trkpt>
      <trkpt lat="45.10181" lon="3.5086">
        <ele>513.47</ele>
        <time>2022-03-21T11:54:21Z</time>
      </trkpt>
      <trkpt lat="45.10194" lon="3.50857">
        <ele>515.5</ele>
        <time>2022-03-21T11:54:24Z</time>
      </trkpt>
      <trkpt lat="45.10219" lon="3.50866">
        <ele>518.48</ele>
        <time>2022-03-21T11:54:27Z</time>
      </trkpt>
      <trkpt lat="45.10229" lon="3.5088">
        <ele>521.46</ele>
        <time>2022-03-21T11:54:30Z</time>
      </trkpt>
      <trkpt lat="45.10235" lon="3.50893">
        <ele>523.01</ele>
        <time>2022-03-21T11:54:33Z</time>
      </trkpt>
      <trkpt lat="45.10288" lon="3.51139">
        <ele>524.64</ele>
        <time>2022-03-21T11:54:36Z</time>
      </trkpt>
      <trkpt lat="45.10348" lon="3.5151">
        <ele>524.73</ele>
        <time>2022-03-21T11:54:40Z</time>
      </trkpt>
      <trkpt lat="45.10355" lon="3.51541">
        <ele>526.96</ele>
        <time>2022-03-21T11:54:43Z</time>
      </trkpt>
      <trkpt lat="45.10364" lon="3.51568">
        <ele>527.84</ele>
        <time>2022-03-21T11:54:46Z</time>
      </trkpt>
      <trkpt lat="45.10374" lon="3.51593">
        <ele>527.35</ele>
        <time>2022-03-21T11:54:49Z</time>
      </trkpt>
      <trkpt lat="45.10426" lon="3.51692">
        <ele>527.07</ele>
        <time>2022-03-21T11:54:52Z</time>
      </trkpt>
      <trkpt lat="45.10466" lon="3.5178">
        <ele>530.31</ele>
        <time>2022-03-21T11:54:55Z</time>
      </trkpt>
      <trkpt lat="45.10496" lon="3.51861">
        <ele>530.27</ele>
        <time>2022-03-21T11:54:58Z</time>
      </trkpt>
      <trkpt lat="45.10519" lon="3.5193">
        <ele>530.49</ele>
        <time>2022-03-21T11:55:01Z</time>
      </trkpt>
      <trkpt lat="45.1067" lon="3.52503">
        <ele>546.86</ele>
        <time>2022-03-21T11:55:04Z</time>
      </trkpt>
      <trkpt lat="45.10683" lon="3.52557">
        <ele>547.42</ele>
        <time>2022-03-21T11:55:07Z</time>
      </trkpt>
      <trkpt lat="45.10693" lon="3.52612">
        <ele>548</ele>
        <time>2022-03-21T11:55:10Z</time>
      </trkpt>
      <trkpt lat="45.10722" lon="3.52832">
        <ele>552.88</ele>
        <time>2022-03-21T11:55:13Z</time>
      </trkpt>
      <trkpt lat="45.10734" lon="3.52882">
        <ele>554</ele>
        <time>2022-03-21T11:55:16Z</time>
      </trkpt>
      <trkpt lat="45.10754" lon="3.52941">
        <ele>553.12</ele>
        <time>2022-03-21T11:55:20Z</time>
      </trkpt>
      <trkpt lat="45.10765" lon="3.52965">
        <ele>553.88</ele>
        <time>2022-03-21T11:55:23Z</time>
      </trkpt>
      <trkpt lat="45.10806" lon="3.5304">
        <ele>557.89</ele>
        <time>2022-03-21T11:55:26Z</time>
      </trkpt>
      <trkpt lat="45.10818" lon="3.53067">
        <ele>560.07</ele>
        <time>2022-03-21T11:55:29Z</time>
      </trkpt>
      <trkpt lat="45.10828" lon="3.53097">
        <ele>562.11</ele>
        <time>2022-03-21T11:55:32Z</time>
      </trkpt>
      <trkpt lat="45.10836" lon="3.53131">
        <ele>562.88</ele>
        <time>2022-03-21T11:55:35Z</time>
      </trkpt>
      <trkpt lat="45.1084" lon="3.53167">
        <ele>561.47</ele>
        <time>2022-03-21T11:55:38Z</time>
      </trkpt>
      <trkpt lat="45.10841" lon="3.53202">
        <ele>559.18</ele>
        <time>2022-03-21T11:55:41Z</time>
      </trkpt>
      <trkpt lat="45.10835" lon="3.5331">
        <ele>559.05</ele>
        <time>2022-03-21T11:55:44Z</time>
      </trkpt>
      <trkpt lat="45.10839" lon="3.53388">
        <ele>560.8</ele>
        <time>2022-03-21T11:55:47Z</time>
      </trkpt>
      <trkpt lat="45.10848" lon="3.53469">
        <ele>562.18</ele>
        <time>2022-03-21T11:55:50Z</time>
      </trkpt>
      <trkpt lat="45.10879" lon="3.53638">
        <ele>567.34</ele>
        <time>2022-03-21T11:55:54Z</time>
      </trkpt>
      <trkpt lat="45.10882" lon="3.53673">
        <ele>568.81</ele>
        <time>2022-03-21T11:55:58Z</time>
      </trkpt>
      <trkpt lat="45.10883" lon="3.53709">
        <ele>569.79</ele>
        <time>2022-03-21T11:56:02Z</time>
      </trkpt>
      <trkpt lat="45.10879" lon="3.54096">
        <ele>584.04</ele>
        <time>2022-03-21T11:56:05Z</time>
      </trkpt>
      <trkpt lat="45.10877" lon="3.54148">
        <ele>587.33</ele>
        <time>2022-03-21T11:56:09Z</time>
      </trkpt>
      <trkpt lat="45.10871" lon="3.54189">
        <ele>588.52</ele>
        <time>2022-03-21T11:56:13Z</time>
      </trkpt>
      <trkpt lat="45.10858" lon="3.5426">
        <ele>592.79</ele>
        <time>2022-03-21T11:56:17Z</time>
      </trkpt>
      <trkpt lat="45.10851" lon="3.54309">
        <ele>595.38</ele>
        <time>2022-03-21T11:56:21Z</time>
      </trkpt>
      <trkpt lat="45.10847" lon="3.5436">
        <ele>595.5</ele>
        <time>2022-03-21T11:56:24Z</time>
      </trkpt>
      <trkpt lat="45.10849" lon="3.544">
        <ele>598</ele>
        <time>2022-03-21T11:56:28Z</time>
      </trkpt>
      <trkpt lat="45.10857" lon="3.54447">
        <ele>599.22</ele>
        <time>2022-03-21T11:56:32Z</time>
      </trkpt>
      <trkpt lat="45.10868" lon="3.54479">
        <ele>600.54</ele>
        <time>2022-03-21T11:56:36Z</time>
      </trkpt>
      <trkpt lat="45.10881" lon="3.54508">
        <ele>601.17</ele>
        <time>2022-03-21T11:56:40Z</time>
      </trkpt>
      <trkpt lat="45.10881" lon="3.54508">
        <ele>601.17</ele>
        <time>2022-03-21T11:56:40Z</time>
      </trkpt>
      <trkpt lat="45.10903" lon="3.54542">
        <ele>604.51</ele>
        <time>2022-03-21T11:56:45Z</time>
      </trkpt>
      <trkpt lat="45.10933" lon="3.54572">
        <ele>609.87</ele>
        <time>2022-03-21T11:56:50Z</time>
      </trkpt>
      <trkpt lat="45.10947" lon="3.54582">
        <ele>610.88</ele>
        <time>2022-03-21T11:56:55Z</time>
      </trkpt>
      <trkpt lat="45.10971" lon="3.54595">
        <ele>609.67</ele>
        <time>2022-03-21T11:57:01Z</time>
      </trkpt>
      <trkpt lat="45.11003" lon="3.54605">
        <ele>607.46</ele>
        <time>2022-03-21T11:57:06Z</time>
      </trkpt>
      <trkpt lat="45.11156" lon="3.54626">
        <ele>610.77</ele>
        <time>2022-03-21T11:57:11Z</time>
      </trkpt>
      <trkpt lat="45.11362" lon="3.54699">
        <ele>618.15</ele>
        <time>2022-03-21T11:57:17Z</time>
      </trkpt>
      <trkpt lat="45.11385" lon="3.5471">
        <ele>618.57</ele>
        <time>2022-03-21T11:57:22Z</time>
      </trkpt>
      <trkpt lat="45.11431" lon="3.54744">
        <ele>617.8</ele>
        <time>2022-03-21T11:57:27Z</time>
      </trkpt>
      <trkpt lat="45.1148" lon="3.54799">
        <ele>619.15</ele>
        <time>2022-03-21T11:57:33Z</time>
      </trkpt>
      <trkpt lat="45.11649" lon="3.55004">
        <ele>622.49</ele>
        <time>2022-03-21T11:57:38Z</time>
      </trkpt>
      <trkpt lat="45.11679" lon="3.55036">
        <ele>619.97</ele>
        <time>2022-03-21T11:57:43Z</time>
      </trkpt>
      <trkpt lat="45.11694" lon="3.55051">
        <ele>619.04</ele>
        <time>2022-03-21T11:57:49Z</time>
      </trkpt>
      <trkpt lat="45.11712" lon="3.55064">
        <ele>619.12</ele>
        <time>2022-03-21T11:57:54Z</time>
      </trkpt>
      <trkpt lat="45.11811" lon="3.55125">
        <ele>619.3</ele>
        <time>2022-03-21T11:57:59Z</time>
      </trkpt>
      <trkpt lat="45.11837" lon="3.55138">
        <ele>618.85</ele>
        <time>2022-03-21T11:58:05Z</time>
      </trkpt>
      <trkpt lat="45.11868" lon="3.5515">
        <ele>618.02</ele>
        <time>2022-03-21T11:58:10Z</time>
      </trkpt>
      <trkpt lat="45.11907" lon="3.55154">
        <ele>616.35</ele>
        <time>2022-03-21T11:58:15Z</time>
      </trkpt>
      <trkpt lat="45.12234" lon="3.55147">
        <ele>635.06</ele>
        <time>2022-03-21T11:58:20Z</time>
      </trkpt>
      <trkpt lat="45.12368" lon="3.55156">
        <ele>640.71</ele>
        <time>2022-03-21T11:58:26Z</time>
      </trkpt>
      <trkpt lat="45.12368" lon="3.55156">
        <ele>640.71</ele>
        <time>2022-03-21T11:58:26Z</time>
      </trkpt>
      <trkpt lat="45.12403" lon="3.55158">
        <ele>646.37</ele>
        <time>2022-03-21T11:58:37Z</time>
      </trkpt>
      <trkpt lat="45.12433" lon="3.55163">
        <ele>647.82</ele>
        <time>2022-03-21T11:58:48Z</time>
      </trkpt>
      <trkpt lat="45.12462" lon="3.55172">
        <ele>649.17</ele>
        <time>2022-03-21T11:59:00Z</time>
      </trkpt>
      <trkpt lat="45.12488" lon="3.55185">
        <ele>650.13</ele>
        <time>2022-03-21T11:59:11Z</time>
      </trkpt>
      <trkpt lat="45.12509" lon="3.55198">
        <ele>650.36</ele>
        <time>2022-03-21T11:59:22Z</time>
      </trkpt>
      <trkpt lat="45.12533" lon="3.55217">
        <ele>650.18</ele>
        <time>2022-03-21T11:59:33Z</time>
      </trkpt>
      <trkpt lat="45.12558" lon="3.55243">
        <ele>650.02</ele>
        <time>2022-03-21T11:59:45Z</time>
      </trkpt>
      <trkpt lat="45.13325" lon="3.56236">
        <ele>665.45</ele>
        <time>2022-03-21T11:59:56Z</time>
      </trkpt>
      <trkpt lat="45.13325" lon="3.56236">
        <ele>665.45</ele>
        <time>2022-03-21T11:59:56Z</time>
      </trkpt>
      <trkpt lat="45.1343" lon="3.56373">
        <ele>668.89</ele>
        <time>2022-03-21T12:00:00Z</time>
      </trkpt>
      <trkpt lat="45.13463" lon="3.56402">
        <ele>672.51</ele>
        <time>2022-03-21T12:00:04Z</time>
      </trkpt>
      <trkpt lat="45.1349" lon="3.56415">
        <ele>675.95</ele>
        <time>2022-03-21T12:00:08Z</time>
      </trkpt>
      <trkpt lat="45.13517" lon="3.56423">
        <ele>678.47</ele>
        <time>2022-03-21T12:00:12Z</time>
      </trkpt>
      <trkpt lat="45.13565" lon="3.56431">
        <ele>680.84</ele>
        <time>2022-03-21T12:00:16Z</time>
      </trkpt>
      <trkpt lat="45.13581" lon="3.56436">
        <ele>680.73</ele>
        <time>2022-03-21T12:00:20Z</time>
      </trkpt>
      <trkpt lat="45.13666" lon="3.5647">
        <ele>681.84</ele>
        <time>2022-03-21T12:00:24Z</time>
      </trkpt>
      <trkpt lat="45.13682" lon="3.56472">
        <ele>681.99</ele>
        <time>2022-03-21T12:00:28Z</time>
      </trkpt>
      <trkpt lat="45.13704" lon="3.56469">
        <ele>682.65</ele>
        <time>2022-03-21T12:00:32Z</time>
      </trkpt>
      <trkpt lat="45.1378" lon="3.56443">
        <ele>684</ele>
        <time>2022-03-21T12:00:36Z</time>
      </trkpt>
      <trkpt lat="45.13811" lon="3.56436">
        <ele>684.24</ele>
        <time>2022-03-21T12:00:40Z</time>
      </trkpt>
      <trkpt lat="45.13845" lon="3.56434">
        <ele>685.67</ele>
        <time>2022-03-21T12:00:44Z</time>
      </trkpt>
      <trkpt lat="45.13971" lon="3.56438">
        <ele>688.02</ele>
        <time>2022-03-21T12:00:48Z</time>
      </trkpt>
      <trkpt lat="45.1401" lon="3.56437">
        <ele>690.95</ele>
        <time>2022-03-21T12:00:52Z</time>
      </trkpt>
      <trkpt lat="45.1404" lon="3.56429">
        <ele>693.21</ele>
        <time>2022-03-21T12:00:56Z</time>
      </trkpt>
      <trkpt lat="45.14087" lon="3.56409">
        <ele>696.33</ele>
        <time>2022-03-21T12:01:00Z</time>
      </trkpt>
      <trkpt lat="45.14206" lon="3.56342">
        <ele>697.28</ele>
        <time>2022-03-21T12:01:04Z</time>
      </trkpt>
      <trkpt lat="45.14213" lon="3.56342">
        <ele>697.46</ele>
        <time>2022-03-21T12:01:08Z</time>
      </trkpt>
      <trkpt lat="45.1423" lon="3.56337">
        <ele>697.65</ele>
        <time>2022-03-21T12:01:13Z</time>
      </trkpt>
      <trkpt lat="45.14245" lon="3.56336">
        <ele>697.16</ele>
        <time>2022-03-21T12:01:17Z</time>
      </trkpt>
      <trkpt lat="45.14269" lon="3.56336">
        <ele>696.34</ele>
        <time>2022-03-21T12:01:18Z</time>
      </trkpt>
      <trkpt lat="45.14247" lon="3.56574">
        <ele>701.49</ele>
        <time>2022-03-21T12:01:29Z</time>
      </trkpt>
      <trkpt lat="45.14236" lon="3.56728">
        <ele>707.11</ele>
        <time>2022-03-21T12:01:40Z</time>
      </trkpt>
      <trkpt lat="45.14208" lon="3.57033">
        <ele>718.91</ele>
        <time>2022-03-21T12:01:50Z</time>
      </trkpt>
      <trkpt lat="45.14179" lon="3.5729">
        <ele>726.22</ele>
        <time>2022-03-21T12:02:01Z</time>
      </trkpt>
      <trkpt lat="45.1415" lon="3.57485">
        <ele>736.54</ele>
        <time>2022-03-21T12:02:12Z</time>
      </trkpt>
      <trkpt lat="45.1415" lon="3.57485">
        <ele>736.54</ele>
        <time>2022-03-21T12:02:12Z</time>
      </trkpt>
      <trkpt lat="45.14059" lon="3.58056">
        <ele>749.81</ele>
        <time>2022-03-21T12:02:22Z</time>
      </trkpt>
      <trkpt lat="45.14051" lon="3.58087">
        <ele>751.11</ele>
        <time>2022-03-21T12:02:32Z</time>
      </trkpt>
      <trkpt lat="45.14015" lon="3.5829">
        <ele>757.45</ele>
        <time>2022-03-21T12:02:41Z</time>
      </trkpt>
      <trkpt lat="45.13987" lon="3.58473">
        <ele>767.21</ele>
        <time>2022-03-21T12:02:51Z</time>
      </trkpt>
      <trkpt lat="45.13979" lon="3.58536">
        <ele>772.76</ele>
        <time>2022-03-21T12:03:01Z</time>
      </trkpt>
      <trkpt lat="45.13947" lon="3.58742">
        <ele>782.72</ele>
        <time>2022-03-21T12:03:11Z</time>
      </trkpt>
      <trkpt lat="45.13733" lon="3.60044">
        <ele>839.75</ele>
        <time>2022-03-21T12:03:21Z</time>
      </trkpt>
      <trkpt lat="45.13724" lon="3.60095">
        <ele>841.42</ele>
        <time>2022-03-21T12:03:30Z</time>
      </trkpt>
      <trkpt lat="45.13711" lon="3.60154">
        <ele>843.88</ele>
        <time>2022-03-21T12:03:40Z</time>
      </trkpt>
      <trkpt lat="45.13697" lon="3.60237">
        <ele>843.51</ele>
        <time>2022-03-21T12:03:50Z</time>
      </trkpt>
      <trkpt lat="45.13688" lon="3.60294">
        <ele>847.08</ele>
        <time>2022-03-21T12:04:00Z</time>
      </trkpt>
      <trkpt lat="45.13682" lon="3.60365">
        <ele>849.06</ele>
        <time>2022-03-21T12:04:10Z</time>
      </trkpt>
      <trkpt lat="45.13679" lon="3.60426">
        <ele>853.02</ele>
        <time>2022-03-21T12:04:19Z</time>
      </trkpt>
      <trkpt lat="45.13683" lon="3.60496">
        <ele>858.1</ele>
        <time>2022-03-21T12:04:29Z</time>
      </trkpt>
      <trkpt lat="45.13696" lon="3.60567">
        <ele>860.29</ele>
        <time>2022-03-21T12:04:39Z</time>
      </trkpt>
      <trkpt lat="45.13696" lon="3.60567">
        <ele>860.29</ele>
        <time>2022-03-21T12:04:39Z</time>
      </trkpt>
      <trkpt lat="45.13702" lon="3.60602">
        <ele>862.21</ele>
        <time>2022-03-21T12:04:43Z</time>
      </trkpt>
      <trkpt lat="45.13751" lon="3.60807">
        <ele>878.08</ele>
        <time>2022-03-21T12:04:47Z</time>
      </trkpt>
      <trkpt lat="45.13764" lon="3.60891">
        <ele>881.08</ele>
        <time>2022-03-21T12:04:51Z</time>
      </trkpt>
      <trkpt lat="45.13768" lon="3.60944">
        <ele>883.52</ele>
        <time>2022-03-21T12:04:55Z</time>
      </trkpt>
      <trkpt lat="45.13763" lon="3.61053">
        <ele>889.16</ele>
        <time>2022-03-21T12:04:59Z</time>
      </trkpt>
      <trkpt lat="45.13724" lon="3.6135">
        <ele>910.28</ele>
        <time>2022-03-21T12:05:02Z</time>
      </trkpt>
      <trkpt lat="45.13723" lon="3.61384">
        <ele>912.83</ele>
        <time>2022-03-21T12:05:06Z</time>
      </trkpt>
      <trkpt lat="45.13677" lon="3.61754">
        <ele>926.32</ele>
        <time>2022-03-21T12:05:10Z</time>
      </trkpt>
      <trkpt lat="45.1367" lon="3.61842">
        <ele>935.02</ele>
        <time>2022-03-21T12:05:14Z</time>
      </trkpt>
      <trkpt lat="45.13671" lon="3.61907">
        <ele>938.41</ele>
        <time>2022-03-21T12:05:18Z</time>
      </trkpt>
      <trkpt lat="45.13677" lon="3.61982">
        <ele>942.98</ele>
        <time>2022-03-21T12:05:22Z</time>
      </trkpt>
      <trkpt lat="45.13687" lon="3.62044">
        <ele>945.25</ele>
        <time>2022-03-21T12:05:26Z</time>
      </trkpt>
      <trkpt lat="45.13702" lon="3.62107">
        <ele>942.74</ele>
        <time>2022-03-21T12:05:30Z</time>
      </trkpt>
      <trkpt lat="45.13721" lon="3.62171">
        <ele>945.52</ele>
        <time>2022-03-21T12:05:34Z</time>
      </trkpt>
      <trkpt lat="45.1374" lon="3.62216">
        <ele>948.21</ele>
        <time>2022-03-21T12:05:38Z</time>
      </trkpt>
      <trkpt lat="45.1379" lon="3.62331">
        <ele>956.95</ele>
        <time>2022-03-21T12:05:42Z</time>
      </trkpt>
      <trkpt lat="45.13844" lon="3.62458">
        <ele>956.68</ele>
        <time>2022-03-21T12:05:46Z</time>
      </trkpt>
      <trkpt lat="45.13869" lon="3.62526">
        <ele>958.96</ele>
        <time>2022-03-21T12:05:50Z</time>
      </trkpt>
      <trkpt lat="45.13882" lon="3.6257">
        <ele>959.28</ele>
        <time>2022-03-21T12:05:54Z</time>
      </trkpt>
      <trkpt lat="45.13893" lon="3.62622">
        <ele>961.36</ele>
        <time>2022-03-21T12:05:58Z</time>
      </trkpt>
      <trkpt lat="45.13901" lon="3.62672">
        <ele>966.11</ele>
        <time>2022-03-21T12:06:01Z</time>
      </trkpt>
      <trkpt lat="45.13906" lon="3.62717">
        <ele>963.78</ele>
        <time>2022-03-21T12:06:05Z</time>
      </trkpt>
      <trkpt lat="45.13909" lon="3.62802">
        <ele>963.23</ele>
        <time>2022-03-21T12:06:09Z</time>
      </trkpt>
      <trkpt lat="45.13908" lon="3.62839">
        <ele>965.97</ele>
        <time>2022-03-21T12:06:13Z</time>
      </trkpt>
      <trkpt lat="45.13898" lon="3.62934">
        <ele>968.97</ele>
        <time>2022-03-21T12:06:17Z</time>
      </trkpt>
      <trkpt lat="45.13891" lon="3.62972">
        <ele>971.9</ele>
        <time>2022-03-21T12:06:21Z</time>
      </trkpt>
      <trkpt lat="45.13869" lon="3.63054">
        <ele>972.52</ele>
        <time>2022-03-21T12:06:25Z</time>
      </trkpt>
      <trkpt lat="45.13816" lon="3.63191">
        <ele>977.19</ele>
        <time>2022-03-21T12:06:29Z</time>
      </trkpt>
      <trkpt lat="45.13717" lon="3.63434">
        <ele>984.76</ele>
        <time>2022-03-21T12:06:33Z</time>
      </trkpt>
      <trkpt lat="45.13673" lon="3.63542">
        <ele>989.15</ele>
        <time>2022-03-21T12:06:37Z</time>
      </trkpt>
      <trkpt lat="45.13651" lon="3.63601">
        <ele>990.68</ele>
        <time>2022-03-21T12:06:41Z</time>
      </trkpt>
      <trkpt lat="45.13629" lon="3.63668">
        <ele>991.35</ele>
        <time>2022-03-21T12:06:45Z</time>
      </trkpt>
      <trkpt lat="45.13612" lon="3.63741">
        <ele>995.08</ele>
        <time>2022-03-21T12:06:49Z</time>
      </trkpt>
      <trkpt lat="45.13604" lon="3.63789">
        <ele>1001.78</ele>
        <time>2022-03-21T12:06:53Z</time>
      </trkpt>
      <trkpt lat="45.13599" lon="3.6385">
        <ele>1006.48</ele>
        <time>2022-03-21T12:06:56Z</time>
      </trkpt>
      <trkpt lat="45.13597" lon="3.63912">
        <ele>1007.52</ele>
        <time>2022-03-21T12:07:00Z</time>
      </trkpt>
      <trkpt lat="45.13599" lon="3.63958">
        <ele>1009.56</ele>
        <time>2022-03-21T12:07:04Z</time>
      </trkpt>
      <trkpt lat="45.13601" lon="3.63982">
        <ele>1011.52</ele>
        <time>2022-03-21T12:07:08Z</time>
      </trkpt>
      <trkpt lat="45.13612" lon="3.64055">
        <ele>1015</ele>
        <time>2022-03-21T12:07:12Z</time>
      </trkpt>
      <trkpt lat="45.13626" lon="3.64115">
        <ele>1015.27</ele>
        <time>2022-03-21T12:07:16Z</time>
      </trkpt>
      <trkpt lat="45.13644" lon="3.64173">
        <ele>1021.81</ele>
        <time>2022-03-21T12:07:20Z</time>
      </trkpt>
      <trkpt lat="45.13668" lon="3.6423">
        <ele>1025.4</ele>
        <time>2022-03-21T12:07:24Z</time>
      </trkpt>
      <trkpt lat="45.13692" lon="3.64276">
        <ele>1030.66</ele>
        <time>2022-03-21T12:07:28Z</time>
      </trkpt>
      <trkpt lat="45.1372" lon="3.6432">
        <ele>1032.61</ele>
        <time>2022-03-21T12:07:32Z</time>
      </trkpt>
      <trkpt lat="45.13744" lon="3.64351">
        <ele>1038.45</ele>
        <time>2022-03-21T12:07:36Z</time>
      </trkpt>
      <trkpt lat="45.13777" lon="3.64388">
        <ele>1042.97</ele>
        <time>2022-03-21T12:07:40Z</time>
      </trkpt>
      <trkpt lat="45.13815" lon="3.64423">
        <ele>1042.56</ele>
        <time>2022-03-21T12:07:44Z</time>
      </trkpt>
      <trkpt lat="45.13855" lon="3.6445">
        <ele>1045.89</ele>
        <time>2022-03-21T12:07:48Z</time>
      </trkpt>
      <trkpt lat="45.13889" lon="3.64469">
        <ele>1050.79</ele>
        <time>2022-03-21T12:07:51Z</time>
      </trkpt>
      <trkpt lat="45.13926" lon="3.64484">
        <ele>1055.1</ele>
        <time>2022-03-21T12:07:55Z</time>
      </trkpt>
      <trkpt lat="45.13968" lon="3.64495">
        <ele>1057.84</ele>
        <time>2022-03-21T12:07:59Z</time>
      </trkpt>
      <trkpt lat="45.14003" lon="3.64501">
        <ele>1057.96</ele>
        <time>2022-03-21T12:08:03Z</time>
      </trkpt>
      <trkpt lat="45.14021" lon="3.64502">
        <ele>1059.26</ele>
        <time>2022-03-21T12:08:07Z</time>
      </trkpt>
      <trkpt lat="45.14021" lon="3.64502">
        <ele>1059.26</ele>
        <time>2022-03-21T12:08:07Z</time>
      </trkpt>
      <trkpt lat="45.14071" lon="3.64505">
        <ele>1060.56</ele>
        <time>2022-03-21T12:08:11Z</time>
      </trkpt>
      <trkpt lat="45.14124" lon="3.64509">
        <ele>1066.65</ele>
        <time>2022-03-21T12:08:15Z</time>
      </trkpt>
      <trkpt lat="45.14389" lon="3.64502">
        <ele>1074.7</ele>
        <time>2022-03-21T12:08:19Z</time>
      </trkpt>
      <trkpt lat="45.14459" lon="3.64497">
        <ele>1077.95</ele>
        <time>2022-03-21T12:08:23Z</time>
      </trkpt>
      <trkpt lat="45.14526" lon="3.64507">
        <ele>1084.29</ele>
        <time>2022-03-21T12:08:27Z</time>
      </trkpt>
      <trkpt lat="45.14571" lon="3.64519">
        <ele>1081.51</ele>
        <time>2022-03-21T12:08:31Z</time>
      </trkpt>
      <trkpt lat="45.14609" lon="3.64536">
        <ele>1080.26</ele>
        <time>2022-03-21T12:08:35Z</time>
      </trkpt>
      <trkpt lat="45.14645" lon="3.64557">
        <ele>1080.51</ele>
        <time>2022-03-21T12:08:39Z</time>
      </trkpt>
      <trkpt lat="45.14676" lon="3.64579">
        <ele>1084.06</ele>
        <time>2022-03-21T12:08:43Z</time>
      </trkpt>
      <trkpt lat="45.1471" lon="3.64608">
        <ele>1088.39</ele>
        <time>2022-03-21T12:08:47Z</time>
      </trkpt>
      <trkpt lat="45.14744" lon="3.64645">
        <ele>1094.9</ele>
        <time>2022-03-21T12:08:51Z</time>
      </trkpt>
      <trkpt lat="45.1477" lon="3.64676">
        <ele>1098.62</ele>
        <time>2022-03-21T12:08:55Z</time>
      </trkpt>
      <trkpt lat="45.14795" lon="3.64714">
        <ele>1101.47</ele>
        <time>2022-03-21T12:08:59Z</time>
      </trkpt>
      <trkpt lat="45.14825" lon="3.64766">
        <ele>1102.37</ele>
        <time>2022-03-21T12:09:03Z</time>
      </trkpt>
      <trkpt lat="45.14858" lon="3.64832">
        <ele>1104.06</ele>
        <time>2022-03-21T12:09:07Z</time>
      </trkpt>
      <trkpt lat="45.15005" lon="3.65128">
        <ele>1117.04</ele>
        <time>2022-03-21T12:09:11Z</time>
      </trkpt>
      <trkpt lat="45.15028" lon="3.65184">
        <ele>1123.63</ele>
        <time>2022-03-21T12:09:15Z</time>
      </trkpt>
      <trkpt lat="45.15056" lon="3.65262">
        <ele>1118.57</ele>
        <time>2022-03-21T12:09:19Z</time>
      </trkpt>
      <trkpt lat="45.15074" lon="3.6532">
        <ele>1113.19</ele>
        <time>2022-03-21T12:09:23Z</time>
      </trkpt>
      <trkpt lat="45.15084" lon="3.65364">
        <ele>1109.03</ele>
        <time>2022-03-21T12:09:27Z</time>
      </trkpt>
      <trkpt lat="45.15093" lon="3.65422">
        <ele>1109.16</ele>
        <time>2022-03-21T12:09:31Z</time>
      </trkpt>
      <trkpt lat="45.151" lon="3.65483">
        <ele>1114.96</ele>
        <time>2022-03-21T12:09:35Z</time>
      </trkpt>
      <trkpt lat="45.15104" lon="3.65556">
        <ele>1121.86</ele>
        <time>2022-03-21T12:09:39Z</time>
      </trkpt>
      <trkpt lat="45.15104" lon="3.6563">
        <ele>1124.73</ele>
        <time>2022-03-21T12:09:43Z</time>
      </trkpt>
      <trkpt lat="45.15094" lon="3.65738">
        <ele>1115.53</ele>
        <time>2022-03-21T12:09:47Z</time>
      </trkpt>
      <trkpt lat="45.15086" lon="3.65794">
        <ele>1111.45</ele>
        <time>2022-03-21T12:09:51Z</time>
      </trkpt>
      <trkpt lat="45.15072" lon="3.65853">
        <ele>1108.6</ele>
        <time>2022-03-21T12:09:55Z</time>
      </trkpt>
      <trkpt lat="45.15055" lon="3.65916">
        <ele>1110.85</ele>
        <time>2022-03-21T12:09:59Z</time>
      </trkpt>
      <trkpt lat="45.15036" lon="3.6597">
        <ele>1112.1</ele>
        <time>2022-03-21T12:10:03Z</time>
      </trkpt>
      <trkpt lat="45.15019" lon="3.66013">
        <ele>1113.62</ele>
        <time>2022-03-21T12:10:07Z</time>
      </trkpt>
      <trkpt lat="45.14998" lon="3.66058">
        <ele>1113.74</ele>
        <time>2022-03-21T12:10:11Z</time>
      </trkpt>
      <trkpt lat="45.14998" lon="3.66058">
        <ele>1113.74</ele>
        <time>2022-03-21T12:10:11Z</time>
      </trkpt>
      <trkpt lat="45.14959" lon="3.66127">
        <ele>1111.03</ele>
        <time>2022-03-21T12:10:15Z</time>
      </trkpt>
      <trkpt lat="45.14923" lon="3.6618">
        <ele>1108</ele>
        <time>2022-03-21T12:10:18Z</time>
      </trkpt>
      <trkpt lat="45.1494" lon="3.66207">
        <ele>1107.93</ele>
        <time>2022-03-21T12:10:21Z</time>
      </trkpt>
      <trkpt lat="45.14951" lon="3.66215">
        <ele>1108.29</ele>
        <time>2022-03-21T12:10:24Z</time>
      </trkpt>
      <trkpt lat="45.14962" lon="3.66215">
        <ele>1108.77</ele>
        <time>2022-03-21T12:10:27Z</time>
      </trkpt>
      <trkpt lat="45.1497" lon="3.6621">
        <ele>1109.29</ele>
        <time>2022-03-21T12:10:30Z</time>
      </trkpt>
      <trkpt lat="45.14976" lon="3.66202">
        <ele>1110.18</ele>
        <time>2022-03-21T12:10:33Z</time>
      </trkpt>
      <trkpt lat="45.14988" lon="3.66169">
        <ele>1113.17</ele>
        <time>2022-03-21T12:10:36Z</time>
      </trkpt>
      <trkpt lat="45.1501" lon="3.66101">
        <ele>1114.79</ele>
        <time>2022-03-21T12:10:39Z</time>
      </trkpt>
      <trkpt lat="45.1502" lon="3.66084">
        <ele>1114.78</ele>
        <time>2022-03-21T12:10:42Z</time>
      </trkpt>
      <trkpt lat="45.15031" lon="3.66072">
        <ele>1115.47</ele>
        <time>2022-03-21T12:10:45Z</time>
      </trkpt>
      <trkpt lat="45.15053" lon="3.66053">
        <ele>1118.65</ele>
        <time>2022-03-21T12:10:48Z</time>
      </trkpt>
      <trkpt lat="45.15079" lon="3.66045">
        <ele>1122.01</ele>
        <time>2022-03-21T12:10:51Z</time>
      </trkpt>
      <trkpt lat="45.15153" lon="3.6604">
        <ele>1129.67</ele>
        <time>2022-03-21T12:10:54Z</time>
      </trkpt>
      <trkpt lat="45.15174" lon="3.66032">
        <ele>1131.04</ele>
        <time>2022-03-21T12:10:56Z</time>
      </trkpt>
      <trkpt lat="45.15244" lon="3.65985">
        <ele>1131.06</ele>
        <time>2022-03-21T12:10:59Z</time>
      </trkpt>
      <trkpt lat="45.15269" lon="3.6597">
        <ele>1131.89</ele>
        <time>2022-03-21T12:11:02Z</time>
      </trkpt>
      <trkpt lat="45.15282" lon="3.65965">
        <ele>1132.81</ele>
        <time>2022-03-21T12:11:05Z</time>
      </trkpt>
      <trkpt lat="45.15327" lon="3.65959">
        <ele>1139.47</ele>
        <time>2022-03-21T12:11:08Z</time>
      </trkpt>
      <trkpt lat="45.15472" lon="3.65952">
        <ele>1145.28</ele>
        <time>2022-03-21T12:11:11Z</time>
      </trkpt>
      <trkpt lat="45.15489" lon="3.65957">
        <ele>1145.44</ele>
        <time>2022-03-21T12:11:14Z</time>
      </trkpt>
      <trkpt lat="45.15506" lon="3.65968">
        <ele>1146.1</ele>
        <time>2022-03-21T12:11:17Z</time>
      </trkpt>
      <trkpt lat="45.15633" lon="3.66066">
        <ele>1141.86</ele>
        <time>2022-03-21T12:11:20Z</time>
      </trkpt>
      <trkpt lat="45.15696" lon="3.66101">
        <ele>1135.93</ele>
        <time>2022-03-21T12:11:23Z</time>
      </trkpt>
      <trkpt lat="45.15725" lon="3.66107">
        <ele>1136.59</ele>
        <time>2022-03-21T12:11:26Z</time>
      </trkpt>
      <trkpt lat="45.15886" lon="3.66109">
        <ele>1133.73</ele>
        <time>2022-03-21T12:11:29Z</time>
      </trkpt>
      <trkpt lat="45.15908" lon="3.66111">
        <ele>1132.66</ele>
        <time>2022-03-21T12:11:32Z</time>
      </trkpt>
      <trkpt lat="45.15928" lon="3.66117">
        <ele>1131.6</ele>
        <time>2022-03-21T12:11:35Z</time>
      </trkpt>
      <trkpt lat="45.15948" lon="3.66126">
        <ele>1130.67</ele>
        <time>2022-03-21T12:11:37Z</time>
      </trkpt>
      <trkpt lat="45.16079" lon="3.66192">
        <ele>1124.89</ele>
        <time>2022-03-21T12:11:40Z</time>
      </trkpt>
      <trkpt lat="45.16097" lon="3.66197">
        <ele>1124.67</ele>
        <time>2022-03-21T12:11:43Z</time>
      </trkpt>
      <trkpt lat="45.16097" lon="3.66197">
        <ele>1124.67</ele>
        <time>2022-03-21T12:11:43Z</time>
      </trkpt>
      <trkpt lat="45.16129" lon="3.66197">
        <ele>1122.1</ele>
        <time>2022-03-21T12:11:46Z</time>
      </trkpt>
      <trkpt lat="45.16155" lon="3.66188">
        <ele>1118.22</ele>
        <time>2022-03-21T12:11:49Z</time>
      </trkpt>
      <trkpt lat="45.16173" lon="3.66177">
        <ele>1114.86</ele>
        <time>2022-03-21T12:11:51Z</time>
      </trkpt>
      <trkpt lat="45.16191" lon="3.66159">
        <ele>1112.3</ele>
        <time>2022-03-21T12:11:54Z</time>
      </trkpt>
      <trkpt lat="45.16312" lon="3.66032">
        <ele>1111.38</ele>
        <time>2022-03-21T12:11:57Z</time>
      </trkpt>
      <trkpt lat="45.16329" lon="3.66019">
        <ele>1111.28</ele>
        <time>2022-03-21T12:11:59Z</time>
      </trkpt>
      <trkpt lat="45.16354" lon="3.66008">
        <ele>1110.92</ele>
        <time>2022-03-21T12:12:02Z</time>
      </trkpt>
      <trkpt lat="45.16376" lon="3.66006">
        <ele>1111.05</ele>
        <time>2022-03-21T12:12:04Z</time>
      </trkpt>
      <trkpt lat="45.16474" lon="3.66004">
        <ele>1110.82</ele>
        <time>2022-03-21T12:12:07Z</time>
      </trkpt>
      <trkpt lat="45.16555" lon="3.65993">
        <ele>1099.47</ele>
        <time>2022-03-21T12:12:10Z</time>
      </trkpt>
      <trkpt lat="45.1659" lon="3.66007">
        <ele>1098.72</ele>
        <time>2022-03-21T12:12:12Z</time>
      </trkpt>
      <trkpt lat="45.16611" lon="3.66024">
        <ele>1100.48</ele>
        <time>2022-03-21T12:12:15Z</time>
      </trkpt>
      <trkpt lat="45.16649" lon="3.66085">
        <ele>1098.17</ele>
        <time>2022-03-21T12:12:18Z</time>
      </trkpt>
      <trkpt lat="45.16674" lon="3.66102">
        <ele>1096.32</ele>
        <time>2022-03-21T12:12:20Z</time>
      </trkpt>
      <trkpt lat="45.16702" lon="3.66109">
        <ele>1097.9</ele>
        <time>2022-03-21T12:12:23Z</time>
      </trkpt>
      <trkpt lat="45.16737" lon="3.66105">
        <ele>1095.2</ele>
        <time>2022-03-21T12:12:26Z</time>
      </trkpt>
      <trkpt lat="45.1678" lon="3.66092">
        <ele>1092.27</ele>
        <time>2022-03-21T12:12:28Z</time>
      </trkpt>
      <trkpt lat="45.16817" lon="3.6609">
        <ele>1089.31</ele>
        <time>2022-03-21T12:12:31Z</time>
      </trkpt>
      <trkpt lat="45.16904" lon="3.66117">
        <ele>1082.72</ele>
        <time>2022-03-21T12:12:33Z</time>
      </trkpt>
      <trkpt lat="45.16942" lon="3.66124">
        <ele>1076.74</ele>
        <time>2022-03-21T12:12:36Z</time>
      </trkpt>
      <trkpt lat="45.16967" lon="3.66121">
        <ele>1076.17</ele>
        <time>2022-03-21T12:12:39Z</time>
      </trkpt>
      <trkpt lat="45.17088" lon="3.66072">
        <ele>1074.89</ele>
        <time>2022-03-21T12:12:41Z</time>
      </trkpt>
      <trkpt lat="45.17111" lon="3.66072">
        <ele>1074.25</ele>
        <time>2022-03-21T12:12:44Z</time>
      </trkpt>
      <trkpt lat="45.17137" lon="3.66083">
        <ele>1070.24</ele>
        <time>2022-03-21T12:12:47Z</time>
      </trkpt>
      <trkpt lat="45.17159" lon="3.661">
        <ele>1068.73</ele>
        <time>2022-03-21T12:12:49Z</time>
      </trkpt>
      <trkpt lat="45.17176" lon="3.66122">
        <ele>1068.91</ele>
        <time>2022-03-21T12:12:52Z</time>
      </trkpt>
      <trkpt lat="45.17209" lon="3.66201">
        <ele>1069.06</ele>
        <time>2022-03-21T12:12:55Z</time>
      </trkpt>
      <trkpt lat="45.17266" lon="3.66283">
        <ele>1064.31</ele>
        <time>2022-03-21T12:12:57Z</time>
      </trkpt>
      <trkpt lat="45.17292" lon="3.66305">
        <ele>1062.79</ele>
        <time>2022-03-21T12:13:00Z</time>
      </trkpt>
      <trkpt lat="45.17321" lon="3.66314">
        <ele>1060.41</ele>
        <time>2022-03-21T12:13:03Z</time>
      </trkpt>
      <trkpt lat="45.17351" lon="3.66311">
        <ele>1058.8</ele>
        <time>2022-03-21T12:13:05Z</time>
      </trkpt>
      <trkpt lat="45.17396" lon="3.66292">
        <ele>1055.52</ele>
        <time>2022-03-21T12:13:08Z</time>
      </trkpt>
      <trkpt lat="45.1745" lon="3.66265">
        <ele>1051.57</ele>
        <time>2022-03-21T12:13:10Z</time>
      </trkpt>
      <trkpt lat="45.1747" lon="3.66246">
        <ele>1047.31</ele>
        <time>2022-03-21T12:13:13Z</time>
      </trkpt>
      <trkpt lat="45.17488" lon="3.6622">
        <ele>1044.12</ele>
        <time>2022-03-21T12:13:16Z</time>
      </trkpt>
      <trkpt lat="45.175" lon="3.6619">
        <ele>1039.12</ele>
        <time>2022-03-21T12:13:18Z</time>
      </trkpt>
      <trkpt lat="45.17508" lon="3.66147">
        <ele>1033.27</ele>
        <time>2022-03-21T12:13:21Z</time>
      </trkpt>
      <trkpt lat="45.17509" lon="3.66113">
        <ele>1032.01</ele>
        <time>2022-03-21T12:13:24Z</time>
      </trkpt>
      <trkpt lat="45.17495" lon="3.65998">
        <ele>1032.49</ele>
        <time>2022-03-21T12:13:26Z</time>
      </trkpt>
      <trkpt lat="45.17494" lon="3.65975">
        <ele>1033.1</ele>
        <time>2022-03-21T12:13:29Z</time>
      </trkpt>
      <trkpt lat="45.175" lon="3.6593">
        <ele>1030.89</ele>
        <time>2022-03-21T12:13:32Z</time>
      </trkpt>
      <trkpt lat="45.17506" lon="3.65908">
        <ele>1029.01</ele>
        <time>2022-03-21T12:13:34Z</time>
      </trkpt>
      <trkpt lat="45.17513" lon="3.65887">
        <ele>1028.11</ele>
        <time>2022-03-21T12:13:37Z</time>
      </trkpt>
      <trkpt lat="45.17528" lon="3.6586">
        <ele>1028.86</ele>
        <time>2022-03-21T12:13:39Z</time>
      </trkpt>
      <trkpt lat="45.17542" lon="3.6584">
        <ele>1029.57</ele>
        <time>2022-03-21T12:13:42Z</time>
      </trkpt>
      <trkpt lat="45.17558" lon="3.65823">
        <ele>1029.17</ele>
        <time>2022-03-21T12:13:45Z</time>
      </trkpt>
      <trkpt lat="45.17576" lon="3.65809">
        <ele>1028</ele>
        <time>2022-03-21T12:13:47Z</time>
      </trkpt>
      <trkpt lat="45.17649" lon="3.65774">
        <ele>1024.31</ele>
        <time>2022-03-21T12:13:50Z</time>
      </trkpt>
      <trkpt lat="45.17674" lon="3.65765">
        <ele>1023.02</ele>
        <time>2022-03-21T12:13:53Z</time>
      </trkpt>
      <trkpt lat="45.17699" lon="3.65758">
        <ele>1022.9</ele>
        <time>2022-03-21T12:13:55Z</time>
      </trkpt>
      <trkpt lat="45.17737" lon="3.65752">
        <ele>1024.21</ele>
        <time>2022-03-21T12:13:58Z</time>
      </trkpt>
      <trkpt lat="45.17854" lon="3.65745">
        <ele>1025.13</ele>
        <time>2022-03-21T12:14:01Z</time>
      </trkpt>
      <trkpt lat="45.17884" lon="3.65746">
        <ele>1022.84</ele>
        <time>2022-03-21T12:14:03Z</time>
      </trkpt>
      <trkpt lat="45.1792" lon="3.65757">
        <ele>1020.25</ele>
        <time>2022-03-21T12:14:06Z</time>
      </trkpt>
      <trkpt lat="45.17966" lon="3.65777">
        <ele>1018.84</ele>
        <time>2022-03-21T12:14:08Z</time>
      </trkpt>
      <trkpt lat="45.17998" lon="3.65782">
        <ele>1015.38</ele>
        <time>2022-03-21T12:14:11Z</time>
      </trkpt>
      <trkpt lat="45.18036" lon="3.6578">
        <ele>1012.42</ele>
        <time>2022-03-21T12:14:14Z</time>
      </trkpt>
      <trkpt lat="45.18132" lon="3.65755">
        <ele>1005.29</ele>
        <time>2022-03-21T12:14:16Z</time>
      </trkpt>
      <trkpt lat="45.18156" lon="3.65745">
        <ele>1004.07</ele>
        <time>2022-03-21T12:14:19Z</time>
      </trkpt>
      <trkpt lat="45.18175" lon="3.65732">
        <ele>1003.9</ele>
        <time>2022-03-21T12:14:22Z</time>
      </trkpt>
      <trkpt lat="45.18238" lon="3.65658">
        <ele>993.39</ele>
        <time>2022-03-21T12:14:24Z</time>
      </trkpt>
      <trkpt lat="45.18257" lon="3.65638">
        <ele>991.01</ele>
        <time>2022-03-21T12:14:27Z</time>
      </trkpt>
      <trkpt lat="45.18277" lon="3.65627">
        <ele>990.58</ele>
        <time>2022-03-21T12:14:30Z</time>
      </trkpt>
      <trkpt lat="45.18296" lon="3.65621">
        <ele>990.13</ele>
        <time>2022-03-21T12:14:32Z</time>
      </trkpt>
      <trkpt lat="45.18318" lon="3.65621">
        <ele>990.12</ele>
        <time>2022-03-21T12:14:35Z</time>
      </trkpt>
      <trkpt lat="45.18342" lon="3.65631">
        <ele>990.11</ele>
        <time>2022-03-21T12:14:37Z</time>
      </trkpt>
      <trkpt lat="45.18364" lon="3.6565">
        <ele>990.84</ele>
        <time>2022-03-21T12:14:40Z</time>
      </trkpt>
      <trkpt lat="45.18387" lon="3.65683">
        <ele>991.16</ele>
        <time>2022-03-21T12:14:43Z</time>
      </trkpt>
      <trkpt lat="45.18459" lon="3.65803">
        <ele>986.69</ele>
        <time>2022-03-21T12:14:45Z</time>
      </trkpt>
      <trkpt lat="45.18475" lon="3.65833">
        <ele>987.49</ele>
        <time>2022-03-21T12:14:48Z</time>
      </trkpt>
      <trkpt lat="45.18484" lon="3.65862">
        <ele>987.31</ele>
        <time>2022-03-21T12:14:51Z</time>
      </trkpt>
      <trkpt lat="45.18489" lon="3.65889">
        <ele>987.59</ele>
        <time>2022-03-21T12:14:53Z</time>
      </trkpt>
      <trkpt lat="45.1849" lon="3.65915">
        <ele>987.84</ele>
        <time>2022-03-21T12:14:56Z</time>
      </trkpt>
      <trkpt lat="45.18488" lon="3.6594">
        <ele>987.94</ele>
        <time>2022-03-21T12:14:59Z</time>
      </trkpt>
      <trkpt lat="45.18473" lon="3.66016">
        <ele>988.09</ele>
        <time>2022-03-21T12:15:01Z</time>
      </trkpt>
      <trkpt lat="45.1847" lon="3.66042">
        <ele>984.6</ele>
        <time>2022-03-21T12:15:04Z</time>
      </trkpt>
      <trkpt lat="45.1847" lon="3.6607">
        <ele>981.17</ele>
        <time>2022-03-21T12:15:06Z</time>
      </trkpt>
      <trkpt lat="45.18472" lon="3.66085">
        <ele>979.76</ele>
        <time>2022-03-21T12:15:09Z</time>
      </trkpt>
      <trkpt lat="45.1848" lon="3.66118">
        <ele>978.01</ele>
        <time>2022-03-21T12:15:12Z</time>
      </trkpt>
      <trkpt lat="45.18491" lon="3.66145">
        <ele>978</ele>
        <time>2022-03-21T12:15:14Z</time>
      </trkpt>
      <trkpt lat="45.18506" lon="3.66171">
        <ele>978.82</ele>
        <time>2022-03-21T12:15:17Z</time>
      </trkpt>
      <trkpt lat="45.1857" lon="3.66267">
        <ele>978.07</ele>
        <time>2022-03-21T12:15:20Z</time>
      </trkpt>
      <trkpt lat="45.18582" lon="3.66293">
        <ele>976.81</ele>
        <time>2022-03-21T12:15:22Z</time>
      </trkpt>
      <trkpt lat="45.18589" lon="3.66328">
        <ele>973.42</ele>
        <time>2022-03-21T12:15:25Z</time>
      </trkpt>
      <trkpt lat="45.18592" lon="3.66362">
        <ele>972.09</ele>
        <time>2022-03-21T12:15:28Z</time>
      </trkpt>
      <trkpt lat="45.18591" lon="3.6639">
        <ele>971.32</ele>
        <time>2022-03-21T12:15:30Z</time>
      </trkpt>
      <trkpt lat="45.18592" lon="3.66441">
        <ele>969.77</ele>
        <time>2022-03-21T12:15:33Z</time>
      </trkpt>
      <trkpt lat="45.18597" lon="3.66465">
        <ele>969.74</ele>
        <time>2022-03-21T12:15:36Z</time>
      </trkpt>
      <trkpt lat="45.18616" lon="3.66516">
        <ele>966.1</ele>
        <time>2022-03-21T12:15:38Z</time>
      </trkpt>
      <trkpt lat="45.18634" lon="3.66555">
        <ele>965.99</ele>
        <time>2022-03-21T12:15:41Z</time>
      </trkpt>
      <trkpt lat="45.18641" lon="3.66581">
        <ele>966.86</ele>
        <time>2022-03-21T12:15:43Z</time>
      </trkpt>
      <trkpt lat="45.18644" lon="3.66608">
        <ele>967.96</ele>
        <time>2022-03-21T12:15:46Z</time>
      </trkpt>
      <trkpt lat="45.18644" lon="3.66638">
        <ele>968.64</ele>
        <time>2022-03-21T12:15:49Z</time>
      </trkpt>
      <trkpt lat="45.18636" lon="3.66679">
        <ele>969.68</ele>
        <time>2022-03-21T12:15:51Z</time>
      </trkpt>
      <trkpt lat="45.18628" lon="3.66703">
        <ele>969.15</ele>
        <time>2022-03-21T12:15:54Z</time>
      </trkpt>
      <trkpt lat="45.18601" lon="3.66756">
        <ele>961.79</ele>
        <time>2022-03-21T12:15:57Z</time>
      </trkpt>
      <trkpt lat="45.18593" lon="3.66783">
        <ele>959.89</ele>
        <time>2022-03-21T12:15:59Z</time>
      </trkpt>
      <trkpt lat="45.1859" lon="3.66799">
        <ele>958.6</ele>
        <time>2022-03-21T12:16:02Z</time>
      </trkpt>
      <trkpt lat="45.18589" lon="3.66818">
        <ele>957.43</ele>
        <time>2022-03-21T12:16:05Z</time>
      </trkpt>
      <trkpt lat="45.1859" lon="3.66836">
        <ele>956.78</ele>
        <time>2022-03-21T12:16:07Z</time>
      </trkpt>
      <trkpt lat="45.18594" lon="3.66855">
        <ele>956.2</ele>
        <time>2022-03-21T12:16:10Z</time>
      </trkpt>
      <trkpt lat="45.18654" lon="3.6701">
        <ele>953.02</ele>
        <time>2022-03-21T12:16:12Z</time>
      </trkpt>
      <trkpt lat="45.18665" lon="3.67044">
        <ele>950.13</ele>
        <time>2022-03-21T12:16:15Z</time>
      </trkpt>
      <trkpt lat="45.18695" lon="3.67165">
        <ele>950.23</ele>
        <time>2022-03-21T12:16:18Z</time>
      </trkpt>
      <trkpt lat="45.18703" lon="3.67194">
        <ele>948.03</ele>
        <time>2022-03-21T12:16:20Z</time>
      </trkpt>
      <trkpt lat="45.18714" lon="3.67216">
        <ele>946.23</ele>
        <time>2022-03-21T12:16:23Z</time>
      </trkpt>
      <trkpt lat="45.18729" lon="3.67239">
        <ele>947.55</ele>
        <time>2022-03-21T12:16:26Z</time>
      </trkpt>
      <trkpt lat="45.18749" lon="3.67257">
        <ele>951.55</ele>
        <time>2022-03-21T12:16:28Z</time>
      </trkpt>
      <trkpt lat="45.18803" lon="3.67298">
        <ele>956.34</ele>
        <time>2022-03-21T12:16:31Z</time>
      </trkpt>
      <trkpt lat="45.18818" lon="3.67311">
        <ele>954.32</ele>
        <time>2022-03-21T12:16:34Z</time>
      </trkpt>
      <trkpt lat="45.18832" lon="3.67329">
        <ele>952.54</ele>
        <time>2022-03-21T12:16:36Z</time>
      </trkpt>
      <trkpt lat="45.18846" lon="3.67355">
        <ele>954.06</ele>
        <time>2022-03-21T12:16:39Z</time>
      </trkpt>
      <trkpt lat="45.18857" lon="3.67385">
        <ele>953.15</ele>
        <time>2022-03-21T12:16:41Z</time>
      </trkpt>
      <trkpt lat="45.189" lon="3.67553">
        <ele>946.61</ele>
        <time>2022-03-21T12:16:44Z</time>
      </trkpt>
      <trkpt lat="45.18909" lon="3.67578">
        <ele>943.35</ele>
        <time>2022-03-21T12:16:47Z</time>
      </trkpt>
      <trkpt lat="45.18922" lon="3.67605">
        <ele>940.23</ele>
        <time>2022-03-21T12:16:49Z</time>
      </trkpt>
      <trkpt lat="45.1894" lon="3.67631">
        <ele>938.63</ele>
        <time>2022-03-21T12:16:52Z</time>
      </trkpt>
      <trkpt lat="45.18964" lon="3.67658">
        <ele>940.4</ele>
        <time>2022-03-21T12:16:55Z</time>
      </trkpt>
      <trkpt lat="45.18999" lon="3.67689">
        <ele>941.14</ele>
        <time>2022-03-21T12:16:57Z</time>
      </trkpt>
      <trkpt lat="45.19016" lon="3.67707">
        <ele>941.2</ele>
        <time>2022-03-21T12:17:00Z</time>
      </trkpt>
      <trkpt lat="45.19041" lon="3.67744">
        <ele>937.18</ele>
        <time>2022-03-21T12:17:03Z</time>
      </trkpt>
      <trkpt lat="45.19048" lon="3.6776">
        <ele>934.79</ele>
        <time>2022-03-21T12:17:05Z</time>
      </trkpt>
      <trkpt lat="45.19056" lon="3.67784">
        <ele>928.37</ele>
        <time>2022-03-21T12:17:08Z</time>
      </trkpt>
      <trkpt lat="45.19061" lon="3.6781">
        <ele>921.77</ele>
        <time>2022-03-21T12:17:10Z</time>
      </trkpt>
      <trkpt lat="45.19066" lon="3.6785">
        <ele>919.93</ele>
        <time>2022-03-21T12:17:13Z</time>
      </trkpt>
      <trkpt lat="45.19075" lon="3.6805">
        <ele>918.38</ele>
        <time>2022-03-21T12:17:16Z</time>
      </trkpt>
      <trkpt lat="45.19074" lon="3.68083">
        <ele>918.95</ele>
        <time>2022-03-21T12:17:18Z</time>
      </trkpt>
      <trkpt lat="45.19067" lon="3.68133">
        <ele>917.36</ele>
        <time>2022-03-21T12:17:21Z</time>
      </trkpt>
      <trkpt lat="45.19053" lon="3.68181">
        <ele>913.46</ele>
        <time>2022-03-21T12:17:24Z</time>
      </trkpt>
      <trkpt lat="45.18765" lon="3.68804">
        <ele>899.01</ele>
        <time>2022-03-21T12:17:26Z</time>
      </trkpt>
      <trkpt lat="45.18743" lon="3.68833">
        <ele>899.25</ele>
        <time>2022-03-21T12:17:29Z</time>
      </trkpt>
      <trkpt lat="45.1872" lon="3.68854">
        <ele>897.8</ele>
        <time>2022-03-21T12:17:32Z</time>
      </trkpt>
      <trkpt lat="45.18674" lon="3.68889">
        <ele>893.99</ele>
        <time>2022-03-21T12:17:34Z</time>
      </trkpt>
      <trkpt lat="45.18654" lon="3.68909">
        <ele>894.72</ele>
        <time>2022-03-21T12:17:37Z</time>
      </trkpt>
      <trkpt lat="45.1859" lon="3.68996">
        <ele>895.52</ele>
        <time>2022-03-21T12:17:39Z</time>
      </trkpt>
      <trkpt lat="45.18451" lon="3.6918">
        <ele>894.39</ele>
        <time>2022-03-21T12:17:42Z</time>
      </trkpt>
      <trkpt lat="45.18442" lon="3.692">
        <ele>894.18</ele>
        <time>2022-03-21T12:17:45Z</time>
      </trkpt>
      <trkpt lat="45.18432" lon="3.69237">
        <ele>894.14</ele>
        <time>2022-03-21T12:17:47Z</time>
      </trkpt>
      <trkpt lat="45.18429" lon="3.69272">
        <ele>893.22</ele>
        <time>2022-03-21T12:17:50Z</time>
      </trkpt>
      <trkpt lat="45.18429" lon="3.69287">
        <ele>892.83</ele>
        <time>2022-03-21T12:17:53Z</time>
      </trkpt>
      <trkpt lat="45.18435" lon="3.69314">
        <ele>892.36</ele>
        <time>2022-03-21T12:17:55Z</time>
      </trkpt>
      <trkpt lat="45.18441" lon="3.69332">
        <ele>891.93</ele>
        <time>2022-03-21T12:17:58Z</time>
      </trkpt>
      <trkpt lat="45.1846" lon="3.6937">
        <ele>893.14</ele>
        <time>2022-03-21T12:18:01Z</time>
      </trkpt>
      <trkpt lat="45.18496" lon="3.69431">
        <ele>896.43</ele>
        <time>2022-03-21T12:18:03Z</time>
      </trkpt>
      <trkpt lat="45.18521" lon="3.69488">
        <ele>897.34</ele>
        <time>2022-03-21T12:18:06Z</time>
      </trkpt>
      <trkpt lat="45.18549" lon="3.69569">
        <ele>901.99</ele>
        <time>2022-03-21T12:18:09Z</time>
      </trkpt>
      <trkpt lat="45.18578" lon="3.69632">
        <ele>907.92</ele>
        <time>2022-03-21T12:18:11Z</time>
      </trkpt>
      <trkpt lat="45.18587" lon="3.69665">
        <ele>908.11</ele>
        <time>2022-03-21T12:18:14Z</time>
      </trkpt>
      <trkpt lat="45.18608" lon="3.69795">
        <ele>911.13</ele>
        <time>2022-03-21T12:18:16Z</time>
      </trkpt>
      <trkpt lat="45.18618" lon="3.69844">
        <ele>914.92</ele>
        <time>2022-03-21T12:18:19Z</time>
      </trkpt>
      <trkpt lat="45.18632" lon="3.69891">
        <ele>917.64</ele>
        <time>2022-03-21T12:18:22Z</time>
      </trkpt>
      <trkpt lat="45.18647" lon="3.69931">
        <ele>919.37</ele>
        <time>2022-03-21T12:18:24Z</time>
      </trkpt>
      <trkpt lat="45.18684" lon="3.7001">
        <ele>920.68</ele>
        <time>2022-03-21T12:18:27Z</time>
      </trkpt>
      <trkpt lat="45.18724" lon="3.70076">
        <ele>927.41</ele>
        <time>2022-03-21T12:18:30Z</time>
      </trkpt>
      <trkpt lat="45.1875" lon="3.70105">
        <ele>930.4</ele>
        <time>2022-03-21T12:18:32Z</time>
      </trkpt>
      <trkpt lat="45.18779" lon="3.70132">
        <ele>930.16</ele>
        <time>2022-03-21T12:18:35Z</time>
      </trkpt>
      <trkpt lat="45.18822" lon="3.70165">
        <ele>933.4</ele>
        <time>2022-03-21T12:18:38Z</time>
      </trkpt>
      <trkpt lat="45.18839" lon="3.70183">
        <ele>935.72</ele>
        <time>2022-03-21T12:18:40Z</time>
      </trkpt>
      <trkpt lat="45.18851" lon="3.70203">
        <ele>937.07</ele>
        <time>2022-03-21T12:18:43Z</time>
      </trkpt>
      <trkpt lat="45.18878" lon="3.70263">
        <ele>939.66</ele>
        <time>2022-03-21T12:18:45Z</time>
      </trkpt>
      <trkpt lat="45.18888" lon="3.70279">
        <ele>940.82</ele>
        <time>2022-03-21T12:18:48Z</time>
      </trkpt>
      <trkpt lat="45.18902" lon="3.70291">
        <ele>941.68</ele>
        <time>2022-03-21T12:18:51Z</time>
      </trkpt>
      <trkpt lat="45.18918" lon="3.70297">
        <ele>943.07</ele>
        <time>2022-03-21T12:18:53Z</time>
      </trkpt>
      <trkpt lat="45.18931" lon="3.70298">
        <ele>944.72</ele>
        <time>2022-03-21T12:18:56Z</time>
      </trkpt>
      <trkpt lat="45.1905" lon="3.70268">
        <ele>955.27</ele>
        <time>2022-03-21T12:18:59Z</time>
      </trkpt>
      <trkpt lat="45.19083" lon="3.70265">
        <ele>955.34</ele>
        <time>2022-03-21T12:19:01Z</time>
      </trkpt>
      <trkpt lat="45.19102" lon="3.7027">
        <ele>955.03</ele>
        <time>2022-03-21T12:19:04Z</time>
      </trkpt>
      <trkpt lat="45.19119" lon="3.70281">
        <ele>954.79</ele>
        <time>2022-03-21T12:19:07Z</time>
      </trkpt>
      <trkpt lat="45.19133" lon="3.70298">
        <ele>956.04</ele>
        <time>2022-03-21T12:19:09Z</time>
      </trkpt>
      <trkpt lat="45.19142" lon="3.70318">
        <ele>957.93</ele>
        <time>2022-03-21T12:19:12Z</time>
      </trkpt>
      <trkpt lat="45.19148" lon="3.70335">
        <ele>959.7</ele>
        <time>2022-03-21T12:19:14Z</time>
      </trkpt>
      <trkpt lat="45.19156" lon="3.70379">
        <ele>965.35</ele>
        <time>2022-03-21T12:19:17Z</time>
      </trkpt>
      <trkpt lat="45.19159" lon="3.70412">
        <ele>968.4</ele>
        <time>2022-03-21T12:19:20Z</time>
      </trkpt>
      <trkpt lat="45.19165" lon="3.70445">
        <ele>969.69</ele>
        <time>2022-03-21T12:19:22Z</time>
      </trkpt>
      <trkpt lat="45.19178" lon="3.70472">
        <ele>972</ele>
        <time>2022-03-21T12:19:25Z</time>
      </trkpt>
      <trkpt lat="45.19187" lon="3.70485">
        <ele>972.84</ele>
        <time>2022-03-21T12:19:28Z</time>
      </trkpt>
      <trkpt lat="45.19196" lon="3.70496">
        <ele>974.34</ele>
        <time>2022-03-21T12:19:30Z</time>
      </trkpt>
      <trkpt lat="45.19221" lon="3.70516">
        <ele>975.13</ele>
        <time>2022-03-21T12:19:33Z</time>
      </trkpt>
      <trkpt lat="45.19247" lon="3.70532">
        <ele>977.08</ele>
        <time>2022-03-21T12:19:36Z</time>
      </trkpt>
      <trkpt lat="45.19381" lon="3.70598">
        <ele>986.65</ele>
        <time>2022-03-21T12:19:38Z</time>
      </trkpt>
      <trkpt lat="45.19395" lon="3.70606">
        <ele>987.78</ele>
        <time>2022-03-21T12:19:41Z</time>
      </trkpt>
      <trkpt lat="45.19426" lon="3.70635">
        <ele>987.45</ele>
        <time>2022-03-21T12:19:43Z</time>
      </trkpt>
      <trkpt lat="45.19441" lon="3.70645">
        <ele>988.61</ele>
        <time>2022-03-21T12:19:46Z</time>
      </trkpt>
      <trkpt lat="45.19452" lon="3.70648">
        <ele>989.97</ele>
        <time>2022-03-21T12:19:49Z</time>
      </trkpt>
      <trkpt lat="45.19565" lon="3.70659">
        <ele>1001.44</ele>
        <time>2022-03-21T12:19:51Z</time>
      </trkpt>
      <trkpt lat="45.19577" lon="3.70665">
        <ele>1001.8</ele>
        <time>2022-03-21T12:19:54Z</time>
      </trkpt>
      <trkpt lat="45.19592" lon="3.70679">
        <ele>1002.48</ele>
        <time>2022-03-21T12:19:57Z</time>
      </trkpt>
      <trkpt lat="45.19639" lon="3.70726">
        <ele>1003</ele>
        <time>2022-03-21T12:19:59Z</time>
      </trkpt>
      <trkpt lat="45.19655" lon="3.70743">
        <ele>1004.16</ele>
        <time>2022-03-21T12:20:02Z</time>
      </trkpt>
      <trkpt lat="45.19658" lon="3.70754">
        <ele>1004.39</ele>
        <time>2022-03-21T12:20:05Z</time>
      </trkpt>
      <trkpt lat="45.19665" lon="3.70754">
        <ele>1004.85</ele>
        <time>2022-03-21T12:20:09Z</time>
      </trkpt>
      <trkpt lat="45.19724" lon="3.70813">
        <ele>1008.1</ele>
        <time>2022-03-21T12:20:12Z</time>
      </trkpt>
      <trkpt lat="45.19801" lon="3.70922">
        <ele>1021.25</ele>
        <time>2022-03-21T12:20:16Z</time>
      </trkpt>
      <trkpt lat="45.19833" lon="3.70957">
        <ele>1027.36</ele>
        <time>2022-03-21T12:20:20Z</time>
      </trkpt>
      <trkpt lat="45.19845" lon="3.7098">
        <ele>1028.97</ele>
        <time>2022-03-21T12:20:24Z</time>
      </trkpt>
      <trkpt lat="45.19848" lon="3.70997">
        <ele>1029.55</ele>
        <time>2022-03-21T12:20:28Z</time>
      </trkpt>
      <trkpt lat="45.19849" lon="3.71006">
        <ele>1029.44</ele>
        <time>2022-03-21T12:20:32Z</time>
      </trkpt>
      <trkpt lat="45.19877" lon="3.71019">
        <ele>1033.71</ele>
        <time>2022-03-21T12:20:37Z</time>
      </trkpt>
      <trkpt lat="45.19891" lon="3.71051">
        <ele>1036.57</ele>
        <time>2022-03-21T12:20:41Z</time>
      </trkpt>
      <trkpt lat="45.19905" lon="3.71069">
        <ele>1038.72</ele>
        <time>2022-03-21T12:20:45Z</time>
      </trkpt>
      <trkpt lat="45.19917" lon="3.71079">
        <ele>1041.18</ele>
        <time>2022-03-21T12:20:50Z</time>
      </trkpt>
      <trkpt lat="45.19951" lon="3.71103">
        <ele>1047.67</ele>
        <time>2022-03-21T12:20:54Z</time>
      </trkpt>
      <trkpt lat="45.20003" lon="3.71136">
        <ele>1054.03</ele>
        <time>2022-03-21T12:20:59Z</time>
      </trkpt>
      <trkpt lat="45.20018" lon="3.71143">
        <ele>1057.4</ele>
        <time>2022-03-21T12:21:03Z</time>
      </trkpt>
      <trkpt lat="45.20026" lon="3.71146">
        <ele>1059.16</ele>
        <time>2022-03-21T12:21:07Z</time>
      </trkpt>
      <trkpt lat="45.20044" lon="3.7117">
        <ele>1061.78</ele>
        <time>2022-03-21T12:21:12Z</time>
      </trkpt>
      <trkpt lat="45.20069" lon="3.71189">
        <ele>1063.96</ele>
        <time>2022-03-21T12:21:16Z</time>
      </trkpt>
      <trkpt lat="45.201" lon="3.71207">
        <ele>1064.42</ele>
        <time>2022-03-21T12:21:21Z</time>
      </trkpt>
      <trkpt lat="45.20153" lon="3.71253">
        <ele>1061.33</ele>
        <time>2022-03-21T12:21:25Z</time>
      </trkpt>
      <trkpt lat="45.20168" lon="3.71262">
        <ele>1061.6</ele>
        <time>2022-03-21T12:21:30Z</time>
      </trkpt>
      <trkpt lat="45.20168" lon="3.71262">
        <ele>1061.6</ele>
        <time>2022-03-21T12:21:30Z</time>
      </trkpt>
      <trkpt lat="45.20238" lon="3.71287">
        <ele>1055.98</ele>
        <time>2022-03-21T12:21:37Z</time>
      </trkpt>
      <trkpt lat="45.20348" lon="3.71315">
        <ele>1046.58</ele>
        <time>2022-03-21T12:21:44Z</time>
      </trkpt>
      <trkpt lat="45.20353" lon="3.71321">
        <ele>1045.58</ele>
        <time>2022-03-21T12:21:52Z</time>
      </trkpt>
      <trkpt lat="45.20354" lon="3.71326">
        <ele>1044.9</ele>
        <time>2022-03-21T12:21:59Z</time>
      </trkpt>
      <trkpt lat="45.20412" lon="3.71303">
        <ele>1047.07</ele>
        <time>2022-03-21T12:22:06Z</time>
      </trkpt>
      <trkpt lat="45.20425" lon="3.713">
        <ele>1048.98</ele>
        <time>2022-03-21T12:22:12Z</time>
      </trkpt>
      <trkpt lat="45.20439" lon="3.71303">
        <ele>1050.59</ele>
        <time>2022-03-21T12:22:18Z</time>
      </trkpt>
      <trkpt lat="45.20449" lon="3.7131">
        <ele>1051.08</ele>
        <time>2022-03-21T12:22:25Z</time>
      </trkpt>
      <trkpt lat="45.20532" lon="3.71412">
        <ele>1051.31</ele>
        <time>2022-03-21T12:22:31Z</time>
      </trkpt>
      <trkpt lat="45.20552" lon="3.71435">
        <ele>1051.05</ele>
        <time>2022-03-21T12:22:37Z</time>
      </trkpt>
      <trkpt lat="45.20573" lon="3.71447">
        <ele>1050.22</ele>
        <time>2022-03-21T12:22:43Z</time>
      </trkpt>
      <trkpt lat="45.20589" lon="3.71449">
        <ele>1049.61</ele>
        <time>2022-03-21T12:22:50Z</time>
      </trkpt>
      <trkpt lat="45.20609" lon="3.71448">
        <ele>1048.84</ele>
        <time>2022-03-21T12:22:56Z</time>
      </trkpt>
      <trkpt lat="45.2064" lon="3.71432">
        <ele>1049.42</ele>
        <time>2022-03-21T12:23:02Z</time>
      </trkpt>
      <trkpt lat="45.20721" lon="3.71372">
        <ele>1049.33</ele>
        <time>2022-03-21T12:23:09Z</time>
      </trkpt>
      <trkpt lat="45.20797" lon="3.71316">
        <ele>1048.77</ele>
        <time>2022-03-21T12:23:15Z</time>
      </trkpt>
      <trkpt lat="45.20823" lon="3.7129">
        <ele>1047.52</ele>
        <time>2022-03-21T12:23:21Z</time>
      </trkpt>
      <trkpt lat="45.20842" lon="3.71266">
        <ele>1045.82</ele>
        <time>2022-03-21T12:23:27Z</time>
      </trkpt>
      <trkpt lat="45.20857" lon="3.7124">
        <ele>1043.15</ele>
        <time>2022-03-21T12:23:34Z</time>
      </trkpt>
      <trkpt lat="45.20908" lon="3.71132">
        <ele>1038.48</ele>
        <time>2022-03-21T12:23:40Z</time>
      </trkpt>
      <trkpt lat="45.20937" lon="3.71083">
        <ele>1038.23</ele>
        <time>2022-03-21T12:23:46Z</time>
      </trkpt>
      <trkpt lat="45.20967" lon="3.71043">
        <ele>1034.68</ele>
        <time>2022-03-21T12:23:53Z</time>
      </trkpt>
      <trkpt lat="45.21002" lon="3.71015">
        <ele>1033.7</ele>
        <time>2022-03-21T12:23:59Z</time>
      </trkpt>
      <trkpt lat="45.21024" lon="3.71002">
        <ele>1033.97</ele>
        <time>2022-03-21T12:24:05Z</time>
      </trkpt>
      <trkpt lat="45.21054" lon="3.70989">
        <ele>1033.27</ele>
        <time>2022-03-21T12:24:12Z</time>
      </trkpt>
      <trkpt lat="45.21203" lon="3.70974">
        <ele>1035.6</ele>
        <time>2022-03-21T12:24:18Z</time>
      </trkpt>
      <trkpt lat="45.21318" lon="3.70964">
        <ele>1033.58</ele>
        <time>2022-03-21T12:24:24Z</time>
      </trkpt>
      <trkpt lat="45.21348" lon="3.70966">
        <ele>1034.45</ele>
        <time>2022-03-21T12:24:30Z</time>
      </trkpt>
      <trkpt lat="45.21612" lon="3.71012">
        <ele>1038.14</ele>
        <time>2022-03-21T12:24:37Z</time>
      </trkpt>
      <trkpt lat="45.21744" lon="3.71049">
        <ele>1033.3</ele>
        <time>2022-03-21T12:24:43Z</time>
      </trkpt>
      <trkpt lat="45.21764" lon="3.7105">
        <ele>1032.72</ele>
        <time>2022-03-21T12:24:49Z</time>
      </trkpt>
      <trkpt lat="45.21795" lon="3.71041">
        <ele>1033.25</ele>
        <time>2022-03-21T12:24:56Z</time>
      </trkpt>
      <trkpt lat="45.21884" lon="3.7101">
        <ele>1034.97</ele>
        <time>2022-03-21T12:25:02Z</time>
      </trkpt>
      <trkpt lat="45.21913" lon="3.71007">
        <ele>1032.8</ele>
        <time>2022-03-21T12:25:08Z</time>
      </trkpt>
      <trkpt lat="45.22083" lon="3.71012">
        <ele>1034.15</ele>
        <time>2022-03-21T12:25:14Z</time>
      </trkpt>
      <trkpt lat="45.2214" lon="3.70994">
        <ele>1031.93</ele>
        <time>2022-03-21T12:25:21Z</time>
      </trkpt>
      <trkpt lat="45.2217" lon="3.70992">
        <ele>1029.91</ele>
        <time>2022-03-21T12:25:27Z</time>
      </trkpt>
      <trkpt lat="45.22304" lon="3.71001">
        <ele>1026.97</ele>
        <time>2022-03-21T12:25:33Z</time>
      </trkpt>
      <trkpt lat="45.22448" lon="3.71056">
        <ele>1031.13</ele>
        <time>2022-03-21T12:25:40Z</time>
      </trkpt>
      <trkpt lat="45.22502" lon="3.71066">
        <ele>1033.11</ele>
        <time>2022-03-21T12:25:46Z</time>
      </trkpt>
      <trkpt lat="45.22725" lon="3.71094">
        <ele>1047.54</ele>
        <time>2022-03-21T12:25:52Z</time>
      </trkpt>
      <trkpt lat="45.22901" lon="3.71122">
        <ele>1046.27</ele>
        <time>2022-03-21T12:25:58Z</time>
      </trkpt>
      <trkpt lat="45.23014" lon="3.71125">
        <ele>1047.53</ele>
        <time>2022-03-21T12:26:05Z</time>
      </trkpt>
      <trkpt lat="45.23087" lon="3.71133">
        <ele>1047.81</ele>
        <time>2022-03-21T12:26:11Z</time>
      </trkpt>
      <trkpt lat="45.2324" lon="3.71165">
        <ele>1055.53</ele>
        <time>2022-03-21T12:26:17Z</time>
      </trkpt>
      <trkpt lat="45.23276" lon="3.71174">
        <ele>1049.69</ele>
        <time>2022-03-21T12:26:24Z</time>
      </trkpt>
      <trkpt lat="45.23331" lon="3.71199">
        <ele>1043.18</ele>
        <time>2022-03-21T12:26:30Z</time>
      </trkpt>
      <trkpt lat="45.23486" lon="3.71303">
        <ele>1053.41</ele>
        <time>2022-03-21T12:26:36Z</time>
      </trkpt>
      <trkpt lat="45.23608" lon="3.71383">
        <ele>1059.96</ele>
        <time>2022-03-21T12:26:42Z</time>
      </trkpt>
      <trkpt lat="45.23842" lon="3.71501">
        <ele>1063.02</ele>
        <time>2022-03-21T12:26:49Z</time>
      </trkpt>
      <trkpt lat="45.23917" lon="3.71545">
        <ele>1068.22</ele>
        <time>2022-03-21T12:26:55Z</time>
      </trkpt>
      <trkpt lat="45.24397" lon="3.71874">
        <ele>1064.91</ele>
        <time>2022-03-21T12:27:01Z</time>
      </trkpt>
      <trkpt lat="45.24427" lon="3.71894">
        <ele>1066.99</ele>
        <time>2022-03-21T12:27:08Z</time>
      </trkpt>
      <trkpt lat="45.24466" lon="3.71915">
        <ele>1069.7</ele>
        <time>2022-03-21T12:27:14Z</time>
      </trkpt>
      <trkpt lat="45.24539" lon="3.71951">
        <ele>1068.86</ele>
        <time>2022-03-21T12:27:20Z</time>
      </trkpt>
      <trkpt lat="45.24571" lon="3.71959">
        <ele>1065.57</ele>
        <time>2022-03-21T12:27:26Z</time>
      </trkpt>
      <trkpt lat="45.24703" lon="3.71954">
        <ele>1063.06</ele>
        <time>2022-03-21T12:27:33Z</time>
      </trkpt>
      <trkpt lat="45.24898" lon="3.7195">
        <ele>1068.07</ele>
        <time>2022-03-21T12:27:39Z</time>
      </trkpt>
      <trkpt lat="45.25098" lon="3.71942">
        <ele>1064.48</ele>
        <time>2022-03-21T12:27:45Z</time>
      </trkpt>
      <trkpt lat="45.25162" lon="3.71942">
        <ele>1063.24</ele>
        <time>2022-03-21T12:27:52Z</time>
      </trkpt>
      <trkpt lat="45.25257" lon="3.71952">
        <ele>1065</ele>
        <time>2022-03-21T12:27:58Z</time>
      </trkpt>
      <trkpt lat="45.25278" lon="3.71951">
        <ele>1065</ele>
        <time>2022-03-21T12:28:04Z</time>
      </trkpt>
      <trkpt lat="45.2532" lon="3.71937">
        <ele>1069.29</ele>
        <time>2022-03-21T12:28:10Z</time>
      </trkpt>
      <trkpt lat="45.25341" lon="3.71934">
        <ele>1072.69</ele>
        <time>2022-03-21T12:28:17Z</time>
      </trkpt>
      <trkpt lat="45.25365" lon="3.71933">
        <ele>1075.97</ele>
        <time>2022-03-21T12:28:23Z</time>
      </trkpt>
      <trkpt lat="45.25437" lon="3.71936">
        <ele>1077.25</ele>
        <time>2022-03-21T12:28:29Z</time>
      </trkpt>
      <trkpt lat="45.2553" lon="3.71952">
        <ele>1084.54</ele>
        <time>2022-03-21T12:28:36Z</time>
      </trkpt>
      <trkpt lat="45.25607" lon="3.7197">
        <ele>1081.57</ele>
        <time>2022-03-21T12:28:42Z</time>
      </trkpt>
      <trkpt lat="45.25644" lon="3.71975">
        <ele>1082.25</ele>
        <time>2022-03-21T12:28:48Z</time>
      </trkpt>
      <trkpt lat="45.25669" lon="3.71974">
        <ele>1082.76</ele>
        <time>2022-03-21T12:28:55Z</time>
      </trkpt>
      <trkpt lat="45.2571" lon="3.71969">
        <ele>1077.39</ele>
        <time>2022-03-21T12:29:01Z</time>
      </trkpt>
      <trkpt lat="45.25751" lon="3.71962">
        <ele>1075.33</ele>
        <time>2022-03-21T12:29:07Z</time>
      </trkpt>
      <trkpt lat="45.25844" lon="3.71935">
        <ele>1072.79</ele>
        <time>2022-03-21T12:29:13Z</time>
      </trkpt>
      <trkpt lat="45.25868" lon="3.7193">
        <ele>1073.6</ele>
        <time>2022-03-21T12:29:20Z</time>
      </trkpt>
      <trkpt lat="45.25886" lon="3.71931">
        <ele>1075.28</ele>
        <time>2022-03-21T12:29:26Z</time>
      </trkpt>
      <trkpt lat="45.25913" lon="3.71936">
        <ele>1077.63</ele>
        <time>2022-03-21T12:29:32Z</time>
      </trkpt>
      <trkpt lat="45.25936" lon="3.71944">
        <ele>1079.38</ele>
        <time>2022-03-21T12:29:39Z</time>
      </trkpt>
      <trkpt lat="45.25961" lon="3.71957">
        <ele>1080.41</ele>
        <time>2022-03-21T12:29:45Z</time>
      </trkpt>
      <trkpt lat="45.26043" lon="3.72009">
        <ele>1082.65</ele>
        <time>2022-03-21T12:29:51Z</time>
      </trkpt>
      <trkpt lat="45.26091" lon="3.72033">
        <ele>1085.14</ele>
        <time>2022-03-21T12:29:57Z</time>
      </trkpt>
      <trkpt lat="45.26574" lon="3.72232">
        <ele>1090.46</ele>
        <time>2022-03-21T12:30:04Z</time>
      </trkpt>
      <trkpt lat="45.26636" lon="3.72244">
        <ele>1089</ele>
        <time>2022-03-21T12:30:10Z</time>
      </trkpt>
      <trkpt lat="45.2709" lon="3.72282">
        <ele>1104.63</ele>
        <time>2022-03-21T12:30:16Z</time>
      </trkpt>
      <trkpt lat="45.27137" lon="3.7229">
        <ele>1105.65</ele>
        <time>2022-03-21T12:30:23Z</time>
      </trkpt>
      <trkpt lat="45.27159" lon="3.72298">
        <ele>1104.56</ele>
        <time>2022-03-21T12:30:29Z</time>
      </trkpt>
      <trkpt lat="45.27222" lon="3.72336">
        <ele>1108.22</ele>
        <time>2022-03-21T12:30:35Z</time>
      </trkpt>
      <trkpt lat="45.2728" lon="3.72373">
        <ele>1109.03</ele>
        <time>2022-03-21T12:30:41Z</time>
      </trkpt>
      <trkpt lat="45.27358" lon="3.72416">
        <ele>1102.46</ele>
        <time>2022-03-21T12:30:48Z</time>
      </trkpt>
      <trkpt lat="45.27432" lon="3.72462">
        <ele>1092.53</ele>
        <time>2022-03-21T12:30:54Z</time>
      </trkpt>
      <trkpt lat="45.27625" lon="3.72578">
        <ele>1091.31</ele>
        <time>2022-03-21T12:31:00Z</time>
      </trkpt>
      <trkpt lat="45.27641" lon="3.72591">
        <ele>1091.49</ele>
        <time>2022-03-21T12:31:07Z</time>
      </trkpt>
      <trkpt lat="45.2766" lon="3.72604">
        <ele>1091.61</ele>
        <time>2022-03-21T12:31:13Z</time>
      </trkpt>
      <trkpt lat="45.2766" lon="3.72604">
        <ele>1091.61</ele>
        <time>2022-03-21T12:31:13Z</time>
      </trkpt>
      <trkpt lat="45.27661" lon="3.72605">
        <ele>1091.72</ele>
        <time>2022-03-21T12:31:13Z</time>
      </trkpt>
      <trkpt lat="45.27652" lon="3.72682">
        <ele>1093.26</ele>
        <time>2022-03-21T12:31:18Z</time>
      </trkpt>
      <trkpt lat="45.27644" lon="3.72738">
        <ele>1096.3</ele>
        <time>2022-03-21T12:31:24Z</time>
      </trkpt>
      <trkpt lat="45.27634" lon="3.72791">
        <ele>1097.43</ele>
        <time>2022-03-21T12:31:29Z</time>
      </trkpt>
      <trkpt lat="45.27626" lon="3.72823">
        <ele>1094.93</ele>
        <time>2022-03-21T12:31:34Z</time>
      </trkpt>
      <trkpt lat="45.27584" lon="3.72959">
        <ele>1094</ele>
        <time>2022-03-21T12:31:39Z</time>
      </trkpt>
      <trkpt lat="45.27524" lon="3.7314">
        <ele>1081.48</ele>
        <time>2022-03-21T12:31:44Z</time>
      </trkpt>
      <trkpt lat="45.2753" lon="3.73141">
        <ele>1082.39</ele>
        <time>2022-03-21T12:31:49Z</time>
      </trkpt>
      <trkpt lat="45.27537" lon="3.73145">
        <ele>1083.85</ele>
        <time>2022-03-21T12:31:54Z</time>
      </trkpt>
      <trkpt lat="45.27546" lon="3.73157">
        <ele>1085.36</ele>
        <time>2022-03-21T12:31:59Z</time>
      </trkpt>
      <trkpt lat="45.27558" lon="3.73178">
        <ele>1087.44</ele>
        <time>2022-03-21T12:32:03Z</time>
      </trkpt>
      <trkpt lat="45.27577" lon="3.73224">
        <ele>1088.12</ele>
        <time>2022-03-21T12:32:08Z</time>
      </trkpt>
      <trkpt lat="45.27583" lon="3.73251">
        <ele>1084.91</ele>
        <time>2022-03-21T12:32:13Z</time>
      </trkpt>
      <trkpt lat="45.27585" lon="3.73274">
        <ele>1083.46</ele>
        <time>2022-03-21T12:32:17Z</time>
      </trkpt>
      <trkpt lat="45.27586" lon="3.73291">
        <ele>1082.68</ele>
        <time>2022-03-21T12:32:22Z</time>
      </trkpt>
      <trkpt lat="45.27583" lon="3.73317">
        <ele>1081.59</ele>
        <time>2022-03-21T12:32:27Z</time>
      </trkpt>
      <trkpt lat="45.27577" lon="3.73346">
        <ele>1081</ele>
        <time>2022-03-21T12:32:32Z</time>
      </trkpt>
      <trkpt lat="45.27536" lon="3.73471">
        <ele>1078.06</ele>
        <time>2022-03-21T12:32:36Z</time>
      </trkpt>
      <trkpt lat="45.27527" lon="3.73506">
        <ele>1078.45</ele>
        <time>2022-03-21T12:32:41Z</time>
      </trkpt>
      <trkpt lat="45.27522" lon="3.73534">
        <ele>1080.44</ele>
        <time>2022-03-21T12:32:46Z</time>
      </trkpt>
      <trkpt lat="45.27497" lon="3.73891">
        <ele>1073.29</ele>
        <time>2022-03-21T12:32:50Z</time>
      </trkpt>
      <trkpt lat="45.27498" lon="3.73922">
        <ele>1069.51</ele>
        <time>2022-03-21T12:32:55Z</time>
      </trkpt>
      <trkpt lat="45.27505" lon="3.73958">
        <ele>1069.22</ele>
        <time>2022-03-21T12:33:00Z</time>
      </trkpt>
      <trkpt lat="45.27519" lon="3.73989">
        <ele>1068.16</ele>
        <time>2022-03-21T12:33:05Z</time>
      </trkpt>
      <trkpt lat="45.2753" lon="3.74008">
        <ele>1066.42</ele>
        <time>2022-03-21T12:33:09Z</time>
      </trkpt>
      <trkpt lat="45.27635" lon="3.7413">
        <ele>1063.22</ele>
        <time>2022-03-21T12:33:14Z</time>
      </trkpt>
      <trkpt lat="45.27676" lon="3.74169">
        <ele>1055.77</ele>
        <time>2022-03-21T12:33:19Z</time>
      </trkpt>
      <trkpt lat="45.27798" lon="3.74278">
        <ele>1051.45</ele>
        <time>2022-03-21T12:33:23Z</time>
      </trkpt>
      <trkpt lat="45.27805" lon="3.74287">
        <ele>1051.63</ele>
        <time>2022-03-21T12:33:28Z</time>
      </trkpt>
      <trkpt lat="45.27814" lon="3.74305">
        <ele>1051.3</ele>
        <time>2022-03-21T12:33:33Z</time>
      </trkpt>
      <trkpt lat="45.27827" lon="3.74356">
        <ele>1047.95</ele>
        <time>2022-03-21T12:33:38Z</time>
      </trkpt>
      <trkpt lat="45.27833" lon="3.74379">
        <ele>1048.01</ele>
        <time>2022-03-21T12:33:42Z</time>
      </trkpt>
      <trkpt lat="45.27849" lon="3.74414">
        <ele>1050.26</ele>
        <time>2022-03-21T12:33:47Z</time>
      </trkpt>
      <trkpt lat="45.27859" lon="3.74429">
        <ele>1051.74</ele>
        <time>2022-03-21T12:33:52Z</time>
      </trkpt>
      <trkpt lat="45.27902" lon="3.74477">
        <ele>1053.44</ele>
        <time>2022-03-21T12:33:56Z</time>
      </trkpt>
      <trkpt lat="45.2814" lon="3.74744">
        <ele>1067.82</ele>
        <time>2022-03-21T12:34:01Z</time>
      </trkpt>
      <trkpt lat="45.28171" lon="3.74781">
        <ele>1070.43</ele>
        <time>2022-03-21T12:34:06Z</time>
      </trkpt>
      <trkpt lat="45.28271" lon="3.74928">
        <ele>1079.19</ele>
        <time>2022-03-21T12:34:11Z</time>
      </trkpt>
      <trkpt lat="45.28329" lon="3.7502">
        <ele>1081.95</ele>
        <time>2022-03-21T12:34:15Z</time>
      </trkpt>
      <trkpt lat="45.28364" lon="3.75073">
        <ele>1082.23</ele>
        <time>2022-03-21T12:34:20Z</time>
      </trkpt>
      <trkpt lat="45.28429" lon="3.75167">
        <ele>1085.43</ele>
        <time>2022-03-21T12:34:25Z</time>
      </trkpt>
      <trkpt lat="45.28457" lon="3.752">
        <ele>1086.35</ele>
        <time>2022-03-21T12:34:29Z</time>
      </trkpt>
      <trkpt lat="45.28533" lon="3.7526">
        <ele>1087.01</ele>
        <time>2022-03-21T12:34:34Z</time>
      </trkpt>
      <trkpt lat="45.28597" lon="3.75296">
        <ele>1090.35</ele>
        <time>2022-03-21T12:34:39Z</time>
      </trkpt>
      <trkpt lat="45.28677" lon="3.75354">
        <ele>1092.1</ele>
        <time>2022-03-21T12:34:44Z</time>
      </trkpt>
      <trkpt lat="45.28976" lon="3.75616">
        <ele>1085.28</ele>
        <time>2022-03-21T12:34:48Z</time>
      </trkpt>
      <trkpt lat="45.29007" lon="3.7565">
        <ele>1083.55</ele>
        <time>2022-03-21T12:34:53Z</time>
      </trkpt>
      <trkpt lat="45.29034" lon="3.75685">
        <ele>1083.11</ele>
        <time>2022-03-21T12:34:58Z</time>
      </trkpt>
      <trkpt lat="45.29061" lon="3.75732">
        <ele>1080.17</ele>
        <time>2022-03-21T12:35:02Z</time>
      </trkpt>
      <trkpt lat="45.29081" lon="3.75773">
        <ele>1078.16</ele>
        <time>2022-03-21T12:35:07Z</time>
      </trkpt>
      <trkpt lat="45.29154" lon="3.7595">
        <ele>1068.35</ele>
        <time>2022-03-21T12:35:12Z</time>
      </trkpt>
      <trkpt lat="45.29166" lon="3.75972">
        <ele>1067.33</ele>
        <time>2022-03-21T12:35:16Z</time>
      </trkpt>
      <trkpt lat="45.29183" lon="3.76">
        <ele>1066.17</ele>
        <time>2022-03-21T12:35:21Z</time>
      </trkpt>
      <trkpt lat="45.29199" lon="3.7602">
        <ele>1063.9</ele>
        <time>2022-03-21T12:35:26Z</time>
      </trkpt>
      <trkpt lat="45.29221" lon="3.76044">
        <ele>1061.84</ele>
        <time>2022-03-21T12:35:31Z</time>
      </trkpt>
      <trkpt lat="45.29249" lon="3.76068">
        <ele>1059.11</ele>
        <time>2022-03-21T12:35:35Z</time>
      </trkpt>
      <trkpt lat="45.29265" lon="3.7608">
        <ele>1058.21</ele>
        <time>2022-03-21T12:35:40Z</time>
      </trkpt>
      <trkpt lat="45.29298" lon="3.76096">
        <ele>1056.04</ele>
        <time>2022-03-21T12:35:45Z</time>
      </trkpt>
      <trkpt lat="45.2934" lon="3.76108">
        <ele>1053.22</ele>
        <time>2022-03-21T12:35:49Z</time>
      </trkpt>
      <trkpt lat="45.29624" lon="3.76132">
        <ele>1055.2</ele>
        <time>2022-03-21T12:35:54Z</time>
      </trkpt>
      <trkpt lat="45.29651" lon="3.76138">
        <ele>1055.45</ele>
        <time>2022-03-21T12:35:59Z</time>
      </trkpt>
      <trkpt lat="45.29674" lon="3.76147">
        <ele>1056.5</ele>
        <time>2022-03-21T12:36:04Z</time>
      </trkpt>
      <trkpt lat="45.29709" lon="3.76172">
        <ele>1057.85</ele>
        <time>2022-03-21T12:36:08Z</time>
      </trkpt>
      <trkpt lat="45.29844" lon="3.76274">
        <ele>1057.9</ele>
        <time>2022-03-21T12:36:13Z</time>
      </trkpt>
      <trkpt lat="45.29863" lon="3.76286">
        <ele>1056.66</ele>
        <time>2022-03-21T12:36:18Z</time>
      </trkpt>
      <trkpt lat="45.29877" lon="3.76291">
        <ele>1055.96</ele>
        <time>2022-03-21T12:36:22Z</time>
      </trkpt>
      <trkpt lat="45.29901" lon="3.7629">
        <ele>1053.88</ele>
        <time>2022-03-21T12:36:27Z</time>
      </trkpt>
      <trkpt lat="45.29921" lon="3.7628">
        <ele>1052.02</ele>
        <time>2022-03-21T12:36:32Z</time>
      </trkpt>
      <trkpt lat="45.29945" lon="3.76256">
        <ele>1050.28</ele>
        <time>2022-03-21T12:36:37Z</time>
      </trkpt>
      <trkpt lat="45.30008" lon="3.76184">
        <ele>1047.72</ele>
        <time>2022-03-21T12:36:41Z</time>
      </trkpt>
      <trkpt lat="45.30019" lon="3.76176">
        <ele>1046.88</ele>
        <time>2022-03-21T12:36:46Z</time>
      </trkpt>
      <trkpt lat="45.3003" lon="3.76174">
        <ele>1045.79</ele>
        <time>2022-03-21T12:36:51Z</time>
      </trkpt>
      <trkpt lat="45.30039" lon="3.76176">
        <ele>1045.09</ele>
        <time>2022-03-21T12:36:55Z</time>
      </trkpt>
      <trkpt lat="45.30047" lon="3.76186">
        <ele>1044.13</ele>
        <time>2022-03-21T12:37:00Z</time>
      </trkpt>
      <trkpt lat="45.30051" lon="3.76202">
        <ele>1043.17</ele>
        <time>2022-03-21T12:37:05Z</time>
      </trkpt>
      <trkpt lat="45.30048" lon="3.76227">
        <ele>1042.59</ele>
        <time>2022-03-21T12:37:10Z</time>
      </trkpt>
      <trkpt lat="45.30042" lon="3.76254">
        <ele>1041.78</ele>
        <time>2022-03-21T12:37:14Z</time>
      </trkpt>
      <trkpt lat="45.30028" lon="3.76333">
        <ele>1037.98</ele>
        <time>2022-03-21T12:37:19Z</time>
      </trkpt>
      <trkpt lat="45.30028" lon="3.76353">
        <ele>1037.31</ele>
        <time>2022-03-21T12:37:24Z</time>
      </trkpt>
      <trkpt lat="45.30032" lon="3.76372">
        <ele>1036.7</ele>
        <time>2022-03-21T12:37:28Z</time>
      </trkpt>
      <trkpt lat="45.30041" lon="3.76384">
        <ele>1036.07</ele>
        <time>2022-03-21T12:37:33Z</time>
      </trkpt>
      <trkpt lat="45.30052" lon="3.76393">
        <ele>1035.11</ele>
        <time>2022-03-21T12:37:38Z</time>
      </trkpt>
      <trkpt lat="45.30064" lon="3.76397">
        <ele>1034.31</ele>
        <time>2022-03-21T12:37:43Z</time>
      </trkpt>
      <trkpt lat="45.30111" lon="3.76407">
        <ele>1031.72</ele>
        <time>2022-03-21T12:37:47Z</time>
      </trkpt>
      <trkpt lat="45.30128" lon="3.76414">
        <ele>1031.22</ele>
        <time>2022-03-21T12:37:52Z</time>
      </trkpt>
      <trkpt lat="45.30151" lon="3.76433">
        <ele>1030.42</ele>
        <time>2022-03-21T12:37:57Z</time>
      </trkpt>
      <trkpt lat="45.30181" lon="3.76468">
        <ele>1029.08</ele>
        <time>2022-03-21T12:38:01Z</time>
      </trkpt>
      <trkpt lat="45.3021" lon="3.76511">
        <ele>1028.66</ele>
        <time>2022-03-21T12:38:06Z</time>
      </trkpt>
      <trkpt lat="45.30221" lon="3.76533">
        <ele>1029.01</ele>
        <time>2022-03-21T12:38:11Z</time>
      </trkpt>
      <trkpt lat="45.30236" lon="3.76575">
        <ele>1028.02</ele>
        <time>2022-03-21T12:38:16Z</time>
      </trkpt>
      <trkpt lat="45.30247" lon="3.76633">
        <ele>1024.65</ele>
        <time>2022-03-21T12:38:20Z</time>
      </trkpt>
      <trkpt lat="45.30268" lon="3.76764">
        <ele>1021.21</ele>
        <time>2022-03-21T12:38:25Z</time>
      </trkpt>
      <trkpt lat="45.30346" lon="3.7726">
        <ele>1002.67</ele>
        <time>2022-03-21T12:38:30Z</time>
      </trkpt>
      <trkpt lat="45.30386" lon="3.77387">
        <ele>1002.68</ele>
        <time>2022-03-21T12:38:34Z</time>
      </trkpt>
      <trkpt lat="45.3045" lon="3.7761">
        <ele>985.71</ele>
        <time>2022-03-21T12:38:39Z</time>
      </trkpt>
      <trkpt lat="45.3046" lon="3.77649">
        <ele>982.8</ele>
        <time>2022-03-21T12:38:44Z</time>
      </trkpt>
      <trkpt lat="45.30465" lon="3.77677">
        <ele>981.28</ele>
        <time>2022-03-21T12:38:48Z</time>
      </trkpt>
      <trkpt lat="45.30467" lon="3.77702">
        <ele>981.08</ele>
        <time>2022-03-21T12:38:53Z</time>
      </trkpt>
      <trkpt lat="45.30466" lon="3.77738">
        <ele>980.1</ele>
        <time>2022-03-21T12:38:58Z</time>
      </trkpt>
      <trkpt lat="45.30461" lon="3.77775">
        <ele>978.31</ele>
        <time>2022-03-21T12:39:03Z</time>
      </trkpt>
      <trkpt lat="45.30444" lon="3.77859">
        <ele>976.08</ele>
        <time>2022-03-21T12:39:07Z</time>
      </trkpt>
      <trkpt lat="45.3044" lon="3.77893">
        <ele>974.69</ele>
        <time>2022-03-21T12:39:12Z</time>
      </trkpt>
      <trkpt lat="45.30439" lon="3.77945">
        <ele>975.44</ele>
        <time>2022-03-21T12:39:17Z</time>
      </trkpt>
      <trkpt lat="45.30459" lon="3.78181">
        <ele>960.22</ele>
        <time>2022-03-21T12:39:21Z</time>
      </trkpt>
      <trkpt lat="45.30501" lon="3.7862">
        <ele>957</ele>
        <time>2022-03-21T12:39:26Z</time>
      </trkpt>
      <trkpt lat="45.30517" lon="3.7881">
        <ele>952.31</ele>
        <time>2022-03-21T12:39:31Z</time>
      </trkpt>
      <trkpt lat="45.30519" lon="3.78988">
        <ele>945.96</ele>
        <time>2022-03-21T12:39:36Z</time>
      </trkpt>
      <trkpt lat="45.30523" lon="3.79013">
        <ele>945.34</ele>
        <time>2022-03-21T12:39:40Z</time>
      </trkpt>
      <trkpt lat="45.30526" lon="3.79023">
        <ele>945.12</ele>
        <time>2022-03-21T12:39:45Z</time>
      </trkpt>
      <trkpt lat="45.30537" lon="3.79042">
        <ele>943.8</ele>
        <time>2022-03-21T12:39:50Z</time>
      </trkpt>
      <trkpt lat="45.3055" lon="3.79061">
        <ele>942.8</ele>
        <time>2022-03-21T12:39:54Z</time>
      </trkpt>
      <trkpt lat="45.30561" lon="3.79068">
        <ele>942.05</ele>
        <time>2022-03-21T12:39:59Z</time>
      </trkpt>
      <trkpt lat="45.30572" lon="3.7907">
        <ele>940.99</ele>
        <time>2022-03-21T12:40:04Z</time>
      </trkpt>
      <trkpt lat="45.30598" lon="3.79066">
        <ele>938.67</ele>
        <time>2022-03-21T12:40:09Z</time>
      </trkpt>
      <trkpt lat="45.30628" lon="3.79045">
        <ele>937.15</ele>
        <time>2022-03-21T12:40:13Z</time>
      </trkpt>
      <trkpt lat="45.3067" lon="3.79011">
        <ele>935.97</ele>
        <time>2022-03-21T12:40:18Z</time>
      </trkpt>
      <trkpt lat="45.30836" lon="3.78869">
        <ele>933.11</ele>
        <time>2022-03-21T12:40:23Z</time>
      </trkpt>
      <trkpt lat="45.3088" lon="3.78841">
        <ele>936.05</ele>
        <time>2022-03-21T12:40:27Z</time>
      </trkpt>
      <trkpt lat="45.30901" lon="3.78834">
        <ele>938.29</ele>
        <time>2022-03-21T12:40:32Z</time>
      </trkpt>
      <trkpt lat="45.30921" lon="3.78832">
        <ele>940.37</ele>
        <time>2022-03-21T12:40:37Z</time>
      </trkpt>
      <trkpt lat="45.30937" lon="3.78836">
        <ele>942.29</ele>
        <time>2022-03-21T12:40:42Z</time>
      </trkpt>
      <trkpt lat="45.30949" lon="3.78842">
        <ele>943.58</ele>
        <time>2022-03-21T12:40:46Z</time>
      </trkpt>
      <trkpt lat="45.30962" lon="3.78854">
        <ele>944.56</ele>
        <time>2022-03-21T12:40:51Z</time>
      </trkpt>
      <trkpt lat="45.30988" lon="3.7889">
        <ele>946.57</ele>
        <time>2022-03-21T12:40:56Z</time>
      </trkpt>
      <trkpt lat="45.31005" lon="3.78924">
        <ele>948.65</ele>
        <time>2022-03-21T12:41:00Z</time>
      </trkpt>
      <trkpt lat="45.31015" lon="3.78955">
        <ele>950.32</ele>
        <time>2022-03-21T12:41:05Z</time>
      </trkpt>
      <trkpt lat="45.31071" lon="3.79174">
        <ele>953.89</ele>
        <time>2022-03-21T12:41:10Z</time>
      </trkpt>
      <trkpt lat="45.31081" lon="3.79204">
        <ele>953.93</ele>
        <time>2022-03-21T12:41:15Z</time>
      </trkpt>
      <trkpt lat="45.31092" lon="3.79228">
        <ele>953.7</ele>
        <time>2022-03-21T12:41:19Z</time>
      </trkpt>
      <trkpt lat="45.31123" lon="3.79283">
        <ele>952.01</ele>
        <time>2022-03-21T12:41:24Z</time>
      </trkpt>
      <trkpt lat="45.3116" lon="3.79333">
        <ele>950.8</ele>
        <time>2022-03-21T12:41:29Z</time>
      </trkpt>
      <trkpt lat="45.31216" lon="3.79396">
        <ele>948.95</ele>
        <time>2022-03-21T12:41:33Z</time>
      </trkpt>
      <trkpt lat="45.3123" lon="3.79414">
        <ele>949.56</ele>
        <time>2022-03-21T12:41:38Z</time>
      </trkpt>
      <trkpt lat="45.31251" lon="3.79459">
        <ele>951.48</ele>
        <time>2022-03-21T12:41:43Z</time>
      </trkpt>
      <trkpt lat="45.313" lon="3.7958">
        <ele>950.98</ele>
        <time>2022-03-21T12:41:47Z</time>
      </trkpt>
      <trkpt lat="45.31429" lon="3.79968">
        <ele>937.55</ele>
        <time>2022-03-21T12:41:52Z</time>
      </trkpt>
      <trkpt lat="45.31444" lon="3.80007">
        <ele>938.51</ele>
        <time>2022-03-21T12:41:57Z</time>
      </trkpt>
      <trkpt lat="45.31466" lon="3.80048">
        <ele>941.43</ele>
        <time>2022-03-21T12:42:02Z</time>
      </trkpt>
      <trkpt lat="45.31528" lon="3.80145">
        <ele>947.7</ele>
        <time>2022-03-21T12:42:06Z</time>
      </trkpt>
      <trkpt lat="45.31575" lon="3.80211">
        <ele>953.86</ele>
        <time>2022-03-21T12:42:11Z</time>
      </trkpt>
      <trkpt lat="45.31637" lon="3.80281">
        <ele>954.15</ele>
        <time>2022-03-21T12:42:16Z</time>
      </trkpt>
      <trkpt lat="45.31708" lon="3.80366">
        <ele>957.33</ele>
        <time>2022-03-21T12:42:20Z</time>
      </trkpt>
      <trkpt lat="45.31831" lon="3.80549">
        <ele>953.83</ele>
        <time>2022-03-21T12:42:25Z</time>
      </trkpt>
      <trkpt lat="45.3186" lon="3.80588">
        <ele>953.51</ele>
        <time>2022-03-21T12:42:30Z</time>
      </trkpt>
      <trkpt lat="45.31888" lon="3.8062">
        <ele>952.41</ele>
        <time>2022-03-21T12:42:35Z</time>
      </trkpt>
      <trkpt lat="45.31955" lon="3.80682">
        <ele>948.8</ele>
        <time>2022-03-21T12:42:39Z</time>
      </trkpt>
      <trkpt lat="45.31984" lon="3.80717">
        <ele>946.53</ele>
        <time>2022-03-21T12:42:44Z</time>
      </trkpt>
      <trkpt lat="45.32003" lon="3.80746">
        <ele>944.89</ele>
        <time>2022-03-21T12:42:49Z</time>
      </trkpt>
      <trkpt lat="45.32032" lon="3.80799">
        <ele>943.05</ele>
        <time>2022-03-21T12:42:53Z</time>
      </trkpt>
      <trkpt lat="45.32332" lon="3.81358">
        <ele>924.91</ele>
        <time>2022-03-21T12:42:58Z</time>
      </trkpt>
      <trkpt lat="45.32349" lon="3.81393">
        <ele>924.95</ele>
        <time>2022-03-21T12:43:03Z</time>
      </trkpt>
      <trkpt lat="45.32349" lon="3.81393">
        <ele>924.95</ele>
        <time>2022-03-21T12:43:03Z</time>
      </trkpt>
      <trkpt lat="45.32361" lon="3.81426">
        <ele>925</ele>
        <time>2022-03-21T12:43:10Z</time>
      </trkpt>
      <trkpt lat="45.32369" lon="3.81463">
        <ele>925.29</ele>
        <time>2022-03-21T12:43:17Z</time>
      </trkpt>
      <trkpt lat="45.32379" lon="3.81561">
        <ele>920.51</ele>
        <time>2022-03-21T12:43:24Z</time>
      </trkpt>
      <trkpt lat="45.32381" lon="3.81585">
        <ele>920.05</ele>
        <time>2022-03-21T12:43:31Z</time>
      </trkpt>
      <trkpt lat="45.32398" lon="3.81786">
        <ele>926.1</ele>
        <time>2022-03-21T12:43:38Z</time>
      </trkpt>
      <trkpt lat="45.32473" lon="3.82749">
        <ele>950.94</ele>
        <time>2022-03-21T12:43:45Z</time>
      </trkpt>
      <trkpt lat="45.32479" lon="3.82793">
        <ele>953.19</ele>
        <time>2022-03-21T12:43:52Z</time>
      </trkpt>
      <trkpt lat="45.32488" lon="3.82831">
        <ele>954.35</ele>
        <time>2022-03-21T12:43:59Z</time>
      </trkpt>
      <trkpt lat="45.32498" lon="3.82869">
        <ele>955.31</ele>
        <time>2022-03-21T12:44:06Z</time>
      </trkpt>
      <trkpt lat="45.32512" lon="3.82908">
        <ele>956.3</ele>
        <time>2022-03-21T12:44:13Z</time>
      </trkpt>
      <trkpt lat="45.32531" lon="3.82951">
        <ele>955.75</ele>
        <time>2022-03-21T12:44:20Z</time>
      </trkpt>
      <trkpt lat="45.32556" lon="3.82999">
        <ele>954.03</ele>
        <time>2022-03-21T12:44:27Z</time>
      </trkpt>
      <trkpt lat="45.3261" lon="3.83088">
        <ele>953.18</ele>
        <time>2022-03-21T12:44:34Z</time>
      </trkpt>
      <trkpt lat="45.32743" lon="3.83315">
        <ele>956.48</ele>
        <time>2022-03-21T12:44:41Z</time>
      </trkpt>
      <trkpt lat="45.32756" lon="3.83339">
        <ele>954.6</ele>
        <time>2022-03-21T12:44:48Z</time>
      </trkpt>
      <trkpt lat="45.32774" lon="3.83387">
        <ele>950.23</ele>
        <time>2022-03-21T12:44:56Z</time>
      </trkpt>
      <trkpt lat="45.32784" lon="3.83421">
        <ele>950.89</ele>
        <time>2022-03-21T12:45:03Z</time>
      </trkpt>
      <trkpt lat="45.32854" lon="3.83657">
        <ele>941.51</ele>
        <time>2022-03-21T12:45:10Z</time>
      </trkpt>
      <trkpt lat="45.32953" lon="3.83991">
        <ele>939.34</ele>
        <time>2022-03-21T12:45:17Z</time>
      </trkpt>
      <trkpt lat="45.32967" lon="3.84049">
        <ele>937.04</ele>
        <time>2022-03-21T12:45:24Z</time>
      </trkpt>
      <trkpt lat="45.32995" lon="3.84197">
        <ele>932.57</ele>
        <time>2022-03-21T12:45:31Z</time>
      </trkpt>
      <trkpt lat="45.33029" lon="3.84393">
        <ele>922.71</ele>
        <time>2022-03-21T12:45:38Z</time>
      </trkpt>
      <trkpt lat="45.3303" lon="3.84416">
        <ele>920.99</ele>
        <time>2022-03-21T12:45:45Z</time>
      </trkpt>
      <trkpt lat="45.33035" lon="3.84455">
        <ele>919.48</ele>
        <time>2022-03-21T12:45:52Z</time>
      </trkpt>
      <trkpt lat="45.33038" lon="3.84496">
        <ele>918.77</ele>
        <time>2022-03-21T12:45:59Z</time>
      </trkpt>
      <trkpt lat="45.33037" lon="3.84518">
        <ele>918.65</ele>
        <time>2022-03-21T12:46:06Z</time>
      </trkpt>
      <trkpt lat="45.33034" lon="3.84529">
        <ele>918.4</ele>
        <time>2022-03-21T12:46:13Z</time>
      </trkpt>
      <trkpt lat="45.33028" lon="3.8454">
        <ele>918</ele>
        <time>2022-03-21T12:46:20Z</time>
      </trkpt>
      <trkpt lat="45.33019" lon="3.84548">
        <ele>917.61</ele>
        <time>2022-03-21T12:46:27Z</time>
      </trkpt>
      <trkpt lat="45.33096" lon="3.84606">
        <ele>915</ele>
        <time>2022-03-21T12:46:37Z</time>
      </trkpt>
      <trkpt lat="45.33106" lon="3.84612">
        <ele>915.68</ele>
        <time>2022-03-21T12:46:47Z</time>
      </trkpt>
      <trkpt lat="45.33125" lon="3.84615">
        <ele>916.62</ele>
        <time>2022-03-21T12:46:57Z</time>
      </trkpt>
      <trkpt lat="45.33139" lon="3.84628">
        <ele>917.58</ele>
        <time>2022-03-21T12:47:07Z</time>
      </trkpt>
      <trkpt lat="45.33156" lon="3.84657">
        <ele>917.39</ele>
        <time>2022-03-21T12:47:18Z</time>
      </trkpt>
      <trkpt lat="45.33215" lon="3.8478">
        <ele>921.23</ele>
        <time>2022-03-21T12:47:28Z</time>
      </trkpt>
      <trkpt lat="45.33239" lon="3.84832">
        <ele>923.15</ele>
        <time>2022-03-21T12:47:38Z</time>
      </trkpt>
      <trkpt lat="45.33294" lon="3.84945">
        <ele>930.86</ele>
        <time>2022-03-21T12:47:48Z</time>
      </trkpt>
      <trkpt lat="45.33341" lon="3.85041">
        <ele>935.64</ele>
        <time>2022-03-21T12:47:58Z</time>
      </trkpt>
      <trkpt lat="45.33362" lon="3.85088">
        <ele>936.87</ele>
        <time>2022-03-21T12:48:08Z</time>
      </trkpt>
      <trkpt lat="45.33363" lon="3.85097">
        <ele>936.64</ele>
        <time>2022-03-21T12:48:18Z</time>
      </trkpt>
      <trkpt lat="45.33355" lon="3.85252">
        <ele>940.49</ele>
        <time>2022-03-21T12:48:29Z</time>
      </trkpt>
      <trkpt lat="45.33357" lon="3.85264">
        <ele>939.45</ele>
        <time>2022-03-21T12:48:39Z</time>
      </trkpt>
      <trkpt lat="45.33361" lon="3.85274">
        <ele>938.32</ele>
        <time>2022-03-21T12:48:49Z</time>
      </trkpt>
      <trkpt lat="45.33373" lon="3.85286">
        <ele>938.59</ele>
        <time>2022-03-21T12:48:59Z</time>
      </trkpt>
      <trkpt lat="45.33382" lon="3.85289">
        <ele>938.85</ele>
        <time>2022-03-21T12:49:09Z</time>
      </trkpt>
      <trkpt lat="45.334" lon="3.85291">
        <ele>939.77</ele>
        <time>2022-03-21T12:49:19Z</time>
      </trkpt>
      <trkpt lat="45.33431" lon="3.85273">
        <ele>941.59</ele>
        <time>2022-03-21T12:49:29Z</time>
      </trkpt>
      <trkpt lat="45.33445" lon="3.85275">
        <ele>942.09</ele>
        <time>2022-03-21T12:49:40Z</time>
      </trkpt>
      <trkpt lat="45.33462" lon="3.85293">
        <ele>941.16</ele>
        <time>2022-03-21T12:49:50Z</time>
      </trkpt>
      <trkpt lat="45.33668" lon="3.85714">
        <ele>944.65</ele>
        <time>2022-03-21T12:50:00Z</time>
      </trkpt>
      <trkpt lat="45.338" lon="3.85986">
        <ele>954</ele>
        <time>2022-03-21T12:50:10Z</time>
      </trkpt>
      <trkpt lat="45.3414" lon="3.86667">
        <ele>937.61</ele>
        <time>2022-03-21T12:50:20Z</time>
      </trkpt>
      <trkpt lat="45.3414" lon="3.86667">
        <ele>937.61</ele>
        <time>2022-03-21T12:50:20Z</time>
      </trkpt>
      <trkpt lat="45.3434" lon="3.87065">
        <ele>921.23</ele>
        <time>2022-03-21T12:50:24Z</time>
      </trkpt>
      <trkpt lat="45.34361" lon="3.87121">
        <ele>919.61</ele>
        <time>2022-03-21T12:50:27Z</time>
      </trkpt>
      <trkpt lat="45.34369" lon="3.87168">
        <ele>919.9</ele>
        <time>2022-03-21T12:50:31Z</time>
      </trkpt>
      <trkpt lat="45.34371" lon="3.87203">
        <ele>919.63</ele>
        <time>2022-03-21T12:50:35Z</time>
      </trkpt>
      <trkpt lat="45.34371" lon="3.87483">
        <ele>913.81</ele>
        <time>2022-03-21T12:50:38Z</time>
      </trkpt>
      <trkpt lat="45.34376" lon="3.88439">
        <ele>878.11</ele>
        <time>2022-03-21T12:50:42Z</time>
      </trkpt>
      <trkpt lat="45.34379" lon="3.88465">
        <ele>876.7</ele>
        <time>2022-03-21T12:50:46Z</time>
      </trkpt>
      <trkpt lat="45.34389" lon="3.88507">
        <ele>874.49</ele>
        <time>2022-03-21T12:50:50Z</time>
      </trkpt>
      <trkpt lat="45.34408" lon="3.88542">
        <ele>871.49</ele>
        <time>2022-03-21T12:50:53Z</time>
      </trkpt>
      <trkpt lat="45.34421" lon="3.88558">
        <ele>869.79</ele>
        <time>2022-03-21T12:50:57Z</time>
      </trkpt>
      <trkpt lat="45.34541" lon="3.88669">
        <ele>862.12</ele>
        <time>2022-03-21T12:51:01Z</time>
      </trkpt>
      <trkpt lat="45.3456" lon="3.88689">
        <ele>860.44</ele>
        <time>2022-03-21T12:51:04Z</time>
      </trkpt>
      <trkpt lat="45.34572" lon="3.88714">
        <ele>858.61</ele>
        <time>2022-03-21T12:51:08Z</time>
      </trkpt>
      <trkpt lat="45.34579" lon="3.88741">
        <ele>857.44</ele>
        <time>2022-03-21T12:51:12Z</time>
      </trkpt>
      <trkpt lat="45.3458" lon="3.88768">
        <ele>856.35</ele>
        <time>2022-03-21T12:51:15Z</time>
      </trkpt>
      <trkpt lat="45.34576" lon="3.88797">
        <ele>855.33</ele>
        <time>2022-03-21T12:51:19Z</time>
      </trkpt>
      <trkpt lat="45.3457" lon="3.88816">
        <ele>854.35</ele>
        <time>2022-03-21T12:51:23Z</time>
      </trkpt>
      <trkpt lat="45.34492" lon="3.88946">
        <ele>844.89</ele>
        <time>2022-03-21T12:51:26Z</time>
      </trkpt>
      <trkpt lat="45.3448" lon="3.88979">
        <ele>843.17</ele>
        <time>2022-03-21T12:51:30Z</time>
      </trkpt>
      <trkpt lat="45.34477" lon="3.8901">
        <ele>843.04</ele>
        <time>2022-03-21T12:51:34Z</time>
      </trkpt>
      <trkpt lat="45.34482" lon="3.89041">
        <ele>843.91</ele>
        <time>2022-03-21T12:51:38Z</time>
      </trkpt>
      <trkpt lat="45.34491" lon="3.89067">
        <ele>843.35</ele>
        <time>2022-03-21T12:51:41Z</time>
      </trkpt>
      <trkpt lat="45.34532" lon="3.89123">
        <ele>845.89</ele>
        <time>2022-03-21T12:51:45Z</time>
      </trkpt>
      <trkpt lat="45.34562" lon="3.89173">
        <ele>843.31</ele>
        <time>2022-03-21T12:51:49Z</time>
      </trkpt>
      <trkpt lat="45.34605" lon="3.89298">
        <ele>831.6</ele>
        <time>2022-03-21T12:51:52Z</time>
      </trkpt>
      <trkpt lat="45.34616" lon="3.89321">
        <ele>829.05</ele>
        <time>2022-03-21T12:51:56Z</time>
      </trkpt>
      <trkpt lat="45.34626" lon="3.89335">
        <ele>827.86</ele>
        <time>2022-03-21T12:52:00Z</time>
      </trkpt>
      <trkpt lat="45.34641" lon="3.89345">
        <ele>827.19</ele>
        <time>2022-03-21T12:52:03Z</time>
      </trkpt>
      <trkpt lat="45.34686" lon="3.89358">
        <ele>827.04</ele>
        <time>2022-03-21T12:52:07Z</time>
      </trkpt>
      <trkpt lat="45.34702" lon="3.89366">
        <ele>826.69</ele>
        <time>2022-03-21T12:52:11Z</time>
      </trkpt>
      <trkpt lat="45.34713" lon="3.8938">
        <ele>825.85</ele>
        <time>2022-03-21T12:52:14Z</time>
      </trkpt>
      <trkpt lat="45.34769" lon="3.89535">
        <ele>813.76</ele>
        <time>2022-03-21T12:52:18Z</time>
      </trkpt>
      <trkpt lat="45.34782" lon="3.89561">
        <ele>812.93</ele>
        <time>2022-03-21T12:52:22Z</time>
      </trkpt>
      <trkpt lat="45.34795" lon="3.89574">
        <ele>812.9</ele>
        <time>2022-03-21T12:52:25Z</time>
      </trkpt>
      <trkpt lat="45.34809" lon="3.89581">
        <ele>813.31</ele>
        <time>2022-03-21T12:52:29Z</time>
      </trkpt>
      <trkpt lat="45.3484" lon="3.89579">
        <ele>813.82</ele>
        <time>2022-03-21T12:52:33Z</time>
      </trkpt>
      <trkpt lat="45.34865" lon="3.89587">
        <ele>811.86</ele>
        <time>2022-03-21T12:52:37Z</time>
      </trkpt>
      <trkpt lat="45.34883" lon="3.89603">
        <ele>811.4</ele>
        <time>2022-03-21T12:52:40Z</time>
      </trkpt>
      <trkpt lat="45.34894" lon="3.89627">
        <ele>810.87</ele>
        <time>2022-03-21T12:52:44Z</time>
      </trkpt>
      <trkpt lat="45.34899" lon="3.89658">
        <ele>809.37</ele>
        <time>2022-03-21T12:52:48Z</time>
      </trkpt>
      <trkpt lat="45.34897" lon="3.8968">
        <ele>806.95</ele>
        <time>2022-03-21T12:52:51Z</time>
      </trkpt>
      <trkpt lat="45.34893" lon="3.89698">
        <ele>804.26</ele>
        <time>2022-03-21T12:52:55Z</time>
      </trkpt>
      <trkpt lat="45.34883" lon="3.89721">
        <ele>801.41</ele>
        <time>2022-03-21T12:52:59Z</time>
      </trkpt>
      <trkpt lat="45.34868" lon="3.89737">
        <ele>799.84</ele>
        <time>2022-03-21T12:53:02Z</time>
      </trkpt>
      <trkpt lat="45.3474" lon="3.89782">
        <ele>790.86</ele>
        <time>2022-03-21T12:53:06Z</time>
      </trkpt>
      <trkpt lat="45.34678" lon="3.89805">
        <ele>787.88</ele>
        <time>2022-03-21T12:53:10Z</time>
      </trkpt>
      <trkpt lat="45.34666" lon="3.89816">
        <ele>788.01</ele>
        <time>2022-03-21T12:53:13Z</time>
      </trkpt>
      <trkpt lat="45.34654" lon="3.89839">
        <ele>787.34</ele>
        <time>2022-03-21T12:53:17Z</time>
      </trkpt>
      <trkpt lat="45.34628" lon="3.89899">
        <ele>781.72</ele>
        <time>2022-03-21T12:53:21Z</time>
      </trkpt>
      <trkpt lat="45.34624" lon="3.89918">
        <ele>779.83</ele>
        <time>2022-03-21T12:53:24Z</time>
      </trkpt>
      <trkpt lat="45.34626" lon="3.89934">
        <ele>779.12</ele>
        <time>2022-03-21T12:53:28Z</time>
      </trkpt>
      <trkpt lat="45.34657" lon="3.90027">
        <ele>773.41</ele>
        <time>2022-03-21T12:53:32Z</time>
      </trkpt>
      <trkpt lat="45.34668" lon="3.90049">
        <ele>771.51</ele>
        <time>2022-03-21T12:53:36Z</time>
      </trkpt>
      <trkpt lat="45.34679" lon="3.90062">
        <ele>771.45</ele>
        <time>2022-03-21T12:53:39Z</time>
      </trkpt>
      <trkpt lat="45.34699" lon="3.90076">
        <ele>772.16</ele>
        <time>2022-03-21T12:53:43Z</time>
      </trkpt>
      <trkpt lat="45.34746" lon="3.90098">
        <ele>770.74</ele>
        <time>2022-03-21T12:53:47Z</time>
      </trkpt>
      <trkpt lat="45.34756" lon="3.90104">
        <ele>769.85</ele>
        <time>2022-03-21T12:53:50Z</time>
      </trkpt>
      <trkpt lat="45.34765" lon="3.90113">
        <ele>769.64</ele>
        <time>2022-03-21T12:53:54Z</time>
      </trkpt>
      <trkpt lat="45.3477" lon="3.90125">
        <ele>769.41</ele>
        <time>2022-03-21T12:53:58Z</time>
      </trkpt>
      <trkpt lat="45.34778" lon="3.90179">
        <ele>768.44</ele>
        <time>2022-03-21T12:54:01Z</time>
      </trkpt>
      <trkpt lat="45.34784" lon="3.90197">
        <ele>769.17</ele>
        <time>2022-03-21T12:54:05Z</time>
      </trkpt>
      <trkpt lat="45.3483" lon="3.90269">
        <ele>773.4</ele>
        <time>2022-03-21T12:54:09Z</time>
      </trkpt>
      <trkpt lat="45.34869" lon="3.90302">
        <ele>778.33</ele>
        <time>2022-03-21T12:54:12Z</time>
      </trkpt>
      <trkpt lat="45.34885" lon="3.9031">
        <ele>780.1</ele>
        <time>2022-03-21T12:54:16Z</time>
      </trkpt>
      <trkpt lat="45.3498" lon="3.90299">
        <ele>787.96</ele>
        <time>2022-03-21T12:54:20Z</time>
      </trkpt>
      <trkpt lat="45.35006" lon="3.90294">
        <ele>790.06</ele>
        <time>2022-03-21T12:54:24Z</time>
      </trkpt>
      <trkpt lat="45.35095" lon="3.9027">
        <ele>794.55</ele>
        <time>2022-03-21T12:54:27Z</time>
      </trkpt>
      <trkpt lat="45.35139" lon="3.90254">
        <ele>797.1</ele>
        <time>2022-03-21T12:54:31Z</time>
      </trkpt>
      <trkpt lat="45.35173" lon="3.90233">
        <ele>795.89</ele>
        <time>2022-03-21T12:54:35Z</time>
      </trkpt>
      <trkpt lat="45.35202" lon="3.90207">
        <ele>798.15</ele>
        <time>2022-03-21T12:54:38Z</time>
      </trkpt>
      <trkpt lat="45.35231" lon="3.90175">
        <ele>801.99</ele>
        <time>2022-03-21T12:54:42Z</time>
      </trkpt>
      <trkpt lat="45.35253" lon="3.90157">
        <ele>803.7</ele>
        <time>2022-03-21T12:54:46Z</time>
      </trkpt>
      <trkpt lat="45.3532" lon="3.90123">
        <ele>809.82</ele>
        <time>2022-03-21T12:54:49Z</time>
      </trkpt>
      <trkpt lat="45.35351" lon="3.90097">
        <ele>810.24</ele>
        <time>2022-03-21T12:54:53Z</time>
      </trkpt>
      <trkpt lat="45.35383" lon="3.90061">
        <ele>811.34</ele>
        <time>2022-03-21T12:54:57Z</time>
      </trkpt>
      <trkpt lat="45.35404" lon="3.90049">
        <ele>813.92</ele>
        <time>2022-03-21T12:55:00Z</time>
      </trkpt>
      <trkpt lat="45.35555" lon="3.89993">
        <ele>823.39</ele>
        <time>2022-03-21T12:55:04Z</time>
      </trkpt>
      <trkpt lat="45.35629" lon="3.89952">
        <ele>822.45</ele>
        <time>2022-03-21T12:55:08Z</time>
      </trkpt>
      <trkpt lat="45.35725" lon="3.89914">
        <ele>829.53</ele>
        <time>2022-03-21T12:55:11Z</time>
      </trkpt>
      <trkpt lat="45.35781" lon="3.89884">
        <ele>829.56</ele>
        <time>2022-03-21T12:55:15Z</time>
      </trkpt>
      <trkpt lat="45.35804" lon="3.89881">
        <ele>829.07</ele>
        <time>2022-03-21T12:55:19Z</time>
      </trkpt>
      <trkpt lat="45.35825" lon="3.8989">
        <ele>834.36</ele>
        <time>2022-03-21T12:55:23Z</time>
      </trkpt>
      <trkpt lat="45.35838" lon="3.89907">
        <ele>837.29</ele>
        <time>2022-03-21T12:55:26Z</time>
      </trkpt>
      <trkpt lat="45.35847" lon="3.89932">
        <ele>839.64</ele>
        <time>2022-03-21T12:55:30Z</time>
      </trkpt>
      <trkpt lat="45.35846" lon="3.89956">
        <ele>839.75</ele>
        <time>2022-03-21T12:55:34Z</time>
      </trkpt>
      <trkpt lat="45.35838" lon="3.89981">
        <ele>839.09</ele>
        <time>2022-03-21T12:55:37Z</time>
      </trkpt>
      <trkpt lat="45.35825" lon="3.89998">
        <ele>840.58</ele>
        <time>2022-03-21T12:55:41Z</time>
      </trkpt>
      <trkpt lat="45.35813" lon="3.90005">
        <ele>842.53</ele>
        <time>2022-03-21T12:55:45Z</time>
      </trkpt>
      <trkpt lat="45.35692" lon="3.90063">
        <ele>840.83</ele>
        <time>2022-03-21T12:55:48Z</time>
      </trkpt>
      <trkpt lat="45.35671" lon="3.90077">
        <ele>839.97</ele>
        <time>2022-03-21T12:55:52Z</time>
      </trkpt>
      <trkpt lat="45.35654" lon="3.90093">
        <ele>839.69</ele>
        <time>2022-03-21T12:55:56Z</time>
      </trkpt>
      <trkpt lat="45.35636" lon="3.90118">
        <ele>839.69</ele>
        <time>2022-03-21T12:55:59Z</time>
      </trkpt>
      <trkpt lat="45.35572" lon="3.9024">
        <ele>839.6</ele>
        <time>2022-03-21T12:56:03Z</time>
      </trkpt>
      <trkpt lat="45.35563" lon="3.90264">
        <ele>839.5</ele>
        <time>2022-03-21T12:56:07Z</time>
      </trkpt>
      <trkpt lat="45.35555" lon="3.90306">
        <ele>841.06</ele>
        <time>2022-03-21T12:56:11Z</time>
      </trkpt>
      <trkpt lat="45.35536" lon="3.90361">
        <ele>846.57</ele>
        <time>2022-03-21T12:56:15Z</time>
      </trkpt>
      <trkpt lat="45.35454" lon="3.90633">
        <ele>866.43</ele>
        <time>2022-03-21T12:56:20Z</time>
      </trkpt>
      <trkpt lat="45.35448" lon="3.90661">
        <ele>868.65</ele>
        <time>2022-03-21T12:56:25Z</time>
      </trkpt>
      <trkpt lat="45.35442" lon="3.90699">
        <ele>872.17</ele>
        <time>2022-03-21T12:56:30Z</time>
      </trkpt>
      <trkpt lat="45.35432" lon="3.90819">
        <ele>876.49</ele>
        <time>2022-03-21T12:56:35Z</time>
      </trkpt>
      <trkpt lat="45.35427" lon="3.90856">
        <ele>878.32</ele>
        <time>2022-03-21T12:56:40Z</time>
      </trkpt>
      <trkpt lat="45.35421" lon="3.9089">
        <ele>880.02</ele>
        <time>2022-03-21T12:56:45Z</time>
      </trkpt>
      <trkpt lat="45.35382" lon="3.91025">
        <ele>882.35</ele>
        <time>2022-03-21T12:56:50Z</time>
      </trkpt>
      <trkpt lat="45.35372" lon="3.91066">
        <ele>884.15</ele>
        <time>2022-03-21T12:56:55Z</time>
      </trkpt>
      <trkpt lat="45.35367" lon="3.91097">
        <ele>885.32</ele>
        <time>2022-03-21T12:57:00Z</time>
      </trkpt>
      <trkpt lat="45.35365" lon="3.91132">
        <ele>886.88</ele>
        <time>2022-03-21T12:57:05Z</time>
      </trkpt>
      <trkpt lat="45.35366" lon="3.91165">
        <ele>887.94</ele>
        <time>2022-03-21T12:57:10Z</time>
      </trkpt>
      <trkpt lat="45.35497" lon="3.92303">
        <ele>877.3</ele>
        <time>2022-03-21T12:57:15Z</time>
      </trkpt>
      <trkpt lat="45.35518" lon="3.92488">
        <ele>873.57</ele>
        <time>2022-03-21T12:57:20Z</time>
      </trkpt>
      <trkpt lat="45.35521" lon="3.92524">
        <ele>873</ele>
        <time>2022-03-21T12:57:25Z</time>
      </trkpt>
      <trkpt lat="45.3552" lon="3.92551">
        <ele>874.4</ele>
        <time>2022-03-21T12:57:30Z</time>
      </trkpt>
      <trkpt lat="45.35514" lon="3.92587">
        <ele>876.64</ele>
        <time>2022-03-21T12:57:35Z</time>
      </trkpt>
      <trkpt lat="45.35504" lon="3.92617">
        <ele>877.36</ele>
        <time>2022-03-21T12:57:40Z</time>
      </trkpt>
      <trkpt lat="45.3549" lon="3.92641">
        <ele>877.4</ele>
        <time>2022-03-21T12:57:44Z</time>
      </trkpt>
      <trkpt lat="45.35469" lon="3.92664">
        <ele>876.82</ele>
        <time>2022-03-21T12:57:49Z</time>
      </trkpt>
      <trkpt lat="45.35445" lon="3.92684">
        <ele>876.62</ele>
        <time>2022-03-21T12:57:54Z</time>
      </trkpt>
      <trkpt lat="45.35423" lon="3.9271">
        <ele>876.76</ele>
        <time>2022-03-21T12:57:59Z</time>
      </trkpt>
      <trkpt lat="45.3541" lon="3.92736">
        <ele>877.11</ele>
        <time>2022-03-21T12:58:04Z</time>
      </trkpt>
      <trkpt lat="45.35387" lon="3.92804">
        <ele>878</ele>
        <time>2022-03-21T12:58:09Z</time>
      </trkpt>
      <trkpt lat="45.35357" lon="3.92887">
        <ele>879.77</ele>
        <time>2022-03-21T12:58:14Z</time>
      </trkpt>
      <trkpt lat="45.35346" lon="3.9291">
        <ele>880.2</ele>
        <time>2022-03-21T12:58:19Z</time>
      </trkpt>
      <trkpt lat="45.35334" lon="3.92926">
        <ele>880.36</ele>
        <time>2022-03-21T12:58:24Z</time>
      </trkpt>
      <trkpt lat="45.35317" lon="3.92943">
        <ele>879.81</ele>
        <time>2022-03-21T12:58:29Z</time>
      </trkpt>
      <trkpt lat="45.35273" lon="3.92979">
        <ele>879.98</ele>
        <time>2022-03-21T12:58:34Z</time>
      </trkpt>
      <trkpt lat="45.35252" lon="3.93003">
        <ele>881.2</ele>
        <time>2022-03-21T12:58:39Z</time>
      </trkpt>
      <trkpt lat="45.35233" lon="3.93031">
        <ele>881.96</ele>
        <time>2022-03-21T12:58:44Z</time>
      </trkpt>
      <trkpt lat="45.35219" lon="3.93066">
        <ele>882.06</ele>
        <time>2022-03-21T12:58:49Z</time>
      </trkpt>
      <trkpt lat="45.35165" lon="3.93228">
        <ele>884.76</ele>
        <time>2022-03-21T12:58:54Z</time>
      </trkpt>
      <trkpt lat="45.35165" lon="3.93228">
        <ele>884.76</ele>
        <time>2022-03-21T12:58:54Z</time>
      </trkpt>
      <trkpt lat="45.35122" lon="3.93359">
        <ele>886.49</ele>
        <time>2022-03-21T12:58:57Z</time>
      </trkpt>
      <trkpt lat="45.35116" lon="3.9339">
        <ele>887.83</ele>
        <time>2022-03-21T12:59:00Z</time>
      </trkpt>
      <trkpt lat="45.35112" lon="3.93431">
        <ele>889.62</ele>
        <time>2022-03-21T12:59:04Z</time>
      </trkpt>
      <trkpt lat="45.35112" lon="3.93466">
        <ele>890.86</ele>
        <time>2022-03-21T12:59:07Z</time>
      </trkpt>
      <trkpt lat="45.35116" lon="3.93497">
        <ele>891.39</ele>
        <time>2022-03-21T12:59:10Z</time>
      </trkpt>
      <trkpt lat="45.35122" lon="3.93524">
        <ele>890.59</ele>
        <time>2022-03-21T12:59:13Z</time>
      </trkpt>
      <trkpt lat="45.35206" lon="3.93791">
        <ele>870.44</ele>
        <time>2022-03-21T12:59:17Z</time>
      </trkpt>
      <trkpt lat="45.35213" lon="3.93822">
        <ele>870.62</ele>
        <time>2022-03-21T12:59:20Z</time>
      </trkpt>
      <trkpt lat="45.35218" lon="3.93856">
        <ele>870.59</ele>
        <time>2022-03-21T12:59:23Z</time>
      </trkpt>
      <trkpt lat="45.35255" lon="3.94281">
        <ele>857</ele>
        <time>2022-03-21T12:59:27Z</time>
      </trkpt>
      <trkpt lat="45.35271" lon="3.94377">
        <ele>855.58</ele>
        <time>2022-03-21T12:59:30Z</time>
      </trkpt>
      <trkpt lat="45.35288" lon="3.9446">
        <ele>853.63</ele>
        <time>2022-03-21T12:59:33Z</time>
      </trkpt>
      <trkpt lat="45.353" lon="3.94507">
        <ele>853</ele>
        <time>2022-03-21T12:59:36Z</time>
      </trkpt>
      <trkpt lat="45.35311" lon="3.94541">
        <ele>853</ele>
        <time>2022-03-21T12:59:40Z</time>
      </trkpt>
      <trkpt lat="45.35328" lon="3.94578">
        <ele>852.21</ele>
        <time>2022-03-21T12:59:43Z</time>
      </trkpt>
      <trkpt lat="45.35425" lon="3.9476">
        <ele>854.5</ele>
        <time>2022-03-21T12:59:46Z</time>
      </trkpt>
      <trkpt lat="45.3544" lon="3.94796">
        <ele>854.94</ele>
        <time>2022-03-21T12:59:50Z</time>
      </trkpt>
      <trkpt lat="45.35459" lon="3.9485">
        <ele>855.5</ele>
        <time>2022-03-21T12:59:53Z</time>
      </trkpt>
      <trkpt lat="45.35469" lon="3.94889">
        <ele>856.12</ele>
        <time>2022-03-21T12:59:56Z</time>
      </trkpt>
      <trkpt lat="45.35502" lon="3.95037">
        <ele>856.95</ele>
        <time>2022-03-21T12:59:59Z</time>
      </trkpt>
      <trkpt lat="45.35513" lon="3.95123">
        <ele>858.49</ele>
        <time>2022-03-21T13:00:03Z</time>
      </trkpt>
      <trkpt lat="45.35514" lon="3.95171">
        <ele>860.03</ele>
        <time>2022-03-21T13:00:06Z</time>
      </trkpt>
      <trkpt lat="45.35512" lon="3.95274">
        <ele>864.27</ele>
        <time>2022-03-21T13:00:09Z</time>
      </trkpt>
      <trkpt lat="45.35517" lon="3.95445">
        <ele>870.78</ele>
        <time>2022-03-21T13:00:13Z</time>
      </trkpt>
      <trkpt lat="45.35519" lon="3.9546">
        <ele>871.74</ele>
        <time>2022-03-21T13:00:16Z</time>
      </trkpt>
      <trkpt lat="45.35524" lon="3.95471">
        <ele>872.18</ele>
        <time>2022-03-21T13:00:19Z</time>
      </trkpt>
      <trkpt lat="45.35532" lon="3.95478">
        <ele>871.91</ele>
        <time>2022-03-21T13:00:22Z</time>
      </trkpt>
      <trkpt lat="45.35561" lon="3.95488">
        <ele>870.5</ele>
        <time>2022-03-21T13:00:26Z</time>
      </trkpt>
      <trkpt lat="45.35577" lon="3.95498">
        <ele>870.85</ele>
        <time>2022-03-21T13:00:29Z</time>
      </trkpt>
      <trkpt lat="45.35593" lon="3.95508">
        <ele>872.58</ele>
        <time>2022-03-21T13:00:32Z</time>
      </trkpt>
      <trkpt lat="45.35617" lon="3.9552">
        <ele>876.01</ele>
        <time>2022-03-21T13:00:35Z</time>
      </trkpt>
      <trkpt lat="45.35644" lon="3.95529">
        <ele>878.43</ele>
        <time>2022-03-21T13:00:39Z</time>
      </trkpt>
      <trkpt lat="45.35686" lon="3.95552">
        <ele>881.25</ele>
        <time>2022-03-21T13:00:42Z</time>
      </trkpt>
      <trkpt lat="45.35697" lon="3.95565">
        <ele>881.65</ele>
        <time>2022-03-21T13:00:45Z</time>
      </trkpt>
      <trkpt lat="45.35704" lon="3.95581">
        <ele>882.31</ele>
        <time>2022-03-21T13:00:49Z</time>
      </trkpt>
      <trkpt lat="45.35708" lon="3.95603">
        <ele>883.57</ele>
        <time>2022-03-21T13:00:52Z</time>
      </trkpt>
      <trkpt lat="45.35708" lon="3.95627">
        <ele>886.21</ele>
        <time>2022-03-21T13:00:55Z</time>
      </trkpt>
      <trkpt lat="45.35705" lon="3.95655">
        <ele>888.74</ele>
        <time>2022-03-21T13:00:58Z</time>
      </trkpt>
      <trkpt lat="45.35701" lon="3.95673">
        <ele>889.56</ele>
        <time>2022-03-21T13:01:02Z</time>
      </trkpt>
      <trkpt lat="45.35697" lon="3.95702">
        <ele>890.07</ele>
        <time>2022-03-21T13:01:05Z</time>
      </trkpt>
      <trkpt lat="45.357" lon="3.95723">
        <ele>890.64</ele>
        <time>2022-03-21T13:01:08Z</time>
      </trkpt>
      <trkpt lat="45.35732" lon="3.95843">
        <ele>899.36</ele>
        <time>2022-03-21T13:01:12Z</time>
      </trkpt>
      <trkpt lat="45.35732" lon="3.95858">
        <ele>900.42</ele>
        <time>2022-03-21T13:01:15Z</time>
      </trkpt>
      <trkpt lat="45.35731" lon="3.95873">
        <ele>901.27</ele>
        <time>2022-03-21T13:01:18Z</time>
      </trkpt>
      <trkpt lat="45.35717" lon="3.95912">
        <ele>902.64</ele>
        <time>2022-03-21T13:01:21Z</time>
      </trkpt>
      <trkpt lat="45.35691" lon="3.9598">
        <ele>903.16</ele>
        <time>2022-03-21T13:01:25Z</time>
      </trkpt>
      <trkpt lat="45.35675" lon="3.96025">
        <ele>905.04</ele>
        <time>2022-03-21T13:01:28Z</time>
      </trkpt>
      <trkpt lat="45.35599" lon="3.96232">
        <ele>911.71</ele>
        <time>2022-03-21T13:01:31Z</time>
      </trkpt>
      <trkpt lat="45.35587" lon="3.96267">
        <ele>912.62</ele>
        <time>2022-03-21T13:01:35Z</time>
      </trkpt>
      <trkpt lat="45.35582" lon="3.96296">
        <ele>913.63</ele>
        <time>2022-03-21T13:01:38Z</time>
      </trkpt>
      <trkpt lat="45.35578" lon="3.96335">
        <ele>915.23</ele>
        <time>2022-03-21T13:01:41Z</time>
      </trkpt>
      <trkpt lat="45.35583" lon="3.96799">
        <ele>935.28</ele>
        <time>2022-03-21T13:01:44Z</time>
      </trkpt>
      <trkpt lat="45.35585" lon="3.96832">
        <ele>936.63</ele>
        <time>2022-03-21T13:01:48Z</time>
      </trkpt>
      <trkpt lat="45.35603" lon="3.96951">
        <ele>942.52</ele>
        <time>2022-03-21T13:01:51Z</time>
      </trkpt>
      <trkpt lat="45.35603" lon="3.96974">
        <ele>943.58</ele>
        <time>2022-03-21T13:01:54Z</time>
      </trkpt>
      <trkpt lat="45.35602" lon="3.97004">
        <ele>943.7</ele>
        <time>2022-03-21T13:01:57Z</time>
      </trkpt>
      <trkpt lat="45.35583" lon="3.97203">
        <ele>955.37</ele>
        <time>2022-03-21T13:02:01Z</time>
      </trkpt>
      <trkpt lat="45.35567" lon="3.97344">
        <ele>957.01</ele>
        <time>2022-03-21T13:02:04Z</time>
      </trkpt>
      <trkpt lat="45.35561" lon="3.97374">
        <ele>956.11</ele>
        <time>2022-03-21T13:02:07Z</time>
      </trkpt>
      <trkpt lat="45.35554" lon="3.97402">
        <ele>955.52</ele>
        <time>2022-03-21T13:02:11Z</time>
      </trkpt>
      <trkpt lat="45.35544" lon="3.97429">
        <ele>954.56</ele>
        <time>2022-03-21T13:02:14Z</time>
      </trkpt>
      <trkpt lat="45.35466" lon="3.97576">
        <ele>946.52</ele>
        <time>2022-03-21T13:02:17Z</time>
      </trkpt>
      <trkpt lat="45.3545" lon="3.97599">
        <ele>945.6</ele>
        <time>2022-03-21T13:02:20Z</time>
      </trkpt>
      <trkpt lat="45.35394" lon="3.97669">
        <ele>942.24</ele>
        <time>2022-03-21T13:02:24Z</time>
      </trkpt>
      <trkpt lat="45.35379" lon="3.97692">
        <ele>942.53</ele>
        <time>2022-03-21T13:02:27Z</time>
      </trkpt>
      <trkpt lat="45.35366" lon="3.97718">
        <ele>942.87</ele>
        <time>2022-03-21T13:02:30Z</time>
      </trkpt>
      <trkpt lat="45.35355" lon="3.97748">
        <ele>942.59</ele>
        <time>2022-03-21T13:02:34Z</time>
      </trkpt>
      <trkpt lat="45.35342" lon="3.97798">
        <ele>939.73</ele>
        <time>2022-03-21T13:02:37Z</time>
      </trkpt>
      <trkpt lat="45.35286" lon="3.98043">
        <ele>941.58</ele>
        <time>2022-03-21T13:02:40Z</time>
      </trkpt>
      <trkpt lat="45.3528" lon="3.9808">
        <ele>942.23</ele>
        <time>2022-03-21T13:02:43Z</time>
      </trkpt>
      <trkpt lat="45.35245" lon="3.98431">
        <ele>940.26</ele>
        <time>2022-03-21T13:02:47Z</time>
      </trkpt>
      <trkpt lat="45.35243" lon="3.98468">
        <ele>940.72</ele>
        <time>2022-03-21T13:02:50Z</time>
      </trkpt>
      <trkpt lat="45.35244" lon="3.98508">
        <ele>939.72</ele>
        <time>2022-03-21T13:02:53Z</time>
      </trkpt>
      <trkpt lat="45.35253" lon="3.98594">
        <ele>935.54</ele>
        <time>2022-03-21T13:02:57Z</time>
      </trkpt>
      <trkpt lat="45.35261" lon="3.98623">
        <ele>934.73</ele>
        <time>2022-03-21T13:03:00Z</time>
      </trkpt>
      <trkpt lat="45.35289" lon="3.98715">
        <ele>931.67</ele>
        <time>2022-03-21T13:03:03Z</time>
      </trkpt>
      <trkpt lat="45.35329" lon="3.98836">
        <ele>931.09</ele>
        <time>2022-03-21T13:03:06Z</time>
      </trkpt>
      <trkpt lat="45.35345" lon="3.98875">
        <ele>933.43</ele>
        <time>2022-03-21T13:03:10Z</time>
      </trkpt>
      <trkpt lat="45.35445" lon="3.99029">
        <ele>932.96</ele>
        <time>2022-03-21T13:03:13Z</time>
      </trkpt>
      <trkpt lat="45.35518" lon="3.99136">
        <ele>931.16</ele>
        <time>2022-03-21T13:03:16Z</time>
      </trkpt>
      <trkpt lat="45.35528" lon="3.99155">
        <ele>932.16</ele>
        <time>2022-03-21T13:03:20Z</time>
      </trkpt>
      <trkpt lat="45.35535" lon="3.99172">
        <ele>932.79</ele>
        <time>2022-03-21T13:03:23Z</time>
      </trkpt>
      <trkpt lat="45.35541" lon="3.99195">
        <ele>932.97</ele>
        <time>2022-03-21T13:03:26Z</time>
      </trkpt>
      <trkpt lat="45.35565" lon="3.99307">
        <ele>929.64</ele>
        <time>2022-03-21T13:03:29Z</time>
      </trkpt>
      <trkpt lat="45.3557" lon="3.99326">
        <ele>929.67</ele>
        <time>2022-03-21T13:03:33Z</time>
      </trkpt>
      <trkpt lat="45.35579" lon="3.99344">
        <ele>929.5</ele>
        <time>2022-03-21T13:03:36Z</time>
      </trkpt>
      <trkpt lat="45.3561" lon="3.99388">
        <ele>928.01</ele>
        <time>2022-03-21T13:03:39Z</time>
      </trkpt>
      <trkpt lat="45.3562" lon="3.99407">
        <ele>926.38</ele>
        <time>2022-03-21T13:03:42Z</time>
      </trkpt>
      <trkpt lat="45.35648" lon="3.99466">
        <ele>923.99</ele>
        <time>2022-03-21T13:03:46Z</time>
      </trkpt>
      <trkpt lat="45.35796" lon="3.99572">
        <ele>911.68</ele>
        <time>2022-03-21T13:03:49Z</time>
      </trkpt>
      <trkpt lat="45.35818" lon="3.99627">
        <ele>907.64</ele>
        <time>2022-03-21T13:03:52Z</time>
      </trkpt>
      <trkpt lat="45.35822" lon="3.99665">
        <ele>905.13</ele>
        <time>2022-03-21T13:03:56Z</time>
      </trkpt>
      <trkpt lat="45.35814" lon="3.99688">
        <ele>904.75</ele>
        <time>2022-03-21T13:03:59Z</time>
      </trkpt>
      <trkpt lat="45.35773" lon="3.99712">
        <ele>904.72</ele>
        <time>2022-03-21T13:04:02Z</time>
      </trkpt>
      <trkpt lat="45.35661" lon="3.99724">
        <ele>891.22</ele>
        <time>2022-03-21T13:04:05Z</time>
      </trkpt>
      <trkpt lat="45.3564" lon="3.99769">
        <ele>885.7</ele>
        <time>2022-03-21T13:04:09Z</time>
      </trkpt>
      <trkpt lat="45.35623" lon="3.99818">
        <ele>881.82</ele>
        <time>2022-03-21T13:04:12Z</time>
      </trkpt>
      <trkpt lat="45.35635" lon="3.99944">
        <ele>877.71</ele>
        <time>2022-03-21T13:04:15Z</time>
      </trkpt>
      <trkpt lat="45.35679" lon="4.00019">
        <ele>874.53</ele>
        <time>2022-03-21T13:04:19Z</time>
      </trkpt>
      <trkpt lat="45.35748" lon="4.00038">
        <ele>873.42</ele>
        <time>2022-03-21T13:04:22Z</time>
      </trkpt>
      <trkpt lat="45.35781" lon="4.00042">
        <ele>871.02</ele>
        <time>2022-03-21T13:04:25Z</time>
      </trkpt>
      <trkpt lat="45.35806" lon="4.00031">
        <ele>871.17</ele>
        <time>2022-03-21T13:04:28Z</time>
      </trkpt>
      <trkpt lat="45.35829" lon="4.00001">
        <ele>873.91</ele>
        <time>2022-03-21T13:04:32Z</time>
      </trkpt>
      <trkpt lat="45.35839" lon="3.99997">
        <ele>871.63</ele>
        <time>2022-03-21T13:04:35Z</time>
      </trkpt>
      <trkpt lat="45.35844" lon="4.00008">
        <ele>867.03</ele>
        <time>2022-03-21T13:04:38Z</time>
      </trkpt>
      <trkpt lat="45.35841" lon="4.00023">
        <ele>864.57</ele>
        <time>2022-03-21T13:04:42Z</time>
      </trkpt>
      <trkpt lat="45.35796" lon="4.00088">
        <ele>858.33</ele>
        <time>2022-03-21T13:04:45Z</time>
      </trkpt>
      <trkpt lat="45.35767" lon="4.00108">
        <ele>854.82</ele>
        <time>2022-03-21T13:04:48Z</time>
      </trkpt>
      <trkpt lat="45.35743" lon="4.00106">
        <ele>853.34</ele>
        <time>2022-03-21T13:04:51Z</time>
      </trkpt>
      <trkpt lat="45.35705" lon="4.00096">
        <ele>855.27</ele>
        <time>2022-03-21T13:04:55Z</time>
      </trkpt>
      <trkpt lat="45.35697" lon="4.00101">
        <ele>853.99</ele>
        <time>2022-03-21T13:04:58Z</time>
      </trkpt>
      <trkpt lat="45.35698" lon="4.00116">
        <ele>849.06</ele>
        <time>2022-03-21T13:05:01Z</time>
      </trkpt>
      <trkpt lat="45.35715" lon="4.00129">
        <ele>844.27</ele>
        <time>2022-03-21T13:05:05Z</time>
      </trkpt>
      <trkpt lat="45.35753" lon="4.00165">
        <ele>836.76</ele>
        <time>2022-03-21T13:05:08Z</time>
      </trkpt>
      <trkpt lat="45.35775" lon="4.0018">
        <ele>834.48</ele>
        <time>2022-03-21T13:05:11Z</time>
      </trkpt>
      <trkpt lat="45.35795" lon="4.00177">
        <ele>836.15</ele>
        <time>2022-03-21T13:05:14Z</time>
      </trkpt>
      <trkpt lat="45.35814" lon="4.00157">
        <ele>839.35</ele>
        <time>2022-03-21T13:05:18Z</time>
      </trkpt>
      <trkpt lat="45.35821" lon="4.00157">
        <ele>838.09</ele>
        <time>2022-03-21T13:05:21Z</time>
      </trkpt>
      <trkpt lat="45.35825" lon="4.00163">
        <ele>836.32</ele>
        <time>2022-03-21T13:05:24Z</time>
      </trkpt>
      <trkpt lat="45.35824" lon="4.00176">
        <ele>833.42</ele>
        <time>2022-03-21T13:05:28Z</time>
      </trkpt>
      <trkpt lat="45.35824" lon="4.00176">
        <ele>833.42</ele>
        <time>2022-03-21T13:05:28Z</time>
      </trkpt>
      <trkpt lat="45.3582" lon="4.00183">
        <ele>832.99</ele>
        <time>2022-03-21T13:05:30Z</time>
      </trkpt>
      <trkpt lat="45.3579" lon="4.00212">
        <ele>827.02</ele>
        <time>2022-03-21T13:05:33Z</time>
      </trkpt>
      <trkpt lat="45.35771" lon="4.00208">
        <ele>826.36</ele>
        <time>2022-03-21T13:05:36Z</time>
      </trkpt>
      <trkpt lat="45.35749" lon="4.00193">
        <ele>827.43</ele>
        <time>2022-03-21T13:05:39Z</time>
      </trkpt>
      <trkpt lat="45.35731" lon="4.00176">
        <ele>831.8</ele>
        <time>2022-03-21T13:05:42Z</time>
      </trkpt>
      <trkpt lat="45.35719" lon="4.00169">
        <ele>832.91</ele>
        <time>2022-03-21T13:05:45Z</time>
      </trkpt>
      <trkpt lat="45.35714" lon="4.00173">
        <ele>830.88</ele>
        <time>2022-03-21T13:05:48Z</time>
      </trkpt>
      <trkpt lat="45.35712" lon="4.00181">
        <ele>828.36</ele>
        <time>2022-03-21T13:05:51Z</time>
      </trkpt>
      <trkpt lat="45.35715" lon="4.0019">
        <ele>825.79</ele>
        <time>2022-03-21T13:05:54Z</time>
      </trkpt>
      <trkpt lat="45.35758" lon="4.00235">
        <ele>819.11</ele>
        <time>2022-03-21T13:05:57Z</time>
      </trkpt>
      <trkpt lat="45.35791" lon="4.00264">
        <ele>818.9</ele>
        <time>2022-03-21T13:06:00Z</time>
      </trkpt>
      <trkpt lat="45.35792" lon="4.00276">
        <ele>816.99</ele>
        <time>2022-03-21T13:06:03Z</time>
      </trkpt>
      <trkpt lat="45.35786" lon="4.00286">
        <ele>814.77</ele>
        <time>2022-03-21T13:06:06Z</time>
      </trkpt>
      <trkpt lat="45.35764" lon="4.0028">
        <ele>810.93</ele>
        <time>2022-03-21T13:06:09Z</time>
      </trkpt>
      <trkpt lat="45.35709" lon="4.0024">
        <ele>812.14</ele>
        <time>2022-03-21T13:06:12Z</time>
      </trkpt>
      <trkpt lat="45.35695" lon="4.00246">
        <ele>810.1</ele>
        <time>2022-03-21T13:06:15Z</time>
      </trkpt>
      <trkpt lat="45.35679" lon="4.00265">
        <ele>807.47</ele>
        <time>2022-03-21T13:06:18Z</time>
      </trkpt>
      <trkpt lat="45.35664" lon="4.00294">
        <ele>811.55</ele>
        <time>2022-03-21T13:06:21Z</time>
      </trkpt>
      <trkpt lat="45.35639" lon="4.00302">
        <ele>813.7</ele>
        <time>2022-03-21T13:06:24Z</time>
      </trkpt>
      <trkpt lat="45.35589" lon="4.00322">
        <ele>813.19</ele>
        <time>2022-03-21T13:06:27Z</time>
      </trkpt>
      <trkpt lat="45.3556" lon="4.00345">
        <ele>816.15</ele>
        <time>2022-03-21T13:06:29Z</time>
      </trkpt>
      <trkpt lat="45.35508" lon="4.00354">
        <ele>815.38</ele>
        <time>2022-03-21T13:06:32Z</time>
      </trkpt>
      <trkpt lat="45.355" lon="4.00362">
        <ele>817.33</ele>
        <time>2022-03-21T13:06:35Z</time>
      </trkpt>
      <trkpt lat="45.35459" lon="4.00422">
        <ele>827.33</ele>
        <time>2022-03-21T13:06:38Z</time>
      </trkpt>
      <trkpt lat="45.35434" lon="4.00449">
        <ele>828.88</ele>
        <time>2022-03-21T13:06:41Z</time>
      </trkpt>
      <trkpt lat="45.35369" lon="4.00501">
        <ele>835.66</ele>
        <time>2022-03-21T13:06:44Z</time>
      </trkpt>
      <trkpt lat="45.35344" lon="4.00535">
        <ele>837.02</ele>
        <time>2022-03-21T13:06:47Z</time>
      </trkpt>
      <trkpt lat="45.35335" lon="4.00579">
        <ele>840.1</ele>
        <time>2022-03-21T13:06:50Z</time>
      </trkpt>
      <trkpt lat="45.35325" lon="4.0068">
        <ele>845.35</ele>
        <time>2022-03-21T13:06:53Z</time>
      </trkpt>
      <trkpt lat="45.35328" lon="4.00705">
        <ele>845.52</ele>
        <time>2022-03-21T13:06:56Z</time>
      </trkpt>
      <trkpt lat="45.35339" lon="4.00726">
        <ele>846.83</ele>
        <time>2022-03-21T13:06:59Z</time>
      </trkpt>
      <trkpt lat="45.35352" lon="4.00742">
        <ele>848.18</ele>
        <time>2022-03-21T13:07:02Z</time>
      </trkpt>
      <trkpt lat="45.35412" lon="4.00795">
        <ele>850.53</ele>
        <time>2022-03-21T13:07:05Z</time>
      </trkpt>
      <trkpt lat="45.35433" lon="4.00819">
        <ele>851.91</ele>
        <time>2022-03-21T13:07:08Z</time>
      </trkpt>
      <trkpt lat="45.35461" lon="4.00862">
        <ele>855.04</ele>
        <time>2022-03-21T13:07:11Z</time>
      </trkpt>
      <trkpt lat="45.35466" lon="4.00878">
        <ele>856.04</ele>
        <time>2022-03-21T13:07:14Z</time>
      </trkpt>
      <trkpt lat="45.35469" lon="4.00923">
        <ele>856.99</ele>
        <time>2022-03-21T13:07:17Z</time>
      </trkpt>
      <trkpt lat="45.35456" lon="4.00971">
        <ele>857.98</ele>
        <time>2022-03-21T13:07:20Z</time>
      </trkpt>
      <trkpt lat="45.35436" lon="4.00992">
        <ele>859.3</ele>
        <time>2022-03-21T13:07:23Z</time>
      </trkpt>
      <trkpt lat="45.35391" lon="4.01011">
        <ele>860.63</ele>
        <time>2022-03-21T13:07:25Z</time>
      </trkpt>
      <trkpt lat="45.35327" lon="4.01068">
        <ele>865.43</ele>
        <time>2022-03-21T13:07:28Z</time>
      </trkpt>
      <trkpt lat="45.35319" lon="4.01069">
        <ele>865.68</ele>
        <time>2022-03-21T13:07:31Z</time>
      </trkpt>
      <trkpt lat="45.35272" lon="4.01048">
        <ele>867.64</ele>
        <time>2022-03-21T13:07:34Z</time>
      </trkpt>
      <trkpt lat="45.35254" lon="4.01052">
        <ele>868.6</ele>
        <time>2022-03-21T13:07:37Z</time>
      </trkpt>
      <trkpt lat="45.35243" lon="4.01065">
        <ele>868.9</ele>
        <time>2022-03-21T13:07:40Z</time>
      </trkpt>
      <trkpt lat="45.35236" lon="4.01082">
        <ele>869.41</ele>
        <time>2022-03-21T13:07:43Z</time>
      </trkpt>
      <trkpt lat="45.35208" lon="4.0117">
        <ele>875.78</ele>
        <time>2022-03-21T13:07:46Z</time>
      </trkpt>
      <trkpt lat="45.35007" lon="4.01411">
        <ele>882.05</ele>
        <time>2022-03-21T13:07:49Z</time>
      </trkpt>
      <trkpt lat="45.34998" lon="4.01428">
        <ele>881.56</ele>
        <time>2022-03-21T13:07:52Z</time>
      </trkpt>
      <trkpt lat="45.34996" lon="4.01444">
        <ele>880.9</ele>
        <time>2022-03-21T13:07:55Z</time>
      </trkpt>
      <trkpt lat="45.34997" lon="4.01469">
        <ele>878.22</ele>
        <time>2022-03-21T13:07:58Z</time>
      </trkpt>
      <trkpt lat="45.35013" lon="4.01503">
        <ele>876.35</ele>
        <time>2022-03-21T13:08:01Z</time>
      </trkpt>
      <trkpt lat="45.35047" lon="4.01545">
        <ele>876.65</ele>
        <time>2022-03-21T13:08:04Z</time>
      </trkpt>
      <trkpt lat="45.351" lon="4.01601">
        <ele>872.33</ele>
        <time>2022-03-21T13:08:07Z</time>
      </trkpt>
      <trkpt lat="45.35118" lon="4.01634">
        <ele>871.33</ele>
        <time>2022-03-21T13:08:10Z</time>
      </trkpt>
      <trkpt lat="45.35134" lon="4.0169">
        <ele>869.67</ele>
        <time>2022-03-21T13:08:13Z</time>
      </trkpt>
      <trkpt lat="45.35157" lon="4.01748">
        <ele>866.33</ele>
        <time>2022-03-21T13:08:16Z</time>
      </trkpt>
      <trkpt lat="45.35203" lon="4.01817">
        <ele>863.11</ele>
        <time>2022-03-21T13:08:19Z</time>
      </trkpt>
      <trkpt lat="45.35221" lon="4.01827">
        <ele>865.78</ele>
        <time>2022-03-21T13:08:22Z</time>
      </trkpt>
      <trkpt lat="45.35254" lon="4.01837">
        <ele>871.82</ele>
        <time>2022-03-21T13:08:24Z</time>
      </trkpt>
      <trkpt lat="45.35275" lon="4.01858">
        <ele>871.04</ele>
        <time>2022-03-21T13:08:27Z</time>
      </trkpt>
      <trkpt lat="45.35282" lon="4.01887">
        <ele>868.31</ele>
        <time>2022-03-21T13:08:30Z</time>
      </trkpt>
      <trkpt lat="45.35276" lon="4.01917">
        <ele>866.85</ele>
        <time>2022-03-21T13:08:33Z</time>
      </trkpt>
      <trkpt lat="45.35259" lon="4.01942">
        <ele>865.27</ele>
        <time>2022-03-21T13:08:36Z</time>
      </trkpt>
      <trkpt lat="45.35215" lon="4.0198">
        <ele>863.42</ele>
        <time>2022-03-21T13:08:39Z</time>
      </trkpt>
      <trkpt lat="45.35138" lon="4.02038">
        <ele>858.65</ele>
        <time>2022-03-21T13:08:42Z</time>
      </trkpt>
      <trkpt lat="45.35088" lon="4.02098">
        <ele>863.38</ele>
        <time>2022-03-21T13:08:45Z</time>
      </trkpt>
      <trkpt lat="45.3504" lon="4.0216">
        <ele>859.84</ele>
        <time>2022-03-21T13:08:48Z</time>
      </trkpt>
      <trkpt lat="45.35024" lon="4.02168">
        <ele>858.97</ele>
        <time>2022-03-21T13:08:51Z</time>
      </trkpt>
      <trkpt lat="45.34997" lon="4.02161">
        <ele>857.21</ele>
        <time>2022-03-21T13:08:54Z</time>
      </trkpt>
      <trkpt lat="45.34982" lon="4.02156">
        <ele>855.28</ele>
        <time>2022-03-21T13:08:57Z</time>
      </trkpt>
      <trkpt lat="45.34966" lon="4.02154">
        <ele>853.59</ele>
        <time>2022-03-21T13:09:00Z</time>
      </trkpt>
      <trkpt lat="45.34935" lon="4.02166">
        <ele>851.98</ele>
        <time>2022-03-21T13:09:03Z</time>
      </trkpt>
      <trkpt lat="45.34921" lon="4.02184">
        <ele>851.85</ele>
        <time>2022-03-21T13:09:06Z</time>
      </trkpt>
      <trkpt lat="45.3491" lon="4.02209">
        <ele>852.44</ele>
        <time>2022-03-21T13:09:09Z</time>
      </trkpt>
      <trkpt lat="45.34904" lon="4.02231">
        <ele>853.69</ele>
        <time>2022-03-21T13:09:12Z</time>
      </trkpt>
      <trkpt lat="45.34895" lon="4.0225">
        <ele>854.42</ele>
        <time>2022-03-21T13:09:15Z</time>
      </trkpt>
      <trkpt lat="45.34876" lon="4.02264">
        <ele>855.9</ele>
        <time>2022-03-21T13:09:18Z</time>
      </trkpt>
      <trkpt lat="45.34858" lon="4.02267">
        <ele>858.03</ele>
        <time>2022-03-21T13:09:20Z</time>
      </trkpt>
      <trkpt lat="45.34845" lon="4.02261">
        <ele>860.23</ele>
        <time>2022-03-21T13:09:23Z</time>
      </trkpt>
      <trkpt lat="45.34728" lon="4.02175">
        <ele>859.01</ele>
        <time>2022-03-21T13:09:26Z</time>
      </trkpt>
      <trkpt lat="45.34692" lon="4.02159">
        <ele>856.13</ele>
        <time>2022-03-21T13:09:29Z</time>
      </trkpt>
      <trkpt lat="45.34638" lon="4.02151">
        <ele>858.7</ele>
        <time>2022-03-21T13:09:32Z</time>
      </trkpt>
      <trkpt lat="45.34602" lon="4.02156">
        <ele>855.74</ele>
        <time>2022-03-21T13:09:35Z</time>
      </trkpt>
      <trkpt lat="45.34586" lon="4.02164">
        <ele>854.85</ele>
        <time>2022-03-21T13:09:38Z</time>
      </trkpt>
      <trkpt lat="45.34552" lon="4.02189">
        <ele>854.67</ele>
        <time>2022-03-21T13:09:41Z</time>
      </trkpt>
      <trkpt lat="45.3446" lon="4.02274">
        <ele>860.77</ele>
        <time>2022-03-21T13:09:44Z</time>
      </trkpt>
      <trkpt lat="45.34427" lon="4.02317">
        <ele>865.83</ele>
        <time>2022-03-21T13:09:47Z</time>
      </trkpt>
      <trkpt lat="45.34393" lon="4.02356">
        <ele>868.99</ele>
        <time>2022-03-21T13:09:50Z</time>
      </trkpt>
      <trkpt lat="45.34367" lon="4.02421">
        <ele>870.49</ele>
        <time>2022-03-21T13:09:53Z</time>
      </trkpt>
      <trkpt lat="45.34334" lon="4.02512">
        <ele>874.55</ele>
        <time>2022-03-21T13:09:56Z</time>
      </trkpt>
      <trkpt lat="45.34291" lon="4.02802">
        <ele>885.21</ele>
        <time>2022-03-21T13:09:59Z</time>
      </trkpt>
      <trkpt lat="45.3426" lon="4.02926">
        <ele>892.59</ele>
        <time>2022-03-21T13:10:02Z</time>
      </trkpt>
      <trkpt lat="45.34159" lon="4.03191">
        <ele>888.7</ele>
        <time>2022-03-21T13:10:05Z</time>
      </trkpt>
      <trkpt lat="45.34116" lon="4.03346">
        <ele>898.43</ele>
        <time>2022-03-21T13:10:08Z</time>
      </trkpt>
      <trkpt lat="45.34084" lon="4.03528">
        <ele>907.88</ele>
        <time>2022-03-21T13:10:11Z</time>
      </trkpt>
      <trkpt lat="45.34077" lon="4.0358">
        <ele>910.7</ele>
        <time>2022-03-21T13:10:14Z</time>
      </trkpt>
      <trkpt lat="45.34051" lon="4.03738">
        <ele>912.05</ele>
        <time>2022-03-21T13:10:17Z</time>
      </trkpt>
      <trkpt lat="45.34038" lon="4.03793">
        <ele>911.2</ele>
        <time>2022-03-21T13:10:19Z</time>
      </trkpt>
      <trkpt lat="45.33752" lon="4.04475">
        <ele>887.99</ele>
        <time>2022-03-21T13:10:22Z</time>
      </trkpt>
      <trkpt lat="45.33687" lon="4.04561">
        <ele>887.67</ele>
        <time>2022-03-21T13:10:25Z</time>
      </trkpt>
      <trkpt lat="45.33556" lon="4.04658">
        <ele>885.02</ele>
        <time>2022-03-21T13:10:28Z</time>
      </trkpt>
      <trkpt lat="45.33319" lon="4.0483">
        <ele>881.24</ele>
        <time>2022-03-21T13:10:31Z</time>
      </trkpt>
      <trkpt lat="45.33244" lon="4.04902">
        <ele>881.16</ele>
        <time>2022-03-21T13:10:34Z</time>
      </trkpt>
      <trkpt lat="45.33173" lon="4.04971">
        <ele>882.32</ele>
        <time>2022-03-21T13:10:37Z</time>
      </trkpt>
      <trkpt lat="45.32975" lon="4.05178">
        <ele>868.85</ele>
        <time>2022-03-21T13:10:40Z</time>
      </trkpt>
      <trkpt lat="45.32759" lon="4.05408">
        <ele>866.54</ele>
        <time>2022-03-21T13:10:43Z</time>
      </trkpt>
      <trkpt lat="45.32734" lon="4.05442">
        <ele>865.72</ele>
        <time>2022-03-21T13:10:46Z</time>
      </trkpt>
      <trkpt lat="45.32724" lon="4.0548">
        <ele>864.35</ele>
        <time>2022-03-21T13:10:49Z</time>
      </trkpt>
      <trkpt lat="45.32724" lon="4.05831">
        <ele>851.23</ele>
        <time>2022-03-21T13:10:52Z</time>
      </trkpt>
      <trkpt lat="45.32722" lon="4.05853">
        <ele>850.94</ele>
        <time>2022-03-21T13:10:55Z</time>
      </trkpt>
      <trkpt lat="45.3271" lon="4.05903">
        <ele>848.22</ele>
        <time>2022-03-21T13:10:58Z</time>
      </trkpt>
      <trkpt lat="45.32653" lon="4.06123">
        <ele>841.04</ele>
        <time>2022-03-21T13:11:01Z</time>
      </trkpt>
      <trkpt lat="45.32607" lon="4.06291">
        <ele>836.36</ele>
        <time>2022-03-21T13:11:04Z</time>
      </trkpt>
      <trkpt lat="45.32583" lon="4.06335">
        <ele>831.8</ele>
        <time>2022-03-21T13:11:07Z</time>
      </trkpt>
      <trkpt lat="45.32319" lon="4.06659">
        <ele>816.82</ele>
        <time>2022-03-21T13:11:10Z</time>
      </trkpt>
      <trkpt lat="45.32298" lon="4.067">
        <ele>818.29</ele>
        <time>2022-03-21T13:11:13Z</time>
      </trkpt>
      <trkpt lat="45.32301" lon="4.06755">
        <ele>819.37</ele>
        <time>2022-03-21T13:11:16Z</time>
      </trkpt>
      <trkpt lat="45.32355" lon="4.07197">
        <ele>820.08</ele>
        <time>2022-03-21T13:11:18Z</time>
      </trkpt>
      <trkpt lat="45.3236" lon="4.07243">
        <ele>820.59</ele>
        <time>2022-03-21T13:11:21Z</time>
      </trkpt>
      <trkpt lat="45.32348" lon="4.07283">
        <ele>821.18</ele>
        <time>2022-03-21T13:11:24Z</time>
      </trkpt>
      <trkpt lat="45.32246" lon="4.07459">
        <ele>819.53</ele>
        <time>2022-03-21T13:11:27Z</time>
      </trkpt>
      <trkpt lat="45.32214" lon="4.07519">
        <ele>820.48</ele>
        <time>2022-03-21T13:11:30Z</time>
      </trkpt>
      <trkpt lat="45.32097" lon="4.07722">
        <ele>809.48</ele>
        <time>2022-03-21T13:11:33Z</time>
      </trkpt>
      <trkpt lat="45.32072" lon="4.07749">
        <ele>808.99</ele>
        <time>2022-03-21T13:11:36Z</time>
      </trkpt>
      <trkpt lat="45.32007" lon="4.07782">
        <ele>806.34</ele>
        <time>2022-03-21T13:11:39Z</time>
      </trkpt>
      <trkpt lat="45.31997" lon="4.07782">
        <ele>805.73</ele>
        <time>2022-03-21T13:11:42Z</time>
      </trkpt>
      <trkpt lat="45.31987" lon="4.07771">
        <ele>805.29</ele>
        <time>2022-03-21T13:11:45Z</time>
      </trkpt>
      <trkpt lat="45.3196" lon="4.07724">
        <ele>802.98</ele>
        <time>2022-03-21T13:11:48Z</time>
      </trkpt>
      <trkpt lat="45.31951" lon="4.07706">
        <ele>801.83</ele>
        <time>2022-03-21T13:11:51Z</time>
      </trkpt>
      <trkpt lat="45.31932" lon="4.0769">
        <ele>800.15</ele>
        <time>2022-03-21T13:11:54Z</time>
      </trkpt>
      <trkpt lat="45.31886" lon="4.07668">
        <ele>795.95</ele>
        <time>2022-03-21T13:11:57Z</time>
      </trkpt>
      <trkpt lat="45.31861" lon="4.07661">
        <ele>793.3</ele>
        <time>2022-03-21T13:12:00Z</time>
      </trkpt>
      <trkpt lat="45.31846" lon="4.07671">
        <ele>791.03</ele>
        <time>2022-03-21T13:12:03Z</time>
      </trkpt>
      <trkpt lat="45.3183" lon="4.07693">
        <ele>789.87</ele>
        <time>2022-03-21T13:12:06Z</time>
      </trkpt>
      <trkpt lat="45.31815" lon="4.07741">
        <ele>793.17</ele>
        <time>2022-03-21T13:12:09Z</time>
      </trkpt>
      <trkpt lat="45.31804" lon="4.07766">
        <ele>793.82</ele>
        <time>2022-03-21T13:12:12Z</time>
      </trkpt>
      <trkpt lat="45.31792" lon="4.07774">
        <ele>792.15</ele>
        <time>2022-03-21T13:12:14Z</time>
      </trkpt>
      <trkpt lat="45.31688" lon="4.0781">
        <ele>785.52</ele>
        <time>2022-03-21T13:12:17Z</time>
      </trkpt>
      <trkpt lat="45.31656" lon="4.07813">
        <ele>784.17</ele>
        <time>2022-03-21T13:12:20Z</time>
      </trkpt>
      <trkpt lat="45.31627" lon="4.07799">
        <ele>780.65</ele>
        <time>2022-03-21T13:12:23Z</time>
      </trkpt>
      <trkpt lat="45.3157" lon="4.07743">
        <ele>775.76</ele>
        <time>2022-03-21T13:12:26Z</time>
      </trkpt>
      <trkpt lat="45.31529" lon="4.07706">
        <ele>772.09</ele>
        <time>2022-03-21T13:12:29Z</time>
      </trkpt>
      <trkpt lat="45.31488" lon="4.0768">
        <ele>768</ele>
        <time>2022-03-21T13:12:32Z</time>
      </trkpt>
      <trkpt lat="45.31462" lon="4.07679">
        <ele>768.84</ele>
        <time>2022-03-21T13:12:35Z</time>
      </trkpt>
      <trkpt lat="45.31438" lon="4.07692">
        <ele>770.03</ele>
        <time>2022-03-21T13:12:38Z</time>
      </trkpt>
      <trkpt lat="45.31415" lon="4.07717">
        <ele>773.03</ele>
        <time>2022-03-21T13:12:41Z</time>
      </trkpt>
      <trkpt lat="45.31386" lon="4.0773">
        <ele>770.89</ele>
        <time>2022-03-21T13:12:44Z</time>
      </trkpt>
      <trkpt lat="45.31359" lon="4.07735">
        <ele>768.15</ele>
        <time>2022-03-21T13:12:47Z</time>
      </trkpt>
      <trkpt lat="45.31337" lon="4.07727">
        <ele>765.04</ele>
        <time>2022-03-21T13:12:50Z</time>
      </trkpt>
      <trkpt lat="45.31307" lon="4.07696">
        <ele>762.07</ele>
        <time>2022-03-21T13:12:53Z</time>
      </trkpt>
      <trkpt lat="45.31294" lon="4.07689">
        <ele>762.69</ele>
        <time>2022-03-21T13:12:56Z</time>
      </trkpt>
      <trkpt lat="45.31266" lon="4.07682">
        <ele>764.39</ele>
        <time>2022-03-21T13:12:59Z</time>
      </trkpt>
      <trkpt lat="45.31241" lon="4.0768">
        <ele>764.05</ele>
        <time>2022-03-21T13:13:02Z</time>
      </trkpt>
      <trkpt lat="45.31229" lon="4.07681">
        <ele>763.19</ele>
        <time>2022-03-21T13:13:05Z</time>
      </trkpt>
      <trkpt lat="45.31218" lon="4.07686">
        <ele>762.52</ele>
        <time>2022-03-21T13:13:08Z</time>
      </trkpt>
      <trkpt lat="45.31184" lon="4.07713">
        <ele>759.43</ele>
        <time>2022-03-21T13:13:11Z</time>
      </trkpt>
      <trkpt lat="45.31176" lon="4.07716">
        <ele>757.93</ele>
        <time>2022-03-21T13:13:13Z</time>
      </trkpt>
      <trkpt lat="45.31134" lon="4.07722">
        <ele>751.68</ele>
        <time>2022-03-21T13:13:16Z</time>
      </trkpt>
      <trkpt lat="45.31121" lon="4.07728">
        <ele>751.75</ele>
        <time>2022-03-21T13:13:19Z</time>
      </trkpt>
      <trkpt lat="45.31103" lon="4.0774">
        <ele>752.12</ele>
        <time>2022-03-21T13:13:22Z</time>
      </trkpt>
      <trkpt lat="45.31078" lon="4.07749">
        <ele>750.49</ele>
        <time>2022-03-21T13:13:25Z</time>
      </trkpt>
      <trkpt lat="45.31043" lon="4.07752">
        <ele>748.75</ele>
        <time>2022-03-21T13:13:28Z</time>
      </trkpt>
      <trkpt lat="45.31034" lon="4.07758">
        <ele>748.72</ele>
        <time>2022-03-21T13:13:31Z</time>
      </trkpt>
      <trkpt lat="45.31028" lon="4.07769">
        <ele>748.67</ele>
        <time>2022-03-21T13:13:34Z</time>
      </trkpt>
      <trkpt lat="45.31025" lon="4.07791">
        <ele>749.01</ele>
        <time>2022-03-21T13:13:37Z</time>
      </trkpt>
      <trkpt lat="45.31028" lon="4.07805">
        <ele>749.91</ele>
        <time>2022-03-21T13:13:40Z</time>
      </trkpt>
      <trkpt lat="45.31037" lon="4.07829">
        <ele>750.16</ele>
        <time>2022-03-21T13:13:43Z</time>
      </trkpt>
      <trkpt lat="45.31045" lon="4.07839">
        <ele>750.28</ele>
        <time>2022-03-21T13:13:46Z</time>
      </trkpt>
      <trkpt lat="45.31077" lon="4.07869">
        <ele>748.64</ele>
        <time>2022-03-21T13:13:49Z</time>
      </trkpt>
      <trkpt lat="45.31082" lon="4.07879">
        <ele>747.41</ele>
        <time>2022-03-21T13:13:52Z</time>
      </trkpt>
      <trkpt lat="45.31084" lon="4.07889">
        <ele>746.18</ele>
        <time>2022-03-21T13:13:55Z</time>
      </trkpt>
      <trkpt lat="45.31085" lon="4.07902">
        <ele>745.22</ele>
        <time>2022-03-21T13:13:58Z</time>
      </trkpt>
      <trkpt lat="45.31077" lon="4.07926">
        <ele>743.81</ele>
        <time>2022-03-21T13:14:01Z</time>
      </trkpt>
      <trkpt lat="45.3107" lon="4.07933">
        <ele>743.35</ele>
        <time>2022-03-21T13:14:04Z</time>
      </trkpt>
      <trkpt lat="45.31063" lon="4.07937">
        <ele>742.7</ele>
        <time>2022-03-21T13:14:07Z</time>
      </trkpt>
      <trkpt lat="45.31053" lon="4.07939">
        <ele>742.17</ele>
        <time>2022-03-21T13:14:09Z</time>
      </trkpt>
      <trkpt lat="45.3098" lon="4.07941">
        <ele>742.11</ele>
        <time>2022-03-21T13:14:12Z</time>
      </trkpt>
      <trkpt lat="45.30946" lon="4.07951">
        <ele>737.41</ele>
        <time>2022-03-21T13:14:15Z</time>
      </trkpt>
      <trkpt lat="45.30888" lon="4.07985">
        <ele>732.18</ele>
        <time>2022-03-21T13:14:18Z</time>
      </trkpt>
      <trkpt lat="45.30841" lon="4.08007">
        <ele>731.36</ele>
        <time>2022-03-21T13:14:21Z</time>
      </trkpt>
      <trkpt lat="45.30707" lon="4.08037">
        <ele>722.36</ele>
        <time>2022-03-21T13:14:24Z</time>
      </trkpt>
      <trkpt lat="45.30689" lon="4.08047">
        <ele>721.79</ele>
        <time>2022-03-21T13:14:27Z</time>
      </trkpt>
      <trkpt lat="45.30674" lon="4.08058">
        <ele>718.88</ele>
        <time>2022-03-21T13:14:30Z</time>
      </trkpt>
      <trkpt lat="45.30587" lon="4.08143">
        <ele>713.3</ele>
        <time>2022-03-21T13:14:33Z</time>
      </trkpt>
      <trkpt lat="45.30568" lon="4.08156">
        <ele>713.36</ele>
        <time>2022-03-21T13:14:36Z</time>
      </trkpt>
      <trkpt lat="45.30513" lon="4.08189">
        <ele>711.23</ele>
        <time>2022-03-21T13:14:39Z</time>
      </trkpt>
      <trkpt lat="45.30488" lon="4.08209">
        <ele>709.59</ele>
        <time>2022-03-21T13:14:42Z</time>
      </trkpt>
      <trkpt lat="45.30478" lon="4.08222">
        <ele>708.94</ele>
        <time>2022-03-21T13:14:45Z</time>
      </trkpt>
      <trkpt lat="45.30463" lon="4.08244">
        <ele>707.42</ele>
        <time>2022-03-21T13:14:48Z</time>
      </trkpt>
      <trkpt lat="45.30452" lon="4.08266">
        <ele>706.66</ele>
        <time>2022-03-21T13:14:51Z</time>
      </trkpt>
      <trkpt lat="45.30445" lon="4.08289">
        <ele>706.07</ele>
        <time>2022-03-21T13:14:54Z</time>
      </trkpt>
      <trkpt lat="45.30444" lon="4.08302">
        <ele>705.86</ele>
        <time>2022-03-21T13:14:57Z</time>
      </trkpt>
      <trkpt lat="45.30445" lon="4.08314">
        <ele>705.72</ele>
        <time>2022-03-21T13:15:00Z</time>
      </trkpt>
      <trkpt lat="45.30447" lon="4.08326">
        <ele>705.62</ele>
        <time>2022-03-21T13:15:03Z</time>
      </trkpt>
      <trkpt lat="45.30453" lon="4.0834">
        <ele>704.96</ele>
        <time>2022-03-21T13:15:06Z</time>
      </trkpt>
      <trkpt lat="45.30478" lon="4.08385">
        <ele>702.68</ele>
        <time>2022-03-21T13:15:08Z</time>
      </trkpt>
      <trkpt lat="45.30483" lon="4.08399">
        <ele>701.92</ele>
        <time>2022-03-21T13:15:11Z</time>
      </trkpt>
      <trkpt lat="45.30485" lon="4.08417">
        <ele>700.65</ele>
        <time>2022-03-21T13:15:14Z</time>
      </trkpt>
      <trkpt lat="45.30484" lon="4.08435">
        <ele>699.78</ele>
        <time>2022-03-21T13:15:17Z</time>
      </trkpt>
      <trkpt lat="45.30481" lon="4.08451">
        <ele>698.22</ele>
        <time>2022-03-21T13:15:20Z</time>
      </trkpt>
      <trkpt lat="45.30475" lon="4.08466">
        <ele>696.03</ele>
        <time>2022-03-21T13:15:23Z</time>
      </trkpt>
      <trkpt lat="45.30465" lon="4.08479">
        <ele>693.55</ele>
        <time>2022-03-21T13:15:26Z</time>
      </trkpt>
      <trkpt lat="45.30455" lon="4.08489">
        <ele>691.53</ele>
        <time>2022-03-21T13:15:29Z</time>
      </trkpt>
      <trkpt lat="45.30442" lon="4.08495">
        <ele>689.36</ele>
        <time>2022-03-21T13:15:32Z</time>
      </trkpt>
      <trkpt lat="45.30431" lon="4.08496">
        <ele>689.06</ele>
        <time>2022-03-21T13:15:35Z</time>
      </trkpt>
      <trkpt lat="45.30418" lon="4.08495">
        <ele>688.3</ele>
        <time>2022-03-21T13:15:38Z</time>
      </trkpt>
      <trkpt lat="45.30405" lon="4.0849">
        <ele>688.95</ele>
        <time>2022-03-21T13:15:41Z</time>
      </trkpt>
      <trkpt lat="45.30365" lon="4.08468">
        <ele>689.88</ele>
        <time>2022-03-21T13:15:44Z</time>
      </trkpt>
      <trkpt lat="45.30332" lon="4.08454">
        <ele>685.16</ele>
        <time>2022-03-21T13:15:47Z</time>
      </trkpt>
      <trkpt lat="45.30321" lon="4.08451">
        <ele>683.64</ele>
        <time>2022-03-21T13:15:50Z</time>
      </trkpt>
      <trkpt lat="45.30308" lon="4.08451">
        <ele>682.48</ele>
        <time>2022-03-21T13:15:53Z</time>
      </trkpt>
      <trkpt lat="45.30293" lon="4.08454">
        <ele>679.69</ele>
        <time>2022-03-21T13:15:56Z</time>
      </trkpt>
      <trkpt lat="45.30282" lon="4.08462">
        <ele>678.23</ele>
        <time>2022-03-21T13:15:59Z</time>
      </trkpt>
      <trkpt lat="45.30275" lon="4.08469">
        <ele>677.57</ele>
        <time>2022-03-21T13:16:02Z</time>
      </trkpt>
      <trkpt lat="45.30267" lon="4.08483">
        <ele>677.24</ele>
        <time>2022-03-21T13:16:05Z</time>
      </trkpt>
      <trkpt lat="45.30247" lon="4.08527">
        <ele>677.91</ele>
        <time>2022-03-21T13:16:07Z</time>
      </trkpt>
      <trkpt lat="45.30238" lon="4.0854">
        <ele>677.42</ele>
        <time>2022-03-21T13:16:10Z</time>
      </trkpt>
      <trkpt lat="45.30218" lon="4.08559">
        <ele>675.53</ele>
        <time>2022-03-21T13:16:13Z</time>
      </trkpt>
      <trkpt lat="45.30197" lon="4.08588">
        <ele>675.75</ele>
        <time>2022-03-21T13:16:16Z</time>
      </trkpt>
      <trkpt lat="45.30187" lon="4.086">
        <ele>675.4</ele>
        <time>2022-03-21T13:16:19Z</time>
      </trkpt>
      <trkpt lat="45.30177" lon="4.08606">
        <ele>673.88</ele>
        <time>2022-03-21T13:16:22Z</time>
      </trkpt>
      <trkpt lat="45.30148" lon="4.08619">
        <ele>668.09</ele>
        <time>2022-03-21T13:16:25Z</time>
      </trkpt>
      <trkpt lat="45.30135" lon="4.0863">
        <ele>666.4</ele>
        <time>2022-03-21T13:16:28Z</time>
      </trkpt>
      <trkpt lat="45.30118" lon="4.08646">
        <ele>665.54</ele>
        <time>2022-03-21T13:16:31Z</time>
      </trkpt>
      <trkpt lat="45.30101" lon="4.08658">
        <ele>664.82</ele>
        <time>2022-03-21T13:16:34Z</time>
      </trkpt>
      <trkpt lat="45.30086" lon="4.08664">
        <ele>664.58</ele>
        <time>2022-03-21T13:16:37Z</time>
      </trkpt>
      <trkpt lat="45.3007" lon="4.08664">
        <ele>663.36</ele>
        <time>2022-03-21T13:16:40Z</time>
      </trkpt>
      <trkpt lat="45.30038" lon="4.08659">
        <ele>656.98</ele>
        <time>2022-03-21T13:16:43Z</time>
      </trkpt>
      <trkpt lat="45.30026" lon="4.08662">
        <ele>654.54</ele>
        <time>2022-03-21T13:16:46Z</time>
      </trkpt>
      <trkpt lat="45.30005" lon="4.08675">
        <ele>651.91</ele>
        <time>2022-03-21T13:16:49Z</time>
      </trkpt>
      <trkpt lat="45.29995" lon="4.08687">
        <ele>651.06</ele>
        <time>2022-03-21T13:16:52Z</time>
      </trkpt>
      <trkpt lat="45.29984" lon="4.0871">
        <ele>649.94</ele>
        <time>2022-03-21T13:16:55Z</time>
      </trkpt>
      <trkpt lat="45.29978" lon="4.08729">
        <ele>650.25</ele>
        <time>2022-03-21T13:16:58Z</time>
      </trkpt>
      <trkpt lat="45.29966" lon="4.08791">
        <ele>652.04</ele>
        <time>2022-03-21T13:17:01Z</time>
      </trkpt>
      <trkpt lat="45.29961" lon="4.08807">
        <ele>651.88</ele>
        <time>2022-03-21T13:17:03Z</time>
      </trkpt>
      <trkpt lat="45.29954" lon="4.08819">
        <ele>650.61</ele>
        <time>2022-03-21T13:17:06Z</time>
      </trkpt>
      <trkpt lat="45.29946" lon="4.08828">
        <ele>648.78</ele>
        <time>2022-03-21T13:17:09Z</time>
      </trkpt>
      <trkpt lat="45.29935" lon="4.08833">
        <ele>647.3</ele>
        <time>2022-03-21T13:17:12Z</time>
      </trkpt>
      <trkpt lat="45.29925" lon="4.08836">
        <ele>645.72</ele>
        <time>2022-03-21T13:17:15Z</time>
      </trkpt>
      <trkpt lat="45.29885" lon="4.08835">
        <ele>638.37</ele>
        <time>2022-03-21T13:17:18Z</time>
      </trkpt>
      <trkpt lat="45.29862" lon="4.08843">
        <ele>635.8</ele>
        <time>2022-03-21T13:17:21Z</time>
      </trkpt>
      <trkpt lat="45.29844" lon="4.08858">
        <ele>635.16</ele>
        <time>2022-03-21T13:17:24Z</time>
      </trkpt>
      <trkpt lat="45.29807" lon="4.089">
        <ele>632.08</ele>
        <time>2022-03-21T13:17:27Z</time>
      </trkpt>
      <trkpt lat="45.29794" lon="4.08918">
        <ele>629.62</ele>
        <time>2022-03-21T13:17:30Z</time>
      </trkpt>
      <trkpt lat="45.29764" lon="4.08982">
        <ele>630.76</ele>
        <time>2022-03-21T13:17:33Z</time>
      </trkpt>
      <trkpt lat="45.29753" lon="4.08994">
        <ele>629.67</ele>
        <time>2022-03-21T13:17:36Z</time>
      </trkpt>
      <trkpt lat="45.29714" lon="4.09029">
        <ele>626.97</ele>
        <time>2022-03-21T13:17:39Z</time>
      </trkpt>
      <trkpt lat="45.29698" lon="4.09038">
        <ele>624.04</ele>
        <time>2022-03-21T13:17:42Z</time>
      </trkpt>
      <trkpt lat="45.29661" lon="4.09052">
        <ele>617.34</ele>
        <time>2022-03-21T13:17:45Z</time>
      </trkpt>
      <trkpt lat="45.2965" lon="4.09059">
        <ele>616.63</ele>
        <time>2022-03-21T13:17:48Z</time>
      </trkpt>
      <trkpt lat="45.29642" lon="4.09067">
        <ele>616.56</ele>
        <time>2022-03-21T13:17:51Z</time>
      </trkpt>
      <trkpt lat="45.2963" lon="4.09088">
        <ele>617.59</ele>
        <time>2022-03-21T13:17:54Z</time>
      </trkpt>
      <trkpt lat="45.2963" lon="4.09088">
        <ele>617.59</ele>
        <time>2022-03-21T13:17:54Z</time>
      </trkpt>
      <trkpt lat="45.29626" lon="4.09117">
        <ele>617.16</ele>
        <time>2022-03-21T13:17:57Z</time>
      </trkpt>
      <trkpt lat="45.29629" lon="4.09136">
        <ele>616.17</ele>
        <time>2022-03-21T13:17:59Z</time>
      </trkpt>
      <trkpt lat="45.29635" lon="4.09152">
        <ele>614.77</ele>
        <time>2022-03-21T13:18:02Z</time>
      </trkpt>
      <trkpt lat="45.29645" lon="4.09168">
        <ele>613.73</ele>
        <time>2022-03-21T13:18:05Z</time>
      </trkpt>
      <trkpt lat="45.29672" lon="4.09204">
        <ele>613.8</ele>
        <time>2022-03-21T13:18:08Z</time>
      </trkpt>
      <trkpt lat="45.29706" lon="4.09232">
        <ele>611.2</ele>
        <time>2022-03-21T13:18:11Z</time>
      </trkpt>
      <trkpt lat="45.29768" lon="4.09264">
        <ele>606.07</ele>
        <time>2022-03-21T13:18:14Z</time>
      </trkpt>
      <trkpt lat="45.29828" lon="4.09323">
        <ele>599.42</ele>
        <time>2022-03-21T13:18:17Z</time>
      </trkpt>
      <trkpt lat="45.29845" lon="4.0933">
        <ele>596.96</ele>
        <time>2022-03-21T13:18:19Z</time>
      </trkpt>
      <trkpt lat="45.29854" lon="4.09328">
        <ele>596.05</ele>
        <time>2022-03-21T13:18:22Z</time>
      </trkpt>
      <trkpt lat="45.29863" lon="4.09324">
        <ele>595.68</ele>
        <time>2022-03-21T13:18:25Z</time>
      </trkpt>
      <trkpt lat="45.29901" lon="4.09283">
        <ele>593.59</ele>
        <time>2022-03-21T13:18:28Z</time>
      </trkpt>
      <trkpt lat="45.29909" lon="4.0928">
        <ele>593.29</ele>
        <time>2022-03-21T13:18:31Z</time>
      </trkpt>
      <trkpt lat="45.29917" lon="4.0928">
        <ele>592.88</ele>
        <time>2022-03-21T13:18:34Z</time>
      </trkpt>
      <trkpt lat="45.29924" lon="4.09283">
        <ele>593.77</ele>
        <time>2022-03-21T13:18:37Z</time>
      </trkpt>
      <trkpt lat="45.29931" lon="4.0929">
        <ele>594.26</ele>
        <time>2022-03-21T13:18:39Z</time>
      </trkpt>
      <trkpt lat="45.29936" lon="4.09302">
        <ele>593.87</ele>
        <time>2022-03-21T13:18:42Z</time>
      </trkpt>
      <trkpt lat="45.29938" lon="4.09315">
        <ele>593.14</ele>
        <time>2022-03-21T13:18:45Z</time>
      </trkpt>
      <trkpt lat="45.29936" lon="4.0933">
        <ele>591.75</ele>
        <time>2022-03-21T13:18:48Z</time>
      </trkpt>
      <trkpt lat="45.29931" lon="4.09344">
        <ele>589.81</ele>
        <time>2022-03-21T13:18:51Z</time>
      </trkpt>
      <trkpt lat="45.29907" lon="4.09387">
        <ele>582.2</ele>
        <time>2022-03-21T13:18:54Z</time>
      </trkpt>
      <trkpt lat="45.29901" lon="4.09406">
        <ele>579.83</ele>
        <time>2022-03-21T13:18:56Z</time>
      </trkpt>
      <trkpt lat="45.29895" lon="4.0945">
        <ele>575.99</ele>
        <time>2022-03-21T13:18:59Z</time>
      </trkpt>
      <trkpt lat="45.29895" lon="4.09467">
        <ele>574.78</ele>
        <time>2022-03-21T13:19:02Z</time>
      </trkpt>
      <trkpt lat="45.29898" lon="4.09481">
        <ele>573.27</ele>
        <time>2022-03-21T13:19:05Z</time>
      </trkpt>
      <trkpt lat="45.29904" lon="4.09493">
        <ele>572.17</ele>
        <time>2022-03-21T13:19:08Z</time>
      </trkpt>
      <trkpt lat="45.29922" lon="4.09508">
        <ele>571.27</ele>
        <time>2022-03-21T13:19:11Z</time>
      </trkpt>
      <trkpt lat="45.29933" lon="4.09512">
        <ele>570.27</ele>
        <time>2022-03-21T13:19:14Z</time>
      </trkpt>
      <trkpt lat="45.29944" lon="4.09513">
        <ele>569.73</ele>
        <time>2022-03-21T13:19:16Z</time>
      </trkpt>
      <trkpt lat="45.29967" lon="4.0951">
        <ele>568.57</ele>
        <time>2022-03-21T13:19:19Z</time>
      </trkpt>
      <trkpt lat="45.30008" lon="4.09498">
        <ele>570.55</ele>
        <time>2022-03-21T13:19:22Z</time>
      </trkpt>
      <trkpt lat="45.3002" lon="4.09498">
        <ele>570.49</ele>
        <time>2022-03-21T13:19:25Z</time>
      </trkpt>
      <trkpt lat="45.3003" lon="4.09502">
        <ele>569.57</ele>
        <time>2022-03-21T13:19:28Z</time>
      </trkpt>
      <trkpt lat="45.30038" lon="4.09508">
        <ele>569</ele>
        <time>2022-03-21T13:19:31Z</time>
      </trkpt>
      <trkpt lat="45.30074" lon="4.09547">
        <ele>563.34</ele>
        <time>2022-03-21T13:19:33Z</time>
      </trkpt>
      <trkpt lat="45.30089" lon="4.09559">
        <ele>561.25</ele>
        <time>2022-03-21T13:19:36Z</time>
      </trkpt>
      <trkpt lat="45.30101" lon="4.09566">
        <ele>559.61</ele>
        <time>2022-03-21T13:19:39Z</time>
      </trkpt>
      <trkpt lat="45.30144" lon="4.09584">
        <ele>557.08</ele>
        <time>2022-03-21T13:19:42Z</time>
      </trkpt>
      <trkpt lat="45.30178" lon="4.09608">
        <ele>553.4</ele>
        <time>2022-03-21T13:19:45Z</time>
      </trkpt>
      <trkpt lat="45.30198" lon="4.09633">
        <ele>550.93</ele>
        <time>2022-03-21T13:19:48Z</time>
      </trkpt>
      <trkpt lat="45.30226" lon="4.09689">
        <ele>547.67</ele>
        <time>2022-03-21T13:19:51Z</time>
      </trkpt>
      <trkpt lat="45.30241" lon="4.09711">
        <ele>545.8</ele>
        <time>2022-03-21T13:19:53Z</time>
      </trkpt>
      <trkpt lat="45.30262" lon="4.09729">
        <ele>543.4</ele>
        <time>2022-03-21T13:19:56Z</time>
      </trkpt>
      <trkpt lat="45.30275" lon="4.09735">
        <ele>542.03</ele>
        <time>2022-03-21T13:19:59Z</time>
      </trkpt>
      <trkpt lat="45.30338" lon="4.09743">
        <ele>540.84</ele>
        <time>2022-03-21T13:20:02Z</time>
      </trkpt>
      <trkpt lat="45.30347" lon="4.09749">
        <ele>539.71</ele>
        <time>2022-03-21T13:20:05Z</time>
      </trkpt>
      <trkpt lat="45.30357" lon="4.09761">
        <ele>537.85</ele>
        <time>2022-03-21T13:20:08Z</time>
      </trkpt>
      <trkpt lat="45.30365" lon="4.09781">
        <ele>534.68</ele>
        <time>2022-03-21T13:20:10Z</time>
      </trkpt>
      <trkpt lat="45.30395" lon="4.09912">
        <ele>520.19</ele>
        <time>2022-03-21T13:20:13Z</time>
      </trkpt>
      <trkpt lat="45.30419" lon="4.09997">
        <ele>517.58</ele>
        <time>2022-03-21T13:20:16Z</time>
      </trkpt>
      <trkpt lat="45.30438" lon="4.10034">
        <ele>515.27</ele>
        <time>2022-03-21T13:20:19Z</time>
      </trkpt>
      <trkpt lat="45.3046" lon="4.10065">
        <ele>511.94</ele>
        <time>2022-03-21T13:20:22Z</time>
      </trkpt>
      <trkpt lat="45.30482" lon="4.10071">
        <ele>512.83</ele>
        <time>2022-03-21T13:20:25Z</time>
      </trkpt>
      <trkpt lat="45.3052" lon="4.10065">
        <ele>515.8</ele>
        <time>2022-03-21T13:20:28Z</time>
      </trkpt>
      <trkpt lat="45.30536" lon="4.10078">
        <ele>516.46</ele>
        <time>2022-03-21T13:20:30Z</time>
      </trkpt>
      <trkpt lat="45.30542" lon="4.10095">
        <ele>516.01</ele>
        <time>2022-03-21T13:20:33Z</time>
      </trkpt>
      <trkpt lat="45.30596" lon="4.10448">
        <ele>489.21</ele>
        <time>2022-03-21T13:20:36Z</time>
      </trkpt>
      <trkpt lat="45.30609" lon="4.10554">
        <ele>482.99</ele>
        <time>2022-03-21T13:20:39Z</time>
      </trkpt>
      <trkpt lat="45.30615" lon="4.10645">
        <ele>476.46</ele>
        <time>2022-03-21T13:20:42Z</time>
      </trkpt>
      <trkpt lat="45.30606" lon="4.1065">
        <ele>476.21</ele>
        <time>2022-03-21T13:20:46Z</time>
      </trkpt>
      <trkpt lat="45.30538" lon="4.10737">
        <ele>471.48</ele>
        <time>2022-03-21T13:20:51Z</time>
      </trkpt>
      <trkpt lat="45.30525" lon="4.1075">
        <ele>471</ele>
        <time>2022-03-21T13:20:55Z</time>
      </trkpt>
      <trkpt lat="45.30501" lon="4.10796">
        <ele>470.38</ele>
        <time>2022-03-21T13:20:59Z</time>
      </trkpt>
      <trkpt lat="45.30498" lon="4.10807">
        <ele>470.09</ele>
        <time>2022-03-21T13:21:04Z</time>
      </trkpt>
      <trkpt lat="45.3047" lon="4.10752">
        <ele>472</ele>
        <time>2022-03-21T13:21:07Z</time>
      </trkpt>
      <trkpt lat="45.30466" lon="4.10739">
        <ele>472.22</ele>
        <time>2022-03-21T13:21:11Z</time>
      </trkpt>
      <trkpt lat="45.30463" lon="4.1072">
        <ele>472.37</ele>
        <time>2022-03-21T13:21:15Z</time>
      </trkpt>
      <trkpt lat="45.30463" lon="4.10705">
        <ele>472.75</ele>
        <time>2022-03-21T13:21:19Z</time>
      </trkpt>
      <trkpt lat="45.30452" lon="4.10696">
        <ele>472.98</ele>
        <time>2022-03-21T13:21:26Z</time>
      </trkpt>
      <trkpt lat="45.30385" lon="4.10625">
        <ele>476.44</ele>
        <time>2022-03-21T13:21:33Z</time>
      </trkpt>
      <trkpt lat="45.30351" lon="4.10686">
        <ele>473.31</ele>
        <time>2022-03-21T13:21:44Z</time>
      </trkpt>
      <trkpt lat="45.3037" lon="4.10706">
        <ele>472.71</ele>
        <time>2022-03-21T13:21:49Z</time>
      </trkpt>
      <trkpt lat="45.30382" lon="4.10723">
        <ele>472.69</ele>
        <time>2022-03-21T13:21:54Z</time>
      </trkpt>
      <trkpt lat="45.30393" lon="4.10779">
        <ele>469.06</ele>
        <time>2022-03-21T13:21:59Z</time>
      </trkpt>
    </trkseg>
  </trk>
</gpx>